<?xml version='1.0' encoding='UTF-8'?><gpx version="1.1" creator="JPX - https://github.com/jenetics/jpx" xmlns="http://www.topografix.com/GPX/1/1"><trk><trkseg><trkpt lat="43.438058054180416" lon="11.85102217340595"><ele>288.00000000000006</ele><time>2026-03-22T08:30:56.999Z</time></trkpt><trkpt lat="43.43799168503196" lon="11.851031561569672"><ele>288.0</ele><time>2026-03-22T08:30:58.999Z</time></trkpt><trkpt lat="43.437921647370274" lon="11.85104852569323"><ele>288.0</ele><time>2026-03-22T08:31:00.999Z</time></trkpt><trkpt lat="43.43785429891" lon="11.85105649484837"><ele>288.0</ele><time>2026-03-22T08:31:02.999Z</time></trkpt><trkpt lat="43.43776445357625" lon="11.85106112779271"><ele>288.0</ele><time>2026-03-22T08:31:05.999Z</time></trkpt><trkpt lat="43.437703224806846" lon="11.851115465026151"><ele>288.00000000000006</ele><time>2026-03-22T08:31:07.999Z</time></trkpt><trkpt lat="43.437639782505336" lon="11.851177406504302"><ele>288.0</ele><time>2026-03-22T08:31:09.999Z</time></trkpt><trkpt lat="43.43757232743714" lon="11.851220635866461"><ele>287.0</ele><time>2026-03-22T08:31:11.999Z</time></trkpt><trkpt lat="43.437512948648546" lon="11.851284516744805"><ele>286.0</ele><time>2026-03-22T08:31:13.999Z</time></trkpt><trkpt lat="43.43743812570968" lon="11.85132978230778"><ele>285.0</ele><time>2026-03-22T08:31:15.999Z</time></trkpt><trkpt lat="43.43736691718323" lon="11.85133665912228"><ele>284.0</ele><time>2026-03-22T08:31:17.999Z</time></trkpt><trkpt lat="43.43728816665277" lon="11.851335429621482"><ele>283.0</ele><time>2026-03-22T08:31:19.999Z</time></trkpt><trkpt lat="43.43721945719606" lon="11.851353314532167"><ele>282.0</ele><time>2026-03-22T08:31:22.999Z</time></trkpt><trkpt lat="43.43715582428254" lon="11.851286333960395"><ele>282.1666666666667</ele><time>2026-03-22T08:31:26.001Z</time></trkpt><trkpt lat="43.43708048056386" lon="11.851250871293118"><ele>282.3333333333333</ele><time>2026-03-22T08:31:30.001Z</time></trkpt><trkpt lat="43.43700336928212" lon="11.851214814961438"><ele>282.5</ele><time>2026-03-22T08:31:32.001Z</time></trkpt><trkpt lat="43.436924533393416" lon="11.851157998607947"><ele>282.66666666666663</ele><time>2026-03-22T08:31:34.001Z</time></trkpt><trkpt lat="43.4368410746335" lon="11.851102297446582"><ele>282.8333333333333</ele><time>2026-03-22T08:31:36.001Z</time></trkpt><trkpt lat="43.43675676624014" lon="11.851033300269311"><ele>283.0</ele><time>2026-03-22T08:31:38.001Z</time></trkpt><trkpt lat="43.43667178690745" lon="11.850948657035323"><ele>283.0</ele><time>2026-03-22T08:31:40.001Z</time></trkpt><trkpt lat="43.43659053721" lon="11.85085587409882"><ele>283.0</ele><time>2026-03-22T08:31:42Z</time></trkpt><trkpt lat="43.436517206012155" lon="11.850742640318552"><ele>283.0</ele><time>2026-03-22T08:31:44Z</time></trkpt><trkpt lat="43.436467843678685" lon="11.850611060959434"><ele>283.0</ele><time>2026-03-22T08:31:46Z</time></trkpt><trkpt lat="43.436424403658826" lon="11.850463737927221"><ele>283.0</ele><time>2026-03-22T08:31:48Z</time></trkpt><trkpt lat="43.43639582208679" lon="11.850304791687439"><ele>283.0</ele><time>2026-03-22T08:31:50Z</time></trkpt><trkpt lat="43.43635270014015" lon="11.850151273756405"><ele>283.0</ele><time>2026-03-22T08:31:52Z</time></trkpt><trkpt lat="43.43630908134959" lon="11.850081494402769"><ele>283.0</ele><time>2026-03-22T08:31:53Z</time></trkpt><trkpt lat="43.436227521350496" lon="11.849953692150672"><ele>283.0</ele><time>2026-03-22T08:31:55Z</time></trkpt><trkpt lat="43.43619821034701" lon="11.849875303980605"><ele>283.0</ele><time>2026-03-22T08:31:56Z</time></trkpt><trkpt lat="43.436174147554894" lon="11.849703988879405"><ele>282.7142857142857</ele><time>2026-03-22T08:31:58Z</time></trkpt><trkpt lat="43.43614878878572" lon="11.849619289534274"><ele>282.42857142857144</ele><time>2026-03-22T08:31:59Z</time></trkpt><trkpt lat="43.436110777248764" lon="11.849544206217802"><ele>282.14285714285717</ele><time>2026-03-22T08:32:00Z</time></trkpt><trkpt lat="43.43605231306151" lon="11.849481905030002"><ele>281.8571428571429</ele><time>2026-03-22T08:32:01Z</time></trkpt><trkpt lat="43.43598549828713" lon="11.849431771524747"><ele>281.57142857142856</ele><time>2026-03-22T08:32:02Z</time></trkpt><trkpt lat="43.435923983507465" lon="11.849377345183118"><ele>281.28571428571433</ele><time>2026-03-22T08:32:03Z</time></trkpt><trkpt lat="43.43587244895777" lon="11.849315984520501"><ele>281.0</ele><time>2026-03-22T08:32:04Z</time></trkpt><trkpt lat="43.43582932382429" lon="11.84922779017371"><ele>280.83333333333337</ele><time>2026-03-22T08:32:05Z</time></trkpt><trkpt lat="43.43579305987708" lon="11.849133188343405"><ele>280.6666666666667</ele><time>2026-03-22T08:32:06Z</time></trkpt><trkpt lat="43.435753824712066" lon="11.849043207420031"><ele>280.5</ele><time>2026-03-22T08:32:07Z</time></trkpt><trkpt lat="43.43570920616794" lon="11.848959503491717"><ele>280.3333333333333</ele><time>2026-03-22T08:32:08Z</time></trkpt><trkpt lat="43.43566575805456" lon="11.848872092923596"><ele>280.16666666666663</ele><time>2026-03-22T08:32:09Z</time></trkpt><trkpt lat="43.43562636036601" lon="11.848775820409402"><ele>280.0</ele><time>2026-03-22T08:32:10Z</time></trkpt><trkpt lat="43.435581761565984" lon="11.848686719141208"><ele>280.0</ele><time>2026-03-22T08:32:11Z</time></trkpt><trkpt lat="43.435536713698404" lon="11.848595630396737"><ele>280.0</ele><time>2026-03-22T08:32:11.999Z</time></trkpt><trkpt lat="43.43549040685722" lon="11.848503156363575"><ele>280.0</ele><time>2026-03-22T08:32:12.999Z</time></trkpt><trkpt lat="43.43544666278324" lon="11.848408048881293"><ele>280.0</ele><time>2026-03-22T08:32:13.999Z</time></trkpt><trkpt lat="43.43539949689404" lon="11.848311530276053"><ele>280.0</ele><time>2026-03-22T08:32:14.999Z</time></trkpt><trkpt lat="43.435352894679866" lon="11.848214834212131"><ele>280.0</ele><time>2026-03-22T08:32:15.999Z</time></trkpt><trkpt lat="43.43530833166964" lon="11.848118795728722"><ele>279.5</ele><time>2026-03-22T08:32:16.999Z</time></trkpt><trkpt lat="43.43525987236658" lon="11.84802277293899"><ele>279.0</ele><time>2026-03-22T08:32:17.999Z</time></trkpt><trkpt lat="43.43521107175193" lon="11.847926132522606"><ele>278.5</ele><time>2026-03-22T08:32:18.999Z</time></trkpt><trkpt lat="43.43516506205019" lon="11.847828373873002"><ele>278.0</ele><time>2026-03-22T08:32:19.999Z</time></trkpt><trkpt lat="43.43512107484422" lon="11.847728558004386"><ele>277.5</ele><time>2026-03-22T08:32:20.999Z</time></trkpt><trkpt lat="43.43507338624152" lon="11.84763230991737"><ele>277.0</ele><time>2026-03-22T08:32:21.999Z</time></trkpt><trkpt lat="43.435026989048495" lon="11.847533613180149"><ele>277.0</ele><time>2026-03-22T08:32:22.999Z</time></trkpt><trkpt lat="43.434976264927364" lon="11.847436924134156"><ele>277.0</ele><time>2026-03-22T08:32:23.999Z</time></trkpt><trkpt lat="43.43493224344832" lon="11.84733713576319"><ele>277.0</ele><time>2026-03-22T08:32:24.999Z</time></trkpt><trkpt lat="43.43488364028056" lon="11.847236281364086"><ele>277.0</ele><time>2026-03-22T08:32:25.999Z</time></trkpt><trkpt lat="43.434834923033236" lon="11.847136456608602"><ele>277.0</ele><time>2026-03-22T08:32:26.999Z</time></trkpt><trkpt lat="43.434788413963936" lon="11.84703512068159"><ele>277.0</ele><time>2026-03-22T08:32:27.999Z</time></trkpt><trkpt lat="43.43473954866899" lon="11.846932748521027"><ele>277.0</ele><time>2026-03-22T08:32:28.999Z</time></trkpt><trkpt lat="43.43469207123679" lon="11.846829607115478"><ele>277.0</ele><time>2026-03-22T08:32:29.999Z</time></trkpt><trkpt lat="43.434643742053446" lon="11.846726693509613"><ele>277.0</ele><time>2026-03-22T08:32:30.999Z</time></trkpt><trkpt lat="43.4345954317309" lon="11.84662329522307"><ele>277.0</ele><time>2026-03-22T08:32:31.999Z</time></trkpt><trkpt lat="43.43454601203723" lon="11.84652022899539"><ele>277.0</ele><time>2026-03-22T08:32:32.999Z</time></trkpt><trkpt lat="43.434496055145" lon="11.846417293686208"><ele>277.0</ele><time>2026-03-22T08:32:33.999Z</time></trkpt><trkpt lat="43.43444367918876" lon="11.846315309267183"><ele>276.2</ele><time>2026-03-22T08:32:34.999Z</time></trkpt><trkpt lat="43.4343934810942" lon="11.846210725203193"><ele>275.4</ele><time>2026-03-22T08:32:35.999Z</time></trkpt><trkpt lat="43.43434244293807" lon="11.846103130712633"><ele>274.6</ele><time>2026-03-22T08:32:36.999Z</time></trkpt><trkpt lat="43.43428967925535" lon="11.845996474744641"><ele>273.8</ele><time>2026-03-22T08:32:37.999Z</time></trkpt><trkpt lat="43.4342385611905" lon="11.845891241482343"><ele>273.0</ele><time>2026-03-22T08:32:38.999Z</time></trkpt><trkpt lat="43.43418654854765" lon="11.84578359892258"><ele>273.0</ele><time>2026-03-22T08:32:39.999Z</time></trkpt><trkpt lat="43.43413303552874" lon="11.845679822743495"><ele>273.0</ele><time>2026-03-22T08:32:40.999Z</time></trkpt><trkpt lat="43.434082229715614" lon="11.845572984563734"><ele>273.0</ele><time>2026-03-22T08:32:41.999Z</time></trkpt><trkpt lat="43.43402907660355" lon="11.845464421512537"><ele>273.0</ele><time>2026-03-22T08:32:42.999Z</time></trkpt><trkpt lat="43.43397518542861" lon="11.845355989270484"><ele>273.0</ele><time>2026-03-22T08:32:43.999Z</time></trkpt><trkpt lat="43.433920963307465" lon="11.845247344056693"><ele>273.0</ele><time>2026-03-22T08:32:44.999Z</time></trkpt><trkpt lat="43.43386865938004" lon="11.845137664117004"><ele>273.0</ele><time>2026-03-22T08:32:45.999Z</time></trkpt><trkpt lat="43.433817253401806" lon="11.84502754777998"><ele>273.0</ele><time>2026-03-22T08:32:46.999Z</time></trkpt><trkpt lat="43.433765649943524" lon="11.844918489201259"><ele>273.0</ele><time>2026-03-22T08:32:47.999Z</time></trkpt><trkpt lat="43.433713943315794" lon="11.844809422655347"><ele>273.0</ele><time>2026-03-22T08:32:48.999Z</time></trkpt><trkpt lat="43.4336626198038" lon="11.84470168885122"><ele>272.4</ele><time>2026-03-22T08:32:49.999Z</time></trkpt><trkpt lat="43.43360925884505" lon="11.844592547339824"><ele>271.8</ele><time>2026-03-22T08:32:50.999Z</time></trkpt><trkpt lat="43.43355606767447" lon="11.844483179051318"><ele>271.2</ele><time>2026-03-22T08:32:51.999Z</time></trkpt><trkpt lat="43.43350342806374" lon="11.844372159418024"><ele>270.6</ele><time>2026-03-22T08:32:52.999Z</time></trkpt><trkpt lat="43.43345012861571" lon="11.844259945998736"><ele>270.0</ele><time>2026-03-22T08:32:53.999Z</time></trkpt><trkpt lat="43.43339471926669" lon="11.84414933322231"><ele>270.0</ele><time>2026-03-22T08:32:54.999Z</time></trkpt><trkpt lat="43.433339125171265" lon="11.84403968607308"><ele>270.0</ele><time>2026-03-22T08:32:55.999Z</time></trkpt><trkpt lat="43.433280586977936" lon="11.84393372828169"><ele>270.0</ele><time>2026-03-22T08:32:56.999Z</time></trkpt><trkpt lat="43.43322101593431" lon="11.843832081500567"><ele>270.0</ele><time>2026-03-22T08:32:57.999Z</time></trkpt><trkpt lat="43.43315616828662" lon="11.843732508737263"><ele>270.0</ele><time>2026-03-22T08:32:58.999Z</time></trkpt><trkpt lat="43.43308849866129" lon="11.843635766474133"><ele>270.0</ele><time>2026-03-22T08:32:59.998Z</time></trkpt><trkpt lat="43.43301964606167" lon="11.843541353462607"><ele>270.0</ele><time>2026-03-22T08:33:00.998Z</time></trkpt><trkpt lat="43.432944710883476" lon="11.843452751419047"><ele>270.0</ele><time>2026-03-22T08:33:01.998Z</time></trkpt><trkpt lat="43.432867560027915" lon="11.843363819950051"><ele>270.0</ele><time>2026-03-22T08:33:02.998Z</time></trkpt><trkpt lat="43.4327895296969" lon="11.84327846029406"><ele>270.0</ele><time>2026-03-22T08:33:03.998Z</time></trkpt><trkpt lat="43.43270911683792" lon="11.843192859635607"><ele>269.6</ele><time>2026-03-22T08:33:04.998Z</time></trkpt><trkpt lat="43.43262665427485" lon="11.843107765972997"><ele>269.2</ele><time>2026-03-22T08:33:05.998Z</time></trkpt><trkpt lat="43.43254393820965" lon="11.843023719773102"><ele>268.8</ele><time>2026-03-22T08:33:06.998Z</time></trkpt><trkpt lat="43.43246104126227" lon="11.842936683911212"><ele>268.4</ele><time>2026-03-22T08:33:07.998Z</time></trkpt><trkpt lat="43.432377800501136" lon="11.842851735188432"><ele>268.0</ele><time>2026-03-22T08:33:08.998Z</time></trkpt><trkpt lat="43.43229405560629" lon="11.84276541190106"><ele>268.0</ele><time>2026-03-22T08:33:09.998Z</time></trkpt><trkpt lat="43.43221192596588" lon="11.842680236813942"><ele>268.0</ele><time>2026-03-22T08:33:10.998Z</time></trkpt><trkpt lat="43.432128980439686" lon="11.842597899710247"><ele>268.0</ele><time>2026-03-22T08:33:11.998Z</time></trkpt><trkpt lat="43.4320464842265" lon="11.842513678602407"><ele>268.0</ele><time>2026-03-22T08:33:12.998Z</time></trkpt><trkpt lat="43.43196572602949" lon="11.842431362412986"><ele>268.0</ele><time>2026-03-22T08:33:13.998Z</time></trkpt><trkpt lat="43.43188374550431" lon="11.842348013763804"><ele>267.4</ele><time>2026-03-22T08:33:14.998Z</time></trkpt><trkpt lat="43.431803785414765" lon="11.842264351207188"><ele>266.8</ele><time>2026-03-22T08:33:15.998Z</time></trkpt><trkpt lat="43.431725194155646" lon="11.842181930360198"><ele>266.2</ele><time>2026-03-22T08:33:16.998Z</time></trkpt><trkpt lat="43.43164657286958" lon="11.842101902901954"><ele>265.6</ele><time>2026-03-22T08:33:17.998Z</time></trkpt><trkpt lat="43.431569121159995" lon="11.842020661184154"><ele>265.0</ele><time>2026-03-22T08:33:18.998Z</time></trkpt><trkpt lat="43.43149063357876" lon="11.841937078279903"><ele>265.0</ele><time>2026-03-22T08:33:19.998Z</time></trkpt><trkpt lat="43.43140857201379" lon="11.841858472721968"><ele>265.0</ele><time>2026-03-22T08:33:20.998Z</time></trkpt><trkpt lat="43.43132554513381" lon="11.841779728005143"><ele>265.0</ele><time>2026-03-22T08:33:21.998Z</time></trkpt><trkpt lat="43.43124721191341" lon="11.841693196140534"><ele>265.0</ele><time>2026-03-22T08:33:22.998Z</time></trkpt><trkpt lat="43.431164727193696" lon="11.841614026499506"><ele>265.0</ele><time>2026-03-22T08:33:23.998Z</time></trkpt><trkpt lat="43.431084738742996" lon="11.841531556880991"><ele>264.6</ele><time>2026-03-22T08:33:24.998Z</time></trkpt><trkpt lat="43.431005786644725" lon="11.84144180097366"><ele>264.2</ele><time>2026-03-22T08:33:25.998Z</time></trkpt><trkpt lat="43.430927161430255" lon="11.84135131861689"><ele>263.8</ele><time>2026-03-22T08:33:26.998Z</time></trkpt><trkpt lat="43.43085981593474" lon="11.841244536016033"><ele>263.4</ele><time>2026-03-22T08:33:27.998Z</time></trkpt><trkpt lat="43.43079976460169" lon="11.841134490425848"><ele>263.0</ele><time>2026-03-22T08:33:28.998Z</time></trkpt><trkpt lat="43.4307448354212" lon="11.841022651089538"><ele>263.0</ele><time>2026-03-22T08:33:29.998Z</time></trkpt><trkpt lat="43.430683737290515" lon="11.840916336164302"><ele>263.0</ele><time>2026-03-22T08:33:30.998Z</time></trkpt><trkpt lat="43.43062738428439" lon="11.840813259556484"><ele>263.0</ele><time>2026-03-22T08:33:32Z</time></trkpt><trkpt lat="43.43057416383594" lon="11.840709049037576"><ele>263.0</ele><time>2026-03-22T08:33:33Z</time></trkpt><trkpt lat="43.4305208277122" lon="11.840603914815"><ele>263.0</ele><time>2026-03-22T08:33:34Z</time></trkpt><trkpt lat="43.43046861652021" lon="11.840501258688759"><ele>263.0</ele><time>2026-03-22T08:33:35Z</time></trkpt><trkpt lat="43.430411507000215" lon="11.840398813571786"><ele>263.0</ele><time>2026-03-22T08:33:36Z</time></trkpt><trkpt lat="43.43035785085498" lon="11.840296351657067"><ele>263.0</ele><time>2026-03-22T08:33:37Z</time></trkpt><trkpt lat="43.43030197230058" lon="11.840195521899203"><ele>263.0</ele><time>2026-03-22T08:33:38Z</time></trkpt><trkpt lat="43.43024513778564" lon="11.84009631001013"><ele>263.0</ele><time>2026-03-22T08:33:39Z</time></trkpt><trkpt lat="43.43018897811626" lon="11.839993700096574"><ele>263.4</ele><time>2026-03-22T08:33:40Z</time></trkpt><trkpt lat="43.430135392304116" lon="11.839890550639465"><ele>263.8</ele><time>2026-03-22T08:33:41Z</time></trkpt><trkpt lat="43.43007979731375" lon="11.839789411887457"><ele>264.2</ele><time>2026-03-22T08:33:42Z</time></trkpt><trkpt lat="43.43002482419415" lon="11.8396909538069"><ele>264.6</ele><time>2026-03-22T08:33:43Z</time></trkpt><trkpt lat="43.42996690587533" lon="11.83959214991114"><ele>265.0</ele><time>2026-03-22T08:33:44Z</time></trkpt><trkpt lat="43.429912822149305" lon="11.839491343664847"><ele>265.0</ele><time>2026-03-22T08:33:45Z</time></trkpt><trkpt lat="43.429860014047705" lon="11.839389236058599"><ele>265.0</ele><time>2026-03-22T08:33:46Z</time></trkpt><trkpt lat="43.42980788544702" lon="11.839286274083483"><ele>265.0</ele><time>2026-03-22T08:33:47Z</time></trkpt><trkpt lat="43.429755010423726" lon="11.83918494471172"><ele>265.0</ele><time>2026-03-22T08:33:48Z</time></trkpt><trkpt lat="43.429703059101016" lon="11.839081827064433"><ele>265.0</ele><time>2026-03-22T08:33:49Z</time></trkpt><trkpt lat="43.42965340921896" lon="11.838977199507113"><ele>264.4</ele><time>2026-03-22T08:33:50Z</time></trkpt><trkpt lat="43.42959952845953" lon="11.83887433569467"><ele>263.8</ele><time>2026-03-22T08:33:51Z</time></trkpt><trkpt lat="43.42954462533041" lon="11.838770839732444"><ele>263.2</ele><time>2026-03-22T08:33:52Z</time></trkpt><trkpt lat="43.42949022146159" lon="11.838667755205064"><ele>262.6</ele><time>2026-03-22T08:33:53Z</time></trkpt><trkpt lat="43.4294348998915" lon="11.838560988194615"><ele>262.0</ele><time>2026-03-22T08:33:54Z</time></trkpt><trkpt lat="43.42937960015078" lon="11.83845321458381"><ele>262.0</ele><time>2026-03-22T08:33:55Z</time></trkpt><trkpt lat="43.429325110925596" lon="11.83834217007126"><ele>262.0</ele><time>2026-03-22T08:33:56Z</time></trkpt><trkpt lat="43.42926533446629" lon="11.838231714247675"><ele>262.0</ele><time>2026-03-22T08:33:57Z</time></trkpt><trkpt lat="43.42920661938409" lon="11.838120487923991"><ele>262.0</ele><time>2026-03-22T08:33:58Z</time></trkpt><trkpt lat="43.42914912994661" lon="11.838007172364813"><ele>262.0</ele><time>2026-03-22T08:33:59Z</time></trkpt><trkpt lat="43.429089795538374" lon="11.837894063803752"><ele>262.0</ele><time>2026-03-22T08:34:00Z</time></trkpt><trkpt lat="43.429029229464426" lon="11.8377808698798"><ele>262.0</ele><time>2026-03-22T08:34:01Z</time></trkpt><trkpt lat="43.42896944782312" lon="11.837670342379564"><ele>262.0</ele><time>2026-03-22T08:34:02Z</time></trkpt><trkpt lat="43.42891261332857" lon="11.837554928067796"><ele>262.0</ele><time>2026-03-22T08:34:03Z</time></trkpt><trkpt lat="43.42885508896621" lon="11.837437779982908"><ele>262.0</ele><time>2026-03-22T08:34:04Z</time></trkpt><trkpt lat="43.4287983138059" lon="11.83732147609941"><ele>261.0</ele><time>2026-03-22T08:34:05Z</time></trkpt><trkpt lat="43.428737459035254" lon="11.83720248611861"><ele>260.0</ele><time>2026-03-22T08:34:06Z</time></trkpt><trkpt lat="43.42867847557868" lon="11.837083793618435"><ele>259.0</ele><time>2026-03-22T08:34:07Z</time></trkpt><trkpt lat="43.42861979739826" lon="11.836964910696631"><ele>258.0</ele><time>2026-03-22T08:34:08Z</time></trkpt><trkpt lat="43.42856344947669" lon="11.836850229430187"><ele>257.0</ele><time>2026-03-22T08:34:09Z</time></trkpt><trkpt lat="43.428510278678594" lon="11.836736685287544"><ele>256.8</ele><time>2026-03-22T08:34:10Z</time></trkpt><trkpt lat="43.42845373885591" lon="11.836627604850785"><ele>256.6</ele><time>2026-03-22T08:34:10.999Z</time></trkpt><trkpt lat="43.4283992993451" lon="11.836515981883542"><ele>256.40000000000003</ele><time>2026-03-22T08:34:11.999Z</time></trkpt><trkpt lat="43.42834918621532" lon="11.83640770091708"><ele>256.2</ele><time>2026-03-22T08:34:12.999Z</time></trkpt><trkpt lat="43.42829776855406" lon="11.83629958577192"><ele>256.0</ele><time>2026-03-22T08:34:13.999Z</time></trkpt><trkpt lat="43.42824643033044" lon="11.836193330676673"><ele>256.0</ele><time>2026-03-22T08:34:14.999Z</time></trkpt><trkpt lat="43.428193418960134" lon="11.836086299447498"><ele>256.0</ele><time>2026-03-22T08:34:15.999Z</time></trkpt><trkpt lat="43.42813993518532" lon="11.83598102963825"><ele>256.0</ele><time>2026-03-22T08:34:16.999Z</time></trkpt><trkpt lat="43.42808820545786" lon="11.835873826537695"><ele>256.0</ele><time>2026-03-22T08:34:17.999Z</time></trkpt><trkpt lat="43.428037136425544" lon="11.835771048996726"><ele>256.0</ele><time>2026-03-22T08:34:18.999Z</time></trkpt><trkpt lat="43.42798733520944" lon="11.835666700551249"><ele>255.16666666666666</ele><time>2026-03-22T08:34:19.999Z</time></trkpt><trkpt lat="43.427938538073704" lon="11.83556107752297"><ele>254.33333333333331</ele><time>2026-03-22T08:34:20.999Z</time></trkpt><trkpt lat="43.427890950954364" lon="11.835456860458448"><ele>253.5</ele><time>2026-03-22T08:34:21.999Z</time></trkpt><trkpt lat="43.42784039324828" lon="11.835355484709575"><ele>252.66666666666669</ele><time>2026-03-22T08:34:22.999Z</time></trkpt><trkpt lat="43.42778981930382" lon="11.835253903903006"><ele>251.83333333333334</ele><time>2026-03-22T08:34:23.999Z</time></trkpt><trkpt lat="43.427737683719684" lon="11.835153483587748"><ele>251.0</ele><time>2026-03-22T08:34:24.999Z</time></trkpt><trkpt lat="43.42768979235553" lon="11.835051230911217"><ele>251.00000000000003</ele><time>2026-03-22T08:34:25.999Z</time></trkpt><trkpt lat="43.427640082192205" lon="11.834948440214239"><ele>251.0</ele><time>2026-03-22T08:34:26.999Z</time></trkpt><trkpt lat="43.427589146561665" lon="11.834845310970008"><ele>251.0</ele><time>2026-03-22T08:34:27.999Z</time></trkpt><trkpt lat="43.427535831736314" lon="11.834749145961164"><ele>251.0</ele><time>2026-03-22T08:34:28.999Z</time></trkpt><trkpt lat="43.42748948820108" lon="11.834645174551373"><ele>251.00000000000003</ele><time>2026-03-22T08:34:29.999Z</time></trkpt><trkpt lat="43.42743557912955" lon="11.834544264814193"><ele>251.0</ele><time>2026-03-22T08:34:30.999Z</time></trkpt><trkpt lat="43.42738785295967" lon="11.834441195162688"><ele>251.00000000000003</ele><time>2026-03-22T08:34:31.999Z</time></trkpt><trkpt lat="43.42733717490929" lon="11.834341638883778"><ele>251.0</ele><time>2026-03-22T08:34:32.999Z</time></trkpt><trkpt lat="43.42728605513772" lon="11.834241019580913"><ele>251.0</ele><time>2026-03-22T08:34:33.999Z</time></trkpt><trkpt lat="43.42723689025367" lon="11.83414105192914"><ele>251.0</ele><time>2026-03-22T08:34:34.999Z</time></trkpt><trkpt lat="43.42719242083474" lon="11.834041105307914"><ele>251.00000000000003</ele><time>2026-03-22T08:34:35.999Z</time></trkpt><trkpt lat="43.427142969160876" lon="11.83394070070943"><ele>251.0</ele><time>2026-03-22T08:34:36.999Z</time></trkpt><trkpt lat="43.4270975026565" lon="11.833842584907307"><ele>250.66666666666669</ele><time>2026-03-22T08:34:37.999Z</time></trkpt><trkpt lat="43.42704996800592" lon="11.833745376494909"><ele>250.33333333333334</ele><time>2026-03-22T08:34:38.999Z</time></trkpt><trkpt lat="43.42700251556463" lon="11.833650159030125"><ele>250.0</ele><time>2026-03-22T08:34:39.999Z</time></trkpt><trkpt lat="43.42695724580512" lon="11.83355812082401"><ele>249.66666666666669</ele><time>2026-03-22T08:34:40.999Z</time></trkpt><trkpt lat="43.42691561701109" lon="11.833464265356977"><ele>249.33333333333334</ele><time>2026-03-22T08:34:41.999Z</time></trkpt><trkpt lat="43.42687173710365" lon="11.833373823034298"><ele>249.0</ele><time>2026-03-22T08:34:42.999Z</time></trkpt><trkpt lat="43.42682737090963" lon="11.833287033761408"><ele>249.0</ele><time>2026-03-22T08:34:43.999Z</time></trkpt><trkpt lat="43.42678833448393" lon="11.833195796193428"><ele>249.0</ele><time>2026-03-22T08:34:44.999Z</time></trkpt><trkpt lat="43.42674640332627" lon="11.833114361846757"><ele>249.0</ele><time>2026-03-22T08:34:45.999Z</time></trkpt><trkpt lat="43.426684776058536" lon="11.832986695503086"><ele>249.0</ele><time>2026-03-22T08:34:47.999Z</time></trkpt><trkpt lat="43.426643746286025" lon="11.8328972845181"><ele>249.0</ele><time>2026-03-22T08:34:49.999Z</time></trkpt><trkpt lat="43.426606497144775" lon="11.832810874377154"><ele>249.0</ele><time>2026-03-22T08:35:21.998Z</time></trkpt><trkpt lat="43.42656749794907" lon="11.832726691403547"><ele>248.79999999999998</ele><time>2026-03-22T08:35:23.998Z</time></trkpt><trkpt lat="43.42650716980939" lon="11.832624937239475"><ele>248.59999999999997</ele><time>2026-03-22T08:35:25.998Z</time></trkpt><trkpt lat="43.42644614553204" lon="11.832503859521896"><ele>248.4</ele><time>2026-03-22T08:35:27.998Z</time></trkpt><trkpt lat="43.42638293386714" lon="11.832374440412632"><ele>248.2</ele><time>2026-03-22T08:35:29.998Z</time></trkpt><trkpt lat="43.42631682875382" lon="11.83223847049314"><ele>248.0</ele><time>2026-03-22T08:35:31.998Z</time></trkpt><trkpt lat="43.42624410289689" lon="11.832103530633152"><ele>247.83333333333334</ele><time>2026-03-22T08:35:33.998Z</time></trkpt><trkpt lat="43.42617201041082" lon="11.831966065026984"><ele>247.66666666666669</ele><time>2026-03-22T08:35:35.998Z</time></trkpt><trkpt lat="43.42613168740979" lon="11.831898362363441"><ele>247.5</ele><time>2026-03-22T08:35:36.998Z</time></trkpt><trkpt lat="43.426054837715874" lon="11.831755804810536"><ele>247.33333333333331</ele><time>2026-03-22T08:35:39Z</time></trkpt><trkpt lat="43.42601587861463" lon="11.831683487862133"><ele>247.16666666666666</ele><time>2026-03-22T08:35:40Z</time></trkpt><trkpt lat="43.4259782638397" lon="11.831608038229621"><ele>247.0</ele><time>2026-03-22T08:35:41Z</time></trkpt><trkpt lat="43.425938342786914" lon="11.831530114088034"><ele>247.0</ele><time>2026-03-22T08:35:42Z</time></trkpt><trkpt lat="43.42589925647662" lon="11.831451596557516"><ele>247.0</ele><time>2026-03-22T08:35:43Z</time></trkpt><trkpt lat="43.42585911873859" lon="11.831370291584657"><ele>247.0</ele><time>2026-03-22T08:35:44Z</time></trkpt><trkpt lat="43.42581675990841" lon="11.831291010163406"><ele>247.0</ele><time>2026-03-22T08:35:45Z</time></trkpt><trkpt lat="43.42577665145633" lon="11.831208722758264"><ele>247.0</ele><time>2026-03-22T08:35:46Z</time></trkpt><trkpt lat="43.42573858124354" lon="11.831126313476522"><ele>247.0</ele><time>2026-03-22T08:35:47Z</time></trkpt><trkpt lat="43.425697257893916" lon="11.831045460726584"><ele>247.0</ele><time>2026-03-22T08:35:48Z</time></trkpt><trkpt lat="43.42565789711386" lon="11.83096616515259"><ele>247.0</ele><time>2026-03-22T08:35:49Z</time></trkpt><trkpt lat="43.425617587369295" lon="11.830882454943453"><ele>247.0</ele><time>2026-03-22T08:35:50Z</time></trkpt><trkpt lat="43.42557691375635" lon="11.83079983907471"><ele>247.0</ele><time>2026-03-22T08:35:51Z</time></trkpt><trkpt lat="43.425535602600824" lon="11.830716435140515"><ele>247.0</ele><time>2026-03-22T08:35:52Z</time></trkpt><trkpt lat="43.42549522554613" lon="11.830631616744476"><ele>247.0</ele><time>2026-03-22T08:35:53Z</time></trkpt><trkpt lat="43.42545453241735" lon="11.830544916410886"><ele>247.0</ele><time>2026-03-22T08:35:54Z</time></trkpt><trkpt lat="43.425413191285564" lon="11.830458418112748"><ele>247.0</ele><time>2026-03-22T08:35:55Z</time></trkpt><trkpt lat="43.42536997213675" lon="11.830370341900087"><ele>246.99999999999997</ele><time>2026-03-22T08:35:56Z</time></trkpt><trkpt lat="43.42532672011331" lon="11.830282493074968"><ele>247.0</ele><time>2026-03-22T08:35:57Z</time></trkpt><trkpt lat="43.42528257834572" lon="11.830192670245184"><ele>247.0</ele><time>2026-03-22T08:35:58Z</time></trkpt><trkpt lat="43.425240541374166" lon="11.83010320027792"><ele>247.0</ele><time>2026-03-22T08:35:59Z</time></trkpt><trkpt lat="43.42519738191326" lon="11.830012646600073"><ele>246.99999999999997</ele><time>2026-03-22T08:36:00Z</time></trkpt><trkpt lat="43.42515393755483" lon="11.829923960518459"><ele>247.0</ele><time>2026-03-22T08:36:01Z</time></trkpt><trkpt lat="43.42511118711181" lon="11.829834958239582"><ele>246.99999999999997</ele><time>2026-03-22T08:36:02Z</time></trkpt><trkpt lat="43.42506736227547" lon="11.829746723970322"><ele>247.0</ele><time>2026-03-22T08:36:03Z</time></trkpt><trkpt lat="43.425025750990976" lon="11.829656811055056"><ele>247.0</ele><time>2026-03-22T08:36:04Z</time></trkpt><trkpt lat="43.42498234100222" lon="11.829567027999211"><ele>247.0</ele><time>2026-03-22T08:36:05Z</time></trkpt><trkpt lat="43.424938525866935" lon="11.829477236553931"><ele>246.99999999999997</ele><time>2026-03-22T08:36:06Z</time></trkpt><trkpt lat="43.42489519375651" lon="11.829387042123612"><ele>247.0</ele><time>2026-03-22T08:36:07Z</time></trkpt><trkpt lat="43.42485152124147" lon="11.829298095945417"><ele>246.99999999999997</ele><time>2026-03-22T08:36:08Z</time></trkpt><trkpt lat="43.42480743762146" lon="11.829207749265125"><ele>247.0</ele><time>2026-03-22T08:36:09Z</time></trkpt><trkpt lat="43.42476398408104" lon="11.829118948676955"><ele>247.0</ele><time>2026-03-22T08:36:10Z</time></trkpt><trkpt lat="43.42471705605913" lon="11.829031731533302"><ele>247.0</ele><time>2026-03-22T08:36:11Z</time></trkpt><trkpt lat="43.42467365432673" lon="11.828942325509113"><ele>246.99999999999997</ele><time>2026-03-22T08:36:12Z</time></trkpt><trkpt lat="43.42463208449206" lon="11.828857299988314"><ele>247.0</ele><time>2026-03-22T08:36:13Z</time></trkpt><trkpt lat="43.42458759906571" lon="11.828772685538016"><ele>247.0</ele><time>2026-03-22T08:36:14Z</time></trkpt><trkpt lat="43.42454584619438" lon="11.828687164682098"><ele>247.0</ele><time>2026-03-22T08:36:14.999Z</time></trkpt><trkpt lat="43.42450156334742" lon="11.828600984350873"><ele>247.0</ele><time>2026-03-22T08:36:15.999Z</time></trkpt><trkpt lat="43.424459653251986" lon="11.828515299952732"><ele>247.0</ele><time>2026-03-22T08:36:16.999Z</time></trkpt><trkpt lat="43.424418367783794" lon="11.828429332509492"><ele>247.0</ele><time>2026-03-22T08:36:17.999Z</time></trkpt><trkpt lat="43.42437794557773" lon="11.828343984057097"><ele>247.0</ele><time>2026-03-22T08:36:18.999Z</time></trkpt><trkpt lat="43.424338567030865" lon="11.828258365437353"><ele>247.0</ele><time>2026-03-22T08:36:19.999Z</time></trkpt><trkpt lat="43.42429967382814" lon="11.828171515977502"><ele>246.99999999999997</ele><time>2026-03-22T08:36:20.999Z</time></trkpt><trkpt lat="43.42425609659209" lon="11.828084581394076"><ele>247.0</ele><time>2026-03-22T08:36:21.999Z</time></trkpt><trkpt lat="43.42421414497038" lon="11.827995290339347"><ele>247.0</ele><time>2026-03-22T08:36:22.999Z</time></trkpt><trkpt lat="43.42417302818819" lon="11.827907133322086"><ele>247.0</ele><time>2026-03-22T08:36:23.999Z</time></trkpt><trkpt lat="43.42412800008642" lon="11.827820515210643"><ele>246.99999999999997</ele><time>2026-03-22T08:36:24.999Z</time></trkpt><trkpt lat="43.424088139137105" lon="11.827732467742607"><ele>247.0</ele><time>2026-03-22T08:36:25.999Z</time></trkpt><trkpt lat="43.42404584658403" lon="11.827646319484902"><ele>247.0</ele><time>2026-03-22T08:36:26.999Z</time></trkpt><trkpt lat="43.42400413669824" lon="11.82756117325842"><ele>247.0</ele><time>2026-03-22T08:36:27.999Z</time></trkpt><trkpt lat="43.42396216489711" lon="11.827475658264579"><ele>247.0</ele><time>2026-03-22T08:36:28.999Z</time></trkpt><trkpt lat="43.42392182745976" lon="11.827390286659396"><ele>247.0</ele><time>2026-03-22T08:36:29.999Z</time></trkpt><trkpt lat="43.42388087939692" lon="11.827305330059342"><ele>247.0</ele><time>2026-03-22T08:36:30.999Z</time></trkpt><trkpt lat="43.42383944692292" lon="11.827219175060119"><ele>247.0</ele><time>2026-03-22T08:36:31.999Z</time></trkpt><trkpt lat="43.423799597925274" lon="11.82713209843411"><ele>247.0</ele><time>2026-03-22T08:36:32.999Z</time></trkpt><trkpt lat="43.42375737731827" lon="11.827048143466445"><ele>247.14285714285717</ele><time>2026-03-22T08:36:33.999Z</time></trkpt><trkpt lat="43.42371638664141" lon="11.826963138116824"><ele>247.28571428571428</ele><time>2026-03-22T08:36:34.999Z</time></trkpt><trkpt lat="43.42367442531996" lon="11.826878391575507"><ele>247.42857142857144</ele><time>2026-03-22T08:36:35.999Z</time></trkpt><trkpt lat="43.423635468665886" lon="11.82679260889399"><ele>247.57142857142858</ele><time>2026-03-22T08:36:36.999Z</time></trkpt><trkpt lat="43.423594861254934" lon="11.826707427684546"><ele>247.71428571428572</ele><time>2026-03-22T08:36:37.999Z</time></trkpt><trkpt lat="43.423555772786436" lon="11.826620907015172"><ele>247.85714285714286</ele><time>2026-03-22T08:36:38.999Z</time></trkpt><trkpt lat="43.42351434053093" lon="11.826535293519216"><ele>248.0</ele><time>2026-03-22T08:36:39.999Z</time></trkpt><trkpt lat="43.42347472799118" lon="11.826451437230263"><ele>248.16666666666669</ele><time>2026-03-22T08:36:40.999Z</time></trkpt><trkpt lat="43.42343330030659" lon="11.82636585048886"><ele>248.33333333333334</ele><time>2026-03-22T08:36:41.999Z</time></trkpt><trkpt lat="43.42339348817758" lon="11.82627806980696"><ele>248.5</ele><time>2026-03-22T08:36:42.999Z</time></trkpt><trkpt lat="43.42335046050278" lon="11.826191124602843"><ele>248.66666666666669</ele><time>2026-03-22T08:36:43.999Z</time></trkpt><trkpt lat="43.42330638491952" lon="11.826103377311178"><ele>248.83333333333334</ele><time>2026-03-22T08:36:44.999Z</time></trkpt><trkpt lat="43.42326432607014" lon="11.82601446940406"><ele>249.0</ele><time>2026-03-22T08:36:45.999Z</time></trkpt><trkpt lat="43.42322632271982" lon="11.825925699568428"><ele>248.66666666666666</ele><time>2026-03-22T08:36:46.999Z</time></trkpt><trkpt lat="43.42317718941068" lon="11.825844618047444"><ele>248.33333333333331</ele><time>2026-03-22T08:36:47.999Z</time></trkpt><trkpt lat="43.42314506205227" lon="11.825764717804908"><ele>248.0</ele><time>2026-03-22T08:36:48.999Z</time></trkpt><trkpt lat="43.423099368401424" lon="11.825677577520871"><ele>247.66666666666666</ele><time>2026-03-22T08:36:49.999Z</time></trkpt><trkpt lat="43.4230565601832" lon="11.825582205907507"><ele>247.33333333333331</ele><time>2026-03-22T08:36:50.999Z</time></trkpt><trkpt lat="43.42301469274399" lon="11.825494150958516"><ele>247.0</ele><time>2026-03-22T08:36:51.999Z</time></trkpt><trkpt lat="43.42297124511728" lon="11.82540976777215"><ele>246.99999999999997</ele><time>2026-03-22T08:36:52.999Z</time></trkpt><trkpt lat="43.42293251961722" lon="11.825321093634733"><ele>247.0</ele><time>2026-03-22T08:36:53.999Z</time></trkpt><trkpt lat="43.42289263237423" lon="11.82523436522594"><ele>247.0</ele><time>2026-03-22T08:36:54.999Z</time></trkpt><trkpt lat="43.4228498759764" lon="11.825148543386817"><ele>247.0</ele><time>2026-03-22T08:36:55.999Z</time></trkpt><trkpt lat="43.42280803331761" lon="11.825063044243926"><ele>246.99999999999997</ele><time>2026-03-22T08:36:56.999Z</time></trkpt><trkpt lat="43.42276756004437" lon="11.824974189856098"><ele>247.0</ele><time>2026-03-22T08:36:57.999Z</time></trkpt><trkpt lat="43.42272740361942" lon="11.824889407931314"><ele>246.71428571428572</ele><time>2026-03-22T08:36:58.999Z</time></trkpt><trkpt lat="43.422685792307774" lon="11.824804553986045"><ele>246.42857142857142</ele><time>2026-03-22T08:36:59.999Z</time></trkpt><trkpt lat="43.42265019469905" lon="11.824720571859137"><ele>246.14285714285714</ele><time>2026-03-22T08:37:00.998Z</time></trkpt><trkpt lat="43.422608890384744" lon="11.824635144915625"><ele>245.85714285714286</ele><time>2026-03-22T08:37:01.998Z</time></trkpt><trkpt lat="43.42257114677508" lon="11.824549329832747"><ele>245.57142857142856</ele><time>2026-03-22T08:37:02.998Z</time></trkpt><trkpt lat="43.422527492523464" lon="11.824465253127839"><ele>245.28571428571428</ele><time>2026-03-22T08:37:03.998Z</time></trkpt><trkpt lat="43.42248685000855" lon="11.824380060351942"><ele>245.0</ele><time>2026-03-22T08:37:04.998Z</time></trkpt><trkpt lat="43.42244632634284" lon="11.824293908348157"><ele>245.0</ele><time>2026-03-22T08:37:05.998Z</time></trkpt><trkpt lat="43.42240733929867" lon="11.824210646133945"><ele>245.0</ele><time>2026-03-22T08:37:06.998Z</time></trkpt><trkpt lat="43.42236734427372" lon="11.82412826927597"><ele>245.0</ele><time>2026-03-22T08:37:07.998Z</time></trkpt><trkpt lat="43.42232563385715" lon="11.82404614386244"><ele>245.0</ele><time>2026-03-22T08:37:08.998Z</time></trkpt><trkpt lat="43.42228633054328" lon="11.823960473121447"><ele>245.0</ele><time>2026-03-22T08:37:09.998Z</time></trkpt><trkpt lat="43.422248129426166" lon="11.823875923223138"><ele>245.0</ele><time>2026-03-22T08:37:10.998Z</time></trkpt><trkpt lat="43.422208000761806" lon="11.823789605146851"><ele>245.0</ele><time>2026-03-22T08:37:11.998Z</time></trkpt><trkpt lat="43.42216623349523" lon="11.823707436779063"><ele>244.71428571428572</ele><time>2026-03-22T08:37:12.998Z</time></trkpt><trkpt lat="43.42213040874162" lon="11.823623723476587"><ele>244.42857142857144</ele><time>2026-03-22T08:37:13.998Z</time></trkpt><trkpt lat="43.42208923823318" lon="11.823536546868667"><ele>244.14285714285714</ele><time>2026-03-22T08:37:14.998Z</time></trkpt><trkpt lat="43.42204908743732" lon="11.823453657780888"><ele>243.85714285714286</ele><time>2026-03-22T08:37:15.998Z</time></trkpt><trkpt lat="43.422007930610484" lon="11.823369017390686"><ele>243.57142857142858</ele><time>2026-03-22T08:37:16.998Z</time></trkpt><trkpt lat="43.42196690190258" lon="11.823284249992719"><ele>243.28571428571428</ele><time>2026-03-22T08:37:17.998Z</time></trkpt><trkpt lat="43.42192749494014" lon="11.823198837028222"><ele>243.0</ele><time>2026-03-22T08:37:18.998Z</time></trkpt><trkpt lat="43.42188904099947" lon="11.823114894191978"><ele>242.85714285714283</ele><time>2026-03-22T08:37:19.998Z</time></trkpt><trkpt lat="43.42185049000227" lon="11.823032973236158"><ele>242.71428571428572</ele><time>2026-03-22T08:37:20.998Z</time></trkpt><trkpt lat="43.421807740909664" lon="11.822948597669935"><ele>242.57142857142856</ele><time>2026-03-22T08:37:21.998Z</time></trkpt><trkpt lat="43.42176694302242" lon="11.822861426498463"><ele>242.42857142857142</ele><time>2026-03-22T08:37:22.998Z</time></trkpt><trkpt lat="43.42172497768145" lon="11.822771283481172"><ele>242.28571428571428</ele><time>2026-03-22T08:37:23.998Z</time></trkpt><trkpt lat="43.42168349970131" lon="11.822690486119772"><ele>242.14285714285714</ele><time>2026-03-22T08:37:24.998Z</time></trkpt><trkpt lat="43.4216434819148" lon="11.822601692556333"><ele>242.0</ele><time>2026-03-22T08:37:25.998Z</time></trkpt><trkpt lat="43.4216029467624" lon="11.822512245438276"><ele>242.50000000000003</ele><time>2026-03-22T08:37:26.998Z</time></trkpt><trkpt lat="43.4215663684242" lon="11.822430414305686"><ele>243.0</ele><time>2026-03-22T08:37:27.998Z</time></trkpt><trkpt lat="43.421523513514025" lon="11.822341216274694"><ele>243.5</ele><time>2026-03-22T08:37:28.998Z</time></trkpt><trkpt lat="43.421480013202725" lon="11.822245389581669"><ele>244.0</ele><time>2026-03-22T08:37:29.998Z</time></trkpt><trkpt lat="43.42143522627758" lon="11.822159673429033"><ele>244.50000000000003</ele><time>2026-03-22T08:37:30.998Z</time></trkpt><trkpt lat="43.42139458250811" lon="11.82207628801689"><ele>245.0</ele><time>2026-03-22T08:37:31.998Z</time></trkpt><trkpt lat="43.421316294203585" lon="11.821901140929947"><ele>244.83333333333334</ele><time>2026-03-22T08:37:33.998Z</time></trkpt><trkpt lat="43.421272573523126" lon="11.821806020519364"><ele>244.66666666666669</ele><time>2026-03-22T08:37:34.998Z</time></trkpt><trkpt lat="43.421232303316586" lon="11.821718390367574"><ele>244.5</ele><time>2026-03-22T08:37:35.998Z</time></trkpt><trkpt lat="43.42119078383395" lon="11.821630386645676"><ele>244.33333333333331</ele><time>2026-03-22T08:37:36.998Z</time></trkpt><trkpt lat="43.421148233435495" lon="11.82153791457375"><ele>244.16666666666666</ele><time>2026-03-22T08:37:37.998Z</time></trkpt><trkpt lat="43.42110474114705" lon="11.821450396524565"><ele>244.0</ele><time>2026-03-22T08:37:38.998Z</time></trkpt><trkpt lat="43.42106302821792" lon="11.821362669481477"><ele>243.99999999999997</ele><time>2026-03-22T08:37:39.998Z</time></trkpt><trkpt lat="43.42102293640642" lon="11.82127394597057"><ele>244.0</ele><time>2026-03-22T08:37:40.998Z</time></trkpt><trkpt lat="43.420983137054385" lon="11.821188468290432"><ele>244.0</ele><time>2026-03-22T08:37:41.998Z</time></trkpt><trkpt lat="43.42094135810522" lon="11.821104277439284"><ele>244.0</ele><time>2026-03-22T08:37:42.998Z</time></trkpt><trkpt lat="43.4208989850711" lon="11.821013252304734"><ele>243.99999999999997</ele><time>2026-03-22T08:37:44Z</time></trkpt><trkpt lat="43.420856824373494" lon="11.820922900746504"><ele>244.0</ele><time>2026-03-22T08:37:45Z</time></trkpt><trkpt lat="43.420811156633846" lon="11.820832335712263"><ele>244.16666666666666</ele><time>2026-03-22T08:37:46Z</time></trkpt><trkpt lat="43.42076906391358" lon="11.82074249102689"><ele>244.33333333333331</ele><time>2026-03-22T08:37:47Z</time></trkpt><trkpt lat="43.42072885461311" lon="11.820652586100078"><ele>244.5</ele><time>2026-03-22T08:37:48Z</time></trkpt><trkpt lat="43.4206857626923" lon="11.820562183644169"><ele>244.66666666666669</ele><time>2026-03-22T08:37:49Z</time></trkpt><trkpt lat="43.42064352494817" lon="11.82046967960914"><ele>244.83333333333334</ele><time>2026-03-22T08:37:50Z</time></trkpt><trkpt lat="43.420599272709886" lon="11.820376918211023"><ele>245.0</ele><time>2026-03-22T08:37:51Z</time></trkpt><trkpt lat="43.42055463550211" lon="11.820286613618158"><ele>245.00000000000003</ele><time>2026-03-22T08:37:52Z</time></trkpt><trkpt lat="43.42051378057281" lon="11.820194074536024"><ele>245.0</ele><time>2026-03-22T08:37:53Z</time></trkpt><trkpt lat="43.42047682685982" lon="11.820106142926555"><ele>245.0</ele><time>2026-03-22T08:37:54Z</time></trkpt><trkpt lat="43.42042891802014" lon="11.820016010721398"><ele>245.0</ele><time>2026-03-22T08:37:55Z</time></trkpt><trkpt lat="43.420387470361966" lon="11.81993436545606"><ele>245.00000000000003</ele><time>2026-03-22T08:37:56Z</time></trkpt><trkpt lat="43.42034176266281" lon="11.819840950346563"><ele>245.0</ele><time>2026-03-22T08:37:57Z</time></trkpt><trkpt lat="43.420301723086254" lon="11.819752750239376"><ele>245.00000000000003</ele><time>2026-03-22T08:37:58Z</time></trkpt><trkpt lat="43.420260715676726" lon="11.819660945291822"><ele>245.0</ele><time>2026-03-22T08:37:59Z</time></trkpt><trkpt lat="43.420221339498184" lon="11.819564517179376"><ele>245.0</ele><time>2026-03-22T08:38:00Z</time></trkpt><trkpt lat="43.42017702047103" lon="11.819471173115533"><ele>245.0</ele><time>2026-03-22T08:38:01Z</time></trkpt><trkpt lat="43.42013348642921" lon="11.819377314481446"><ele>245.00000000000003</ele><time>2026-03-22T08:38:02Z</time></trkpt><trkpt lat="43.42008927455735" lon="11.819284590861024"><ele>245.0</ele><time>2026-03-22T08:38:03Z</time></trkpt><trkpt lat="43.42004491937729" lon="11.819189531670942"><ele>245.00000000000003</ele><time>2026-03-22T08:38:04Z</time></trkpt><trkpt lat="43.419995054368535" lon="11.819095109886684"><ele>245.0</ele><time>2026-03-22T08:38:05Z</time></trkpt><trkpt lat="43.419954046945975" lon="11.81900570551338"><ele>245.0</ele><time>2026-03-22T08:38:06Z</time></trkpt><trkpt lat="43.419908863275815" lon="11.818906143144265"><ele>245.0</ele><time>2026-03-22T08:38:07Z</time></trkpt><trkpt lat="43.419863133173706" lon="11.818818109771119"><ele>245.00000000000003</ele><time>2026-03-22T08:38:08Z</time></trkpt><trkpt lat="43.41981692710075" lon="11.81872425147397"><ele>245.0</ele><time>2026-03-22T08:38:09Z</time></trkpt><trkpt lat="43.41977393696458" lon="11.818635272071793"><ele>245.00000000000003</ele><time>2026-03-22T08:38:10Z</time></trkpt><trkpt lat="43.41973125756757" lon="11.818543796400506"><ele>245.0</ele><time>2026-03-22T08:38:11Z</time></trkpt><trkpt lat="43.4196834614501" lon="11.818454977710909"><ele>245.0</ele><time>2026-03-22T08:38:12Z</time></trkpt><trkpt lat="43.419639292827966" lon="11.818365316096278"><ele>245.0</ele><time>2026-03-22T08:38:13Z</time></trkpt><trkpt lat="43.41960056397745" lon="11.818276768071298"><ele>245.00000000000003</ele><time>2026-03-22T08:38:14Z</time></trkpt><trkpt lat="43.419554117416105" lon="11.818178950652893"><ele>245.0</ele><time>2026-03-22T08:38:15Z</time></trkpt><trkpt lat="43.41951091199828" lon="11.818087416361243"><ele>244.83333333333334</ele><time>2026-03-22T08:38:16Z</time></trkpt><trkpt lat="43.41946740960921" lon="11.817995872583587"><ele>244.66666666666669</ele><time>2026-03-22T08:38:17Z</time></trkpt><trkpt lat="43.41943020291023" lon="11.8179013143045"><ele>244.5</ele><time>2026-03-22T08:38:18Z</time></trkpt><trkpt lat="43.41938314514985" lon="11.81780873148554"><ele>244.33333333333331</ele><time>2026-03-22T08:38:18.999Z</time></trkpt><trkpt lat="43.419339918014266" lon="11.81771821668165"><ele>244.16666666666666</ele><time>2026-03-22T08:38:19.999Z</time></trkpt><trkpt lat="43.41930278141314" lon="11.817627923125333"><ele>244.0</ele><time>2026-03-22T08:38:20.999Z</time></trkpt><trkpt lat="43.419270637118146" lon="11.817541722066142"><ele>243.99999999999997</ele><time>2026-03-22T08:38:21.999Z</time></trkpt><trkpt lat="43.41921177893823" lon="11.817440338572123"><ele>244.0</ele><time>2026-03-22T08:38:22.999Z</time></trkpt><trkpt lat="43.41916466206392" lon="11.817343946902033"><ele>244.0</ele><time>2026-03-22T08:38:23.999Z</time></trkpt><trkpt lat="43.419120318679695" lon="11.817254636870297"><ele>244.0</ele><time>2026-03-22T08:38:24.999Z</time></trkpt><trkpt lat="43.419076409972035" lon="11.817167029111333"><ele>243.99999999999997</ele><time>2026-03-22T08:38:25.999Z</time></trkpt><trkpt lat="43.41904038702931" lon="11.81707779895002"><ele>244.0</ele><time>2026-03-22T08:38:26.999Z</time></trkpt><trkpt lat="43.41898981472146" lon="11.816974016530402"><ele>243.99999999999997</ele><time>2026-03-22T08:38:27.999Z</time></trkpt><trkpt lat="43.418954201633106" lon="11.816877887720672"><ele>244.0</ele><time>2026-03-22T08:38:28.999Z</time></trkpt><trkpt lat="43.41891656628853" lon="11.816790912809882"><ele>244.0</ele><time>2026-03-22T08:38:29.999Z</time></trkpt><trkpt lat="43.418867493365354" lon="11.816695584144169"><ele>244.0</ele><time>2026-03-22T08:38:30.999Z</time></trkpt><trkpt lat="43.41882055486994" lon="11.816595721388724"><ele>243.99999999999997</ele><time>2026-03-22T08:38:31.999Z</time></trkpt><trkpt lat="43.41877571524516" lon="11.816500606126548"><ele>244.0</ele><time>2026-03-22T08:38:32.999Z</time></trkpt><trkpt lat="43.418734326767776" lon="11.816408573109522"><ele>243.66666666666666</ele><time>2026-03-22T08:38:33.999Z</time></trkpt><trkpt lat="43.418689484145" lon="11.816316129314112"><ele>243.33333333333331</ele><time>2026-03-22T08:38:34.999Z</time></trkpt><trkpt lat="43.4186533759436" lon="11.816224727074383"><ele>243.0</ele><time>2026-03-22T08:38:35.999Z</time></trkpt><trkpt lat="43.41861523170794" lon="11.816132778253246"><ele>242.66666666666669</ele><time>2026-03-22T08:38:36.999Z</time></trkpt><trkpt lat="43.41856731099562" lon="11.816046372476162"><ele>242.33333333333334</ele><time>2026-03-22T08:38:37.999Z</time></trkpt><trkpt lat="43.418530099595536" lon="11.815959145462697"><ele>242.0</ele><time>2026-03-22T08:38:38.999Z</time></trkpt><trkpt lat="43.418485847947444" lon="11.815872630172647"><ele>242.00000000000003</ele><time>2026-03-22T08:38:39.999Z</time></trkpt><trkpt lat="43.41844214654361" lon="11.815782852482482"><ele>242.0</ele><time>2026-03-22T08:38:40.999Z</time></trkpt><trkpt lat="43.41840036640309" lon="11.815692390245886"><ele>242.0</ele><time>2026-03-22T08:38:41.999Z</time></trkpt><trkpt lat="43.41835905962502" lon="11.815602866353705"><ele>242.0</ele><time>2026-03-22T08:38:42.999Z</time></trkpt><trkpt lat="43.418316671602135" lon="11.815516350215747"><ele>242.00000000000003</ele><time>2026-03-22T08:38:43.999Z</time></trkpt><trkpt lat="43.41827799353426" lon="11.81542866799555"><ele>242.0</ele><time>2026-03-22T08:38:44.999Z</time></trkpt><trkpt lat="43.418236794868655" lon="11.815341095616027"><ele>242.0</ele><time>2026-03-22T08:38:45.999Z</time></trkpt><trkpt lat="43.41819555661721" lon="11.815254149639783"><ele>241.99999999999997</ele><time>2026-03-22T08:38:46.999Z</time></trkpt><trkpt lat="43.41815472671001" lon="11.815166875490478"><ele>242.0</ele><time>2026-03-22T08:38:47.999Z</time></trkpt><trkpt lat="43.41811189210706" lon="11.8150804727643"><ele>242.0</ele><time>2026-03-22T08:38:48.999Z</time></trkpt><trkpt lat="43.41806981454066" lon="11.814997239255508"><ele>241.99999999999997</ele><time>2026-03-22T08:38:49.999Z</time></trkpt><trkpt lat="43.418028808781095" lon="11.814914221798544"><ele>242.0</ele><time>2026-03-22T08:38:50.999Z</time></trkpt><trkpt lat="43.41798431388722" lon="11.814832538451052"><ele>242.0</ele><time>2026-03-22T08:38:51.999Z</time></trkpt><trkpt lat="43.417942496905994" lon="11.814752833177232"><ele>241.83333333333334</ele><time>2026-03-22T08:38:52.999Z</time></trkpt><trkpt lat="43.417900133468876" lon="11.814668599392165"><ele>241.66666666666669</ele><time>2026-03-22T08:38:53.999Z</time></trkpt><trkpt lat="43.41785823269492" lon="11.81458321361285"><ele>241.5</ele><time>2026-03-22T08:38:54.999Z</time></trkpt><trkpt lat="43.41781626323841" lon="11.814497872190858"><ele>241.33333333333331</ele><time>2026-03-22T08:38:55.999Z</time></trkpt><trkpt lat="43.417774458914145" lon="11.81441195641669"><ele>241.16666666666666</ele><time>2026-03-22T08:38:56.999Z</time></trkpt><trkpt lat="43.41772957467374" lon="11.814323209183382"><ele>241.0</ele><time>2026-03-22T08:38:57.999Z</time></trkpt><trkpt lat="43.41768736092725" lon="11.81423825252029"><ele>241.42857142857144</ele><time>2026-03-22T08:38:58.999Z</time></trkpt><trkpt lat="43.41764598050106" lon="11.814148648101458"><ele>241.8571428571429</ele><time>2026-03-22T08:38:59.999Z</time></trkpt><trkpt lat="43.417605795858364" lon="11.814062717947351"><ele>242.28571428571428</ele><time>2026-03-22T08:39:00.999Z</time></trkpt><trkpt lat="43.4175638981047" lon="11.81397721119751"><ele>242.71428571428572</ele><time>2026-03-22T08:39:01.999Z</time></trkpt><trkpt lat="43.417524088177124" lon="11.813889455279908"><ele>243.14285714285714</ele><time>2026-03-22T08:39:02.999Z</time></trkpt><trkpt lat="43.417483081001265" lon="11.813805932252855"><ele>243.57142857142856</ele><time>2026-03-22T08:39:03.999Z</time></trkpt><trkpt lat="43.4174426383333" lon="11.813723328356934"><ele>243.99999999999997</ele><time>2026-03-22T08:39:04.998Z</time></trkpt><trkpt lat="43.41740251099298" lon="11.813640869243908"><ele>243.99999999999997</ele><time>2026-03-22T08:39:05.998Z</time></trkpt><trkpt lat="43.41736234883086" lon="11.81355525604967"><ele>244.0</ele><time>2026-03-22T08:39:06.998Z</time></trkpt><trkpt lat="43.4173224318584" lon="11.813471786113164"><ele>243.99999999999997</ele><time>2026-03-22T08:39:07.998Z</time></trkpt><trkpt lat="43.41728279856301" lon="11.813391246027477"><ele>243.99999999999997</ele><time>2026-03-22T08:39:08.998Z</time></trkpt><trkpt lat="43.41724329094228" lon="11.81330943170972"><ele>244.0</ele><time>2026-03-22T08:39:09.998Z</time></trkpt><trkpt lat="43.417204684284194" lon="11.813227430848112"><ele>243.99999999999997</ele><time>2026-03-22T08:39:10.998Z</time></trkpt><trkpt lat="43.41716846403164" lon="11.813145770804194"><ele>243.99999999999997</ele><time>2026-03-22T08:39:11.998Z</time></trkpt><trkpt lat="43.417127971018225" lon="11.813060650270938"><ele>244.1428571428571</ele><time>2026-03-22T08:39:12.998Z</time></trkpt><trkpt lat="43.41708956780531" lon="11.81298040596906"><ele>244.28571428571428</ele><time>2026-03-22T08:39:13.998Z</time></trkpt><trkpt lat="43.41705109875823" lon="11.812898644735355"><ele>244.42857142857142</ele><time>2026-03-22T08:39:14.998Z</time></trkpt><trkpt lat="43.41701290322515" lon="11.812821366479808"><ele>244.57142857142856</ele><time>2026-03-22T08:39:15.998Z</time></trkpt><trkpt lat="43.416972975482324" lon="11.812737187122753"><ele>244.71428571428572</ele><time>2026-03-22T08:39:16.998Z</time></trkpt><trkpt lat="43.41693481854826" lon="11.812654290399124"><ele>244.85714285714286</ele><time>2026-03-22T08:39:17.998Z</time></trkpt><trkpt lat="43.416897454036864" lon="11.812574455530612"><ele>245.0</ele><time>2026-03-22T08:39:18.998Z</time></trkpt><trkpt lat="43.4168577922262" lon="11.812492841425746"><ele>245.0</ele><time>2026-03-22T08:39:19.998Z</time></trkpt><trkpt lat="43.416818674512655" lon="11.812412584982813"><ele>245.0</ele><time>2026-03-22T08:39:20.998Z</time></trkpt><trkpt lat="43.41677842953984" lon="11.812331014945793"><ele>245.0</ele><time>2026-03-22T08:39:21.998Z</time></trkpt><trkpt lat="43.41674193830609" lon="11.812250011336186"><ele>245.0</ele><time>2026-03-22T08:39:22.998Z</time></trkpt><trkpt lat="43.4167079663829" lon="11.812168107012774"><ele>245.0</ele><time>2026-03-22T08:39:23.998Z</time></trkpt><trkpt lat="43.41666580508563" lon="11.812086214483003"><ele>245.0</ele><time>2026-03-22T08:39:24.998Z</time></trkpt><trkpt lat="43.41662900141851" lon="11.812007328765452"><ele>245.0</ele><time>2026-03-22T08:39:25.998Z</time></trkpt><trkpt lat="43.416591364835014" lon="11.811924966318406"><ele>245.0</ele><time>2026-03-22T08:39:26.998Z</time></trkpt><trkpt lat="43.416553332237044" lon="11.811842811672932"><ele>245.0</ele><time>2026-03-22T08:39:27.998Z</time></trkpt><trkpt lat="43.41651645467351" lon="11.811764114617214"><ele>245.0</ele><time>2026-03-22T08:39:28.998Z</time></trkpt><trkpt lat="43.41647586122574" lon="11.811682631720274"><ele>245.0</ele><time>2026-03-22T08:39:29.998Z</time></trkpt><trkpt lat="43.41643827319186" lon="11.811602126655627"><ele>245.0</ele><time>2026-03-22T08:39:30.998Z</time></trkpt><trkpt lat="43.41640026009151" lon="11.811519818546175"><ele>245.0</ele><time>2026-03-22T08:39:31.998Z</time></trkpt><trkpt lat="43.416361282184404" lon="11.81143798055854"><ele>245.0</ele><time>2026-03-22T08:39:32.998Z</time></trkpt><trkpt lat="43.41632102285986" lon="11.8113607832758"><ele>245.14285714285714</ele><time>2026-03-22T08:39:33.998Z</time></trkpt><trkpt lat="43.416284421141796" lon="11.811282900094133"><ele>245.28571428571428</ele><time>2026-03-22T08:39:34.998Z</time></trkpt><trkpt lat="43.41624561004609" lon="11.811203261285652"><ele>245.42857142857144</ele><time>2026-03-22T08:39:35.998Z</time></trkpt><trkpt lat="43.41620822394388" lon="11.811123895023812"><ele>245.57142857142858</ele><time>2026-03-22T08:39:36.998Z</time></trkpt><trkpt lat="43.416171329198576" lon="11.811044970637173"><ele>245.71428571428572</ele><time>2026-03-22T08:39:37.998Z</time></trkpt><trkpt lat="43.416133771775144" lon="11.810965532257857"><ele>245.8571428571429</ele><time>2026-03-22T08:39:38.998Z</time></trkpt><trkpt lat="43.41609636534661" lon="11.810885882662292"><ele>246.00000000000003</ele><time>2026-03-22T08:39:39.998Z</time></trkpt><trkpt lat="43.41605863265727" lon="11.810807678023469"><ele>245.71428571428575</ele><time>2026-03-22T08:39:40.998Z</time></trkpt><trkpt lat="43.41602215999955" lon="11.810729154096084"><ele>245.42857142857144</ele><time>2026-03-22T08:39:41.998Z</time></trkpt><trkpt lat="43.4159848762201" lon="11.81065140933372"><ele>245.14285714285714</ele><time>2026-03-22T08:39:42.998Z</time></trkpt><trkpt lat="43.415947057669115" lon="11.81057239526067"><ele>244.85714285714286</ele><time>2026-03-22T08:39:43.998Z</time></trkpt><trkpt lat="43.4159082312698" lon="11.810494978902128"><ele>244.57142857142856</ele><time>2026-03-22T08:39:44.998Z</time></trkpt><trkpt lat="43.41587021898631" lon="11.810417834555729"><ele>244.28571428571425</ele><time>2026-03-22T08:39:45.998Z</time></trkpt><trkpt lat="43.415831904259" lon="11.810338761616231"><ele>243.99999999999997</ele><time>2026-03-22T08:39:46.998Z</time></trkpt><trkpt lat="43.415795265955936" lon="11.810261531645951"><ele>243.99999999999997</ele><time>2026-03-22T08:39:47.998Z</time></trkpt><trkpt lat="43.415757565155786" lon="11.81018264140059"><ele>244.0</ele><time>2026-03-22T08:39:48.998Z</time></trkpt><trkpt lat="43.415723334858626" lon="11.810103980440564"><ele>243.99999999999997</ele><time>2026-03-22T08:39:50Z</time></trkpt><trkpt lat="43.415686135139644" lon="11.810026766328187"><ele>243.99999999999997</ele><time>2026-03-22T08:39:51Z</time></trkpt><trkpt lat="43.41565033685669" lon="11.80995038614709"><ele>244.0</ele><time>2026-03-22T08:39:52Z</time></trkpt><trkpt lat="43.415615102265036" lon="11.809872905293085"><ele>243.99999999999997</ele><time>2026-03-22T08:39:53Z</time></trkpt><trkpt lat="43.415580179129" lon="11.809795942793913"><ele>243.99999999999997</ele><time>2026-03-22T08:39:54Z</time></trkpt><trkpt lat="43.41554374962198" lon="11.809719023024316"><ele>243.85714285714283</ele><time>2026-03-22T08:39:55Z</time></trkpt><trkpt lat="43.41550500805417" lon="11.809643841618428"><ele>243.71428571428572</ele><time>2026-03-22T08:39:56Z</time></trkpt><trkpt lat="43.41546950798492" lon="11.809567367487768"><ele>243.57142857142856</ele><time>2026-03-22T08:39:57Z</time></trkpt><trkpt lat="43.41543299249719" lon="11.809492653755997"><ele>243.42857142857142</ele><time>2026-03-22T08:39:58Z</time></trkpt><trkpt lat="43.41539455827059" lon="11.809416668508746"><ele>243.28571428571428</ele><time>2026-03-22T08:39:59Z</time></trkpt><trkpt lat="43.415357227183286" lon="11.809339185284006"><ele>243.14285714285714</ele><time>2026-03-22T08:40:00Z</time></trkpt><trkpt lat="43.415317343578224" lon="11.809263698377181"><ele>243.0</ele><time>2026-03-22T08:40:01Z</time></trkpt><trkpt lat="43.41528125416617" lon="11.80918478617958"><ele>243.28571428571428</ele><time>2026-03-22T08:40:02Z</time></trkpt><trkpt lat="43.415243625812806" lon="11.809105968814007"><ele>243.57142857142858</ele><time>2026-03-22T08:40:03Z</time></trkpt><trkpt lat="43.41520501139184" lon="11.809026614809923"><ele>243.85714285714286</ele><time>2026-03-22T08:40:04Z</time></trkpt><trkpt lat="43.415168280009446" lon="11.808947988995879"><ele>244.14285714285714</ele><time>2026-03-22T08:40:05Z</time></trkpt><trkpt lat="43.41512952228824" lon="11.808871540166365"><ele>244.42857142857144</ele><time>2026-03-22T08:40:06Z</time></trkpt><trkpt lat="43.415092292547946" lon="11.808793566438364"><ele>244.71428571428572</ele><time>2026-03-22T08:40:07Z</time></trkpt><trkpt lat="43.415055502734845" lon="11.808716601330005"><ele>245.0</ele><time>2026-03-22T08:40:08Z</time></trkpt><trkpt lat="43.41501930318001" lon="11.808639807554117"><ele>245.0</ele><time>2026-03-22T08:40:09Z</time></trkpt><trkpt lat="43.41498098517659" lon="11.808563106210656"><ele>245.0</ele><time>2026-03-22T08:40:10Z</time></trkpt><trkpt lat="43.41494479187528" lon="11.8084862094347"><ele>245.0</ele><time>2026-03-22T08:40:11Z</time></trkpt><trkpt lat="43.41490795278545" lon="11.808408233875358"><ele>245.0</ele><time>2026-03-22T08:40:12Z</time></trkpt><trkpt lat="43.41487095144182" lon="11.808332020573022"><ele>245.0</ele><time>2026-03-22T08:40:13Z</time></trkpt><trkpt lat="43.41483651478679" lon="11.808253874567907"><ele>245.0</ele><time>2026-03-22T08:40:14Z</time></trkpt><trkpt lat="43.41479992977561" lon="11.808175514647667"><ele>245.0</ele><time>2026-03-22T08:40:15Z</time></trkpt><trkpt lat="43.414764272156646" lon="11.808096020233215"><ele>244.85714285714286</ele><time>2026-03-22T08:40:16Z</time></trkpt><trkpt lat="43.41472782229093" lon="11.80801951769568"><ele>244.71428571428572</ele><time>2026-03-22T08:40:17Z</time></trkpt><trkpt lat="43.414693709351546" lon="11.80794112554362"><ele>244.57142857142856</ele><time>2026-03-22T08:40:18Z</time></trkpt><trkpt lat="43.41465598789477" lon="11.807863335939299"><ele>244.42857142857142</ele><time>2026-03-22T08:40:19Z</time></trkpt><trkpt lat="43.41461684623746" lon="11.807781297083583"><ele>244.28571428571428</ele><time>2026-03-22T08:40:20Z</time></trkpt><trkpt lat="43.414579634417954" lon="11.807703066976742"><ele>244.1428571428571</ele><time>2026-03-22T08:40:21Z</time></trkpt><trkpt lat="43.41454130241775" lon="11.807626735924584"><ele>243.99999999999997</ele><time>2026-03-22T08:40:22Z</time></trkpt><trkpt lat="43.41446971470973" lon="11.80748011790683"><ele>243.99999999999997</ele><time>2026-03-22T08:40:24Z</time></trkpt><trkpt lat="43.41443252416808" lon="11.807404795560174"><ele>244.0</ele><time>2026-03-22T08:40:25Z</time></trkpt><trkpt lat="43.414396938502684" lon="11.807326879531415"><ele>243.99999999999997</ele><time>2026-03-22T08:40:25.999Z</time></trkpt><trkpt lat="43.414359958927044" lon="11.807251163207791"><ele>243.99999999999997</ele><time>2026-03-22T08:40:26.999Z</time></trkpt><trkpt lat="43.414324626648295" lon="11.807175390204021"><ele>244.0</ele><time>2026-03-22T08:40:27.999Z</time></trkpt><trkpt lat="43.41428923090757" lon="11.807099376325155"><ele>243.99999999999997</ele><time>2026-03-22T08:40:28.999Z</time></trkpt><trkpt lat="43.41425309441888" lon="11.807025319254222"><ele>243.99999999999997</ele><time>2026-03-22T08:40:29.999Z</time></trkpt><trkpt lat="43.41421769162303" lon="11.806947683645376"><ele>243.99999999999997</ele><time>2026-03-22T08:40:30.999Z</time></trkpt><trkpt lat="43.41418145835269" lon="11.806868142582475"><ele>244.0</ele><time>2026-03-22T08:40:31.999Z</time></trkpt><trkpt lat="43.414141072400064" lon="11.806788639956014"><ele>243.99999999999997</ele><time>2026-03-22T08:40:32.999Z</time></trkpt><trkpt lat="43.41410312322399" lon="11.806709329962995"><ele>243.99999999999997</ele><time>2026-03-22T08:40:33.999Z</time></trkpt><trkpt lat="43.414064893363296" lon="11.806631858398328"><ele>244.0</ele><time>2026-03-22T08:40:34.999Z</time></trkpt><trkpt lat="43.41402794638016" lon="11.806555347135733"><ele>243.99999999999997</ele><time>2026-03-22T08:40:35.999Z</time></trkpt><trkpt lat="43.41398935487014" lon="11.806477031785805"><ele>243.99999999999997</ele><time>2026-03-22T08:40:36.999Z</time></trkpt><trkpt lat="43.41395290382096" lon="11.80640011303243"><ele>243.99999999999997</ele><time>2026-03-22T08:40:37.999Z</time></trkpt><trkpt lat="43.413914286292744" lon="11.806322706157875"><ele>244.0</ele><time>2026-03-22T08:40:38.999Z</time></trkpt><trkpt lat="43.41387718480409" lon="11.806242644218063"><ele>243.99999999999997</ele><time>2026-03-22T08:40:39.999Z</time></trkpt><trkpt lat="43.41384214787499" lon="11.806165453148498"><ele>243.99999999999997</ele><time>2026-03-22T08:40:40.999Z</time></trkpt><trkpt lat="43.41380602022887" lon="11.806088076469443"><ele>244.0</ele><time>2026-03-22T08:40:41.999Z</time></trkpt><trkpt lat="43.41376931376673" lon="11.806010534699823"><ele>243.99999999999997</ele><time>2026-03-22T08:40:42.999Z</time></trkpt><trkpt lat="43.4137320638589" lon="11.805931148168849"><ele>243.99999999999997</ele><time>2026-03-22T08:40:43.999Z</time></trkpt><trkpt lat="43.41369414195801" lon="11.805854200889735"><ele>243.99999999999997</ele><time>2026-03-22T08:40:44.999Z</time></trkpt><trkpt lat="43.41365929361266" lon="11.805776462374645"><ele>244.0</ele><time>2026-03-22T08:40:45.999Z</time></trkpt><trkpt lat="43.41362318303486" lon="11.805701132378177"><ele>243.99999999999997</ele><time>2026-03-22T08:40:46.999Z</time></trkpt><trkpt lat="43.4135856364079" lon="11.805623057013403"><ele>243.99999999999997</ele><time>2026-03-22T08:40:47.999Z</time></trkpt><trkpt lat="43.413554434525885" lon="11.805538193421532"><ele>244.0</ele><time>2026-03-22T08:40:48.999Z</time></trkpt><trkpt lat="43.413512710071664" lon="11.805463787225671"><ele>243.99999999999997</ele><time>2026-03-22T08:40:49.999Z</time></trkpt><trkpt lat="43.413476093319666" lon="11.805390378827061"><ele>243.99999999999997</ele><time>2026-03-22T08:40:50.999Z</time></trkpt><trkpt lat="43.41344241356675" lon="11.805313923851251"><ele>243.99999999999997</ele><time>2026-03-22T08:40:51.999Z</time></trkpt><trkpt lat="43.4134058011347" lon="11.805235723483886"><ele>244.0</ele><time>2026-03-22T08:40:52.999Z</time></trkpt><trkpt lat="43.41336945646766" lon="11.805158536155426"><ele>243.99999999999997</ele><time>2026-03-22T08:40:53.999Z</time></trkpt><trkpt lat="43.41333391305282" lon="11.805082240919402"><ele>243.99999999999997</ele><time>2026-03-22T08:40:54.999Z</time></trkpt><trkpt lat="43.413297058591624" lon="11.80500455925918"><ele>244.0</ele><time>2026-03-22T08:40:55.999Z</time></trkpt><trkpt lat="43.41325979889173" lon="11.804930495056125"><ele>243.99999999999997</ele><time>2026-03-22T08:40:56.999Z</time></trkpt><trkpt lat="43.413222616195725" lon="11.80485590460467"><ele>243.99999999999997</ele><time>2026-03-22T08:40:57.999Z</time></trkpt><trkpt lat="43.41315276462415" lon="11.804707552395168"><ele>244.28571428571425</ele><time>2026-03-22T08:40:59.999Z</time></trkpt><trkpt lat="43.41311734627956" lon="11.804633892526947"><ele>244.57142857142856</ele><time>2026-03-22T08:41:00.999Z</time></trkpt><trkpt lat="43.41308427261433" lon="11.80455945303193"><ele>244.85714285714286</ele><time>2026-03-22T08:41:01.999Z</time></trkpt><trkpt lat="43.41304709734862" lon="11.80447709360805"><ele>245.14285714285714</ele><time>2026-03-22T08:41:02.999Z</time></trkpt><trkpt lat="43.41301070742486" lon="11.804400019887467"><ele>245.42857142857144</ele><time>2026-03-22T08:41:03.999Z</time></trkpt><trkpt lat="43.41297027483633" lon="11.804323917563975"><ele>245.71428571428575</ele><time>2026-03-22T08:41:04.999Z</time></trkpt><trkpt lat="43.41293517178566" lon="11.804246869192566"><ele>246.00000000000003</ele><time>2026-03-22T08:41:05.999Z</time></trkpt><trkpt lat="43.41289970267075" lon="11.804170955100654"><ele>246.14285714285717</ele><time>2026-03-22T08:41:06.999Z</time></trkpt><trkpt lat="43.41286391278357" lon="11.804093729043545"><ele>246.28571428571428</ele><time>2026-03-22T08:41:07.999Z</time></trkpt><trkpt lat="43.41282795397372" lon="11.804016895146507"><ele>246.42857142857144</ele><time>2026-03-22T08:41:08.999Z</time></trkpt><trkpt lat="43.41279284081399" lon="11.803939154513628"><ele>246.57142857142858</ele><time>2026-03-22T08:41:09.999Z</time></trkpt><trkpt lat="43.412755434359184" lon="11.803863964110537"><ele>246.71428571428572</ele><time>2026-03-22T08:41:10.999Z</time></trkpt><trkpt lat="43.41271912995077" lon="11.803787837561815"><ele>246.85714285714286</ele><time>2026-03-22T08:41:11.999Z</time></trkpt><trkpt lat="43.412683859017285" lon="11.803713132716823"><ele>247.0</ele><time>2026-03-22T08:41:12.998Z</time></trkpt><trkpt lat="43.41264698032031" lon="11.803638340686245"><ele>247.0</ele><time>2026-03-22T08:41:13.998Z</time></trkpt><trkpt lat="43.41261107445275" lon="11.803561077049354"><ele>247.0</ele><time>2026-03-22T08:41:14.998Z</time></trkpt><trkpt lat="43.41257497046129" lon="11.80348503833138"><ele>247.0</ele><time>2026-03-22T08:41:15.998Z</time></trkpt><trkpt lat="43.41253853118777" lon="11.803409928030812"><ele>247.0</ele><time>2026-03-22T08:41:16.998Z</time></trkpt><trkpt lat="43.41250138209896" lon="11.803331207199681"><ele>247.0</ele><time>2026-03-22T08:41:17.998Z</time></trkpt><trkpt lat="43.41246409385073" lon="11.803256087827318"><ele>247.0</ele><time>2026-03-22T08:41:18.998Z</time></trkpt><trkpt lat="43.412426728553086" lon="11.803180797280694"><ele>247.0</ele><time>2026-03-22T08:41:19.998Z</time></trkpt><trkpt lat="43.412392395009086" lon="11.803106075129078"><ele>247.0</ele><time>2026-03-22T08:41:20.998Z</time></trkpt><trkpt lat="43.412355330837606" lon="11.80303057012267"><ele>247.0</ele><time>2026-03-22T08:41:21.998Z</time></trkpt><trkpt lat="43.41231693409646" lon="11.802954594074993"><ele>247.0</ele><time>2026-03-22T08:41:22.998Z</time></trkpt><trkpt lat="43.41227947631774" lon="11.80288002462737"><ele>247.0</ele><time>2026-03-22T08:41:23.998Z</time></trkpt><trkpt lat="43.41224374593413" lon="11.80280509711043"><ele>247.0</ele><time>2026-03-22T08:41:24.998Z</time></trkpt><trkpt lat="43.412209953031635" lon="11.802729782021181"><ele>247.0</ele><time>2026-03-22T08:41:25.998Z</time></trkpt><trkpt lat="43.412174854082544" lon="11.802654374695427"><ele>247.0</ele><time>2026-03-22T08:41:26.998Z</time></trkpt><trkpt lat="43.41213839651517" lon="11.802576682406986"><ele>246.85714285714286</ele><time>2026-03-22T08:41:27.998Z</time></trkpt><trkpt lat="43.41210254482583" lon="11.802499119552722"><ele>246.71428571428572</ele><time>2026-03-22T08:41:28.998Z</time></trkpt><trkpt lat="43.4120630932993" lon="11.802422583116309"><ele>246.57142857142858</ele><time>2026-03-22T08:41:29.998Z</time></trkpt><trkpt lat="43.41202239809599" lon="11.802345644032595"><ele>246.42857142857144</ele><time>2026-03-22T08:41:30.998Z</time></trkpt><trkpt lat="43.41198033021487" lon="11.802267750895027"><ele>246.28571428571428</ele><time>2026-03-22T08:41:31.998Z</time></trkpt><trkpt lat="43.41194302256424" lon="11.802191110078265"><ele>246.14285714285717</ele><time>2026-03-22T08:41:32.998Z</time></trkpt><trkpt lat="43.411905044170666" lon="11.802112384838885"><ele>246.00000000000003</ele><time>2026-03-22T08:41:33.998Z</time></trkpt><trkpt lat="43.411866493211384" lon="11.802032842116919"><ele>246.00000000000003</ele><time>2026-03-22T08:41:34.998Z</time></trkpt><trkpt lat="43.41182892696876" lon="11.801952892832105"><ele>246.0</ele><time>2026-03-22T08:41:35.998Z</time></trkpt><trkpt lat="43.41179106610112" lon="11.80187494549923"><ele>246.00000000000003</ele><time>2026-03-22T08:41:36.998Z</time></trkpt><trkpt lat="43.411755720693016" lon="11.801795690973277"><ele>246.00000000000003</ele><time>2026-03-22T08:41:37.998Z</time></trkpt><trkpt lat="43.4117167452391" lon="11.801715751511692"><ele>246.0</ele><time>2026-03-22T08:41:38.998Z</time></trkpt><trkpt lat="43.41167729653289" lon="11.801641641525665"><ele>246.00000000000003</ele><time>2026-03-22T08:41:39.998Z</time></trkpt><trkpt lat="43.41163875294462" lon="11.801562929911883"><ele>246.00000000000003</ele><time>2026-03-22T08:41:40.998Z</time></trkpt><trkpt lat="43.411597315455204" lon="11.801479396899722"><ele>246.00000000000003</ele><time>2026-03-22T08:41:41.998Z</time></trkpt><trkpt lat="43.41155808121294" lon="11.801396373559013"><ele>246.0</ele><time>2026-03-22T08:41:42.998Z</time></trkpt><trkpt lat="43.41151959294168" lon="11.801314659325872"><ele>246.00000000000003</ele><time>2026-03-22T08:41:43.998Z</time></trkpt><trkpt lat="43.411480831633796" lon="11.801235238031273"><ele>246.00000000000003</ele><time>2026-03-22T08:41:44.998Z</time></trkpt><trkpt lat="43.411441449234864" lon="11.80115587842579"><ele>246.0</ele><time>2026-03-22T08:41:45.998Z</time></trkpt><trkpt lat="43.41140162972624" lon="11.801075848599016"><ele>246.00000000000003</ele><time>2026-03-22T08:41:46.998Z</time></trkpt><trkpt lat="43.41136333437279" lon="11.800996227711947"><ele>246.00000000000003</ele><time>2026-03-22T08:41:47.998Z</time></trkpt><trkpt lat="43.41132464310643" lon="11.800919264791958"><ele>246.42857142857144</ele><time>2026-03-22T08:41:48.998Z</time></trkpt><trkpt lat="43.41128572246244" lon="11.800840389243872"><ele>246.85714285714286</ele><time>2026-03-22T08:41:49.998Z</time></trkpt><trkpt lat="43.411248317211744" lon="11.800762501324709"><ele>247.28571428571428</ele><time>2026-03-22T08:41:50.998Z</time></trkpt><trkpt lat="43.411211231328835" lon="11.800685164407618"><ele>247.71428571428572</ele><time>2026-03-22T08:41:51.998Z</time></trkpt><trkpt lat="43.41117738929992" lon="11.800605786067068"><ele>248.1428571428571</ele><time>2026-03-22T08:41:52.998Z</time></trkpt><trkpt lat="43.411141835365164" lon="11.80052892886649"><ele>248.57142857142856</ele><time>2026-03-22T08:41:53.998Z</time></trkpt><trkpt lat="43.411103059072616" lon="11.800454040837744"><ele>249.0</ele><time>2026-03-22T08:41:54.998Z</time></trkpt><trkpt lat="43.41106631973164" lon="11.800372941189567"><ele>249.0</ele><time>2026-03-22T08:41:56Z</time></trkpt><trkpt lat="43.41103113931594" lon="11.800297594018977"><ele>249.0</ele><time>2026-03-22T08:41:57Z</time></trkpt><trkpt lat="43.41099989744344" lon="11.800219489411253"><ele>249.0</ele><time>2026-03-22T08:41:58Z</time></trkpt><trkpt lat="43.41092691549461" lon="11.800072273573837"><ele>249.0</ele><time>2026-03-22T08:42:00Z</time></trkpt><trkpt lat="43.410891328998325" lon="11.799995545469754"><ele>249.0</ele><time>2026-03-22T08:42:01Z</time></trkpt><trkpt lat="43.410853680742555" lon="11.799921352024349"><ele>249.0</ele><time>2026-03-22T08:42:02Z</time></trkpt><trkpt lat="43.410815984601186" lon="11.799843005294848"><ele>249.16666666666666</ele><time>2026-03-22T08:42:03Z</time></trkpt><trkpt lat="43.41078430066432" lon="11.799766632589115"><ele>249.33333333333331</ele><time>2026-03-22T08:42:04Z</time></trkpt><trkpt lat="43.410749042764174" lon="11.79969391410717"><ele>249.5</ele><time>2026-03-22T08:42:05Z</time></trkpt><trkpt lat="43.410684490306885" lon="11.799548081659143"><ele>249.66666666666666</ele><time>2026-03-22T08:42:07Z</time></trkpt><trkpt lat="43.410648369500926" lon="11.799473446381176"><ele>249.83333333333331</ele><time>2026-03-22T08:42:08Z</time></trkpt><trkpt lat="43.410612580060025" lon="11.79939932867463"><ele>250.0</ele><time>2026-03-22T08:42:09Z</time></trkpt><trkpt lat="43.41054858276483" lon="11.799255376024597"><ele>249.6</ele><time>2026-03-22T08:42:11Z</time></trkpt><trkpt lat="43.41048668265254" lon="11.799112963150113"><ele>249.2</ele><time>2026-03-22T08:42:13Z</time></trkpt><trkpt lat="43.41042283964592" lon="11.798985021926999"><ele>248.8</ele><time>2026-03-22T08:42:15Z</time></trkpt><trkpt lat="43.41035998850048" lon="11.798878017334232"><ele>248.4</ele><time>2026-03-22T08:42:17Z</time></trkpt><trkpt lat="43.41031007291049" lon="11.798786744828215"><ele>248.0</ele><time>2026-03-22T08:42:19Z</time></trkpt><trkpt lat="43.41027074887294" lon="11.798698011034755"><ele>248.0</ele><time>2026-03-22T08:42:21Z</time></trkpt><trkpt lat="43.41026697567847" lon="11.7987965040357"><ele>248.0</ele><time>2026-03-22T08:44:13.292Z</time></trkpt><trkpt lat="43.41021368469325" lon="11.799269997959726"><ele>248.0</ele><time>2026-03-22T08:44:19.302Z</time></trkpt><trkpt lat="43.41026553488141" lon="11.798790649455395"><ele>248.0</ele><time>2026-03-22T08:44:25.561Z</time></trkpt><trkpt lat="43.410225015145166" lon="11.799273270340843"><ele>248.0</ele><time>2026-03-22T08:45:11.295Z</time></trkpt><trkpt lat="43.410250080808765" lon="11.798891857629974"><ele>248.0</ele><time>2026-03-22T08:47:47.931Z</time></trkpt><trkpt lat="43.410154452785854" lon="11.798696573757308"><ele>248.0</ele><time>2026-03-22T08:47:48.993Z</time></trkpt><trkpt lat="43.41023588554482" lon="11.798733897610141"><ele>248.0</ele><time>2026-03-22T08:48:03Z</time></trkpt><trkpt lat="43.410264920001914" lon="11.798655343778513"><ele>248.0</ele><time>2026-03-22T08:49:21.998Z</time></trkpt><trkpt lat="43.410201918425805" lon="11.798631786497559"><ele>248.0</ele><time>2026-03-22T08:52:23Z</time></trkpt><trkpt lat="43.410150786402625" lon="11.798554982664848"><ele>248.00000000000003</ele><time>2026-03-22T08:52:26Z</time></trkpt><trkpt lat="43.41009351229318" lon="11.798504435113449"><ele>248.0</ele><time>2026-03-22T08:52:28Z</time></trkpt><trkpt lat="43.41003480073177" lon="11.798436950449126"><ele>248.0</ele><time>2026-03-22T08:52:30Z</time></trkpt><trkpt lat="43.40996193717285" lon="11.798371500283013"><ele>248.0</ele><time>2026-03-22T08:52:32Z</time></trkpt><trkpt lat="43.40988032296258" lon="11.798304184777033"><ele>248.00000000000003</ele><time>2026-03-22T08:52:34Z</time></trkpt><trkpt lat="43.40982014333308" lon="11.798185137845847"><ele>248.0</ele><time>2026-03-22T08:52:36Z</time></trkpt><trkpt lat="43.40983937596395" lon="11.798030483945576"><ele>248.0</ele><time>2026-03-22T08:52:38Z</time></trkpt><trkpt lat="43.40987780619466" lon="11.797888792576506"><ele>248.0</ele><time>2026-03-22T08:52:40Z</time></trkpt><trkpt lat="43.409882164650284" lon="11.79773433267465"><ele>248.0</ele><time>2026-03-22T08:52:42Z</time></trkpt><trkpt lat="43.40988516222453" lon="11.797573874262847"><ele>248.0</ele><time>2026-03-22T08:52:44Z</time></trkpt><trkpt lat="43.409901981008844" lon="11.797412895611345"><ele>248.25</ele><time>2026-03-22T08:52:46Z</time></trkpt><trkpt lat="43.40990164986321" lon="11.79725219265326"><ele>248.5</ele><time>2026-03-22T08:52:47.999Z</time></trkpt><trkpt lat="43.40991022749596" lon="11.797087050809104"><ele>248.75</ele><time>2026-03-22T08:52:49.999Z</time></trkpt><trkpt lat="43.409915574442714" lon="11.79692780304208"><ele>249.0</ele><time>2026-03-22T08:52:51.999Z</time></trkpt><trkpt lat="43.40992449475231" lon="11.796768941983716"><ele>249.0</ele><time>2026-03-22T08:52:53.999Z</time></trkpt><trkpt lat="43.40993011015331" lon="11.796603217588041"><ele>249.0</ele><time>2026-03-22T08:52:55.999Z</time></trkpt><trkpt lat="43.40994358317805" lon="11.796445506016113"><ele>249.0</ele><time>2026-03-22T08:52:57.999Z</time></trkpt><trkpt lat="43.40994962577579" lon="11.79629473147623"><ele>249.0</ele><time>2026-03-22T08:52:59.999Z</time></trkpt><trkpt lat="43.409959520606705" lon="11.79614406026008"><ele>248.75</ele><time>2026-03-22T08:53:01.999Z</time></trkpt><trkpt lat="43.40996858084097" lon="11.795985629362184"><ele>248.5</ele><time>2026-03-22T08:53:03.999Z</time></trkpt><trkpt lat="43.40998310282816" lon="11.795829643802739"><ele>248.25</ele><time>2026-03-22T08:53:05.999Z</time></trkpt><trkpt lat="43.40998679600681" lon="11.795669922897126"><ele>248.0</ele><time>2026-03-22T08:53:07.999Z</time></trkpt><trkpt lat="43.409994082857295" lon="11.795507657553056"><ele>248.0</ele><time>2026-03-22T08:53:09.999Z</time></trkpt><trkpt lat="43.410005294356544" lon="11.795343520360884"><ele>248.0</ele><time>2026-03-22T08:53:11.999Z</time></trkpt><trkpt lat="43.41001519765792" lon="11.795181063621524"><ele>248.0</ele><time>2026-03-22T08:53:13.999Z</time></trkpt><trkpt lat="43.41002602276898" lon="11.795022680288922"><ele>248.0</ele><time>2026-03-22T08:53:15.999Z</time></trkpt><trkpt lat="43.41002792115909" lon="11.794863879590816"><ele>248.0</ele><time>2026-03-22T08:53:17.999Z</time></trkpt><trkpt lat="43.4100429244452" lon="11.794695064912759"><ele>248.0</ele><time>2026-03-22T08:53:19.999Z</time></trkpt><trkpt lat="43.41005353680154" lon="11.794538990107824"><ele>248.0</ele><time>2026-03-22T08:53:21.999Z</time></trkpt><trkpt lat="43.410061084223024" lon="11.79437171581812"><ele>248.0</ele><time>2026-03-22T08:53:23.999Z</time></trkpt><trkpt lat="43.410060334491334" lon="11.794203032937864"><ele>247.5</ele><time>2026-03-22T08:53:25.999Z</time></trkpt><trkpt lat="43.41005401748778" lon="11.794032549527236"><ele>247.0</ele><time>2026-03-22T08:53:27.999Z</time></trkpt><trkpt lat="43.410051674745624" lon="11.793862985185397"><ele>246.5</ele><time>2026-03-22T08:53:29.999Z</time></trkpt><trkpt lat="43.41004141576425" lon="11.793687884779985"><ele>246.0</ele><time>2026-03-22T08:53:31.999Z</time></trkpt><trkpt lat="43.41003019179047" lon="11.793517677837485"><ele>246.20000000000002</ele><time>2026-03-22T08:53:33.999Z</time></trkpt><trkpt lat="43.41002524496509" lon="11.793430872442782"><ele>246.40000000000003</ele><time>2026-03-22T08:53:34.999Z</time></trkpt><trkpt lat="43.41001869964423" lon="11.793342727476578"><ele>246.6</ele><time>2026-03-22T08:53:35.998Z</time></trkpt><trkpt lat="43.410008630758576" lon="11.793170482218011"><ele>246.8</ele><time>2026-03-22T08:53:37.998Z</time></trkpt><trkpt lat="43.41000213007828" lon="11.793006937079557"><ele>247.0</ele><time>2026-03-22T08:53:39.998Z</time></trkpt><trkpt lat="43.40999562660316" lon="11.792841459595008"><ele>247.0</ele><time>2026-03-22T08:53:41.998Z</time></trkpt><trkpt lat="43.40998286237118" lon="11.79267694066555"><ele>247.0</ele><time>2026-03-22T08:53:43.998Z</time></trkpt><trkpt lat="43.40997477582731" lon="11.79250787897701"><ele>247.0</ele><time>2026-03-22T08:53:45.998Z</time></trkpt><trkpt lat="43.4099656470763" lon="11.792336957924835"><ele>247.0</ele><time>2026-03-22T08:53:47.998Z</time></trkpt><trkpt lat="43.40995892309634" lon="11.792175551454605"><ele>247.25</ele><time>2026-03-22T08:53:49.998Z</time></trkpt><trkpt lat="43.40994508897261" lon="11.792005443765007"><ele>247.5</ele><time>2026-03-22T08:53:51.998Z</time></trkpt><trkpt lat="43.40993879947691" lon="11.791839345182256"><ele>247.75</ele><time>2026-03-22T08:53:53.998Z</time></trkpt><trkpt lat="43.409926908670684" lon="11.791675291277235"><ele>248.0</ele><time>2026-03-22T08:53:55.998Z</time></trkpt><trkpt lat="43.40991732102023" lon="11.791517625841262"><ele>248.4</ele><time>2026-03-22T08:53:57.998Z</time></trkpt><trkpt lat="43.4099305438011" lon="11.791367906035862"><ele>248.8</ele><time>2026-03-22T08:53:59.998Z</time></trkpt><trkpt lat="43.40998967162325" lon="11.791232934560623"><ele>249.2</ele><time>2026-03-22T08:54:01.998Z</time></trkpt><trkpt lat="43.41005891458854" lon="11.791133388909744"><ele>249.6</ele><time>2026-03-22T08:54:03.998Z</time></trkpt><trkpt lat="43.41015061052728" lon="11.791076228839357"><ele>250.0</ele><time>2026-03-22T08:54:05.998Z</time></trkpt><trkpt lat="43.4102393170289" lon="11.790996593946959"><ele>250.0</ele><time>2026-03-22T08:54:07.998Z</time></trkpt><trkpt lat="43.41030291506584" lon="11.79086396697979"><ele>250.0</ele><time>2026-03-22T08:54:09.998Z</time></trkpt><trkpt lat="43.41030741315698" lon="11.790775770946508"><ele>250.0</ele><time>2026-03-22T08:54:10.998Z</time></trkpt><trkpt lat="43.410288101725634" lon="11.790686707602571"><ele>250.0</ele><time>2026-03-22T08:54:11.998Z</time></trkpt><trkpt lat="43.410184712486746" lon="11.790549323404036"><ele>250.0</ele><time>2026-03-22T08:54:14Z</time></trkpt><trkpt lat="43.41011886032527" lon="11.790521032713643"><ele>249.99999999999997</ele><time>2026-03-22T08:54:15Z</time></trkpt><trkpt lat="43.41005176095277" lon="11.790519837332313"><ele>250.0</ele><time>2026-03-22T08:54:16Z</time></trkpt><trkpt lat="43.40994169744422" lon="11.790442798367716"><ele>250.0</ele><time>2026-03-22T08:54:18Z</time></trkpt><trkpt lat="43.40989301422647" lon="11.790383655878056"><ele>250.0</ele><time>2026-03-22T08:54:19Z</time></trkpt><trkpt lat="43.4098490865595" lon="11.790313860582115"><ele>249.99999999999997</ele><time>2026-03-22T08:54:20Z</time></trkpt><trkpt lat="43.40981381399443" lon="11.790241242767"><ele>250.0</ele><time>2026-03-22T08:54:21Z</time></trkpt><trkpt lat="43.4097586787404" lon="11.79009101263402"><ele>250.25</ele><time>2026-03-22T08:54:23Z</time></trkpt><trkpt lat="43.409705982998354" lon="11.789943909100582"><ele>250.5</ele><time>2026-03-22T08:54:25Z</time></trkpt><trkpt lat="43.40965130081557" lon="11.789802731379998"><ele>250.75</ele><time>2026-03-22T08:54:27Z</time></trkpt><trkpt lat="43.40959663377133" lon="11.789664664419973"><ele>251.0</ele><time>2026-03-22T08:54:29Z</time></trkpt><trkpt lat="43.40954003963472" lon="11.789528192760589"><ele>251.5</ele><time>2026-03-22T08:54:31Z</time></trkpt><trkpt lat="43.40948719975371" lon="11.789389588276206"><ele>252.0</ele><time>2026-03-22T08:54:33Z</time></trkpt><trkpt lat="43.40942972786306" lon="11.789251119584666"><ele>252.5</ele><time>2026-03-22T08:54:35Z</time></trkpt><trkpt lat="43.4093762077624" lon="11.789117253408993"><ele>253.0</ele><time>2026-03-22T08:54:37Z</time></trkpt><trkpt lat="43.40932268772389" lon="11.788981843745066"><ele>253.0</ele><time>2026-03-22T08:54:39Z</time></trkpt><trkpt lat="43.40926676823139" lon="11.788847059995978"><ele>253.0</ele><time>2026-03-22T08:54:41Z</time></trkpt><trkpt lat="43.40921236128555" lon="11.788715974419684"><ele>253.0</ele><time>2026-03-22T08:54:43Z</time></trkpt><trkpt lat="43.40916075401128" lon="11.788581629585027"><ele>253.0</ele><time>2026-03-22T08:54:45Z</time></trkpt><trkpt lat="43.409108363094944" lon="11.788453170962512"><ele>253.0</ele><time>2026-03-22T08:54:46.999Z</time></trkpt><trkpt lat="43.40905818726281" lon="11.788324510360395"><ele>253.4</ele><time>2026-03-22T08:54:48.999Z</time></trkpt><trkpt lat="43.40900502378488" lon="11.788195512486348"><ele>253.8</ele><time>2026-03-22T08:54:50.999Z</time></trkpt><trkpt lat="43.40895433896327" lon="11.788068148303525"><ele>254.2</ele><time>2026-03-22T08:54:52.999Z</time></trkpt><trkpt lat="43.4089040571222" lon="11.78794860749996"><ele>254.6</ele><time>2026-03-22T08:54:54.999Z</time></trkpt><trkpt lat="43.408856214239364" lon="11.787828165726276"><ele>255.0</ele><time>2026-03-22T08:54:56.999Z</time></trkpt><trkpt lat="43.40880891052716" lon="11.787709534347673"><ele>255.8</ele><time>2026-03-22T08:54:58.999Z</time></trkpt><trkpt lat="43.40875837371048" lon="11.78759300120297"><ele>256.6</ele><time>2026-03-22T08:55:00.999Z</time></trkpt><trkpt lat="43.4087170043882" lon="11.787474488149371"><ele>257.4</ele><time>2026-03-22T08:55:02.999Z</time></trkpt><trkpt lat="43.40867865201747" lon="11.787351209304871"><ele>258.2</ele><time>2026-03-22T08:55:04.999Z</time></trkpt><trkpt lat="43.40864575764324" lon="11.78722560929758"><ele>259.0</ele><time>2026-03-22T08:55:06.999Z</time></trkpt><trkpt lat="43.40862287973641" lon="11.78710310739"><ele>259.0</ele><time>2026-03-22T08:55:08.999Z</time></trkpt><trkpt lat="43.408605313390666" lon="11.786978047590132"><ele>259.0</ele><time>2026-03-22T08:55:10.999Z</time></trkpt><trkpt lat="43.40858862462277" lon="11.786845353629744"><ele>259.0</ele><time>2026-03-22T08:55:12.999Z</time></trkpt><trkpt lat="43.4085789264337" lon="11.786705110620634"><ele>259.0</ele><time>2026-03-22T08:55:14.999Z</time></trkpt><trkpt lat="43.40857668925866" lon="11.786574582964844"><ele>259.0</ele><time>2026-03-22T08:55:16.999Z</time></trkpt><trkpt lat="43.40857637106699" lon="11.78644123196649"><ele>259.4</ele><time>2026-03-22T08:55:18.999Z</time></trkpt><trkpt lat="43.40858318708502" lon="11.786313156244093"><ele>259.79999999999995</ele><time>2026-03-22T08:55:20.999Z</time></trkpt><trkpt lat="43.408589844451484" lon="11.786184439767348"><ele>260.20000000000005</ele><time>2026-03-22T08:55:22.999Z</time></trkpt><trkpt lat="43.40859833057497" lon="11.786069249391184"><ele>260.6</ele><time>2026-03-22T08:55:24.999Z</time></trkpt><trkpt lat="43.40860404526868" lon="11.78594988278952"><ele>261.0</ele><time>2026-03-22T08:55:26.999Z</time></trkpt><trkpt lat="43.40861242084441" lon="11.785819836764952"><ele>261.2</ele><time>2026-03-22T08:55:28.999Z</time></trkpt><trkpt lat="43.40862044899322" lon="11.785694325308762"><ele>261.40000000000003</ele><time>2026-03-22T08:55:30.999Z</time></trkpt><trkpt lat="43.40863306193938" lon="11.785544713389053"><ele>261.6</ele><time>2026-03-22T08:55:32.999Z</time></trkpt><trkpt lat="43.40864482685054" lon="11.785406393210625"><ele>261.8</ele><time>2026-03-22T08:55:34.999Z</time></trkpt><trkpt lat="43.4086534716835" lon="11.785268695427876"><ele>262.0</ele><time>2026-03-22T08:55:36.998Z</time></trkpt><trkpt lat="43.40866491982034" lon="11.785130844068288"><ele>262.2</ele><time>2026-03-22T08:55:38.998Z</time></trkpt><trkpt lat="43.40867354289837" lon="11.784993527848517"><ele>262.4</ele><time>2026-03-22T08:55:40.998Z</time></trkpt><trkpt lat="43.40868718927612" lon="11.784850409861733"><ele>262.6</ele><time>2026-03-22T08:55:42.998Z</time></trkpt><trkpt lat="43.408696878364644" lon="11.784711529247593"><ele>262.8</ele><time>2026-03-22T08:55:44.998Z</time></trkpt><trkpt lat="43.40870842362403" lon="11.784573372903079"><ele>263.0</ele><time>2026-03-22T08:55:46.998Z</time></trkpt><trkpt lat="43.40872026238941" lon="11.784433999977784"><ele>263.4</ele><time>2026-03-22T08:55:48.998Z</time></trkpt><trkpt lat="43.40872791757125" lon="11.784295857253152"><ele>263.8</ele><time>2026-03-22T08:55:50.998Z</time></trkpt><trkpt lat="43.408743438050664" lon="11.784152443868823"><ele>264.2</ele><time>2026-03-22T08:55:52.998Z</time></trkpt><trkpt lat="43.40875119493744" lon="11.784009779734133"><ele>264.6</ele><time>2026-03-22T08:55:54.998Z</time></trkpt><trkpt lat="43.408762605420556" lon="11.783875592515598"><ele>265.0</ele><time>2026-03-22T08:55:56.998Z</time></trkpt><trkpt lat="43.408768223706204" lon="11.783737603329547"><ele>265.0</ele><time>2026-03-22T08:55:58.998Z</time></trkpt><trkpt lat="43.40878323950937" lon="11.783597812267711"><ele>265.0</ele><time>2026-03-22T08:56:00.998Z</time></trkpt><trkpt lat="43.40879273519611" lon="11.78345800043773"><ele>265.0</ele><time>2026-03-22T08:56:02.998Z</time></trkpt><trkpt lat="43.40880433099242" lon="11.78332119712825"><ele>265.0</ele><time>2026-03-22T08:56:04.998Z</time></trkpt><trkpt lat="43.40881823293886" lon="11.783187118597871"><ele>265.0</ele><time>2026-03-22T08:56:06.998Z</time></trkpt><trkpt lat="43.40882423527717" lon="11.78304137867873"><ele>265.0</ele><time>2026-03-22T08:56:08.998Z</time></trkpt><trkpt lat="43.408845829899434" lon="11.78291231874305"><ele>265.0</ele><time>2026-03-22T08:56:10.998Z</time></trkpt><trkpt lat="43.408865782679094" lon="11.782778192913096"><ele>265.0</ele><time>2026-03-22T08:56:12.998Z</time></trkpt><trkpt lat="43.40888984155035" lon="11.782645708195469"><ele>265.0</ele><time>2026-03-22T08:56:14.998Z</time></trkpt><trkpt lat="43.40892444052381" lon="11.782512529224777"><ele>265.0</ele><time>2026-03-22T08:56:16.998Z</time></trkpt><trkpt lat="43.40895558981552" lon="11.782381174846085"><ele>265.2</ele><time>2026-03-22T08:56:19Z</time></trkpt><trkpt lat="43.40899822960625" lon="11.78225094777586"><ele>265.4</ele><time>2026-03-22T08:56:21Z</time></trkpt><trkpt lat="43.40903255642907" lon="11.782114084342986"><ele>265.6</ele><time>2026-03-22T08:56:23Z</time></trkpt><trkpt lat="43.40906833244427" lon="11.781973499534654"><ele>265.8</ele><time>2026-03-22T08:56:25Z</time></trkpt><trkpt lat="43.40910452900121" lon="11.781833343632305"><ele>266.0</ele><time>2026-03-22T08:56:27Z</time></trkpt><trkpt lat="43.409137276165865" lon="11.781693631374903"><ele>265.6</ele><time>2026-03-22T08:56:29Z</time></trkpt><trkpt lat="43.40917526616367" lon="11.78155176381063"><ele>265.20000000000005</ele><time>2026-03-22T08:56:31Z</time></trkpt><trkpt lat="43.409209178438694" lon="11.781414977309886"><ele>264.79999999999995</ele><time>2026-03-22T08:56:33Z</time></trkpt><trkpt lat="43.40924430563515" lon="11.78127984167938"><ele>264.4</ele><time>2026-03-22T08:56:35Z</time></trkpt><trkpt lat="43.409281260159574" lon="11.781147060475586"><ele>264.0</ele><time>2026-03-22T08:56:37Z</time></trkpt><trkpt lat="43.40932169501804" lon="11.781013282989292"><ele>264.0</ele><time>2026-03-22T08:56:39Z</time></trkpt><trkpt lat="43.40937647397334" lon="11.780811226249783"><ele>264.0</ele><time>2026-03-22T08:56:42Z</time></trkpt><trkpt lat="43.40941063267779" lon="11.780674490448355"><ele>264.0</ele><time>2026-03-22T08:56:44Z</time></trkpt><trkpt lat="43.40944911547727" lon="11.780541070310694"><ele>264.0</ele><time>2026-03-22T08:56:46Z</time></trkpt><trkpt lat="43.409486439407324" lon="11.780402945306932"><ele>264.0</ele><time>2026-03-22T08:56:47.999Z</time></trkpt><trkpt lat="43.409518498585925" lon="11.78026399301136"><ele>264.0</ele><time>2026-03-22T08:56:49.999Z</time></trkpt><trkpt lat="43.4095569511227" lon="11.780129343308776"><ele>264.0</ele><time>2026-03-22T08:56:51.999Z</time></trkpt><trkpt lat="43.40959136837754" lon="11.779995300318298"><ele>264.0</ele><time>2026-03-22T08:56:53.999Z</time></trkpt><trkpt lat="43.409628056833434" lon="11.779858438497271"><ele>264.0</ele><time>2026-03-22T08:56:55.999Z</time></trkpt><trkpt lat="43.40966058331356" lon="11.779724268022763"><ele>264.4</ele><time>2026-03-22T08:56:57.999Z</time></trkpt><trkpt lat="43.40969716596172" lon="11.779591458071556"><ele>264.79999999999995</ele><time>2026-03-22T08:56:59.999Z</time></trkpt><trkpt lat="43.4097299239312" lon="11.779469213213261"><ele>265.20000000000005</ele><time>2026-03-22T08:57:01.999Z</time></trkpt><trkpt lat="43.409760873790354" lon="11.77934965144766"><ele>265.6</ele><time>2026-03-22T08:57:03.999Z</time></trkpt><trkpt lat="43.409793461881776" lon="11.779229506627141"><ele>266.0</ele><time>2026-03-22T08:57:05.999Z</time></trkpt><trkpt lat="43.409826147810385" lon="11.779107621235822"><ele>266.2</ele><time>2026-03-22T08:57:07.999Z</time></trkpt><trkpt lat="43.40986072107904" lon="11.778985166981231"><ele>266.40000000000003</ele><time>2026-03-22T08:57:09.999Z</time></trkpt><trkpt lat="43.40989645542674" lon="11.778856473137035"><ele>266.6</ele><time>2026-03-22T08:57:11.999Z</time></trkpt><trkpt lat="43.4099318581451" lon="11.778724178737878"><ele>266.8</ele><time>2026-03-22T08:57:13.999Z</time></trkpt><trkpt lat="43.409963997121594" lon="11.778594533242742"><ele>267.0</ele><time>2026-03-22T08:57:15.999Z</time></trkpt><trkpt lat="43.41000184151758" lon="11.778457379694544"><ele>267.4</ele><time>2026-03-22T08:57:17.999Z</time></trkpt><trkpt lat="43.41003718882912" lon="11.778334369009292"><ele>267.79999999999995</ele><time>2026-03-22T08:57:19.999Z</time></trkpt><trkpt lat="43.410068650217845" lon="11.778210346820213"><ele>268.2</ele><time>2026-03-22T08:57:21.999Z</time></trkpt><trkpt lat="43.4101010444424" lon="11.778083052684742"><ele>268.59999999999997</ele><time>2026-03-22T08:57:23.999Z</time></trkpt><trkpt lat="43.41013522274765" lon="11.777955781598521"><ele>269.0</ele><time>2026-03-22T08:57:25.999Z</time></trkpt><trkpt lat="43.41016942903053" lon="11.777823047063102"><ele>269.0</ele><time>2026-03-22T08:57:27.999Z</time></trkpt><trkpt lat="43.41020091817346" lon="11.777698741217922"><ele>269.0</ele><time>2026-03-22T08:57:29.999Z</time></trkpt><trkpt lat="43.41023435925264" lon="11.777569430633461"><ele>269.0</ele><time>2026-03-22T08:57:31.999Z</time></trkpt><trkpt lat="43.41026582400482" lon="11.777441469131574"><ele>269.0</ele><time>2026-03-22T08:57:33.999Z</time></trkpt><trkpt lat="43.410300666992" lon="11.77731855778924"><ele>269.0</ele><time>2026-03-22T08:57:35.999Z</time></trkpt><trkpt lat="43.41033273173254" lon="11.777191975466545"><ele>268.59999999999997</ele><time>2026-03-22T08:57:37.999Z</time></trkpt><trkpt lat="43.41035899948384" lon="11.77707005731404"><ele>268.2</ele><time>2026-03-22T08:57:39.999Z</time></trkpt><trkpt lat="43.41039166523719" lon="11.776949236957499"><ele>267.79999999999995</ele><time>2026-03-22T08:57:41.998Z</time></trkpt><trkpt lat="43.410422759994354" lon="11.776831228788648"><ele>267.4</ele><time>2026-03-22T08:57:43.998Z</time></trkpt><trkpt lat="43.41045572873608" lon="11.776716018378346"><ele>267.0</ele><time>2026-03-22T08:57:45.998Z</time></trkpt><trkpt lat="43.41048930634489" lon="11.776596397921322"><ele>267.0</ele><time>2026-03-22T08:57:47.998Z</time></trkpt><trkpt lat="43.41052131122363" lon="11.776470125326604"><ele>267.0</ele><time>2026-03-22T08:57:49.998Z</time></trkpt><trkpt lat="43.410555956616584" lon="11.77633877326308"><ele>267.0</ele><time>2026-03-22T08:57:51.998Z</time></trkpt><trkpt lat="43.41058723550746" lon="11.776201445111708"><ele>267.0</ele><time>2026-03-22T08:57:53.998Z</time></trkpt><trkpt lat="43.410615388677535" lon="11.776052040915292"><ele>267.0</ele><time>2026-03-22T08:57:55.998Z</time></trkpt><trkpt lat="43.41062689239029" lon="11.775885262956098"><ele>267.5</ele><time>2026-03-22T08:57:57.998Z</time></trkpt><trkpt lat="43.410620047804215" lon="11.775712877874067"><ele>268.0</ele><time>2026-03-22T08:57:59.998Z</time></trkpt><trkpt lat="43.41060855490364" lon="11.775623935504532"><ele>268.5</ele><time>2026-03-22T08:58:00.998Z</time></trkpt><trkpt lat="43.41059116199919" lon="11.775532745097285"><ele>269.0</ele><time>2026-03-22T08:58:01.998Z</time></trkpt><trkpt lat="43.41057474222594" lon="11.77544069118235"><ele>269.5</ele><time>2026-03-22T08:58:02.998Z</time></trkpt><trkpt lat="43.41055558906385" lon="11.775352666038899"><ele>270.0</ele><time>2026-03-22T08:58:03.998Z</time></trkpt><trkpt lat="43.41053651860864" lon="11.775254833106192"><ele>270.0</ele><time>2026-03-22T08:58:04.998Z</time></trkpt><trkpt lat="43.41051504088214" lon="11.775164043273076"><ele>270.0</ele><time>2026-03-22T08:58:05.998Z</time></trkpt><trkpt lat="43.41049931598791" lon="11.775068309912323"><ele>270.0</ele><time>2026-03-22T08:58:06.998Z</time></trkpt><trkpt lat="43.41048057945614" lon="11.77497357212127"><ele>270.0</ele><time>2026-03-22T08:58:07.998Z</time></trkpt><trkpt lat="43.41045543219089" lon="11.774877359742867"><ele>270.0</ele><time>2026-03-22T08:58:08.998Z</time></trkpt><trkpt lat="43.41043251814847" lon="11.774783141312803"><ele>270.0</ele><time>2026-03-22T08:58:09.998Z</time></trkpt><trkpt lat="43.410411459287985" lon="11.77468989677381"><ele>270.0</ele><time>2026-03-22T08:58:10.998Z</time></trkpt><trkpt lat="43.41038843956146" lon="11.774598614877046"><ele>270.0</ele><time>2026-03-22T08:58:11.998Z</time></trkpt><trkpt lat="43.41036777868696" lon="11.774507718137814"><ele>270.0</ele><time>2026-03-22T08:58:12.998Z</time></trkpt><trkpt lat="43.41034791225936" lon="11.774418014671882"><ele>270.0</ele><time>2026-03-22T08:58:13.998Z</time></trkpt><trkpt lat="43.41032509724028" lon="11.774323925500896"><ele>270.0</ele><time>2026-03-22T08:58:14.998Z</time></trkpt><trkpt lat="43.410303729966884" lon="11.774236299341212"><ele>270.0</ele><time>2026-03-22T08:58:15.998Z</time></trkpt><trkpt lat="43.41028538236041" lon="11.774145767753028"><ele>270.0</ele><time>2026-03-22T08:58:16.998Z</time></trkpt><trkpt lat="43.41026277430078" lon="11.774051910760626"><ele>270.0</ele><time>2026-03-22T08:58:17.998Z</time></trkpt><trkpt lat="43.410239623316784" lon="11.773963236030609"><ele>269.85714285714283</ele><time>2026-03-22T08:58:18.998Z</time></trkpt><trkpt lat="43.41021680031331" lon="11.773873238577714"><ele>269.71428571428567</ele><time>2026-03-22T08:58:19.998Z</time></trkpt><trkpt lat="43.41019723444775" lon="11.773783119194299"><ele>269.57142857142856</ele><time>2026-03-22T08:58:20.998Z</time></trkpt><trkpt lat="43.410177328973454" lon="11.773693186601601"><ele>269.42857142857144</ele><time>2026-03-22T08:58:21.998Z</time></trkpt><trkpt lat="43.41015358718076" lon="11.773602880126191"><ele>269.28571428571433</ele><time>2026-03-22T08:58:22.998Z</time></trkpt><trkpt lat="43.41013266469548" lon="11.773513875970378"><ele>269.14285714285717</ele><time>2026-03-22T08:58:24Z</time></trkpt><trkpt lat="43.410111486480446" lon="11.773425473811693"><ele>269.0</ele><time>2026-03-22T08:58:25Z</time></trkpt><trkpt lat="43.4100907292289" lon="11.7733370761818"><ele>269.0</ele><time>2026-03-22T08:58:26Z</time></trkpt><trkpt lat="43.410071066052446" lon="11.773250566623318"><ele>269.0</ele><time>2026-03-22T08:58:27Z</time></trkpt><trkpt lat="43.41004866763324" lon="11.773164738509003"><ele>269.0</ele><time>2026-03-22T08:58:28Z</time></trkpt><trkpt lat="43.41002947336452" lon="11.773075937178943"><ele>269.0</ele><time>2026-03-22T08:58:29Z</time></trkpt><trkpt lat="43.410007176209575" lon="11.772991546101268"><ele>269.0</ele><time>2026-03-22T08:58:30Z</time></trkpt><trkpt lat="43.40998571221276" lon="11.772909418476866"><ele>269.0</ele><time>2026-03-22T08:58:31Z</time></trkpt><trkpt lat="43.40996537295273" lon="11.772820891673343"><ele>269.0</ele><time>2026-03-22T08:58:32Z</time></trkpt><trkpt lat="43.409933568675946" lon="11.772657609317344"><ele>269.14285714285717</ele><time>2026-03-22T08:58:34Z</time></trkpt><trkpt lat="43.40991422639431" lon="11.772573078563836"><ele>269.28571428571433</ele><time>2026-03-22T08:58:35Z</time></trkpt><trkpt lat="43.40989494738272" lon="11.772488149985161"><ele>269.42857142857144</ele><time>2026-03-22T08:58:36Z</time></trkpt><trkpt lat="43.40985705278452" lon="11.772330359906025"><ele>269.57142857142856</ele><time>2026-03-22T08:58:38Z</time></trkpt><trkpt lat="43.409837020643856" lon="11.772246159204602"><ele>269.71428571428567</ele><time>2026-03-22T08:58:39Z</time></trkpt><trkpt lat="43.409815979341296" lon="11.772163552689511"><ele>269.85714285714283</ele><time>2026-03-22T08:58:40Z</time></trkpt><trkpt lat="43.4097958765074" lon="11.772079978959574"><ele>270.0</ele><time>2026-03-22T08:58:41Z</time></trkpt><trkpt lat="43.40977596432469" lon="11.771994663225234"><ele>270.0</ele><time>2026-03-22T08:58:42Z</time></trkpt><trkpt lat="43.40975583798385" lon="11.771909820747263"><ele>270.0</ele><time>2026-03-22T08:58:43Z</time></trkpt><trkpt lat="43.4097361856446" lon="11.771825730963727"><ele>270.0</ele><time>2026-03-22T08:58:44Z</time></trkpt><trkpt lat="43.40969747384505" lon="11.771653001647914"><ele>270.0</ele><time>2026-03-22T08:58:46Z</time></trkpt><trkpt lat="43.40968153216039" lon="11.771566273527181"><ele>270.0</ele><time>2026-03-22T08:58:47Z</time></trkpt><trkpt lat="43.409667203012376" lon="11.771478838556154"><ele>270.0</ele><time>2026-03-22T08:58:48Z</time></trkpt><trkpt lat="43.40965399193712" lon="11.771390972626156"><ele>270.3333333333333</ele><time>2026-03-22T08:58:49Z</time></trkpt><trkpt lat="43.40964915684805" lon="11.77130406444398"><ele>270.6666666666667</ele><time>2026-03-22T08:58:50Z</time></trkpt><trkpt lat="43.40964496701165" lon="11.771217342998675"><ele>271.0</ele><time>2026-03-22T08:58:51Z</time></trkpt><trkpt lat="43.40964188692796" lon="11.771130592483843"><ele>271.33333333333337</ele><time>2026-03-22T08:58:52Z</time></trkpt><trkpt lat="43.40963453264717" lon="11.770959402273935"><ele>271.6666666666667</ele><time>2026-03-22T08:58:54Z</time></trkpt><trkpt lat="43.409627893131315" lon="11.770785253265272"><ele>272.0</ele><time>2026-03-22T08:58:55.999Z</time></trkpt><trkpt lat="43.40962525130362" lon="11.770697355533201"><ele>272.0</ele><time>2026-03-22T08:58:56.999Z</time></trkpt><trkpt lat="43.4096186497975" lon="11.7706108659405"><ele>272.0</ele><time>2026-03-22T08:58:57.999Z</time></trkpt><trkpt lat="43.409613498889605" lon="11.770438295220567"><ele>272.0</ele><time>2026-03-22T08:58:59.999Z</time></trkpt><trkpt lat="43.4096076804843" lon="11.77026784715889"><ele>272.0</ele><time>2026-03-22T08:59:01.999Z</time></trkpt><trkpt lat="43.40960417974006" lon="11.77018117812566"><ele>272.0</ele><time>2026-03-22T08:59:02.999Z</time></trkpt><trkpt lat="43.40959661943314" lon="11.770010971445815"><ele>272.25</ele><time>2026-03-22T08:59:04.999Z</time></trkpt><trkpt lat="43.409587329442864" lon="11.769835515494975"><ele>272.5</ele><time>2026-03-22T08:59:06.999Z</time></trkpt><trkpt lat="43.40958606436352" lon="11.769668005870503"><ele>272.75</ele><time>2026-03-22T08:59:08.999Z</time></trkpt><trkpt lat="43.40957666343971" lon="11.769495186288243"><ele>273.0</ele><time>2026-03-22T08:59:10.999Z</time></trkpt><trkpt lat="43.40957688141056" lon="11.769320412222847"><ele>273.0</ele><time>2026-03-22T08:59:12.999Z</time></trkpt><trkpt lat="43.40960008709365" lon="11.769232700027914"><ele>273.0</ele><time>2026-03-22T08:59:13.999Z</time></trkpt><trkpt lat="43.40962671573576" lon="11.769143324316984"><ele>273.0</ele><time>2026-03-22T08:59:14.999Z</time></trkpt><trkpt lat="43.40966239955777" lon="11.769066150904898"><ele>273.0</ele><time>2026-03-22T08:59:15.999Z</time></trkpt><trkpt lat="43.409697694404514" lon="11.768898460376848"><ele>273.0</ele><time>2026-03-22T08:59:17.999Z</time></trkpt><trkpt lat="43.40968655694067" lon="11.768806772300461"><ele>273.0</ele><time>2026-03-22T08:59:18.999Z</time></trkpt><trkpt lat="43.40965667258891" lon="11.76872347706108"><ele>273.0</ele><time>2026-03-22T08:59:19.999Z</time></trkpt><trkpt lat="43.409611632613014" lon="11.768650921884937"><ele>273.0</ele><time>2026-03-22T08:59:20.999Z</time></trkpt><trkpt lat="43.409519643319875" lon="11.768552332077004"><ele>273.0</ele><time>2026-03-22T08:59:22.999Z</time></trkpt><trkpt lat="43.40954218227058" lon="11.768398221577058"><ele>273.0</ele><time>2026-03-22T08:59:23.999Z</time></trkpt><trkpt lat="43.40956180812579" lon="11.768209163701405"><ele>273.0</ele><time>2026-03-22T08:59:25.999Z</time></trkpt><trkpt lat="43.40956922797699" lon="11.768118695736652"><ele>273.0</ele><time>2026-03-22T08:59:26.999Z</time></trkpt><trkpt lat="43.40957172578837" lon="11.768025922285931"><ele>273.0</ele><time>2026-03-22T08:59:27.999Z</time></trkpt><trkpt lat="43.40957323940956" lon="11.767932733961263"><ele>273.0</ele><time>2026-03-22T08:59:28.999Z</time></trkpt><trkpt lat="43.40957684793172" lon="11.7678402812005"><ele>273.0</ele><time>2026-03-22T08:59:29.999Z</time></trkpt><trkpt lat="43.40957945499387" lon="11.767744223435875"><ele>273.0</ele><time>2026-03-22T08:59:30.999Z</time></trkpt><trkpt lat="43.40958236108515" lon="11.767648657321574"><ele>273.0</ele><time>2026-03-22T08:59:31.999Z</time></trkpt><trkpt lat="43.40958423876826" lon="11.767554312261506"><ele>273.0</ele><time>2026-03-22T08:59:32.999Z</time></trkpt><trkpt lat="43.40958660999113" lon="11.767458296009497"><ele>273.14285714285717</ele><time>2026-03-22T08:59:33.999Z</time></trkpt><trkpt lat="43.409589188133765" lon="11.767363570743838"><ele>273.2857142857143</ele><time>2026-03-22T08:59:34.999Z</time></trkpt><trkpt lat="43.40959050923512" lon="11.7672680626237"><ele>273.42857142857144</ele><time>2026-03-22T08:59:35.999Z</time></trkpt><trkpt lat="43.409592386424976" lon="11.767172114156537"><ele>273.57142857142856</ele><time>2026-03-22T08:59:36.999Z</time></trkpt><trkpt lat="43.40959501142168" lon="11.767075765679072"><ele>273.7142857142857</ele><time>2026-03-22T08:59:37.999Z</time></trkpt><trkpt lat="43.409596801407844" lon="11.766983043996662"><ele>273.8571428571429</ele><time>2026-03-22T08:59:38.999Z</time></trkpt><trkpt lat="43.40960090976919" lon="11.76689056181145"><ele>274.0</ele><time>2026-03-22T08:59:39.999Z</time></trkpt><trkpt lat="43.40960543238196" lon="11.766798008804736"><ele>274.14285714285717</ele><time>2026-03-22T08:59:40.999Z</time></trkpt><trkpt lat="43.40960668226902" lon="11.766704505067628"><ele>274.2857142857143</ele><time>2026-03-22T08:59:41.999Z</time></trkpt><trkpt lat="43.40961274712737" lon="11.76661098208191"><ele>274.42857142857144</ele><time>2026-03-22T08:59:42.999Z</time></trkpt><trkpt lat="43.40962117033454" lon="11.766518840178197"><ele>274.57142857142856</ele><time>2026-03-22T08:59:43.999Z</time></trkpt><trkpt lat="43.40963098862194" lon="11.766427246076999"><ele>274.7142857142857</ele><time>2026-03-22T08:59:44.999Z</time></trkpt><trkpt lat="43.409640436533905" lon="11.766338820139374"><ele>274.8571428571429</ele><time>2026-03-22T08:59:45.999Z</time></trkpt><trkpt lat="43.40965203720968" lon="11.766246805567588"><ele>275.0</ele><time>2026-03-22T08:59:46.999Z</time></trkpt><trkpt lat="43.409667247963924" lon="11.766155435050292"><ele>275.2857142857143</ele><time>2026-03-22T08:59:47.999Z</time></trkpt><trkpt lat="43.409683875289" lon="11.766065541324235"><ele>275.57142857142856</ele><time>2026-03-22T08:59:48.999Z</time></trkpt><trkpt lat="43.40970108273347" lon="11.765976276793243"><ele>275.85714285714283</ele><time>2026-03-22T08:59:49.999Z</time></trkpt><trkpt lat="43.409720639211415" lon="11.76588915875842"><ele>276.1428571428571</ele><time>2026-03-22T08:59:50.998Z</time></trkpt><trkpt lat="43.40974007586266" lon="11.76580603344945"><ele>276.4285714285714</ele><time>2026-03-22T08:59:51.998Z</time></trkpt><trkpt lat="43.40976064852199" lon="11.765721819361408"><ele>276.7142857142857</ele><time>2026-03-22T08:59:52.998Z</time></trkpt><trkpt lat="43.40978642461674" lon="11.765641403280025"><ele>277.0</ele><time>2026-03-22T08:59:53.998Z</time></trkpt><trkpt lat="43.40983952424862" lon="11.765485237382201"><ele>277.0</ele><time>2026-03-22T08:59:55.998Z</time></trkpt><trkpt lat="43.40988291601235" lon="11.765327460770386"><ele>277.0</ele><time>2026-03-22T08:59:57.998Z</time></trkpt><trkpt lat="43.409922977617775" lon="11.765175182074833"><ele>277.0</ele><time>2026-03-22T08:59:59.998Z</time></trkpt><trkpt lat="43.409945291724654" lon="11.765091492901172"><ele>277.0</ele><time>2026-03-22T09:00:00.998Z</time></trkpt><trkpt lat="43.40996774089988" lon="11.765005785606037"><ele>277.0</ele><time>2026-03-22T09:00:01.998Z</time></trkpt><trkpt lat="43.409989859821955" lon="11.764919783723466"><ele>277.0</ele><time>2026-03-22T09:00:02.998Z</time></trkpt><trkpt lat="43.41001510363401" lon="11.764838082486552"><ele>277.0</ele><time>2026-03-22T09:00:03.998Z</time></trkpt><trkpt lat="43.41003811538137" lon="11.764747712979318"><ele>277.0</ele><time>2026-03-22T09:00:04.998Z</time></trkpt><trkpt lat="43.41006181612271" lon="11.764659721823497"><ele>277.0</ele><time>2026-03-22T09:00:05.998Z</time></trkpt><trkpt lat="43.41008010607365" lon="11.764568874926967"><ele>277.0</ele><time>2026-03-22T09:00:06.998Z</time></trkpt><trkpt lat="43.410095445444846" lon="11.764472324453836"><ele>277.0</ele><time>2026-03-22T09:00:07.998Z</time></trkpt><trkpt lat="43.41010123207968" lon="11.764378807627185"><ele>277.0</ele><time>2026-03-22T09:00:08.998Z</time></trkpt><trkpt lat="43.41010510686196" lon="11.76428342006928"><ele>277.0</ele><time>2026-03-22T09:00:09.998Z</time></trkpt><trkpt lat="43.41010152333129" lon="11.764185311352723"><ele>277.1428571428571</ele><time>2026-03-22T09:00:10.998Z</time></trkpt><trkpt lat="43.4100912969745" lon="11.764086221632779"><ele>277.2857142857143</ele><time>2026-03-22T09:00:11.998Z</time></trkpt><trkpt lat="43.41007513453315" lon="11.763989977886474"><ele>277.42857142857144</ele><time>2026-03-22T09:00:12.998Z</time></trkpt><trkpt lat="43.41005559386382" lon="11.763898689781374"><ele>277.57142857142856</ele><time>2026-03-22T09:00:13.998Z</time></trkpt><trkpt lat="43.410027822701885" lon="11.763801984888302"><ele>277.7142857142857</ele><time>2026-03-22T09:00:14.998Z</time></trkpt><trkpt lat="43.409995511326024" lon="11.763710553491464"><ele>277.85714285714283</ele><time>2026-03-22T09:00:15.998Z</time></trkpt><trkpt lat="43.40996516759588" lon="11.763625299765218"><ele>278.0</ele><time>2026-03-22T09:00:16.998Z</time></trkpt><trkpt lat="43.40993045588703" lon="11.763536768862105"><ele>278.1428571428571</ele><time>2026-03-22T09:00:17.998Z</time></trkpt><trkpt lat="43.40989647043478" lon="11.763450639364093"><ele>278.2857142857143</ele><time>2026-03-22T09:00:18.998Z</time></trkpt><trkpt lat="43.40985981683208" lon="11.763366331495126"><ele>278.42857142857144</ele><time>2026-03-22T09:00:19.998Z</time></trkpt><trkpt lat="43.40982515533032" lon="11.763286874873417"><ele>278.57142857142856</ele><time>2026-03-22T09:00:20.998Z</time></trkpt><trkpt lat="43.409790878770515" lon="11.763207093543329"><ele>278.7142857142857</ele><time>2026-03-22T09:00:21.998Z</time></trkpt><trkpt lat="43.40976010465291" lon="11.763128417591831"><ele>278.85714285714283</ele><time>2026-03-22T09:00:22.998Z</time></trkpt><trkpt lat="43.40972589666986" lon="11.76305296222053"><ele>279.0</ele><time>2026-03-22T09:00:23.998Z</time></trkpt><trkpt lat="43.40966404655658" lon="11.762909673029512"><ele>279.0</ele><time>2026-03-22T09:00:25.998Z</time></trkpt><trkpt lat="43.40960582199286" lon="11.762769953252006"><ele>279.0</ele><time>2026-03-22T09:00:27.998Z</time></trkpt><trkpt lat="43.40955000613939" lon="11.762638437137099"><ele>279.0</ele><time>2026-03-22T09:00:30Z</time></trkpt><trkpt lat="43.40949589795512" lon="11.762511830570316"><ele>279.0</ele><time>2026-03-22T09:00:32Z</time></trkpt><trkpt lat="43.40944390457706" lon="11.762388320717118"><ele>279.0</ele><time>2026-03-22T09:00:34Z</time></trkpt><trkpt lat="43.40939211980495" lon="11.762264130413495"><ele>279.8</ele><time>2026-03-22T09:00:36Z</time></trkpt><trkpt lat="43.40934038373578" lon="11.762142840423806"><ele>280.59999999999997</ele><time>2026-03-22T09:00:38Z</time></trkpt><trkpt lat="43.4092911051654" lon="11.762025161394565"><ele>281.4</ele><time>2026-03-22T09:00:40Z</time></trkpt><trkpt lat="43.409243629433774" lon="11.761913370084432"><ele>282.2</ele><time>2026-03-22T09:00:42Z</time></trkpt><trkpt lat="43.40919727709947" lon="11.761804379636363"><ele>283.0</ele><time>2026-03-22T09:00:44Z</time></trkpt><trkpt lat="43.409150462579944" lon="11.761697871577573"><ele>283.3333333333333</ele><time>2026-03-22T09:00:46Z</time></trkpt><trkpt lat="43.40910520058906" lon="11.76158716200415"><ele>283.66666666666663</ele><time>2026-03-22T09:00:48Z</time></trkpt><trkpt lat="43.40906174762798" lon="11.761485842750652"><ele>284.0</ele><time>2026-03-22T09:00:50Z</time></trkpt><trkpt lat="43.409018124951146" lon="11.761385685472186"><ele>284.3333333333333</ele><time>2026-03-22T09:00:52Z</time></trkpt><trkpt lat="43.40897337879459" lon="11.761284084946729"><ele>284.6666666666667</ele><time>2026-03-22T09:00:54Z</time></trkpt><trkpt lat="43.408932712833554" lon="11.761184562039317"><ele>285.0</ele><time>2026-03-22T09:00:56Z</time></trkpt><trkpt lat="43.40889041527451" lon="11.761088611631978"><ele>285.6666666666667</ele><time>2026-03-22T09:00:58Z</time></trkpt><trkpt lat="43.40884727446956" lon="11.760987925824367"><ele>286.3333333333333</ele><time>2026-03-22T09:01:00Z</time></trkpt><trkpt lat="43.40880275724276" lon="11.760879009779275"><ele>287.0</ele><time>2026-03-22T09:01:02Z</time></trkpt><trkpt lat="43.40875684108522" lon="11.760771639011587"><ele>287.66666666666663</ele><time>2026-03-22T09:01:04Z</time></trkpt><trkpt lat="43.408718168920984" lon="11.760677145503447"><ele>288.3333333333333</ele><time>2026-03-22T09:01:06Z</time></trkpt><trkpt lat="43.40867912913842" lon="11.760585850170472"><ele>289.0</ele><time>2026-03-22T09:01:08Z</time></trkpt><trkpt lat="43.40864016222224" lon="11.760498130350474"><ele>289.0</ele><time>2026-03-22T09:01:10Z</time></trkpt><trkpt lat="43.40860516295308" lon="11.76041205416177"><ele>289.0</ele><time>2026-03-22T09:01:12Z</time></trkpt><trkpt lat="43.408567473805356" lon="11.760328189646657"><ele>289.0</ele><time>2026-03-22T09:01:13.999Z</time></trkpt><trkpt lat="43.40853259526533" lon="11.760244316065101"><ele>289.0</ele><time>2026-03-22T09:01:15.999Z</time></trkpt><trkpt lat="43.408496844290774" lon="11.760161192111681"><ele>289.0</ele><time>2026-03-22T09:01:17.999Z</time></trkpt><trkpt lat="43.40845958027087" lon="11.760078463829863"><ele>289.0</ele><time>2026-03-22T09:01:19.999Z</time></trkpt><trkpt lat="43.40842471552914" lon="11.759992744664096"><ele>289.0</ele><time>2026-03-22T09:01:21.999Z</time></trkpt><trkpt lat="43.40838736865289" lon="11.759907792667166"><ele>289.7142857142857</ele><time>2026-03-22T09:01:23.999Z</time></trkpt><trkpt lat="43.408350063866926" lon="11.759820644581458"><ele>290.42857142857144</ele><time>2026-03-22T09:01:25.999Z</time></trkpt><trkpt lat="43.408316055330786" lon="11.759734285079405"><ele>291.1428571428571</ele><time>2026-03-22T09:01:27.999Z</time></trkpt><trkpt lat="43.408276986986706" lon="11.759651586383612"><ele>291.8571428571429</ele><time>2026-03-22T09:01:29.999Z</time></trkpt><trkpt lat="43.40824284227651" lon="11.759567626859448"><ele>292.57142857142856</ele><time>2026-03-22T09:01:31.999Z</time></trkpt><trkpt lat="43.408208625569245" lon="11.759485706933031"><ele>293.2857142857143</ele><time>2026-03-22T09:01:33.999Z</time></trkpt><trkpt lat="43.40817283139039" lon="11.75940126283229"><ele>294.0</ele><time>2026-03-22T09:01:35.999Z</time></trkpt><trkpt lat="43.408136051137454" lon="11.759318361124807"><ele>293.85714285714283</ele><time>2026-03-22T09:01:37.999Z</time></trkpt><trkpt lat="43.40809852203606" lon="11.759235324093819"><ele>293.7142857142857</ele><time>2026-03-22T09:01:39.999Z</time></trkpt><trkpt lat="43.40806558312908" lon="11.759147566018118"><ele>293.57142857142856</ele><time>2026-03-22T09:01:41.999Z</time></trkpt><trkpt lat="43.40802806275195" lon="11.7590609441114"><ele>293.42857142857144</ele><time>2026-03-22T09:01:43.999Z</time></trkpt><trkpt lat="43.40799231350808" lon="11.758975594467898"><ele>293.2857142857143</ele><time>2026-03-22T09:01:45.999Z</time></trkpt><trkpt lat="43.40795540495249" lon="11.758889200511286"><ele>293.1428571428571</ele><time>2026-03-22T09:01:47.999Z</time></trkpt><trkpt lat="43.40791912019248" lon="11.758801254221076"><ele>293.0</ele><time>2026-03-22T09:01:49.999Z</time></trkpt><trkpt lat="43.40788252947146" lon="11.75871298425857"><ele>292.99999999999994</ele><time>2026-03-22T09:01:51.999Z</time></trkpt><trkpt lat="43.407845062399076" lon="11.758625541099393"><ele>293.0</ele><time>2026-03-22T09:01:53.999Z</time></trkpt><trkpt lat="43.407810657291556" lon="11.7585335284259"><ele>293.0</ele><time>2026-03-22T09:01:55.999Z</time></trkpt><trkpt lat="43.40777559491503" lon="11.758442612770189"><ele>293.0</ele><time>2026-03-22T09:01:57.999Z</time></trkpt><trkpt lat="43.407746154879185" lon="11.758347397528336"><ele>293.0</ele><time>2026-03-22T09:01:59.999Z</time></trkpt><trkpt lat="43.407717189142105" lon="11.75825239355582"><ele>292.99999999999994</ele><time>2026-03-22T09:02:01.999Z</time></trkpt><trkpt lat="43.407692997361984" lon="11.75815725034849"><ele>293.0</ele><time>2026-03-22T09:02:03.999Z</time></trkpt><trkpt lat="43.40767239901725" lon="11.758062824739826"><ele>293.85714285714283</ele><time>2026-03-22T09:02:05.998Z</time></trkpt><trkpt lat="43.40765112172846" lon="11.757965023619652"><ele>294.7142857142857</ele><time>2026-03-22T09:02:07.998Z</time></trkpt><trkpt lat="43.40763635732762" lon="11.75786626862783"><ele>295.57142857142856</ele><time>2026-03-22T09:02:09.998Z</time></trkpt><trkpt lat="43.407622731957865" lon="11.757767328642409"><ele>296.42857142857144</ele><time>2026-03-22T09:02:11.998Z</time></trkpt><trkpt lat="43.40760980350827" lon="11.757667885753673"><ele>297.2857142857143</ele><time>2026-03-22T09:02:13.998Z</time></trkpt><trkpt lat="43.40760123911411" lon="11.757568984771021"><ele>298.1428571428571</ele><time>2026-03-22T09:02:15.998Z</time></trkpt><trkpt lat="43.407596558241" lon="11.757473160326116"><ele>299.0</ele><time>2026-03-22T09:02:17.998Z</time></trkpt><trkpt lat="43.407596778252525" lon="11.757376592441904"><ele>299.7142857142857</ele><time>2026-03-22T09:02:19.998Z</time></trkpt><trkpt lat="43.40759773097992" lon="11.757280618020895"><ele>300.42857142857144</ele><time>2026-03-22T09:02:21.998Z</time></trkpt><trkpt lat="43.40760391492717" lon="11.757187562042013"><ele>301.1428571428571</ele><time>2026-03-22T09:02:23.998Z</time></trkpt><trkpt lat="43.40761179361398" lon="11.75709483518095"><ele>301.8571428571429</ele><time>2026-03-22T09:02:25.998Z</time></trkpt><trkpt lat="43.407625795461804" lon="11.756999621087425"><ele>302.5714285714286</ele><time>2026-03-22T09:02:27.998Z</time></trkpt><trkpt lat="43.40763879950963" lon="11.756903664311148"><ele>303.2857142857143</ele><time>2026-03-22T09:02:29.998Z</time></trkpt><trkpt lat="43.40765528349464" lon="11.756812981033985"><ele>304.0</ele><time>2026-03-22T09:02:31.998Z</time></trkpt><trkpt lat="43.407674954208495" lon="11.756720238471097"><ele>305.16666666666663</ele><time>2026-03-22T09:02:33.998Z</time></trkpt><trkpt lat="43.4076913702426" lon="11.756626492214027"><ele>306.3333333333333</ele><time>2026-03-22T09:02:36Z</time></trkpt><trkpt lat="43.407720661192975" lon="11.756531193564056"><ele>307.5</ele><time>2026-03-22T09:02:38Z</time></trkpt><trkpt lat="43.407748231000745" lon="11.75643971064494"><ele>308.6666666666667</ele><time>2026-03-22T09:02:40Z</time></trkpt><trkpt lat="43.40778050744306" lon="11.756343812306186"><ele>309.83333333333337</ele><time>2026-03-22T09:02:42Z</time></trkpt><trkpt lat="43.407815754656674" lon="11.756248941852906"><ele>311.0</ele><time>2026-03-22T09:02:44Z</time></trkpt><trkpt lat="43.40785514667538" lon="11.756152971231836"><ele>311.0</ele><time>2026-03-22T09:02:46Z</time></trkpt><trkpt lat="43.40789957475518" lon="11.756051970173674"><ele>311.0</ele><time>2026-03-22T09:02:48Z</time></trkpt><trkpt lat="43.4079503777466" lon="11.755953404273868"><ele>311.0</ele><time>2026-03-22T09:02:50Z</time></trkpt><trkpt lat="43.408004781721175" lon="11.755854984459603"><ele>311.0</ele><time>2026-03-22T09:02:52Z</time></trkpt><trkpt lat="43.40806443507749" lon="11.75574431445987"><ele>311.0</ele><time>2026-03-22T09:02:54Z</time></trkpt><trkpt lat="43.40812654647623" lon="11.755639457429945"><ele>310.5</ele><time>2026-03-22T09:02:56Z</time></trkpt><trkpt lat="43.408196299241226" lon="11.755523831541488"><ele>310.0</ele><time>2026-03-22T09:02:58Z</time></trkpt><trkpt lat="43.40826891746809" lon="11.75540933892076"><ele>309.5</ele><time>2026-03-22T09:03:00Z</time></trkpt><trkpt lat="43.40834914224198" lon="11.755297692071863"><ele>309.0</ele><time>2026-03-22T09:03:02Z</time></trkpt><trkpt lat="43.40843176491981" lon="11.755170885444532"><ele>309.0</ele><time>2026-03-22T09:03:04Z</time></trkpt><trkpt lat="43.40851006695061" lon="11.75503311560313"><ele>309.0</ele><time>2026-03-22T09:03:06Z</time></trkpt><trkpt lat="43.40854898600601" lon="11.754960858156355"><ele>309.0</ele><time>2026-03-22T09:03:07Z</time></trkpt><trkpt lat="43.40858905106806" lon="11.754885572726618"><ele>309.0</ele><time>2026-03-22T09:03:08Z</time></trkpt><trkpt lat="43.40863148046955" lon="11.754808525799557"><ele>309.0</ele><time>2026-03-22T09:03:09Z</time></trkpt><trkpt lat="43.40867301278386" lon="11.75473015504364"><ele>309.0</ele><time>2026-03-22T09:03:10Z</time></trkpt><trkpt lat="43.40871271348421" lon="11.75464937385467"><ele>309.0</ele><time>2026-03-22T09:03:11Z</time></trkpt><trkpt lat="43.408754178969" lon="11.754565157054827"><ele>309.0</ele><time>2026-03-22T09:03:12Z</time></trkpt><trkpt lat="43.40879702960273" lon="11.754483106873119"><ele>309.0</ele><time>2026-03-22T09:03:13Z</time></trkpt><trkpt lat="43.40883806995503" lon="11.754398477255283"><ele>309.0</ele><time>2026-03-22T09:03:14Z</time></trkpt><trkpt lat="43.40888209791089" lon="11.75431232827058"><ele>309.0</ele><time>2026-03-22T09:03:15Z</time></trkpt><trkpt lat="43.408926035181416" lon="11.754227134372572"><ele>309.0</ele><time>2026-03-22T09:03:16Z</time></trkpt><trkpt lat="43.4089674418302" lon="11.754136972951285"><ele>309.1666666666667</ele><time>2026-03-22T09:03:17Z</time></trkpt><trkpt lat="43.40901193301567" lon="11.754049308141141"><ele>309.3333333333333</ele><time>2026-03-22T09:03:18Z</time></trkpt><trkpt lat="43.40905633751465" lon="11.753959828955663"><ele>309.5</ele><time>2026-03-22T09:03:19Z</time></trkpt><trkpt lat="43.40909570609982" lon="11.753865684976658"><ele>309.66666666666663</ele><time>2026-03-22T09:03:20Z</time></trkpt><trkpt lat="43.409137603686" lon="11.753774414755004"><ele>309.8333333333333</ele><time>2026-03-22T09:03:21Z</time></trkpt><trkpt lat="43.40918165429779" lon="11.753680989405082"><ele>310.0</ele><time>2026-03-22T09:03:22Z</time></trkpt><trkpt lat="43.40923057580977" lon="11.753591741778282"><ele>309.66666666666663</ele><time>2026-03-22T09:03:22.999Z</time></trkpt><trkpt lat="43.409282671798366" lon="11.753502653870042"><ele>309.3333333333333</ele><time>2026-03-22T09:03:23.999Z</time></trkpt><trkpt lat="43.40932938440569" lon="11.753408873478351"><ele>309.0</ele><time>2026-03-22T09:03:24.999Z</time></trkpt><trkpt lat="43.4093748512532" lon="11.75331234490805"><ele>308.6666666666667</ele><time>2026-03-22T09:03:25.999Z</time></trkpt><trkpt lat="43.40941911126412" lon="11.753218735044921"><ele>308.33333333333337</ele><time>2026-03-22T09:03:26.999Z</time></trkpt><trkpt lat="43.40946377134485" lon="11.75312955366823"><ele>308.0</ele><time>2026-03-22T09:03:27.999Z</time></trkpt><trkpt lat="43.4095087755517" lon="11.753038395243612"><ele>308.0</ele><time>2026-03-22T09:03:28.999Z</time></trkpt><trkpt lat="43.40955256075683" lon="11.752950084779856"><ele>308.0</ele><time>2026-03-22T09:03:29.999Z</time></trkpt><trkpt lat="43.40959716081607" lon="11.752863455568587"><ele>308.0</ele><time>2026-03-22T09:03:30.999Z</time></trkpt><trkpt lat="43.40964136472662" lon="11.752775868032563"><ele>308.0</ele><time>2026-03-22T09:03:31.999Z</time></trkpt><trkpt lat="43.40968307243105" lon="11.752688496533501"><ele>308.0</ele><time>2026-03-22T09:03:32.999Z</time></trkpt><trkpt lat="43.409724394768695" lon="11.752605017680967"><ele>308.0</ele><time>2026-03-22T09:03:33.999Z</time></trkpt><trkpt lat="43.40976525217316" lon="11.752519674424601"><ele>308.5</ele><time>2026-03-22T09:03:34.999Z</time></trkpt><trkpt lat="43.409804658227856" lon="11.752429959070826"><ele>309.0</ele><time>2026-03-22T09:03:35.999Z</time></trkpt><trkpt lat="43.40983959566169" lon="11.752337905675194"><ele>309.5</ele><time>2026-03-22T09:03:36.999Z</time></trkpt><trkpt lat="43.409869294850125" lon="11.75224252397889"><ele>310.0</ele><time>2026-03-22T09:03:37.999Z</time></trkpt><trkpt lat="43.409898014502055" lon="11.752145180933708"><ele>310.5</ele><time>2026-03-22T09:03:38.999Z</time></trkpt><trkpt lat="43.40991847722533" lon="11.752044710825853"><ele>311.0</ele><time>2026-03-22T09:03:39.999Z</time></trkpt><trkpt lat="43.409938591018545" lon="11.751942342642664"><ele>311.1666666666667</ele><time>2026-03-22T09:03:40.999Z</time></trkpt><trkpt lat="43.40995086045627" lon="11.751837345444045"><ele>311.33333333333337</ele><time>2026-03-22T09:03:41.999Z</time></trkpt><trkpt lat="43.40996541991135" lon="11.751731103645115"><ele>311.5</ele><time>2026-03-22T09:03:42.999Z</time></trkpt><trkpt lat="43.40997277420843" lon="11.751622073078872"><ele>311.6666666666667</ele><time>2026-03-22T09:03:43.999Z</time></trkpt><trkpt lat="43.409976657338206" lon="11.751510515963144"><ele>311.8333333333333</ele><time>2026-03-22T09:03:44.999Z</time></trkpt><trkpt lat="43.4099729600657" lon="11.751397142576277"><ele>312.0</ele><time>2026-03-22T09:03:45.999Z</time></trkpt><trkpt lat="43.409965980336914" lon="11.751282810619426"><ele>312.0</ele><time>2026-03-22T09:03:46.999Z</time></trkpt><trkpt lat="43.40995590202211" lon="11.751167533384642"><ele>312.0</ele><time>2026-03-22T09:03:47.999Z</time></trkpt><trkpt lat="43.40994249375828" lon="11.751052950567836"><ele>312.0</ele><time>2026-03-22T09:03:48.999Z</time></trkpt><trkpt lat="43.40992516503595" lon="11.75094070665417"><ele>312.0</ele><time>2026-03-22T09:03:49.999Z</time></trkpt><trkpt lat="43.40990693199376" lon="11.750829244766939"><ele>312.0</ele><time>2026-03-22T09:03:50.999Z</time></trkpt><trkpt lat="43.40988734400116" lon="11.750722336482323"><ele>312.0</ele><time>2026-03-22T09:03:51.999Z</time></trkpt><trkpt lat="43.40987357771513" lon="11.750619576788148"><ele>311.6666666666667</ele><time>2026-03-22T09:03:52.999Z</time></trkpt><trkpt lat="43.40985726002257" lon="11.750516305551194"><ele>311.3333333333333</ele><time>2026-03-22T09:03:53.999Z</time></trkpt><trkpt lat="43.40984526940082" lon="11.750419263170516"><ele>311.0</ele><time>2026-03-22T09:03:54.999Z</time></trkpt><trkpt lat="43.40983520478686" lon="11.750326489002546"><ele>310.66666666666663</ele><time>2026-03-22T09:03:55.999Z</time></trkpt><trkpt lat="43.409820047585775" lon="11.750236017600573"><ele>310.3333333333333</ele><time>2026-03-22T09:03:56.999Z</time></trkpt><trkpt lat="43.409808565366184" lon="11.750150658947309"><ele>310.0</ele><time>2026-03-22T09:03:57.999Z</time></trkpt><trkpt lat="43.40978382872429" lon="11.749986867544699"><ele>310.0</ele><time>2026-03-22T09:03:59.999Z</time></trkpt><trkpt lat="43.409761384449425" lon="11.749832091418348"><ele>310.0</ele><time>2026-03-22T09:04:01.999Z</time></trkpt><trkpt lat="43.4097405936186" lon="11.749690535371961"><ele>310.0</ele><time>2026-03-22T09:04:03.999Z</time></trkpt><trkpt lat="43.409719134178765" lon="11.749561896703824"><ele>310.0</ele><time>2026-03-22T09:04:05.999Z</time></trkpt><trkpt lat="43.40970045129939" lon="11.749439920211113"><ele>310.0</ele><time>2026-03-22T09:04:07.999Z</time></trkpt><trkpt lat="43.409681561731" lon="11.749329238427233"><ele>310.16666666666663</ele><time>2026-03-22T09:04:09.999Z</time></trkpt><trkpt lat="43.409667623732695" lon="11.749220126966835"><ele>310.3333333333333</ele><time>2026-03-22T09:04:11.999Z</time></trkpt><trkpt lat="43.409647995429864" lon="11.749111450526168"><ele>310.5</ele><time>2026-03-22T09:04:13.998Z</time></trkpt><trkpt lat="43.40963208154378" lon="11.749010971472961"><ele>310.6666666666667</ele><time>2026-03-22T09:04:15.998Z</time></trkpt><trkpt lat="43.409614411147686" lon="11.748914327154923"><ele>310.83333333333337</ele><time>2026-03-22T09:04:17.998Z</time></trkpt><trkpt lat="43.40960289966431" lon="11.74881332305976"><ele>311.0</ele><time>2026-03-22T09:04:19.998Z</time></trkpt><trkpt lat="43.40958997433441" lon="11.748711050484474"><ele>311.0</ele><time>2026-03-22T09:04:21.998Z</time></trkpt><trkpt lat="43.40958623202499" lon="11.748605276819237"><ele>311.0</ele><time>2026-03-22T09:04:23.998Z</time></trkpt><trkpt lat="43.4095769013644" lon="11.748498420685442"><ele>311.0</ele><time>2026-03-22T09:04:25.998Z</time></trkpt><trkpt lat="43.409573541300986" lon="11.748389915101207"><ele>311.0</ele><time>2026-03-22T09:04:27.998Z</time></trkpt><trkpt lat="43.409577894774166" lon="11.74828123234186"><ele>311.0</ele><time>2026-03-22T09:04:29.998Z</time></trkpt><trkpt lat="43.40958078839823" lon="11.748169060233057"><ele>311.0</ele><time>2026-03-22T09:04:31.998Z</time></trkpt><trkpt lat="43.40958862222291" lon="11.748056962106777"><ele>311.6666666666667</ele><time>2026-03-22T09:04:33.998Z</time></trkpt><trkpt lat="43.409599612826995" lon="11.747942932741509"><ele>312.33333333333337</ele><time>2026-03-22T09:04:35.998Z</time></trkpt><trkpt lat="43.40961142773059" lon="11.747825616672495"><ele>313.0</ele><time>2026-03-22T09:04:37.998Z</time></trkpt><trkpt lat="43.40962489226901" lon="11.747711294239787"><ele>313.6666666666667</ele><time>2026-03-22T09:04:39.998Z</time></trkpt><trkpt lat="43.409642057216885" lon="11.747593354428027"><ele>314.3333333333333</ele><time>2026-03-22T09:04:42Z</time></trkpt><trkpt lat="43.409660688202884" lon="11.74747827115764"><ele>315.0</ele><time>2026-03-22T09:04:44Z</time></trkpt><trkpt lat="43.40967341343103" lon="11.747363844037492"><ele>316.3333333333333</ele><time>2026-03-22T09:04:46Z</time></trkpt><trkpt lat="43.40968955126785" lon="11.747247468192604"><ele>317.6666666666667</ele><time>2026-03-22T09:04:48Z</time></trkpt><trkpt lat="43.40971102542322" lon="11.747132930281737"><ele>319.0</ele><time>2026-03-22T09:04:50Z</time></trkpt><trkpt lat="43.409719837135135" lon="11.747022375316398"><ele>320.33333333333337</ele><time>2026-03-22T09:04:52Z</time></trkpt><trkpt lat="43.409738726182084" lon="11.74690209503611"><ele>321.6666666666667</ele><time>2026-03-22T09:04:54Z</time></trkpt><trkpt lat="43.40975728024214" lon="11.746785952519973"><ele>323.0</ele><time>2026-03-22T09:04:56Z</time></trkpt><trkpt lat="43.409774840384266" lon="11.746664663271508"><ele>323.6666666666667</ele><time>2026-03-22T09:04:58Z</time></trkpt><trkpt lat="43.40979325554516" lon="11.746550073545354"><ele>324.33333333333337</ele><time>2026-03-22T09:05:00Z</time></trkpt><trkpt lat="43.40980903741375" lon="11.746431284985873"><ele>325.0</ele><time>2026-03-22T09:05:02Z</time></trkpt><trkpt lat="43.4098291956985" lon="11.746316514304464"><ele>325.6666666666667</ele><time>2026-03-22T09:05:04Z</time></trkpt><trkpt lat="43.40984719717553" lon="11.746200033002063"><ele>326.3333333333333</ele><time>2026-03-22T09:05:06Z</time></trkpt><trkpt lat="43.409864722949045" lon="11.74608639241174"><ele>327.0</ele><time>2026-03-22T09:05:08Z</time></trkpt><trkpt lat="43.40988236194971" lon="11.745973228426221"><ele>327.3333333333333</ele><time>2026-03-22T09:05:10Z</time></trkpt><trkpt lat="43.409895857256295" lon="11.745857400218842"><ele>327.6666666666667</ele><time>2026-03-22T09:05:12Z</time></trkpt><trkpt lat="43.409913984302236" lon="11.745748651568956"><ele>328.0</ele><time>2026-03-22T09:05:14Z</time></trkpt><trkpt lat="43.40993049560345" lon="11.745640172369631"><ele>328.33333333333337</ele><time>2026-03-22T09:05:16Z</time></trkpt><trkpt lat="43.40994885652758" lon="11.745526769181343"><ele>328.6666666666667</ele><time>2026-03-22T09:05:18Z</time></trkpt><trkpt lat="43.409964649490846" lon="11.745413355348008"><ele>329.0</ele><time>2026-03-22T09:05:20Z</time></trkpt><trkpt lat="43.40998078595882" lon="11.745300758006564"><ele>329.5</ele><time>2026-03-22T09:05:22Z</time></trkpt><trkpt lat="43.409997443831976" lon="11.745187113883393"><ele>330.0</ele><time>2026-03-22T09:05:24Z</time></trkpt><trkpt lat="43.41001272688248" lon="11.745076880414306"><ele>330.5</ele><time>2026-03-22T09:05:25.999Z</time></trkpt><trkpt lat="43.410029993590854" lon="11.744970612544586"><ele>331.0</ele><time>2026-03-22T09:05:27.999Z</time></trkpt><trkpt lat="43.41004856913039" lon="11.744860981194513"><ele>331.5</ele><time>2026-03-22T09:05:29.999Z</time></trkpt><trkpt lat="43.41006485016145" lon="11.744754271555905"><ele>332.0</ele><time>2026-03-22T09:05:31.999Z</time></trkpt><trkpt lat="43.410080401477195" lon="11.744645553050654"><ele>332.0</ele><time>2026-03-22T09:05:33.999Z</time></trkpt><trkpt lat="43.41009910556415" lon="11.744534776314103"><ele>332.0</ele><time>2026-03-22T09:05:35.999Z</time></trkpt><trkpt lat="43.41011572471363" lon="11.744417708699679"><ele>332.0</ele><time>2026-03-22T09:05:37.999Z</time></trkpt><trkpt lat="43.410131847339024" lon="11.744305924782639"><ele>332.0</ele><time>2026-03-22T09:05:39.999Z</time></trkpt><trkpt lat="43.41015073749884" lon="11.744190794710192"><ele>332.0</ele><time>2026-03-22T09:05:41.999Z</time></trkpt><trkpt lat="43.41017039491176" lon="11.744074714697364"><ele>332.0</ele><time>2026-03-22T09:05:43.999Z</time></trkpt><trkpt lat="43.41019190935071" lon="11.743953323300714"><ele>331.6</ele><time>2026-03-22T09:05:45.999Z</time></trkpt><trkpt lat="43.41021892602018" lon="11.743832419220924"><ele>331.20000000000005</ele><time>2026-03-22T09:05:47.999Z</time></trkpt><trkpt lat="43.41023921090348" lon="11.743723917073991"><ele>330.8</ele><time>2026-03-22T09:05:49.999Z</time></trkpt><trkpt lat="43.41027869215986" lon="11.74360068318465"><ele>330.4</ele><time>2026-03-22T09:05:51.999Z</time></trkpt><trkpt lat="43.41031682203353" lon="11.74347775919229"><ele>330.0</ele><time>2026-03-22T09:05:53.999Z</time></trkpt><trkpt lat="43.4103602047751" lon="11.743352263339677"><ele>330.0</ele><time>2026-03-22T09:05:55.999Z</time></trkpt><trkpt lat="43.410409243293905" lon="11.743222882253754"><ele>330.0</ele><time>2026-03-22T09:05:57.999Z</time></trkpt><trkpt lat="43.41046147839322" lon="11.743090409517256"><ele>330.0</ele><time>2026-03-22T09:05:59.999Z</time></trkpt><trkpt lat="43.4105294900473" lon="11.742944854915622"><ele>330.0</ele><time>2026-03-22T09:06:01.999Z</time></trkpt><trkpt lat="43.41059465368804" lon="11.742818480242997"><ele>332.75</ele><time>2026-03-22T09:06:03.999Z</time></trkpt><trkpt lat="43.410660256963794" lon="11.742688489915968"><ele>335.5</ele><time>2026-03-22T09:06:05.999Z</time></trkpt><trkpt lat="43.410729637130814" lon="11.742561067402068"><ele>338.25</ele><time>2026-03-22T09:06:07.999Z</time></trkpt><trkpt lat="43.41079774100108" lon="11.742435256911724"><ele>341.0</ele><time>2026-03-22T09:06:09.999Z</time></trkpt><trkpt lat="43.41086772418734" lon="11.742310515325235"><ele>341.0</ele><time>2026-03-22T09:06:11.999Z</time></trkpt><trkpt lat="43.41093785392067" lon="11.74218051678852"><ele>341.0</ele><time>2026-03-22T09:06:13.999Z</time></trkpt><trkpt lat="43.41100957769968" lon="11.742050254229095"><ele>341.0</ele><time>2026-03-22T09:06:15.998Z</time></trkpt><trkpt lat="43.41108404536656" lon="11.741915426717059"><ele>341.0</ele><time>2026-03-22T09:06:17.998Z</time></trkpt><trkpt lat="43.41112217377086" lon="11.741844666921175"><ele>341.0</ele><time>2026-03-22T09:06:18.998Z</time></trkpt><trkpt lat="43.4111602169707" lon="11.741773617743679"><ele>340.7142857142857</ele><time>2026-03-22T09:06:19.998Z</time></trkpt><trkpt lat="43.41120158797311" lon="11.741700553506911"><ele>340.42857142857144</ele><time>2026-03-22T09:06:20.998Z</time></trkpt><trkpt lat="43.41124096162641" lon="11.741627746507131"><ele>340.1428571428571</ele><time>2026-03-22T09:06:21.998Z</time></trkpt><trkpt lat="43.41128386817617" lon="11.741553114170861"><ele>339.8571428571429</ele><time>2026-03-22T09:06:22.998Z</time></trkpt><trkpt lat="43.4113238316546" lon="11.741472588076503"><ele>339.5714285714286</ele><time>2026-03-22T09:06:23.998Z</time></trkpt><trkpt lat="43.4113665237618" lon="11.741393249279017"><ele>339.2857142857143</ele><time>2026-03-22T09:06:24.998Z</time></trkpt><trkpt lat="43.41141277102371" lon="11.74131516819086"><ele>339.0</ele><time>2026-03-22T09:06:25.998Z</time></trkpt><trkpt lat="43.41146247934796" lon="11.741233853710654"><ele>338.5</ele><time>2026-03-22T09:06:26.998Z</time></trkpt><trkpt lat="43.41150932171561" lon="11.741154881836376"><ele>338.0</ele><time>2026-03-22T09:06:27.998Z</time></trkpt><trkpt lat="43.41155515334801" lon="11.741068130010614"><ele>337.5</ele><time>2026-03-22T09:06:28.998Z</time></trkpt><trkpt lat="43.41160495994271" lon="11.740974876127204"><ele>337.0</ele><time>2026-03-22T09:06:29.998Z</time></trkpt><trkpt lat="43.41165391889591" lon="11.740881996504328"><ele>336.5</ele><time>2026-03-22T09:06:30.998Z</time></trkpt><trkpt lat="43.411704902473595" lon="11.740795236535428"><ele>336.0</ele><time>2026-03-22T09:06:31.998Z</time></trkpt><trkpt lat="43.4117531657781" lon="11.74070495346071"><ele>336.0</ele><time>2026-03-22T09:06:32.998Z</time></trkpt><trkpt lat="43.41180453611186" lon="11.740616526256506"><ele>336.0</ele><time>2026-03-22T09:06:33.998Z</time></trkpt><trkpt lat="43.4118563951189" lon="11.740519713893793"><ele>336.0</ele><time>2026-03-22T09:06:34.998Z</time></trkpt><trkpt lat="43.41190952174795" lon="11.740427737922863"><ele>336.0</ele><time>2026-03-22T09:06:35.998Z</time></trkpt><trkpt lat="43.41196274423857" lon="11.740336615326074"><ele>336.0</ele><time>2026-03-22T09:06:36.998Z</time></trkpt><trkpt lat="43.41201768063875" lon="11.740242782015933"><ele>336.0</ele><time>2026-03-22T09:06:37.998Z</time></trkpt><trkpt lat="43.41207080635793" lon="11.740148531640711"><ele>336.20000000000005</ele><time>2026-03-22T09:06:38.998Z</time></trkpt><trkpt lat="43.41212469351528" lon="11.74005152432907"><ele>336.40000000000003</ele><time>2026-03-22T09:06:39.998Z</time></trkpt><trkpt lat="43.412180841089906" lon="11.739958553322243"><ele>336.6</ele><time>2026-03-22T09:06:40.998Z</time></trkpt><trkpt lat="43.41223383499991" lon="11.7398523564008"><ele>336.8</ele><time>2026-03-22T09:06:41.998Z</time></trkpt><trkpt lat="43.412290603503614" lon="11.739755220315526"><ele>337.0</ele><time>2026-03-22T09:06:42.998Z</time></trkpt><trkpt lat="43.41234576121866" lon="11.739654685155488"><ele>337.0</ele><time>2026-03-22T09:06:43.998Z</time></trkpt><trkpt lat="43.41240217001909" lon="11.739554199083674"><ele>337.0</ele><time>2026-03-22T09:06:44.998Z</time></trkpt><trkpt lat="43.412460793023214" lon="11.73945290700431"><ele>337.0</ele><time>2026-03-22T09:06:45.998Z</time></trkpt><trkpt lat="43.41252528623411" lon="11.739360750485927"><ele>337.0</ele><time>2026-03-22T09:06:46.998Z</time></trkpt><trkpt lat="43.41259394217294" lon="11.739268450447202"><ele>337.0</ele><time>2026-03-22T09:06:48Z</time></trkpt><trkpt lat="43.41265902701807" lon="11.739171401683087"><ele>336.0</ele><time>2026-03-22T09:06:49Z</time></trkpt><trkpt lat="43.41272966624842" lon="11.739075866922017"><ele>335.0</ele><time>2026-03-22T09:06:50Z</time></trkpt><trkpt lat="43.41280572831057" lon="11.738986105703693"><ele>334.0</ele><time>2026-03-22T09:06:51Z</time></trkpt><trkpt lat="43.412880149015194" lon="11.73888650750112"><ele>333.0</ele><time>2026-03-22T09:06:52Z</time></trkpt><trkpt lat="43.41295793779939" lon="11.738800984876997"><ele>332.0</ele><time>2026-03-22T09:06:53Z</time></trkpt><trkpt lat="43.41303193300156" lon="11.738696875780796"><ele>332.0</ele><time>2026-03-22T09:06:54Z</time></trkpt><trkpt lat="43.41311024448632" lon="11.738606158357316"><ele>332.0</ele><time>2026-03-22T09:06:55Z</time></trkpt><trkpt lat="43.41318634660099" lon="11.738512154458373"><ele>332.0</ele><time>2026-03-22T09:06:56Z</time></trkpt><trkpt lat="43.413262074610145" lon="11.738412119100607"><ele>332.0</ele><time>2026-03-22T09:06:57Z</time></trkpt><trkpt lat="43.41334014741105" lon="11.738307390397836"><ele>332.0</ele><time>2026-03-22T09:06:58Z</time></trkpt><trkpt lat="43.41342171399136" lon="11.738212964982152"><ele>330.40000000000003</ele><time>2026-03-22T09:06:59Z</time></trkpt><trkpt lat="43.413499641323774" lon="11.7381235640592"><ele>328.8</ele><time>2026-03-22T09:07:00Z</time></trkpt><trkpt lat="43.41357700352911" lon="11.73802610704666"><ele>327.2</ele><time>2026-03-22T09:07:01Z</time></trkpt><trkpt lat="43.413660786078346" lon="11.737917787030103"><ele>325.6</ele><time>2026-03-22T09:07:02Z</time></trkpt><trkpt lat="43.413739660151535" lon="11.737820512056313"><ele>324.0</ele><time>2026-03-22T09:07:03Z</time></trkpt><trkpt lat="43.41381860231557" lon="11.737725541331326"><ele>324.2</ele><time>2026-03-22T09:07:04Z</time></trkpt><trkpt lat="43.413898255920216" lon="11.737631817276712"><ele>324.4</ele><time>2026-03-22T09:07:05Z</time></trkpt><trkpt lat="43.41397542927833" lon="11.737534305304694"><ele>324.6</ele><time>2026-03-22T09:07:06Z</time></trkpt><trkpt lat="43.41405868765647" lon="11.737441378280764"><ele>324.8</ele><time>2026-03-22T09:07:07Z</time></trkpt><trkpt lat="43.4141422210386" lon="11.737348678011871"><ele>325.0</ele><time>2026-03-22T09:07:08Z</time></trkpt><trkpt lat="43.4142299964123" lon="11.737265442495302"><ele>325.0</ele><time>2026-03-22T09:07:09Z</time></trkpt><trkpt lat="43.41431747879441" lon="11.737185632054626"><ele>325.0</ele><time>2026-03-22T09:07:10Z</time></trkpt><trkpt lat="43.41441324284992" lon="11.737110340152451"><ele>325.0</ele><time>2026-03-22T09:07:11Z</time></trkpt><trkpt lat="43.414503031207296" lon="11.73703163219706"><ele>325.0</ele><time>2026-03-22T09:07:12Z</time></trkpt><trkpt lat="43.41459239100417" lon="11.736947833481633"><ele>325.0</ele><time>2026-03-22T09:07:13Z</time></trkpt><trkpt lat="43.414686219370665" lon="11.736864019947818"><ele>324.4</ele><time>2026-03-22T09:07:14Z</time></trkpt><trkpt lat="43.414777622817674" lon="11.736785311519332"><ele>323.8</ele><time>2026-03-22T09:07:15Z</time></trkpt><trkpt lat="43.414867037197034" lon="11.736705680666837"><ele>323.20000000000005</ele><time>2026-03-22T09:07:16Z</time></trkpt><trkpt lat="43.41495605474205" lon="11.736621385152871"><ele>322.6</ele><time>2026-03-22T09:07:17Z</time></trkpt><trkpt lat="43.41504579398878" lon="11.736543871687857"><ele>322.0</ele><time>2026-03-22T09:07:18Z</time></trkpt><trkpt lat="43.41513670342064" lon="11.736463325532974"><ele>322.0</ele><time>2026-03-22T09:07:19Z</time></trkpt><trkpt lat="43.41522475502071" lon="11.736385939030532"><ele>322.0</ele><time>2026-03-22T09:07:20Z</time></trkpt><trkpt lat="43.41531049131669" lon="11.736306398006061"><ele>322.0</ele><time>2026-03-22T09:07:21Z</time></trkpt><trkpt lat="43.41539941045853" lon="11.736230749376588"><ele>322.0</ele><time>2026-03-22T09:07:22Z</time></trkpt><trkpt lat="43.41548669443221" lon="11.73615418469045"><ele>322.0</ele><time>2026-03-22T09:07:23Z</time></trkpt><trkpt lat="43.415569116611564" lon="11.736081384345512"><ele>321.8333333333333</ele><time>2026-03-22T09:07:24Z</time></trkpt><trkpt lat="43.41564534071325" lon="11.736012874744643"><ele>321.66666666666663</ele><time>2026-03-22T09:07:25Z</time></trkpt><trkpt lat="43.41572376262998" lon="11.735944558605205"><ele>321.5</ele><time>2026-03-22T09:07:26Z</time></trkpt><trkpt lat="43.41579449248165" lon="11.735883382990774"><ele>321.3333333333333</ele><time>2026-03-22T09:07:27Z</time></trkpt><trkpt lat="43.415860696295354" lon="11.735825954066959"><ele>321.1666666666667</ele><time>2026-03-22T09:07:27.999Z</time></trkpt><trkpt lat="43.415915262460565" lon="11.735761313444671"><ele>321.0</ele><time>2026-03-22T09:07:28.999Z</time></trkpt><trkpt lat="43.41596643511932" lon="11.73569586525536"><ele>321.0</ele><time>2026-03-22T09:07:29.999Z</time></trkpt><trkpt lat="43.41600827741272" lon="11.73562082779771"><ele>321.0</ele><time>2026-03-22T09:07:30.999Z</time></trkpt><trkpt lat="43.4160435709889" lon="11.735547850029334"><ele>321.0</ele><time>2026-03-22T09:07:31.999Z</time></trkpt><trkpt lat="43.41610022355352" lon="11.735403191465956"><ele>321.0</ele><time>2026-03-22T09:07:33.999Z</time></trkpt><trkpt lat="43.416132146333126" lon="11.735261284857753"><ele>321.0</ele><time>2026-03-22T09:07:35.999Z</time></trkpt><trkpt lat="43.41613954580219" lon="11.735108377060705"><ele>321.6</ele><time>2026-03-22T09:07:37.999Z</time></trkpt><trkpt lat="43.41613945400673" lon="11.734970896754398"><ele>322.20000000000005</ele><time>2026-03-22T09:07:39.999Z</time></trkpt><trkpt lat="43.41613604533102" lon="11.734832660234227"><ele>322.79999999999995</ele><time>2026-03-22T09:07:41.999Z</time></trkpt><trkpt lat="43.416132222031585" lon="11.734701763170255"><ele>323.4</ele><time>2026-03-22T09:07:43.999Z</time></trkpt><trkpt lat="43.4161358095332" lon="11.734573240315868"><ele>324.0</ele><time>2026-03-22T09:07:45.999Z</time></trkpt><trkpt lat="43.416147313441144" lon="11.73444036865456"><ele>325.2</ele><time>2026-03-22T09:07:47.999Z</time></trkpt><trkpt lat="43.41617648396151" lon="11.734319881781488"><ele>326.4</ele><time>2026-03-22T09:07:49.999Z</time></trkpt><trkpt lat="43.416219078282346" lon="11.734206002978716"><ele>327.6</ele><time>2026-03-22T09:07:51.999Z</time></trkpt><trkpt lat="43.41627936008298" lon="11.734106650767918"><ele>328.8</ele><time>2026-03-22T09:07:53.999Z</time></trkpt><trkpt lat="43.4163529946974" lon="11.734027147913018"><ele>330.0</ele><time>2026-03-22T09:07:55.999Z</time></trkpt><trkpt lat="43.41643339558263" lon="11.733964471089934"><ele>331.0</ele><time>2026-03-22T09:07:57.999Z</time></trkpt><trkpt lat="43.416518149926254" lon="11.733905913356802"><ele>332.0</ele><time>2026-03-22T09:07:59.999Z</time></trkpt><trkpt lat="43.416597348958206" lon="11.733858843063398"><ele>333.0</ele><time>2026-03-22T09:08:01.999Z</time></trkpt><trkpt lat="43.41667136143821" lon="11.733814472511266"><ele>334.0</ele><time>2026-03-22T09:08:03.999Z</time></trkpt><trkpt lat="43.416744384825925" lon="11.733772745295648"><ele>335.0</ele><time>2026-03-22T09:08:05.999Z</time></trkpt><trkpt lat="43.41681218467824" lon="11.733726939096048"><ele>336.0</ele><time>2026-03-22T09:08:07.999Z</time></trkpt><trkpt lat="43.41688431543928" lon="11.733676236015615"><ele>336.0</ele><time>2026-03-22T09:08:09.999Z</time></trkpt><trkpt lat="43.41695314957022" lon="11.733642061263188"><ele>336.0</ele><time>2026-03-22T09:08:11.999Z</time></trkpt><trkpt lat="43.417019627994485" lon="11.733599965058659"><ele>336.0</ele><time>2026-03-22T09:08:13.999Z</time></trkpt><trkpt lat="43.41708442481805" lon="11.733558828761073"><ele>336.0</ele><time>2026-03-22T09:08:15.998Z</time></trkpt><trkpt lat="43.41717103749636" lon="11.733505784741078"><ele>336.0</ele><time>2026-03-22T09:08:18.998Z</time></trkpt><trkpt lat="43.4172350081182" lon="11.733469470531187"><ele>336.0</ele><time>2026-03-22T09:08:21.998Z</time></trkpt><trkpt lat="43.41732663724068" lon="11.733419066349924"><ele>336.8333333333333</ele><time>2026-03-22T09:08:24.998Z</time></trkpt><trkpt lat="43.41740963659839" lon="11.733377534267127"><ele>337.6666666666667</ele><time>2026-03-22T09:08:27.998Z</time></trkpt><trkpt lat="43.417489147650606" lon="11.733329641921513"><ele>338.5</ele><time>2026-03-22T09:08:30.998Z</time></trkpt><trkpt lat="43.417568542102" lon="11.733282491519695"><ele>339.33333333333337</ele><time>2026-03-22T09:08:33.998Z</time></trkpt><trkpt lat="43.41763790916534" lon="11.733230842124264"><ele>340.1666666666667</ele><time>2026-03-22T09:08:36.998Z</time></trkpt><trkpt lat="43.41769691131054" lon="11.733181577116474"><ele>341.0</ele><time>2026-03-22T09:08:38.998Z</time></trkpt><trkpt lat="43.41776460397637" lon="11.73311969314355"><ele>341.0</ele><time>2026-03-22T09:08:41.998Z</time></trkpt><trkpt lat="43.417823332764655" lon="11.733044710838113"><ele>341.0</ele><time>2026-03-22T09:08:44.998Z</time></trkpt><trkpt lat="43.41786883065017" lon="11.732954328521066"><ele>341.0</ele><time>2026-03-22T09:08:47.998Z</time></trkpt><trkpt lat="43.41791283406606" lon="11.73286648380384"><ele>341.0</ele><time>2026-03-22T09:08:49.998Z</time></trkpt><trkpt lat="43.41793941835246" lon="11.732760385752307"><ele>341.0</ele><time>2026-03-22T09:08:52.998Z</time></trkpt><trkpt lat="43.417973492766826" lon="11.732656300946486"><ele>341.0</ele><time>2026-03-22T09:08:56Z</time></trkpt><trkpt lat="43.41798267630714" lon="11.732563298697436"><ele>341.2857142857143</ele><time>2026-03-22T09:08:59Z</time></trkpt><trkpt lat="43.41798807921451" lon="11.732467249104152"><ele>341.57142857142856</ele><time>2026-03-22T09:09:02Z</time></trkpt><trkpt lat="43.41798464086823" lon="11.732376705905244"><ele>341.8571428571429</ele><time>2026-03-22T09:09:05Z</time></trkpt><trkpt lat="43.4179731488373" lon="11.73228048494897"><ele>342.1428571428571</ele><time>2026-03-22T09:09:08Z</time></trkpt><trkpt lat="43.4179516594336" lon="11.732188585964701"><ele>342.42857142857144</ele><time>2026-03-22T09:09:11Z</time></trkpt><trkpt lat="43.41792473630587" lon="11.732099580612816"><ele>342.7142857142857</ele><time>2026-03-22T09:09:14Z</time></trkpt><trkpt lat="43.41790335373036" lon="11.732010626506112"><ele>343.0</ele><time>2026-03-22T09:09:17Z</time></trkpt><trkpt lat="43.41787436279425" lon="11.731921541594213"><ele>344.3333333333333</ele><time>2026-03-22T09:09:21Z</time></trkpt><trkpt lat="43.41783781290021" lon="11.731798984568076"><ele>345.66666666666663</ele><time>2026-03-22T09:09:25Z</time></trkpt><trkpt lat="43.41780995978213" lon="11.731705728114358"><ele>347.0</ele><time>2026-03-22T09:09:29Z</time></trkpt><trkpt lat="43.41778360201281" lon="11.731622437388864"><ele>348.3333333333333</ele><time>2026-03-22T09:09:31.999Z</time></trkpt><trkpt lat="43.41775258546411" lon="11.731528851669095"><ele>349.6666666666667</ele><time>2026-03-22T09:09:34.999Z</time></trkpt><trkpt lat="43.41773149153835" lon="11.731426752535484"><ele>351.0</ele><time>2026-03-22T09:09:38.999Z</time></trkpt><trkpt lat="43.417722619775375" lon="11.731317249381608"><ele>351.00000000000006</ele><time>2026-03-22T09:09:41.999Z</time></trkpt><trkpt lat="43.41771336750654" lon="11.73122972596936"><ele>351.0</ele><time>2026-03-22T09:09:44.999Z</time></trkpt><trkpt lat="43.417709458594054" lon="11.731130037009272"><ele>351.0</ele><time>2026-03-22T09:09:48.999Z</time></trkpt><trkpt lat="43.417712731931466" lon="11.731037643860446"><ele>351.0</ele><time>2026-03-22T09:09:51.999Z</time></trkpt><trkpt lat="43.41772239354964" lon="11.73093806500654"><ele>351.0</ele><time>2026-03-22T09:09:54.999Z</time></trkpt><trkpt lat="43.417735455816285" lon="11.730847715992637"><ele>351.00000000000006</ele><time>2026-03-22T09:09:57.999Z</time></trkpt><trkpt lat="43.417745214049745" lon="11.730754607185073"><ele>351.0</ele><time>2026-03-22T09:10:00.999Z</time></trkpt><trkpt lat="43.41776305900491" lon="11.730668064636324"><ele>351.7142857142857</ele><time>2026-03-22T09:10:03.999Z</time></trkpt><trkpt lat="43.41779394670952" lon="11.73056279049689"><ele>352.42857142857144</ele><time>2026-03-22T09:10:07.999Z</time></trkpt><trkpt lat="43.417820024603294" lon="11.730482931561054"><ele>353.1428571428571</ele><time>2026-03-22T09:10:10.999Z</time></trkpt><trkpt lat="43.417844662904" lon="11.730400484676704"><ele>353.8571428571429</ele><time>2026-03-22T09:10:13.999Z</time></trkpt><trkpt lat="43.41788058594631" lon="11.7303259087913"><ele>354.57142857142856</ele><time>2026-03-22T09:10:16.999Z</time></trkpt><trkpt lat="43.41791670483248" lon="11.730250162569154"><ele>355.2857142857143</ele><time>2026-03-22T09:10:19.998Z</time></trkpt><trkpt lat="43.417961360078614" lon="11.730179007320329"><ele>356.0</ele><time>2026-03-22T09:10:22.998Z</time></trkpt><trkpt lat="43.4180081312768" lon="11.730107206467723"><ele>358.71428571428567</ele><time>2026-03-22T09:10:25.998Z</time></trkpt><trkpt lat="43.41806043975863" lon="11.730043615475488"><ele>361.42857142857144</ele><time>2026-03-22T09:10:28.998Z</time></trkpt><trkpt lat="43.418107647966835" lon="11.72997915980249"><ele>364.1428571428571</ele><time>2026-03-22T09:10:31.998Z</time></trkpt><trkpt lat="43.41815845108715" lon="11.729922088830211"><ele>366.85714285714283</ele><time>2026-03-22T09:10:34.998Z</time></trkpt><trkpt lat="43.41820995756275" lon="11.72986097593596"><ele>369.57142857142856</ele><time>2026-03-22T09:10:37.998Z</time></trkpt><trkpt lat="43.418264185203206" lon="11.729804440242052"><ele>372.2857142857143</ele><time>2026-03-22T09:10:40.998Z</time></trkpt><trkpt lat="43.41831602219718" lon="11.729742611799406"><ele>375.0</ele><time>2026-03-22T09:10:43.998Z</time></trkpt><trkpt lat="43.418369476297606" lon="11.72967897433215"><ele>375.0</ele><time>2026-03-22T09:10:46.998Z</time></trkpt><trkpt lat="43.41842174893049" lon="11.729609323083572"><ele>375.0</ele><time>2026-03-22T09:10:49.998Z</time></trkpt><trkpt lat="43.418462136932284" lon="11.729523361276813"><ele>375.0</ele><time>2026-03-22T09:10:52.998Z</time></trkpt><trkpt lat="43.41849516836153" lon="11.729430929070114"><ele>375.0</ele><time>2026-03-22T09:10:55.998Z</time></trkpt><trkpt lat="43.418513544885" lon="11.729330438948919"><ele>375.0</ele><time>2026-03-22T09:10:58.998Z</time></trkpt><trkpt lat="43.418520378421285" lon="11.729229511872557"><ele>375.0</ele><time>2026-03-22T09:11:02Z</time></trkpt><trkpt lat="43.4185105433442" lon="11.729123414110019"><ele>375.0</ele><time>2026-03-22T09:11:05Z</time></trkpt><trkpt lat="43.418485769260634" lon="11.729024681301958"><ele>375.6666666666667</ele><time>2026-03-22T09:11:08Z</time></trkpt><trkpt lat="43.4184406977965" lon="11.728939774856217"><ele>376.3333333333333</ele><time>2026-03-22T09:11:11Z</time></trkpt><trkpt lat="43.41838113720241" lon="11.728869813805636"><ele>377.0</ele><time>2026-03-22T09:11:14Z</time></trkpt><trkpt lat="43.418305595808526" lon="11.728813240253476"><ele>377.66666666666663</ele><time>2026-03-22T09:11:17Z</time></trkpt><trkpt lat="43.418224956215866" lon="11.728782220610753"><ele>378.3333333333333</ele><time>2026-03-22T09:11:20Z</time></trkpt><trkpt lat="43.41813452350153" lon="11.728773095746398"><ele>379.0</ele><time>2026-03-22T09:11:23Z</time></trkpt><trkpt lat="43.41804942246024" lon="11.728810687755864"><ele>379.5</ele><time>2026-03-22T09:11:26Z</time></trkpt><trkpt lat="43.417970602548756" lon="11.72888271863815"><ele>380.0</ele><time>2026-03-22T09:11:29Z</time></trkpt><trkpt lat="43.41792198218799" lon="11.72894182602088"><ele>380.5</ele><time>2026-03-22T09:11:31Z</time></trkpt><trkpt lat="43.417873239605214" lon="11.728997021424505"><ele>381.0</ele><time>2026-03-22T09:11:33Z</time></trkpt><trkpt lat="43.417800580861666" lon="11.729077667858714"><ele>381.5</ele><time>2026-03-22T09:11:35.999Z</time></trkpt><trkpt lat="43.41772653895935" lon="11.729143474840463"><ele>382.0</ele><time>2026-03-22T09:11:38.999Z</time></trkpt><trkpt lat="43.41765053326838" lon="11.72919961732843"><ele>382.0</ele><time>2026-03-22T09:11:41.999Z</time></trkpt><trkpt lat="43.417577214570535" lon="11.729253374120734"><ele>382.0</ele><time>2026-03-22T09:11:44.999Z</time></trkpt><trkpt lat="43.41749329138544" lon="11.729292813471835"><ele>382.0</ele><time>2026-03-22T09:11:47.999Z</time></trkpt><trkpt lat="43.417405886441514" lon="11.729319069258631"><ele>382.0</ele><time>2026-03-22T09:11:50.999Z</time></trkpt><trkpt lat="43.417318322155126" lon="11.729333017765098"><ele>382.0</ele><time>2026-03-22T09:11:53.999Z</time></trkpt><trkpt lat="43.41723421038285" lon="11.729312146033072"><ele>382.0</ele><time>2026-03-22T09:11:56.999Z</time></trkpt><trkpt lat="43.41715855373309" lon="11.729250203527647"><ele>382.0</ele><time>2026-03-22T09:11:59.999Z</time></trkpt><trkpt lat="43.417100203479755" lon="11.729177853329888"><ele>382.0</ele><time>2026-03-22T09:12:02.999Z</time></trkpt><trkpt lat="43.41706589328723" lon="11.729072873930834"><ele>382.0</ele><time>2026-03-22T09:12:05.999Z</time></trkpt><trkpt lat="43.417067699027854" lon="11.728957445212204"><ele>382.0</ele><time>2026-03-22T09:12:08.999Z</time></trkpt><trkpt lat="43.41708825970398" lon="11.728846113743659"><ele>382.0</ele><time>2026-03-22T09:12:11.999Z</time></trkpt><trkpt lat="43.41713436556446" lon="11.728755654816828"><ele>382.0</ele><time>2026-03-22T09:12:14.999Z</time></trkpt><trkpt lat="43.41719568470002" lon="11.728685214246642"><ele>382.0</ele><time>2026-03-22T09:12:17.999Z</time></trkpt><trkpt lat="43.417263072243955" lon="11.728631651531142"><ele>382.0</ele><time>2026-03-22T09:12:20.999Z</time></trkpt><trkpt lat="43.417335002969445" lon="11.728588507272896"><ele>382.0</ele><time>2026-03-22T09:12:23.998Z</time></trkpt><trkpt lat="43.41740461356507" lon="11.728549902219752"><ele>382.0</ele><time>2026-03-22T09:12:26.998Z</time></trkpt><trkpt lat="43.41747037842564" lon="11.728505499335846"><ele>382.0</ele><time>2026-03-22T09:12:29.998Z</time></trkpt><trkpt lat="43.41753803060544" lon="11.728466220469908"><ele>382.0</ele><time>2026-03-22T09:12:32.998Z</time></trkpt><trkpt lat="43.417609218085985" lon="11.728426652627691"><ele>383.3333333333333</ele><time>2026-03-22T09:12:35.998Z</time></trkpt><trkpt lat="43.41768312679089" lon="11.728389777353136"><ele>384.66666666666663</ele><time>2026-03-22T09:12:38.998Z</time></trkpt><trkpt lat="43.41775049433177" lon="11.72834321640793"><ele>386.0</ele><time>2026-03-22T09:12:41.998Z</time></trkpt><trkpt lat="43.41782310694508" lon="11.728300572510078"><ele>387.3333333333333</ele><time>2026-03-22T09:12:44.998Z</time></trkpt><trkpt lat="43.417895933648765" lon="11.728267594771381"><ele>388.6666666666667</ele><time>2026-03-22T09:12:47.998Z</time></trkpt><trkpt lat="43.417966075186534" lon="11.728219374464294"><ele>390.0</ele><time>2026-03-22T09:12:50.998Z</time></trkpt><trkpt lat="43.41803978373367" lon="11.72817774676763"><ele>390.0</ele><time>2026-03-22T09:12:53.998Z</time></trkpt><trkpt lat="43.418110412146795" lon="11.728132197771133"><ele>390.0</ele><time>2026-03-22T09:12:56.998Z</time></trkpt><trkpt lat="43.41818712473926" lon="11.728090918449718"><ele>390.0</ele><time>2026-03-22T09:12:59.998Z</time></trkpt><trkpt lat="43.41826249880377" lon="11.728048547744102"><ele>390.0</ele><time>2026-03-22T09:13:02.998Z</time></trkpt><trkpt lat="43.41833551623307" lon="11.728020540082753"><ele>390.0</ele><time>2026-03-22T09:13:06Z</time></trkpt><trkpt lat="43.41841093941592" lon="11.7280045385654"><ele>390.0</ele><time>2026-03-22T09:13:09Z</time></trkpt><trkpt lat="43.418481733145455" lon="11.72799162524099"><ele>390.0</ele><time>2026-03-22T09:13:12Z</time></trkpt><trkpt lat="43.41855059288559" lon="11.727994945719702"><ele>390.0</ele><time>2026-03-22T09:13:15Z</time></trkpt><trkpt lat="43.418620354861766" lon="11.727996943176825"><ele>390.0</ele><time>2026-03-22T09:13:18Z</time></trkpt><trkpt lat="43.41868807144162" lon="11.728003290106443"><ele>390.0</ele><time>2026-03-22T09:13:21Z</time></trkpt><trkpt lat="43.418758065503816" lon="11.728010650319538"><ele>390.0</ele><time>2026-03-22T09:13:24Z</time></trkpt><trkpt lat="43.418830778137824" lon="11.728025197347153"><ele>390.0</ele><time>2026-03-22T09:13:27Z</time></trkpt><trkpt lat="43.41890418805547" lon="11.728043013592439"><ele>390.0</ele><time>2026-03-22T09:13:30Z</time></trkpt><trkpt lat="43.418973001294226" lon="11.728073287936937"><ele>391.0</ele><time>2026-03-22T09:13:33Z</time></trkpt><trkpt lat="43.41903889785919" lon="11.728112318321168"><ele>392.0</ele><time>2026-03-22T09:13:36Z</time></trkpt><trkpt lat="43.419098863291865" lon="11.728158652098275"><ele>393.0</ele><time>2026-03-22T09:13:39Z</time></trkpt><trkpt lat="43.41915686422881" lon="11.728218333496216"><ele>394.0</ele><time>2026-03-22T09:13:42Z</time></trkpt><trkpt lat="43.419207233561856" lon="11.728295984616572"><ele>395.0</ele><time>2026-03-22T09:13:44.999Z</time></trkpt><trkpt lat="43.419252005861345" lon="11.728375184601445"><ele>396.0</ele><time>2026-03-22T09:13:47.999Z</time></trkpt><trkpt lat="43.41929227326797" lon="11.728466719449266"><ele>397.0</ele><time>2026-03-22T09:13:50.999Z</time></trkpt><trkpt lat="43.41933153843048" lon="11.728560539226299"><ele>397.00000000000006</ele><time>2026-03-22T09:13:53.999Z</time></trkpt><trkpt lat="43.41936630388029" lon="11.728647967308122"><ele>397.0</ele><time>2026-03-22T09:13:56.999Z</time></trkpt><trkpt lat="43.419399722265375" lon="11.728742203242428"><ele>397.0</ele><time>2026-03-22T09:13:59.999Z</time></trkpt><trkpt lat="43.419434279664856" lon="11.728838586896709"><ele>397.0</ele><time>2026-03-22T09:14:02.999Z</time></trkpt><trkpt lat="43.4194681280302" lon="11.72893392293833"><ele>397.00000000000006</ele><time>2026-03-22T09:14:05.999Z</time></trkpt><trkpt lat="43.41950541301011" lon="11.729029382193414"><ele>397.0</ele><time>2026-03-22T09:14:08.999Z</time></trkpt><trkpt lat="43.41954134601918" lon="11.729125271289696"><ele>397.00000000000006</ele><time>2026-03-22T09:14:11.999Z</time></trkpt><trkpt lat="43.41957988058937" lon="11.729219450263878"><ele>397.0</ele><time>2026-03-22T09:14:14.999Z</time></trkpt><trkpt lat="43.4196161217978" lon="11.729316671212981"><ele>397.0</ele><time>2026-03-22T09:14:17.999Z</time></trkpt><trkpt lat="43.41965459031146" lon="11.729416938661283"><ele>397.0</ele><time>2026-03-22T09:14:20.999Z</time></trkpt><trkpt lat="43.4196914200429" lon="11.72951334118395"><ele>397.00000000000006</ele><time>2026-03-22T09:14:23.999Z</time></trkpt><trkpt lat="43.419732518580844" lon="11.72960692888974"><ele>397.0</ele><time>2026-03-22T09:14:26.999Z</time></trkpt><trkpt lat="43.41976416648966" lon="11.729693023961524"><ele>397.7142857142857</ele><time>2026-03-22T09:14:29.999Z</time></trkpt><trkpt lat="43.4197965372669" lon="11.729782540600594"><ele>398.42857142857144</ele><time>2026-03-22T09:14:32.998Z</time></trkpt><trkpt lat="43.41983022384569" lon="11.729870031928622"><ele>399.1428571428571</ele><time>2026-03-22T09:14:35.998Z</time></trkpt><trkpt lat="43.41986477054449" lon="11.729956055068998"><ele>399.8571428571429</ele><time>2026-03-22T09:14:38.998Z</time></trkpt><trkpt lat="43.41989852108545" lon="11.730042924531842"><ele>400.5714285714286</ele><time>2026-03-22T09:14:41.998Z</time></trkpt><trkpt lat="43.41993484407076" lon="11.730125939514352"><ele>401.2857142857143</ele><time>2026-03-22T09:14:44.998Z</time></trkpt><trkpt lat="43.41996960678237" lon="11.730200932779379"><ele>402.0</ele><time>2026-03-22T09:14:47.998Z</time></trkpt><trkpt lat="43.42001497724994" lon="11.730272949118724"><ele>402.0</ele><time>2026-03-22T09:14:50.998Z</time></trkpt><trkpt lat="43.42006722843219" lon="11.730329352536078"><ele>402.0</ele><time>2026-03-22T09:14:53.998Z</time></trkpt><trkpt lat="43.420120850697785" lon="11.73037940448186"><ele>402.0</ele><time>2026-03-22T09:14:56.998Z</time></trkpt><trkpt lat="43.42019306798735" lon="11.730433778813685"><ele>402.0</ele><time>2026-03-22T09:15:00.998Z</time></trkpt><trkpt lat="43.42025334629079" lon="11.730470262505643"><ele>402.0</ele><time>2026-03-22T09:15:03.998Z</time></trkpt><trkpt lat="43.420314267959256" lon="11.730492999710188"><ele>402.0</ele><time>2026-03-22T09:15:06.998Z</time></trkpt><trkpt lat="43.42039735504142" lon="11.730509144018283"><ele>402.0</ele><time>2026-03-22T09:15:10.998Z</time></trkpt><trkpt lat="43.420463337324385" lon="11.730506853771189"><ele>403.3333333333333</ele><time>2026-03-22T09:15:14Z</time></trkpt><trkpt lat="43.420544369101755" lon="11.730485893354482"><ele>404.66666666666663</ele><time>2026-03-22T09:15:18Z</time></trkpt><trkpt lat="43.42062090086673" lon="11.730453859643054"><ele>406.0</ele><time>2026-03-22T09:15:22Z</time></trkpt><trkpt lat="43.42069476415066" lon="11.730413362928758"><ele>407.3333333333333</ele><time>2026-03-22T09:15:26Z</time></trkpt><trkpt lat="43.420751264594344" lon="11.730371559714149"><ele>408.66666666666663</ele><time>2026-03-22T09:15:29Z</time></trkpt><trkpt lat="43.420822949635934" lon="11.730322198868894"><ele>410.0</ele><time>2026-03-22T09:15:33Z</time></trkpt><trkpt lat="43.4208975591278" lon="11.730269368733286"><ele>411.42857142857144</ele><time>2026-03-22T09:15:37Z</time></trkpt><trkpt lat="43.42097009590663" lon="11.730213421594314"><ele>412.85714285714283</ele><time>2026-03-22T09:15:41Z</time></trkpt><trkpt lat="43.42102668178681" lon="11.730172578928071"><ele>414.2857142857143</ele><time>2026-03-22T09:15:44Z</time></trkpt><trkpt lat="43.42108309212949" lon="11.730131090149808"><ele>415.7142857142857</ele><time>2026-03-22T09:15:47Z</time></trkpt><trkpt lat="43.42114529378555" lon="11.730095668017423"><ele>417.1428571428571</ele><time>2026-03-22T09:15:49.999Z</time></trkpt><trkpt lat="43.42120071560066" lon="11.730052682495892"><ele>418.57142857142856</ele><time>2026-03-22T09:15:52.999Z</time></trkpt><trkpt lat="43.42125981258945" lon="11.730010453627434"><ele>420.0</ele><time>2026-03-22T09:15:55.999Z</time></trkpt><trkpt lat="43.42131671148388" lon="11.729973305661114"><ele>420.3333333333333</ele><time>2026-03-22T09:15:58.999Z</time></trkpt><trkpt lat="43.42137255625399" lon="11.729932567489875"><ele>420.66666666666663</ele><time>2026-03-22T09:16:01.999Z</time></trkpt><trkpt lat="43.42144478882706" lon="11.729882087187383"><ele>421.0</ele><time>2026-03-22T09:16:05.999Z</time></trkpt><trkpt lat="43.42152096821658" lon="11.729832267160713"><ele>421.3333333333333</ele><time>2026-03-22T09:16:09.999Z</time></trkpt><trkpt lat="43.4215972158526" lon="11.729784188249138"><ele>421.66666666666663</ele><time>2026-03-22T09:16:13.999Z</time></trkpt><trkpt lat="43.42165936736034" lon="11.729743757067457"><ele>422.0</ele><time>2026-03-22T09:16:16.999Z</time></trkpt><trkpt lat="43.42173770260952" lon="11.729701380574868"><ele>421.99999999999994</ele><time>2026-03-22T09:16:20.999Z</time></trkpt><trkpt lat="43.42181012104643" lon="11.729657454174587"><ele>422.0</ele><time>2026-03-22T09:16:24.999Z</time></trkpt><trkpt lat="43.421888577309225" lon="11.729614215994294"><ele>422.0</ele><time>2026-03-22T09:16:28.999Z</time></trkpt><trkpt lat="43.42196132729159" lon="11.72963418908822"><ele>422.0</ele><time>2026-03-22T09:16:32.999Z</time></trkpt><trkpt lat="43.42203755600793" lon="11.72956868394433"><ele>421.99999999999994</ele><time>2026-03-22T09:19:19.998Z</time></trkpt><trkpt lat="43.42207403696793" lon="11.729495552349132"><ele>422.0</ele><time>2026-03-22T09:19:24Z</time></trkpt><trkpt lat="43.42213663186774" lon="11.7294083072449"><ele>424.20000000000005</ele><time>2026-03-22T09:19:27Z</time></trkpt><trkpt lat="43.42216695872506" lon="11.729325612572074"><ele>426.4</ele><time>2026-03-22T09:19:29Z</time></trkpt><trkpt lat="43.42219089805329" lon="11.729229748102549"><ele>428.59999999999997</ele><time>2026-03-22T09:19:31Z</time></trkpt><trkpt lat="43.422200352016155" lon="11.729114493047476"><ele>430.79999999999995</ele><time>2026-03-22T09:19:33Z</time></trkpt><trkpt lat="43.42216190610972" lon="11.728979384441917"><ele>433.0</ele><time>2026-03-22T09:19:35Z</time></trkpt><trkpt lat="43.422094514953905" lon="11.728834136637813"><ele>432.99999999999994</ele><time>2026-03-22T09:19:37Z</time></trkpt><trkpt lat="43.42205035303712" lon="11.728759973647465"><ele>433.0</ele><time>2026-03-22T09:19:38Z</time></trkpt><trkpt lat="43.42200074083163" lon="11.728682001006229"><ele>433.0</ele><time>2026-03-22T09:19:39Z</time></trkpt><trkpt lat="43.42195300147021" lon="11.728600664700357"><ele>433.0</ele><time>2026-03-22T09:19:40Z</time></trkpt><trkpt lat="43.42190494598104" lon="11.728518284920566"><ele>433.0</ele><time>2026-03-22T09:19:41Z</time></trkpt><trkpt lat="43.42186177780887" lon="11.72843702128248"><ele>432.99999999999994</ele><time>2026-03-22T09:19:42Z</time></trkpt><trkpt lat="43.42182392212379" lon="11.728347764627895"><ele>433.0</ele><time>2026-03-22T09:19:43Z</time></trkpt><trkpt lat="43.42178781787071" lon="11.72826246420203"><ele>432.1428571428571</ele><time>2026-03-22T09:19:44Z</time></trkpt><trkpt lat="43.42175187229587" lon="11.728174131722207"><ele>431.2857142857143</ele><time>2026-03-22T09:19:45Z</time></trkpt><trkpt lat="43.42171624258959" lon="11.72807979534647"><ele>430.42857142857144</ele><time>2026-03-22T09:19:46Z</time></trkpt><trkpt lat="43.42168717485475" lon="11.727984564879682"><ele>429.57142857142856</ele><time>2026-03-22T09:19:47Z</time></trkpt><trkpt lat="43.42166007915733" lon="11.727889361538654"><ele>428.7142857142857</ele><time>2026-03-22T09:19:48Z</time></trkpt><trkpt lat="43.421630844657635" lon="11.727795042663338"><ele>427.85714285714283</ele><time>2026-03-22T09:19:49Z</time></trkpt><trkpt lat="43.42160120400918" lon="11.72770242535205"><ele>427.0</ele><time>2026-03-22T09:19:50Z</time></trkpt><trkpt lat="43.42157041668568" lon="11.727607816558352"><ele>426.00000000000006</ele><time>2026-03-22T09:19:51Z</time></trkpt><trkpt lat="43.42153722674053" lon="11.72751230754241"><ele>425.0</ele><time>2026-03-22T09:19:52Z</time></trkpt><trkpt lat="43.42150968671715" lon="11.727416272550624"><ele>424.0</ele><time>2026-03-22T09:19:53Z</time></trkpt><trkpt lat="43.42148688655806" lon="11.72732221521805"><ele>423.0</ele><time>2026-03-22T09:19:54Z</time></trkpt><trkpt lat="43.421483510365135" lon="11.72721771401374"><ele>422.00000000000006</ele><time>2026-03-22T09:19:55Z</time></trkpt><trkpt lat="43.42150448387379" lon="11.727109950599798"><ele>421.0</ele><time>2026-03-22T09:19:55.999Z</time></trkpt><trkpt lat="43.42155446553358" lon="11.727013580096004"><ele>421.00000000000006</ele><time>2026-03-22T09:19:56.999Z</time></trkpt><trkpt lat="43.42162904141107" lon="11.726954442123946"><ele>421.0</ele><time>2026-03-22T09:19:57.999Z</time></trkpt><trkpt lat="43.42171603992628" lon="11.726936188987086"><ele>421.0</ele><time>2026-03-22T09:19:58.999Z</time></trkpt><trkpt lat="43.42179906302849" lon="11.72697413451216"><ele>421.0</ele><time>2026-03-22T09:19:59.999Z</time></trkpt><trkpt lat="43.421859429713805" lon="11.727062459852322"><ele>421.00000000000006</ele><time>2026-03-22T09:20:00.999Z</time></trkpt><trkpt lat="43.42188350194276" lon="11.727176638398925"><ele>421.0</ele><time>2026-03-22T09:20:01.999Z</time></trkpt><trkpt lat="43.42186394009206" lon="11.727291296897135"><ele>421.00000000000006</ele><time>2026-03-22T09:20:02.999Z</time></trkpt><trkpt lat="43.42187972629392" lon="11.727393282291489"><ele>421.0</ele><time>2026-03-22T09:20:03.999Z</time></trkpt><trkpt lat="43.421880688045825" lon="11.727500116847565"><ele>421.0</ele><time>2026-03-22T09:20:04.999Z</time></trkpt><trkpt lat="43.42188345968388" lon="11.727609449460626"><ele>421.0</ele><time>2026-03-22T09:20:05.999Z</time></trkpt><trkpt lat="43.4218891417289" lon="11.727720737993156"><ele>421.00000000000006</ele><time>2026-03-22T09:20:06.999Z</time></trkpt><trkpt lat="43.42190062392574" lon="11.727830099090921"><ele>421.0</ele><time>2026-03-22T09:20:07.999Z</time></trkpt><trkpt lat="43.42192920731534" lon="11.727933262761239"><ele>420.33333333333337</ele><time>2026-03-22T09:20:08.999Z</time></trkpt><trkpt lat="43.421970155811714" lon="11.728025331859552"><ele>419.6666666666667</ele><time>2026-03-22T09:20:09.999Z</time></trkpt><trkpt lat="43.422031839710314" lon="11.728094745825926"><ele>419.0</ele><time>2026-03-22T09:20:10.999Z</time></trkpt><trkpt lat="43.422106506475636" lon="11.728133144776374"><ele>418.33333333333337</ele><time>2026-03-22T09:20:11.999Z</time></trkpt><trkpt lat="43.422184938297136" lon="11.728145199842224"><ele>417.6666666666667</ele><time>2026-03-22T09:20:12.999Z</time></trkpt><trkpt lat="43.42226595239499" lon="11.72812212917204"><ele>417.0</ele><time>2026-03-22T09:20:13.999Z</time></trkpt><trkpt lat="43.422341433381995" lon="11.72807855233498"><ele>417.0</ele><time>2026-03-22T09:20:14.999Z</time></trkpt><trkpt lat="43.42240344634872" lon="11.728001662333325"><ele>417.0</ele><time>2026-03-22T09:20:15.999Z</time></trkpt><trkpt lat="43.42244488399459" lon="11.72790681972312"><ele>417.0</ele><time>2026-03-22T09:20:16.999Z</time></trkpt><trkpt lat="43.42248246670251" lon="11.727809374489413"><ele>417.0</ele><time>2026-03-22T09:20:17.999Z</time></trkpt><trkpt lat="43.42252310736937" lon="11.727710422840076"><ele>417.0</ele><time>2026-03-22T09:20:18.999Z</time></trkpt><trkpt lat="43.42256693380352" lon="11.727609701161713"><ele>417.0</ele><time>2026-03-22T09:20:19.999Z</time></trkpt><trkpt lat="43.42261871150343" lon="11.727511638167853"><ele>415.1666666666667</ele><time>2026-03-22T09:20:20.999Z</time></trkpt><trkpt lat="43.422677135047266" lon="11.72742060471689"><ele>413.33333333333337</ele><time>2026-03-22T09:20:21.999Z</time></trkpt><trkpt lat="43.42273787323656" lon="11.727337769475199"><ele>411.5</ele><time>2026-03-22T09:20:22.999Z</time></trkpt><trkpt lat="43.4227949963389" lon="11.727255087437841"><ele>409.6666666666667</ele><time>2026-03-22T09:20:23.999Z</time></trkpt><trkpt lat="43.42285451372735" lon="11.72717804364732"><ele>407.83333333333337</ele><time>2026-03-22T09:20:24.999Z</time></trkpt><trkpt lat="43.42290899743058" lon="11.727096078311998"><ele>406.0</ele><time>2026-03-22T09:20:25.999Z</time></trkpt><trkpt lat="43.42296553690443" lon="11.727019676229903"><ele>405.33333333333337</ele><time>2026-03-22T09:20:26.999Z</time></trkpt><trkpt lat="43.42302693626358" lon="11.726947630864215"><ele>404.6666666666667</ele><time>2026-03-22T09:20:27.999Z</time></trkpt><trkpt lat="43.423093041437475" lon="11.7268820143758"><ele>404.0</ele><time>2026-03-22T09:20:28.999Z</time></trkpt><trkpt lat="43.42316245089445" lon="11.72681683332909"><ele>403.33333333333337</ele><time>2026-03-22T09:20:29.999Z</time></trkpt><trkpt lat="43.42323615981154" lon="11.726760636722794"><ele>402.6666666666667</ele><time>2026-03-22T09:20:30.999Z</time></trkpt><trkpt lat="43.42331419563291" lon="11.726716304197586"><ele>402.0</ele><time>2026-03-22T09:20:31.999Z</time></trkpt><trkpt lat="43.42339330932844" lon="11.72668405599788"><ele>400.3333333333333</ele><time>2026-03-22T09:20:32.999Z</time></trkpt><trkpt lat="43.42347198411306" lon="11.726657794834857"><ele>398.66666666666663</ele><time>2026-03-22T09:20:33.999Z</time></trkpt><trkpt lat="43.423557669590586" lon="11.726632920068308"><ele>397.0</ele><time>2026-03-22T09:20:34.999Z</time></trkpt><trkpt lat="43.423645218704515" lon="11.726618329267017"><ele>395.3333333333333</ele><time>2026-03-22T09:20:35.999Z</time></trkpt><trkpt lat="43.4237315236508" lon="11.726607182158832"><ele>393.66666666666663</ele><time>2026-03-22T09:20:36.999Z</time></trkpt><trkpt lat="43.423817807123086" lon="11.726605095597556"><ele>392.0</ele><time>2026-03-22T09:20:37.999Z</time></trkpt><trkpt lat="43.42390961558078" lon="11.726601858793229"><ele>391.6</ele><time>2026-03-22T09:20:38.999Z</time></trkpt><trkpt lat="43.42399793831492" lon="11.726600942409513"><ele>391.20000000000005</ele><time>2026-03-22T09:20:39.999Z</time></trkpt><trkpt lat="43.42408871341236" lon="11.726598526591905"><ele>390.8</ele><time>2026-03-22T09:20:40.999Z</time></trkpt><trkpt lat="43.42418106464522" lon="11.726600000713429"><ele>390.4</ele><time>2026-03-22T09:20:41.999Z</time></trkpt><trkpt lat="43.424275190143675" lon="11.726596041212625"><ele>390.0</ele><time>2026-03-22T09:20:42.999Z</time></trkpt><trkpt lat="43.424368959955785" lon="11.726591009968034"><ele>390.0</ele><time>2026-03-22T09:20:43.999Z</time></trkpt><trkpt lat="43.42446300911817" lon="11.726593578990322"><ele>390.0</ele><time>2026-03-22T09:20:44.999Z</time></trkpt><trkpt lat="43.424555691372234" lon="11.726571530475868"><ele>390.0</ele><time>2026-03-22T09:20:45.998Z</time></trkpt><trkpt lat="43.42463996471049" lon="11.72653333430458"><ele>390.0</ele><time>2026-03-22T09:20:46.998Z</time></trkpt><trkpt lat="43.424716978194496" lon="11.726461951666455"><ele>390.0</ele><time>2026-03-22T09:20:47.998Z</time></trkpt><trkpt lat="43.424780123595916" lon="11.726364084570667"><ele>390.0</ele><time>2026-03-22T09:20:48.998Z</time></trkpt><trkpt lat="43.42481987077414" lon="11.726247235095087"><ele>390.0</ele><time>2026-03-22T09:20:49.998Z</time></trkpt><trkpt lat="43.42483109859141" lon="11.726120680124998"><ele>390.0</ele><time>2026-03-22T09:20:50.998Z</time></trkpt><trkpt lat="43.424811631080615" lon="11.72599730041385"><ele>390.0</ele><time>2026-03-22T09:20:51.998Z</time></trkpt><trkpt lat="43.42476132283574" lon="11.725888872645257"><ele>390.0</ele><time>2026-03-22T09:20:52.998Z</time></trkpt><trkpt lat="43.42469301717042" lon="11.72580723476495"><ele>388.8</ele><time>2026-03-22T09:20:53.998Z</time></trkpt><trkpt lat="43.424613434484776" lon="11.725745392427777"><ele>387.6</ele><time>2026-03-22T09:20:54.998Z</time></trkpt><trkpt lat="43.424522554808185" lon="11.725706106240995"><ele>386.4</ele><time>2026-03-22T09:20:55.998Z</time></trkpt><trkpt lat="43.42443350157888" lon="11.725671781480525"><ele>385.2</ele><time>2026-03-22T09:20:56.998Z</time></trkpt><trkpt lat="43.42434809208103" lon="11.725636617025483"><ele>384.0</ele><time>2026-03-22T09:20:57.998Z</time></trkpt><trkpt lat="43.42425919935845" lon="11.725603670742617"><ele>384.0</ele><time>2026-03-22T09:20:58.998Z</time></trkpt><trkpt lat="43.424173689867594" lon="11.725566098518751"><ele>384.0</ele><time>2026-03-22T09:20:59.998Z</time></trkpt><trkpt lat="43.42408938708795" lon="11.725518908159712"><ele>384.0</ele><time>2026-03-22T09:21:00.998Z</time></trkpt><trkpt lat="43.424005092555575" lon="11.725466844295639"><ele>384.0</ele><time>2026-03-22T09:21:01.998Z</time></trkpt><trkpt lat="43.42392605207551" lon="11.725404423344987"><ele>384.0</ele><time>2026-03-22T09:21:02.998Z</time></trkpt><trkpt lat="43.42384145334406" lon="11.725339630521015"><ele>383.79999999999995</ele><time>2026-03-22T09:21:03.998Z</time></trkpt><trkpt lat="43.423756938819345" lon="11.725274119404633"><ele>383.59999999999997</ele><time>2026-03-22T09:21:04.998Z</time></trkpt><trkpt lat="43.42367129967249" lon="11.72521154677983"><ele>383.4</ele><time>2026-03-22T09:21:05.998Z</time></trkpt><trkpt lat="43.42358217996755" lon="11.725155557946037"><ele>383.2</ele><time>2026-03-22T09:21:06.998Z</time></trkpt><trkpt lat="43.42348978899078" lon="11.725110774772265"><ele>383.0</ele><time>2026-03-22T09:21:07.998Z</time></trkpt><trkpt lat="43.4233935328184" lon="11.725080684742093"><ele>382.59999999999997</ele><time>2026-03-22T09:21:08.998Z</time></trkpt><trkpt lat="43.423292775496" lon="11.725056528755912"><ele>382.2</ele><time>2026-03-22T09:21:09.998Z</time></trkpt><trkpt lat="43.42319274071573" lon="11.725028320350463"><ele>381.8</ele><time>2026-03-22T09:21:10.998Z</time></trkpt><trkpt lat="43.42308678340509" lon="11.724999673888874"><ele>381.4</ele><time>2026-03-22T09:21:11.998Z</time></trkpt><trkpt lat="43.42298566845349" lon="11.724954666632675"><ele>381.0</ele><time>2026-03-22T09:21:12.998Z</time></trkpt><trkpt lat="43.422883798948924" lon="11.724905924824053"><ele>380.4</ele><time>2026-03-22T09:21:13.998Z</time></trkpt><trkpt lat="43.422782349371815" lon="11.724843071317371"><ele>379.8</ele><time>2026-03-22T09:21:14.998Z</time></trkpt><trkpt lat="43.42268133351493" lon="11.724776345529817"><ele>379.2</ele><time>2026-03-22T09:21:15.998Z</time></trkpt><trkpt lat="43.422587532627105" lon="11.724699739776941"><ele>378.59999999999997</ele><time>2026-03-22T09:21:16.998Z</time></trkpt><trkpt lat="43.42250062170688" lon="11.724612830592491"><ele>378.0</ele><time>2026-03-22T09:21:17.998Z</time></trkpt><trkpt lat="43.42242567957109" lon="11.724510193749547"><ele>377.25</ele><time>2026-03-22T09:21:18.998Z</time></trkpt><trkpt lat="43.422377822609135" lon="11.72437545624857"><ele>376.5</ele><time>2026-03-22T09:21:19.998Z</time></trkpt><trkpt lat="43.422348388839275" lon="11.724227593342698"><ele>375.75</ele><time>2026-03-22T09:21:20.998Z</time></trkpt><trkpt lat="43.42232123309439" lon="11.72406774420093"><ele>375.0</ele><time>2026-03-22T09:21:21.998Z</time></trkpt><trkpt lat="43.422326260193834" lon="11.723910241070415"><ele>375.0</ele><time>2026-03-22T09:21:22.998Z</time></trkpt><trkpt lat="43.42233412725929" lon="11.723797935370232"><ele>375.0</ele><time>2026-03-22T09:21:23.998Z</time></trkpt><trkpt lat="43.422331097313304" lon="11.723660939860068"><ele>375.0</ele><time>2026-03-22T09:21:24.998Z</time></trkpt><trkpt lat="43.422327698124114" lon="11.723523926516327"><ele>375.0</ele><time>2026-03-22T09:21:25.998Z</time></trkpt><trkpt lat="43.4223194254719" lon="11.723384463940258"><ele>375.0</ele><time>2026-03-22T09:21:26.998Z</time></trkpt><trkpt lat="43.42231883663287" lon="11.72324720094377"><ele>374.0</ele><time>2026-03-22T09:21:27.998Z</time></trkpt><trkpt lat="43.42232215009894" lon="11.723107287179484"><ele>373.0</ele><time>2026-03-22T09:21:28.998Z</time></trkpt><trkpt lat="43.42233308972773" lon="11.722966522163823"><ele>372.0</ele><time>2026-03-22T09:21:30Z</time></trkpt><trkpt lat="43.42234728073949" lon="11.722828060604707"><ele>371.0</ele><time>2026-03-22T09:21:31Z</time></trkpt><trkpt lat="43.422360470794594" lon="11.72269266459204"><ele>370.0</ele><time>2026-03-22T09:21:32Z</time></trkpt><trkpt lat="43.422369660623154" lon="11.722549280721225"><ele>369.2</ele><time>2026-03-22T09:21:33Z</time></trkpt><trkpt lat="43.4223797674239" lon="11.722407716679905"><ele>368.4</ele><time>2026-03-22T09:21:34Z</time></trkpt><trkpt lat="43.42238769596532" lon="11.722261388433225"><ele>367.6</ele><time>2026-03-22T09:21:35Z</time></trkpt><trkpt lat="43.42239221524064" lon="11.722095785128968"><ele>366.8</ele><time>2026-03-22T09:21:36Z</time></trkpt><trkpt lat="43.4224142650025" lon="11.721993856782944"><ele>366.0</ele><time>2026-03-22T09:21:37Z</time></trkpt><trkpt lat="43.42242189414216" lon="11.721866068279306"><ele>365.8333333333333</ele><time>2026-03-22T09:21:38Z</time></trkpt><trkpt lat="43.4224267186051" lon="11.72173993041934"><ele>365.6666666666667</ele><time>2026-03-22T09:21:39Z</time></trkpt><trkpt lat="43.422430231184826" lon="11.721614566125423"><ele>365.5</ele><time>2026-03-22T09:21:40Z</time></trkpt><trkpt lat="43.42243049500723" lon="11.721495265953342"><ele>365.33333333333337</ele><time>2026-03-22T09:21:41Z</time></trkpt><trkpt lat="43.422416877862396" lon="11.72137941309971"><ele>365.1666666666667</ele><time>2026-03-22T09:21:42Z</time></trkpt><trkpt lat="43.42239705901064" lon="11.721266902452276"><ele>365.0</ele><time>2026-03-22T09:21:43Z</time></trkpt><trkpt lat="43.422383669889186" lon="11.721158357050648"><ele>365.33333333333337</ele><time>2026-03-22T09:21:44Z</time></trkpt><trkpt lat="43.42237202235293" lon="11.721052378090008"><ele>365.6666666666667</ele><time>2026-03-22T09:21:45Z</time></trkpt><trkpt lat="43.42235976725889" lon="11.720945268251052"><ele>366.0</ele><time>2026-03-22T09:21:46Z</time></trkpt><trkpt lat="43.42234528370897" lon="11.720838361326932"><ele>366.3333333333333</ele><time>2026-03-22T09:21:47Z</time></trkpt><trkpt lat="43.4223353609043" lon="11.720735155667409"><ele>366.66666666666663</ele><time>2026-03-22T09:21:48Z</time></trkpt><trkpt lat="43.422331214450296" lon="11.72062353164319"><ele>367.0</ele><time>2026-03-22T09:21:49Z</time></trkpt><trkpt lat="43.422334402783896" lon="11.72051751865125"><ele>367.0</ele><time>2026-03-22T09:21:50Z</time></trkpt><trkpt lat="43.42234111190075" lon="11.720408758936712"><ele>367.0</ele><time>2026-03-22T09:21:51Z</time></trkpt><trkpt lat="43.42234767371532" lon="11.720294924484575"><ele>367.0</ele><time>2026-03-22T09:21:52Z</time></trkpt><trkpt lat="43.4223602759661" lon="11.720179398186136"><ele>367.0</ele><time>2026-03-22T09:21:53Z</time></trkpt><trkpt lat="43.422373133346774" lon="11.720064767378895"><ele>367.0</ele><time>2026-03-22T09:21:54Z</time></trkpt><trkpt lat="43.42238206000009" lon="11.719947638343715"><ele>367.0</ele><time>2026-03-22T09:21:55Z</time></trkpt><trkpt lat="43.422396969278296" lon="11.719832166424876"><ele>366.8333333333333</ele><time>2026-03-22T09:21:56Z</time></trkpt><trkpt lat="43.422410503714254" lon="11.71971349641344"><ele>366.66666666666663</ele><time>2026-03-22T09:21:57Z</time></trkpt><trkpt lat="43.42242712874732" lon="11.719595460072847"><ele>366.5</ele><time>2026-03-22T09:21:58Z</time></trkpt><trkpt lat="43.42244677927084" lon="11.719477901902179"><ele>366.3333333333333</ele><time>2026-03-22T09:21:59Z</time></trkpt><trkpt lat="43.42246204661077" lon="11.71935788442924"><ele>366.1666666666667</ele><time>2026-03-22T09:22:00Z</time></trkpt><trkpt lat="43.42248522157105" lon="11.719236833377261"><ele>366.0</ele><time>2026-03-22T09:22:00.999Z</time></trkpt><trkpt lat="43.422526430438026" lon="11.719122512516034"><ele>364.4</ele><time>2026-03-22T09:22:01.999Z</time></trkpt><trkpt lat="43.42256152207898" lon="11.719005649890502"><ele>362.8</ele><time>2026-03-22T09:22:02.999Z</time></trkpt><trkpt lat="43.422595438293484" lon="11.718878746646794"><ele>361.2</ele><time>2026-03-22T09:22:03.999Z</time></trkpt><trkpt lat="43.42263127339464" lon="11.718756207698357"><ele>359.59999999999997</ele><time>2026-03-22T09:22:04.999Z</time></trkpt><trkpt lat="43.42267522150657" lon="11.718633681575275"><ele>358.0</ele><time>2026-03-22T09:22:05.999Z</time></trkpt><trkpt lat="43.422719386545246" lon="11.718508648252207"><ele>356.59999999999997</ele><time>2026-03-22T09:22:06.999Z</time></trkpt><trkpt lat="43.422750845244444" lon="11.71837218272328"><ele>355.2</ele><time>2026-03-22T09:22:07.999Z</time></trkpt><trkpt lat="43.42275916689867" lon="11.718232570119975"><ele>353.8</ele><time>2026-03-22T09:22:08.999Z</time></trkpt><trkpt lat="43.42275629022502" lon="11.718086953231806"><ele>352.4</ele><time>2026-03-22T09:22:09.999Z</time></trkpt><trkpt lat="43.42274438292811" lon="11.717935445752033"><ele>351.0</ele><time>2026-03-22T09:22:10.999Z</time></trkpt><trkpt lat="43.422718896854725" lon="11.717792110337731"><ele>350.6</ele><time>2026-03-22T09:22:11.999Z</time></trkpt><trkpt lat="43.422683540269375" lon="11.717648996944563"><ele>350.20000000000005</ele><time>2026-03-22T09:22:12.999Z</time></trkpt><trkpt lat="43.42262991331436" lon="11.717516378448844"><ele>349.79999999999995</ele><time>2026-03-22T09:22:13.999Z</time></trkpt><trkpt lat="43.42257015060338" lon="11.717383002082768"><ele>349.4</ele><time>2026-03-22T09:22:14.999Z</time></trkpt><trkpt lat="43.42251901672771" lon="11.717253366518706"><ele>349.0</ele><time>2026-03-22T09:22:15.999Z</time></trkpt><trkpt lat="43.422462294686916" lon="11.717128598991183"><ele>349.0</ele><time>2026-03-22T09:22:16.999Z</time></trkpt><trkpt lat="43.422402496953794" lon="11.717006419845045"><ele>349.0</ele><time>2026-03-22T09:22:17.999Z</time></trkpt><trkpt lat="43.422355835113606" lon="11.716879831633419"><ele>349.0</ele><time>2026-03-22T09:22:18.999Z</time></trkpt><trkpt lat="43.42231243434154" lon="11.716746963626678"><ele>349.0</ele><time>2026-03-22T09:22:19.999Z</time></trkpt><trkpt lat="43.42226588944236" lon="11.716629632789708"><ele>349.0</ele><time>2026-03-22T09:22:20.999Z</time></trkpt><trkpt lat="43.422214522319386" lon="11.716518379786267"><ele>349.79999999999995</ele><time>2026-03-22T09:22:21.999Z</time></trkpt><trkpt lat="43.42216031053624" lon="11.716407014552157"><ele>350.59999999999997</ele><time>2026-03-22T09:22:22.999Z</time></trkpt><trkpt lat="43.42210828939831" lon="11.71630210892295"><ele>351.4</ele><time>2026-03-22T09:22:23.999Z</time></trkpt><trkpt lat="43.422049409529464" lon="11.716199545015268"><ele>352.2</ele><time>2026-03-22T09:22:24.999Z</time></trkpt><trkpt lat="43.42199442021156" lon="11.716101973951101"><ele>353.0</ele><time>2026-03-22T09:22:25.999Z</time></trkpt><trkpt lat="43.42194124242859" lon="11.71600360248523"><ele>351.5</ele><time>2026-03-22T09:22:26.999Z</time></trkpt><trkpt lat="43.42188956325259" lon="11.715908735503834"><ele>350.0</ele><time>2026-03-22T09:22:27.999Z</time></trkpt><trkpt lat="43.42183800811157" lon="11.715811321556213"><ele>348.5</ele><time>2026-03-22T09:22:28.999Z</time></trkpt><trkpt lat="43.4217893469343" lon="11.715712052028328"><ele>347.0</ele><time>2026-03-22T09:22:29.999Z</time></trkpt><trkpt lat="43.42174929589582" lon="11.715609219811771"><ele>345.5</ele><time>2026-03-22T09:22:30.999Z</time></trkpt><trkpt lat="43.42171463351375" lon="11.715500721952926"><ele>344.0</ele><time>2026-03-22T09:22:31.999Z</time></trkpt><trkpt lat="43.421685307154206" lon="11.715385143186598"><ele>344.0</ele><time>2026-03-22T09:22:32.999Z</time></trkpt><trkpt lat="43.421665794534" lon="11.7152744479963"><ele>344.0</ele><time>2026-03-22T09:22:33.999Z</time></trkpt><trkpt lat="43.42164774849936" lon="11.715158960692456"><ele>344.0</ele><time>2026-03-22T09:22:34.999Z</time></trkpt><trkpt lat="43.42164281008981" lon="11.715044658795714"><ele>344.0</ele><time>2026-03-22T09:22:35.999Z</time></trkpt><trkpt lat="43.421643920376994" lon="11.714928924163177"><ele>344.0</ele><time>2026-03-22T09:22:36.999Z</time></trkpt><trkpt lat="43.42164946883716" lon="11.714818907646201"><ele>344.0</ele><time>2026-03-22T09:22:37.999Z</time></trkpt><trkpt lat="43.42166701592544" lon="11.714706338263774"><ele>344.0</ele><time>2026-03-22T09:22:38.999Z</time></trkpt><trkpt lat="43.42169934135839" lon="11.714604603850315"><ele>344.0</ele><time>2026-03-22T09:22:39.999Z</time></trkpt><trkpt lat="43.42173973864458" lon="11.714507440088399"><ele>344.0</ele><time>2026-03-22T09:22:40.999Z</time></trkpt><trkpt lat="43.42178586364232" lon="11.714416179191556"><ele>344.0</ele><time>2026-03-22T09:22:41.999Z</time></trkpt><trkpt lat="43.42182879578396" lon="11.71432538951752"><ele>344.0</ele><time>2026-03-22T09:22:42.999Z</time></trkpt><trkpt lat="43.421875602721535" lon="11.714237373206014"><ele>344.0</ele><time>2026-03-22T09:22:43.999Z</time></trkpt><trkpt lat="43.421926037317" lon="11.714154478726952"><ele>343.6666666666667</ele><time>2026-03-22T09:22:44.999Z</time></trkpt><trkpt lat="43.421976143228406" lon="11.714072202178953"><ele>343.33333333333337</ele><time>2026-03-22T09:22:45.999Z</time></trkpt><trkpt lat="43.42202291692539" lon="11.713984481059493"><ele>343.0</ele><time>2026-03-22T09:22:46.999Z</time></trkpt><trkpt lat="43.42207029074163" lon="11.713896645347694"><ele>342.6666666666667</ele><time>2026-03-22T09:22:47.999Z</time></trkpt><trkpt lat="43.422121523022284" lon="11.713810198009694"><ele>342.3333333333333</ele><time>2026-03-22T09:22:48.999Z</time></trkpt><trkpt lat="43.4221696699384" lon="11.713721177849994"><ele>342.0</ele><time>2026-03-22T09:22:49.999Z</time></trkpt><trkpt lat="43.422219136405005" lon="11.713631750638749"><ele>342.5</ele><time>2026-03-22T09:22:50.999Z</time></trkpt><trkpt lat="43.42226695205092" lon="11.71354282154479"><ele>343.0</ele><time>2026-03-22T09:22:51.998Z</time></trkpt><trkpt lat="43.42231804868927" lon="11.713455999804635"><ele>343.5</ele><time>2026-03-22T09:22:52.998Z</time></trkpt><trkpt lat="43.42236812801564" lon="11.713368824970962"><ele>344.0</ele><time>2026-03-22T09:22:53.998Z</time></trkpt><trkpt lat="43.42241730603177" lon="11.713279019861078"><ele>344.5</ele><time>2026-03-22T09:22:54.998Z</time></trkpt><trkpt lat="43.42246684376896" lon="11.713188306690023"><ele>345.0</ele><time>2026-03-22T09:22:55.998Z</time></trkpt><trkpt lat="43.42251466715144" lon="11.713096206178882"><ele>345.0</ele><time>2026-03-22T09:22:56.998Z</time></trkpt><trkpt lat="43.422556951456514" lon="11.713000174586119"><ele>345.0</ele><time>2026-03-22T09:22:57.998Z</time></trkpt><trkpt lat="43.42259288629629" lon="11.712896166707122"><ele>345.0</ele><time>2026-03-22T09:22:58.998Z</time></trkpt><trkpt lat="43.42262543413761" lon="11.71279036337746"><ele>345.0</ele><time>2026-03-22T09:22:59.998Z</time></trkpt><trkpt lat="43.42264838504503" lon="11.71267826056333"><ele>345.0</ele><time>2026-03-22T09:23:00.998Z</time></trkpt><trkpt lat="43.4226639483429" lon="11.712562454890401"><ele>345.0</ele><time>2026-03-22T09:23:01.998Z</time></trkpt><trkpt lat="43.42266762875723" lon="11.712444880621467"><ele>344.8333333333333</ele><time>2026-03-22T09:23:02.998Z</time></trkpt><trkpt lat="43.4226673588288" lon="11.712328128474116"><ele>344.6666666666667</ele><time>2026-03-22T09:23:03.998Z</time></trkpt><trkpt lat="43.422665836871985" lon="11.712214194934827"><ele>344.5</ele><time>2026-03-22T09:23:04.998Z</time></trkpt><trkpt lat="43.42266494710519" lon="11.712097283826315"><ele>344.33333333333337</ele><time>2026-03-22T09:23:05.998Z</time></trkpt><trkpt lat="43.42266537538109" lon="11.711983190743378"><ele>344.1666666666667</ele><time>2026-03-22T09:23:06.998Z</time></trkpt><trkpt lat="43.42266105981721" lon="11.711873975069727"><ele>344.0</ele><time>2026-03-22T09:23:07.998Z</time></trkpt><trkpt lat="43.422656507590375" lon="11.711762520551869"><ele>344.0</ele><time>2026-03-22T09:23:08.998Z</time></trkpt><trkpt lat="43.42265053476759" lon="11.71164880565533"><ele>344.0</ele><time>2026-03-22T09:23:09.998Z</time></trkpt><trkpt lat="43.422650231137666" lon="11.711541051472981"><ele>344.0</ele><time>2026-03-22T09:23:10.998Z</time></trkpt><trkpt lat="43.42265040017719" lon="11.711433296092693"><ele>344.0</ele><time>2026-03-22T09:23:11.998Z</time></trkpt><trkpt lat="43.42264482355515" lon="11.711327174833551"><ele>344.0</ele><time>2026-03-22T09:23:12.998Z</time></trkpt><trkpt lat="43.422643098339236" lon="11.711220234877834"><ele>344.0</ele><time>2026-03-22T09:23:13.998Z</time></trkpt><trkpt lat="43.42264474344809" lon="11.711112149655225"><ele>343.33333333333337</ele><time>2026-03-22T09:23:14.998Z</time></trkpt><trkpt lat="43.422650159661956" lon="11.711007613854797"><ele>342.6666666666667</ele><time>2026-03-22T09:23:15.998Z</time></trkpt><trkpt lat="43.42265559988281" lon="11.710903804420393"><ele>342.0</ele><time>2026-03-22T09:23:16.998Z</time></trkpt><trkpt lat="43.42266397824905" lon="11.710801460547296"><ele>341.3333333333333</ele><time>2026-03-22T09:23:17.998Z</time></trkpt><trkpt lat="43.42267184649546" lon="11.71069506525301"><ele>340.66666666666663</ele><time>2026-03-22T09:23:18.998Z</time></trkpt><trkpt lat="43.42268406938503" lon="11.71058711372914"><ele>340.0</ele><time>2026-03-22T09:23:19.998Z</time></trkpt><trkpt lat="43.42269842938668" lon="11.710476381780593"><ele>340.0</ele><time>2026-03-22T09:23:20.998Z</time></trkpt><trkpt lat="43.422709117743935" lon="11.710363064493338"><ele>340.0</ele><time>2026-03-22T09:23:21.998Z</time></trkpt><trkpt lat="43.422722253833584" lon="11.710250565078674"><ele>340.0</ele><time>2026-03-22T09:23:22.998Z</time></trkpt><trkpt lat="43.42273433025948" lon="11.710133442285136"><ele>340.0</ele><time>2026-03-22T09:23:23.998Z</time></trkpt><trkpt lat="43.42275180879392" lon="11.710017528149503"><ele>340.0</ele><time>2026-03-22T09:23:24.998Z</time></trkpt><trkpt lat="43.42276672511978" lon="11.709901813264395"><ele>340.0</ele><time>2026-03-22T09:23:25.998Z</time></trkpt><trkpt lat="43.42277607508961" lon="11.709786440908404"><ele>339.5</ele><time>2026-03-22T09:23:26.998Z</time></trkpt><trkpt lat="43.422786302634485" lon="11.70966865231089"><ele>339.0</ele><time>2026-03-22T09:23:27.998Z</time></trkpt><trkpt lat="43.422801482962896" lon="11.709551579470618"><ele>338.5</ele><time>2026-03-22T09:23:28.998Z</time></trkpt><trkpt lat="43.42281782094957" lon="11.709432944560094"><ele>338.0</ele><time>2026-03-22T09:23:29.998Z</time></trkpt><trkpt lat="43.42283592445097" lon="11.709316174537287"><ele>337.5</ele><time>2026-03-22T09:23:30.998Z</time></trkpt><trkpt lat="43.422858765895946" lon="11.70920128024052"><ele>337.0</ele><time>2026-03-22T09:23:31.998Z</time></trkpt><trkpt lat="43.42288184311703" lon="11.709085112898238"><ele>336.5</ele><time>2026-03-22T09:23:32.998Z</time></trkpt><trkpt lat="43.42290270881977" lon="11.708970615263246"><ele>336.0</ele><time>2026-03-22T09:23:33.998Z</time></trkpt><trkpt lat="43.422924731664104" lon="11.708857371476098"><ele>335.5</ele><time>2026-03-22T09:23:34.998Z</time></trkpt><trkpt lat="43.422946810769275" lon="11.708743145631432"><ele>335.0</ele><time>2026-03-22T09:23:36Z</time></trkpt><trkpt lat="43.42296933041891" lon="11.708631196857343"><ele>334.5</ele><time>2026-03-22T09:23:37Z</time></trkpt><trkpt lat="43.422989281718856" lon="11.708516476247791"><ele>334.0</ele><time>2026-03-22T09:23:38Z</time></trkpt><trkpt lat="43.42301081839994" lon="11.708404224429252"><ele>334.16666666666663</ele><time>2026-03-22T09:23:39Z</time></trkpt><trkpt lat="43.42303423113785" lon="11.708293150093915"><ele>334.3333333333333</ele><time>2026-03-22T09:23:40Z</time></trkpt><trkpt lat="43.42305617587292" lon="11.708180321766752"><ele>334.5</ele><time>2026-03-22T09:23:41Z</time></trkpt><trkpt lat="43.42307833133049" lon="11.708067944289995"><ele>334.6666666666667</ele><time>2026-03-22T09:23:42Z</time></trkpt><trkpt lat="43.42309911964366" lon="11.70795295269279"><ele>334.83333333333337</ele><time>2026-03-22T09:23:43Z</time></trkpt><trkpt lat="43.42311870778413" lon="11.707838141991486"><ele>335.0</ele><time>2026-03-22T09:23:44Z</time></trkpt><trkpt lat="43.4231427209971" lon="11.707726879868003"><ele>335.0</ele><time>2026-03-22T09:23:45Z</time></trkpt><trkpt lat="43.42316515942622" lon="11.707611511444602"><ele>335.0</ele><time>2026-03-22T09:23:46Z</time></trkpt><trkpt lat="43.42318610753488" lon="11.70749472073957"><ele>335.0</ele><time>2026-03-22T09:23:47Z</time></trkpt><trkpt lat="43.42320790940793" lon="11.707376660947865"><ele>335.0</ele><time>2026-03-22T09:23:48Z</time></trkpt><trkpt lat="43.423231740106736" lon="11.7072623211978"><ele>335.0</ele><time>2026-03-22T09:23:49Z</time></trkpt><trkpt lat="43.42325491097105" lon="11.707146551626318"><ele>335.0</ele><time>2026-03-22T09:23:50Z</time></trkpt><trkpt lat="43.42327676274737" lon="11.707032740255991"><ele>335.0</ele><time>2026-03-22T09:23:51Z</time></trkpt><trkpt lat="43.42329281161224" lon="11.706922691617848"><ele>335.0</ele><time>2026-03-22T09:23:52Z</time></trkpt><trkpt lat="43.423310900553794" lon="11.706814327850347"><ele>335.0</ele><time>2026-03-22T09:23:53Z</time></trkpt><trkpt lat="43.42332259369985" lon="11.706708257014725"><ele>335.0</ele><time>2026-03-22T09:23:54Z</time></trkpt><trkpt lat="43.42332434841573" lon="11.706601834562546"><ele>335.0</ele><time>2026-03-22T09:23:55Z</time></trkpt><trkpt lat="43.4233229253905" lon="11.706496261125702"><ele>335.0</ele><time>2026-03-22T09:23:56Z</time></trkpt><trkpt lat="43.42332080316301" lon="11.70639113797807"><ele>334.4285714285714</ele><time>2026-03-22T09:23:57Z</time></trkpt><trkpt lat="43.42331874438471" lon="11.706289255916563"><ele>333.85714285714283</ele><time>2026-03-22T09:23:58Z</time></trkpt><trkpt lat="43.42331693898405" lon="11.706189788587723"><ele>333.2857142857143</ele><time>2026-03-22T09:23:59Z</time></trkpt><trkpt lat="43.42331589350451" lon="11.706089093447785"><ele>332.71428571428567</ele><time>2026-03-22T09:24:00Z</time></trkpt><trkpt lat="43.423313878495286" lon="11.70598801532103"><ele>332.1428571428571</ele><time>2026-03-22T09:24:01Z</time></trkpt><trkpt lat="43.42331107727557" lon="11.705885122813234"><ele>331.57142857142856</ele><time>2026-03-22T09:24:02Z</time></trkpt><trkpt lat="43.42330848103031" lon="11.705780497394496"><ele>331.0</ele><time>2026-03-22T09:24:03Z</time></trkpt><trkpt lat="43.42330905863908" lon="11.705676438203199"><ele>331.0</ele><time>2026-03-22T09:24:04Z</time></trkpt><trkpt lat="43.42331051930525" lon="11.705569495466149"><ele>331.0</ele><time>2026-03-22T09:24:05Z</time></trkpt><trkpt lat="43.42331555710061" lon="11.705460432919724"><ele>331.0</ele><time>2026-03-22T09:24:06Z</time></trkpt><trkpt lat="43.42332854151911" lon="11.705346986235247"><ele>331.0</ele><time>2026-03-22T09:24:07Z</time></trkpt><trkpt lat="43.42334338809585" lon="11.705229584163432"><ele>331.0</ele><time>2026-03-22T09:24:08Z</time></trkpt><trkpt lat="43.423358384048264" lon="11.705111427457222"><ele>331.0</ele><time>2026-03-22T09:24:09Z</time></trkpt><trkpt lat="43.423371586397465" lon="11.704992672308538"><ele>330.8333333333333</ele><time>2026-03-22T09:24:10Z</time></trkpt><trkpt lat="43.423387302682606" lon="11.704877057296839"><ele>330.66666666666663</ele><time>2026-03-22T09:24:11Z</time></trkpt><trkpt lat="43.42340027165769" lon="11.704756597674649"><ele>330.5</ele><time>2026-03-22T09:24:12Z</time></trkpt><trkpt lat="43.42341732452099" lon="11.704637964618087"><ele>330.3333333333333</ele><time>2026-03-22T09:24:13Z</time></trkpt><trkpt lat="43.42343394604522" lon="11.704519128403605"><ele>330.1666666666667</ele><time>2026-03-22T09:24:13.999Z</time></trkpt><trkpt lat="43.42345005724466" lon="11.70439746505712"><ele>330.0</ele><time>2026-03-22T09:24:14.999Z</time></trkpt><trkpt lat="43.423461472263355" lon="11.704272271666389"><ele>329.4</ele><time>2026-03-22T09:24:15.999Z</time></trkpt><trkpt lat="43.423474924337505" lon="11.704146555554845"><ele>328.8</ele><time>2026-03-22T09:24:16.999Z</time></trkpt><trkpt lat="43.423492613973124" lon="11.704026033744446"><ele>328.20000000000005</ele><time>2026-03-22T09:24:17.999Z</time></trkpt><trkpt lat="43.423505879184525" lon="11.703898485505572"><ele>327.6</ele><time>2026-03-22T09:24:18.999Z</time></trkpt><trkpt lat="43.42351917931316" lon="11.703775999691388"><ele>327.0</ele><time>2026-03-22T09:24:19.999Z</time></trkpt><trkpt lat="43.42353491586602" lon="11.703656735225415"><ele>326.8</ele><time>2026-03-22T09:24:20.999Z</time></trkpt><trkpt lat="43.42354988691149" lon="11.703535600818599"><ele>326.6</ele><time>2026-03-22T09:24:21.999Z</time></trkpt><trkpt lat="43.423570337161664" lon="11.703417589632245"><ele>326.40000000000003</ele><time>2026-03-22T09:24:22.999Z</time></trkpt><trkpt lat="43.42358705452284" lon="11.703294207999125"><ele>326.20000000000005</ele><time>2026-03-22T09:24:23.999Z</time></trkpt><trkpt lat="43.423600963452884" lon="11.703169903984952"><ele>326.0</ele><time>2026-03-22T09:24:24.999Z</time></trkpt><trkpt lat="43.42361037521188" lon="11.703045450007698"><ele>326.0</ele><time>2026-03-22T09:24:25.999Z</time></trkpt><trkpt lat="43.42360823860574" lon="11.7029218777434"><ele>326.0</ele><time>2026-03-22T09:24:26.999Z</time></trkpt><trkpt lat="43.42360085765784" lon="11.70279335486467"><ele>326.0</ele><time>2026-03-22T09:24:27.999Z</time></trkpt><trkpt lat="43.42359324587285" lon="11.702666790622061"><ele>326.0</ele><time>2026-03-22T09:24:28.999Z</time></trkpt><trkpt lat="43.42357227315518" lon="11.70253681920143"><ele>326.0</ele><time>2026-03-22T09:24:29.999Z</time></trkpt><trkpt lat="43.42354301305738" lon="11.702411723853034"><ele>325.8</ele><time>2026-03-22T09:24:30.999Z</time></trkpt><trkpt lat="43.423518747515104" lon="11.702289724947283"><ele>325.6</ele><time>2026-03-22T09:24:31.999Z</time></trkpt><trkpt lat="43.423487956656274" lon="11.70216511393565"><ele>325.4</ele><time>2026-03-22T09:24:32.999Z</time></trkpt><trkpt lat="43.42346005126969" lon="11.70204040039373"><ele>325.2</ele><time>2026-03-22T09:24:33.999Z</time></trkpt><trkpt lat="43.42343039701176" lon="11.70192219598527"><ele>325.0</ele><time>2026-03-22T09:24:34.999Z</time></trkpt><trkpt lat="43.42340280851479" lon="11.701803319510844"><ele>325.0</ele><time>2026-03-22T09:24:35.999Z</time></trkpt><trkpt lat="43.423372194500445" lon="11.701683646602683"><ele>325.0</ele><time>2026-03-22T09:24:36.999Z</time></trkpt><trkpt lat="43.4233491512754" lon="11.701565063566223"><ele>325.0</ele><time>2026-03-22T09:24:37.999Z</time></trkpt><trkpt lat="43.42332291964505" lon="11.701446452259578"><ele>325.0</ele><time>2026-03-22T09:24:38.999Z</time></trkpt><trkpt lat="43.42330581147425" lon="11.701327506495682"><ele>325.0</ele><time>2026-03-22T09:24:39.999Z</time></trkpt><trkpt lat="43.42330108012641" lon="11.701208870879064"><ele>325.0</ele><time>2026-03-22T09:24:40.999Z</time></trkpt><trkpt lat="43.42330143399262" lon="11.701081468471857"><ele>324.5</ele><time>2026-03-22T09:24:41.999Z</time></trkpt><trkpt lat="43.42330048261805" lon="11.700966487697459"><ele>324.0</ele><time>2026-03-22T09:24:42.999Z</time></trkpt><trkpt lat="43.42331097505044" lon="11.700852920537512"><ele>323.5</ele><time>2026-03-22T09:24:43.999Z</time></trkpt><trkpt lat="43.42332083728228" lon="11.700736029661078"><ele>323.0</ele><time>2026-03-22T09:24:44.999Z</time></trkpt><trkpt lat="43.42333529644301" lon="11.700621709108072"><ele>322.5</ele><time>2026-03-22T09:24:45.999Z</time></trkpt><trkpt lat="43.42333592380873" lon="11.700509844243161"><ele>322.0</ele><time>2026-03-22T09:24:46.999Z</time></trkpt><trkpt lat="43.4233434789394" lon="11.700398873991976"><ele>322.0</ele><time>2026-03-22T09:24:47.999Z</time></trkpt><trkpt lat="43.42334986930663" lon="11.700284906880043"><ele>322.0</ele><time>2026-03-22T09:24:48.999Z</time></trkpt><trkpt lat="43.42335589827297" lon="11.700170211360696"><ele>322.0</ele><time>2026-03-22T09:24:49.999Z</time></trkpt><trkpt lat="43.42336712369281" lon="11.700059849500079"><ele>322.0</ele><time>2026-03-22T09:24:50.999Z</time></trkpt><trkpt lat="43.4233702362396" lon="11.69994598899414"><ele>322.0</ele><time>2026-03-22T09:24:51.999Z</time></trkpt><trkpt lat="43.42337102096502" lon="11.699831457324676"><ele>322.0</ele><time>2026-03-22T09:24:52.999Z</time></trkpt><trkpt lat="43.423379202909096" lon="11.69972160915699"><ele>321.8333333333333</ele><time>2026-03-22T09:24:53.999Z</time></trkpt><trkpt lat="43.423382284762965" lon="11.699611527168356"><ele>321.66666666666663</ele><time>2026-03-22T09:24:54.999Z</time></trkpt><trkpt lat="43.42338132443106" lon="11.699498889447963"><ele>321.5</ele><time>2026-03-22T09:24:55.999Z</time></trkpt><trkpt lat="43.42337989508849" lon="11.699389486753958"><ele>321.3333333333333</ele><time>2026-03-22T09:24:56.999Z</time></trkpt><trkpt lat="43.42338437306696" lon="11.69928688189237"><ele>321.1666666666667</ele><time>2026-03-22T09:24:57.999Z</time></trkpt><trkpt lat="43.42337810066048" lon="11.699183855874804"><ele>321.0</ele><time>2026-03-22T09:24:58.999Z</time></trkpt><trkpt lat="43.423378030051815" lon="11.699086013472261"><ele>320.8</ele><time>2026-03-22T09:24:59.999Z</time></trkpt><trkpt lat="43.42337174196319" lon="11.698988492585453"><ele>320.6</ele><time>2026-03-22T09:25:00.999Z</time></trkpt><trkpt lat="43.423369784630054" lon="11.698896135915895"><ele>320.4</ele><time>2026-03-22T09:25:01.999Z</time></trkpt><trkpt lat="43.42336930886102" lon="11.6987262649907"><ele>320.2</ele><time>2026-03-22T09:25:03.999Z</time></trkpt><trkpt lat="43.423364720810284" lon="11.698559190131457"><ele>320.0</ele><time>2026-03-22T09:25:05.998Z</time></trkpt><trkpt lat="43.42336882356159" lon="11.698449884413293"><ele>320.0</ele><time>2026-03-22T09:25:07.998Z</time></trkpt><trkpt lat="43.423361628965445" lon="11.698355934641858"><ele>320.0</ele><time>2026-03-22T09:25:50Z</time></trkpt><trkpt lat="43.423355068027014" lon="11.698254750825976"><ele>320.0</ele><time>2026-03-22T09:25:53Z</time></trkpt><trkpt lat="43.42335911181947" lon="11.698163166183326"><ele>320.0</ele><time>2026-03-22T09:25:55Z</time></trkpt><trkpt lat="43.42335572037024" lon="11.698046770644117"><ele>320.0</ele><time>2026-03-22T09:25:57Z</time></trkpt><trkpt lat="43.42335196968101" lon="11.69791189937349"><ele>320.0</ele><time>2026-03-22T09:25:59Z</time></trkpt><trkpt lat="43.423341838884554" lon="11.69776915358617"><ele>319.4</ele><time>2026-03-22T09:26:01Z</time></trkpt><trkpt lat="43.42332429737797" lon="11.697618123518183"><ele>318.8</ele><time>2026-03-22T09:26:03Z</time></trkpt><trkpt lat="43.42330205777275" lon="11.69746179969568"><ele>318.2</ele><time>2026-03-22T09:26:05Z</time></trkpt><trkpt lat="43.423288807572284" lon="11.697374924101222"><ele>317.6</ele><time>2026-03-22T09:26:06Z</time></trkpt><trkpt lat="43.42325886335529" lon="11.697207518338704"><ele>317.0</ele><time>2026-03-22T09:26:08Z</time></trkpt><trkpt lat="43.42323279233437" lon="11.697038123674409"><ele>317.0</ele><time>2026-03-22T09:26:10Z</time></trkpt><trkpt lat="43.42321848579858" lon="11.696946389105824"><ele>317.0</ele><time>2026-03-22T09:26:11Z</time></trkpt><trkpt lat="43.42320470578842" lon="11.696858359510584"><ele>317.0</ele><time>2026-03-22T09:26:12Z</time></trkpt><trkpt lat="43.42318804442407" lon="11.69676787554493"><ele>317.0</ele><time>2026-03-22T09:26:13Z</time></trkpt><trkpt lat="43.42317320838325" lon="11.696677216841241"><ele>317.0</ele><time>2026-03-22T09:26:14Z</time></trkpt><trkpt lat="43.423150672632595" lon="11.696586009607913"><ele>317.0</ele><time>2026-03-22T09:26:15Z</time></trkpt><trkpt lat="43.42314101541335" lon="11.696495537145514"><ele>317.0</ele><time>2026-03-22T09:26:16Z</time></trkpt><trkpt lat="43.42312841910579" lon="11.696403595434377"><ele>317.14285714285717</ele><time>2026-03-22T09:26:17Z</time></trkpt><trkpt lat="43.423116651393734" lon="11.696309881103836"><ele>317.2857142857143</ele><time>2026-03-22T09:26:17.999Z</time></trkpt><trkpt lat="43.423110086891924" lon="11.696214757857641"><ele>317.42857142857144</ele><time>2026-03-22T09:26:18.999Z</time></trkpt><trkpt lat="43.42311101200462" lon="11.696112875604294"><ele>317.57142857142856</ele><time>2026-03-22T09:26:19.999Z</time></trkpt><trkpt lat="43.42310844887146" lon="11.696014826958717"><ele>317.7142857142857</ele><time>2026-03-22T09:26:20.999Z</time></trkpt><trkpt lat="43.42310986096511" lon="11.695915570031568"><ele>317.85714285714283</ele><time>2026-03-22T09:26:21.999Z</time></trkpt><trkpt lat="43.423114993789824" lon="11.695817878324744"><ele>318.0</ele><time>2026-03-22T09:26:22.999Z</time></trkpt><trkpt lat="43.423128023023594" lon="11.69572004670716"><ele>318.0</ele><time>2026-03-22T09:26:23.999Z</time></trkpt><trkpt lat="43.423144452299745" lon="11.695624399673662"><ele>318.0</ele><time>2026-03-22T09:26:24.999Z</time></trkpt><trkpt lat="43.42316518918905" lon="11.695530194417815"><ele>318.0</ele><time>2026-03-22T09:26:25.999Z</time></trkpt><trkpt lat="43.42318586434932" lon="11.695436398152612"><ele>318.0</ele><time>2026-03-22T09:26:26.999Z</time></trkpt><trkpt lat="43.42320661688114" lon="11.695341204154248"><ele>318.0</ele><time>2026-03-22T09:26:27.999Z</time></trkpt><trkpt lat="43.42322929098555" lon="11.695249740887892"><ele>318.0</ele><time>2026-03-22T09:26:28.999Z</time></trkpt><trkpt lat="43.423249607461955" lon="11.695161024339791"><ele>318.0</ele><time>2026-03-22T09:26:29.999Z</time></trkpt><trkpt lat="43.42327021522427" lon="11.695072294637932"><ele>317.1666666666667</ele><time>2026-03-22T09:26:30.999Z</time></trkpt><trkpt lat="43.42329124595276" lon="11.694985939878984"><ele>316.3333333333333</ele><time>2026-03-22T09:26:31.999Z</time></trkpt><trkpt lat="43.423311279094605" lon="11.694898874403089"><ele>315.5</ele><time>2026-03-22T09:26:32.999Z</time></trkpt><trkpt lat="43.42332968574142" lon="11.694815504541229"><ele>314.66666666666663</ele><time>2026-03-22T09:26:33.999Z</time></trkpt><trkpt lat="43.42336652908608" lon="11.694649882931568"><ele>313.8333333333333</ele><time>2026-03-22T09:26:35.999Z</time></trkpt><trkpt lat="43.423405114979616" lon="11.694483248231997"><ele>313.0</ele><time>2026-03-22T09:26:37.999Z</time></trkpt><trkpt lat="43.4234248663855" lon="11.694400076831716"><ele>312.3333333333333</ele><time>2026-03-22T09:26:38.999Z</time></trkpt><trkpt lat="43.42344296016523" lon="11.694315428247421"><ele>311.66666666666663</ele><time>2026-03-22T09:26:39.999Z</time></trkpt><trkpt lat="43.423464098296265" lon="11.694230834689039"><ele>311.0</ele><time>2026-03-22T09:26:40.999Z</time></trkpt><trkpt lat="43.42350189821411" lon="11.694067806213878"><ele>310.3333333333333</ele><time>2026-03-22T09:26:42.999Z</time></trkpt><trkpt lat="43.42352060409074" lon="11.693983272531096"><ele>309.6666666666667</ele><time>2026-03-22T09:26:43.999Z</time></trkpt><trkpt lat="43.42354268779857" lon="11.69389973220988"><ele>309.0</ele><time>2026-03-22T09:26:44.999Z</time></trkpt><trkpt lat="43.42358705284382" lon="11.693741264542357"><ele>309.0</ele><time>2026-03-22T09:26:46.999Z</time></trkpt><trkpt lat="43.42364273749903" lon="11.69359349408731"><ele>309.0</ele><time>2026-03-22T09:26:48.999Z</time></trkpt><trkpt lat="43.42367865494866" lon="11.693520209809634"><ele>309.0</ele><time>2026-03-22T09:26:49.999Z</time></trkpt><trkpt lat="43.42371615997717" lon="11.693447906185066"><ele>309.0</ele><time>2026-03-22T09:26:50.999Z</time></trkpt><trkpt lat="43.42379840620929" lon="11.693317318571543"><ele>309.0</ele><time>2026-03-22T09:26:52.999Z</time></trkpt><trkpt lat="43.42384103013281" lon="11.693247827290017"><ele>309.0</ele><time>2026-03-22T09:26:53.999Z</time></trkpt><trkpt lat="43.42388431069619" lon="11.693183017479642"><ele>308.8571428571429</ele><time>2026-03-22T09:26:54.999Z</time></trkpt><trkpt lat="43.42392627421229" lon="11.693116515256811"><ele>308.7142857142857</ele><time>2026-03-22T09:26:55.999Z</time></trkpt><trkpt lat="43.423968285636604" lon="11.693051177198754"><ele>308.57142857142856</ele><time>2026-03-22T09:26:56.999Z</time></trkpt><trkpt lat="43.42401215182684" lon="11.692983289330236"><ele>308.42857142857144</ele><time>2026-03-22T09:26:57.999Z</time></trkpt><trkpt lat="43.42405372232214" lon="11.692915161262837"><ele>308.2857142857143</ele><time>2026-03-22T09:26:58.999Z</time></trkpt><trkpt lat="43.4240972892539" lon="11.692845833087704"><ele>308.14285714285717</ele><time>2026-03-22T09:26:59.999Z</time></trkpt><trkpt lat="43.42414295627025" lon="11.692773052330876"><ele>308.0</ele><time>2026-03-22T09:27:00.999Z</time></trkpt><trkpt lat="43.4241846155112" lon="11.692703911032508"><ele>308.0</ele><time>2026-03-22T09:27:01.999Z</time></trkpt><trkpt lat="43.424224602073856" lon="11.692630468232048"><ele>308.0</ele><time>2026-03-22T09:27:02.999Z</time></trkpt><trkpt lat="43.42426640085541" lon="11.692549383705149"><ele>308.0</ele><time>2026-03-22T09:27:03.999Z</time></trkpt><trkpt lat="43.42430202340893" lon="11.692472308381072"><ele>308.0</ele><time>2026-03-22T09:27:04.999Z</time></trkpt><trkpt lat="43.42433779006775" lon="11.692391441840346"><ele>308.0</ele><time>2026-03-22T09:27:05.999Z</time></trkpt><trkpt lat="43.42436870641304" lon="11.692304910139365"><ele>308.0</ele><time>2026-03-22T09:27:06.999Z</time></trkpt><trkpt lat="43.424399209961244" lon="11.692221697432606"><ele>308.0</ele><time>2026-03-22T09:27:07.999Z</time></trkpt><trkpt lat="43.424430570822736" lon="11.692139830331943"><ele>308.0</ele><time>2026-03-22T09:27:08.999Z</time></trkpt><trkpt lat="43.42446218939595" lon="11.692052189533344"><ele>308.0</ele><time>2026-03-22T09:27:09.998Z</time></trkpt><trkpt lat="43.42449122542593" lon="11.691968753855685"><ele>308.0</ele><time>2026-03-22T09:27:10.998Z</time></trkpt><trkpt lat="43.42451787714003" lon="11.691882360144309"><ele>308.0</ele><time>2026-03-22T09:27:11.998Z</time></trkpt><trkpt lat="43.42454608961648" lon="11.69179801962505"><ele>308.0</ele><time>2026-03-22T09:27:12.998Z</time></trkpt><trkpt lat="43.4245752565204" lon="11.691713398250217"><ele>308.0</ele><time>2026-03-22T09:27:13.998Z</time></trkpt><trkpt lat="43.424604583675624" lon="11.691626179644746"><ele>308.0</ele><time>2026-03-22T09:27:14.998Z</time></trkpt><trkpt lat="43.42463355828802" lon="11.691539833393612"><ele>308.14285714285717</ele><time>2026-03-22T09:27:15.998Z</time></trkpt><trkpt lat="43.42466509152423" lon="11.691450970264535"><ele>308.2857142857143</ele><time>2026-03-22T09:27:16.998Z</time></trkpt><trkpt lat="43.42469217809083" lon="11.691366027146385"><ele>308.42857142857144</ele><time>2026-03-22T09:27:17.998Z</time></trkpt><trkpt lat="43.424725049126316" lon="11.691277674385969"><ele>308.57142857142856</ele><time>2026-03-22T09:27:18.998Z</time></trkpt><trkpt lat="43.424752702616104" lon="11.691187374561148"><ele>308.7142857142857</ele><time>2026-03-22T09:27:19.998Z</time></trkpt><trkpt lat="43.42477540032274" lon="11.691094652703788"><ele>308.8571428571429</ele><time>2026-03-22T09:27:20.998Z</time></trkpt><trkpt lat="43.424792355311375" lon="11.69100377544697"><ele>309.0</ele><time>2026-03-22T09:27:21.998Z</time></trkpt><trkpt lat="43.42480473888572" lon="11.690909866195474"><ele>309.00000000000006</ele><time>2026-03-22T09:27:22.998Z</time></trkpt><trkpt lat="43.42480921754108" lon="11.69081494068509"><ele>309.0</ele><time>2026-03-22T09:27:23.998Z</time></trkpt><trkpt lat="43.42481044628578" lon="11.690721911390206"><ele>309.0</ele><time>2026-03-22T09:27:24.998Z</time></trkpt><trkpt lat="43.4248084804997" lon="11.690628645562057"><ele>309.0</ele><time>2026-03-22T09:27:25.998Z</time></trkpt><trkpt lat="43.42479865269787" lon="11.690534390141904"><ele>309.0</ele><time>2026-03-22T09:27:26.998Z</time></trkpt><trkpt lat="43.42478282828272" lon="11.690443806928714"><ele>309.00000000000006</ele><time>2026-03-22T09:27:27.998Z</time></trkpt><trkpt lat="43.42476205930064" lon="11.690352274704145"><ele>309.0</ele><time>2026-03-22T09:27:28.998Z</time></trkpt><trkpt lat="43.42473895797595" lon="11.690260928232718"><ele>308.42857142857144</ele><time>2026-03-22T09:27:29.998Z</time></trkpt><trkpt lat="43.42470690330479" lon="11.69017405541422"><ele>307.8571428571429</ele><time>2026-03-22T09:27:30.998Z</time></trkpt><trkpt lat="43.42466869890977" lon="11.690090866455451"><ele>307.28571428571433</ele><time>2026-03-22T09:27:31.998Z</time></trkpt><trkpt lat="43.424631658573226" lon="11.690005536779044"><ele>306.7142857142857</ele><time>2026-03-22T09:27:32.998Z</time></trkpt><trkpt lat="43.42459509953386" lon="11.689918555020963"><ele>306.1428571428571</ele><time>2026-03-22T09:27:33.998Z</time></trkpt><trkpt lat="43.42455722407351" lon="11.689831296259593"><ele>305.5714285714286</ele><time>2026-03-22T09:27:34.998Z</time></trkpt><trkpt lat="43.4245220872679" lon="11.689744988729698"><ele>305.0</ele><time>2026-03-22T09:27:35.998Z</time></trkpt><trkpt lat="43.424490822659806" lon="11.689657038848265"><ele>305.0</ele><time>2026-03-22T09:27:36.998Z</time></trkpt><trkpt lat="43.42445812760723" lon="11.689569034479181"><ele>305.0</ele><time>2026-03-22T09:27:37.998Z</time></trkpt><trkpt lat="43.42443815024371" lon="11.68947346737173"><ele>305.0</ele><time>2026-03-22T09:27:38.998Z</time></trkpt><trkpt lat="43.42441996815146" lon="11.68937349619723"><ele>305.0</ele><time>2026-03-22T09:27:39.998Z</time></trkpt><trkpt lat="43.424406173071645" lon="11.689267589084162"><ele>305.0</ele><time>2026-03-22T09:27:40.998Z</time></trkpt><trkpt lat="43.424404493599056" lon="11.68916146181613"><ele>305.0</ele><time>2026-03-22T09:27:41.998Z</time></trkpt><trkpt lat="43.42440646056786" lon="11.68905376381165"><ele>304.6666666666667</ele><time>2026-03-22T09:27:42.998Z</time></trkpt><trkpt lat="43.42441092790947" lon="11.688941396914911"><ele>304.33333333333337</ele><time>2026-03-22T09:27:43.998Z</time></trkpt><trkpt lat="43.42442184307938" lon="11.68883370239527"><ele>304.0</ele><time>2026-03-22T09:27:44.998Z</time></trkpt><trkpt lat="43.42444032215766" lon="11.688725673135572"><ele>303.6666666666667</ele><time>2026-03-22T09:27:45.998Z</time></trkpt><trkpt lat="43.42447116136562" lon="11.688623592757455"><ele>303.3333333333333</ele><time>2026-03-22T09:27:47Z</time></trkpt><trkpt lat="43.42450382130945" lon="11.688520742230484"><ele>303.0</ele><time>2026-03-22T09:27:48Z</time></trkpt><trkpt lat="43.42453828017734" lon="11.68842023795855"><ele>302.6666666666667</ele><time>2026-03-22T09:27:49Z</time></trkpt><trkpt lat="43.42456622531975" lon="11.688317462200807"><ele>302.3333333333333</ele><time>2026-03-22T09:27:50Z</time></trkpt><trkpt lat="43.42459016381895" lon="11.688210741741106"><ele>302.0</ele><time>2026-03-22T09:27:51Z</time></trkpt><trkpt lat="43.42460562573949" lon="11.688100246094939"><ele>301.66666666666663</ele><time>2026-03-22T09:27:52Z</time></trkpt><trkpt lat="43.42462227575509" lon="11.687987944950434"><ele>301.3333333333333</ele><time>2026-03-22T09:27:53Z</time></trkpt><trkpt lat="43.424631101366124" lon="11.687878507336382"><ele>301.0</ele><time>2026-03-22T09:27:54Z</time></trkpt><trkpt lat="43.42463093013611" lon="11.687768272728457"><ele>300.66666666666663</ele><time>2026-03-22T09:27:55Z</time></trkpt><trkpt lat="43.4246240376242" lon="11.687657515676921"><ele>300.3333333333333</ele><time>2026-03-22T09:27:56Z</time></trkpt><trkpt lat="43.42460889923036" lon="11.687548939491366"><ele>300.0</ele><time>2026-03-22T09:27:57Z</time></trkpt><trkpt lat="43.424584919684115" lon="11.687441939409434"><ele>299.6666666666667</ele><time>2026-03-22T09:27:58Z</time></trkpt><trkpt lat="43.424554387477954" lon="11.68733698914317"><ele>299.33333333333337</ele><time>2026-03-22T09:27:59Z</time></trkpt><trkpt lat="43.42452270992476" lon="11.687232332974848"><ele>299.0</ele><time>2026-03-22T09:28:00Z</time></trkpt><trkpt lat="43.42449140968362" lon="11.687127763138067"><ele>299.0</ele><time>2026-03-22T09:28:01Z</time></trkpt><trkpt lat="43.424460433669864" lon="11.687024143391023"><ele>299.0</ele><time>2026-03-22T09:28:02Z</time></trkpt><trkpt lat="43.42443402259955" lon="11.686921176135371"><ele>299.0</ele><time>2026-03-22T09:28:03Z</time></trkpt><trkpt lat="43.424398657300756" lon="11.68681236712777"><ele>299.0</ele><time>2026-03-22T09:28:04Z</time></trkpt><trkpt lat="43.424368087786355" lon="11.686712871154551"><ele>299.0</ele><time>2026-03-22T09:28:05Z</time></trkpt><trkpt lat="43.424340269875024" lon="11.6866122586446"><ele>299.0</ele><time>2026-03-22T09:28:06Z</time></trkpt><trkpt lat="43.424312208819224" lon="11.686513349085677"><ele>299.1666666666667</ele><time>2026-03-22T09:28:07Z</time></trkpt><trkpt lat="43.4242791085324" lon="11.68641220324966"><ele>299.33333333333337</ele><time>2026-03-22T09:28:08Z</time></trkpt><trkpt lat="43.424251635336425" lon="11.686310880781257"><ele>299.5</ele><time>2026-03-22T09:28:09Z</time></trkpt><trkpt lat="43.424223058923225" lon="11.686210769650755"><ele>299.6666666666667</ele><time>2026-03-22T09:28:10Z</time></trkpt><trkpt lat="43.424193204382" lon="11.686114842202805"><ele>299.8333333333333</ele><time>2026-03-22T09:28:11Z</time></trkpt><trkpt lat="43.42416356168153" lon="11.686018027185412"><ele>300.0</ele><time>2026-03-22T09:28:12Z</time></trkpt><trkpt lat="43.42413510621181" lon="11.685920198364702"><ele>299.99999999999994</ele><time>2026-03-22T09:28:13Z</time></trkpt><trkpt lat="43.42410844593501" lon="11.685826700238426"><ele>300.0</ele><time>2026-03-22T09:28:14Z</time></trkpt><trkpt lat="43.424081330177515" lon="11.685730340869076"><ele>300.0</ele><time>2026-03-22T09:28:15Z</time></trkpt><trkpt lat="43.4240512022709" lon="11.685635030917194"><ele>300.0</ele><time>2026-03-22T09:28:16Z</time></trkpt><trkpt lat="43.42402427194305" lon="11.685541972042312"><ele>300.0</ele><time>2026-03-22T09:28:17Z</time></trkpt><trkpt lat="43.423990737821676" lon="11.685446500593931"><ele>299.99999999999994</ele><time>2026-03-22T09:28:18Z</time></trkpt><trkpt lat="43.42396467600486" lon="11.685351330291944"><ele>300.0</ele><time>2026-03-22T09:28:19Z</time></trkpt><trkpt lat="43.423938930266374" lon="11.685256787062615"><ele>300.1666666666667</ele><time>2026-03-22T09:28:20Z</time></trkpt><trkpt lat="43.42391079090166" lon="11.68516050861953"><ele>300.3333333333333</ele><time>2026-03-22T09:28:21Z</time></trkpt><trkpt lat="43.42388295471306" lon="11.685062356600852"><ele>300.5</ele><time>2026-03-22T09:28:22Z</time></trkpt><trkpt lat="43.42385657140171" lon="11.68496542525462"><ele>300.66666666666663</ele><time>2026-03-22T09:28:23Z</time></trkpt><trkpt lat="43.42382693993953" lon="11.684873665767457"><ele>300.8333333333333</ele><time>2026-03-22T09:28:24Z</time></trkpt><trkpt lat="43.42379725272604" lon="11.684779432600353"><ele>301.0</ele><time>2026-03-22T09:28:25Z</time></trkpt><trkpt lat="43.42377015458475" lon="11.684681604316737"><ele>300.14285714285717</ele><time>2026-03-22T09:28:26Z</time></trkpt><trkpt lat="43.42374424758095" lon="11.68458785460479"><ele>299.2857142857143</ele><time>2026-03-22T09:28:27Z</time></trkpt><trkpt lat="43.42371573929357" lon="11.684491521031479"><ele>298.42857142857144</ele><time>2026-03-22T09:28:28Z</time></trkpt><trkpt lat="43.42369270289284" lon="11.684396252201104"><ele>297.57142857142856</ele><time>2026-03-22T09:28:28.999Z</time></trkpt><trkpt lat="43.423670429212294" lon="11.684296477649383"><ele>296.7142857142857</ele><time>2026-03-22T09:28:29.999Z</time></trkpt><trkpt lat="43.42365637686409" lon="11.684197893438784"><ele>295.8571428571429</ele><time>2026-03-22T09:28:30.999Z</time></trkpt><trkpt lat="43.42364585812276" lon="11.684096927179862"><ele>295.0</ele><time>2026-03-22T09:28:31.999Z</time></trkpt><trkpt lat="43.42363813763541" lon="11.683994090519537"><ele>294.66666666666663</ele><time>2026-03-22T09:28:32.999Z</time></trkpt><trkpt lat="43.42363567815391" lon="11.683891879526785"><ele>294.3333333333333</ele><time>2026-03-22T09:28:33.999Z</time></trkpt><trkpt lat="43.42363693187989" lon="11.683788159739567"><ele>294.0</ele><time>2026-03-22T09:28:34.999Z</time></trkpt><trkpt lat="43.42363004202584" lon="11.68368478952683"><ele>293.6666666666667</ele><time>2026-03-22T09:28:35.999Z</time></trkpt><trkpt lat="43.42362645151788" lon="11.683581168895147"><ele>293.33333333333337</ele><time>2026-03-22T09:28:36.999Z</time></trkpt><trkpt lat="43.423620901816754" lon="11.683476584613603"><ele>293.0</ele><time>2026-03-22T09:28:37.999Z</time></trkpt><trkpt lat="43.42361364710012" lon="11.683374934037525"><ele>292.99999999999994</ele><time>2026-03-22T09:28:38.999Z</time></trkpt><trkpt lat="43.42360312556517" lon="11.683274212035997"><ele>293.0</ele><time>2026-03-22T09:28:39.999Z</time></trkpt><trkpt lat="43.4235867008043" lon="11.6831747614596"><ele>293.0</ele><time>2026-03-22T09:28:40.999Z</time></trkpt><trkpt lat="43.42356213745966" lon="11.683078647166402"><ele>293.0</ele><time>2026-03-22T09:28:41.999Z</time></trkpt><trkpt lat="43.42353355842964" lon="11.6829831488576"><ele>293.0</ele><time>2026-03-22T09:28:42.999Z</time></trkpt><trkpt lat="43.42350288589069" lon="11.68288826849643"><ele>292.99999999999994</ele><time>2026-03-22T09:28:43.999Z</time></trkpt><trkpt lat="43.423469373604235" lon="11.682793467422231"><ele>293.0</ele><time>2026-03-22T09:28:44.999Z</time></trkpt><trkpt lat="43.42344052660737" lon="11.68269738936229"><ele>292.99999999999994</ele><time>2026-03-22T09:28:45.999Z</time></trkpt><trkpt lat="43.42341355376807" lon="11.682603717788759"><ele>293.0</ele><time>2026-03-22T09:28:46.999Z</time></trkpt><trkpt lat="43.42338334716539" lon="11.682506519684527"><ele>293.0</ele><time>2026-03-22T09:28:47.999Z</time></trkpt><trkpt lat="43.423350182610484" lon="11.682411979561454"><ele>293.0</ele><time>2026-03-22T09:28:48.999Z</time></trkpt><trkpt lat="43.423322263743366" lon="11.682321312236429"><ele>293.0</ele><time>2026-03-22T09:28:49.999Z</time></trkpt><trkpt lat="43.42329145081968" lon="11.68223153923745"><ele>292.99999999999994</ele><time>2026-03-22T09:28:50.999Z</time></trkpt><trkpt lat="43.42325912387564" lon="11.682143458253044"><ele>293.0</ele><time>2026-03-22T09:28:51.999Z</time></trkpt><trkpt lat="43.42322130251714" lon="11.682059005809906"><ele>292.99999999999994</ele><time>2026-03-22T09:28:52.999Z</time></trkpt><trkpt lat="43.42318552123965" lon="11.681976438008416"><ele>293.0</ele><time>2026-03-22T09:28:53.999Z</time></trkpt><trkpt lat="43.423147747859865" lon="11.681897115802174"><ele>293.0</ele><time>2026-03-22T09:28:54.999Z</time></trkpt><trkpt lat="43.423108633535" lon="11.681819773144797"><ele>293.0</ele><time>2026-03-22T09:28:55.999Z</time></trkpt><trkpt lat="43.423067746080314" lon="11.681742053962337"><ele>293.0</ele><time>2026-03-22T09:28:56.999Z</time></trkpt><trkpt lat="43.42302663879304" lon="11.681667443710134"><ele>292.99999999999994</ele><time>2026-03-22T09:28:57.999Z</time></trkpt><trkpt lat="43.42299194411782" lon="11.681590023736549"><ele>293.0</ele><time>2026-03-22T09:28:58.999Z</time></trkpt><trkpt lat="43.42295545262529" lon="11.681518516857023"><ele>292.6</ele><time>2026-03-22T09:28:59.999Z</time></trkpt><trkpt lat="43.422917938105094" lon="11.681446262910882"><ele>292.20000000000005</ele><time>2026-03-22T09:29:00.999Z</time></trkpt><trkpt lat="43.42288306494246" lon="11.681369568920706"><ele>291.8</ele><time>2026-03-22T09:29:01.999Z</time></trkpt><trkpt lat="43.42281397389224" lon="11.681235404927055"><ele>291.40000000000003</ele><time>2026-03-22T09:29:03.999Z</time></trkpt><trkpt lat="43.42274365857944" lon="11.68110112209692"><ele>291.0</ele><time>2026-03-22T09:29:05.999Z</time></trkpt><trkpt lat="43.42267398557121" lon="11.680969816192615"><ele>291.0</ele><time>2026-03-22T09:29:07.999Z</time></trkpt><trkpt lat="43.422601634095656" lon="11.680841677572545"><ele>291.0</ele><time>2026-03-22T09:29:09.999Z</time></trkpt><trkpt lat="43.422532320649744" lon="11.680715081193345"><ele>291.0</ele><time>2026-03-22T09:29:11.999Z</time></trkpt><trkpt lat="43.42245850189688" lon="11.68058933761629"><ele>291.0</ele><time>2026-03-22T09:29:13.999Z</time></trkpt><trkpt lat="43.42238290885929" lon="11.680464921254485"><ele>291.0</ele><time>2026-03-22T09:29:15.999Z</time></trkpt><trkpt lat="43.422312001684745" lon="11.68033787095743"><ele>291.0</ele><time>2026-03-22T09:29:17.999Z</time></trkpt><trkpt lat="43.42224767455294" lon="11.680214513362575"><ele>291.0</ele><time>2026-03-22T09:29:19.999Z</time></trkpt><trkpt lat="43.422174356111945" lon="11.680074890906951"><ele>291.0</ele><time>2026-03-22T09:29:21.998Z</time></trkpt><trkpt lat="43.422136023133646" lon="11.680002954449572"><ele>291.0</ele><time>2026-03-22T09:29:22.998Z</time></trkpt><trkpt lat="43.422102422714666" lon="11.679926089528553"><ele>290.57142857142856</ele><time>2026-03-22T09:29:23.998Z</time></trkpt><trkpt lat="43.422072080957754" lon="11.679849456581435"><ele>290.1428571428571</ele><time>2026-03-22T09:29:24.998Z</time></trkpt><trkpt lat="43.42205097790275" lon="11.679765681814489"><ele>289.7142857142857</ele><time>2026-03-22T09:29:25.998Z</time></trkpt><trkpt lat="43.42204129832315" lon="11.679634536143478"><ele>289.2857142857143</ele><time>2026-03-22T09:29:27.998Z</time></trkpt><trkpt lat="43.422013264470934" lon="11.679535222522265"><ele>288.8571428571429</ele><time>2026-03-22T09:30:10Z</time></trkpt><trkpt lat="43.42200694624773" lon="11.679429009716205"><ele>288.42857142857144</ele><time>2026-03-22T09:30:13Z</time></trkpt><trkpt lat="43.42200262377792" lon="11.679336561990313"><ele>288.0</ele><time>2026-03-22T09:30:15Z</time></trkpt><trkpt lat="43.4219978280753" lon="11.67922998070982"><ele>288.0</ele><time>2026-03-22T09:30:17Z</time></trkpt><trkpt lat="43.4219945139276" lon="11.679114649748936"><ele>288.0</ele><time>2026-03-22T09:30:19Z</time></trkpt><trkpt lat="43.42198976927622" lon="11.678989494074393"><ele>288.0</ele><time>2026-03-22T09:30:21Z</time></trkpt><trkpt lat="43.42198315704811" lon="11.678842273118876"><ele>288.0</ele><time>2026-03-22T09:30:23Z</time></trkpt><trkpt lat="43.42197636514227" lon="11.678693834375412"><ele>288.0</ele><time>2026-03-22T09:30:25Z</time></trkpt><trkpt lat="43.421965979459344" lon="11.678530969924314"><ele>287.8333333333333</ele><time>2026-03-22T09:30:27Z</time></trkpt><trkpt lat="43.421958392677084" lon="11.678356934277327"><ele>287.6666666666667</ele><time>2026-03-22T09:30:29Z</time></trkpt><trkpt lat="43.421954469764344" lon="11.678265366512623"><ele>287.5</ele><time>2026-03-22T09:30:30Z</time></trkpt><trkpt lat="43.421947966479486" lon="11.678169620234645"><ele>287.33333333333337</ele><time>2026-03-22T09:30:30.999Z</time></trkpt><trkpt lat="43.42194136457406" lon="11.678073155383503"><ele>287.1666666666667</ele><time>2026-03-22T09:30:31.999Z</time></trkpt><trkpt lat="43.42193497785717" lon="11.67796876185952"><ele>287.0</ele><time>2026-03-22T09:30:32.999Z</time></trkpt><trkpt lat="43.42193231482999" lon="11.677866494999595"><ele>286.6666666666667</ele><time>2026-03-22T09:30:33.999Z</time></trkpt><trkpt lat="43.42192394909186" lon="11.677760216054907"><ele>286.33333333333337</ele><time>2026-03-22T09:30:34.999Z</time></trkpt><trkpt lat="43.42191586443008" lon="11.6776539205183"><ele>286.0</ele><time>2026-03-22T09:30:35.999Z</time></trkpt><trkpt lat="43.42190277389904" lon="11.677549881821868"><ele>285.6666666666667</ele><time>2026-03-22T09:30:36.999Z</time></trkpt><trkpt lat="43.42189434804937" lon="11.677444410802567"><ele>285.3333333333333</ele><time>2026-03-22T09:30:37.999Z</time></trkpt><trkpt lat="43.42188182703356" lon="11.677335633047385"><ele>285.0</ele><time>2026-03-22T09:30:38.999Z</time></trkpt><trkpt lat="43.421870903627045" lon="11.677228908834193"><ele>285.0</ele><time>2026-03-22T09:30:39.999Z</time></trkpt><trkpt lat="43.42185913261905" lon="11.677123673136498"><ele>285.0</ele><time>2026-03-22T09:30:40.999Z</time></trkpt><trkpt lat="43.42184508623857" lon="11.677020647427176"><ele>285.0</ele><time>2026-03-22T09:30:41.999Z</time></trkpt><trkpt lat="43.42183377839373" lon="11.676919543810856"><ele>285.0</ele><time>2026-03-22T09:30:42.999Z</time></trkpt><trkpt lat="43.42182250547269" lon="11.676820761999688"><ele>285.0</ele><time>2026-03-22T09:30:43.999Z</time></trkpt><trkpt lat="43.42181119162197" lon="11.676721347003689"><ele>285.0</ele><time>2026-03-22T09:30:44.999Z</time></trkpt><trkpt lat="43.42180200278006" lon="11.676623324723108"><ele>285.0</ele><time>2026-03-22T09:30:45.999Z</time></trkpt><trkpt lat="43.42179062058936" lon="11.676518663322051"><ele>285.1666666666667</ele><time>2026-03-22T09:30:46.999Z</time></trkpt><trkpt lat="43.421779791849865" lon="11.676415183471137"><ele>285.3333333333333</ele><time>2026-03-22T09:30:47.999Z</time></trkpt><trkpt lat="43.421768745704014" lon="11.676311336930828"><ele>285.5</ele><time>2026-03-22T09:30:48.999Z</time></trkpt><trkpt lat="43.421756221276155" lon="11.676208216277399"><ele>285.66666666666663</ele><time>2026-03-22T09:30:49.999Z</time></trkpt><trkpt lat="43.42174581965069" lon="11.676104132943541"><ele>285.8333333333333</ele><time>2026-03-22T09:30:50.999Z</time></trkpt><trkpt lat="43.421733560919876" lon="11.676000167244332"><ele>286.0</ele><time>2026-03-22T09:30:51.999Z</time></trkpt><trkpt lat="43.4217239165734" lon="11.6758975112011"><ele>286.0</ele><time>2026-03-22T09:30:52.999Z</time></trkpt><trkpt lat="43.42171353137942" lon="11.675792628499494"><ele>286.0</ele><time>2026-03-22T09:30:53.999Z</time></trkpt><trkpt lat="43.42170048666222" lon="11.675686239484271"><ele>286.0</ele><time>2026-03-22T09:30:54.999Z</time></trkpt><trkpt lat="43.42168762605533" lon="11.675583803550875"><ele>286.0</ele><time>2026-03-22T09:30:55.999Z</time></trkpt><trkpt lat="43.42167463960442" lon="11.675479787865797"><ele>286.0</ele><time>2026-03-22T09:30:56.999Z</time></trkpt><trkpt lat="43.4216664792255" lon="11.67538113105564"><ele>286.0</ele><time>2026-03-22T09:30:57.999Z</time></trkpt><trkpt lat="43.421654198467074" lon="11.675277026692932"><ele>285.99999999999994</ele><time>2026-03-22T09:30:58.999Z</time></trkpt><trkpt lat="43.42164176605577" lon="11.675179623006624"><ele>286.0</ele><time>2026-03-22T09:30:59.999Z</time></trkpt><trkpt lat="43.42162877735568" lon="11.675085063205586"><ele>286.0</ele><time>2026-03-22T09:31:00.999Z</time></trkpt><trkpt lat="43.42161271486035" lon="11.674987994191856"><ele>286.0</ele><time>2026-03-22T09:31:01.999Z</time></trkpt><trkpt lat="43.421599739877216" lon="11.674892512175482"><ele>286.0</ele><time>2026-03-22T09:31:02.999Z</time></trkpt><trkpt lat="43.42157622020921" lon="11.674798379729165"><ele>285.99999999999994</ele><time>2026-03-22T09:31:03.999Z</time></trkpt><trkpt lat="43.421556299096494" lon="11.674704574139058"><ele>286.0</ele><time>2026-03-22T09:31:04.999Z</time></trkpt><trkpt lat="43.4215392514331" lon="11.674611990362038"><ele>285.99999999999994</ele><time>2026-03-22T09:31:05.999Z</time></trkpt><trkpt lat="43.42151658133203" lon="11.674518445938897"><ele>286.0</ele><time>2026-03-22T09:31:06.999Z</time></trkpt><trkpt lat="43.42149524762346" lon="11.674426268649961"><ele>286.0</ele><time>2026-03-22T09:31:07.999Z</time></trkpt><trkpt lat="43.42148002384987" lon="11.674333254027761"><ele>286.0</ele><time>2026-03-22T09:31:08.999Z</time></trkpt><trkpt lat="43.421460435014545" lon="11.674240165738581"><ele>286.0</ele><time>2026-03-22T09:31:09.999Z</time></trkpt><trkpt lat="43.42143846917121" lon="11.674143585333338"><ele>285.99999999999994</ele><time>2026-03-22T09:31:10.999Z</time></trkpt><trkpt lat="43.421420043697765" lon="11.67405261006465"><ele>286.0</ele><time>2026-03-22T09:31:11.999Z</time></trkpt><trkpt lat="43.42140098138306" lon="11.673959463667671"><ele>286.4285714285714</ele><time>2026-03-22T09:31:12.999Z</time></trkpt><trkpt lat="43.421381782435795" lon="11.673864773500062"><ele>286.85714285714283</ele><time>2026-03-22T09:31:13.999Z</time></trkpt><trkpt lat="43.42136166929548" lon="11.673773980821645"><ele>287.2857142857143</ele><time>2026-03-22T09:31:14.999Z</time></trkpt><trkpt lat="43.42134387436111" lon="11.673683602445921"><ele>287.71428571428567</ele><time>2026-03-22T09:31:15.999Z</time></trkpt><trkpt lat="43.42132436278832" lon="11.673591696695294"><ele>288.1428571428571</ele><time>2026-03-22T09:31:16.999Z</time></trkpt><trkpt lat="43.42130535350202" lon="11.673501314158731"><ele>288.57142857142856</ele><time>2026-03-22T09:31:17.999Z</time></trkpt><trkpt lat="43.421287697810804" lon="11.673410902390053"><ele>289.0</ele><time>2026-03-22T09:31:18.999Z</time></trkpt><trkpt lat="43.42127195530996" lon="11.673321952355728"><ele>289.14285714285717</ele><time>2026-03-22T09:31:19.999Z</time></trkpt><trkpt lat="43.42126172198942" lon="11.673231511759464"><ele>289.2857142857143</ele><time>2026-03-22T09:31:20.999Z</time></trkpt><trkpt lat="43.42125708781027" lon="11.673142327088234"><ele>289.42857142857144</ele><time>2026-03-22T09:31:21.999Z</time></trkpt><trkpt lat="43.42125571771361" lon="11.67305416456843"><ele>289.57142857142856</ele><time>2026-03-22T09:31:22.998Z</time></trkpt><trkpt lat="43.42126900602838" lon="11.672888103305652"><ele>289.7142857142857</ele><time>2026-03-22T09:31:24.998Z</time></trkpt><trkpt lat="43.421280909817185" lon="11.67280259695184"><ele>289.8571428571429</ele><time>2026-03-22T09:31:25.998Z</time></trkpt><trkpt lat="43.42129918184959" lon="11.672718606419894"><ele>290.0</ele><time>2026-03-22T09:31:26.998Z</time></trkpt><trkpt lat="43.42134233587123" lon="11.672557465620958"><ele>290.0</ele><time>2026-03-22T09:31:28.998Z</time></trkpt><trkpt lat="43.42136731329095" lon="11.672477205988653"><ele>290.0</ele><time>2026-03-22T09:31:29.998Z</time></trkpt><trkpt lat="43.421425596447285" lon="11.672322340948394"><ele>290.0</ele><time>2026-03-22T09:31:31.998Z</time></trkpt><trkpt lat="43.42145366291997" lon="11.672242488474359"><ele>290.0</ele><time>2026-03-22T09:31:32.998Z</time></trkpt><trkpt lat="43.42151060916164" lon="11.67208184682492"><ele>290.0</ele><time>2026-03-22T09:31:34.998Z</time></trkpt><trkpt lat="43.42156826232218" lon="11.67192578761591"><ele>288.8571428571429</ele><time>2026-03-22T09:31:36.998Z</time></trkpt><trkpt lat="43.421596795297965" lon="11.671846862016515"><ele>287.7142857142857</ele><time>2026-03-22T09:31:37.998Z</time></trkpt><trkpt lat="43.42162670712902" lon="11.671765171463084"><ele>286.57142857142856</ele><time>2026-03-22T09:31:38.998Z</time></trkpt><trkpt lat="43.42165366857202" lon="11.67168525288399"><ele>285.42857142857144</ele><time>2026-03-22T09:31:39.998Z</time></trkpt><trkpt lat="43.42168378816417" lon="11.671607055042578"><ele>284.2857142857143</ele><time>2026-03-22T09:31:40.998Z</time></trkpt><trkpt lat="43.421713379729425" lon="11.671526362888265"><ele>283.14285714285717</ele><time>2026-03-22T09:31:41.998Z</time></trkpt><trkpt lat="43.421739666188806" lon="11.671441091022702"><ele>282.0</ele><time>2026-03-22T09:31:42.998Z</time></trkpt><trkpt lat="43.42176580339276" lon="11.671357872415385"><ele>282.0</ele><time>2026-03-22T09:31:43.998Z</time></trkpt><trkpt lat="43.421793518470075" lon="11.67127758596253"><ele>282.0</ele><time>2026-03-22T09:31:44.998Z</time></trkpt><trkpt lat="43.42182475795173" lon="11.671199224568966"><ele>282.0</ele><time>2026-03-22T09:31:45.998Z</time></trkpt><trkpt lat="43.42188021401525" lon="11.671043462919682"><ele>282.0</ele><time>2026-03-22T09:31:47.998Z</time></trkpt><trkpt lat="43.42193392727703" lon="11.670892285653713"><ele>282.0</ele><time>2026-03-22T09:31:49.998Z</time></trkpt><trkpt lat="43.42198375480825" lon="11.670738423739486"><ele>280.75</ele><time>2026-03-22T09:31:51.998Z</time></trkpt><trkpt lat="43.42202679335711" lon="11.670585732431723"><ele>279.5</ele><time>2026-03-22T09:31:53.998Z</time></trkpt><trkpt lat="43.42206788633883" lon="11.670438816710195"><ele>278.25</ele><time>2026-03-22T09:31:55.998Z</time></trkpt><trkpt lat="43.42209935033075" lon="11.670293716335149"><ele>277.0</ele><time>2026-03-22T09:31:57.998Z</time></trkpt><trkpt lat="43.422117034796635" lon="11.67014700055368"><ele>276.8</ele><time>2026-03-22T09:32:00Z</time></trkpt><trkpt lat="43.422128676825054" lon="11.670011834060784"><ele>276.6</ele><time>2026-03-22T09:32:02Z</time></trkpt><trkpt lat="43.422133649101134" lon="11.669876604230318"><ele>276.40000000000003</ele><time>2026-03-22T09:32:04Z</time></trkpt><trkpt lat="43.42213523566432" lon="11.669745716615276"><ele>276.2</ele><time>2026-03-22T09:32:06Z</time></trkpt><trkpt lat="43.42213518926784" lon="11.669616479837014"><ele>276.0</ele><time>2026-03-22T09:32:08Z</time></trkpt><trkpt lat="43.42214152489862" lon="11.669474799490025"><ele>276.8</ele><time>2026-03-22T09:32:10Z</time></trkpt><trkpt lat="43.42216228596298" lon="11.66932935280146"><ele>277.6</ele><time>2026-03-22T09:32:12Z</time></trkpt><trkpt lat="43.422187992167274" lon="11.669183429068573"><ele>278.4</ele><time>2026-03-22T09:32:14Z</time></trkpt><trkpt lat="43.422219170196584" lon="11.669046988532655"><ele>279.2</ele><time>2026-03-22T09:32:16Z</time></trkpt><trkpt lat="43.42225376157154" lon="11.668911586109566"><ele>280.0</ele><time>2026-03-22T09:32:18Z</time></trkpt><trkpt lat="43.42228103013598" lon="11.668770730647848"><ele>280.0</ele><time>2026-03-22T09:32:20Z</time></trkpt><trkpt lat="43.4223192978604" lon="11.668633548275471"><ele>280.0</ele><time>2026-03-22T09:32:22Z</time></trkpt><trkpt lat="43.42235899176765" lon="11.668489132371178"><ele>280.0</ele><time>2026-03-22T09:32:24Z</time></trkpt><trkpt lat="43.42241486335875" lon="11.668349501450225"><ele>280.0</ele><time>2026-03-22T09:32:26Z</time></trkpt><trkpt lat="43.42247481721005" lon="11.668207888711612"><ele>279.75</ele><time>2026-03-22T09:32:28Z</time></trkpt><trkpt lat="43.4225428306253" lon="11.6680715939593"><ele>279.5</ele><time>2026-03-22T09:32:30Z</time></trkpt><trkpt lat="43.42261078248177" lon="11.66792686613266"><ele>279.25</ele><time>2026-03-22T09:32:32Z</time></trkpt><trkpt lat="43.4226739447571" lon="11.667781394679167"><ele>279.0</ele><time>2026-03-22T09:32:34Z</time></trkpt><trkpt lat="43.42273816005854" lon="11.667641201189623"><ele>277.75</ele><time>2026-03-22T09:32:36Z</time></trkpt><trkpt lat="43.42280239714655" lon="11.667501030714595"><ele>276.5</ele><time>2026-03-22T09:32:38Z</time></trkpt><trkpt lat="43.422866393275086" lon="11.667358724405165"><ele>275.25</ele><time>2026-03-22T09:32:40Z</time></trkpt><trkpt lat="43.42293526182881" lon="11.66722061959742"><ele>274.0</ele><time>2026-03-22T09:32:41.999Z</time></trkpt><trkpt lat="43.42300086826842" lon="11.66707765916402"><ele>274.25</ele><time>2026-03-22T09:32:43.999Z</time></trkpt><trkpt lat="43.42306399075414" lon="11.666940648728444"><ele>274.5</ele><time>2026-03-22T09:32:45.999Z</time></trkpt><trkpt lat="43.423127834531854" lon="11.66680995980324"><ele>274.75</ele><time>2026-03-22T09:32:47.999Z</time></trkpt><trkpt lat="43.42318814418768" lon="11.666679799421738"><ele>275.0</ele><time>2026-03-22T09:32:49.999Z</time></trkpt><trkpt lat="43.42324941669281" lon="11.6665551927812"><ele>275.0</ele><time>2026-03-22T09:32:51.999Z</time></trkpt><trkpt lat="43.42330986010774" lon="11.666429117275047"><ele>275.0</ele><time>2026-03-22T09:32:53.999Z</time></trkpt><trkpt lat="43.42337312461458" lon="11.66629992063345"><ele>275.0</ele><time>2026-03-22T09:32:55.999Z</time></trkpt><trkpt lat="43.423437746140166" lon="11.666167102579701"><ele>275.0</ele><time>2026-03-22T09:32:57.999Z</time></trkpt><trkpt lat="43.423507071938864" lon="11.666036030716748"><ele>275.0</ele><time>2026-03-22T09:32:59.999Z</time></trkpt><trkpt lat="43.423575218929756" lon="11.665907757865282"><ele>275.0</ele><time>2026-03-22T09:33:01.999Z</time></trkpt><trkpt lat="43.423656256918804" lon="11.66578493430217"><ele>275.0</ele><time>2026-03-22T09:33:03.999Z</time></trkpt><trkpt lat="43.42373370078388" lon="11.665657201546383"><ele>275.0</ele><time>2026-03-22T09:33:05.999Z</time></trkpt><trkpt lat="43.423817861185015" lon="11.665531195588127"><ele>275.0</ele><time>2026-03-22T09:33:07.999Z</time></trkpt><trkpt lat="43.42385872937835" lon="11.665464028771467"><ele>275.0</ele><time>2026-03-22T09:33:08.999Z</time></trkpt><trkpt lat="43.423901952413374" lon="11.665394841827359"><ele>275.0</ele><time>2026-03-22T09:33:09.999Z</time></trkpt><trkpt lat="43.42394621039457" lon="11.665325950491212"><ele>275.0</ele><time>2026-03-22T09:33:10.999Z</time></trkpt><trkpt lat="43.42399145473524" lon="11.665258333355792"><ele>275.0</ele><time>2026-03-22T09:33:11.999Z</time></trkpt><trkpt lat="43.424040966848025" lon="11.665192772734175"><ele>275.0</ele><time>2026-03-22T09:33:12.999Z</time></trkpt><trkpt lat="43.424094082415415" lon="11.665133615830829"><ele>275.0</ele><time>2026-03-22T09:33:13.999Z</time></trkpt><trkpt lat="43.424150844609244" lon="11.665076328510207"><ele>274.14285714285717</ele><time>2026-03-22T09:33:14.999Z</time></trkpt><trkpt lat="43.42420976797386" lon="11.66502449809144"><ele>273.2857142857143</ele><time>2026-03-22T09:33:15.999Z</time></trkpt><trkpt lat="43.424272146033395" lon="11.664975806657905"><ele>272.42857142857144</ele><time>2026-03-22T09:33:16.999Z</time></trkpt><trkpt lat="43.4243381575074" lon="11.66494450810516"><ele>271.57142857142856</ele><time>2026-03-22T09:33:17.999Z</time></trkpt><trkpt lat="43.42440643530168" lon="11.66491017612652"><ele>270.7142857142857</ele><time>2026-03-22T09:33:18.999Z</time></trkpt><trkpt lat="43.424473808880435" lon="11.664881067727347"><ele>269.8571428571429</ele><time>2026-03-22T09:33:19.999Z</time></trkpt><trkpt lat="43.42454411503847" lon="11.66486048483348"><ele>269.0</ele><time>2026-03-22T09:33:20.999Z</time></trkpt><trkpt lat="43.42467381064675" lon="11.664815064967328"><ele>269.0</ele><time>2026-03-22T09:33:22.999Z</time></trkpt><trkpt lat="43.42473642970825" lon="11.664792166711822"><ele>269.0</ele><time>2026-03-22T09:33:23.999Z</time></trkpt><trkpt lat="43.424799533808994" lon="11.664765600557288"><ele>269.0</ele><time>2026-03-22T09:33:24.999Z</time></trkpt><trkpt lat="43.424923824472074" lon="11.664722060235798"><ele>269.0</ele><time>2026-03-22T09:33:26.999Z</time></trkpt><trkpt lat="43.42498686187986" lon="11.664697418109865"><ele>269.0</ele><time>2026-03-22T09:33:27.999Z</time></trkpt><trkpt lat="43.42504993600514" lon="11.6646741598514"><ele>269.0</ele><time>2026-03-22T09:33:28.999Z</time></trkpt><trkpt lat="43.42511447155183" lon="11.664653402936116"><ele>269.0</ele><time>2026-03-22T09:33:29.999Z</time></trkpt><trkpt lat="43.425176797582566" lon="11.664630034816978"><ele>269.0</ele><time>2026-03-22T09:33:30.999Z</time></trkpt><trkpt lat="43.42524198149196" lon="11.6646065835851"><ele>269.0</ele><time>2026-03-22T09:33:31.998Z</time></trkpt><trkpt lat="43.425305990253044" lon="11.664583968047015"><ele>269.0</ele><time>2026-03-22T09:33:32.998Z</time></trkpt><trkpt lat="43.42537323157755" lon="11.66456179152107"><ele>269.0</ele><time>2026-03-22T09:33:33.998Z</time></trkpt><trkpt lat="43.425440568405286" lon="11.664538555519023"><ele>269.0</ele><time>2026-03-22T09:33:34.998Z</time></trkpt><trkpt lat="43.42550620731529" lon="11.664514227314058"><ele>269.0</ele><time>2026-03-22T09:33:35.998Z</time></trkpt><trkpt lat="43.425569957348124" lon="11.66448909255806"><ele>269.14285714285717</ele><time>2026-03-22T09:33:36.998Z</time></trkpt><trkpt lat="43.425634764941634" lon="11.664465813542254"><ele>269.28571428571433</ele><time>2026-03-22T09:33:37.998Z</time></trkpt><trkpt lat="43.42570155765724" lon="11.664443290210308"><ele>269.42857142857144</ele><time>2026-03-22T09:33:38.998Z</time></trkpt><trkpt lat="43.4257649009511" lon="11.664418061263792"><ele>269.57142857142856</ele><time>2026-03-22T09:33:39.998Z</time></trkpt><trkpt lat="43.42582965893742" lon="11.66439602831572"><ele>269.71428571428567</ele><time>2026-03-22T09:33:40.998Z</time></trkpt><trkpt lat="43.425893738005556" lon="11.66437561844466"><ele>269.85714285714283</ele><time>2026-03-22T09:33:41.998Z</time></trkpt><trkpt lat="43.425955937973875" lon="11.664352161038149"><ele>270.0</ele><time>2026-03-22T09:33:42.998Z</time></trkpt><trkpt lat="43.42606959914884" lon="11.66430678057084"><ele>269.1666666666667</ele><time>2026-03-22T09:33:44.998Z</time></trkpt><trkpt lat="43.42614092733307" lon="11.664304335600283"><ele>268.3333333333333</ele><time>2026-03-22T09:33:46.998Z</time></trkpt><trkpt lat="43.426215060919816" lon="11.664252691109569"><ele>267.5</ele><time>2026-03-22T09:35:41.998Z</time></trkpt><trkpt lat="43.42627418101803" lon="11.664219424210476"><ele>266.66666666666663</ele><time>2026-03-22T09:35:43.998Z</time></trkpt><trkpt lat="43.42634623999274" lon="11.664193724203647"><ele>265.8333333333333</ele><time>2026-03-22T09:35:45.998Z</time></trkpt><trkpt lat="43.426427165602306" lon="11.664150954768173"><ele>265.0</ele><time>2026-03-22T09:35:47.998Z</time></trkpt><trkpt lat="43.42651692773557" lon="11.66409929815476"><ele>265.0</ele><time>2026-03-22T09:35:49.998Z</time></trkpt><trkpt lat="43.42661756393011" lon="11.664042199982525"><ele>265.0</ele><time>2026-03-22T09:35:51.998Z</time></trkpt><trkpt lat="43.42672181769639" lon="11.663973931982941"><ele>265.0</ele><time>2026-03-22T09:35:53.998Z</time></trkpt><trkpt lat="43.426829733222746" lon="11.663902427169525"><ele>265.0</ele><time>2026-03-22T09:35:55.998Z</time></trkpt><trkpt lat="43.426943238840984" lon="11.66383529843037"><ele>265.0</ele><time>2026-03-22T09:35:57.998Z</time></trkpt><trkpt lat="43.42700001811228" lon="11.663796748114283"><ele>265.0</ele><time>2026-03-22T09:35:58.998Z</time></trkpt><trkpt lat="43.42705657143545" lon="11.663757726089539"><ele>265.0</ele><time>2026-03-22T09:35:59.998Z</time></trkpt><trkpt lat="43.42716958279178" lon="11.663688598079961"><ele>265.0</ele><time>2026-03-22T09:36:01.998Z</time></trkpt><trkpt lat="43.427277077550094" lon="11.663615286478032"><ele>265.0</ele><time>2026-03-22T09:36:03.998Z</time></trkpt><trkpt lat="43.42733626300836" lon="11.663581624078525"><ele>265.0</ele><time>2026-03-22T09:36:04.998Z</time></trkpt><trkpt lat="43.42739354593704" lon="11.663543997584112"><ele>264.3333333333333</ele><time>2026-03-22T09:36:05.998Z</time></trkpt><trkpt lat="43.42750919617927" lon="11.663475111517235"><ele>263.66666666666663</ele><time>2026-03-22T09:36:07.998Z</time></trkpt><trkpt lat="43.42756569164052" lon="11.663433836085902"><ele>263.0</ele><time>2026-03-22T09:36:08.998Z</time></trkpt><trkpt lat="43.42762474766195" lon="11.663395871721171"><ele>262.3333333333333</ele><time>2026-03-22T09:36:09.998Z</time></trkpt><trkpt lat="43.42768494650093" lon="11.663358645715658"><ele>261.6666666666667</ele><time>2026-03-22T09:36:11Z</time></trkpt><trkpt lat="43.42774448235798" lon="11.663321109595396"><ele>261.0</ele><time>2026-03-22T09:36:12Z</time></trkpt><trkpt lat="43.42780508668099" lon="11.663279624944257"><ele>261.0</ele><time>2026-03-22T09:36:13Z</time></trkpt><trkpt lat="43.427864950487326" lon="11.663238737899812"><ele>261.0</ele><time>2026-03-22T09:36:14Z</time></trkpt><trkpt lat="43.42792777119117" lon="11.663202208480568"><ele>261.0</ele><time>2026-03-22T09:36:15Z</time></trkpt><trkpt lat="43.42799088916578" lon="11.663163467521366"><ele>261.0</ele><time>2026-03-22T09:36:16Z</time></trkpt><trkpt lat="43.42805291410791" lon="11.663125661617471"><ele>261.0</ele><time>2026-03-22T09:36:17Z</time></trkpt><trkpt lat="43.4281148238432" lon="11.663087695503046"><ele>261.0</ele><time>2026-03-22T09:36:18Z</time></trkpt><trkpt lat="43.42817496272659" lon="11.66304676732975"><ele>261.0</ele><time>2026-03-22T09:36:19Z</time></trkpt><trkpt lat="43.42823759676782" lon="11.663010146697822"><ele>260.8571428571429</ele><time>2026-03-22T09:36:20Z</time></trkpt><trkpt lat="43.428298101839545" lon="11.662970247221294"><ele>260.7142857142857</ele><time>2026-03-22T09:36:21Z</time></trkpt><trkpt lat="43.42835728278898" lon="11.662930362401918"><ele>260.57142857142856</ele><time>2026-03-22T09:36:22Z</time></trkpt><trkpt lat="43.428413135987995" lon="11.662890266115387"><ele>260.42857142857144</ele><time>2026-03-22T09:36:23Z</time></trkpt><trkpt lat="43.42847136870103" lon="11.662855637417401"><ele>260.2857142857143</ele><time>2026-03-22T09:36:24Z</time></trkpt><trkpt lat="43.428529681451934" lon="11.66282227868216"><ele>260.14285714285717</ele><time>2026-03-22T09:36:25Z</time></trkpt><trkpt lat="43.42863962299946" lon="11.662746875198645"><ele>260.0</ele><time>2026-03-22T09:36:27Z</time></trkpt><trkpt lat="43.42874932795889" lon="11.662680599074772"><ele>259.6</ele><time>2026-03-22T09:36:29Z</time></trkpt><trkpt lat="43.42880842407488" lon="11.662646036496586"><ele>259.2</ele><time>2026-03-22T09:36:30Z</time></trkpt><trkpt lat="43.42891807478923" lon="11.662578366209221"><ele>258.8</ele><time>2026-03-22T09:36:32Z</time></trkpt><trkpt lat="43.429019081389235" lon="11.662505708132384"><ele>258.4</ele><time>2026-03-22T09:36:34Z</time></trkpt><trkpt lat="43.42911761190995" lon="11.662422405047028"><ele>258.0</ele><time>2026-03-22T09:36:36Z</time></trkpt><trkpt lat="43.429217779790186" lon="11.662322382757344"><ele>258.0</ele><time>2026-03-22T09:36:38Z</time></trkpt><trkpt lat="43.42931571283002" lon="11.66222308776037"><ele>258.0</ele><time>2026-03-22T09:36:40Z</time></trkpt><trkpt lat="43.429412283592555" lon="11.662126369359036"><ele>258.0</ele><time>2026-03-22T09:36:42Z</time></trkpt><trkpt lat="43.42950478072276" lon="11.662030742697953"><ele>258.0</ele><time>2026-03-22T09:36:44Z</time></trkpt><trkpt lat="43.42959988849686" lon="11.661931057793202"><ele>257.75</ele><time>2026-03-22T09:36:46Z</time></trkpt><trkpt lat="43.42969741143759" lon="11.661832031140367"><ele>257.5</ele><time>2026-03-22T09:36:48Z</time></trkpt><trkpt lat="43.42979423556107" lon="11.661733921799776"><ele>257.25</ele><time>2026-03-22T09:36:49.999Z</time></trkpt><trkpt lat="43.429889630146" lon="11.661644527914659"><ele>257.0</ele><time>2026-03-22T09:36:51.999Z</time></trkpt><trkpt lat="43.42999513125504" lon="11.66156525065924"><ele>257.0</ele><time>2026-03-22T09:36:53.999Z</time></trkpt><trkpt lat="43.43010041503765" lon="11.66148548894426"><ele>257.0</ele><time>2026-03-22T09:36:55.999Z</time></trkpt><trkpt lat="43.430210189151225" lon="11.661416135570464"><ele>257.0</ele><time>2026-03-22T09:36:57.999Z</time></trkpt><trkpt lat="43.43031401028058" lon="11.661366285525412"><ele>257.0</ele><time>2026-03-22T09:36:59.999Z</time></trkpt><trkpt lat="43.430437282580804" lon="11.66132977205143"><ele>257.25</ele><time>2026-03-22T09:37:01.999Z</time></trkpt><trkpt lat="43.43055464734562" lon="11.661286250706723"><ele>257.5</ele><time>2026-03-22T09:37:03.999Z</time></trkpt><trkpt lat="43.43067666511748" lon="11.661258143185686"><ele>257.75</ele><time>2026-03-22T09:37:05.999Z</time></trkpt><trkpt lat="43.430795641459774" lon="11.661239395396942"><ele>258.0</ele><time>2026-03-22T09:37:07.999Z</time></trkpt><trkpt lat="43.430912225199606" lon="11.66122429804428"><ele>258.0</ele><time>2026-03-22T09:37:09.999Z</time></trkpt><trkpt lat="43.431029515690824" lon="11.66120913256733"><ele>258.0</ele><time>2026-03-22T09:37:11.999Z</time></trkpt><trkpt lat="43.43114505240894" lon="11.661195764609092"><ele>258.0</ele><time>2026-03-22T09:37:13.999Z</time></trkpt><trkpt lat="43.43126216771595" lon="11.661177586399784"><ele>258.0</ele><time>2026-03-22T09:37:15.999Z</time></trkpt><trkpt lat="43.43137810312192" lon="11.661160574524033"><ele>257.75</ele><time>2026-03-22T09:37:17.999Z</time></trkpt><trkpt lat="43.431496136732534" lon="11.661142745357289"><ele>257.5</ele><time>2026-03-22T09:37:19.999Z</time></trkpt><trkpt lat="43.43161855618728" lon="11.661126451170338"><ele>257.25</ele><time>2026-03-22T09:37:21.999Z</time></trkpt><trkpt lat="43.43173625215436" lon="11.661110805353166"><ele>257.0</ele><time>2026-03-22T09:37:23.999Z</time></trkpt><trkpt lat="43.431853419597225" lon="11.661092423022536"><ele>257.0</ele><time>2026-03-22T09:37:25.999Z</time></trkpt><trkpt lat="43.43197176085765" lon="11.661076490048819"><ele>257.0</ele><time>2026-03-22T09:37:27.999Z</time></trkpt><trkpt lat="43.43208480818641" lon="11.66106196617442"><ele>257.0</ele><time>2026-03-22T09:37:29.999Z</time></trkpt><trkpt lat="43.43220450268187" lon="11.661041750943253"><ele>257.0</ele><time>2026-03-22T09:37:31.999Z</time></trkpt><trkpt lat="43.43232149677148" lon="11.66101181793926"><ele>256.75</ele><time>2026-03-22T09:37:33.999Z</time></trkpt><trkpt lat="43.43244097352724" lon="11.660976833810505"><ele>256.5</ele><time>2026-03-22T09:37:35.999Z</time></trkpt><trkpt lat="43.432559787522635" lon="11.660933382511713"><ele>256.25</ele><time>2026-03-22T09:37:37.998Z</time></trkpt><trkpt lat="43.432680561210525" lon="11.660891933098862"><ele>256.0</ele><time>2026-03-22T09:37:39.998Z</time></trkpt><trkpt lat="43.43279873282677" lon="11.660847504560126"><ele>256.0</ele><time>2026-03-22T09:37:41.998Z</time></trkpt><trkpt lat="43.432919775914534" lon="11.660806838371341"><ele>256.0</ele><time>2026-03-22T09:37:43.998Z</time></trkpt><trkpt lat="43.43303924765263" lon="11.660767126544016"><ele>256.0</ele><time>2026-03-22T09:37:45.998Z</time></trkpt><trkpt lat="43.433157905723135" lon="11.660727623043513"><ele>256.0</ele><time>2026-03-22T09:37:47.998Z</time></trkpt><trkpt lat="43.43327456731204" lon="11.660689558907716"><ele>256.2</ele><time>2026-03-22T09:37:49.998Z</time></trkpt><trkpt lat="43.43339248191568" lon="11.660651959358482"><ele>256.40000000000003</ele><time>2026-03-22T09:37:51.998Z</time></trkpt><trkpt lat="43.43345613200233" lon="11.660634698762774"><ele>256.6</ele><time>2026-03-22T09:37:52.998Z</time></trkpt><trkpt lat="43.433575097147674" lon="11.660595271892646"><ele>256.8</ele><time>2026-03-22T09:37:54.998Z</time></trkpt><trkpt lat="43.43368902784103" lon="11.660554890490662"><ele>257.0</ele><time>2026-03-22T09:37:56.998Z</time></trkpt><trkpt lat="43.43380694676213" lon="11.660517271632045"><ele>257.75</ele><time>2026-03-22T09:37:58.998Z</time></trkpt><trkpt lat="43.433922869561286" lon="11.660474911452255"><ele>258.5</ele><time>2026-03-22T09:38:00.998Z</time></trkpt><trkpt lat="43.43403771069883" lon="11.660434071545339"><ele>259.25</ele><time>2026-03-22T09:38:02.998Z</time></trkpt><trkpt lat="43.43414701776295" lon="11.660385317898013"><ele>260.0</ele><time>2026-03-22T09:38:04.998Z</time></trkpt><trkpt lat="43.434258304760334" lon="11.660347057288682"><ele>260.0</ele><time>2026-03-22T09:38:06.998Z</time></trkpt><trkpt lat="43.434365665736316" lon="11.660304401697495"><ele>260.0</ele><time>2026-03-22T09:38:08.998Z</time></trkpt><trkpt lat="43.43447662735826" lon="11.660258576130737"><ele>260.0</ele><time>2026-03-22T09:38:10.998Z</time></trkpt><trkpt lat="43.434584049643504" lon="11.660215478673646"><ele>260.0</ele><time>2026-03-22T09:38:12.998Z</time></trkpt><trkpt lat="43.43468444925713" lon="11.660168917815692"><ele>260.0</ele><time>2026-03-22T09:38:14.998Z</time></trkpt><trkpt lat="43.43477823848319" lon="11.660132065479296"><ele>259.0</ele><time>2026-03-22T09:38:17Z</time></trkpt><trkpt lat="43.4348732756293" lon="11.660097938020598"><ele>258.0</ele><time>2026-03-22T09:38:19Z</time></trkpt><trkpt lat="43.43497813161806" lon="11.660061584874727"><ele>257.0</ele><time>2026-03-22T09:38:21Z</time></trkpt><trkpt lat="43.435081538656966" lon="11.660014621329076"><ele>256.0</ele><time>2026-03-22T09:38:23Z</time></trkpt><trkpt lat="43.43519208091953" lon="11.659975190983932"><ele>255.0</ele><time>2026-03-22T09:38:25Z</time></trkpt><trkpt lat="43.43529661698644" lon="11.659927360852375"><ele>255.0</ele><time>2026-03-22T09:38:27Z</time></trkpt><trkpt lat="43.43540657181308" lon="11.659889638438925"><ele>255.0</ele><time>2026-03-22T09:38:29Z</time></trkpt><trkpt lat="43.435513093935974" lon="11.65984381711022"><ele>255.0</ele><time>2026-03-22T09:38:31Z</time></trkpt><trkpt lat="43.4356206523508" lon="11.659797208571822"><ele>255.0</ele><time>2026-03-22T09:38:33Z</time></trkpt><trkpt lat="43.43572502203024" lon="11.659754510515056"><ele>255.0</ele><time>2026-03-22T09:38:35Z</time></trkpt><trkpt lat="43.435831762332484" lon="11.659712114000355"><ele>254.8</ele><time>2026-03-22T09:38:37Z</time></trkpt><trkpt lat="43.43593806120903" lon="11.659676336074918"><ele>254.6</ele><time>2026-03-22T09:38:39Z</time></trkpt><trkpt lat="43.43604174640445" lon="11.659642745695402"><ele>254.39999999999998</ele><time>2026-03-22T09:38:41Z</time></trkpt><trkpt lat="43.43613331522305" lon="11.659588148656809"><ele>254.2</ele><time>2026-03-22T09:38:43Z</time></trkpt><trkpt lat="43.436192619002284" lon="11.659489192205177"><ele>254.0</ele><time>2026-03-22T09:38:45Z</time></trkpt><trkpt lat="43.436208919870815" lon="11.659375497647702"><ele>254.00000000000003</ele><time>2026-03-22T09:38:47Z</time></trkpt><trkpt lat="43.436184857756366" lon="11.659273481966606"><ele>254.0</ele><time>2026-03-22T09:38:49Z</time></trkpt><trkpt lat="43.43616151394672" lon="11.659178101134133"><ele>254.0</ele><time>2026-03-22T09:38:51Z</time></trkpt><trkpt lat="43.436099760467435" lon="11.659159313444365"><ele>254.0</ele><time>2026-03-22T09:38:52Z</time></trkpt><trkpt lat="43.43602339990514" lon="11.659111735216147"><ele>254.00000000000003</ele><time>2026-03-22T09:38:54Z</time></trkpt><trkpt lat="43.43594691201922" lon="11.659063642481904"><ele>254.0</ele><time>2026-03-22T09:38:56Z</time></trkpt><trkpt lat="43.43586332343254" lon="11.659011115880322"><ele>254.0</ele><time>2026-03-22T09:38:57.999Z</time></trkpt><trkpt lat="43.43577626432846" lon="11.658949162108854"><ele>253.99999999999997</ele><time>2026-03-22T09:38:59.999Z</time></trkpt><trkpt lat="43.43569084687801" lon="11.65887435797107"><ele>253.99999999999997</ele><time>2026-03-22T09:39:01.999Z</time></trkpt><trkpt lat="43.435601196745694" lon="11.658787089214172"><ele>254.0</ele><time>2026-03-22T09:39:03.999Z</time></trkpt><trkpt lat="43.4355176700421" lon="11.658686267580832"><ele>254.0</ele><time>2026-03-22T09:39:05.999Z</time></trkpt><trkpt lat="43.43543548443805" lon="11.658575491985125"><ele>253.85714285714286</ele><time>2026-03-22T09:39:07.999Z</time></trkpt><trkpt lat="43.43535302695697" lon="11.658449329129867"><ele>253.71428571428572</ele><time>2026-03-22T09:39:09.999Z</time></trkpt><trkpt lat="43.435312939007545" lon="11.658380470958374"><ele>253.57142857142858</ele><time>2026-03-22T09:39:10.999Z</time></trkpt><trkpt lat="43.435276405635456" lon="11.65830683918781"><ele>253.42857142857144</ele><time>2026-03-22T09:39:11.999Z</time></trkpt><trkpt lat="43.435241297433045" lon="11.658231504069102"><ele>253.28571428571428</ele><time>2026-03-22T09:39:12.999Z</time></trkpt><trkpt lat="43.43521264474671" lon="11.658150812780542"><ele>253.14285714285717</ele><time>2026-03-22T09:39:13.999Z</time></trkpt><trkpt lat="43.435185493241995" lon="11.658070232452193"><ele>253.00000000000003</ele><time>2026-03-22T09:39:14.999Z</time></trkpt><trkpt lat="43.435143691790735" lon="11.65790506780545"><ele>253.0</ele><time>2026-03-22T09:39:16.999Z</time></trkpt><trkpt lat="43.43512791388905" lon="11.657818048724488"><ele>253.0</ele><time>2026-03-22T09:39:17.999Z</time></trkpt><trkpt lat="43.4351127114785" lon="11.657731844226097"><ele>253.0</ele><time>2026-03-22T09:39:18.999Z</time></trkpt><trkpt lat="43.435097427110584" lon="11.657565377074842"><ele>253.0</ele><time>2026-03-22T09:39:20.999Z</time></trkpt><trkpt lat="43.43509295434418" lon="11.657399845871105"><ele>253.0</ele><time>2026-03-22T09:39:22.999Z</time></trkpt><trkpt lat="43.43509916674893" lon="11.65723403009849"><ele>253.4</ele><time>2026-03-22T09:39:24.999Z</time></trkpt><trkpt lat="43.435114793048704" lon="11.65708541065434"><ele>253.8</ele><time>2026-03-22T09:39:26.999Z</time></trkpt><trkpt lat="43.43513868661336" lon="11.656944029873744"><ele>254.2</ele><time>2026-03-22T09:39:28.999Z</time></trkpt><trkpt lat="43.43516626401557" lon="11.656813322134454"><ele>254.6</ele><time>2026-03-22T09:39:30.999Z</time></trkpt><trkpt lat="43.43519179512743" lon="11.656685454534252"><ele>255.0</ele><time>2026-03-22T09:39:32.999Z</time></trkpt><trkpt lat="43.4352223089948" lon="11.656569528228042"><ele>255.33333333333334</ele><time>2026-03-22T09:39:34.999Z</time></trkpt><trkpt lat="43.43524431041312" lon="11.656453519843435"><ele>255.66666666666669</ele><time>2026-03-22T09:39:36.999Z</time></trkpt><trkpt lat="43.435272597040594" lon="11.656345472749718"><ele>256.0</ele><time>2026-03-22T09:39:38.999Z</time></trkpt><trkpt lat="43.43529547671354" lon="11.656240701065242"><ele>256.33333333333337</ele><time>2026-03-22T09:39:40.999Z</time></trkpt><trkpt lat="43.43531610624275" lon="11.65614341539834"><ele>256.6666666666667</ele><time>2026-03-22T09:39:42.999Z</time></trkpt><trkpt lat="43.43533731652021" lon="11.656042727370563"><ele>257.0</ele><time>2026-03-22T09:39:44.999Z</time></trkpt><trkpt lat="43.43535883799344" lon="11.655945432401287"><ele>256.7142857142857</ele><time>2026-03-22T09:39:46.998Z</time></trkpt><trkpt lat="43.43537892662575" lon="11.65585002268319"><ele>256.42857142857144</ele><time>2026-03-22T09:39:48.998Z</time></trkpt><trkpt lat="43.43540109090409" lon="11.655754852898115"><ele>256.14285714285717</ele><time>2026-03-22T09:39:50.998Z</time></trkpt><trkpt lat="43.435419143076615" lon="11.655660621123245"><ele>255.85714285714286</ele><time>2026-03-22T09:39:52.998Z</time></trkpt><trkpt lat="43.43543864891699" lon="11.65556560726149"><ele>255.5714285714286</ele><time>2026-03-22T09:39:54.998Z</time></trkpt><trkpt lat="43.43545876019973" lon="11.655469733824956"><ele>255.2857142857143</ele><time>2026-03-22T09:39:56.998Z</time></trkpt><trkpt lat="43.4354778720017" lon="11.655378726795128"><ele>255.0</ele><time>2026-03-22T09:39:58.998Z</time></trkpt><trkpt lat="43.43549748852034" lon="11.655288156617917"><ele>255.85714285714286</ele><time>2026-03-22T09:40:00.998Z</time></trkpt><trkpt lat="43.435515750098766" lon="11.655195663854002"><ele>256.7142857142857</ele><time>2026-03-22T09:40:02.998Z</time></trkpt><trkpt lat="43.435535848058535" lon="11.65510856353967"><ele>257.57142857142856</ele><time>2026-03-22T09:40:04.998Z</time></trkpt><trkpt lat="43.43555413013464" lon="11.655020255482228"><ele>258.42857142857144</ele><time>2026-03-22T09:40:06.998Z</time></trkpt><trkpt lat="43.43557426557628" lon="11.654927583722056"><ele>259.2857142857143</ele><time>2026-03-22T09:40:08.998Z</time></trkpt><trkpt lat="43.43559403576469" lon="11.654839982820723"><ele>260.14285714285717</ele><time>2026-03-22T09:40:10.998Z</time></trkpt><trkpt lat="43.435611537156355" lon="11.65475645915975"><ele>261.0</ele><time>2026-03-22T09:40:12.998Z</time></trkpt><trkpt lat="43.43562827675354" lon="11.654671737723255"><ele>261.0</ele><time>2026-03-22T09:40:14.998Z</time></trkpt><trkpt lat="43.43564831338833" lon="11.654584624756886"><ele>261.0</ele><time>2026-03-22T09:40:16.998Z</time></trkpt><trkpt lat="43.435661262346" lon="11.65449536554765"><ele>261.0</ele><time>2026-03-22T09:40:18.998Z</time></trkpt><trkpt lat="43.43568019569777" lon="11.654405068037939"><ele>261.0</ele><time>2026-03-22T09:40:20.998Z</time></trkpt><trkpt lat="43.4357009313222" lon="11.654313672623957"><ele>261.0</ele><time>2026-03-22T09:40:23Z</time></trkpt><trkpt lat="43.43571479970386" lon="11.6542276457282"><ele>261.0</ele><time>2026-03-22T09:40:25Z</time></trkpt><trkpt lat="43.43573937186588" lon="11.654100913038901"><ele>261.0</ele><time>2026-03-22T09:40:28Z</time></trkpt><trkpt lat="43.43575755403603" lon="11.653973562829417"><ele>261.8571428571429</ele><time>2026-03-22T09:40:31Z</time></trkpt><trkpt lat="43.43576965108672" lon="11.653887463656432"><ele>262.7142857142857</ele><time>2026-03-22T09:40:33Z</time></trkpt><trkpt lat="43.43578710186309" lon="11.653796957896784"><ele>263.57142857142856</ele><time>2026-03-22T09:40:35Z</time></trkpt><trkpt lat="43.43579522856639" lon="11.653707310523343"><ele>264.42857142857144</ele><time>2026-03-22T09:40:37Z</time></trkpt><trkpt lat="43.43581327190694" lon="11.653618586445141"><ele>265.2857142857143</ele><time>2026-03-22T09:40:39Z</time></trkpt><trkpt lat="43.43582457505386" lon="11.653530187689796"><ele>266.14285714285717</ele><time>2026-03-22T09:40:41Z</time></trkpt><trkpt lat="43.435840428023134" lon="11.653437826719916"><ele>267.0</ele><time>2026-03-22T09:40:43Z</time></trkpt><trkpt lat="43.4358535541769" lon="11.653343313510758"><ele>267.28571428571433</ele><time>2026-03-22T09:40:45Z</time></trkpt><trkpt lat="43.43586757084348" lon="11.653246635242388"><ele>267.57142857142856</ele><time>2026-03-22T09:40:47Z</time></trkpt><trkpt lat="43.435883463816886" lon="11.653149424702164"><ele>267.8571428571429</ele><time>2026-03-22T09:40:49Z</time></trkpt><trkpt lat="43.43589946456726" lon="11.653056878043987"><ele>268.14285714285717</ele><time>2026-03-22T09:40:51Z</time></trkpt><trkpt lat="43.435912880038785" lon="11.652958765948808"><ele>268.42857142857144</ele><time>2026-03-22T09:40:53Z</time></trkpt><trkpt lat="43.4359295642554" lon="11.652861263882418"><ele>268.7142857142857</ele><time>2026-03-22T09:40:55Z</time></trkpt><trkpt lat="43.43594493613616" lon="11.65276603902759"><ele>269.0</ele><time>2026-03-22T09:40:57Z</time></trkpt><trkpt lat="43.43595727534237" lon="11.652670059946347"><ele>269.33333333333337</ele><time>2026-03-22T09:40:59Z</time></trkpt><trkpt lat="43.435970427755436" lon="11.652571773515707"><ele>269.6666666666667</ele><time>2026-03-22T09:41:00.999Z</time></trkpt><trkpt lat="43.43598580273462" lon="11.652472783641775"><ele>270.0</ele><time>2026-03-22T09:41:02.999Z</time></trkpt><trkpt lat="43.435998260371214" lon="11.652371111068783"><ele>270.3333333333333</ele><time>2026-03-22T09:41:04.999Z</time></trkpt><trkpt lat="43.436011515457004" lon="11.652272593005403"><ele>270.66666666666663</ele><time>2026-03-22T09:41:06.999Z</time></trkpt><trkpt lat="43.43603896558096" lon="11.652165926097204"><ele>271.0</ele><time>2026-03-22T09:41:08.999Z</time></trkpt><trkpt lat="43.436057097290934" lon="11.652054946021737"><ele>271.5</ele><time>2026-03-22T09:41:10.999Z</time></trkpt><trkpt lat="43.436078666184635" lon="11.651943331391866"><ele>272.0</ele><time>2026-03-22T09:41:12.999Z</time></trkpt><trkpt lat="43.43610461723753" lon="11.65183395908769"><ele>272.5</ele><time>2026-03-22T09:41:14.999Z</time></trkpt><trkpt lat="43.43613446694944" lon="11.651752288201747"><ele>273.0</ele><time>2026-03-22T09:41:16.999Z</time></trkpt><trkpt lat="43.43613671813934" lon="11.651642461860336"><ele>273.5</ele><time>2026-03-22T09:42:05.998Z</time></trkpt><trkpt lat="43.436161170956815" lon="11.651554830083077"><ele>274.0</ele><time>2026-03-22T09:42:07.998Z</time></trkpt><trkpt lat="43.43618835467343" lon="11.651446109153007"><ele>274.0</ele><time>2026-03-22T09:42:09.998Z</time></trkpt><trkpt lat="43.4362158017436" lon="11.651321240863997"><ele>274.0</ele><time>2026-03-22T09:42:11.998Z</time></trkpt><trkpt lat="43.436253464649425" lon="11.651186971658909"><ele>274.0</ele><time>2026-03-22T09:42:13.998Z</time></trkpt><trkpt lat="43.43630056832696" lon="11.651037249444682"><ele>274.0</ele><time>2026-03-22T09:42:15.998Z</time></trkpt><trkpt lat="43.436348570469136" lon="11.650873167809769"><ele>274.0</ele><time>2026-03-22T09:42:17.998Z</time></trkpt><trkpt lat="43.43637679948761" lon="11.650786119474477"><ele>273.5</ele><time>2026-03-22T09:42:18.998Z</time></trkpt><trkpt lat="43.43640747264064" lon="11.650696477274018"><ele>273.0</ele><time>2026-03-22T09:42:19.998Z</time></trkpt><trkpt lat="43.43644005875" lon="11.650607485757337"><ele>272.5</ele><time>2026-03-22T09:42:20.998Z</time></trkpt><trkpt lat="43.43647382635542" lon="11.650514497753779"><ele>272.0</ele><time>2026-03-22T09:42:21.998Z</time></trkpt><trkpt lat="43.43650818953184" lon="11.650418158311117"><ele>271.5</ele><time>2026-03-22T09:42:22.998Z</time></trkpt><trkpt lat="43.4365441791094" lon="11.650322370394836"><ele>271.0</ele><time>2026-03-22T09:42:23.998Z</time></trkpt><trkpt lat="43.436581900937796" lon="11.650224189584272"><ele>270.3333333333333</ele><time>2026-03-22T09:42:24.998Z</time></trkpt><trkpt lat="43.43662074278044" lon="11.650123432591652"><ele>269.66666666666663</ele><time>2026-03-22T09:42:25.998Z</time></trkpt><trkpt lat="43.4366612452189" lon="11.650019482249512"><ele>269.0</ele><time>2026-03-22T09:42:26.998Z</time></trkpt><trkpt lat="43.43669895887389" lon="11.649917936673134"><ele>268.3333333333333</ele><time>2026-03-22T09:42:27.998Z</time></trkpt><trkpt lat="43.43673977308909" lon="11.64981193719473"><ele>267.6666666666667</ele><time>2026-03-22T09:42:29Z</time></trkpt><trkpt lat="43.43677948544151" lon="11.649704803899072"><ele>267.0</ele><time>2026-03-22T09:42:30Z</time></trkpt><trkpt lat="43.43682106860452" lon="11.649595565655225"><ele>267.0</ele><time>2026-03-22T09:42:31Z</time></trkpt><trkpt lat="43.43686236873827" lon="11.649486082309448"><ele>267.0</ele><time>2026-03-22T09:42:32Z</time></trkpt><trkpt lat="43.43690525261045" lon="11.64937581485"><ele>267.0</ele><time>2026-03-22T09:42:33Z</time></trkpt><trkpt lat="43.43694902627974" lon="11.649265045895584"><ele>267.0</ele><time>2026-03-22T09:42:34Z</time></trkpt><trkpt lat="43.43698954144618" lon="11.649151228541346"><ele>267.0</ele><time>2026-03-22T09:42:35Z</time></trkpt><trkpt lat="43.4370320646408" lon="11.649038828432086"><ele>266.0</ele><time>2026-03-22T09:42:36Z</time></trkpt><trkpt lat="43.43707513900376" lon="11.648926431217639"><ele>265.0</ele><time>2026-03-22T09:42:37Z</time></trkpt><trkpt lat="43.43711781974983" lon="11.64881719712303"><ele>264.0</ele><time>2026-03-22T09:42:38Z</time></trkpt><trkpt lat="43.43716331338111" lon="11.64870678052997"><ele>263.0</ele><time>2026-03-22T09:42:39Z</time></trkpt><trkpt lat="43.43720453987457" lon="11.648595770937101"><ele>262.0</ele><time>2026-03-22T09:42:40Z</time></trkpt><trkpt lat="43.43724523413268" lon="11.648483629202968"><ele>261.0</ele><time>2026-03-22T09:42:41Z</time></trkpt><trkpt lat="43.43728757338597" lon="11.64837153216863"><ele>260.0</ele><time>2026-03-22T09:42:42Z</time></trkpt><trkpt lat="43.43733183859558" lon="11.648260951248854"><ele>259.0</ele><time>2026-03-22T09:42:43Z</time></trkpt><trkpt lat="43.43737428139317" lon="11.648150265934456"><ele>258.0</ele><time>2026-03-22T09:42:44Z</time></trkpt><trkpt lat="43.43741444764552" lon="11.648040130882324"><ele>257.0</ele><time>2026-03-22T09:42:45Z</time></trkpt><trkpt lat="43.43745508573837" lon="11.647932779657049"><ele>257.0</ele><time>2026-03-22T09:42:46Z</time></trkpt><trkpt lat="43.43749592611172" lon="11.647826930601443"><ele>257.0</ele><time>2026-03-22T09:42:47Z</time></trkpt><trkpt lat="43.43753473731283" lon="11.647722318908253"><ele>257.0</ele><time>2026-03-22T09:42:48Z</time></trkpt><trkpt lat="43.43757342547641" lon="11.647619778835981"><ele>257.0</ele><time>2026-03-22T09:42:49Z</time></trkpt><trkpt lat="43.43761360742765" lon="11.647520094606108"><ele>257.0</ele><time>2026-03-22T09:42:50Z</time></trkpt><trkpt lat="43.437649243260026" lon="11.647416952731199"><ele>257.0</ele><time>2026-03-22T09:42:51Z</time></trkpt><trkpt lat="43.43768840170891" lon="11.647311474207834"><ele>257.1666666666667</ele><time>2026-03-22T09:42:52Z</time></trkpt><trkpt lat="43.4377216606039" lon="11.647204645587744"><ele>257.33333333333337</ele><time>2026-03-22T09:42:53Z</time></trkpt><trkpt lat="43.4377572887217" lon="11.647098125244296"><ele>257.5</ele><time>2026-03-22T09:42:54Z</time></trkpt><trkpt lat="43.43778937495053" lon="11.64698981335757"><ele>257.6666666666667</ele><time>2026-03-22T09:42:55Z</time></trkpt><trkpt lat="43.43781542828482" lon="11.646880512246327"><ele>257.8333333333333</ele><time>2026-03-22T09:42:56Z</time></trkpt><trkpt lat="43.43784175119173" lon="11.646770082866581"><ele>258.0</ele><time>2026-03-22T09:42:57Z</time></trkpt><trkpt lat="43.4378624391507" lon="11.646661924956833"><ele>257.8333333333333</ele><time>2026-03-22T09:42:58Z</time></trkpt><trkpt lat="43.43787994106849" lon="11.646550171445892"><ele>257.6666666666667</ele><time>2026-03-22T09:42:59Z</time></trkpt><trkpt lat="43.437893292253676" lon="11.646439076433012"><ele>257.5</ele><time>2026-03-22T09:43:00Z</time></trkpt><trkpt lat="43.4379040033105" lon="11.646328868686012"><ele>257.33333333333337</ele><time>2026-03-22T09:43:01Z</time></trkpt><trkpt lat="43.43791343798634" lon="11.646217401388556"><ele>257.1666666666667</ele><time>2026-03-22T09:43:02Z</time></trkpt><trkpt lat="43.43791897828307" lon="11.646109250205114"><ele>257.0</ele><time>2026-03-22T09:43:03Z</time></trkpt><trkpt lat="43.43792437161923" lon="11.646001859070797"><ele>257.0</ele><time>2026-03-22T09:43:04Z</time></trkpt><trkpt lat="43.437925488806876" lon="11.645892214138689"><ele>257.0</ele><time>2026-03-22T09:43:05Z</time></trkpt><trkpt lat="43.43792497004844" lon="11.645783473335724"><ele>257.0</ele><time>2026-03-22T09:43:06Z</time></trkpt><trkpt lat="43.437922249237786" lon="11.64567407468268"><ele>257.0</ele><time>2026-03-22T09:43:06.999Z</time></trkpt><trkpt lat="43.437913430240535" lon="11.645565761101222"><ele>257.0</ele><time>2026-03-22T09:43:07.999Z</time></trkpt><trkpt lat="43.437900238713816" lon="11.645456082294807"><ele>257.0</ele><time>2026-03-22T09:43:08.999Z</time></trkpt><trkpt lat="43.43788559444243" lon="11.645346079240422"><ele>257.0</ele><time>2026-03-22T09:43:09.999Z</time></trkpt><trkpt lat="43.43786873851224" lon="11.645236018203748"><ele>257.0</ele><time>2026-03-22T09:43:10.999Z</time></trkpt><trkpt lat="43.437849754766255" lon="11.645127838453455"><ele>257.0</ele><time>2026-03-22T09:43:11.999Z</time></trkpt><trkpt lat="43.43782828666797" lon="11.645023523209003"><ele>257.0</ele><time>2026-03-22T09:43:12.999Z</time></trkpt><trkpt lat="43.437809959244284" lon="11.644919338898765"><ele>257.0</ele><time>2026-03-22T09:43:13.999Z</time></trkpt><trkpt lat="43.4377868339174" lon="11.644816752299148"><ele>257.0</ele><time>2026-03-22T09:43:14.999Z</time></trkpt><trkpt lat="43.43776512894524" lon="11.644713519281304"><ele>257.0</ele><time>2026-03-22T09:43:15.999Z</time></trkpt><trkpt lat="43.43774718555706" lon="11.64460901922518"><ele>257.0</ele><time>2026-03-22T09:43:16.999Z</time></trkpt><trkpt lat="43.437729477162655" lon="11.644502564432738"><ele>257.0</ele><time>2026-03-22T09:43:17.999Z</time></trkpt><trkpt lat="43.43771549511929" lon="11.644397644218701"><ele>257.0</ele><time>2026-03-22T09:43:18.999Z</time></trkpt><trkpt lat="43.43770375200049" lon="11.64429128921706"><ele>257.0</ele><time>2026-03-22T09:43:19.999Z</time></trkpt><trkpt lat="43.437693371779666" lon="11.644183176610968"><ele>257.0</ele><time>2026-03-22T09:43:20.999Z</time></trkpt><trkpt lat="43.437687080264254" lon="11.644074108570786"><ele>256.5</ele><time>2026-03-22T09:43:21.999Z</time></trkpt><trkpt lat="43.43768047943289" lon="11.64396325424759"><ele>256.0</ele><time>2026-03-22T09:43:22.999Z</time></trkpt><trkpt lat="43.43767789925877" lon="11.6438517750618"><ele>255.5</ele><time>2026-03-22T09:43:23.999Z</time></trkpt><trkpt lat="43.43767625945002" lon="11.643737935462648"><ele>255.0</ele><time>2026-03-22T09:43:24.999Z</time></trkpt><trkpt lat="43.43768141666607" lon="11.643623909495336"><ele>254.50000000000003</ele><time>2026-03-22T09:43:25.999Z</time></trkpt><trkpt lat="43.43769023230687" lon="11.643507046493756"><ele>254.0</ele><time>2026-03-22T09:43:26.999Z</time></trkpt><trkpt lat="43.437703131492526" lon="11.643390229882742"><ele>253.66666666666669</ele><time>2026-03-22T09:43:27.999Z</time></trkpt><trkpt lat="43.43772147575652" lon="11.643272445149858"><ele>253.33333333333334</ele><time>2026-03-22T09:43:28.999Z</time></trkpt><trkpt lat="43.43774145647473" lon="11.643156180035334"><ele>253.0</ele><time>2026-03-22T09:43:29.999Z</time></trkpt><trkpt lat="43.43776396241972" lon="11.64303858784563"><ele>252.66666666666669</ele><time>2026-03-22T09:43:30.999Z</time></trkpt><trkpt lat="43.43778864983754" lon="11.64292555272888"><ele>252.33333333333334</ele><time>2026-03-22T09:43:31.999Z</time></trkpt><trkpt lat="43.4378166588519" lon="11.642813653153299"><ele>252.0</ele><time>2026-03-22T09:43:32.999Z</time></trkpt><trkpt lat="43.437843875488035" lon="11.642704484767604"><ele>252.0</ele><time>2026-03-22T09:43:33.999Z</time></trkpt><trkpt lat="43.4378724527725" lon="11.642594333992085"><ele>252.0</ele><time>2026-03-22T09:43:34.999Z</time></trkpt><trkpt lat="43.437901678955726" lon="11.642486171107267"><ele>252.0</ele><time>2026-03-22T09:43:35.999Z</time></trkpt><trkpt lat="43.437928384117356" lon="11.642376542294048"><ele>252.0</ele><time>2026-03-22T09:43:36.999Z</time></trkpt><trkpt lat="43.43795760652921" lon="11.642267906456082"><ele>252.0</ele><time>2026-03-22T09:43:37.999Z</time></trkpt><trkpt lat="43.43798524528735" lon="11.642157463036511"><ele>252.0</ele><time>2026-03-22T09:43:38.999Z</time></trkpt><trkpt lat="43.43801395209057" lon="11.642048582020252"><ele>250.83333333333334</ele><time>2026-03-22T09:43:39.999Z</time></trkpt><trkpt lat="43.438042402895825" lon="11.6419395093997"><ele>249.66666666666669</ele><time>2026-03-22T09:43:40.999Z</time></trkpt><trkpt lat="43.43806872477436" lon="11.641829663139479"><ele>248.5</ele><time>2026-03-22T09:43:41.999Z</time></trkpt><trkpt lat="43.438100567977976" lon="11.641723102783626"><ele>247.33333333333334</ele><time>2026-03-22T09:43:42.999Z</time></trkpt><trkpt lat="43.43812802503287" lon="11.641614178758802"><ele>246.16666666666669</ele><time>2026-03-22T09:43:43.999Z</time></trkpt><trkpt lat="43.438154736779055" lon="11.641503416799056"><ele>245.0</ele><time>2026-03-22T09:43:44.999Z</time></trkpt><trkpt lat="43.438181801282006" lon="11.641394494529207"><ele>245.00000000000003</ele><time>2026-03-22T09:43:45.999Z</time></trkpt><trkpt lat="43.43820997736157" lon="11.641282672828703"><ele>245.0</ele><time>2026-03-22T09:43:46.999Z</time></trkpt><trkpt lat="43.438238169789095" lon="11.64117188105395"><ele>245.0</ele><time>2026-03-22T09:43:47.999Z</time></trkpt><trkpt lat="43.43826693266915" lon="11.641062634255505"><ele>245.0</ele><time>2026-03-22T09:43:48.999Z</time></trkpt><trkpt lat="43.438295147628466" lon="11.640952499467392"><ele>245.00000000000003</ele><time>2026-03-22T09:43:49.999Z</time></trkpt><trkpt lat="43.43832248267371" lon="11.64084273351923"><ele>245.0</ele><time>2026-03-22T09:43:50.999Z</time></trkpt><trkpt lat="43.43835112871905" lon="11.640732654622356"><ele>245.16666666666669</ele><time>2026-03-22T09:43:51.999Z</time></trkpt><trkpt lat="43.43838000126305" lon="11.640620222238612"><ele>245.33333333333334</ele><time>2026-03-22T09:43:52.999Z</time></trkpt><trkpt lat="43.43840818658691" lon="11.640509314708668"><ele>245.5</ele><time>2026-03-22T09:43:53.998Z</time></trkpt><trkpt lat="43.438437286356134" lon="11.640398288030754"><ele>245.66666666666669</ele><time>2026-03-22T09:43:54.998Z</time></trkpt><trkpt lat="43.43846526194132" lon="11.640288164097791"><ele>245.83333333333334</ele><time>2026-03-22T09:43:55.998Z</time></trkpt><trkpt lat="43.43849359115108" lon="11.640179503219912"><ele>246.0</ele><time>2026-03-22T09:43:56.998Z</time></trkpt><trkpt lat="43.43852119764912" lon="11.640071882220743"><ele>246.33333333333334</ele><time>2026-03-22T09:43:57.998Z</time></trkpt><trkpt lat="43.438548508771184" lon="11.639964444402585"><ele>246.66666666666669</ele><time>2026-03-22T09:43:58.998Z</time></trkpt><trkpt lat="43.43857523857577" lon="11.639859957052966"><ele>247.0</ele><time>2026-03-22T09:43:59.998Z</time></trkpt><trkpt lat="43.438602622579324" lon="11.639755224051079"><ele>247.33333333333334</ele><time>2026-03-22T09:44:00.998Z</time></trkpt><trkpt lat="43.43862854348985" lon="11.639652234329786"><ele>247.66666666666669</ele><time>2026-03-22T09:44:01.998Z</time></trkpt><trkpt lat="43.438655374888725" lon="11.639549442049276"><ele>248.0</ele><time>2026-03-22T09:44:02.998Z</time></trkpt><trkpt lat="43.43868136673876" lon="11.63944742578179"><ele>247.00000000000003</ele><time>2026-03-22T09:44:03.998Z</time></trkpt><trkpt lat="43.43870697289782" lon="11.639346062863224"><ele>246.0</ele><time>2026-03-22T09:44:04.998Z</time></trkpt><trkpt lat="43.4387321154484" lon="11.639245591236007"><ele>245.0</ele><time>2026-03-22T09:44:05.998Z</time></trkpt><trkpt lat="43.438759862338976" lon="11.639145063262827"><ele>244.0</ele><time>2026-03-22T09:44:06.998Z</time></trkpt><trkpt lat="43.43878537584297" lon="11.639046016253454"><ele>243.00000000000003</ele><time>2026-03-22T09:44:07.998Z</time></trkpt><trkpt lat="43.43881209211883" lon="11.638946443114257"><ele>242.0</ele><time>2026-03-22T09:44:08.998Z</time></trkpt><trkpt lat="43.438838218746945" lon="11.638847682417229"><ele>242.0</ele><time>2026-03-22T09:44:09.998Z</time></trkpt><trkpt lat="43.438863028829324" lon="11.638750023042158"><ele>241.99999999999997</ele><time>2026-03-22T09:44:10.998Z</time></trkpt><trkpt lat="43.43888787867162" lon="11.638652985482146"><ele>242.0</ele><time>2026-03-22T09:44:11.998Z</time></trkpt><trkpt lat="43.4389128105546" lon="11.638558901162941"><ele>242.0</ele><time>2026-03-22T09:44:12.998Z</time></trkpt><trkpt lat="43.438937820714074" lon="11.638462528840238"><ele>241.99999999999997</ele><time>2026-03-22T09:44:13.998Z</time></trkpt><trkpt lat="43.43896691049586" lon="11.6383722489291"><ele>242.0</ele><time>2026-03-22T09:44:14.998Z</time></trkpt><trkpt lat="43.43900256649683" lon="11.638283404395064"><ele>242.0</ele><time>2026-03-22T09:44:15.998Z</time></trkpt><trkpt lat="43.43903476161255" lon="11.638191416749608"><ele>242.14285714285714</ele><time>2026-03-22T09:44:16.998Z</time></trkpt><trkpt lat="43.439069982203506" lon="11.638103305239182"><ele>242.28571428571428</ele><time>2026-03-22T09:44:17.998Z</time></trkpt><trkpt lat="43.43910706734938" lon="11.638018705367896"><ele>242.42857142857142</ele><time>2026-03-22T09:44:18.998Z</time></trkpt><trkpt lat="43.43914375625" lon="11.63793622386993"><ele>242.57142857142856</ele><time>2026-03-22T09:44:19.998Z</time></trkpt><trkpt lat="43.43918325858755" lon="11.637859402618808"><ele>242.71428571428572</ele><time>2026-03-22T09:44:20.998Z</time></trkpt><trkpt lat="43.439227852329985" lon="11.637785397721133"><ele>242.85714285714283</ele><time>2026-03-22T09:44:21.998Z</time></trkpt><trkpt lat="43.43927608753902" lon="11.637711080214947"><ele>243.0</ele><time>2026-03-22T09:44:22.998Z</time></trkpt><trkpt lat="43.4393185094977" lon="11.637636532715517"><ele>243.42857142857142</ele><time>2026-03-22T09:44:23.998Z</time></trkpt><trkpt lat="43.43936560523544" lon="11.637564994025206"><ele>243.8571428571429</ele><time>2026-03-22T09:44:24.998Z</time></trkpt><trkpt lat="43.43941015418358" lon="11.637494105581384"><ele>244.2857142857143</ele><time>2026-03-22T09:44:25.998Z</time></trkpt><trkpt lat="43.4394559241606" lon="11.637424703464847"><ele>244.71428571428572</ele><time>2026-03-22T09:44:26.998Z</time></trkpt><trkpt lat="43.43950095576024" lon="11.637357204466396"><ele>245.14285714285717</ele><time>2026-03-22T09:44:27.998Z</time></trkpt><trkpt lat="43.43954315894788" lon="11.637285047568364"><ele>245.5714285714286</ele><time>2026-03-22T09:44:28.998Z</time></trkpt><trkpt lat="43.439586521054785" lon="11.637216619296158"><ele>246.00000000000003</ele><time>2026-03-22T09:44:29.998Z</time></trkpt><trkpt lat="43.43963073618275" lon="11.637147539584863"><ele>245.5</ele><time>2026-03-22T09:44:30.998Z</time></trkpt><trkpt lat="43.43971796011833" lon="11.637017384189747"><ele>245.0</ele><time>2026-03-22T09:44:32.998Z</time></trkpt><trkpt lat="43.439762490752415" lon="11.636947895997018"><ele>244.5</ele><time>2026-03-22T09:44:33.998Z</time></trkpt><trkpt lat="43.43981020648713" lon="11.636881697191603"><ele>244.0</ele><time>2026-03-22T09:44:35Z</time></trkpt><trkpt lat="43.43985188072747" lon="11.636813540640297"><ele>243.5</ele><time>2026-03-22T09:44:36Z</time></trkpt><trkpt lat="43.43989855231489" lon="11.636745939344964"><ele>243.0</ele><time>2026-03-22T09:44:37Z</time></trkpt><trkpt lat="43.43994335019558" lon="11.636678576549167"><ele>243.0</ele><time>2026-03-22T09:44:38Z</time></trkpt><trkpt lat="43.43998855388054" lon="11.636608666125541"><ele>243.0</ele><time>2026-03-22T09:44:39Z</time></trkpt><trkpt lat="43.440034113885204" lon="11.63653977578626"><ele>243.0</ele><time>2026-03-22T09:44:40Z</time></trkpt><trkpt lat="43.44007865271023" lon="11.63647092989706"><ele>243.0</ele><time>2026-03-22T09:44:41Z</time></trkpt><trkpt lat="43.44012418302468" lon="11.636404917898542"><ele>243.0</ele><time>2026-03-22T09:44:42Z</time></trkpt><trkpt lat="43.44016830895352" lon="11.63633135661556"><ele>243.0</ele><time>2026-03-22T09:44:43Z</time></trkpt><trkpt lat="43.44021399339414" lon="11.636263051870976"><ele>243.0</ele><time>2026-03-22T09:44:44Z</time></trkpt><trkpt lat="43.44026006577307" lon="11.636191716971314"><ele>243.0</ele><time>2026-03-22T09:44:45Z</time></trkpt><trkpt lat="43.440302703632454" lon="11.636114471839551"><ele>243.0</ele><time>2026-03-22T09:44:46Z</time></trkpt><trkpt lat="43.44035035140917" lon="11.636054546365154"><ele>243.0</ele><time>2026-03-22T09:44:47Z</time></trkpt><trkpt lat="43.44039757663821" lon="11.635983525192577"><ele>243.0</ele><time>2026-03-22T09:44:48Z</time></trkpt><trkpt lat="43.44044323538861" lon="11.635912407858479"><ele>243.0</ele><time>2026-03-22T09:44:49Z</time></trkpt><trkpt lat="43.44048847721761" lon="11.635842829965759"><ele>243.0</ele><time>2026-03-22T09:44:50Z</time></trkpt><trkpt lat="43.44053666362674" lon="11.635773985642906"><ele>243.0</ele><time>2026-03-22T09:44:51Z</time></trkpt><trkpt lat="43.440585286647774" lon="11.635704019368294"><ele>243.0</ele><time>2026-03-22T09:44:52Z</time></trkpt><trkpt lat="43.44063457045628" lon="11.635632135178374"><ele>243.0</ele><time>2026-03-22T09:44:53Z</time></trkpt><trkpt lat="43.44068714933007" lon="11.635564498171956"><ele>243.0</ele><time>2026-03-22T09:44:54Z</time></trkpt><trkpt lat="43.440736485823855" lon="11.635498502517564"><ele>243.0</ele><time>2026-03-22T09:44:55Z</time></trkpt><trkpt lat="43.440788362833814" lon="11.635430347538184"><ele>243.0</ele><time>2026-03-22T09:44:56Z</time></trkpt><trkpt lat="43.440839991162655" lon="11.635363530400175"><ele>243.0</ele><time>2026-03-22T09:44:57Z</time></trkpt><trkpt lat="43.44089350028324" lon="11.63529869701827"><ele>243.0</ele><time>2026-03-22T09:44:58Z</time></trkpt><trkpt lat="43.44094768304039" lon="11.635232489006826"><ele>243.5</ele><time>2026-03-22T09:44:59Z</time></trkpt><trkpt lat="43.4410051606871" lon="11.635167307139042"><ele>244.0</ele><time>2026-03-22T09:45:00Z</time></trkpt><trkpt lat="43.441060155491705" lon="11.635103438411951"><ele>244.5</ele><time>2026-03-22T09:45:01Z</time></trkpt><trkpt lat="43.44111707646196" lon="11.635034388550965"><ele>245.0</ele><time>2026-03-22T09:45:02Z</time></trkpt><trkpt lat="43.441174228534045" lon="11.634968113541614"><ele>245.5</ele><time>2026-03-22T09:45:03Z</time></trkpt><trkpt lat="43.44123659405495" lon="11.634906529916453"><ele>246.0</ele><time>2026-03-22T09:45:04Z</time></trkpt><trkpt lat="43.44129967808015" lon="11.634844798648409"><ele>245.00000000000003</ele><time>2026-03-22T09:45:05Z</time></trkpt><trkpt lat="43.441362297008176" lon="11.6347886572248"><ele>244.0</ele><time>2026-03-22T09:45:06Z</time></trkpt><trkpt lat="43.441424991559906" lon="11.634736156928373"><ele>243.00000000000003</ele><time>2026-03-22T09:45:07Z</time></trkpt><trkpt lat="43.441493554372485" lon="11.63468862544493"><ele>242.00000000000003</ele><time>2026-03-22T09:45:08Z</time></trkpt><trkpt lat="43.44155922957202" lon="11.63464282131457"><ele>241.0</ele><time>2026-03-22T09:45:09Z</time></trkpt><trkpt lat="43.44162186214994" lon="11.634600541412468"><ele>240.00000000000003</ele><time>2026-03-22T09:45:10Z</time></trkpt><trkpt lat="43.44168361417738" lon="11.634557193172297"><ele>239.00000000000003</ele><time>2026-03-22T09:45:11Z</time></trkpt><trkpt lat="43.441743705382855" lon="11.634516152263"><ele>239.00000000000003</ele><time>2026-03-22T09:45:12Z</time></trkpt><trkpt lat="43.441804266729136" lon="11.63447700754028"><ele>239.0</ele><time>2026-03-22T09:45:13Z</time></trkpt><trkpt lat="43.44186196989444" lon="11.634429481054118"><ele>239.00000000000003</ele><time>2026-03-22T09:45:13.999Z</time></trkpt><trkpt lat="43.44191981347179" lon="11.634388807867827"><ele>239.00000000000003</ele><time>2026-03-22T09:45:14.999Z</time></trkpt><trkpt lat="43.4419807429484" lon="11.634348695747475"><ele>239.0</ele><time>2026-03-22T09:45:15.999Z</time></trkpt><trkpt lat="43.44203999836595" lon="11.634305707948387"><ele>239.00000000000003</ele><time>2026-03-22T09:45:16.999Z</time></trkpt><trkpt lat="43.44209738226582" lon="11.634255488747435"><ele>239.00000000000003</ele><time>2026-03-22T09:45:17.999Z</time></trkpt><trkpt lat="43.442155740160494" lon="11.634198767614485"><ele>239.00000000000003</ele><time>2026-03-22T09:45:18.999Z</time></trkpt><trkpt lat="43.4422083377416" lon="11.634133852555525"><ele>239.0</ele><time>2026-03-22T09:45:19.999Z</time></trkpt><trkpt lat="43.44225386232466" lon="11.634060978115096"><ele>239.00000000000003</ele><time>2026-03-22T09:45:20.999Z</time></trkpt><trkpt lat="43.44229728799597" lon="11.633986238345043"><ele>239.00000000000003</ele><time>2026-03-22T09:45:21.999Z</time></trkpt><trkpt lat="43.442332410778505" lon="11.633907343971194"><ele>239.0</ele><time>2026-03-22T09:45:22.999Z</time></trkpt><trkpt lat="43.44236840216249" lon="11.633824504950667"><ele>239.00000000000003</ele><time>2026-03-22T09:45:23.999Z</time></trkpt><trkpt lat="43.442399218606774" lon="11.633738709985554"><ele>239.00000000000003</ele><time>2026-03-22T09:45:24.999Z</time></trkpt><trkpt lat="43.44242687381043" lon="11.633651915148693"><ele>238.8571428571429</ele><time>2026-03-22T09:45:25.999Z</time></trkpt><trkpt lat="43.44245132166537" lon="11.633563901504555"><ele>238.71428571428572</ele><time>2026-03-22T09:45:26.999Z</time></trkpt><trkpt lat="43.442468544667584" lon="11.63347449804247"><ele>238.57142857142858</ele><time>2026-03-22T09:45:27.999Z</time></trkpt><trkpt lat="43.44248047979601" lon="11.633384694030351"><ele>238.42857142857144</ele><time>2026-03-22T09:45:28.999Z</time></trkpt><trkpt lat="43.44249033738779" lon="11.633295317636737"><ele>238.28571428571428</ele><time>2026-03-22T09:45:29.999Z</time></trkpt><trkpt lat="43.44249212454608" lon="11.633203332692132"><ele>238.14285714285714</ele><time>2026-03-22T09:45:30.999Z</time></trkpt><trkpt lat="43.44249119084758" lon="11.633112846284327"><ele>238.0</ele><time>2026-03-22T09:45:31.999Z</time></trkpt><trkpt lat="43.442485794282454" lon="11.633021879277047"><ele>238.0</ele><time>2026-03-22T09:45:32.999Z</time></trkpt><trkpt lat="43.442477008353606" lon="11.632929751834945"><ele>238.0</ele><time>2026-03-22T09:45:33.999Z</time></trkpt><trkpt lat="43.442462357142105" lon="11.632838104530418"><ele>238.0</ele><time>2026-03-22T09:45:34.999Z</time></trkpt><trkpt lat="43.44244680786115" lon="11.632745417446527"><ele>238.0</ele><time>2026-03-22T09:45:35.999Z</time></trkpt><trkpt lat="43.4424302691461" lon="11.632656786140325"><ele>238.0</ele><time>2026-03-22T09:45:36.999Z</time></trkpt><trkpt lat="43.44241070984797" lon="11.63256622459594"><ele>238.0</ele><time>2026-03-22T09:45:37.999Z</time></trkpt><trkpt lat="43.44239357451594" lon="11.632474415787522"><ele>238.0</ele><time>2026-03-22T09:45:38.999Z</time></trkpt><trkpt lat="43.44237505155289" lon="11.632379532915317"><ele>238.14285714285714</ele><time>2026-03-22T09:45:39.999Z</time></trkpt><trkpt lat="43.44235946298412" lon="11.632282562459206"><ele>238.28571428571428</ele><time>2026-03-22T09:45:40.999Z</time></trkpt><trkpt lat="43.44234721046947" lon="11.632184637447763"><ele>238.42857142857144</ele><time>2026-03-22T09:45:41.999Z</time></trkpt><trkpt lat="43.44233583362248" lon="11.632086043569808"><ele>238.57142857142858</ele><time>2026-03-22T09:45:42.999Z</time></trkpt><trkpt lat="43.44232804361735" lon="11.631984318793894"><ele>238.71428571428572</ele><time>2026-03-22T09:45:43.999Z</time></trkpt><trkpt lat="43.442326751777166" lon="11.631882128945032"><ele>238.8571428571429</ele><time>2026-03-22T09:45:44.999Z</time></trkpt><trkpt lat="43.44232548033078" lon="11.631784773011757"><ele>239.00000000000003</ele><time>2026-03-22T09:45:45.999Z</time></trkpt><trkpt lat="43.44233058494909" lon="11.631689465184127"><ele>238.50000000000003</ele><time>2026-03-22T09:45:46.999Z</time></trkpt><trkpt lat="43.44234132916422" lon="11.631595963005244"><ele>238.0</ele><time>2026-03-22T09:45:47.999Z</time></trkpt><trkpt lat="43.44235826699273" lon="11.63150378044226"><ele>237.5</ele><time>2026-03-22T09:45:48.999Z</time></trkpt><trkpt lat="43.442381848762665" lon="11.631415492943733"><ele>237.0</ele><time>2026-03-22T09:45:49.999Z</time></trkpt><trkpt lat="43.44240361763377" lon="11.631327496340305"><ele>236.50000000000003</ele><time>2026-03-22T09:45:50.999Z</time></trkpt><trkpt lat="43.44242482371075" lon="11.631242494514346"><ele>236.0</ele><time>2026-03-22T09:45:51.999Z</time></trkpt><trkpt lat="43.4424795664081" lon="11.631087366832343"><ele>236.0</ele><time>2026-03-22T09:45:53.999Z</time></trkpt><trkpt lat="43.4425423763158" lon="11.63094811222654"><ele>236.00000000000003</ele><time>2026-03-22T09:45:55.999Z</time></trkpt><trkpt lat="43.442610198055334" lon="11.630826899753583"><ele>236.00000000000003</ele><time>2026-03-22T09:45:57.999Z</time></trkpt><trkpt lat="43.44268410407842" lon="11.630724903440564"><ele>236.0</ele><time>2026-03-22T09:45:59.999Z</time></trkpt><trkpt lat="43.442768543182545" lon="11.630641965806182"><ele>236.0</ele><time>2026-03-22T09:46:01.998Z</time></trkpt><trkpt lat="43.442854852304635" lon="11.630564550745829"><ele>236.0</ele><time>2026-03-22T09:46:03.998Z</time></trkpt><trkpt lat="43.44293532309137" lon="11.630483114651268"><ele>236.00000000000003</ele><time>2026-03-22T09:46:05.998Z</time></trkpt><trkpt lat="43.44301787658792" lon="11.630401365172968"><ele>236.00000000000003</ele><time>2026-03-22T09:46:07.998Z</time></trkpt><trkpt lat="43.44309864355114" lon="11.630328632850267"><ele>236.0</ele><time>2026-03-22T09:46:09.998Z</time></trkpt><trkpt lat="43.44318210333201" lon="11.630263500553234"><ele>236.0</ele><time>2026-03-22T09:46:11.998Z</time></trkpt><trkpt lat="43.44325996715784" lon="11.630186854744137"><ele>236.8</ele><time>2026-03-22T09:46:13.998Z</time></trkpt><trkpt lat="43.44333933095046" lon="11.630110867410664"><ele>237.60000000000002</ele><time>2026-03-22T09:46:15.998Z</time></trkpt><trkpt lat="43.44342243553874" lon="11.630036198922971"><ele>238.4</ele><time>2026-03-22T09:46:17.998Z</time></trkpt><trkpt lat="43.44349637127675" lon="11.629956901021082"><ele>239.2</ele><time>2026-03-22T09:46:19.998Z</time></trkpt><trkpt lat="43.44358068335062" lon="11.62988136755128"><ele>240.0</ele><time>2026-03-22T09:46:21.998Z</time></trkpt><trkpt lat="43.44366730897114" lon="11.629800786285589"><ele>240.0</ele><time>2026-03-22T09:46:23.998Z</time></trkpt><trkpt lat="43.44375949606987" lon="11.629714701146783"><ele>240.0</ele><time>2026-03-22T09:46:25.998Z</time></trkpt><trkpt lat="43.443856404323604" lon="11.629622864426798"><ele>240.0</ele><time>2026-03-22T09:46:27.998Z</time></trkpt><trkpt lat="43.44395827425716" lon="11.629525747609986"><ele>240.0</ele><time>2026-03-22T09:46:29.998Z</time></trkpt><trkpt lat="43.44401101431836" lon="11.629476856095975"><ele>240.0</ele><time>2026-03-22T09:46:30.998Z</time></trkpt><trkpt lat="43.44411579120034" lon="11.629378316684798"><ele>239.57142857142858</ele><time>2026-03-22T09:46:32.998Z</time></trkpt><trkpt lat="43.44417201499496" lon="11.629323556823534"><ele>239.1428571428571</ele><time>2026-03-22T09:46:33.998Z</time></trkpt><trkpt lat="43.44422861760414" lon="11.629271129107906"><ele>238.7142857142857</ele><time>2026-03-22T09:46:34.998Z</time></trkpt><trkpt lat="43.44428655102171" lon="11.629214936184228"><ele>238.28571428571428</ele><time>2026-03-22T09:46:35.998Z</time></trkpt><trkpt lat="43.44434436295372" lon="11.629160689825271"><ele>237.85714285714283</ele><time>2026-03-22T09:46:36.998Z</time></trkpt><trkpt lat="43.44440254832983" lon="11.629103089222802"><ele>237.4285714285714</ele><time>2026-03-22T09:46:37.998Z</time></trkpt><trkpt lat="43.44445854946823" lon="11.62904048343389"><ele>236.99999999999997</ele><time>2026-03-22T09:46:38.998Z</time></trkpt><trkpt lat="43.444509041604" lon="11.628970630444181"><ele>237.0</ele><time>2026-03-22T09:46:40Z</time></trkpt><trkpt lat="43.4445527864279" lon="11.628892955439804"><ele>237.0</ele><time>2026-03-22T09:46:41Z</time></trkpt><trkpt lat="43.444595117398165" lon="11.628819840593414"><ele>237.0</ele><time>2026-03-22T09:46:42Z</time></trkpt><trkpt lat="43.44463117987494" lon="11.628742310736667"><ele>237.0</ele><time>2026-03-22T09:46:43Z</time></trkpt><trkpt lat="43.44466393160349" lon="11.628663413733252"><ele>237.0</ele><time>2026-03-22T09:46:44Z</time></trkpt><trkpt lat="43.4447109435423" lon="11.628503278689108"><ele>237.0</ele><time>2026-03-22T09:46:46Z</time></trkpt><trkpt lat="43.444731308995884" lon="11.628417900166067"><ele>237.0</ele><time>2026-03-22T09:46:47Z</time></trkpt><trkpt lat="43.444748503991505" lon="11.628240236102537"><ele>237.0</ele><time>2026-03-22T09:46:49Z</time></trkpt><trkpt lat="43.444751112388865" lon="11.628146947164105"><ele>237.0</ele><time>2026-03-22T09:46:50Z</time></trkpt><trkpt lat="43.44475416925143" lon="11.628049515836715"><ele>237.0</ele><time>2026-03-22T09:46:51Z</time></trkpt><trkpt lat="43.44475300441489" lon="11.627948718255746"><ele>237.0</ele><time>2026-03-22T09:46:52Z</time></trkpt><trkpt lat="43.44474248855266" lon="11.627847090166007"><ele>237.0</ele><time>2026-03-22T09:46:53Z</time></trkpt><trkpt lat="43.44472865912311" lon="11.627741809011393"><ele>236.99999999999997</ele><time>2026-03-22T09:46:54Z</time></trkpt><trkpt lat="43.44470859321704" lon="11.627642769185796"><ele>237.0</ele><time>2026-03-22T09:46:55Z</time></trkpt><trkpt lat="43.44468146454113" lon="11.627548631791418"><ele>236.99999999999997</ele><time>2026-03-22T09:46:56Z</time></trkpt><trkpt lat="43.44464993917927" lon="11.627457633898349"><ele>236.99999999999997</ele><time>2026-03-22T09:46:57Z</time></trkpt><trkpt lat="43.444615886297164" lon="11.627368028981273"><ele>237.0</ele><time>2026-03-22T09:46:58Z</time></trkpt><trkpt lat="43.444573406381096" lon="11.627287440270392"><ele>236.99999999999997</ele><time>2026-03-22T09:46:59Z</time></trkpt><trkpt lat="43.44453919735027" lon="11.627208492327895"><ele>236.99999999999997</ele><time>2026-03-22T09:47:00Z</time></trkpt><trkpt lat="43.444507278668326" lon="11.627120816388032"><ele>236.28571428571425</ele><time>2026-03-22T09:47:01Z</time></trkpt><trkpt lat="43.444474004848495" lon="11.627034086796236"><ele>235.57142857142856</ele><time>2026-03-22T09:47:02Z</time></trkpt><trkpt lat="43.44443835918964" lon="11.62695277640122"><ele>234.85714285714286</ele><time>2026-03-22T09:47:03Z</time></trkpt><trkpt lat="43.44440674256734" lon="11.626871535683277"><ele>234.14285714285714</ele><time>2026-03-22T09:47:04Z</time></trkpt><trkpt lat="43.44437297092952" lon="11.626789930479216"><ele>233.42857142857144</ele><time>2026-03-22T09:47:05Z</time></trkpt><trkpt lat="43.44434107061755" lon="11.626709244918459"><ele>232.71428571428575</ele><time>2026-03-22T09:47:06Z</time></trkpt><trkpt lat="43.44430798966672" lon="11.626628562235783"><ele>232.00000000000003</ele><time>2026-03-22T09:47:07Z</time></trkpt><trkpt lat="43.44427454475555" lon="11.626548503981493"><ele>231.8571428571429</ele><time>2026-03-22T09:47:08Z</time></trkpt><trkpt lat="43.444243569719724" lon="11.626469148536083"><ele>231.71428571428572</ele><time>2026-03-22T09:47:09Z</time></trkpt><trkpt lat="43.44421147087975" lon="11.626387358597592"><ele>231.57142857142858</ele><time>2026-03-22T09:47:10Z</time></trkpt><trkpt lat="43.44417899147347" lon="11.626307682483722"><ele>231.42857142857144</ele><time>2026-03-22T09:47:11Z</time></trkpt><trkpt lat="43.4441442308375" lon="11.626228835277514"><ele>231.28571428571428</ele><time>2026-03-22T09:47:12Z</time></trkpt><trkpt lat="43.44411372330593" lon="11.626150825851703"><ele>231.14285714285714</ele><time>2026-03-22T09:47:13Z</time></trkpt><trkpt lat="43.44408257654167" lon="11.626071869445932"><ele>231.0</ele><time>2026-03-22T09:47:14Z</time></trkpt><trkpt lat="43.444049285905194" lon="11.625992048036599"><ele>231.28571428571428</ele><time>2026-03-22T09:47:14.999Z</time></trkpt><trkpt lat="43.44401878204897" lon="11.62591162267422"><ele>231.57142857142856</ele><time>2026-03-22T09:47:15.999Z</time></trkpt><trkpt lat="43.443987063533804" lon="11.625831575213077"><ele>231.85714285714286</ele><time>2026-03-22T09:47:16.999Z</time></trkpt><trkpt lat="43.44395294502581" lon="11.625752638923979"><ele>232.14285714285714</ele><time>2026-03-22T09:47:17.999Z</time></trkpt><trkpt lat="43.443921710793575" lon="11.625673158563231"><ele>232.42857142857142</ele><time>2026-03-22T09:47:18.999Z</time></trkpt><trkpt lat="43.44388847117837" lon="11.625594252652641"><ele>232.71428571428572</ele><time>2026-03-22T09:47:19.999Z</time></trkpt><trkpt lat="43.443857647694124" lon="11.625513671472001"><ele>233.0</ele><time>2026-03-22T09:47:20.999Z</time></trkpt><trkpt lat="43.44382590886307" lon="11.625433881088298"><ele>233.0</ele><time>2026-03-22T09:47:21.999Z</time></trkpt><trkpt lat="43.443793848674844" lon="11.625353941321318"><ele>233.0</ele><time>2026-03-22T09:47:22.999Z</time></trkpt><trkpt lat="43.44376339572002" lon="11.625272107430254"><ele>233.0</ele><time>2026-03-22T09:47:23.999Z</time></trkpt><trkpt lat="43.44372887198093" lon="11.625190819551328"><ele>233.0</ele><time>2026-03-22T09:47:24.999Z</time></trkpt><trkpt lat="43.44369741996526" lon="11.625112450617179"><ele>233.0</ele><time>2026-03-22T09:47:25.999Z</time></trkpt><trkpt lat="43.443666869994395" lon="11.625032813006072"><ele>233.0</ele><time>2026-03-22T09:47:26.999Z</time></trkpt><trkpt lat="43.44363460321668" lon="11.624954080951182"><ele>233.0</ele><time>2026-03-22T09:47:27.999Z</time></trkpt><trkpt lat="43.44360133309462" lon="11.624877814982913"><ele>233.0</ele><time>2026-03-22T09:47:28.999Z</time></trkpt><trkpt lat="43.44356803935513" lon="11.624801284328228"><ele>233.0</ele><time>2026-03-22T09:47:29.999Z</time></trkpt><trkpt lat="43.44353426987416" lon="11.624724225323718"><ele>233.0</ele><time>2026-03-22T09:47:30.999Z</time></trkpt><trkpt lat="43.44349911597754" lon="11.624649408590225"><ele>233.0</ele><time>2026-03-22T09:47:31.999Z</time></trkpt><trkpt lat="43.44346235511625" lon="11.62457436108337"><ele>233.0</ele><time>2026-03-22T09:47:32.999Z</time></trkpt><trkpt lat="43.4434250909455" lon="11.624500110063705"><ele>233.0</ele><time>2026-03-22T09:47:33.999Z</time></trkpt><trkpt lat="43.44338688226999" lon="11.624426940552116"><ele>233.0</ele><time>2026-03-22T09:47:34.999Z</time></trkpt><trkpt lat="43.44334867407997" lon="11.624354845835214"><ele>233.14285714285717</ele><time>2026-03-22T09:47:35.999Z</time></trkpt><trkpt lat="43.44330831577801" lon="11.62428201554789"><ele>233.28571428571428</ele><time>2026-03-22T09:47:36.999Z</time></trkpt><trkpt lat="43.44326721729198" lon="11.624205806536224"><ele>233.42857142857144</ele><time>2026-03-22T09:47:37.999Z</time></trkpt><trkpt lat="43.443225201282566" lon="11.624130094727523"><ele>233.57142857142858</ele><time>2026-03-22T09:47:38.999Z</time></trkpt><trkpt lat="43.44318256939683" lon="11.624053266911949"><ele>233.71428571428572</ele><time>2026-03-22T09:47:39.999Z</time></trkpt><trkpt lat="43.44314053227645" lon="11.623975533700124"><ele>233.85714285714286</ele><time>2026-03-22T09:47:40.999Z</time></trkpt><trkpt lat="43.44309573435258" lon="11.623898119172447"><ele>234.0</ele><time>2026-03-22T09:47:41.999Z</time></trkpt><trkpt lat="43.44305243685634" lon="11.623819806356842"><ele>234.0</ele><time>2026-03-22T09:47:42.999Z</time></trkpt><trkpt lat="43.443011534859465" lon="11.623740340475054"><ele>234.00000000000003</ele><time>2026-03-22T09:47:43.999Z</time></trkpt><trkpt lat="43.442969023239094" lon="11.623660513353556"><ele>234.0</ele><time>2026-03-22T09:47:44.999Z</time></trkpt><trkpt lat="43.4429264639131" lon="11.623581045032681"><ele>234.0</ele><time>2026-03-22T09:47:45.999Z</time></trkpt><trkpt lat="43.44288235419805" lon="11.623502099011603"><ele>234.00000000000003</ele><time>2026-03-22T09:47:46.999Z</time></trkpt><trkpt lat="43.44284000990445" lon="11.623426266577162"><ele>234.0</ele><time>2026-03-22T09:47:47.999Z</time></trkpt><trkpt lat="43.442799637348074" lon="11.623347871397156"><ele>234.0</ele><time>2026-03-22T09:47:48.999Z</time></trkpt><trkpt lat="43.44275950223794" lon="11.623271840246309"><ele>234.33333333333334</ele><time>2026-03-22T09:47:49.999Z</time></trkpt><trkpt lat="43.44272025428393" lon="11.623197770865968"><ele>234.66666666666669</ele><time>2026-03-22T09:47:50.999Z</time></trkpt><trkpt lat="43.44268344481894" lon="11.62312201688078"><ele>235.0</ele><time>2026-03-22T09:47:51.999Z</time></trkpt><trkpt lat="43.44264591449974" lon="11.623050788072938"><ele>235.33333333333334</ele><time>2026-03-22T09:47:52.999Z</time></trkpt><trkpt lat="43.44257168741112" lon="11.62291485802576"><ele>235.66666666666669</ele><time>2026-03-22T09:47:54.999Z</time></trkpt><trkpt lat="43.44250834076086" lon="11.622793554926403"><ele>236.0</ele><time>2026-03-22T09:47:56.999Z</time></trkpt><trkpt lat="43.4424440096218" lon="11.622674997268343"><ele>235.33333333333334</ele><time>2026-03-22T09:47:58.999Z</time></trkpt><trkpt lat="43.44239510684424" lon="11.622547375866292"><ele>234.66666666666669</ele><time>2026-03-22T09:48:00.999Z</time></trkpt><trkpt lat="43.44237468510134" lon="11.62242231082899"><ele>234.0</ele><time>2026-03-22T09:48:02.998Z</time></trkpt><trkpt lat="43.442351942740835" lon="11.62233574840995"><ele>233.33333333333331</ele><time>2026-03-22T09:48:05.998Z</time></trkpt><trkpt lat="43.44229566263605" lon="11.622244388983194"><ele>232.66666666666666</ele><time>2026-03-22T09:49:21Z</time></trkpt><trkpt lat="43.442226007943205" lon="11.622239858694757"><ele>232.0</ele><time>2026-03-22T09:49:23Z</time></trkpt><trkpt lat="43.44214532987136" lon="11.622249524120564"><ele>232.16666666666666</ele><time>2026-03-22T09:49:24.999Z</time></trkpt><trkpt lat="43.44205975766963" lon="11.622246704300967"><ele>232.33333333333331</ele><time>2026-03-22T09:49:26.999Z</time></trkpt><trkpt lat="43.44197181970564" lon="11.622240845491179"><ele>232.5</ele><time>2026-03-22T09:49:28.999Z</time></trkpt><trkpt lat="43.44188378076811" lon="11.622236679359393"><ele>232.66666666666669</ele><time>2026-03-22T09:49:30.999Z</time></trkpt><trkpt lat="43.44179625253662" lon="11.622220997424769"><ele>232.83333333333334</ele><time>2026-03-22T09:49:32.999Z</time></trkpt><trkpt lat="43.44170831089865" lon="11.622208816001804"><ele>233.0</ele><time>2026-03-22T09:49:34.999Z</time></trkpt><trkpt lat="43.441621507778095" lon="11.622196997509771"><ele>233.00000000000003</ele><time>2026-03-22T09:49:36.999Z</time></trkpt><trkpt lat="43.4415319819132" lon="11.62217563228022"><ele>233.0</ele><time>2026-03-22T09:49:38.999Z</time></trkpt><trkpt lat="43.44145401468051" lon="11.622129884471534"><ele>233.0</ele><time>2026-03-22T09:49:40.999Z</time></trkpt><trkpt lat="43.44138188797019" lon="11.62207020453277"><ele>233.0</ele><time>2026-03-22T09:49:42.999Z</time></trkpt><trkpt lat="43.44131850024146" lon="11.621995300390083"><ele>233.00000000000003</ele><time>2026-03-22T09:49:44.999Z</time></trkpt><trkpt lat="43.441257910810485" lon="11.621915440886129"><ele>233.0</ele><time>2026-03-22T09:49:46.999Z</time></trkpt><trkpt lat="43.441208495850255" lon="11.621835097139934"><ele>233.83333333333334</ele><time>2026-03-22T09:49:48.999Z</time></trkpt><trkpt lat="43.44115913333361" lon="11.62175483603321"><ele>234.66666666666669</ele><time>2026-03-22T09:49:50.999Z</time></trkpt><trkpt lat="43.441103291448464" lon="11.621667745025222"><ele>235.5</ele><time>2026-03-22T09:49:52.999Z</time></trkpt><trkpt lat="43.441057615501464" lon="11.621587878377081"><ele>236.33333333333331</ele><time>2026-03-22T09:49:54.999Z</time></trkpt><trkpt lat="43.4410095878116" lon="11.621508326025857"><ele>237.16666666666666</ele><time>2026-03-22T09:49:56.999Z</time></trkpt><trkpt lat="43.44095760277964" lon="11.621426793249015"><ele>238.0</ele><time>2026-03-22T09:49:58.999Z</time></trkpt><trkpt lat="43.44090748816352" lon="11.621350542802189"><ele>237.99999999999997</ele><time>2026-03-22T09:50:00.999Z</time></trkpt><trkpt lat="43.44085760549706" lon="11.621270711697843"><ele>238.0</ele><time>2026-03-22T09:50:02.999Z</time></trkpt><trkpt lat="43.4408048472741" lon="11.621196158673657"><ele>238.0</ele><time>2026-03-22T09:50:04.999Z</time></trkpt><trkpt lat="43.440756028905085" lon="11.621113076276213"><ele>238.0</ele><time>2026-03-22T09:50:06.999Z</time></trkpt><trkpt lat="43.44070272740586" lon="11.621026841067863"><ele>237.99999999999997</ele><time>2026-03-22T09:50:08.999Z</time></trkpt><trkpt lat="43.440656973907515" lon="11.620929180820271"><ele>238.0</ele><time>2026-03-22T09:50:10.999Z</time></trkpt><trkpt lat="43.44061688917599" lon="11.620837179086834"><ele>237.83333333333331</ele><time>2026-03-22T09:50:12.998Z</time></trkpt><trkpt lat="43.44058167329208" lon="11.620734270173553"><ele>237.66666666666666</ele><time>2026-03-22T09:50:14.998Z</time></trkpt><trkpt lat="43.440549243560376" lon="11.620625222011904"><ele>237.5</ele><time>2026-03-22T09:50:16.998Z</time></trkpt><trkpt lat="43.44051841685915" lon="11.620514938250244"><ele>237.33333333333331</ele><time>2026-03-22T09:50:18.998Z</time></trkpt><trkpt lat="43.44048494464592" lon="11.62040232533742"><ele>237.16666666666666</ele><time>2026-03-22T09:50:20.998Z</time></trkpt><trkpt lat="43.440455040710475" lon="11.620287315899464"><ele>237.0</ele><time>2026-03-22T09:50:22.998Z</time></trkpt><trkpt lat="43.440421526287935" lon="11.620171776281252"><ele>237.39999999999998</ele><time>2026-03-22T09:50:24.998Z</time></trkpt><trkpt lat="43.440389480055046" lon="11.620055926933848"><ele>237.79999999999998</ele><time>2026-03-22T09:50:26.998Z</time></trkpt><trkpt lat="43.44035507543714" lon="11.619937460737715"><ele>238.2</ele><time>2026-03-22T09:50:28.998Z</time></trkpt><trkpt lat="43.44032211292598" lon="11.619814341072246"><ele>238.6</ele><time>2026-03-22T09:50:30.998Z</time></trkpt><trkpt lat="43.440286564754345" lon="11.619692652923685"><ele>239.0</ele><time>2026-03-22T09:50:32.998Z</time></trkpt><trkpt lat="43.440251842591174" lon="11.619577384265764"><ele>238.66666666666669</ele><time>2026-03-22T09:50:34.998Z</time></trkpt><trkpt lat="43.44021512492981" lon="11.61946547793387"><ele>238.33333333333334</ele><time>2026-03-22T09:50:36.998Z</time></trkpt><trkpt lat="43.44017523129144" lon="11.61935892331785"><ele>238.0</ele><time>2026-03-22T09:50:38.998Z</time></trkpt><trkpt lat="43.4401229360881" lon="11.619262352059977"><ele>237.66666666666669</ele><time>2026-03-22T09:50:40.998Z</time></trkpt><trkpt lat="43.440054603986475" lon="11.619182428880565"><ele>237.33333333333334</ele><time>2026-03-22T09:50:42.998Z</time></trkpt><trkpt lat="43.43997981570455" lon="11.619119073203514"><ele>237.0</ele><time>2026-03-22T09:50:44.998Z</time></trkpt><trkpt lat="43.43988456098986" lon="11.619083617519719"><ele>237.0</ele><time>2026-03-22T09:50:46.998Z</time></trkpt><trkpt lat="43.439776859187596" lon="11.6190847659055"><ele>237.0</ele><time>2026-03-22T09:50:48.998Z</time></trkpt><trkpt lat="43.43966143929803" lon="11.619106609370776"><ele>237.0</ele><time>2026-03-22T09:50:50.998Z</time></trkpt><trkpt lat="43.43954475275359" lon="11.619115622164637"><ele>237.0</ele><time>2026-03-22T09:50:53Z</time></trkpt><trkpt lat="43.43942019261598" lon="11.619132645364733"><ele>237.0</ele><time>2026-03-22T09:50:55Z</time></trkpt><trkpt lat="43.43929446212673" lon="11.619150355880452"><ele>237.0</ele><time>2026-03-22T09:50:57Z</time></trkpt><trkpt lat="43.43923048883828" lon="11.619157454704942"><ele>237.0</ele><time>2026-03-22T09:50:58Z</time></trkpt><trkpt lat="43.43916691479454" lon="11.619166329531962"><ele>237.0</ele><time>2026-03-22T09:50:59Z</time></trkpt><trkpt lat="43.43910368004629" lon="11.619174033339167"><ele>237.0</ele><time>2026-03-22T09:51:00Z</time></trkpt><trkpt lat="43.4390377044278" lon="11.619184623988545"><ele>237.0</ele><time>2026-03-22T09:51:01Z</time></trkpt><trkpt lat="43.43897279586128" lon="11.619193421423796"><ele>236.99999999999997</ele><time>2026-03-22T09:51:02Z</time></trkpt><trkpt lat="43.438908616953626" lon="11.619196682763276"><ele>237.0</ele><time>2026-03-22T09:51:03Z</time></trkpt><trkpt lat="43.438841028071195" lon="11.619203716295589"><ele>236.99999999999997</ele><time>2026-03-22T09:51:04Z</time></trkpt><trkpt lat="43.43877617657654" lon="11.619214612593929"><ele>236.99999999999997</ele><time>2026-03-22T09:51:05Z</time></trkpt><trkpt lat="43.438711475814436" lon="11.61922342266389"><ele>237.0</ele><time>2026-03-22T09:51:06Z</time></trkpt><trkpt lat="43.4386460358914" lon="11.619232880281407"><ele>236.99999999999997</ele><time>2026-03-22T09:51:07Z</time></trkpt><trkpt lat="43.43858074353129" lon="11.619239258367616"><ele>236.99999999999997</ele><time>2026-03-22T09:51:08Z</time></trkpt><trkpt lat="43.438516157724656" lon="11.619242981231858"><ele>236.57142857142856</ele><time>2026-03-22T09:51:09Z</time></trkpt><trkpt lat="43.43845272436946" lon="11.619252389820703"><ele>236.14285714285714</ele><time>2026-03-22T09:51:10Z</time></trkpt><trkpt lat="43.43838736895069" lon="11.619259908081986"><ele>235.71428571428572</ele><time>2026-03-22T09:51:11Z</time></trkpt><trkpt lat="43.43831974462931" lon="11.619264833384713"><ele>235.28571428571428</ele><time>2026-03-22T09:51:12Z</time></trkpt><trkpt lat="43.43825167176957" lon="11.619268510851624"><ele>234.8571428571429</ele><time>2026-03-22T09:51:13Z</time></trkpt><trkpt lat="43.43818166183531" lon="11.619269786270525"><ele>234.42857142857144</ele><time>2026-03-22T09:51:14Z</time></trkpt><trkpt lat="43.43810967262728" lon="11.619265616843679"><ele>234.0</ele><time>2026-03-22T09:51:15Z</time></trkpt><trkpt lat="43.43803596760495" lon="11.619258712619743"><ele>234.0</ele><time>2026-03-22T09:51:16Z</time></trkpt><trkpt lat="43.437961049467404" lon="11.619242465830208"><ele>234.0</ele><time>2026-03-22T09:51:17Z</time></trkpt><trkpt lat="43.43788467693263" lon="11.619218483656697"><ele>234.0</ele><time>2026-03-22T09:51:18Z</time></trkpt><trkpt lat="43.437805119791214" lon="11.619191111126755"><ele>234.0</ele><time>2026-03-22T09:51:19Z</time></trkpt><trkpt lat="43.4377250920487" lon="11.619153204391038"><ele>234.0</ele><time>2026-03-22T09:51:20Z</time></trkpt><trkpt lat="43.43764374954299" lon="11.619109888813552"><ele>234.0</ele><time>2026-03-22T09:51:21Z</time></trkpt><trkpt lat="43.437565614071595" lon="11.619060098809433"><ele>234.0</ele><time>2026-03-22T09:51:22Z</time></trkpt><trkpt lat="43.43748949257972" lon="11.619009883299773"><ele>234.0</ele><time>2026-03-22T09:51:23Z</time></trkpt><trkpt lat="43.4374140834334" lon="11.618957366376142"><ele>234.0</ele><time>2026-03-22T09:51:24Z</time></trkpt><trkpt lat="43.43734124624656" lon="11.618905575848975"><ele>234.0</ele><time>2026-03-22T09:51:25Z</time></trkpt><trkpt lat="43.43727038351794" lon="11.618855595144145"><ele>234.0</ele><time>2026-03-22T09:51:26Z</time></trkpt><trkpt lat="43.43720011467463" lon="11.618806261420424"><ele>234.0</ele><time>2026-03-22T09:51:27Z</time></trkpt><trkpt lat="43.43713274403476" lon="11.618758912318771"><ele>234.16666666666666</ele><time>2026-03-22T09:51:28Z</time></trkpt><trkpt lat="43.43706586103114" lon="11.618714252584528"><ele>234.33333333333331</ele><time>2026-03-22T09:51:29Z</time></trkpt><trkpt lat="43.436999826851945" lon="11.618668260996408"><ele>234.5</ele><time>2026-03-22T09:51:30Z</time></trkpt><trkpt lat="43.436932054479904" lon="11.618621770655842"><ele>234.66666666666666</ele><time>2026-03-22T09:51:30.999Z</time></trkpt><trkpt lat="43.436864934112826" lon="11.618574739706496"><ele>234.83333333333331</ele><time>2026-03-22T09:51:31.999Z</time></trkpt><trkpt lat="43.43679659776756" lon="11.618524387175606"><ele>235.0</ele><time>2026-03-22T09:51:32.999Z</time></trkpt><trkpt lat="43.436726575787944" lon="11.618474263777644"><ele>234.49999999999997</ele><time>2026-03-22T09:51:33.999Z</time></trkpt><trkpt lat="43.43665398290804" lon="11.618424926072443"><ele>234.0</ele><time>2026-03-22T09:51:34.999Z</time></trkpt><trkpt lat="43.436580998767184" lon="11.618373234615392"><ele>233.5</ele><time>2026-03-22T09:51:35.999Z</time></trkpt><trkpt lat="43.43650909786209" lon="11.618322982352712"><ele>233.0</ele><time>2026-03-22T09:51:36.999Z</time></trkpt><trkpt lat="43.436439725346354" lon="11.618277441963306"><ele>232.49999999999997</ele><time>2026-03-22T09:51:37.999Z</time></trkpt><trkpt lat="43.43636501411572" lon="11.618239526665802"><ele>232.0</ele><time>2026-03-22T09:51:38.999Z</time></trkpt><trkpt lat="43.436289490936474" lon="11.618199541328936"><ele>231.99999999999997</ele><time>2026-03-22T09:51:39.999Z</time></trkpt><trkpt lat="43.436218832236925" lon="11.618155262145546"><ele>232.0</ele><time>2026-03-22T09:51:40.999Z</time></trkpt><trkpt lat="43.43615093261839" lon="11.618108422410236"><ele>232.0</ele><time>2026-03-22T09:51:41.999Z</time></trkpt><trkpt lat="43.4360859743675" lon="11.618063542555285"><ele>232.0</ele><time>2026-03-22T09:51:42.999Z</time></trkpt><trkpt lat="43.436030817106136" lon="11.61800023783626"><ele>231.99999999999997</ele><time>2026-03-22T09:51:43.999Z</time></trkpt><trkpt lat="43.435972587212994" lon="11.617960100099921"><ele>232.0</ele><time>2026-03-22T09:51:44.999Z</time></trkpt><trkpt lat="43.435870556270096" lon="11.618052458888085"><ele>232.0</ele><time>2026-03-22T09:51:45.999Z</time></trkpt><trkpt lat="43.43580543942301" lon="11.618077645912068"><ele>232.0</ele><time>2026-03-22T09:51:46.999Z</time></trkpt><trkpt lat="43.4356904571803" lon="11.61813587304772"><ele>232.0</ele><time>2026-03-22T09:51:48.999Z</time></trkpt><trkpt lat="43.43558120554082" lon="11.61818608227792"><ele>232.0</ele><time>2026-03-22T09:51:50.999Z</time></trkpt><trkpt lat="43.43547887870048" lon="11.618240388968271"><ele>232.0</ele><time>2026-03-22T09:51:52.999Z</time></trkpt><trkpt lat="43.435388585700665" lon="11.618295788376098"><ele>232.0</ele><time>2026-03-22T09:51:54.999Z</time></trkpt><trkpt lat="43.4352971835387" lon="11.618334540689746"><ele>232.0</ele><time>2026-03-22T09:51:56.999Z</time></trkpt><trkpt lat="43.43521765145151" lon="11.61839205129056"><ele>232.0</ele><time>2026-03-22T09:51:58.999Z</time></trkpt><trkpt lat="43.43513925060319" lon="11.61845967374456"><ele>232.0</ele><time>2026-03-22T09:52:00.999Z</time></trkpt><trkpt lat="43.43506146999714" lon="11.6185361790883"><ele>232.0</ele><time>2026-03-22T09:52:02.999Z</time></trkpt><trkpt lat="43.43498966552121" lon="11.618610356178527"><ele>232.49999999999997</ele><time>2026-03-22T09:52:04.999Z</time></trkpt><trkpt lat="43.43492030542403" lon="11.618687213973507"><ele>233.0</ele><time>2026-03-22T09:52:06.999Z</time></trkpt><trkpt lat="43.43485693501489" lon="11.618761166439992"><ele>233.5</ele><time>2026-03-22T09:52:08.999Z</time></trkpt><trkpt lat="43.43480498682842" lon="11.61885633298425"><ele>234.0</ele><time>2026-03-22T09:52:10.999Z</time></trkpt><trkpt lat="43.43474022290325" lon="11.61893339259657"><ele>234.49999999999997</ele><time>2026-03-22T09:52:12.999Z</time></trkpt><trkpt lat="43.4346792195145" lon="11.619017801863313"><ele>235.0</ele><time>2026-03-22T09:52:14.999Z</time></trkpt><trkpt lat="43.43461135101216" lon="11.619094144459831"><ele>235.66666666666666</ele><time>2026-03-22T09:52:16.999Z</time></trkpt><trkpt lat="43.43454482712896" lon="11.619164124014814"><ele>236.33333333333331</ele><time>2026-03-22T09:52:18.998Z</time></trkpt><trkpt lat="43.434476865804356" lon="11.619235477834401"><ele>237.0</ele><time>2026-03-22T09:52:20.998Z</time></trkpt><trkpt lat="43.43440920709081" lon="11.619307148187143"><ele>237.66666666666669</ele><time>2026-03-22T09:52:22.998Z</time></trkpt><trkpt lat="43.43434287870821" lon="11.619375729719986"><ele>238.33333333333334</ele><time>2026-03-22T09:52:24.998Z</time></trkpt><trkpt lat="43.43428048281599" lon="11.619445780381334"><ele>239.0</ele><time>2026-03-22T09:52:26.998Z</time></trkpt><trkpt lat="43.434217396630004" lon="11.619512005536052"><ele>239.66666666666669</ele><time>2026-03-22T09:52:28.998Z</time></trkpt><trkpt lat="43.43415406994113" lon="11.619572989135069"><ele>240.33333333333334</ele><time>2026-03-22T09:52:30.998Z</time></trkpt><trkpt lat="43.434086496943074" lon="11.619629900014756"><ele>241.0</ele><time>2026-03-22T09:52:32.998Z</time></trkpt><trkpt lat="43.4340125594663" lon="11.619688652585268"><ele>241.66666666666669</ele><time>2026-03-22T09:52:34.998Z</time></trkpt><trkpt lat="43.43393487104692" lon="11.619744298997384"><ele>242.33333333333334</ele><time>2026-03-22T09:52:36.998Z</time></trkpt><trkpt lat="43.43385611782975" lon="11.619798211920962"><ele>243.0</ele><time>2026-03-22T09:52:38.998Z</time></trkpt><trkpt lat="43.433772041359525" lon="11.619835264518969"><ele>243.16666666666666</ele><time>2026-03-22T09:52:40.998Z</time></trkpt><trkpt lat="43.433685670751586" lon="11.619866874620376"><ele>243.33333333333331</ele><time>2026-03-22T09:52:42.998Z</time></trkpt><trkpt lat="43.433598334292526" lon="11.619895161649426"><ele>243.5</ele><time>2026-03-22T09:52:44.998Z</time></trkpt><trkpt lat="43.433515041204636" lon="11.619916116862054"><ele>243.66666666666666</ele><time>2026-03-22T09:52:46.998Z</time></trkpt><trkpt lat="43.43343405018059" lon="11.619943584701144"><ele>243.83333333333331</ele><time>2026-03-22T09:52:48.998Z</time></trkpt><trkpt lat="43.43335994442658" lon="11.619977071082888"><ele>244.0</ele><time>2026-03-22T09:52:50.998Z</time></trkpt><trkpt lat="43.4332901744728" lon="11.62000662319614"><ele>243.99999999999997</ele><time>2026-03-22T09:52:52.998Z</time></trkpt><trkpt lat="43.43322314670041" lon="11.620047337916871"><ele>244.0</ele><time>2026-03-22T09:52:54.998Z</time></trkpt><trkpt lat="43.43315461901917" lon="11.62009004133841"><ele>243.99999999999997</ele><time>2026-03-22T09:52:56.998Z</time></trkpt><trkpt lat="43.433092200225055" lon="11.620140850163741"><ele>243.99999999999997</ele><time>2026-03-22T09:52:59Z</time></trkpt><trkpt lat="43.43302843903625" lon="11.620195116243773"><ele>244.0</ele><time>2026-03-22T09:53:01Z</time></trkpt><trkpt lat="43.43296205476763" lon="11.620246020333553"><ele>243.99999999999997</ele><time>2026-03-22T09:53:03Z</time></trkpt><trkpt lat="43.432896206499485" lon="11.620301554989265"><ele>243.99999999999997</ele><time>2026-03-22T09:53:05Z</time></trkpt><trkpt lat="43.43282691936309" lon="11.620341242782434"><ele>244.83333333333331</ele><time>2026-03-22T09:53:07Z</time></trkpt><trkpt lat="43.43275718312413" lon="11.620382093153749"><ele>245.66666666666666</ele><time>2026-03-22T09:53:09Z</time></trkpt><trkpt lat="43.43268180465691" lon="11.620411917587449"><ele>246.5</ele><time>2026-03-22T09:53:11Z</time></trkpt><trkpt lat="43.43260631575323" lon="11.620424499428362"><ele>247.33333333333331</ele><time>2026-03-22T09:53:13Z</time></trkpt><trkpt lat="43.43252982040797" lon="11.620438158213934"><ele>248.16666666666666</ele><time>2026-03-22T09:53:15Z</time></trkpt><trkpt lat="43.432451275253854" lon="11.620441860130468"><ele>249.0</ele><time>2026-03-22T09:53:17Z</time></trkpt><trkpt lat="43.432382109986996" lon="11.62045770974686"><ele>249.0</ele><time>2026-03-22T09:53:19Z</time></trkpt><trkpt lat="43.43230840851812" lon="11.620466023010945"><ele>248.99999999999997</ele><time>2026-03-22T09:53:21Z</time></trkpt><trkpt lat="43.432233986584734" lon="11.620469671177002"><ele>249.0</ele><time>2026-03-22T09:53:23Z</time></trkpt><trkpt lat="43.43216438972826" lon="11.620481308314407"><ele>249.0</ele><time>2026-03-22T09:53:25Z</time></trkpt><trkpt lat="43.43209360329719" lon="11.62048497854945"><ele>248.99999999999997</ele><time>2026-03-22T09:53:27Z</time></trkpt><trkpt lat="43.432017674821935" lon="11.620490642712173"><ele>249.0</ele><time>2026-03-22T09:53:29Z</time></trkpt><trkpt lat="43.431944700424665" lon="11.620503788972657"><ele>249.0</ele><time>2026-03-22T09:53:31Z</time></trkpt><trkpt lat="43.431865699803346" lon="11.620514996045046"><ele>248.83333333333334</ele><time>2026-03-22T09:53:33Z</time></trkpt><trkpt lat="43.431792989274626" lon="11.620525768155238"><ele>248.66666666666669</ele><time>2026-03-22T09:53:35Z</time></trkpt><trkpt lat="43.431716207157336" lon="11.620538082419753"><ele>248.5</ele><time>2026-03-22T09:53:36.999Z</time></trkpt><trkpt lat="43.43164288535165" lon="11.620551733177264"><ele>248.33333333333334</ele><time>2026-03-22T09:53:38.999Z</time></trkpt><trkpt lat="43.431566349844346" lon="11.62056743336558"><ele>248.16666666666669</ele><time>2026-03-22T09:53:40.999Z</time></trkpt><trkpt lat="43.43149428158114" lon="11.62058738963521"><ele>248.0</ele><time>2026-03-22T09:53:42.999Z</time></trkpt><trkpt lat="43.43141698186676" lon="11.620614802792794"><ele>248.00000000000003</ele><time>2026-03-22T09:53:44.999Z</time></trkpt><trkpt lat="43.43134103600609" lon="11.6206432567371"><ele>248.0</ele><time>2026-03-22T09:53:46.999Z</time></trkpt><trkpt lat="43.43126014813516" lon="11.620677781438607"><ele>248.0</ele><time>2026-03-22T09:53:48.999Z</time></trkpt><trkpt lat="43.43118262134915" lon="11.62071639986827"><ele>248.0</ele><time>2026-03-22T09:53:50.999Z</time></trkpt><trkpt lat="43.43110473102603" lon="11.62076828278323"><ele>248.00000000000003</ele><time>2026-03-22T09:53:52.999Z</time></trkpt><trkpt lat="43.43103355889206" lon="11.620830162399134"><ele>248.0</ele><time>2026-03-22T09:53:54.999Z</time></trkpt><trkpt lat="43.43096163561926" lon="11.62089356994564"><ele>247.66666666666669</ele><time>2026-03-22T09:53:56.999Z</time></trkpt><trkpt lat="43.43089372114689" lon="11.62095955505743"><ele>247.33333333333334</ele><time>2026-03-22T09:53:58.999Z</time></trkpt><trkpt lat="43.430832389731" lon="11.621026361225836"><ele>247.0</ele><time>2026-03-22T09:54:00.999Z</time></trkpt><trkpt lat="43.43077212651695" lon="11.621082796667944"><ele>246.66666666666669</ele><time>2026-03-22T09:54:02.999Z</time></trkpt><trkpt lat="43.43070176797113" lon="11.62115001050301"><ele>246.33333333333334</ele><time>2026-03-22T09:54:04.999Z</time></trkpt><trkpt lat="43.43063214605741" lon="11.621211318858066"><ele>246.0</ele><time>2026-03-22T09:54:06.999Z</time></trkpt><trkpt lat="43.43056740002559" lon="11.621275542099161"><ele>247.5</ele><time>2026-03-22T09:54:08.999Z</time></trkpt><trkpt lat="43.430496735665464" lon="11.62133628628852"><ele>249.0</ele><time>2026-03-22T09:54:10.999Z</time></trkpt><trkpt lat="43.43043106013525" lon="11.621399086611426"><ele>250.5</ele><time>2026-03-22T09:54:12.999Z</time></trkpt><trkpt lat="43.43036283020349" lon="11.621459707456122"><ele>252.0</ele><time>2026-03-22T09:54:14.999Z</time></trkpt><trkpt lat="43.43029680641495" lon="11.621524164245299"><ele>253.5</ele><time>2026-03-22T09:54:16.999Z</time></trkpt><trkpt lat="43.43023194550523" lon="11.621583382888335"><ele>255.0</ele><time>2026-03-22T09:54:18.999Z</time></trkpt><trkpt lat="43.430167654145286" lon="11.621648577365265"><ele>255.0</ele><time>2026-03-22T09:54:20.999Z</time></trkpt><trkpt lat="43.43010536619229" lon="11.621710727411521"><ele>255.0</ele><time>2026-03-22T09:54:22.999Z</time></trkpt><trkpt lat="43.43004149308264" lon="11.621771091824211"><ele>255.0</ele><time>2026-03-22T09:54:24.998Z</time></trkpt><trkpt lat="43.42997456918418" lon="11.621834094267125"><ele>255.0</ele><time>2026-03-22T09:54:26.998Z</time></trkpt><trkpt lat="43.42990809602901" lon="11.621900809243895"><ele>255.0</ele><time>2026-03-22T09:54:28.998Z</time></trkpt><trkpt lat="43.42984319604851" lon="11.621970009040755"><ele>255.0</ele><time>2026-03-22T09:54:30.998Z</time></trkpt><trkpt lat="43.429775074119576" lon="11.622036303183092"><ele>254.83333333333334</ele><time>2026-03-22T09:54:32.998Z</time></trkpt><trkpt lat="43.429708141846284" lon="11.622103122031199"><ele>254.66666666666669</ele><time>2026-03-22T09:54:34.998Z</time></trkpt><trkpt lat="43.42964468659531" lon="11.622168931952391"><ele>254.5</ele><time>2026-03-22T09:54:36.998Z</time></trkpt><trkpt lat="43.42957271062161" lon="11.62223433707277"><ele>254.33333333333334</ele><time>2026-03-22T09:54:38.998Z</time></trkpt><trkpt lat="43.429510911656024" lon="11.622306872674589"><ele>254.16666666666669</ele><time>2026-03-22T09:54:40.998Z</time></trkpt><trkpt lat="43.42944665548735" lon="11.62237336697244"><ele>254.0</ele><time>2026-03-22T09:54:42.998Z</time></trkpt><trkpt lat="43.429384901627714" lon="11.62244822571489"><ele>254.00000000000003</ele><time>2026-03-22T09:54:44.998Z</time></trkpt><trkpt lat="43.42932428230488" lon="11.622515676599608"><ele>254.0</ele><time>2026-03-22T09:54:46.998Z</time></trkpt><trkpt lat="43.42926452544127" lon="11.622592200591388"><ele>254.0</ele><time>2026-03-22T09:54:48.998Z</time></trkpt><trkpt lat="43.42920398909819" lon="11.62266899249828"><ele>254.0</ele><time>2026-03-22T09:54:50.998Z</time></trkpt><trkpt lat="43.42915378112478" lon="11.622749883714981"><ele>254.00000000000003</ele><time>2026-03-22T09:54:52.998Z</time></trkpt><trkpt lat="43.429101014857544" lon="11.622833790474962"><ele>254.0</ele><time>2026-03-22T09:54:54.998Z</time></trkpt><trkpt lat="43.42905057535253" lon="11.62292463447665"><ele>254.33333333333334</ele><time>2026-03-22T09:54:56.998Z</time></trkpt><trkpt lat="43.42900409347753" lon="11.623016390959"><ele>254.66666666666669</ele><time>2026-03-22T09:54:58.998Z</time></trkpt><trkpt lat="43.42896381985479" lon="11.623115548809142"><ele>255.0</ele><time>2026-03-22T09:55:00.998Z</time></trkpt><trkpt lat="43.428932537298515" lon="11.62322564017046"><ele>255.33333333333331</ele><time>2026-03-22T09:55:02.998Z</time></trkpt><trkpt lat="43.42890417365379" lon="11.623341579323602"><ele>255.66666666666666</ele><time>2026-03-22T09:55:05Z</time></trkpt><trkpt lat="43.4288793011872" lon="11.623464139674947"><ele>256.0</ele><time>2026-03-22T09:55:07Z</time></trkpt><trkpt lat="43.428857235287005" lon="11.623589936349376"><ele>256.40000000000003</ele><time>2026-03-22T09:55:09Z</time></trkpt><trkpt lat="43.4288308575889" lon="11.623718250474196"><ele>256.8</ele><time>2026-03-22T09:55:11Z</time></trkpt><trkpt lat="43.42880552519572" lon="11.623848813235574"><ele>257.20000000000005</ele><time>2026-03-22T09:55:13Z</time></trkpt><trkpt lat="43.42878541527844" lon="11.623987550785204"><ele>257.6</ele><time>2026-03-22T09:55:15Z</time></trkpt><trkpt lat="43.428755069495054" lon="11.624123958882878"><ele>258.0</ele><time>2026-03-22T09:55:17Z</time></trkpt><trkpt lat="43.428702785586026" lon="11.624181797927637"><ele>257.0</ele><time>2026-03-22T09:55:18Z</time></trkpt><trkpt lat="43.42867556067599" lon="11.6243227035132"><ele>256.0</ele><time>2026-03-22T09:55:20Z</time></trkpt><trkpt lat="43.42864978842512" lon="11.624458088001905"><ele>255.0</ele><time>2026-03-22T09:55:22Z</time></trkpt><trkpt lat="43.42862384466494" lon="11.624590179044358"><ele>254.0</ele><time>2026-03-22T09:55:24Z</time></trkpt><trkpt lat="43.428599779280376" lon="11.624713735194243"><ele>253.0</ele><time>2026-03-22T09:55:26Z</time></trkpt><trkpt lat="43.42857444568941" lon="11.624843802714759"><ele>253.0</ele><time>2026-03-22T09:55:28Z</time></trkpt><trkpt lat="43.42854734322705" lon="11.624967473647207"><ele>253.0</ele><time>2026-03-22T09:55:30Z</time></trkpt><trkpt lat="43.42851860949067" lon="11.625089027307165"><ele>253.0</ele><time>2026-03-22T09:55:32Z</time></trkpt><trkpt lat="43.428482661315265" lon="11.625200011688761"><ele>253.0</ele><time>2026-03-22T09:55:34Z</time></trkpt><trkpt lat="43.42843426607817" lon="11.625302290099935"><ele>253.0</ele><time>2026-03-22T09:55:36Z</time></trkpt><trkpt lat="43.42837067941459" lon="11.625403395136548"><ele>252.83333333333331</ele><time>2026-03-22T09:55:38Z</time></trkpt><trkpt lat="43.428302338741176" lon="11.625490314970659"><ele>252.66666666666666</ele><time>2026-03-22T09:55:40Z</time></trkpt><trkpt lat="43.42822945065413" lon="11.625573597317908"><ele>252.5</ele><time>2026-03-22T09:55:41.999Z</time></trkpt><trkpt lat="43.428159404695634" lon="11.625648913892686"><ele>252.33333333333331</ele><time>2026-03-22T09:55:43.999Z</time></trkpt><trkpt lat="43.4280950183926" lon="11.625715590727667"><ele>252.16666666666666</ele><time>2026-03-22T09:55:45.999Z</time></trkpt><trkpt lat="43.42802530813718" lon="11.6257860895221"><ele>252.0</ele><time>2026-03-22T09:55:47.999Z</time></trkpt><trkpt lat="43.4279627843631" lon="11.62585674723185"><ele>252.0</ele><time>2026-03-22T09:55:49.999Z</time></trkpt><trkpt lat="43.42789596577178" lon="11.625937057255019"><ele>252.0</ele><time>2026-03-22T09:55:51.999Z</time></trkpt><trkpt lat="43.4278341790024" lon="11.626020125826969"><ele>252.0</ele><time>2026-03-22T09:55:53.999Z</time></trkpt><trkpt lat="43.42777909833868" lon="11.626105716238284"><ele>252.0</ele><time>2026-03-22T09:55:55.999Z</time></trkpt><trkpt lat="43.42772903615882" lon="11.626193606674764"><ele>252.0</ele><time>2026-03-22T09:55:57.999Z</time></trkpt><trkpt lat="43.42768006763292" lon="11.626282853750643"><ele>252.0</ele><time>2026-03-22T09:55:59.999Z</time></trkpt><trkpt lat="43.42764178114261" lon="11.62638808606297"><ele>253.33333333333334</ele><time>2026-03-22T09:56:01.999Z</time></trkpt><trkpt lat="43.427593724949844" lon="11.626481276326635"><ele>254.66666666666669</ele><time>2026-03-22T09:56:03.999Z</time></trkpt><trkpt lat="43.42753287657106" lon="11.626557365507807"><ele>256.0</ele><time>2026-03-22T09:56:05.999Z</time></trkpt><trkpt lat="43.42748492694536" lon="11.626647607309039"><ele>257.33333333333337</ele><time>2026-03-22T09:56:07.999Z</time></trkpt><trkpt lat="43.4274453686672" lon="11.626744820730694"><ele>258.6666666666667</ele><time>2026-03-22T09:56:09.999Z</time></trkpt><trkpt lat="43.427399544042835" lon="11.626830827117475"><ele>260.0</ele><time>2026-03-22T09:56:11.999Z</time></trkpt><trkpt lat="43.42735826112355" lon="11.626915473992012"><ele>259.42857142857144</ele><time>2026-03-22T09:56:13.999Z</time></trkpt><trkpt lat="43.427319803139575" lon="11.6269903931396"><ele>258.8571428571429</ele><time>2026-03-22T09:56:15.999Z</time></trkpt><trkpt lat="43.427281407667984" lon="11.6270641992334"><ele>258.2857142857143</ele><time>2026-03-22T09:56:17.999Z</time></trkpt><trkpt lat="43.4272443493824" lon="11.627142238853102"><ele>257.7142857142857</ele><time>2026-03-22T09:56:19.999Z</time></trkpt><trkpt lat="43.42720832500081" lon="11.62722414351117"><ele>257.1428571428571</ele><time>2026-03-22T09:56:21.999Z</time></trkpt><trkpt lat="43.42717599766928" lon="11.627311020059745"><ele>256.57142857142856</ele><time>2026-03-22T09:56:23.999Z</time></trkpt><trkpt lat="43.427139860333654" lon="11.627401316109873"><ele>256.0</ele><time>2026-03-22T09:56:25.999Z</time></trkpt><trkpt lat="43.427119443763935" lon="11.627498039121049"><ele>256.0</ele><time>2026-03-22T09:56:27.999Z</time></trkpt><trkpt lat="43.42709991242491" lon="11.62759042792712"><ele>255.99999999999997</ele><time>2026-03-22T09:56:29.998Z</time></trkpt><trkpt lat="43.427081560654145" lon="11.627686966875164"><ele>256.0</ele><time>2026-03-22T09:56:31.998Z</time></trkpt><trkpt lat="43.42706249895279" lon="11.627789524277832"><ele>256.0</ele><time>2026-03-22T09:56:33.998Z</time></trkpt><trkpt lat="43.42704519321262" lon="11.627887198581604"><ele>255.99999999999997</ele><time>2026-03-22T09:56:35.998Z</time></trkpt><trkpt lat="43.427048566523034" lon="11.62799683591729"><ele>256.0</ele><time>2026-03-22T09:56:37.998Z</time></trkpt><trkpt lat="43.42703519323773" lon="11.62809707470338"><ele>256.0</ele><time>2026-03-22T09:56:39.998Z</time></trkpt><trkpt lat="43.42702260193947" lon="11.628195537429992"><ele>256.57142857142856</ele><time>2026-03-22T09:56:41.998Z</time></trkpt><trkpt lat="43.42700604703974" lon="11.628291654117376"><ele>257.1428571428571</ele><time>2026-03-22T09:56:43.998Z</time></trkpt><trkpt lat="43.426979999647294" lon="11.628382061658774"><ele>257.7142857142857</ele><time>2026-03-22T09:56:45.998Z</time></trkpt><trkpt lat="43.426960597459285" lon="11.628478387231649"><ele>258.2857142857143</ele><time>2026-03-22T09:56:47.998Z</time></trkpt><trkpt lat="43.42693093670481" lon="11.628568122628474"><ele>258.8571428571429</ele><time>2026-03-22T09:56:49.998Z</time></trkpt><trkpt lat="43.42690098910275" lon="11.628647812976753"><ele>259.42857142857144</ele><time>2026-03-22T09:56:51.998Z</time></trkpt><trkpt lat="43.426864163205835" lon="11.628763399615968"><ele>260.0</ele><time>2026-03-22T09:56:54.998Z</time></trkpt><trkpt lat="43.42682576628475" lon="11.628867744255443"><ele>261.00000000000006</ele><time>2026-03-22T09:56:57.998Z</time></trkpt><trkpt lat="43.42680504602683" lon="11.62896426384162"><ele>262.0</ele><time>2026-03-22T09:57:00.998Z</time></trkpt><trkpt lat="43.42679365707472" lon="11.629064105238825"><ele>263.0</ele><time>2026-03-22T09:57:03.998Z</time></trkpt><trkpt lat="43.426795838304805" lon="11.629163484718019"><ele>264.0</ele><time>2026-03-22T09:57:06.998Z</time></trkpt><trkpt lat="43.42680740361169" lon="11.629267517298322"><ele>265.0</ele><time>2026-03-22T09:57:10Z</time></trkpt><trkpt lat="43.42682611247879" lon="11.629367048861404"><ele>266.00000000000006</ele><time>2026-03-22T09:57:13Z</time></trkpt><trkpt lat="43.42684373654177" lon="11.629469853606846"><ele>267.0</ele><time>2026-03-22T09:57:16Z</time></trkpt><trkpt lat="43.42686777804963" lon="11.629568897405647"><ele>268.00000000000006</ele><time>2026-03-22T09:57:19Z</time></trkpt><trkpt lat="43.42689507046814" lon="11.62966843312538"><ele>269.0</ele><time>2026-03-22T09:57:22Z</time></trkpt><trkpt lat="43.42692157115484" lon="11.62976686581202"><ele>270.0</ele><time>2026-03-22T09:57:25Z</time></trkpt><trkpt lat="43.426936356671675" lon="11.629867693519715"><ele>271.0</ele><time>2026-03-22T09:57:28Z</time></trkpt><trkpt lat="43.42694847420567" lon="11.629969362463475"><ele>272.0</ele><time>2026-03-22T09:57:31Z</time></trkpt><trkpt lat="43.42695101886822" lon="11.630070754228921"><ele>273.00000000000006</ele><time>2026-03-22T09:57:34Z</time></trkpt><trkpt lat="43.42693230253484" lon="11.63016607098588"><ele>274.0</ele><time>2026-03-22T09:57:37Z</time></trkpt><trkpt lat="43.42689705442616" lon="11.630253294987941"><ele>274.0</ele><time>2026-03-22T09:57:40Z</time></trkpt><trkpt lat="43.42683621370382" lon="11.630326708680412"><ele>274.0</ele><time>2026-03-22T09:57:43Z</time></trkpt><trkpt lat="43.42676504121751" lon="11.630360266534122"><ele>274.0</ele><time>2026-03-22T09:57:45.999Z</time></trkpt><trkpt lat="43.42668745268121" lon="11.630354190560142"><ele>274.0</ele><time>2026-03-22T09:57:48.999Z</time></trkpt><trkpt lat="43.42661796120649" lon="11.630318640747364"><ele>274.0</ele><time>2026-03-22T09:57:51.999Z</time></trkpt><trkpt lat="43.426544522881116" lon="11.630277622449295"><ele>274.0</ele><time>2026-03-22T09:57:54.999Z</time></trkpt><trkpt lat="43.426480505741274" lon="11.63024976688897"><ele>274.0</ele><time>2026-03-22T09:57:57.999Z</time></trkpt><trkpt lat="43.426413440369615" lon="11.63021883480532"><ele>274.0</ele><time>2026-03-22T09:58:00.999Z</time></trkpt><trkpt lat="43.426341890708215" lon="11.63019736522186"><ele>274.0</ele><time>2026-03-22T09:58:03.999Z</time></trkpt><trkpt lat="43.426270175321044" lon="11.630178155401179"><ele>274.0</ele><time>2026-03-22T09:58:06.999Z</time></trkpt><trkpt lat="43.426195591071895" lon="11.630177891695636"><ele>274.0</ele><time>2026-03-22T09:58:09.999Z</time></trkpt><trkpt lat="43.42611724046442" lon="11.630175484426356"><ele>274.0</ele><time>2026-03-22T09:58:12.999Z</time></trkpt><trkpt lat="43.4260389784392" lon="11.63019514556554"><ele>274.3333333333333</ele><time>2026-03-22T09:58:15.999Z</time></trkpt><trkpt lat="43.42596383737636" lon="11.630218331566176"><ele>274.66666666666663</ele><time>2026-03-22T09:58:18.999Z</time></trkpt><trkpt lat="43.425886328128215" lon="11.63024799926497"><ele>275.0</ele><time>2026-03-22T09:58:21.999Z</time></trkpt><trkpt lat="43.42581606604907" lon="11.630290158364875"><ele>275.3333333333333</ele><time>2026-03-22T09:58:24.999Z</time></trkpt><trkpt lat="43.425743604791535" lon="11.630331216140194"><ele>275.6666666666667</ele><time>2026-03-22T09:58:27.999Z</time></trkpt><trkpt lat="43.4256733267172" lon="11.630380231609239"><ele>276.0</ele><time>2026-03-22T09:58:30.999Z</time></trkpt><trkpt lat="43.425606141642064" lon="11.630427721662548"><ele>276.3333333333333</ele><time>2026-03-22T09:58:33.998Z</time></trkpt><trkpt lat="43.42554365366231" lon="11.630477032443656"><ele>276.6666666666667</ele><time>2026-03-22T09:58:36.998Z</time></trkpt><trkpt lat="43.425483614087135" lon="11.63053535472352"><ele>277.0</ele><time>2026-03-22T09:58:39.998Z</time></trkpt><trkpt lat="43.42542116515238" lon="11.630610556197821"><ele>277.33333333333337</ele><time>2026-03-22T09:58:42.998Z</time></trkpt><trkpt lat="43.425373050401774" lon="11.630687493239394"><ele>277.6666666666667</ele><time>2026-03-22T09:58:45.998Z</time></trkpt><trkpt lat="43.425327309860634" lon="11.630769482023185"><ele>278.0</ele><time>2026-03-22T09:58:48.998Z</time></trkpt><trkpt lat="43.42527947099699" lon="11.630866054885344"><ele>278.0</ele><time>2026-03-22T09:58:51.998Z</time></trkpt><trkpt lat="43.42524559683028" lon="11.630969021443347"><ele>278.0</ele><time>2026-03-22T09:58:54.998Z</time></trkpt><trkpt lat="43.42520505362806" lon="11.631070059669915"><ele>278.0</ele><time>2026-03-22T09:58:57.998Z</time></trkpt><trkpt lat="43.4251749379345" lon="11.631178468767414"><ele>278.0</ele><time>2026-03-22T09:59:00.998Z</time></trkpt><trkpt lat="43.42514538008278" lon="11.631283968775163"><ele>278.0</ele><time>2026-03-22T09:59:03.998Z</time></trkpt><trkpt lat="43.42511308016972" lon="11.631390002779828"><ele>278.0</ele><time>2026-03-22T09:59:06.998Z</time></trkpt><trkpt lat="43.42508949905386" lon="11.631503569245425"><ele>279.1666666666667</ele><time>2026-03-22T09:59:09.998Z</time></trkpt><trkpt lat="43.425060519288564" lon="11.631608726381069"><ele>280.33333333333337</ele><time>2026-03-22T09:59:12.998Z</time></trkpt><trkpt lat="43.42503392070118" lon="11.631720579721"><ele>281.5</ele><time>2026-03-22T09:59:16Z</time></trkpt><trkpt lat="43.42501365664057" lon="11.631833819796"><ele>282.6666666666667</ele><time>2026-03-22T09:59:19Z</time></trkpt><trkpt lat="43.42498977101395" lon="11.631947557182984"><ele>283.8333333333333</ele><time>2026-03-22T09:59:22Z</time></trkpt><trkpt lat="43.424970790329766" lon="11.632062516044085"><ele>285.0</ele><time>2026-03-22T09:59:25Z</time></trkpt><trkpt lat="43.42494968728262" lon="11.632170765276808"><ele>285.8333333333333</ele><time>2026-03-22T09:59:28Z</time></trkpt><trkpt lat="43.424936518493226" lon="11.632281161146466"><ele>286.6666666666667</ele><time>2026-03-22T09:59:31Z</time></trkpt><trkpt lat="43.424936656054406" lon="11.632394760736776"><ele>287.5</ele><time>2026-03-22T09:59:34Z</time></trkpt><trkpt lat="43.424935889249596" lon="11.632509046156407"><ele>288.33333333333337</ele><time>2026-03-22T09:59:37Z</time></trkpt><trkpt lat="43.424948750722734" lon="11.63263112621386"><ele>289.1666666666667</ele><time>2026-03-22T09:59:40Z</time></trkpt><trkpt lat="43.42496145431114" lon="11.632720719006153"><ele>290.0</ele><time>2026-03-22T09:59:42Z</time></trkpt><trkpt lat="43.424968027207605" lon="11.632807681497066"><ele>290.42857142857144</ele><time>2026-03-22T09:59:44Z</time></trkpt><trkpt lat="43.42498327928493" lon="11.632896151155531"><ele>290.8571428571429</ele><time>2026-03-22T09:59:46Z</time></trkpt><trkpt lat="43.425000975976204" lon="11.632983507058064"><ele>291.2857142857143</ele><time>2026-03-22T09:59:47.999Z</time></trkpt><trkpt lat="43.42501406072432" lon="11.633071067203444"><ele>291.7142857142857</ele><time>2026-03-22T09:59:49.999Z</time></trkpt><trkpt lat="43.42504432288784" lon="11.633154381724031"><ele>292.1428571428571</ele><time>2026-03-22T09:59:51.999Z</time></trkpt><trkpt lat="43.42506046402399" lon="11.633243179179205"><ele>292.57142857142856</ele><time>2026-03-22T09:59:53.999Z</time></trkpt><trkpt lat="43.42505401361334" lon="11.633335765916195"><ele>293.0</ele><time>2026-03-22T09:59:55.999Z</time></trkpt><trkpt lat="43.425010907134876" lon="11.63341319707991"><ele>293.0</ele><time>2026-03-22T09:59:57.999Z</time></trkpt><trkpt lat="43.424956294034764" lon="11.63346624542115"><ele>293.0</ele><time>2026-03-22T09:59:59.999Z</time></trkpt><trkpt lat="43.42489436662026" lon="11.633491821026238"><ele>293.0</ele><time>2026-03-22T10:00:01.999Z</time></trkpt><trkpt lat="43.424802270771416" lon="11.633492078515811"><ele>293.0</ele><time>2026-03-22T10:00:04.999Z</time></trkpt><trkpt lat="43.424738435864505" lon="11.633487485916406"><ele>293.0</ele><time>2026-03-22T10:00:06.999Z</time></trkpt><trkpt lat="43.424648587102745" lon="11.63348955601529"><ele>293.0</ele><time>2026-03-22T10:00:09.999Z</time></trkpt><trkpt lat="43.42455838428794" lon="11.633487854011772"><ele>292.33333333333337</ele><time>2026-03-22T10:00:12.999Z</time></trkpt><trkpt lat="43.42446793659507" lon="11.633495306520222"><ele>291.6666666666667</ele><time>2026-03-22T10:00:15.999Z</time></trkpt><trkpt lat="43.42438102452067" lon="11.633500463864737"><ele>291.0</ele><time>2026-03-22T10:00:18.999Z</time></trkpt><trkpt lat="43.42429589012204" lon="11.633510138216256"><ele>290.3333333333333</ele><time>2026-03-22T10:00:21.999Z</time></trkpt><trkpt lat="43.42421243824137" lon="11.633524837843465"><ele>289.66666666666663</ele><time>2026-03-22T10:00:24.999Z</time></trkpt><trkpt lat="43.42413200797119" lon="11.633558118137735"><ele>289.0</ele><time>2026-03-22T10:00:27.999Z</time></trkpt><trkpt lat="43.424054093938274" lon="11.633601524956669"><ele>289.3333333333333</ele><time>2026-03-22T10:00:30.999Z</time></trkpt><trkpt lat="43.42398064859035" lon="11.633658884401155"><ele>289.66666666666663</ele><time>2026-03-22T10:00:33.999Z</time></trkpt><trkpt lat="43.42391711571878" lon="11.63373679096039"><ele>290.0</ele><time>2026-03-22T10:00:36.999Z</time></trkpt><trkpt lat="43.42386453061539" lon="11.633831949118631"><ele>290.3333333333333</ele><time>2026-03-22T10:00:39.998Z</time></trkpt><trkpt lat="43.42382721275451" lon="11.633935034502981"><ele>290.6666666666667</ele><time>2026-03-22T10:00:42.998Z</time></trkpt><trkpt lat="43.423805722466426" lon="11.634018738068814"><ele>291.0</ele><time>2026-03-22T10:00:44.998Z</time></trkpt><trkpt lat="43.42377070898081" lon="11.634140076647004"><ele>291.0</ele><time>2026-03-22T10:00:47.998Z</time></trkpt><trkpt lat="43.42374960219004" lon="11.634222474696237"><ele>291.0</ele><time>2026-03-22T10:00:49.998Z</time></trkpt><trkpt lat="43.42372956258774" lon="11.634310195922687"><ele>291.0</ele><time>2026-03-22T10:00:51.998Z</time></trkpt><trkpt lat="43.423708709375305" lon="11.634393670958058"><ele>291.0</ele><time>2026-03-22T10:00:53.998Z</time></trkpt><trkpt lat="43.42367955587562" lon="11.634515288731315"><ele>291.0</ele><time>2026-03-22T10:00:56.998Z</time></trkpt><trkpt lat="43.42364892151302" lon="11.63463355103165"><ele>291.0</ele><time>2026-03-22T10:00:59.998Z</time></trkpt><trkpt lat="43.42361252264081" lon="11.634742696027585"><ele>292.0</ele><time>2026-03-22T10:01:02.998Z</time></trkpt><trkpt lat="43.423580919710844" lon="11.634856013744411"><ele>293.0</ele><time>2026-03-22T10:01:05.998Z</time></trkpt><trkpt lat="43.42354736983373" lon="11.634965550076448"><ele>294.0</ele><time>2026-03-22T10:01:08.998Z</time></trkpt><trkpt lat="43.42351214391095" lon="11.635076470678156"><ele>295.0</ele><time>2026-03-22T10:01:11.998Z</time></trkpt><trkpt lat="43.423477791553054" lon="11.635179840867382"><ele>296.0</ele><time>2026-03-22T10:01:14.998Z</time></trkpt><trkpt lat="43.42344654274252" lon="11.635279973358738"><ele>297.0</ele><time>2026-03-22T10:01:17.998Z</time></trkpt><trkpt lat="43.42342393059326" lon="11.635385961025074"><ele>297.3333333333333</ele><time>2026-03-22T10:01:20.998Z</time></trkpt><trkpt lat="43.42341248638799" lon="11.635488218870552"><ele>297.6666666666667</ele><time>2026-03-22T10:01:24Z</time></trkpt><trkpt lat="43.42342309341907" lon="11.635602460627988"><ele>298.0</ele><time>2026-03-22T10:01:27Z</time></trkpt><trkpt lat="43.423444382037985" lon="11.635720459065704"><ele>298.33333333333337</ele><time>2026-03-22T10:01:30Z</time></trkpt><trkpt lat="43.423470613449446" lon="11.635836043441074"><ele>298.6666666666667</ele><time>2026-03-22T10:01:34Z</time></trkpt><trkpt lat="43.42349781774302" lon="11.635938532932459"><ele>299.0</ele><time>2026-03-22T10:01:37Z</time></trkpt><trkpt lat="43.423534690293934" lon="11.636046681915193"><ele>300.0</ele><time>2026-03-22T10:01:40Z</time></trkpt><trkpt lat="43.4235621803057" lon="11.636153155666918"><ele>301.0</ele><time>2026-03-22T10:01:43Z</time></trkpt><trkpt lat="43.42359068330871" lon="11.636264990461516"><ele>302.0</ele><time>2026-03-22T10:01:46Z</time></trkpt><trkpt lat="43.423603561494936" lon="11.636386123604309"><ele>303.0</ele><time>2026-03-22T10:01:49Z</time></trkpt><trkpt lat="43.423602445844224" lon="11.636506651533075"><ele>304.0</ele><time>2026-03-22T10:01:52Z</time></trkpt><trkpt lat="43.423588210034936" lon="11.636622954744418"><ele>305.0</ele><time>2026-03-22T10:01:55Z</time></trkpt><trkpt lat="43.42358363066058" lon="11.63673666845652"><ele>305.0</ele><time>2026-03-22T10:01:57.999Z</time></trkpt><trkpt lat="43.42356832193477" lon="11.636851198667609"><ele>305.0</ele><time>2026-03-22T10:02:00.999Z</time></trkpt><trkpt lat="43.42355467970366" lon="11.636973924690437"><ele>305.0</ele><time>2026-03-22T10:02:03.999Z</time></trkpt><trkpt lat="43.42354192198696" lon="11.637092143655911"><ele>305.0</ele><time>2026-03-22T10:02:06.999Z</time></trkpt><trkpt lat="43.42352060650919" lon="11.637174264057924"><ele>305.0</ele><time>2026-03-22T10:02:08.999Z</time></trkpt><trkpt lat="43.42347592672005" lon="11.637241046393898"><ele>305.0</ele><time>2026-03-22T10:02:10.999Z</time></trkpt><trkpt lat="43.423429207279355" lon="11.637303200258316"><ele>306.33333333333337</ele><time>2026-03-22T10:02:12.999Z</time></trkpt><trkpt lat="43.42337503812864" lon="11.637347363059943"><ele>307.6666666666667</ele><time>2026-03-22T10:02:14.999Z</time></trkpt><trkpt lat="43.42329034334178" lon="11.637372122279727"><ele>309.0</ele><time>2026-03-22T10:02:17.999Z</time></trkpt><trkpt lat="43.42321154149581" lon="11.637382080971534"><ele>310.3333333333333</ele><time>2026-03-22T10:02:20.999Z</time></trkpt><trkpt lat="43.42313896041546" lon="11.637382231318128"><ele>311.66666666666663</ele><time>2026-03-22T10:02:23.999Z</time></trkpt><trkpt lat="43.42306618985913" lon="11.637395509289162"><ele>313.0</ele><time>2026-03-22T10:02:26.999Z</time></trkpt><trkpt lat="43.42298636964968" lon="11.63740818951557"><ele>312.8333333333333</ele><time>2026-03-22T10:02:29.999Z</time></trkpt><trkpt lat="43.42290834294709" lon="11.637439366105003"><ele>312.66666666666663</ele><time>2026-03-22T10:02:32.999Z</time></trkpt><trkpt lat="43.4228268168976" lon="11.637470238422585"><ele>312.5</ele><time>2026-03-22T10:02:35.999Z</time></trkpt><trkpt lat="43.42274538714609" lon="11.637497048932339"><ele>312.3333333333333</ele><time>2026-03-22T10:02:38.999Z</time></trkpt><trkpt lat="43.42266058917306" lon="11.637525091823512"><ele>312.1666666666667</ele><time>2026-03-22T10:02:41.999Z</time></trkpt><trkpt lat="43.42257537214373" lon="11.637553242779289"><ele>312.0</ele><time>2026-03-22T10:02:44.999Z</time></trkpt><trkpt lat="43.422495622932786" lon="11.637583993507695"><ele>312.0</ele><time>2026-03-22T10:02:47.999Z</time></trkpt><trkpt lat="43.422415346241095" lon="11.637608707168805"><ele>312.0</ele><time>2026-03-22T10:02:50.999Z</time></trkpt><trkpt lat="43.42233477375506" lon="11.637638096633138"><ele>312.0</ele><time>2026-03-22T10:02:53.998Z</time></trkpt><trkpt lat="43.42225495098953" lon="11.63766211575059"><ele>312.0</ele><time>2026-03-22T10:02:56.998Z</time></trkpt><trkpt lat="43.422176898758835" lon="11.637687242728166"><ele>312.0</ele><time>2026-03-22T10:02:59.998Z</time></trkpt><trkpt lat="43.4220997307919" lon="11.637717341786308"><ele>312.0</ele><time>2026-03-22T10:03:02.998Z</time></trkpt><trkpt lat="43.42202523029756" lon="11.637747225167313"><ele>311.8333333333333</ele><time>2026-03-22T10:03:05.998Z</time></trkpt><trkpt lat="43.42195695800331" lon="11.637795853730239"><ele>311.6666666666667</ele><time>2026-03-22T10:03:08.998Z</time></trkpt><trkpt lat="43.42189139742959" lon="11.637863707986043"><ele>311.5</ele><time>2026-03-22T10:03:11.998Z</time></trkpt><trkpt lat="43.42182251106427" lon="11.637935790821203"><ele>311.33333333333337</ele><time>2026-03-22T10:03:14.998Z</time></trkpt><trkpt lat="43.42176016055813" lon="11.638022496499113"><ele>311.1666666666667</ele><time>2026-03-22T10:03:17.998Z</time></trkpt><trkpt lat="43.42168901277133" lon="11.638099037162247"><ele>311.0</ele><time>2026-03-22T10:03:20.998Z</time></trkpt><trkpt lat="43.42161909178333" lon="11.638179480166846"><ele>312.1666666666667</ele><time>2026-03-22T10:03:23.998Z</time></trkpt><trkpt lat="43.421558041159805" lon="11.63826400698595"><ele>313.33333333333337</ele><time>2026-03-22T10:03:26.998Z</time></trkpt><trkpt lat="43.421496477112214" lon="11.638350870801922"><ele>314.5</ele><time>2026-03-22T10:03:30Z</time></trkpt><trkpt lat="43.42144647653576" lon="11.638456701487499"><ele>315.6666666666667</ele><time>2026-03-22T10:03:33Z</time></trkpt><trkpt lat="43.42141876601415" lon="11.63857289005175"><ele>316.8333333333333</ele><time>2026-03-22T10:03:36Z</time></trkpt><trkpt lat="43.42141128890116" lon="11.638699510140762"><ele>318.0</ele><time>2026-03-22T10:03:39Z</time></trkpt><trkpt lat="43.42142125769722" lon="11.638829268092257"><ele>319.0</ele><time>2026-03-22T10:03:42Z</time></trkpt><trkpt lat="43.4214462129153" lon="11.63891582167581"><ele>320.0</ele><time>2026-03-22T10:03:44Z</time></trkpt><trkpt lat="43.42146923776872" lon="11.639004366967331"><ele>321.0</ele><time>2026-03-22T10:03:46Z</time></trkpt><trkpt lat="43.421493250411444" lon="11.639090208079784"><ele>322.0</ele><time>2026-03-22T10:03:48Z</time></trkpt><trkpt lat="43.42152333271709" lon="11.639172232197227"><ele>323.0</ele><time>2026-03-22T10:03:50Z</time></trkpt><trkpt lat="43.421548047946764" lon="11.639258306269864"><ele>324.0</ele><time>2026-03-22T10:03:52Z</time></trkpt><trkpt lat="43.42157245004297" lon="11.63934106388499"><ele>325.0</ele><time>2026-03-22T10:03:54Z</time></trkpt><trkpt lat="43.421581473414236" lon="11.639429657146527"><ele>325.0</ele><time>2026-03-22T10:03:56Z</time></trkpt><trkpt lat="43.421567539120126" lon="11.639516711913197"><ele>325.0</ele><time>2026-03-22T10:03:58Z</time></trkpt><trkpt lat="43.42152726720944" lon="11.639601167756979"><ele>325.0</ele><time>2026-03-22T10:04:00Z</time></trkpt><trkpt lat="43.42146924135395" lon="11.639642226679902"><ele>325.0</ele><time>2026-03-22T10:04:02Z</time></trkpt><trkpt lat="43.42137390411712" lon="11.63964828070036"><ele>325.0</ele><time>2026-03-22T10:04:04.999Z</time></trkpt><trkpt lat="43.42128163364282" lon="11.639630720023108"><ele>325.0</ele><time>2026-03-22T10:04:07.999Z</time></trkpt><trkpt lat="43.42121923912887" lon="11.639617798011066"><ele>325.0</ele><time>2026-03-22T10:04:09.999Z</time></trkpt><trkpt lat="43.42112700227788" lon="11.639609629785756"><ele>325.0</ele><time>2026-03-22T10:04:12.999Z</time></trkpt><trkpt lat="43.42103285011678" lon="11.639615973048313"><ele>325.0</ele><time>2026-03-22T10:04:15.999Z</time></trkpt><trkpt lat="43.42094844253486" lon="11.639654667992135"><ele>325.0</ele><time>2026-03-22T10:04:18.999Z</time></trkpt><trkpt lat="43.4208783940317" lon="11.639732700930987"><ele>325.0</ele><time>2026-03-22T10:04:21.999Z</time></trkpt><trkpt lat="43.42081608506" lon="11.63982769822017"><ele>325.0</ele><time>2026-03-22T10:04:24.999Z</time></trkpt><trkpt lat="43.42076732955365" lon="11.639935758151488"><ele>325.0</ele><time>2026-03-22T10:04:27.999Z</time></trkpt><trkpt lat="43.42070889075357" lon="11.640036760382765"><ele>325.0</ele><time>2026-03-22T10:04:30.999Z</time></trkpt><trkpt lat="43.42065434503627" lon="11.640139413473904"><ele>325.0</ele><time>2026-03-22T10:04:33.999Z</time></trkpt><trkpt lat="43.42060055486816" lon="11.640241129636875"><ele>325.0</ele><time>2026-03-22T10:04:36.999Z</time></trkpt><trkpt lat="43.420550794510575" lon="11.640342106312161"><ele>324.5</ele><time>2026-03-22T10:04:39.999Z</time></trkpt><trkpt lat="43.420501609179794" lon="11.640434365482058"><ele>324.0</ele><time>2026-03-22T10:04:42.999Z</time></trkpt><trkpt lat="43.42046207448887" lon="11.640525373478525"><ele>323.5</ele><time>2026-03-22T10:04:45.999Z</time></trkpt><trkpt lat="43.42041394562374" lon="11.640600564239735"><ele>323.0</ele><time>2026-03-22T10:04:48.999Z</time></trkpt><trkpt lat="43.42037305487264" lon="11.640680169756166"><ele>322.5</ele><time>2026-03-22T10:04:51.999Z</time></trkpt><trkpt lat="43.42032898211126" lon="11.640764830648065"><ele>322.0</ele><time>2026-03-22T10:04:54.999Z</time></trkpt><trkpt lat="43.42029479107159" lon="11.64085711249861"><ele>322.0</ele><time>2026-03-22T10:04:57.998Z</time></trkpt><trkpt lat="43.42028187609033" lon="11.640962384647706"><ele>322.0</ele><time>2026-03-22T10:05:00.998Z</time></trkpt><trkpt lat="43.42028755690917" lon="11.641063472659628"><ele>322.0</ele><time>2026-03-22T10:05:03.998Z</time></trkpt><trkpt lat="43.42030945632081" lon="11.641163805075145"><ele>322.0</ele><time>2026-03-22T10:05:06.998Z</time></trkpt><trkpt lat="43.42033237110243" lon="11.641258499912707"><ele>322.0</ele><time>2026-03-22T10:05:09.998Z</time></trkpt><trkpt lat="43.420367361326" lon="11.641346631952688"><ele>322.0</ele><time>2026-03-22T10:05:12.998Z</time></trkpt><trkpt lat="43.4204073512924" lon="11.641429272984189"><ele>322.0</ele><time>2026-03-22T10:05:15.998Z</time></trkpt><trkpt lat="43.42044840582159" lon="11.641508328401075"><ele>325.0</ele><time>2026-03-22T10:05:18.998Z</time></trkpt><trkpt lat="43.42049085964304" lon="11.641575468045353"><ele>328.0</ele><time>2026-03-22T10:05:40Z</time></trkpt><trkpt lat="43.42053800729972" lon="11.641661607930981"><ele>331.0</ele><time>2026-03-22T10:05:43Z</time></trkpt><trkpt lat="43.42058105012537" lon="11.641740826837143"><ele>334.0</ele><time>2026-03-22T10:05:46Z</time></trkpt><trkpt lat="43.42061049958085" lon="11.641836738137865"><ele>337.0</ele><time>2026-03-22T10:05:49Z</time></trkpt><trkpt lat="43.420621424141885" lon="11.641941065412714"><ele>340.0</ele><time>2026-03-22T10:05:52Z</time></trkpt><trkpt lat="43.420605397870126" lon="11.642039003657084"><ele>343.0</ele><time>2026-03-22T10:05:55Z</time></trkpt><trkpt lat="43.42056251880672" lon="11.642126180289276"><ele>343.8333333333333</ele><time>2026-03-22T10:05:58Z</time></trkpt><trkpt lat="43.42049721343654" lon="11.64218713285808"><ele>344.66666666666663</ele><time>2026-03-22T10:06:01Z</time></trkpt><trkpt lat="43.42042040645201" lon="11.642207360448392"><ele>345.5</ele><time>2026-03-22T10:06:04Z</time></trkpt><trkpt lat="43.42034719805179" lon="11.642225612600434"><ele>346.3333333333333</ele><time>2026-03-22T10:06:07Z</time></trkpt><trkpt lat="43.42027669904857" lon="11.642254903888185"><ele>347.1666666666667</ele><time>2026-03-22T10:06:10Z</time></trkpt><trkpt lat="43.42021574070737" lon="11.642316933876284"><ele>348.0</ele><time>2026-03-22T10:06:12.999Z</time></trkpt><trkpt lat="43.42016836007253" lon="11.64240465732622"><ele>348.3333333333333</ele><time>2026-03-22T10:06:15.999Z</time></trkpt><trkpt lat="43.42014017291576" lon="11.642509945943846"><ele>348.6666666666667</ele><time>2026-03-22T10:06:18.999Z</time></trkpt><trkpt lat="43.420123644338815" lon="11.642625823922735"><ele>349.0</ele><time>2026-03-22T10:06:21.999Z</time></trkpt><trkpt lat="43.42008686397688" lon="11.64273341827417"><ele>349.33333333333337</ele><time>2026-03-22T10:06:24.999Z</time></trkpt><trkpt lat="43.420018968021076" lon="11.64280028179958"><ele>349.6666666666667</ele><time>2026-03-22T10:06:27.999Z</time></trkpt><trkpt lat="43.41993766242339" lon="11.642808789929223"><ele>350.0</ele><time>2026-03-22T10:06:30.999Z</time></trkpt><trkpt lat="43.41986568313815" lon="11.642778367336781"><ele>348.14285714285717</ele><time>2026-03-22T10:06:33.999Z</time></trkpt><trkpt lat="43.4197979212741" lon="11.642749626888785"><ele>346.2857142857143</ele><time>2026-03-22T10:06:36.999Z</time></trkpt><trkpt lat="43.41973237403724" lon="11.64271537983185"><ele>344.42857142857144</ele><time>2026-03-22T10:06:39.999Z</time></trkpt><trkpt lat="43.41966569791891" lon="11.64268062064845"><ele>342.57142857142856</ele><time>2026-03-22T10:06:42.999Z</time></trkpt><trkpt lat="43.41959786672031" lon="11.64265825081494"><ele>340.7142857142857</ele><time>2026-03-22T10:06:45.999Z</time></trkpt><trkpt lat="43.41952824307756" lon="11.642643059057708"><ele>338.8571428571429</ele><time>2026-03-22T10:06:48.999Z</time></trkpt><trkpt lat="43.419452088012605" lon="11.642650889572598"><ele>337.0</ele><time>2026-03-22T10:06:51.999Z</time></trkpt><trkpt lat="43.41937568619236" lon="11.642672848690491"><ele>336.66666666666663</ele><time>2026-03-22T10:06:54.999Z</time></trkpt><trkpt lat="43.41930158309699" lon="11.642715570081425"><ele>336.3333333333333</ele><time>2026-03-22T10:06:57.999Z</time></trkpt><trkpt lat="43.4192290135384" lon="11.642757223598188"><ele>336.0</ele><time>2026-03-22T10:07:00.999Z</time></trkpt><trkpt lat="43.41915274010703" lon="11.6428088496981"><ele>335.6666666666667</ele><time>2026-03-22T10:07:03.999Z</time></trkpt><trkpt lat="43.41907923151221" lon="11.642868830011137"><ele>335.33333333333337</ele><time>2026-03-22T10:07:06.998Z</time></trkpt><trkpt lat="43.41901049707071" lon="11.64292715494498"><ele>335.0</ele><time>2026-03-22T10:07:09.998Z</time></trkpt><trkpt lat="43.41895150746598" lon="11.64300541591137"><ele>335.83333333333337</ele><time>2026-03-22T10:07:12.998Z</time></trkpt><trkpt lat="43.41890726062265" lon="11.643098537024203"><ele>336.6666666666667</ele><time>2026-03-22T10:07:15.998Z</time></trkpt><trkpt lat="43.4188766483811" lon="11.643199677308973"><ele>337.5</ele><time>2026-03-22T10:07:18.998Z</time></trkpt><trkpt lat="43.41885213430863" lon="11.643307128342233"><ele>338.3333333333333</ele><time>2026-03-22T10:07:21.998Z</time></trkpt><trkpt lat="43.4188397904002" lon="11.643414795229727"><ele>339.16666666666663</ele><time>2026-03-22T10:07:24.998Z</time></trkpt><trkpt lat="43.41882250263021" lon="11.643519716102102"><ele>340.0</ele><time>2026-03-22T10:07:27.998Z</time></trkpt><trkpt lat="43.41880972807424" lon="11.643621221468056"><ele>342.8333333333333</ele><time>2026-03-22T10:07:30.998Z</time></trkpt><trkpt lat="43.418798078985844" lon="11.643719726241516"><ele>345.66666666666663</ele><time>2026-03-22T10:07:33.998Z</time></trkpt><trkpt lat="43.41878669937152" lon="11.643822268078841"><ele>348.5</ele><time>2026-03-22T10:07:36.998Z</time></trkpt><trkpt lat="43.41877269460013" lon="11.643926663480963"><ele>351.3333333333333</ele><time>2026-03-22T10:07:40Z</time></trkpt><trkpt lat="43.41874551787978" lon="11.644030738600378"><ele>354.1666666666667</ele><time>2026-03-22T10:07:43Z</time></trkpt><trkpt lat="43.418701957504425" lon="11.644119827572196"><ele>357.0</ele><time>2026-03-22T10:07:46Z</time></trkpt><trkpt lat="43.41864458461487" lon="11.644184528015812"><ele>357.0</ele><time>2026-03-22T10:07:49Z</time></trkpt><trkpt lat="43.41857880831469" lon="11.644228105509907"><ele>357.0</ele><time>2026-03-22T10:07:52Z</time></trkpt><trkpt lat="43.41850586451851" lon="11.644241871294051"><ele>357.0</ele><time>2026-03-22T10:07:55Z</time></trkpt><trkpt lat="43.41842542702385" lon="11.644215513087959"><ele>357.0</ele><time>2026-03-22T10:07:58Z</time></trkpt><trkpt lat="43.4183624201898" lon="11.644150106176983"><ele>357.0</ele><time>2026-03-22T10:08:01Z</time></trkpt><trkpt lat="43.418317305628065" lon="11.644071423080726"><ele>357.0</ele><time>2026-03-22T10:08:04Z</time></trkpt><trkpt lat="43.41827404333174" lon="11.643992099841038"><ele>357.0</ele><time>2026-03-22T10:08:07Z</time></trkpt><trkpt lat="43.418223964214576" lon="11.643908329897469"><ele>357.0</ele><time>2026-03-22T10:08:10Z</time></trkpt><trkpt lat="43.41816827742042" lon="11.643833514227321"><ele>357.0</ele><time>2026-03-22T10:08:13Z</time></trkpt><trkpt lat="43.4181018289886" lon="11.643770008419313"><ele>357.0</ele><time>2026-03-22T10:08:16Z</time></trkpt><trkpt lat="43.4180253371307" lon="11.643729032062097"><ele>357.0</ele><time>2026-03-22T10:08:19Z</time></trkpt><trkpt lat="43.41795096025795" lon="11.643706290591282"><ele>357.0</ele><time>2026-03-22T10:08:21.999Z</time></trkpt><trkpt lat="43.41787282228619" lon="11.643717759996331"><ele>356.5</ele><time>2026-03-22T10:08:24.999Z</time></trkpt><trkpt lat="43.41779865757999" lon="11.643759143232652"><ele>356.0</ele><time>2026-03-22T10:08:27.999Z</time></trkpt><trkpt lat="43.41773505064888" lon="11.643821291928901"><ele>355.5</ele><time>2026-03-22T10:08:30.999Z</time></trkpt><trkpt lat="43.41768151933249" lon="11.643903324115408"><ele>355.0</ele><time>2026-03-22T10:08:33.999Z</time></trkpt><trkpt lat="43.417634005551086" lon="11.643992593703926"><ele>354.5</ele><time>2026-03-22T10:08:36.999Z</time></trkpt><trkpt lat="43.41759704516039" lon="11.644085514399707"><ele>354.0</ele><time>2026-03-22T10:08:39.999Z</time></trkpt><trkpt lat="43.41757075295642" lon="11.644184027086359"><ele>354.0</ele><time>2026-03-22T10:08:42.999Z</time></trkpt><trkpt lat="43.41755057099764" lon="11.644284239229426"><ele>354.0</ele><time>2026-03-22T10:08:45.999Z</time></trkpt><trkpt lat="43.417545847974" lon="11.644387168694886"><ele>354.0</ele><time>2026-03-22T10:08:48.999Z</time></trkpt><trkpt lat="43.41754726290785" lon="11.644495901664282"><ele>354.0</ele><time>2026-03-22T10:08:51.999Z</time></trkpt><trkpt lat="43.41755605267549" lon="11.644604605327356"><ele>354.0</ele><time>2026-03-22T10:08:54.999Z</time></trkpt><trkpt lat="43.41755973174059" lon="11.64470903933651"><ele>354.0</ele><time>2026-03-22T10:08:57.999Z</time></trkpt><trkpt lat="43.41753961180673" lon="11.644808333660272"><ele>355.3333333333333</ele><time>2026-03-22T10:09:00.999Z</time></trkpt><trkpt lat="43.417477915968696" lon="11.644888466831649"><ele>356.6666666666667</ele><time>2026-03-22T10:09:03.999Z</time></trkpt><trkpt lat="43.417397413663686" lon="11.644908738591258"><ele>358.0</ele><time>2026-03-22T10:09:06.999Z</time></trkpt><trkpt lat="43.41732430278311" lon="11.644871160671016"><ele>359.33333333333337</ele><time>2026-03-22T10:09:09.999Z</time></trkpt><trkpt lat="43.41725248055047" lon="11.644832563106627"><ele>360.6666666666667</ele><time>2026-03-22T10:09:12.998Z</time></trkpt><trkpt lat="43.41718253923983" lon="11.644786586397768"><ele>362.0</ele><time>2026-03-22T10:09:15.998Z</time></trkpt><trkpt lat="43.41710529681463" lon="11.644756378037233"><ele>362.0</ele><time>2026-03-22T10:09:18.998Z</time></trkpt><trkpt lat="43.41702747480214" lon="11.644733384608646"><ele>362.0</ele><time>2026-03-22T10:09:21.998Z</time></trkpt><trkpt lat="43.41694592094194" lon="11.64473196504077"><ele>362.0</ele><time>2026-03-22T10:09:24.998Z</time></trkpt><trkpt lat="43.41687173212682" lon="11.644754782099056"><ele>362.0</ele><time>2026-03-22T10:09:27.998Z</time></trkpt><trkpt lat="43.416802687126925" lon="11.644815853472425"><ele>362.0</ele><time>2026-03-22T10:09:30.998Z</time></trkpt><trkpt lat="43.41674881196539" lon="11.644899174122637"><ele>362.0</ele><time>2026-03-22T10:09:33.998Z</time></trkpt><trkpt lat="43.41670051265041" lon="11.644991213593707"><ele>362.0</ele><time>2026-03-22T10:09:36.998Z</time></trkpt><trkpt lat="43.416659785035066" lon="11.645093163230866"><ele>362.0</ele><time>2026-03-22T10:09:39.998Z</time></trkpt><trkpt lat="43.416617057456314" lon="11.645194747812035"><ele>362.0</ele><time>2026-03-22T10:09:42.998Z</time></trkpt><trkpt lat="43.416579676766844" lon="11.645297245225366"><ele>362.0</ele><time>2026-03-22T10:09:46Z</time></trkpt><trkpt lat="43.41653645465085" lon="11.645398610776704"><ele>362.0</ele><time>2026-03-22T10:09:49Z</time></trkpt><trkpt lat="43.41649645257173" lon="11.645491231393395"><ele>362.0</ele><time>2026-03-22T10:09:52Z</time></trkpt><trkpt lat="43.41646244892957" lon="11.645584829029954"><ele>364.1666666666667</ele><time>2026-03-22T10:09:55Z</time></trkpt><trkpt lat="43.41643217868564" lon="11.645684387389233"><ele>366.33333333333337</ele><time>2026-03-22T10:09:58Z</time></trkpt><trkpt lat="43.41640515336906" lon="11.645787833319861"><ele>368.5</ele><time>2026-03-22T10:10:01Z</time></trkpt><trkpt lat="43.41639076490913" lon="11.645900279174466"><ele>370.6666666666667</ele><time>2026-03-22T10:10:04Z</time></trkpt><trkpt lat="43.41636632832117" lon="11.646017131390236"><ele>372.8333333333333</ele><time>2026-03-22T10:10:07Z</time></trkpt><trkpt lat="43.41633102500665" lon="11.646121481523037"><ele>375.0</ele><time>2026-03-22T10:10:10Z</time></trkpt><trkpt lat="43.41627600248642" lon="11.646201886050193"><ele>375.8333333333333</ele><time>2026-03-22T10:10:13Z</time></trkpt><trkpt lat="43.41621438170085" lon="11.646259876413497"><ele>376.6666666666667</ele><time>2026-03-22T10:10:16Z</time></trkpt><trkpt lat="43.4161520450235" lon="11.64632336035186"><ele>377.5</ele><time>2026-03-22T10:10:19Z</time></trkpt><trkpt lat="43.416096462767285" lon="11.6463973552506"><ele>378.33333333333337</ele><time>2026-03-22T10:10:22Z</time></trkpt><trkpt lat="43.4160419258345" lon="11.646473451681135"><ele>379.1666666666667</ele><time>2026-03-22T10:10:25Z</time></trkpt><trkpt lat="43.415972010418265" lon="11.646534204235952"><ele>380.0</ele><time>2026-03-22T10:10:28Z</time></trkpt><trkpt lat="43.41588728383835" lon="11.646538801030138"><ele>380.0</ele><time>2026-03-22T10:10:30.999Z</time></trkpt><trkpt lat="43.415812264517314" lon="11.64649764474285"><ele>380.0</ele><time>2026-03-22T10:10:33.999Z</time></trkpt><trkpt lat="43.41575369290785" lon="11.64642956963106"><ele>380.0</ele><time>2026-03-22T10:10:36.999Z</time></trkpt><trkpt lat="43.415692700672764" lon="11.64636266278597"><ele>380.0</ele><time>2026-03-22T10:10:39.999Z</time></trkpt><trkpt lat="43.415627936640405" lon="11.646294467424312"><ele>380.0</ele><time>2026-03-22T10:10:42.999Z</time></trkpt><trkpt lat="43.41556237303384" lon="11.646236424853674"><ele>380.0</ele><time>2026-03-22T10:10:45.999Z</time></trkpt><trkpt lat="43.415488799749994" lon="11.646194354425292"><ele>379.0</ele><time>2026-03-22T10:10:48.999Z</time></trkpt><trkpt lat="43.41540889703947" lon="11.646170634228278"><ele>378.0</ele><time>2026-03-22T10:10:51.999Z</time></trkpt><trkpt lat="43.415326004760246" lon="11.646164542173794"><ele>377.0</ele><time>2026-03-22T10:10:54.999Z</time></trkpt><trkpt lat="43.41524519495136" lon="11.64618611715206"><ele>376.0</ele><time>2026-03-22T10:10:57.999Z</time></trkpt><trkpt lat="43.41517148137516" lon="11.646223718018385"><ele>375.0</ele><time>2026-03-22T10:11:00.999Z</time></trkpt><trkpt lat="43.415100062559105" lon="11.646281560122077"><ele>374.0</ele><time>2026-03-22T10:11:03.999Z</time></trkpt><trkpt lat="43.41504750604538" lon="11.646370112933422"><ele>374.0</ele><time>2026-03-22T10:11:06.999Z</time></trkpt><trkpt lat="43.4150152547621" lon="11.646472556329709"><ele>374.0</ele><time>2026-03-22T10:11:09.999Z</time></trkpt><trkpt lat="43.41499290646892" lon="11.646584355054502"><ele>374.0</ele><time>2026-03-22T10:11:12.999Z</time></trkpt><trkpt lat="43.414992633166655" lon="11.646702720917833"><ele>374.0</ele><time>2026-03-22T10:11:15.999Z</time></trkpt><trkpt lat="43.41499146388362" lon="11.646820462225435"><ele>374.0</ele><time>2026-03-22T10:11:18.999Z</time></trkpt><trkpt lat="43.41499693464584" lon="11.64694020862801"><ele>374.0</ele><time>2026-03-22T10:11:21.998Z</time></trkpt><trkpt lat="43.41500196591593" lon="11.647055804297828"><ele>374.6666666666667</ele><time>2026-03-22T10:11:24.998Z</time></trkpt><trkpt lat="43.41500566540623" lon="11.647170950150896"><ele>375.33333333333337</ele><time>2026-03-22T10:11:27.998Z</time></trkpt><trkpt lat="43.4150148000338" lon="11.647289195240788"><ele>376.0</ele><time>2026-03-22T10:11:30.998Z</time></trkpt><trkpt lat="43.415016392164205" lon="11.647396724705821"><ele>376.6666666666667</ele><time>2026-03-22T10:11:33.998Z</time></trkpt><trkpt lat="43.4150280397289" lon="11.647492596373738"><ele>377.3333333333333</ele><time>2026-03-22T10:11:35.998Z</time></trkpt><trkpt lat="43.415040959628655" lon="11.647615537046153"><ele>378.0</ele><time>2026-03-22T10:11:38.998Z</time></trkpt><trkpt lat="43.41504611942889" lon="11.647733337045832"><ele>379.1666666666667</ele><time>2026-03-22T10:11:41.998Z</time></trkpt><trkpt lat="43.415054750260204" lon="11.647852109029273"><ele>380.33333333333337</ele><time>2026-03-22T10:11:44.998Z</time></trkpt><trkpt lat="43.41507234362223" lon="11.647971662691083"><ele>381.5</ele><time>2026-03-22T10:11:47.998Z</time></trkpt><trkpt lat="43.41509824090982" lon="11.648092354538695"><ele>382.6666666666667</ele><time>2026-03-22T10:11:51Z</time></trkpt><trkpt lat="43.41513470296903" lon="11.64821288338757"><ele>383.83333333333337</ele><time>2026-03-22T10:11:54Z</time></trkpt><trkpt lat="43.41516439969383" lon="11.648290365247048"><ele>385.0</ele><time>2026-03-22T10:11:56Z</time></trkpt><trkpt lat="43.415193401619014" lon="11.648374615873733"><ele>385.00000000000006</ele><time>2026-03-22T10:11:58Z</time></trkpt><trkpt lat="43.415218068424004" lon="11.648461347855404"><ele>385.0</ele><time>2026-03-22T10:12:00Z</time></trkpt><trkpt lat="43.41521929617235" lon="11.648553211732615"><ele>385.0</ele><time>2026-03-22T10:12:02Z</time></trkpt><trkpt lat="43.41516821676019" lon="11.648646966597642"><ele>385.0</ele><time>2026-03-22T10:12:05Z</time></trkpt><trkpt lat="43.41510380508227" lon="11.648672369085201"><ele>385.00000000000006</ele><time>2026-03-22T10:12:07Z</time></trkpt><trkpt lat="43.41501574058084" lon="11.648649023113952"><ele>385.0</ele><time>2026-03-22T10:12:10Z</time></trkpt><trkpt lat="43.41492789402378" lon="11.648612422702294"><ele>385.0</ele><time>2026-03-22T10:12:13Z</time></trkpt><trkpt lat="43.41484036152169" lon="11.648580615556465"><ele>385.0</ele><time>2026-03-22T10:12:16Z</time></trkpt><trkpt lat="43.414778187233466" lon="11.648564085783894"><ele>385.0</ele><time>2026-03-22T10:12:18Z</time></trkpt><trkpt lat="43.41468338067786" lon="11.648552761849372"><ele>385.0</ele><time>2026-03-22T10:12:21Z</time></trkpt><trkpt lat="43.414616964929664" lon="11.648549710679744"><ele>385.0</ele><time>2026-03-22T10:12:23Z</time></trkpt><trkpt lat="43.414551888696714" lon="11.648562690427747"><ele>385.0</ele><time>2026-03-22T10:12:25Z</time></trkpt><trkpt lat="43.41448952479439" lon="11.648587329592031"><ele>385.0</ele><time>2026-03-22T10:12:27Z</time></trkpt><trkpt lat="43.414407365924205" lon="11.648641139994139"><ele>386.6666666666667</ele><time>2026-03-22T10:12:30Z</time></trkpt><trkpt lat="43.414336945424346" lon="11.648724106555331"><ele>388.33333333333337</ele><time>2026-03-22T10:12:33Z</time></trkpt><trkpt lat="43.4142952526551" lon="11.648789672162705"><ele>390.0</ele><time>2026-03-22T10:12:35Z</time></trkpt><trkpt lat="43.41424997503242" lon="11.648854069955608"><ele>391.66666666666663</ele><time>2026-03-22T10:12:36.999Z</time></trkpt><trkpt lat="43.41420570274871" lon="11.648916809117775"><ele>393.3333333333333</ele><time>2026-03-22T10:12:38.999Z</time></trkpt><trkpt lat="43.41413681974424" lon="11.64900014171018"><ele>395.0</ele><time>2026-03-22T10:12:41.999Z</time></trkpt><trkpt lat="43.41405003022548" lon="11.64905589392979"><ele>394.99999999999994</ele><time>2026-03-22T10:12:44.999Z</time></trkpt><trkpt lat="43.41398970386299" lon="11.649087892528874"><ele>395.0</ele><time>2026-03-22T10:12:46.999Z</time></trkpt><trkpt lat="43.41391153764989" lon="11.649123009038915"><ele>395.0</ele><time>2026-03-22T10:12:49.999Z</time></trkpt><trkpt lat="43.41383138956687" lon="11.649159348540788"><ele>395.0</ele><time>2026-03-22T10:12:52.999Z</time></trkpt><trkpt lat="43.413745641548125" lon="11.64917952693247"><ele>394.99999999999994</ele><time>2026-03-22T10:12:55.999Z</time></trkpt><trkpt lat="43.41366367867397" lon="11.649218985236145"><ele>395.0</ele><time>2026-03-22T10:12:58.999Z</time></trkpt><trkpt lat="43.41359259843656" lon="11.649247009674719"><ele>394.49999999999994</ele><time>2026-03-22T10:13:01.999Z</time></trkpt><trkpt lat="43.41351107907738" lon="11.649297573783747"><ele>394.0</ele><time>2026-03-22T10:13:04.999Z</time></trkpt><trkpt lat="43.4134343158758" lon="11.649353103104213"><ele>393.5</ele><time>2026-03-22T10:13:07.999Z</time></trkpt><trkpt lat="43.413355666542365" lon="11.649402189382435"><ele>393.0</ele><time>2026-03-22T10:13:10.999Z</time></trkpt><trkpt lat="43.41328318874332" lon="11.64945800172694"><ele>392.49999999999994</ele><time>2026-03-22T10:13:13.999Z</time></trkpt><trkpt lat="43.413210094662965" lon="11.649507118971956"><ele>392.0</ele><time>2026-03-22T10:13:16.999Z</time></trkpt><trkpt lat="43.41313779296601" lon="11.649547959536966"><ele>395.3333333333333</ele><time>2026-03-22T10:13:19.999Z</time></trkpt><trkpt lat="43.41306372874336" lon="11.649573919127008"><ele>398.66666666666663</ele><time>2026-03-22T10:13:22.999Z</time></trkpt><trkpt lat="43.41299249937912" lon="11.649527514494778"><ele>402.0</ele><time>2026-03-22T10:13:25.999Z</time></trkpt><trkpt lat="43.41294155046863" lon="11.649435818887286"><ele>405.33333333333337</ele><time>2026-03-22T10:13:28.998Z</time></trkpt><trkpt lat="43.41293881034238" lon="11.649318751539711"><ele>408.6666666666667</ele><time>2026-03-22T10:13:31.998Z</time></trkpt><trkpt lat="43.41293906658154" lon="11.649209760723545"><ele>412.0</ele><time>2026-03-22T10:13:34.998Z</time></trkpt><trkpt lat="43.412940750772286" lon="11.649103116411226"><ele>412.33333333333337</ele><time>2026-03-22T10:13:37.998Z</time></trkpt><trkpt lat="43.412941701566936" lon="11.648994648453428"><ele>412.6666666666667</ele><time>2026-03-22T10:13:40.998Z</time></trkpt><trkpt lat="43.412942671829306" lon="11.648884494144559"><ele>413.0</ele><time>2026-03-22T10:13:43.998Z</time></trkpt><trkpt lat="43.41293855933237" lon="11.64876862157638"><ele>413.33333333333337</ele><time>2026-03-22T10:13:46.998Z</time></trkpt><trkpt lat="43.412942773021925" lon="11.648651817687206"><ele>413.6666666666667</ele><time>2026-03-22T10:13:49.998Z</time></trkpt><trkpt lat="43.41294162205444" lon="11.648527140679878"><ele>414.0</ele><time>2026-03-22T10:13:52.998Z</time></trkpt><trkpt lat="43.412956984284484" lon="11.648402112936873"><ele>414.1666666666667</ele><time>2026-03-22T10:13:55.998Z</time></trkpt><trkpt lat="43.4129820744683" lon="11.64828884511388"><ele>414.33333333333337</ele><time>2026-03-22T10:13:59Z</time></trkpt><trkpt lat="43.4130161212957" lon="11.648186073210303"><ele>414.5</ele><time>2026-03-22T10:14:02Z</time></trkpt><trkpt lat="43.41306379441717" lon="11.648092532515859"><ele>414.6666666666667</ele><time>2026-03-22T10:14:05Z</time></trkpt><trkpt lat="43.4130996037612" lon="11.647986399928513"><ele>414.83333333333337</ele><time>2026-03-22T10:14:08Z</time></trkpt><trkpt lat="43.41314171475464" lon="11.647884651600487"><ele>415.0</ele><time>2026-03-22T10:14:11Z</time></trkpt><trkpt lat="43.4131747418847" lon="11.647781306652412"><ele>410.83333333333337</ele><time>2026-03-22T10:14:14Z</time></trkpt><trkpt lat="43.413202487818275" lon="11.647682207992927"><ele>406.6666666666667</ele><time>2026-03-22T10:14:17Z</time></trkpt><trkpt lat="43.413227852377105" lon="11.64757004752208"><ele>402.5</ele><time>2026-03-22T10:14:20Z</time></trkpt><trkpt lat="43.413241233699075" lon="11.647452239384114"><ele>398.33333333333337</ele><time>2026-03-22T10:14:23Z</time></trkpt><trkpt lat="43.413251731355906" lon="11.647341182206445"><ele>394.1666666666667</ele><time>2026-03-22T10:14:26Z</time></trkpt><trkpt lat="43.413253071084995" lon="11.647225551994001"><ele>390.0</ele><time>2026-03-22T10:14:29Z</time></trkpt><trkpt lat="43.41324295210395" lon="11.647113781612669"><ele>390.0</ele><time>2026-03-22T10:14:32Z</time></trkpt><trkpt lat="43.41322687150435" lon="11.646997768498018"><ele>390.0</ele><time>2026-03-22T10:14:35Z</time></trkpt><trkpt lat="43.4131954225844" lon="11.646891561486457"><ele>390.0</ele><time>2026-03-22T10:14:37.999Z</time></trkpt><trkpt lat="43.41314644289452" lon="11.646802678864965"><ele>390.0</ele><time>2026-03-22T10:14:40.999Z</time></trkpt><trkpt lat="43.413081969956465" lon="11.646747094856229"><ele>390.0</ele><time>2026-03-22T10:14:43.999Z</time></trkpt><trkpt lat="43.41300788463651" lon="11.646725255518088"><ele>390.0</ele><time>2026-03-22T10:14:46.999Z</time></trkpt><trkpt lat="43.412925816862625" lon="11.646732423014653"><ele>391.0</ele><time>2026-03-22T10:14:49.999Z</time></trkpt><trkpt lat="43.412847400326235" lon="11.646759315660011"><ele>392.0</ele><time>2026-03-22T10:14:52.999Z</time></trkpt><trkpt lat="43.41276780065018" lon="11.646793843327384"><ele>393.0</ele><time>2026-03-22T10:14:55.999Z</time></trkpt><trkpt lat="43.41269030500434" lon="11.646828747945701"><ele>394.0</ele><time>2026-03-22T10:14:58.999Z</time></trkpt><trkpt lat="43.41261951723038" lon="11.646869120730996"><ele>395.0</ele><time>2026-03-22T10:15:01.999Z</time></trkpt><trkpt lat="43.41253743838498" lon="11.646892437884743"><ele>396.0</ele><time>2026-03-22T10:15:04.999Z</time></trkpt><trkpt lat="43.41245690629879" lon="11.646900039704501"><ele>396.0</ele><time>2026-03-22T10:15:07.999Z</time></trkpt><trkpt lat="43.41237687523033" lon="11.646892522260462"><ele>396.0</ele><time>2026-03-22T10:15:10.999Z</time></trkpt><trkpt lat="43.412314068393385" lon="11.646861583802778"><ele>396.0</ele><time>2026-03-22T10:15:13.999Z</time></trkpt><trkpt lat="43.41224872184658" lon="11.646850545755937"><ele>396.0</ele><time>2026-03-22T10:15:16.999Z</time></trkpt><trkpt lat="43.41218237314608" lon="11.646840643516608"><ele>396.0</ele><time>2026-03-22T10:15:19.999Z</time></trkpt><trkpt lat="43.41211668828043" lon="11.6468382115687"><ele>396.0</ele><time>2026-03-22T10:15:22.999Z</time></trkpt><trkpt lat="43.41205169756721" lon="11.646856255655749"><ele>396.0</ele><time>2026-03-22T10:15:25.999Z</time></trkpt><trkpt lat="43.411983509294004" lon="11.646881221673032"><ele>395.5714285714286</ele><time>2026-03-22T10:15:28.998Z</time></trkpt><trkpt lat="43.41191604705786" lon="11.646915266046836"><ele>395.1428571428571</ele><time>2026-03-22T10:15:31.998Z</time></trkpt><trkpt lat="43.41185874128112" lon="11.646966576778805"><ele>394.7142857142857</ele><time>2026-03-22T10:15:34.998Z</time></trkpt><trkpt lat="43.41179962187089" lon="11.647020992859824"><ele>394.28571428571433</ele><time>2026-03-22T10:15:37.998Z</time></trkpt><trkpt lat="43.411738988920824" lon="11.647069875961073"><ele>393.8571428571429</ele><time>2026-03-22T10:15:40.998Z</time></trkpt><trkpt lat="43.411675156823875" lon="11.647134139843368"><ele>393.42857142857144</ele><time>2026-03-22T10:15:43.998Z</time></trkpt><trkpt lat="43.4116137410878" lon="11.647185977752974"><ele>393.0</ele><time>2026-03-22T10:15:46.998Z</time></trkpt><trkpt lat="43.411545717629295" lon="11.647251578497992"><ele>394.1666666666667</ele><time>2026-03-22T10:15:49.998Z</time></trkpt><trkpt lat="43.41149102665388" lon="11.64730756314469"><ele>395.33333333333337</ele><time>2026-03-22T10:15:52.998Z</time></trkpt><trkpt lat="43.41142988086392" lon="11.647361385950035"><ele>396.5</ele><time>2026-03-22T10:15:55.998Z</time></trkpt><trkpt lat="43.41137274128788" lon="11.647432973906898"><ele>397.6666666666667</ele><time>2026-03-22T10:15:58.998Z</time></trkpt><trkpt lat="43.41131908948538" lon="11.647498500370732"><ele>398.83333333333337</ele><time>2026-03-22T10:16:03Z</time></trkpt><trkpt lat="43.41126733912968" lon="11.647560412649632"><ele>400.0</ele><time>2026-03-22T10:16:06Z</time></trkpt><trkpt lat="43.41119194577374" lon="11.647636979383309"><ele>400.00000000000006</ele><time>2026-03-22T10:16:10Z</time></trkpt><trkpt lat="43.41112621766206" lon="11.647695843404334"><ele>400.0</ele><time>2026-03-22T10:16:14Z</time></trkpt><trkpt lat="43.41107027798104" lon="11.647765188961085"><ele>400.0</ele><time>2026-03-22T10:16:17Z</time></trkpt><trkpt lat="43.41101463097923" lon="11.64781640601921"><ele>400.0</ele><time>2026-03-22T10:16:20Z</time></trkpt><trkpt lat="43.410960865498964" lon="11.647873685773142"><ele>400.0</ele><time>2026-03-22T10:16:22Z</time></trkpt><trkpt lat="43.41089248030167" lon="11.647930607613922"><ele>400.00000000000006</ele><time>2026-03-22T10:16:25Z</time></trkpt><trkpt lat="43.410838639802336" lon="11.647980793114852"><ele>400.0</ele><time>2026-03-22T10:16:28Z</time></trkpt><trkpt lat="43.410778551610676" lon="11.648035843183674"><ele>401.7142857142857</ele><time>2026-03-22T10:16:31Z</time></trkpt><trkpt lat="43.41070898186792" lon="11.648094068925024"><ele>403.42857142857144</ele><time>2026-03-22T10:16:35Z</time></trkpt><trkpt lat="43.410646259938815" lon="11.648140580455866"><ele>405.1428571428571</ele><time>2026-03-22T10:16:38Z</time></trkpt><trkpt lat="43.41058991799869" lon="11.648181238818767"><ele>406.8571428571429</ele><time>2026-03-22T10:16:41Z</time></trkpt><trkpt lat="43.41053076242398" lon="11.648212308538731"><ele>408.57142857142856</ele><time>2026-03-22T10:16:43.999Z</time></trkpt><trkpt lat="43.41047319680497" lon="11.648253964413584"><ele>410.2857142857143</ele><time>2026-03-22T10:16:46.999Z</time></trkpt><trkpt lat="43.41040852804022" lon="11.648280199555396"><ele>412.0</ele><time>2026-03-22T10:16:49.999Z</time></trkpt><trkpt lat="43.41034320249753" lon="11.648318417632218"><ele>411.99999999999994</ele><time>2026-03-22T10:16:52.999Z</time></trkpt><trkpt lat="43.410276198111546" lon="11.648351038890834"><ele>412.0</ele><time>2026-03-22T10:16:55.999Z</time></trkpt><trkpt lat="43.410209470615236" lon="11.648383060313947"><ele>412.0</ele><time>2026-03-22T10:16:58.999Z</time></trkpt><trkpt lat="43.41014416075444" lon="11.64841844745298"><ele>412.0</ele><time>2026-03-22T10:17:01.999Z</time></trkpt><trkpt lat="43.41008006457979" lon="11.648452008105465"><ele>412.0</ele><time>2026-03-22T10:17:04.999Z</time></trkpt><trkpt lat="43.41001363062774" lon="11.648483925567534"><ele>411.99999999999994</ele><time>2026-03-22T10:17:07.999Z</time></trkpt><trkpt lat="43.40994842708336" lon="11.648521203113512"><ele>412.0</ele><time>2026-03-22T10:17:10.999Z</time></trkpt><trkpt lat="43.409882270965085" lon="11.648559268182549"><ele>411.99999999999994</ele><time>2026-03-22T10:17:13.999Z</time></trkpt><trkpt lat="43.409816730210544" lon="11.648586514195255"><ele>412.0</ele><time>2026-03-22T10:17:16.999Z</time></trkpt><trkpt lat="43.40975186128393" lon="11.648616546757221"><ele>412.0</ele><time>2026-03-22T10:17:19.999Z</time></trkpt><trkpt lat="43.40970188874444" lon="11.648673055822533"><ele>412.0</ele><time>2026-03-22T10:17:22.999Z</time></trkpt><trkpt lat="43.409638193494196" lon="11.648742770674183"><ele>412.0</ele><time>2026-03-22T10:17:25.999Z</time></trkpt><trkpt lat="43.40959439076468" lon="11.648819124557356"><ele>411.99999999999994</ele><time>2026-03-22T10:17:28.999Z</time></trkpt><trkpt lat="43.409559179329456" lon="11.648908943565576"><ele>412.0</ele><time>2026-03-22T10:17:31.998Z</time></trkpt><trkpt lat="43.40953807785702" lon="11.649007023094555"><ele>412.50000000000006</ele><time>2026-03-22T10:17:34.998Z</time></trkpt><trkpt lat="43.40952799894089" lon="11.649109017161472"><ele>413.0</ele><time>2026-03-22T10:17:38.998Z</time></trkpt><trkpt lat="43.4095978173693" lon="11.649085155296392"><ele>413.5</ele><time>2026-03-22T10:17:43.998Z</time></trkpt><trkpt lat="43.40953603450797" lon="11.649105127733142"><ele>414.0</ele><time>2026-03-22T10:17:55.998Z</time></trkpt><trkpt lat="43.40953038144615" lon="11.649214343882802"><ele>414.50000000000006</ele><time>2026-03-22T10:17:58.998Z</time></trkpt><trkpt lat="43.40953430047387" lon="11.649327856920458"><ele>415.0</ele><time>2026-03-22T10:18:02.998Z</time></trkpt><trkpt lat="43.40950574522469" lon="11.649430835413556"><ele>416.8571428571429</ele><time>2026-03-22T10:18:06.998Z</time></trkpt><trkpt lat="43.40950078559518" lon="11.649541589114852"><ele>418.7142857142857</ele><time>2026-03-22T10:18:11Z</time></trkpt><trkpt lat="43.409482394719596" lon="11.649652828350526"><ele>420.57142857142856</ele><time>2026-03-22T10:18:15Z</time></trkpt><trkpt lat="43.409477474231046" lon="11.649739636775841"><ele>422.42857142857144</ele><time>2026-03-22T10:18:18Z</time></trkpt><trkpt lat="43.409460246122926" lon="11.649823491837429"><ele>424.2857142857143</ele><time>2026-03-22T10:18:21Z</time></trkpt><trkpt lat="43.40943712851826" lon="11.649908055322296"><ele>426.14285714285717</ele><time>2026-03-22T10:18:24Z</time></trkpt><trkpt lat="43.409415988562294" lon="11.649998434313598"><ele>428.0</ele><time>2026-03-22T10:18:27Z</time></trkpt><trkpt lat="43.40939371748433" lon="11.650089307746589"><ele>428.00000000000006</ele><time>2026-03-22T10:18:29.999Z</time></trkpt><trkpt lat="43.40934647167982" lon="11.650173602236237"><ele>428.0</ele><time>2026-03-22T10:18:32.999Z</time></trkpt><trkpt lat="43.409305059729704" lon="11.650257934281695"><ele>428.0</ele><time>2026-03-22T10:18:35.999Z</time></trkpt><trkpt lat="43.409241556112605" lon="11.650305248543821"><ele>428.0</ele><time>2026-03-22T10:18:38.999Z</time></trkpt><trkpt lat="43.409173906437296" lon="11.650325653405945"><ele>428.0</ele><time>2026-03-22T10:18:41.999Z</time></trkpt><trkpt lat="43.40910872512457" lon="11.650307163317823"><ele>428.00000000000006</ele><time>2026-03-22T10:18:44.999Z</time></trkpt><trkpt lat="43.409044556514225" lon="11.650286473987842"><ele>428.0</ele><time>2026-03-22T10:18:47.999Z</time></trkpt><trkpt lat="43.40898010720603" lon="11.650250940551425"><ele>428.00000000000006</ele><time>2026-03-22T10:18:50.999Z</time></trkpt><trkpt lat="43.40891307456682" lon="11.650216880217343"><ele>428.0</ele><time>2026-03-22T10:18:53.999Z</time></trkpt><trkpt lat="43.40884646350712" lon="11.65018407158687"><ele>428.0</ele><time>2026-03-22T10:18:56.999Z</time></trkpt><trkpt lat="43.40877748778751" lon="11.650161204734195"><ele>428.0</ele><time>2026-03-22T10:18:59.999Z</time></trkpt><trkpt lat="43.40870883255462" lon="11.650133086339801"><ele>428.0</ele><time>2026-03-22T10:19:02.999Z</time></trkpt><trkpt lat="43.40864082616058" lon="11.650105028880423"><ele>428.00000000000006</ele><time>2026-03-22T10:19:05.999Z</time></trkpt><trkpt lat="43.40857299815102" lon="11.650082414270718"><ele>428.0</ele><time>2026-03-22T10:19:08.999Z</time></trkpt><trkpt lat="43.408507548182484" lon="11.650046697133975"><ele>429.00000000000006</ele><time>2026-03-22T10:19:11.999Z</time></trkpt><trkpt lat="43.40844345835676" lon="11.650016667902975"><ele>430.0</ele><time>2026-03-22T10:19:14.999Z</time></trkpt><trkpt lat="43.40838155832609" lon="11.64998066051326"><ele>431.0</ele><time>2026-03-22T10:19:17.998Z</time></trkpt><trkpt lat="43.40832227366728" lon="11.649946122716145"><ele>432.0</ele><time>2026-03-22T10:19:20.998Z</time></trkpt><trkpt lat="43.40824322500141" lon="11.649915430758416"><ele>433.0</ele><time>2026-03-22T10:19:24.998Z</time></trkpt><trkpt lat="43.40816163509308" lon="11.649895134250123"><ele>434.00000000000006</ele><time>2026-03-22T10:19:28.998Z</time></trkpt><trkpt lat="43.40809210992438" lon="11.649940772576318"><ele>435.0</ele><time>2026-03-22T10:19:31.998Z</time></trkpt><trkpt lat="43.40801203385898" lon="11.649967454343606"><ele>435.00000000000006</ele><time>2026-03-22T10:19:35.998Z</time></trkpt><trkpt lat="43.40795164837441" lon="11.649998429232415"><ele>435.0</ele><time>2026-03-22T10:19:38.998Z</time></trkpt><trkpt lat="43.40788676729596" lon="11.650042940406356"><ele>435.0</ele><time>2026-03-22T10:19:41.998Z</time></trkpt><trkpt lat="43.407825957674625" lon="11.65009033838271"><ele>435.0</ele><time>2026-03-22T10:19:44.998Z</time></trkpt><trkpt lat="43.40776170847575" lon="11.650141783869499"><ele>435.0</ele><time>2026-03-22T10:19:47.998Z</time></trkpt><trkpt lat="43.40769995309662" lon="11.65019061478638"><ele>435.00000000000006</ele><time>2026-03-22T10:19:50.998Z</time></trkpt><trkpt lat="43.4076347840754" lon="11.650235873687928"><ele>435.0</ele><time>2026-03-22T10:19:53.998Z</time></trkpt><trkpt lat="43.407574661736554" lon="11.65028874599116"><ele>437.0</ele><time>2026-03-22T10:19:56.998Z</time></trkpt><trkpt lat="43.40751207611145" lon="11.650334724480919"><ele>439.0</ele><time>2026-03-22T10:19:59.998Z</time></trkpt><trkpt lat="43.407452943136875" lon="11.650385979871379"><ele>441.0</ele><time>2026-03-22T10:20:02.998Z</time></trkpt><trkpt lat="43.40738942065326" lon="11.650427738037394"><ele>443.0</ele><time>2026-03-22T10:20:05.998Z</time></trkpt><trkpt lat="43.407326034897515" lon="11.65046475920187"><ele>444.99999999999994</ele><time>2026-03-22T10:20:08.997Z</time></trkpt><trkpt lat="43.40725984212932" lon="11.650492823977087"><ele>447.0</ele><time>2026-03-22T10:20:11.997Z</time></trkpt><trkpt lat="43.40719327992092" lon="11.650506408997588"><ele>449.0</ele><time>2026-03-22T10:20:14.999Z</time></trkpt><trkpt lat="43.40712261919177" lon="11.650506623228239"><ele>449.85714285714283</ele><time>2026-03-22T10:20:18Z</time></trkpt><trkpt lat="43.407057126084645" lon="11.650491486931834"><ele>450.71428571428567</ele><time>2026-03-22T10:20:21Z</time></trkpt><trkpt lat="43.406991057074364" lon="11.650467798434136"><ele>451.57142857142856</ele><time>2026-03-22T10:20:24Z</time></trkpt><trkpt lat="43.40692485521869" lon="11.650441450803076"><ele>452.42857142857144</ele><time>2026-03-22T10:20:27Z</time></trkpt><trkpt lat="43.40685543164849" lon="11.650414218097328"><ele>453.2857142857143</ele><time>2026-03-22T10:20:30Z</time></trkpt><trkpt lat="43.4067889984648" lon="11.650389006444424"><ele>454.1428571428571</ele><time>2026-03-22T10:20:33Z</time></trkpt><trkpt lat="43.406724848992255" lon="11.650365118995753"><ele>455.0</ele><time>2026-03-22T10:20:36Z</time></trkpt><trkpt lat="43.4066564268629" lon="11.650340512579692"><ele>455.0</ele><time>2026-03-22T10:20:39Z</time></trkpt><trkpt lat="43.406590340980905" lon="11.650318324270078"><ele>455.0</ele><time>2026-03-22T10:20:42Z</time></trkpt><trkpt lat="43.4065254698432" lon="11.650302787766426"><ele>455.0</ele><time>2026-03-22T10:20:45Z</time></trkpt><trkpt lat="43.4064590667546" lon="11.650281127740815"><ele>455.0</ele><time>2026-03-22T10:20:47.999Z</time></trkpt><trkpt lat="43.40639376707895" lon="11.650270520906727"><ele>455.0</ele><time>2026-03-22T10:20:50.999Z</time></trkpt><trkpt lat="43.40632765405251" lon="11.650265260846187"><ele>455.0</ele><time>2026-03-22T10:20:53.999Z</time></trkpt><trkpt lat="43.40626282506279" lon="11.65026579398002"><ele>455.0</ele><time>2026-03-22T10:20:56.999Z</time></trkpt><trkpt lat="43.406195169753104" lon="11.650279862473038"><ele>456.2857142857143</ele><time>2026-03-22T10:20:59.999Z</time></trkpt><trkpt lat="43.4061271972553" lon="11.650301237632805"><ele>457.57142857142856</ele><time>2026-03-22T10:21:02.999Z</time></trkpt><trkpt lat="43.40605509514417" lon="11.650327399002812"><ele>458.8571428571429</ele><time>2026-03-22T10:21:05.999Z</time></trkpt><trkpt lat="43.40598663242554" lon="11.650351989357736"><ele>460.14285714285717</ele><time>2026-03-22T10:21:08.999Z</time></trkpt><trkpt lat="43.40591707110935" lon="11.650373175842649"><ele>461.42857142857144</ele><time>2026-03-22T10:21:11.999Z</time></trkpt><trkpt lat="43.40584851223448" lon="11.650400542488335"><ele>462.7142857142858</ele><time>2026-03-22T10:21:14.999Z</time></trkpt><trkpt lat="43.405776904122135" lon="11.65042361195242"><ele>464.00000000000006</ele><time>2026-03-22T10:21:17.999Z</time></trkpt><trkpt lat="43.40570513706706" lon="11.650451136220225"><ele>464.00000000000006</ele><time>2026-03-22T10:21:20.999Z</time></trkpt><trkpt lat="43.405630148982226" lon="11.650476182030634"><ele>464.0</ele><time>2026-03-22T10:21:23.999Z</time></trkpt><trkpt lat="43.40555420109723" lon="11.650501636624213"><ele>464.00000000000006</ele><time>2026-03-22T10:21:26.999Z</time></trkpt><trkpt lat="43.405484794460996" lon="11.65052415081045"><ele>464.00000000000006</ele><time>2026-03-22T10:21:29.999Z</time></trkpt><trkpt lat="43.40541497246757" lon="11.65055089222876"><ele>464.0</ele><time>2026-03-22T10:21:32.999Z</time></trkpt><trkpt lat="43.40534267640901" lon="11.65057453229003"><ele>464.00000000000006</ele><time>2026-03-22T10:21:35.999Z</time></trkpt><trkpt lat="43.40527315000679" lon="11.650610177724587"><ele>464.00000000000006</ele><time>2026-03-22T10:21:38.999Z</time></trkpt><trkpt lat="43.40520300965438" lon="11.650637815482622"><ele>463.66666666666663</ele><time>2026-03-22T10:21:41.999Z</time></trkpt><trkpt lat="43.405136500245334" lon="11.650676671504913"><ele>463.3333333333333</ele><time>2026-03-22T10:21:44.998Z</time></trkpt><trkpt lat="43.40506535965915" lon="11.650717381292282"><ele>463.0</ele><time>2026-03-22T10:21:47.998Z</time></trkpt><trkpt lat="43.404994801652684" lon="11.650768254362049"><ele>462.66666666666663</ele><time>2026-03-22T10:21:50.998Z</time></trkpt><trkpt lat="43.404923657586345" lon="11.650817261887482"><ele>462.3333333333333</ele><time>2026-03-22T10:21:53.998Z</time></trkpt><trkpt lat="43.40485336512803" lon="11.650878441867574"><ele>462.0</ele><time>2026-03-22T10:21:56.998Z</time></trkpt><trkpt lat="43.40478964118257" lon="11.650934719644054"><ele>462.0</ele><time>2026-03-22T10:21:59.998Z</time></trkpt><trkpt lat="43.40472702752262" lon="11.650993612054005"><ele>462.0</ele><time>2026-03-22T10:22:02.998Z</time></trkpt><trkpt lat="43.40466569696468" lon="11.651051893778376"><ele>462.0</ele><time>2026-03-22T10:22:05.998Z</time></trkpt><trkpt lat="43.40460438576464" lon="11.651112647409725"><ele>462.0</ele><time>2026-03-22T10:22:08.998Z</time></trkpt><trkpt lat="43.404538886015025" lon="11.651174979367353"><ele>462.0</ele><time>2026-03-22T10:22:11.998Z</time></trkpt><trkpt lat="43.40447013186018" lon="11.651227147168711"><ele>462.0</ele><time>2026-03-22T10:22:14.998Z</time></trkpt><trkpt lat="43.40440608700736" lon="11.651282460348192"><ele>463.3333333333333</ele><time>2026-03-22T10:22:17.998Z</time></trkpt><trkpt lat="43.40433666258426" lon="11.651327606711206"><ele>464.66666666666663</ele><time>2026-03-22T10:22:21Z</time></trkpt><trkpt lat="43.40426620194997" lon="11.65137708935256"><ele>466.0</ele><time>2026-03-22T10:22:24Z</time></trkpt><trkpt lat="43.404194605934364" lon="11.651410596814312"><ele>467.3333333333333</ele><time>2026-03-22T10:22:27Z</time></trkpt><trkpt lat="43.40412618131905" lon="11.651448673120639"><ele>468.66666666666663</ele><time>2026-03-22T10:22:30Z</time></trkpt><trkpt lat="43.404057833568494" lon="11.651482296299491"><ele>470.0</ele><time>2026-03-22T10:22:33Z</time></trkpt><trkpt lat="43.40398948925114" lon="11.651514693403762"><ele>470.0</ele><time>2026-03-22T10:22:36Z</time></trkpt><trkpt lat="43.403923024731775" lon="11.651546395807257"><ele>469.99999999999994</ele><time>2026-03-22T10:22:39Z</time></trkpt><trkpt lat="43.403854018798114" lon="11.651573443346344"><ele>470.0</ele><time>2026-03-22T10:22:42Z</time></trkpt><trkpt lat="43.40378455508087" lon="11.651610688515312"><ele>470.0</ele><time>2026-03-22T10:22:45Z</time></trkpt><trkpt lat="43.403713349254836" lon="11.651635592174753"><ele>469.99999999999994</ele><time>2026-03-22T10:22:48Z</time></trkpt><trkpt lat="43.40364690155005" lon="11.65166655412226"><ele>470.0</ele><time>2026-03-22T10:22:51Z</time></trkpt><trkpt lat="43.40357672881247" lon="11.651699705152259"><ele>470.0</ele><time>2026-03-22T10:22:54Z</time></trkpt><trkpt lat="43.403509140771554" lon="11.651732808008472"><ele>470.0</ele><time>2026-03-22T10:22:57Z</time></trkpt><trkpt lat="43.40344110752055" lon="11.65176567696668"><ele>469.99999999999994</ele><time>2026-03-22T10:22:59.999Z</time></trkpt><trkpt lat="43.403375800360244" lon="11.651793713125796"><ele>470.0</ele><time>2026-03-22T10:23:02.999Z</time></trkpt><trkpt lat="43.40330514468013" lon="11.651826350285308"><ele>470.0</ele><time>2026-03-22T10:23:05.999Z</time></trkpt><trkpt lat="43.40324017963699" lon="11.651853160132362"><ele>469.99999999999994</ele><time>2026-03-22T10:23:08.999Z</time></trkpt><trkpt lat="43.40317478546608" lon="11.65188830071842"><ele>470.0</ele><time>2026-03-22T10:23:11.999Z</time></trkpt><trkpt lat="43.4031019886697" lon="11.651926847843491"><ele>470.0</ele><time>2026-03-22T10:23:14.999Z</time></trkpt><trkpt lat="43.40302722235667" lon="11.651967026995697"><ele>469.49999999999994</ele><time>2026-03-22T10:23:17.999Z</time></trkpt><trkpt lat="43.402950257298535" lon="11.65200685672145"><ele>469.0</ele><time>2026-03-22T10:23:20.999Z</time></trkpt><trkpt lat="43.40287710242754" lon="11.65205648520255"><ele>468.5</ele><time>2026-03-22T10:23:23.999Z</time></trkpt><trkpt lat="43.402815486482375" lon="11.652109325994116"><ele>468.0</ele><time>2026-03-22T10:23:26.999Z</time></trkpt><trkpt lat="43.402739138761014" lon="11.65215432550661"><ele>467.49999999999994</ele><time>2026-03-22T10:23:29.999Z</time></trkpt><trkpt lat="43.40267767706802" lon="11.652188835850101"><ele>467.0</ele><time>2026-03-22T10:23:31.999Z</time></trkpt><trkpt lat="43.402612169762165" lon="11.652234111637114"><ele>466.99999999999994</ele><time>2026-03-22T10:23:33.999Z</time></trkpt><trkpt lat="43.40254497760395" lon="11.652271545727283"><ele>467.0</ele><time>2026-03-22T10:23:35.999Z</time></trkpt><trkpt lat="43.40247890636555" lon="11.652316206682448"><ele>467.0</ele><time>2026-03-22T10:23:37.999Z</time></trkpt><trkpt lat="43.40240353824872" lon="11.652350622585061"><ele>467.0</ele><time>2026-03-22T10:23:39.999Z</time></trkpt><trkpt lat="43.4023374086296" lon="11.652412846178398"><ele>466.99999999999994</ele><time>2026-03-22T10:23:41.999Z</time></trkpt><trkpt lat="43.40226611311916" lon="11.652448290412094"><ele>467.0</ele><time>2026-03-22T10:23:43.999Z</time></trkpt><trkpt lat="43.402185565788706" lon="11.652478723173257"><ele>466.8</ele><time>2026-03-22T10:23:45.999Z</time></trkpt><trkpt lat="43.402103404707916" lon="11.652532902780557"><ele>466.6</ele><time>2026-03-22T10:23:47.999Z</time></trkpt><trkpt lat="43.40200332919567" lon="11.652561303865292"><ele>466.40000000000003</ele><time>2026-03-22T10:23:49.999Z</time></trkpt><trkpt lat="43.40190037920588" lon="11.652583154249006"><ele>466.20000000000005</ele><time>2026-03-22T10:23:51.998Z</time></trkpt><trkpt lat="43.40179679274805" lon="11.652601128060033"><ele>466.0</ele><time>2026-03-22T10:23:53.998Z</time></trkpt><trkpt lat="43.40169084466482" lon="11.652620572865958"><ele>466.0</ele><time>2026-03-22T10:23:55.998Z</time></trkpt><trkpt lat="43.401586266246674" lon="11.652635747449136"><ele>466.0</ele><time>2026-03-22T10:23:57.998Z</time></trkpt><trkpt lat="43.40148265152209" lon="11.652645957781282"><ele>466.0</ele><time>2026-03-22T10:23:59.998Z</time></trkpt><trkpt lat="43.40137958034422" lon="11.652665722641679"><ele>466.0</ele><time>2026-03-22T10:24:01.998Z</time></trkpt><trkpt lat="43.40127495728496" lon="11.652679245492047"><ele>466.0</ele><time>2026-03-22T10:24:03.998Z</time></trkpt><trkpt lat="43.40116909907552" lon="11.652694676783506"><ele>465.8</ele><time>2026-03-22T10:24:05.998Z</time></trkpt><trkpt lat="43.40106545879174" lon="11.652713011781694"><ele>465.6</ele><time>2026-03-22T10:24:07.998Z</time></trkpt><trkpt lat="43.400962253191736" lon="11.65272705288667"><ele>465.4</ele><time>2026-03-22T10:24:09.998Z</time></trkpt><trkpt lat="43.40085900070284" lon="11.652732126403302"><ele>465.2</ele><time>2026-03-22T10:24:11.998Z</time></trkpt><trkpt lat="43.40075879239434" lon="11.65275200954837"><ele>465.0</ele><time>2026-03-22T10:24:13.998Z</time></trkpt><trkpt lat="43.40066759850248" lon="11.652769053661792"><ele>463.8333333333333</ele><time>2026-03-22T10:24:15.998Z</time></trkpt><trkpt lat="43.40057975854539" lon="11.652796543514473"><ele>462.66666666666663</ele><time>2026-03-22T10:24:17.998Z</time></trkpt><trkpt lat="43.40049190788341" lon="11.652832166726505"><ele>461.5</ele><time>2026-03-22T10:24:19.998Z</time></trkpt><trkpt lat="43.40041819563502" lon="11.652903428715078"><ele>460.3333333333333</ele><time>2026-03-22T10:24:21.998Z</time></trkpt><trkpt lat="43.40035787021464" lon="11.652988002573487"><ele>459.16666666666663</ele><time>2026-03-22T10:24:23.998Z</time></trkpt><trkpt lat="43.40031056887155" lon="11.653096046711397"><ele>458.0</ele><time>2026-03-22T10:24:26Z</time></trkpt><trkpt lat="43.40028391560421" lon="11.653213024748554"><ele>459.4</ele><time>2026-03-22T10:24:28Z</time></trkpt><trkpt lat="43.400268176859086" lon="11.653340399660014"><ele>460.79999999999995</ele><time>2026-03-22T10:24:30Z</time></trkpt><trkpt lat="43.400249347809215" lon="11.653472762824522"><ele>462.2</ele><time>2026-03-22T10:24:32Z</time></trkpt><trkpt lat="43.40023113747595" lon="11.653606997357892"><ele>463.6</ele><time>2026-03-22T10:24:34Z</time></trkpt><trkpt lat="43.40019597547212" lon="11.653737692454296"><ele>465.0</ele><time>2026-03-22T10:24:36Z</time></trkpt><trkpt lat="43.400087613701736" lon="11.653786851823552"><ele>465.0</ele><time>2026-03-22T10:24:38Z</time></trkpt><trkpt lat="43.400006658868264" lon="11.653850799322717"><ele>465.0</ele><time>2026-03-22T10:24:40Z</time></trkpt><trkpt lat="43.399915010079894" lon="11.65386431009621"><ele>465.0</ele><time>2026-03-22T10:24:42Z</time></trkpt><trkpt lat="43.39981837518078" lon="11.653799730322312"><ele>465.0</ele><time>2026-03-22T10:24:44Z</time></trkpt><trkpt lat="43.39973332299205" lon="11.65372293901579"><ele>465.0</ele><time>2026-03-22T10:24:46Z</time></trkpt><trkpt lat="43.39964531365209" lon="11.653650724201007"><ele>466.1666666666667</ele><time>2026-03-22T10:24:48Z</time></trkpt><trkpt lat="43.39955735271268" lon="11.653590138314089"><ele>467.33333333333337</ele><time>2026-03-22T10:24:50Z</time></trkpt><trkpt lat="43.39947590865572" lon="11.653535910777892"><ele>468.5</ele><time>2026-03-22T10:24:52Z</time></trkpt><trkpt lat="43.399391142284664" lon="11.653511707760588"><ele>469.6666666666667</ele><time>2026-03-22T10:24:54Z</time></trkpt><trkpt lat="43.39930589434551" lon="11.653483877529885"><ele>470.83333333333337</ele><time>2026-03-22T10:24:56Z</time></trkpt><trkpt lat="43.39921970589444" lon="11.653479938166377"><ele>472.0</ele><time>2026-03-22T10:24:58Z</time></trkpt><trkpt lat="43.3991292101169" lon="11.653480670540155"><ele>472.0</ele><time>2026-03-22T10:25:00Z</time></trkpt><trkpt lat="43.39903471513047" lon="11.65346925812501"><ele>472.00000000000006</ele><time>2026-03-22T10:25:02Z</time></trkpt><trkpt lat="43.39892951256819" lon="11.653486465701507"><ele>472.00000000000006</ele><time>2026-03-22T10:25:04Z</time></trkpt><trkpt lat="43.398817844798096" lon="11.653512132546131"><ele>472.0</ele><time>2026-03-22T10:25:06Z</time></trkpt><trkpt lat="43.3987025749071" lon="11.653542358060749"><ele>472.0</ele><time>2026-03-22T10:25:07.999Z</time></trkpt><trkpt lat="43.39858249728381" lon="11.653573844199428"><ele>471.1428571428571</ele><time>2026-03-22T10:25:09.999Z</time></trkpt><trkpt lat="43.39852290079579" lon="11.653610186286922"><ele>470.28571428571433</ele><time>2026-03-22T10:25:10.999Z</time></trkpt><trkpt lat="43.398457797762134" lon="11.653623719954954"><ele>469.42857142857144</ele><time>2026-03-22T10:25:11.999Z</time></trkpt><trkpt lat="43.39838981749965" lon="11.653625933027971"><ele>468.57142857142856</ele><time>2026-03-22T10:25:12.999Z</time></trkpt><trkpt lat="43.398319416505764" lon="11.653612372662575"><ele>467.71428571428567</ele><time>2026-03-22T10:25:13.999Z</time></trkpt><trkpt lat="43.398251439436" lon="11.653576813589464"><ele>466.8571428571429</ele><time>2026-03-22T10:25:14.999Z</time></trkpt><trkpt lat="43.39818013595693" lon="11.653547871216162"><ele>466.0</ele><time>2026-03-22T10:25:15.999Z</time></trkpt><trkpt lat="43.39811348161485" lon="11.653476986871397"><ele>466.00000000000006</ele><time>2026-03-22T10:25:16.999Z</time></trkpt><trkpt lat="43.39805806282732" lon="11.653392865972739"><ele>466.0</ele><time>2026-03-22T10:25:17.999Z</time></trkpt><trkpt lat="43.39800527529881" lon="11.653308088909974"><ele>466.0</ele><time>2026-03-22T10:25:18.999Z</time></trkpt><trkpt lat="43.39795506873359" lon="11.653224794234358"><ele>466.0</ele><time>2026-03-22T10:25:19.999Z</time></trkpt><trkpt lat="43.39790307146582" lon="11.653149743887116"><ele>466.00000000000006</ele><time>2026-03-22T10:25:20.999Z</time></trkpt><trkpt lat="43.39784457380208" lon="11.653078430288"><ele>466.0</ele><time>2026-03-22T10:25:21.999Z</time></trkpt><trkpt lat="43.397784832308844" lon="11.653006242926306"><ele>464.1666666666667</ele><time>2026-03-22T10:25:22.999Z</time></trkpt><trkpt lat="43.397710066078524" lon="11.652965997665047"><ele>462.33333333333337</ele><time>2026-03-22T10:25:23.999Z</time></trkpt><trkpt lat="43.39763366248342" lon="11.652929389892414"><ele>460.5</ele><time>2026-03-22T10:25:24.999Z</time></trkpt><trkpt lat="43.397556219391205" lon="11.652898222705893"><ele>458.66666666666663</ele><time>2026-03-22T10:25:25.999Z</time></trkpt><trkpt lat="43.397474379419286" lon="11.652872702137842"><ele>456.8333333333333</ele><time>2026-03-22T10:25:26.999Z</time></trkpt><trkpt lat="43.39738575746045" lon="11.652853940254767"><ele>455.0</ele><time>2026-03-22T10:25:27.999Z</time></trkpt><trkpt lat="43.39729675490249" lon="11.652840541684371"><ele>455.0</ele><time>2026-03-22T10:25:28.999Z</time></trkpt><trkpt lat="43.39720284198034" lon="11.652839093216505"><ele>455.0</ele><time>2026-03-22T10:25:29.999Z</time></trkpt><trkpt lat="43.39710532652199" lon="11.652846835051742"><ele>455.0</ele><time>2026-03-22T10:25:30.999Z</time></trkpt><trkpt lat="43.39700568452477" lon="11.652831055535021"><ele>455.0</ele><time>2026-03-22T10:25:31.999Z</time></trkpt><trkpt lat="43.39690791592302" lon="11.65283533035941"><ele>455.0</ele><time>2026-03-22T10:25:32.999Z</time></trkpt><trkpt lat="43.396806792519676" lon="11.65283975188827"><ele>453.8</ele><time>2026-03-22T10:25:33.999Z</time></trkpt><trkpt lat="43.396710278207095" lon="11.652843573580547"><ele>452.6</ele><time>2026-03-22T10:25:34.999Z</time></trkpt><trkpt lat="43.39661244235005" lon="11.652845724691876"><ele>451.4</ele><time>2026-03-22T10:25:35.999Z</time></trkpt><trkpt lat="43.396512833281555" lon="11.652856788113949"><ele>450.2</ele><time>2026-03-22T10:25:36.999Z</time></trkpt><trkpt lat="43.39641527833458" lon="11.65285915910017"><ele>449.0</ele><time>2026-03-22T10:25:37.999Z</time></trkpt><trkpt lat="43.39631901748392" lon="11.652844860290498"><ele>448.79999999999995</ele><time>2026-03-22T10:25:38.999Z</time></trkpt><trkpt lat="43.39622083364331" lon="11.652816319892032"><ele>448.59999999999997</ele><time>2026-03-22T10:25:39.999Z</time></trkpt><trkpt lat="43.396130307877506" lon="11.652743262823517"><ele>448.4</ele><time>2026-03-22T10:25:40.999Z</time></trkpt><trkpt lat="43.396042248052815" lon="11.652666691581079"><ele>448.2</ele><time>2026-03-22T10:25:41.999Z</time></trkpt><trkpt lat="43.39596314788073" lon="11.652559720056068"><ele>448.0</ele><time>2026-03-22T10:25:42.999Z</time></trkpt><trkpt lat="43.39588800183742" lon="11.652452755220407"><ele>448.0</ele><time>2026-03-22T10:25:43.999Z</time></trkpt><trkpt lat="43.3958124040362" lon="11.652352654278909"><ele>447.99999999999994</ele><time>2026-03-22T10:25:44.999Z</time></trkpt><trkpt lat="43.395730684819" lon="11.652268102414627"><ele>447.99999999999994</ele><time>2026-03-22T10:25:45.999Z</time></trkpt><trkpt lat="43.39564842924268" lon="11.652176400399304"><ele>448.0</ele><time>2026-03-22T10:25:46.999Z</time></trkpt><trkpt lat="43.39555718577758" lon="11.652114736516856"><ele>448.0</ele><time>2026-03-22T10:25:47.999Z</time></trkpt><trkpt lat="43.395467973833064" lon="11.652051819756913"><ele>448.4</ele><time>2026-03-22T10:25:48.999Z</time></trkpt><trkpt lat="43.39537947071833" lon="11.651997613301713"><ele>448.79999999999995</ele><time>2026-03-22T10:25:49.999Z</time></trkpt><trkpt lat="43.39529214378081" lon="11.651942702928856"><ele>449.2</ele><time>2026-03-22T10:25:50.999Z</time></trkpt><trkpt lat="43.395205000373664" lon="11.651893375234119"><ele>449.6</ele><time>2026-03-22T10:25:51.999Z</time></trkpt><trkpt lat="43.3951114813136" lon="11.651859340859488"><ele>450.0</ele><time>2026-03-22T10:25:52.999Z</time></trkpt><trkpt lat="43.395019114385626" lon="11.651843191099744"><ele>450.0</ele><time>2026-03-22T10:25:53.999Z</time></trkpt><trkpt lat="43.39492383972682" lon="11.65182680821678"><ele>450.0</ele><time>2026-03-22T10:25:54.999Z</time></trkpt><trkpt lat="43.39481810200054" lon="11.651869844325489"><ele>450.0</ele><time>2026-03-22T10:25:55.999Z</time></trkpt><trkpt lat="43.39472745515271" lon="11.651970762726759"><ele>450.0</ele><time>2026-03-22T10:25:56.999Z</time></trkpt><trkpt lat="43.3946662911927" lon="11.652108867105982"><ele>450.0</ele><time>2026-03-22T10:25:57.999Z</time></trkpt><trkpt lat="43.39463189649874" lon="11.652263139323875"><ele>449.8</ele><time>2026-03-22T10:25:58.998Z</time></trkpt><trkpt lat="43.39461429352693" lon="11.65240497147943"><ele>449.6</ele><time>2026-03-22T10:25:59.998Z</time></trkpt><trkpt lat="43.394600220074906" lon="11.652542385398904"><ele>449.4</ele><time>2026-03-22T10:26:00.998Z</time></trkpt><trkpt lat="43.39458197547338" lon="11.652658160510237"><ele>449.2</ele><time>2026-03-22T10:26:01.998Z</time></trkpt><trkpt lat="43.39454606551141" lon="11.652760712172903"><ele>449.0</ele><time>2026-03-22T10:26:02.998Z</time></trkpt><trkpt lat="43.394488702629836" lon="11.652849101948634"><ele>447.2</ele><time>2026-03-22T10:26:03.998Z</time></trkpt><trkpt lat="43.39441022117441" lon="11.65292461511695"><ele>445.4</ele><time>2026-03-22T10:26:04.998Z</time></trkpt><trkpt lat="43.39432620081666" lon="11.65300861603554"><ele>443.6</ele><time>2026-03-22T10:26:05.998Z</time></trkpt><trkpt lat="43.394245105903025" lon="11.653103090157105"><ele>441.8</ele><time>2026-03-22T10:26:06.998Z</time></trkpt><trkpt lat="43.39417563294837" lon="11.653238426455482"><ele>440.0</ele><time>2026-03-22T10:26:07.998Z</time></trkpt><trkpt lat="43.39414368742412" lon="11.65341166623984"><ele>440.0</ele><time>2026-03-22T10:26:08.998Z</time></trkpt><trkpt lat="43.394132561508655" lon="11.653563439610329"><ele>440.0</ele><time>2026-03-22T10:26:09.998Z</time></trkpt><trkpt lat="43.39412241743101" lon="11.653708755520766"><ele>440.0</ele><time>2026-03-22T10:26:10.998Z</time></trkpt><trkpt lat="43.39411310689179" lon="11.653854302708059"><ele>440.0</ele><time>2026-03-22T10:26:11.998Z</time></trkpt><trkpt lat="43.39410379326675" lon="11.65399989800808"><ele>440.0</ele><time>2026-03-22T10:26:12.998Z</time></trkpt><trkpt lat="43.39409448523696" lon="11.654145406191978"><ele>439.4</ele><time>2026-03-22T10:26:13.998Z</time></trkpt><trkpt lat="43.394084076229696" lon="11.65428640331138"><ele>438.8</ele><time>2026-03-22T10:26:14.998Z</time></trkpt><trkpt lat="43.394069696852924" lon="11.654420769786512"><ele>438.20000000000005</ele><time>2026-03-22T10:26:15.998Z</time></trkpt><trkpt lat="43.394048053449445" lon="11.654553151797543"><ele>437.6</ele><time>2026-03-22T10:26:16.998Z</time></trkpt><trkpt lat="43.39401808809208" lon="11.654695906139468"><ele>437.0</ele><time>2026-03-22T10:26:17.998Z</time></trkpt><trkpt lat="43.39398025175295" lon="11.654831411951788"><ele>436.20000000000005</ele><time>2026-03-22T10:26:18.998Z</time></trkpt><trkpt lat="43.393930770567124" lon="11.654961594950205"><ele>435.40000000000003</ele><time>2026-03-22T10:26:19.998Z</time></trkpt><trkpt lat="43.39387195756647" lon="11.655077597448237"><ele>434.59999999999997</ele><time>2026-03-22T10:26:20.998Z</time></trkpt><trkpt lat="43.39379991044983" lon="11.655187364207103"><ele>433.79999999999995</ele><time>2026-03-22T10:26:21.998Z</time></trkpt><trkpt lat="43.393721845304526" lon="11.655299464113659"><ele>433.0</ele><time>2026-03-22T10:26:22.998Z</time></trkpt><trkpt lat="43.393643458881094" lon="11.655403250380253"><ele>431.0</ele><time>2026-03-22T10:26:23.998Z</time></trkpt><trkpt lat="43.39356255790526" lon="11.655502649494954"><ele>428.99999999999994</ele><time>2026-03-22T10:26:24.998Z</time></trkpt><trkpt lat="43.393478986220266" lon="11.65559350839145"><ele>427.0</ele><time>2026-03-22T10:26:25.998Z</time></trkpt><trkpt lat="43.39338718567437" lon="11.65565030135476"><ele>425.0</ele><time>2026-03-22T10:26:26.998Z</time></trkpt><trkpt lat="43.39328590731437" lon="11.65566256660422"><ele>423.0</ele><time>2026-03-22T10:26:27.998Z</time></trkpt><trkpt lat="43.39317854887715" lon="11.655612869607964"><ele>423.0</ele><time>2026-03-22T10:26:28.998Z</time></trkpt><trkpt lat="43.393090103201985" lon="11.655505504754718"><ele>423.0</ele><time>2026-03-22T10:26:29.998Z</time></trkpt><trkpt lat="43.392999226388206" lon="11.655417726682623"><ele>423.0</ele><time>2026-03-22T10:26:30.998Z</time></trkpt><trkpt lat="43.392912207360865" lon="11.655328175006604"><ele>423.0</ele><time>2026-03-22T10:26:32Z</time></trkpt><trkpt lat="43.392828603159124" lon="11.65524364672402"><ele>423.0</ele><time>2026-03-22T10:26:33Z</time></trkpt><trkpt lat="43.39274882169421" lon="11.65514450070329"><ele>423.4</ele><time>2026-03-22T10:26:34Z</time></trkpt><trkpt lat="43.39265701497484" lon="11.65506381560847"><ele>423.79999999999995</ele><time>2026-03-22T10:26:35Z</time></trkpt><trkpt lat="43.392577357372154" lon="11.654986751198301"><ele>424.2</ele><time>2026-03-22T10:26:36Z</time></trkpt><trkpt lat="43.39249178090341" lon="11.654922095431747"><ele>424.6</ele><time>2026-03-22T10:26:37Z</time></trkpt><trkpt lat="43.392395881418224" lon="11.654868067302719"><ele>425.0</ele><time>2026-03-22T10:26:38Z</time></trkpt><trkpt lat="43.392297448526065" lon="11.654841288038064"><ele>425.0</ele><time>2026-03-22T10:26:39Z</time></trkpt><trkpt lat="43.3921940422441" lon="11.654834013875744"><ele>425.0</ele><time>2026-03-22T10:26:40Z</time></trkpt><trkpt lat="43.39209431495257" lon="11.654840659877138"><ele>425.0</ele><time>2026-03-22T10:26:41Z</time></trkpt><trkpt lat="43.391988739139386" lon="11.654826126333715"><ele>425.0</ele><time>2026-03-22T10:26:42Z</time></trkpt><trkpt lat="43.39188165599404" lon="11.654846509049648"><ele>425.0</ele><time>2026-03-22T10:26:43Z</time></trkpt><trkpt lat="43.39177374127178" lon="11.654848297654762"><ele>423.2</ele><time>2026-03-22T10:26:44Z</time></trkpt><trkpt lat="43.391667101969" lon="11.654859176819604"><ele>421.4</ele><time>2026-03-22T10:26:45Z</time></trkpt><trkpt lat="43.39155793182148" lon="11.654871183705453"><ele>419.6</ele><time>2026-03-22T10:26:46Z</time></trkpt><trkpt lat="43.39144486146129" lon="11.654887119535305"><ele>417.8</ele><time>2026-03-22T10:26:47Z</time></trkpt><trkpt lat="43.39133264715806" lon="11.654894668027428"><ele>416.0</ele><time>2026-03-22T10:26:48Z</time></trkpt><trkpt lat="43.39121739005298" lon="11.65489557656317"><ele>414.75</ele><time>2026-03-22T10:26:49Z</time></trkpt><trkpt lat="43.39110433815442" lon="11.654891613775135"><ele>413.5</ele><time>2026-03-22T10:26:50Z</time></trkpt><trkpt lat="43.39098914824895" lon="11.654874688943575"><ele>412.25</ele><time>2026-03-22T10:26:51Z</time></trkpt><trkpt lat="43.39087427311397" lon="11.654854941875838"><ele>411.0</ele><time>2026-03-22T10:26:52Z</time></trkpt><trkpt lat="43.390757713592045" lon="11.654832811831854"><ele>411.0</ele><time>2026-03-22T10:26:53Z</time></trkpt><trkpt lat="43.39064693967421" lon="11.654822821063778"><ele>411.0</ele><time>2026-03-22T10:26:54Z</time></trkpt><trkpt lat="43.39052504147124" lon="11.654817329312635"><ele>411.0</ele><time>2026-03-22T10:26:55Z</time></trkpt><trkpt lat="43.390404707880926" lon="11.654844698986377"><ele>411.0</ele><time>2026-03-22T10:26:56Z</time></trkpt><trkpt lat="43.390292860742065" lon="11.65491579036117"><ele>411.25</ele><time>2026-03-22T10:26:57Z</time></trkpt><trkpt lat="43.39019125289516" lon="11.65499606375323"><ele>411.5</ele><time>2026-03-22T10:26:58Z</time></trkpt><trkpt lat="43.3900910878723" lon="11.655082116371833"><ele>411.75</ele><time>2026-03-22T10:26:59Z</time></trkpt><trkpt lat="43.38999427600802" lon="11.655165805669254"><ele>412.0</ele><time>2026-03-22T10:27:00Z</time></trkpt><trkpt lat="43.389897912808166" lon="11.655249107052493"><ele>409.20000000000005</ele><time>2026-03-22T10:27:01Z</time></trkpt><trkpt lat="43.389802004960664" lon="11.655332014837121"><ele>406.4</ele><time>2026-03-22T10:27:02Z</time></trkpt><trkpt lat="43.3897048388247" lon="11.655410634553506"><ele>403.6</ele><time>2026-03-22T10:27:03Z</time></trkpt><trkpt lat="43.38960629313518" lon="11.655474794214966"><ele>400.79999999999995</ele><time>2026-03-22T10:27:04Z</time></trkpt><trkpt lat="43.389499069766835" lon="11.655524789322277"><ele>398.0</ele><time>2026-03-22T10:27:05Z</time></trkpt><trkpt lat="43.389389350108445" lon="11.655566947339025"><ele>398.0</ele><time>2026-03-22T10:27:06Z</time></trkpt><trkpt lat="43.389277484081475" lon="11.655608751123243"><ele>398.0</ele><time>2026-03-22T10:27:07Z</time></trkpt><trkpt lat="43.38916899075282" lon="11.65564547072988"><ele>398.0</ele><time>2026-03-22T10:27:08Z</time></trkpt><trkpt lat="43.38905358643022" lon="11.655592075715687"><ele>398.0</ele><time>2026-03-22T10:27:09Z</time></trkpt><trkpt lat="43.388949130909076" lon="11.655488339905316"><ele>398.0</ele><time>2026-03-22T10:27:10Z</time></trkpt><trkpt lat="43.38889538610265" lon="11.655309139120646"><ele>398.0</ele><time>2026-03-22T10:27:11Z</time></trkpt><trkpt lat="43.388855815827014" lon="11.655154209317939"><ele>398.0</ele><time>2026-03-22T10:27:12Z</time></trkpt><trkpt lat="43.38881257192511" lon="11.655026423509323"><ele>398.0</ele><time>2026-03-22T10:27:12.999Z</time></trkpt><trkpt lat="43.38875663163868" lon="11.654954795391028"><ele>398.0</ele><time>2026-03-22T10:27:13.999Z</time></trkpt><trkpt lat="43.38867296637829" lon="11.654927975191942"><ele>397.5</ele><time>2026-03-22T10:27:14.999Z</time></trkpt><trkpt lat="43.388565200244294" lon="11.65500874867308"><ele>397.0</ele><time>2026-03-22T10:27:15.999Z</time></trkpt><trkpt lat="43.38849160393886" lon="11.655156032933727"><ele>396.5</ele><time>2026-03-22T10:27:16.999Z</time></trkpt><trkpt lat="43.3884432303407" lon="11.655289927061082"><ele>396.0</ele><time>2026-03-22T10:27:17.999Z</time></trkpt><trkpt lat="43.38840246878753" lon="11.655413739613362"><ele>396.0</ele><time>2026-03-22T10:27:18.999Z</time></trkpt><trkpt lat="43.388363481045836" lon="11.655534155280087"><ele>396.0</ele><time>2026-03-22T10:27:19.999Z</time></trkpt><trkpt lat="43.38832657761115" lon="11.655647666212142"><ele>396.0</ele><time>2026-03-22T10:27:20.999Z</time></trkpt><trkpt lat="43.3882785443791" lon="11.655770193972062"><ele>396.0</ele><time>2026-03-22T10:27:21.999Z</time></trkpt><trkpt lat="43.38822533932132" lon="11.655870664665324"><ele>396.0</ele><time>2026-03-22T10:27:22.999Z</time></trkpt><trkpt lat="43.38816401699629" lon="11.65595613158576"><ele>396.0</ele><time>2026-03-22T10:27:23.999Z</time></trkpt><trkpt lat="43.388091298912734" lon="11.656026012071806"><ele>396.0</ele><time>2026-03-22T10:27:24.999Z</time></trkpt><trkpt lat="43.38800214249363" lon="11.656086588374464"><ele>396.0</ele><time>2026-03-22T10:27:25.999Z</time></trkpt><trkpt lat="43.387908237775434" lon="11.656130761431319"><ele>396.0</ele><time>2026-03-22T10:27:26.999Z</time></trkpt><trkpt lat="43.38780752062123" lon="11.656169839254552"><ele>396.0</ele><time>2026-03-22T10:27:27.999Z</time></trkpt><trkpt lat="43.38770508912846" lon="11.656223004231828"><ele>396.20000000000005</ele><time>2026-03-22T10:27:28.999Z</time></trkpt><trkpt lat="43.38759319381274" lon="11.65622238369084"><ele>396.40000000000003</ele><time>2026-03-22T10:27:29.999Z</time></trkpt><trkpt lat="43.387486396421586" lon="11.656186221322178"><ele>396.6</ele><time>2026-03-22T10:27:30.999Z</time></trkpt><trkpt lat="43.387381836279324" lon="11.656124685431141"><ele>396.8</ele><time>2026-03-22T10:27:31.999Z</time></trkpt><trkpt lat="43.38728158501901" lon="11.656050566961314"><ele>397.0</ele><time>2026-03-22T10:27:32.999Z</time></trkpt><trkpt lat="43.387177639968314" lon="11.655984326481107"><ele>395.25</ele><time>2026-03-22T10:27:33.999Z</time></trkpt><trkpt lat="43.38707329371709" lon="11.65591616453211"><ele>393.5</ele><time>2026-03-22T10:27:34.999Z</time></trkpt><trkpt lat="43.386969261384486" lon="11.655851400866455"><ele>391.75</ele><time>2026-03-22T10:27:35.999Z</time></trkpt><trkpt lat="43.38685827772147" lon="11.655808688601626"><ele>390.0</ele><time>2026-03-22T10:27:36.999Z</time></trkpt><trkpt lat="43.386739554002155" lon="11.655821276642968"><ele>390.0</ele><time>2026-03-22T10:27:37.999Z</time></trkpt><trkpt lat="43.38662038824567" lon="11.655834503562938"><ele>390.0</ele><time>2026-03-22T10:27:38.999Z</time></trkpt><trkpt lat="43.38650972092702" lon="11.65588179724147"><ele>390.0</ele><time>2026-03-22T10:27:39.999Z</time></trkpt><trkpt lat="43.386409100843004" lon="11.655916838320401"><ele>390.0</ele><time>2026-03-22T10:27:40.999Z</time></trkpt><trkpt lat="43.386300935461264" lon="11.655939273222861"><ele>390.0</ele><time>2026-03-22T10:27:41.999Z</time></trkpt><trkpt lat="43.38618661509039" lon="11.655939465924119"><ele>388.5</ele><time>2026-03-22T10:27:42.999Z</time></trkpt><trkpt lat="43.38607072487504" lon="11.655925033418368"><ele>387.0</ele><time>2026-03-22T10:27:43.999Z</time></trkpt><trkpt lat="43.385957304603515" lon="11.655912654300081"><ele>385.5</ele><time>2026-03-22T10:27:44.999Z</time></trkpt><trkpt lat="43.385841056291525" lon="11.655902514938171"><ele>384.0</ele><time>2026-03-22T10:27:45.999Z</time></trkpt><trkpt lat="43.38572563711169" lon="11.655901474809111"><ele>384.0</ele><time>2026-03-22T10:27:46.999Z</time></trkpt><trkpt lat="43.385608988379076" lon="11.655899242333245"><ele>384.0</ele><time>2026-03-22T10:27:47.999Z</time></trkpt><trkpt lat="43.38549090833178" lon="11.655895723700153"><ele>384.0</ele><time>2026-03-22T10:27:48.999Z</time></trkpt><trkpt lat="43.38537467340462" lon="11.655892486496777"><ele>384.0</ele><time>2026-03-22T10:27:49.999Z</time></trkpt><trkpt lat="43.38525845799894" lon="11.655871961422559"><ele>381.75</ele><time>2026-03-22T10:27:50.999Z</time></trkpt><trkpt lat="43.38514056373948" lon="11.655827459267567"><ele>379.5</ele><time>2026-03-22T10:27:51.999Z</time></trkpt><trkpt lat="43.3850226556556" lon="11.655765080856193"><ele>377.25</ele><time>2026-03-22T10:27:52.999Z</time></trkpt><trkpt lat="43.3849320122959" lon="11.655639924694974"><ele>375.0</ele><time>2026-03-22T10:27:53.999Z</time></trkpt><trkpt lat="43.38486129354869" lon="11.655516494466056"><ele>375.0</ele><time>2026-03-22T10:27:54.999Z</time></trkpt><trkpt lat="43.38480048728751" lon="11.65539502925754"><ele>375.0</ele><time>2026-03-22T10:27:55.999Z</time></trkpt><trkpt lat="43.38474018550395" lon="11.655271047257301"><ele>375.0</ele><time>2026-03-22T10:27:56.999Z</time></trkpt><trkpt lat="43.3846814726235" lon="11.655145722109191"><ele>375.0</ele><time>2026-03-22T10:27:57.999Z</time></trkpt><trkpt lat="43.38461778071485" lon="11.655008630723675"><ele>375.0</ele><time>2026-03-22T10:27:58.999Z</time></trkpt><trkpt lat="43.384555601400514" lon="11.654874795062057"><ele>373.6</ele><time>2026-03-22T10:27:59.999Z</time></trkpt><trkpt lat="43.38449471759392" lon="11.654750259086935"><ele>372.2</ele><time>2026-03-22T10:28:00.999Z</time></trkpt><trkpt lat="43.38442858454892" lon="11.654638719958129"><ele>370.79999999999995</ele><time>2026-03-22T10:28:01.999Z</time></trkpt><trkpt lat="43.38433464371086" lon="11.654571931840252"><ele>369.4</ele><time>2026-03-22T10:28:02.998Z</time></trkpt><trkpt lat="43.38421361700923" lon="11.654611988449105"><ele>368.0</ele><time>2026-03-22T10:28:03.998Z</time></trkpt><trkpt lat="43.38410062902363" lon="11.654684777557696"><ele>368.0</ele><time>2026-03-22T10:28:04.998Z</time></trkpt><trkpt lat="43.38400537103897" lon="11.654778639784446"><ele>368.0</ele><time>2026-03-22T10:28:05.998Z</time></trkpt><trkpt lat="43.38391833874487" lon="11.654864325124757"><ele>368.0</ele><time>2026-03-22T10:28:06.998Z</time></trkpt><trkpt lat="43.38383290960574" lon="11.654948432122081"><ele>368.0</ele><time>2026-03-22T10:28:07.998Z</time></trkpt><trkpt lat="43.383747855235384" lon="11.655032170151273"><ele>368.0</ele><time>2026-03-22T10:28:08.998Z</time></trkpt><trkpt lat="43.383664842770614" lon="11.65511389787524"><ele>369.4</ele><time>2026-03-22T10:28:09.998Z</time></trkpt><trkpt lat="43.383581966256095" lon="11.655195491752465"><ele>370.79999999999995</ele><time>2026-03-22T10:28:10.998Z</time></trkpt><trkpt lat="43.383500419438214" lon="11.655280649063128"><ele>372.2</ele><time>2026-03-22T10:28:11.998Z</time></trkpt><trkpt lat="43.383419300721016" lon="11.655373398403237"><ele>373.6</ele><time>2026-03-22T10:28:12.998Z</time></trkpt><trkpt lat="43.38334989293564" lon="11.655493555552596"><ele>375.0</ele><time>2026-03-22T10:28:13.998Z</time></trkpt><trkpt lat="43.38334483298212" lon="11.655698631336367"><ele>372.0</ele><time>2026-03-22T10:28:14.998Z</time></trkpt><trkpt lat="43.38333777308054" lon="11.655837806200422"><ele>369.0</ele><time>2026-03-22T10:28:15.998Z</time></trkpt><trkpt lat="43.383307331109016" lon="11.655939599865707"><ele>366.0</ele><time>2026-03-22T10:28:16.998Z</time></trkpt><trkpt lat="43.38324480528409" lon="11.656001432681585"><ele>363.0</ele><time>2026-03-22T10:28:17.998Z</time></trkpt><trkpt lat="43.38314416217807" lon="11.656006741414082"><ele>360.0</ele><time>2026-03-22T10:28:18.998Z</time></trkpt><trkpt lat="43.38304006916062" lon="11.65598307740115"><ele>361.6</ele><time>2026-03-22T10:28:19.998Z</time></trkpt><trkpt lat="43.38294774744894" lon="11.655946183880008"><ele>363.2</ele><time>2026-03-22T10:28:20.998Z</time></trkpt><trkpt lat="43.38284264796183" lon="11.655936426710868"><ele>364.79999999999995</ele><time>2026-03-22T10:28:21.998Z</time></trkpt><trkpt lat="43.382740068753606" lon="11.655920505197939"><ele>366.4</ele><time>2026-03-22T10:28:22.998Z</time></trkpt><trkpt lat="43.382632215898646" lon="11.655939110450928"><ele>368.0</ele><time>2026-03-22T10:28:23.998Z</time></trkpt><trkpt lat="43.38252847540256" lon="11.655959427442472"><ele>368.0</ele><time>2026-03-22T10:28:24.998Z</time></trkpt><trkpt lat="43.38242257056867" lon="11.655979901004997"><ele>368.0</ele><time>2026-03-22T10:28:25.998Z</time></trkpt><trkpt lat="43.38231697836513" lon="11.655998064095677"><ele>368.0</ele><time>2026-03-22T10:28:26.998Z</time></trkpt><trkpt lat="43.38221439880458" lon="11.656015922063157"><ele>368.0</ele><time>2026-03-22T10:28:27.998Z</time></trkpt><trkpt lat="43.38210741872061" lon="11.65603479877308"><ele>368.0</ele><time>2026-03-22T10:28:28.998Z</time></trkpt><trkpt lat="43.38200200626565" lon="11.656053398878887"><ele>367.79999999999995</ele><time>2026-03-22T10:28:29.998Z</time></trkpt><trkpt lat="43.38189702762765" lon="11.656086363307983"><ele>367.6</ele><time>2026-03-22T10:28:30.998Z</time></trkpt><trkpt lat="43.381790248169175" lon="11.656070621079591"><ele>367.4</ele><time>2026-03-22T10:28:31.998Z</time></trkpt><trkpt lat="43.381691454088205" lon="11.6560258843372"><ele>367.20000000000005</ele><time>2026-03-22T10:28:32.998Z</time></trkpt><trkpt lat="43.38160064197792" lon="11.655956883212337"><ele>367.0</ele><time>2026-03-22T10:28:33.998Z</time></trkpt><trkpt lat="43.38150943806598" lon="11.655902596935242"><ele>367.0</ele><time>2026-03-22T10:28:34.998Z</time></trkpt><trkpt lat="43.381412218697214" lon="11.65586142010997"><ele>367.0</ele><time>2026-03-22T10:28:35.998Z</time></trkpt><trkpt lat="43.38130226666922" lon="11.655831089666796"><ele>367.0</ele><time>2026-03-22T10:28:36.998Z</time></trkpt><trkpt lat="43.38120194771885" lon="11.655817273487846"><ele>367.0</ele><time>2026-03-22T10:28:38Z</time></trkpt><trkpt lat="43.38110382569" lon="11.655807513478951"><ele>367.0</ele><time>2026-03-22T10:28:39Z</time></trkpt><trkpt lat="43.381004426925934" lon="11.655782212676836"><ele>363.8</ele><time>2026-03-22T10:28:40Z</time></trkpt><trkpt lat="43.38090210130601" lon="11.655737633735736"><ele>360.6</ele><time>2026-03-22T10:28:41Z</time></trkpt><trkpt lat="43.38081297292134" lon="11.655672011582707"><ele>357.40000000000003</ele><time>2026-03-22T10:28:42Z</time></trkpt><trkpt lat="43.38070736030974" lon="11.655618102856346"><ele>354.20000000000005</ele><time>2026-03-22T10:28:43Z</time></trkpt><trkpt lat="43.38062158087629" lon="11.655538790313917"><ele>351.0</ele><time>2026-03-22T10:28:44Z</time></trkpt><trkpt lat="43.38053634940504" lon="11.655442317912138"><ele>351.0</ele><time>2026-03-22T10:28:45Z</time></trkpt><trkpt lat="43.38045317768639" lon="11.655348390979492"><ele>351.0</ele><time>2026-03-22T10:28:46Z</time></trkpt><trkpt lat="43.38036460508153" lon="11.655261499068683"><ele>351.0</ele><time>2026-03-22T10:28:47Z</time></trkpt><trkpt lat="43.38027550376941" lon="11.655178917356125"><ele>351.0</ele><time>2026-03-22T10:28:48Z</time></trkpt><trkpt lat="43.38018573688833" lon="11.655095718796561"><ele>351.0</ele><time>2026-03-22T10:28:49Z</time></trkpt><trkpt lat="43.380094461297226" lon="11.655011121878019"><ele>351.0</ele><time>2026-03-22T10:28:50Z</time></trkpt><trkpt lat="43.38000072805766" lon="11.65492424718749"><ele>351.0</ele><time>2026-03-22T10:28:51Z</time></trkpt><trkpt lat="43.37991026266557" lon="11.654840401195445"><ele>351.0</ele><time>2026-03-22T10:28:52Z</time></trkpt><trkpt lat="43.379821590258025" lon="11.654759547952214"><ele>351.0</ele><time>2026-03-22T10:28:53Z</time></trkpt><trkpt lat="43.37973073175481" lon="11.654680338297755"><ele>351.0</ele><time>2026-03-22T10:28:54Z</time></trkpt><trkpt lat="43.37964095449449" lon="11.65460323240927"><ele>350.0</ele><time>2026-03-22T10:28:55Z</time></trkpt><trkpt lat="43.379547676530464" lon="11.654517673074082"><ele>349.0</ele><time>2026-03-22T10:28:56Z</time></trkpt><trkpt lat="43.379457198883266" lon="11.654430898387295"><ele>348.0</ele><time>2026-03-22T10:28:57Z</time></trkpt><trkpt lat="43.379373669825924" lon="11.654350787941766"><ele>347.0</ele><time>2026-03-22T10:28:58Z</time></trkpt><trkpt lat="43.37928981768423" lon="11.654272978623663"><ele>346.0</ele><time>2026-03-22T10:28:59Z</time></trkpt><trkpt lat="43.37920323755701" lon="11.65419510292232"><ele>346.0</ele><time>2026-03-22T10:29:00Z</time></trkpt><trkpt lat="43.37912097346392" lon="11.654106367190431"><ele>346.0</ele><time>2026-03-22T10:29:01Z</time></trkpt><trkpt lat="43.37903232171864" lon="11.65403961270044"><ele>346.0</ele><time>2026-03-22T10:29:02Z</time></trkpt><trkpt lat="43.378943359452514" lon="11.653974657014913"><ele>346.0</ele><time>2026-03-22T10:29:03Z</time></trkpt><trkpt lat="43.37885237609309" lon="11.653912682829276"><ele>346.0</ele><time>2026-03-22T10:29:04Z</time></trkpt><trkpt lat="43.378762705581174" lon="11.653849275802099"><ele>343.4</ele><time>2026-03-22T10:29:05Z</time></trkpt><trkpt lat="43.37867283316232" lon="11.653782930456845"><ele>340.8</ele><time>2026-03-22T10:29:06Z</time></trkpt><trkpt lat="43.378563140804346" lon="11.653720824215787"><ele>338.2</ele><time>2026-03-22T10:29:07Z</time></trkpt><trkpt lat="43.378474115058864" lon="11.653681513909032"><ele>335.59999999999997</ele><time>2026-03-22T10:29:08Z</time></trkpt><trkpt lat="43.378370674827984" lon="11.653656593268712"><ele>333.0</ele><time>2026-03-22T10:29:09Z</time></trkpt><trkpt lat="43.37826973585091" lon="11.653642688585412"><ele>333.0</ele><time>2026-03-22T10:29:10Z</time></trkpt><trkpt lat="43.37817393547352" lon="11.65364041337794"><ele>333.0</ele><time>2026-03-22T10:29:11Z</time></trkpt><trkpt lat="43.378081925646356" lon="11.653641703359977"><ele>333.0</ele><time>2026-03-22T10:29:12Z</time></trkpt><trkpt lat="43.37799493614455" lon="11.65362079258395"><ele>333.0</ele><time>2026-03-22T10:29:13Z</time></trkpt><trkpt lat="43.377913417358926" lon="11.65362614246089"><ele>333.0</ele><time>2026-03-22T10:29:14Z</time></trkpt><trkpt lat="43.37783353998134" lon="11.653647235660308"><ele>333.0</ele><time>2026-03-22T10:29:15Z</time></trkpt><trkpt lat="43.37775989087339" lon="11.653678882695802"><ele>333.8333333333333</ele><time>2026-03-22T10:29:16Z</time></trkpt><trkpt lat="43.37768996467836" lon="11.653717238120953"><ele>334.6666666666667</ele><time>2026-03-22T10:29:17Z</time></trkpt><trkpt lat="43.37762170700665" lon="11.653765553446943"><ele>335.5</ele><time>2026-03-22T10:29:18Z</time></trkpt><trkpt lat="43.37755998940146" lon="11.653822415015568"><ele>336.33333333333337</ele><time>2026-03-22T10:29:19Z</time></trkpt><trkpt lat="43.377501818670176" lon="11.65388526762182"><ele>337.1666666666667</ele><time>2026-03-22T10:29:19.999Z</time></trkpt><trkpt lat="43.3774485039382" lon="11.653957934956711"><ele>338.0</ele><time>2026-03-22T10:29:20.999Z</time></trkpt><trkpt lat="43.377400311619965" lon="11.6540368023187"><ele>338.0</ele><time>2026-03-22T10:29:21.999Z</time></trkpt><trkpt lat="43.377358924714315" lon="11.654112687910539"><ele>338.0</ele><time>2026-03-22T10:29:22.999Z</time></trkpt><trkpt lat="43.377318008041634" lon="11.654188765119502"><ele>338.0</ele><time>2026-03-22T10:29:23.999Z</time></trkpt><trkpt lat="43.37727598502437" lon="11.654266899385087"><ele>338.0</ele><time>2026-03-22T10:29:24.999Z</time></trkpt><trkpt lat="43.377235196632306" lon="11.654341616056467"><ele>338.0</ele><time>2026-03-22T10:29:25.999Z</time></trkpt><trkpt lat="43.377192672628695" lon="11.654409397016996"><ele>338.0</ele><time>2026-03-22T10:29:26.999Z</time></trkpt><trkpt lat="43.37714669532618" lon="11.654472896251455"><ele>338.0</ele><time>2026-03-22T10:29:27.999Z</time></trkpt><trkpt lat="43.37709442563987" lon="11.654536718389306"><ele>339.14285714285717</ele><time>2026-03-22T10:29:28.999Z</time></trkpt><trkpt lat="43.37704220503932" lon="11.65459793460097"><ele>340.2857142857143</ele><time>2026-03-22T10:29:29.999Z</time></trkpt><trkpt lat="43.37698826012766" lon="11.654656785834048"><ele>341.42857142857144</ele><time>2026-03-22T10:29:30.999Z</time></trkpt><trkpt lat="43.37693199824661" lon="11.65471469684917"><ele>342.57142857142856</ele><time>2026-03-22T10:29:31.999Z</time></trkpt><trkpt lat="43.376874730732204" lon="11.654773642885116"><ele>343.7142857142857</ele><time>2026-03-22T10:29:32.999Z</time></trkpt><trkpt lat="43.37681959395392" lon="11.654831506344923"><ele>344.85714285714283</ele><time>2026-03-22T10:29:33.999Z</time></trkpt><trkpt lat="43.37676231666714" lon="11.654891853365"><ele>346.0</ele><time>2026-03-22T10:29:34.999Z</time></trkpt><trkpt lat="43.376706496173746" lon="11.654950665500904"><ele>346.0</ele><time>2026-03-22T10:29:35.999Z</time></trkpt><trkpt lat="43.37664910567644" lon="11.65501113177473"><ele>346.0</ele><time>2026-03-22T10:29:36.999Z</time></trkpt><trkpt lat="43.37659653549206" lon="11.655066519410303"><ele>346.0</ele><time>2026-03-22T10:29:37.999Z</time></trkpt><trkpt lat="43.376538735978805" lon="11.65512741665945"><ele>346.0</ele><time>2026-03-22T10:29:38.999Z</time></trkpt><trkpt lat="43.37648117615416" lon="11.655188061365886"><ele>346.0</ele><time>2026-03-22T10:29:39.999Z</time></trkpt><trkpt lat="43.37642628683393" lon="11.655245892429914"><ele>346.0</ele><time>2026-03-22T10:29:40.999Z</time></trkpt><trkpt lat="43.37636852504959" lon="11.655306751174502"><ele>346.0</ele><time>2026-03-22T10:29:41.999Z</time></trkpt><trkpt lat="43.37631373167385" lon="11.655364481279111"><ele>345.7142857142857</ele><time>2026-03-22T10:29:42.999Z</time></trkpt><trkpt lat="43.3762675530297" lon="11.655441366120595"><ele>345.42857142857144</ele><time>2026-03-22T10:29:43.999Z</time></trkpt><trkpt lat="43.376204939218724" lon="11.655506194361664"><ele>345.14285714285717</ele><time>2026-03-22T10:29:44.999Z</time></trkpt><trkpt lat="43.37614397030055" lon="11.65556913535649"><ele>344.8571428571429</ele><time>2026-03-22T10:29:45.999Z</time></trkpt><trkpt lat="43.376079666564245" lon="11.65561517951827"><ele>344.57142857142856</ele><time>2026-03-22T10:29:46.999Z</time></trkpt><trkpt lat="43.37602141463195" lon="11.65567807322778"><ele>344.28571428571433</ele><time>2026-03-22T10:29:47.999Z</time></trkpt><trkpt lat="43.37596455528556" lon="11.655741068864081"><ele>344.0</ele><time>2026-03-22T10:29:48.999Z</time></trkpt><trkpt lat="43.37590906448464" lon="11.655805934163554"><ele>344.00000000000006</ele><time>2026-03-22T10:29:49.999Z</time></trkpt><trkpt lat="43.37585443400347" lon="11.655869793837823"><ele>344.0</ele><time>2026-03-22T10:29:50.999Z</time></trkpt><trkpt lat="43.37579938782911" lon="11.655934139401788"><ele>344.0</ele><time>2026-03-22T10:29:51.999Z</time></trkpt><trkpt lat="43.37574487239889" lon="11.6559978645729"><ele>344.0</ele><time>2026-03-22T10:29:52.999Z</time></trkpt><trkpt lat="43.37569058983069" lon="11.65606226390049"><ele>344.0</ele><time>2026-03-22T10:29:53.999Z</time></trkpt><trkpt lat="43.375637930958746" lon="11.656127529435523"><ele>344.00000000000006</ele><time>2026-03-22T10:29:54.999Z</time></trkpt><trkpt lat="43.37559260343985" lon="11.656210671735593"><ele>344.0</ele><time>2026-03-22T10:29:55.999Z</time></trkpt><trkpt lat="43.3755262149928" lon="11.656259674958534"><ele>342.5</ele><time>2026-03-22T10:29:56.999Z</time></trkpt><trkpt lat="43.375477365893865" lon="11.656340095524785"><ele>341.0</ele><time>2026-03-22T10:29:57.999Z</time></trkpt><trkpt lat="43.37541180342346" lon="11.656376099930672"><ele>339.5</ele><time>2026-03-22T10:29:58.999Z</time></trkpt><trkpt lat="43.37535230047469" lon="11.656448643045023"><ele>338.0</ele><time>2026-03-22T10:29:59.999Z</time></trkpt><trkpt lat="43.37528049417568" lon="11.656494015134495"><ele>336.5</ele><time>2026-03-22T10:30:00.999Z</time></trkpt><trkpt lat="43.37520787281131" lon="11.656550499259765"><ele>335.0</ele><time>2026-03-22T10:30:01.999Z</time></trkpt><trkpt lat="43.37513947842748" lon="11.656596779307693"><ele>335.0</ele><time>2026-03-22T10:30:02.999Z</time></trkpt><trkpt lat="43.37507377067833" lon="11.656647973152227"><ele>335.0</ele><time>2026-03-22T10:30:03.999Z</time></trkpt><trkpt lat="43.37501226160115" lon="11.656692155784716"><ele>335.0</ele><time>2026-03-22T10:30:04.999Z</time></trkpt><trkpt lat="43.37494159043923" lon="11.656739852411869"><ele>335.0</ele><time>2026-03-22T10:30:05.999Z</time></trkpt><trkpt lat="43.37487224960396" lon="11.656782948489779"><ele>335.0</ele><time>2026-03-22T10:30:06.999Z</time></trkpt><trkpt lat="43.374803025571126" lon="11.65681934066073"><ele>335.0</ele><time>2026-03-22T10:30:07.999Z</time></trkpt><trkpt lat="43.37473148150518" lon="11.656860278951715"><ele>336.1428571428571</ele><time>2026-03-22T10:30:08.998Z</time></trkpt><trkpt lat="43.374656353610575" lon="11.65688997006052"><ele>337.2857142857143</ele><time>2026-03-22T10:30:09.998Z</time></trkpt><trkpt lat="43.37458858209808" lon="11.656905338253233"><ele>338.42857142857144</ele><time>2026-03-22T10:30:10.998Z</time></trkpt><trkpt lat="43.374517176431695" lon="11.656921168098107"><ele>339.57142857142856</ele><time>2026-03-22T10:30:11.998Z</time></trkpt><trkpt lat="43.37444693943361" lon="11.65695113260049"><ele>340.7142857142857</ele><time>2026-03-22T10:30:12.998Z</time></trkpt><trkpt lat="43.37437906262158" lon="11.656977543701585"><ele>341.85714285714283</ele><time>2026-03-22T10:30:13.998Z</time></trkpt><trkpt lat="43.374313610299964" lon="11.65701185389656"><ele>343.0</ele><time>2026-03-22T10:30:14.998Z</time></trkpt><trkpt lat="43.37424264489073" lon="11.657036524680981"><ele>342.0</ele><time>2026-03-22T10:30:15.998Z</time></trkpt><trkpt lat="43.374180077645526" lon="11.657079147354228"><ele>341.0</ele><time>2026-03-22T10:30:16.998Z</time></trkpt><trkpt lat="43.37411618270909" lon="11.657131231388599"><ele>340.0</ele><time>2026-03-22T10:30:17.998Z</time></trkpt><trkpt lat="43.37405986437037" lon="11.657187388329822"><ele>339.0</ele><time>2026-03-22T10:30:18.998Z</time></trkpt><trkpt lat="43.374001888196" lon="11.65724758088358"><ele>338.0</ele><time>2026-03-22T10:30:19.998Z</time></trkpt><trkpt lat="43.37394899103788" lon="11.657303664443743"><ele>337.0</ele><time>2026-03-22T10:30:20.998Z</time></trkpt><trkpt lat="43.373839700129544" lon="11.657413433657089"><ele>337.0</ele><time>2026-03-22T10:30:22.998Z</time></trkpt><trkpt lat="43.373785470562105" lon="11.657478815703389"><ele>337.0</ele><time>2026-03-22T10:30:23.998Z</time></trkpt><trkpt lat="43.37372631212553" lon="11.657520781325964"><ele>337.0</ele><time>2026-03-22T10:30:24.998Z</time></trkpt><trkpt lat="43.373662384455706" lon="11.657558896399745"><ele>337.0</ele><time>2026-03-22T10:30:25.998Z</time></trkpt><trkpt lat="43.37359597529499" lon="11.657571901694233"><ele>337.0</ele><time>2026-03-22T10:30:26.998Z</time></trkpt><trkpt lat="43.373531156171794" lon="11.657604085696248"><ele>337.0</ele><time>2026-03-22T10:30:27.998Z</time></trkpt><trkpt lat="43.37341217487652" lon="11.65768212472585"><ele>337.00000000000006</ele><time>2026-03-22T10:30:29.998Z</time></trkpt><trkpt lat="43.373354579488435" lon="11.657734917003143"><ele>337.0</ele><time>2026-03-22T10:30:30.998Z</time></trkpt><trkpt lat="43.37330288239991" lon="11.657792848535344"><ele>337.0</ele><time>2026-03-22T10:30:31.998Z</time></trkpt><trkpt lat="43.37325016400266" lon="11.657862905885318"><ele>337.0</ele><time>2026-03-22T10:30:32.998Z</time></trkpt><trkpt lat="43.37319754096384" lon="11.657937755586302"><ele>337.0</ele><time>2026-03-22T10:30:33.998Z</time></trkpt><trkpt lat="43.373146296170574" lon="11.658017926817092"><ele>337.00000000000006</ele><time>2026-03-22T10:30:34.998Z</time></trkpt><trkpt lat="43.37309683170245" lon="11.658095731420525"><ele>337.0</ele><time>2026-03-22T10:30:35.998Z</time></trkpt><trkpt lat="43.37304519906807" lon="11.658176947077996"><ele>334.8333333333333</ele><time>2026-03-22T10:30:36.998Z</time></trkpt><trkpt lat="43.37299293543111" lon="11.658259155272658"><ele>332.66666666666663</ele><time>2026-03-22T10:30:37.998Z</time></trkpt><trkpt lat="43.37293903031944" lon="11.658343945424676"><ele>330.5</ele><time>2026-03-22T10:30:38.998Z</time></trkpt><trkpt lat="43.372895767795725" lon="11.658444891677622"><ele>328.3333333333333</ele><time>2026-03-22T10:30:39.998Z</time></trkpt><trkpt lat="43.372822223098204" lon="11.658502800103625"><ele>326.1666666666667</ele><time>2026-03-22T10:30:40.998Z</time></trkpt><trkpt lat="43.37273466263799" lon="11.65852789482811"><ele>324.0</ele><time>2026-03-22T10:30:41.998Z</time></trkpt><trkpt lat="43.372644573053485" lon="11.658529426402366"><ele>324.0</ele><time>2026-03-22T10:30:42.998Z</time></trkpt><trkpt lat="43.372555032879376" lon="11.65850876156658"><ele>324.0</ele><time>2026-03-22T10:30:44Z</time></trkpt><trkpt lat="43.372469639615865" lon="11.658471843185582"><ele>324.0</ele><time>2026-03-22T10:30:45Z</time></trkpt><trkpt lat="43.37238505201564" lon="11.658435205522094"><ele>324.0</ele><time>2026-03-22T10:30:46Z</time></trkpt><trkpt lat="43.37230394403069" lon="11.65839506726941"><ele>324.0</ele><time>2026-03-22T10:30:47Z</time></trkpt><trkpt lat="43.37222328270345" lon="11.658351981740838"><ele>324.0</ele><time>2026-03-22T10:30:48Z</time></trkpt><trkpt lat="43.3721444680864" lon="11.658315220549731"><ele>323.3333333333333</ele><time>2026-03-22T10:30:49Z</time></trkpt><trkpt lat="43.37206576029662" lon="11.658277377439012"><ele>322.6666666666667</ele><time>2026-03-22T10:30:50Z</time></trkpt><trkpt lat="43.37198489970216" lon="11.658239010024031"><ele>322.0</ele><time>2026-03-22T10:30:51Z</time></trkpt><trkpt lat="43.37190982319589" lon="11.658201493559625"><ele>321.33333333333337</ele><time>2026-03-22T10:30:52Z</time></trkpt><trkpt lat="43.37182878239112" lon="11.658163303815549"><ele>320.6666666666667</ele><time>2026-03-22T10:30:53Z</time></trkpt><trkpt lat="43.371755753138544" lon="11.658132287644312"><ele>320.0</ele><time>2026-03-22T10:30:54Z</time></trkpt><trkpt lat="43.37169033333289" lon="11.658094127061373"><ele>320.0</ele><time>2026-03-22T10:30:55Z</time></trkpt><trkpt lat="43.37162384876152" lon="11.658062540138863"><ele>320.0</ele><time>2026-03-22T10:30:56Z</time></trkpt><trkpt lat="43.371556811729675" lon="11.658044653430634"><ele>320.0</ele><time>2026-03-22T10:30:57Z</time></trkpt><trkpt lat="43.37148712443099" lon="11.658043175351343"><ele>320.0</ele><time>2026-03-22T10:30:58Z</time></trkpt><trkpt lat="43.371421781630126" lon="11.65805396220907"><ele>320.0</ele><time>2026-03-22T10:30:59Z</time></trkpt><trkpt lat="43.371364162538164" lon="11.658089464394925"><ele>320.0</ele><time>2026-03-22T10:31:00Z</time></trkpt><trkpt lat="43.37130956149373" lon="11.658152486926838"><ele>320.0</ele><time>2026-03-22T10:31:01Z</time></trkpt><trkpt lat="43.37124858731457" lon="11.658208787003488"><ele>320.1666666666667</ele><time>2026-03-22T10:31:02Z</time></trkpt><trkpt lat="43.37119549808157" lon="11.658258559070621"><ele>320.33333333333337</ele><time>2026-03-22T10:31:03Z</time></trkpt><trkpt lat="43.37114061006631" lon="11.65830296390252"><ele>320.5</ele><time>2026-03-22T10:31:04Z</time></trkpt><trkpt lat="43.37104400751597" lon="11.658406872336553"><ele>320.6666666666667</ele><time>2026-03-22T10:31:06Z</time></trkpt><trkpt lat="43.37099419262444" lon="11.658469223404287"><ele>320.8333333333333</ele><time>2026-03-22T10:31:07Z</time></trkpt><trkpt lat="43.3709452457724" lon="11.658533378936633"><ele>321.0</ele><time>2026-03-22T10:31:08Z</time></trkpt><trkpt lat="43.370865075512405" lon="11.658668278457055"><ele>320.99999999999994</ele><time>2026-03-22T10:31:10Z</time></trkpt><trkpt lat="43.37082278455728" lon="11.658732920442182"><ele>321.0</ele><time>2026-03-22T10:31:11Z</time></trkpt><trkpt lat="43.37077714531591" lon="11.65880323482872"><ele>321.0</ele><time>2026-03-22T10:31:12Z</time></trkpt><trkpt lat="43.37073459808933" lon="11.658868228083692"><ele>321.0</ele><time>2026-03-22T10:31:13Z</time></trkpt><trkpt lat="43.370688190283744" lon="11.658927947211948"><ele>321.0</ele><time>2026-03-22T10:31:14Z</time></trkpt><trkpt lat="43.37063996490658" lon="11.658988401548863"><ele>320.99999999999994</ele><time>2026-03-22T10:31:15Z</time></trkpt><trkpt lat="43.370585893591695" lon="11.65904154459677"><ele>321.0</ele><time>2026-03-22T10:31:16Z</time></trkpt><trkpt lat="43.370483536251704" lon="11.659137083166602"><ele>320.40000000000003</ele><time>2026-03-22T10:31:17.999Z</time></trkpt><trkpt lat="43.37037569702332" lon="11.659224937412608"><ele>319.8</ele><time>2026-03-22T10:31:19.999Z</time></trkpt><trkpt lat="43.37027673763964" lon="11.659300483815212"><ele>319.20000000000005</ele><time>2026-03-22T10:31:21.999Z</time></trkpt><trkpt lat="43.37022133411075" lon="11.659344424028426"><ele>318.6</ele><time>2026-03-22T10:31:22.999Z</time></trkpt><trkpt lat="43.37012055990711" lon="11.6594257569191"><ele>318.0</ele><time>2026-03-22T10:31:24.999Z</time></trkpt><trkpt lat="43.37003168875483" lon="11.65953750213373"><ele>318.0</ele><time>2026-03-22T10:31:26.999Z</time></trkpt><trkpt lat="43.36995211253159" lon="11.65966600082"><ele>318.0</ele><time>2026-03-22T10:31:28.999Z</time></trkpt><trkpt lat="43.36987728265733" lon="11.659795436421472"><ele>318.0</ele><time>2026-03-22T10:31:30.999Z</time></trkpt><trkpt lat="43.36981891667372" lon="11.659926726260165"><ele>318.0</ele><time>2026-03-22T10:31:32.999Z</time></trkpt><trkpt lat="43.36976197389597" lon="11.66007843502249"><ele>318.0</ele><time>2026-03-22T10:31:34.999Z</time></trkpt><trkpt lat="43.369702156691396" lon="11.66021715963795"><ele>318.0</ele><time>2026-03-22T10:31:36.999Z</time></trkpt><trkpt lat="43.36964444545593" lon="11.66036854968589"><ele>318.0</ele><time>2026-03-22T10:31:38.999Z</time></trkpt><trkpt lat="43.36958196529578" lon="11.660511092019327"><ele>318.0</ele><time>2026-03-22T10:31:40.999Z</time></trkpt><trkpt lat="43.36954935752992" lon="11.660587220049258"><ele>318.0</ele><time>2026-03-22T10:31:41.999Z</time></trkpt><trkpt lat="43.369512178300035" lon="11.660666644072169"><ele>319.1428571428571</ele><time>2026-03-22T10:31:42.999Z</time></trkpt><trkpt lat="43.369483470363186" lon="11.660747028351954"><ele>320.28571428571433</ele><time>2026-03-22T10:31:43.999Z</time></trkpt><trkpt lat="43.36945682312828" lon="11.6608321846745"><ele>321.42857142857144</ele><time>2026-03-22T10:31:44.999Z</time></trkpt><trkpt lat="43.369431376188146" lon="11.660914443187972"><ele>322.57142857142856</ele><time>2026-03-22T10:31:45.999Z</time></trkpt><trkpt lat="43.369407138793775" lon="11.660994885187538"><ele>323.71428571428567</ele><time>2026-03-22T10:31:46.999Z</time></trkpt><trkpt lat="43.36938760546966" lon="11.661079784334026"><ele>324.8571428571429</ele><time>2026-03-22T10:31:47.999Z</time></trkpt><trkpt lat="43.369371934624695" lon="11.661166658085936"><ele>326.0</ele><time>2026-03-22T10:31:48.999Z</time></trkpt><trkpt lat="43.36936556281864" lon="11.661258208833829"><ele>326.0</ele><time>2026-03-22T10:31:49.999Z</time></trkpt><trkpt lat="43.36935567651143" lon="11.661352173154704"><ele>326.0</ele><time>2026-03-22T10:31:50.999Z</time></trkpt><trkpt lat="43.369352899208614" lon="11.661448622411696"><ele>326.0</ele><time>2026-03-22T10:31:51.999Z</time></trkpt><trkpt lat="43.36935328988769" lon="11.66154871665987"><ele>326.0</ele><time>2026-03-22T10:31:52.999Z</time></trkpt><trkpt lat="43.36935690810007" lon="11.661650172709695"><ele>326.0</ele><time>2026-03-22T10:31:53.999Z</time></trkpt><trkpt lat="43.36935897422758" lon="11.661746837741907"><ele>326.0</ele><time>2026-03-22T10:31:54.999Z</time></trkpt><trkpt lat="43.36936248416489" lon="11.661852859207396"><ele>326.0</ele><time>2026-03-22T10:31:55.999Z</time></trkpt><trkpt lat="43.36936873434488" lon="11.661956793438344"><ele>326.0</ele><time>2026-03-22T10:31:56.999Z</time></trkpt><trkpt lat="43.369376120949106" lon="11.662059221232907"><ele>326.0</ele><time>2026-03-22T10:31:57.999Z</time></trkpt><trkpt lat="43.369383291111774" lon="11.662273711479289"><ele>326.0</ele><time>2026-03-22T10:31:59.999Z</time></trkpt><trkpt lat="43.369386758307705" lon="11.6623857696725"><ele>326.0</ele><time>2026-03-22T10:32:00.999Z</time></trkpt><trkpt lat="43.36939618221482" lon="11.662491856845381"><ele>326.0</ele><time>2026-03-22T10:32:01.999Z</time></trkpt><trkpt lat="43.36940929185596" lon="11.662599736010389"><ele>326.0</ele><time>2026-03-22T10:32:02.999Z</time></trkpt><trkpt lat="43.36941396543434" lon="11.662708156878976"><ele>326.0</ele><time>2026-03-22T10:32:03.999Z</time></trkpt><trkpt lat="43.36943193697026" lon="11.662818968375431"><ele>326.0</ele><time>2026-03-22T10:32:04.999Z</time></trkpt><trkpt lat="43.36945418257358" lon="11.662929199198167"><ele>326.0</ele><time>2026-03-22T10:32:05.999Z</time></trkpt><trkpt lat="43.36946892959322" lon="11.66304065057005"><ele>326.0</ele><time>2026-03-22T10:32:06.999Z</time></trkpt><trkpt lat="43.369486145054005" lon="11.663150615710693"><ele>326.0</ele><time>2026-03-22T10:32:07.998Z</time></trkpt><trkpt lat="43.369492415668006" lon="11.663255141748152"><ele>327.0</ele><time>2026-03-22T10:32:08.998Z</time></trkpt><trkpt lat="43.36951240295217" lon="11.663366539604485"><ele>328.0</ele><time>2026-03-22T10:32:09.998Z</time></trkpt><trkpt lat="43.36953571350583" lon="11.663472725756273"><ele>329.0</ele><time>2026-03-22T10:32:10.998Z</time></trkpt><trkpt lat="43.36955339236496" lon="11.663581450802793"><ele>330.0</ele><time>2026-03-22T10:32:11.998Z</time></trkpt><trkpt lat="43.36957628393345" lon="11.663688670354253"><ele>331.0</ele><time>2026-03-22T10:32:12.998Z</time></trkpt><trkpt lat="43.36958625201706" lon="11.663804182057133"><ele>332.0</ele><time>2026-03-22T10:32:13.998Z</time></trkpt><trkpt lat="43.36959529427225" lon="11.663912563327788"><ele>332.0</ele><time>2026-03-22T10:32:14.998Z</time></trkpt><trkpt lat="43.36960286830944" lon="11.664024598830911"><ele>332.0</ele><time>2026-03-22T10:32:15.998Z</time></trkpt><trkpt lat="43.369606198839264" lon="11.66413311724859"><ele>332.0</ele><time>2026-03-22T10:32:16.998Z</time></trkpt><trkpt lat="43.36960443191381" lon="11.664247989420577"><ele>332.0</ele><time>2026-03-22T10:32:17.998Z</time></trkpt><trkpt lat="43.36960448990612" lon="11.664347444979802"><ele>332.0</ele><time>2026-03-22T10:32:18.998Z</time></trkpt><trkpt lat="43.36959771817305" lon="11.664448365491364"><ele>332.0</ele><time>2026-03-22T10:32:19.998Z</time></trkpt><trkpt lat="43.369594110180685" lon="11.664552610945254"><ele>331.1428571428571</ele><time>2026-03-22T10:32:20.998Z</time></trkpt><trkpt lat="43.36958452643558" lon="11.664646832768124"><ele>330.28571428571433</ele><time>2026-03-22T10:32:21.998Z</time></trkpt><trkpt lat="43.36957666882628" lon="11.664736676409484"><ele>329.42857142857144</ele><time>2026-03-22T10:32:22.998Z</time></trkpt><trkpt lat="43.36955765685439" lon="11.664831419182526"><ele>328.57142857142856</ele><time>2026-03-22T10:32:23.998Z</time></trkpt><trkpt lat="43.36954060834988" lon="11.66493348309128"><ele>327.71428571428567</ele><time>2026-03-22T10:32:24.998Z</time></trkpt><trkpt lat="43.3695172278137" lon="11.665021472867933"><ele>326.8571428571429</ele><time>2026-03-22T10:32:25.998Z</time></trkpt><trkpt lat="43.36949928020778" lon="11.665110125447942"><ele>326.0</ele><time>2026-03-22T10:32:26.998Z</time></trkpt><trkpt lat="43.36946860097779" lon="11.66519196287559"><ele>326.0</ele><time>2026-03-22T10:32:27.998Z</time></trkpt><trkpt lat="43.36944374288661" lon="11.66527518793799"><ele>326.0</ele><time>2026-03-22T10:32:28.998Z</time></trkpt><trkpt lat="43.369418482009216" lon="11.665356863717331"><ele>326.0</ele><time>2026-03-22T10:32:29.998Z</time></trkpt><trkpt lat="43.3693916089378" lon="11.665441113421672"><ele>326.0</ele><time>2026-03-22T10:32:30.998Z</time></trkpt><trkpt lat="43.36933412074353" lon="11.665587830584844"><ele>326.0</ele><time>2026-03-22T10:32:32.998Z</time></trkpt><trkpt lat="43.36930089880325" lon="11.665665198774665"><ele>326.0</ele><time>2026-03-22T10:32:33.998Z</time></trkpt><trkpt lat="43.369255653773656" lon="11.66582488720146"><ele>322.25</ele><time>2026-03-22T10:32:35.998Z</time></trkpt><trkpt lat="43.369201454410515" lon="11.665980768874494"><ele>318.5</ele><time>2026-03-22T10:32:37.998Z</time></trkpt><trkpt lat="43.36915516052198" lon="11.666133643872362"><ele>314.75</ele><time>2026-03-22T10:32:39.998Z</time></trkpt><trkpt lat="43.369106967732414" lon="11.666288393179343"><ele>311.0</ele><time>2026-03-22T10:32:41.998Z</time></trkpt><trkpt lat="43.369060464955965" lon="11.6664445276531"><ele>310.0</ele><time>2026-03-22T10:32:43.998Z</time></trkpt><trkpt lat="43.36902809590033" lon="11.666598048559619"><ele>309.0</ele><time>2026-03-22T10:32:45.998Z</time></trkpt><trkpt lat="43.36900689799526" lon="11.666761680630518"><ele>308.0</ele><time>2026-03-22T10:32:47.998Z</time></trkpt><trkpt lat="43.36898169808358" lon="11.666926268491713"><ele>307.0</ele><time>2026-03-22T10:32:50Z</time></trkpt><trkpt lat="43.36898022422694" lon="11.667013897501038"><ele>306.0</ele><time>2026-03-22T10:32:51Z</time></trkpt><trkpt lat="43.36897291937546" lon="11.667169298919383"><ele>305.6</ele><time>2026-03-22T10:32:53Z</time></trkpt><trkpt lat="43.36897109747687" lon="11.667334198154036"><ele>305.20000000000005</ele><time>2026-03-22T10:32:55Z</time></trkpt><trkpt lat="43.36898461183868" lon="11.667494809579347"><ele>304.79999999999995</ele><time>2026-03-22T10:32:57Z</time></trkpt><trkpt lat="43.368990427237236" lon="11.667648893782674"><ele>304.4</ele><time>2026-03-22T10:32:59Z</time></trkpt><trkpt lat="43.36898942732231" lon="11.667736440514236"><ele>304.0</ele><time>2026-03-22T10:33:00Z</time></trkpt><trkpt lat="43.36899421283263" lon="11.667889770116473"><ele>303.8</ele><time>2026-03-22T10:33:02Z</time></trkpt><trkpt lat="43.368989661766285" lon="11.668042959436649"><ele>303.59999999999997</ele><time>2026-03-22T10:33:04Z</time></trkpt><trkpt lat="43.36897256630108" lon="11.668202479447947"><ele>303.4</ele><time>2026-03-22T10:33:06Z</time></trkpt><trkpt lat="43.368938428958316" lon="11.66834670238119"><ele>303.2</ele><time>2026-03-22T10:33:08Z</time></trkpt><trkpt lat="43.36889572673684" lon="11.668478321971376"><ele>303.0</ele><time>2026-03-22T10:33:10Z</time></trkpt><trkpt lat="43.368855879787915" lon="11.668618493118482"><ele>304.8</ele><time>2026-03-22T10:33:12Z</time></trkpt><trkpt lat="43.36881888494095" lon="11.66874793663136"><ele>306.6</ele><time>2026-03-22T10:33:14Z</time></trkpt><trkpt lat="43.36877732626745" lon="11.668886582625547"><ele>308.4</ele><time>2026-03-22T10:33:16Z</time></trkpt><trkpt lat="43.36873236729625" lon="11.669033939640228"><ele>310.2</ele><time>2026-03-22T10:33:18Z</time></trkpt><trkpt lat="43.36870700229412" lon="11.669184492346954"><ele>312.0</ele><time>2026-03-22T10:33:20Z</time></trkpt><trkpt lat="43.36870474614039" lon="11.669348337645536"><ele>311.0</ele><time>2026-03-22T10:33:22Z</time></trkpt><trkpt lat="43.36873980782582" lon="11.66950970341545"><ele>310.0</ele><time>2026-03-22T10:33:23.999Z</time></trkpt><trkpt lat="43.36877068650552" lon="11.669586771862038"><ele>309.0</ele><time>2026-03-22T10:33:24.999Z</time></trkpt><trkpt lat="43.3688102034476" lon="11.669655555964058"><ele>308.0</ele><time>2026-03-22T10:33:25.999Z</time></trkpt><trkpt lat="43.36885535756266" lon="11.669721565345863"><ele>307.0</ele><time>2026-03-22T10:33:26.999Z</time></trkpt><trkpt lat="43.36890363312641" lon="11.66978042871869"><ele>306.0</ele><time>2026-03-22T10:33:27.999Z</time></trkpt><trkpt lat="43.36895614537697" lon="11.669831222659713"><ele>305.0</ele><time>2026-03-22T10:33:28.999Z</time></trkpt><trkpt lat="43.36901741212925" lon="11.669873219489517"><ele>305.0</ele><time>2026-03-22T10:33:29.999Z</time></trkpt><trkpt lat="43.3690815715737" lon="11.669910072197576"><ele>305.0</ele><time>2026-03-22T10:33:30.999Z</time></trkpt><trkpt lat="43.36914474960547" lon="11.669946442933508"><ele>305.0</ele><time>2026-03-22T10:33:31.999Z</time></trkpt><trkpt lat="43.36921057600431" lon="11.669984292802544"><ele>305.0</ele><time>2026-03-22T10:33:32.999Z</time></trkpt><trkpt lat="43.36927583156472" lon="11.670017998786273"><ele>305.0</ele><time>2026-03-22T10:33:33.999Z</time></trkpt><trkpt lat="43.36934087753086" lon="11.670053510760505"><ele>305.0</ele><time>2026-03-22T10:33:34.999Z</time></trkpt><trkpt lat="43.369408004986504" lon="11.67008828172941"><ele>305.0</ele><time>2026-03-22T10:33:35.999Z</time></trkpt><trkpt lat="43.36947355504491" lon="11.670126633118969"><ele>305.0</ele><time>2026-03-22T10:33:36.999Z</time></trkpt><trkpt lat="43.36953550877947" lon="11.670171868064685"><ele>305.0</ele><time>2026-03-22T10:33:37.999Z</time></trkpt><trkpt lat="43.36959421613776" lon="11.670226673123956"><ele>305.0</ele><time>2026-03-22T10:33:38.999Z</time></trkpt><trkpt lat="43.369651721532506" lon="11.670288466567575"><ele>305.0</ele><time>2026-03-22T10:33:39.999Z</time></trkpt><trkpt lat="43.369706442897844" lon="11.67034953595007"><ele>305.0</ele><time>2026-03-22T10:33:40.999Z</time></trkpt><trkpt lat="43.36976327909348" lon="11.670418605300755"><ele>305.0</ele><time>2026-03-22T10:33:41.999Z</time></trkpt><trkpt lat="43.36981982054307" lon="11.670488281633423"><ele>305.0</ele><time>2026-03-22T10:33:42.999Z</time></trkpt><trkpt lat="43.369872569427294" lon="11.670563772930834"><ele>304.5</ele><time>2026-03-22T10:33:43.999Z</time></trkpt><trkpt lat="43.3699229311878" lon="11.67064668018841"><ele>304.0</ele><time>2026-03-22T10:33:44.999Z</time></trkpt><trkpt lat="43.36997248042227" lon="11.670730435776521"><ele>303.5</ele><time>2026-03-22T10:33:45.999Z</time></trkpt><trkpt lat="43.370018781640994" lon="11.670816353910874"><ele>303.0</ele><time>2026-03-22T10:33:46.999Z</time></trkpt><trkpt lat="43.37005917863773" lon="11.670908903217574"><ele>302.5</ele><time>2026-03-22T10:33:47.999Z</time></trkpt><trkpt lat="43.37009630542198" lon="11.671005576339745"><ele>302.0</ele><time>2026-03-22T10:33:48.999Z</time></trkpt><trkpt lat="43.37012916460488" lon="11.671104413017384"><ele>302.00000000000006</ele><time>2026-03-22T10:33:49.999Z</time></trkpt><trkpt lat="43.37015118338424" lon="11.67120467124682"><ele>302.0</ele><time>2026-03-22T10:33:50.999Z</time></trkpt><trkpt lat="43.37016869314983" lon="11.671305422880938"><ele>302.0</ele><time>2026-03-22T10:33:51.999Z</time></trkpt><trkpt lat="43.370182341287716" lon="11.671405283095366"><ele>302.0</ele><time>2026-03-22T10:33:52.999Z</time></trkpt><trkpt lat="43.37018967809829" lon="11.671503595333004"><ele>302.0</ele><time>2026-03-22T10:33:53.999Z</time></trkpt><trkpt lat="43.370188970062095" lon="11.671600348466555"><ele>302.00000000000006</ele><time>2026-03-22T10:33:54.999Z</time></trkpt><trkpt lat="43.370184864012394" lon="11.671695778506825"><ele>302.0</ele><time>2026-03-22T10:33:55.999Z</time></trkpt><trkpt lat="43.37017947216428" lon="11.671790974319821"><ele>302.00000000000006</ele><time>2026-03-22T10:33:56.999Z</time></trkpt><trkpt lat="43.37017084535265" lon="11.671885149988091"><ele>302.0</ele><time>2026-03-22T10:33:57.999Z</time></trkpt><trkpt lat="43.370162718580104" lon="11.671979465841588"><ele>302.0</ele><time>2026-03-22T10:33:58.999Z</time></trkpt><trkpt lat="43.370156836921474" lon="11.672071722491092"><ele>302.0</ele><time>2026-03-22T10:33:59.999Z</time></trkpt><trkpt lat="43.3701475129918" lon="11.672163353415135"><ele>302.0</ele><time>2026-03-22T10:34:00.999Z</time></trkpt><trkpt lat="43.370140389094445" lon="11.672254827353106"><ele>302.00000000000006</ele><time>2026-03-22T10:34:01.999Z</time></trkpt><trkpt lat="43.370135984864824" lon="11.672344295432568"><ele>302.0</ele><time>2026-03-22T10:34:02.999Z</time></trkpt><trkpt lat="43.37012507911429" lon="11.672439309244691"><ele>300.8571428571429</ele><time>2026-03-22T10:34:03.999Z</time></trkpt><trkpt lat="43.37011365083592" lon="11.672528472086347"><ele>299.7142857142857</ele><time>2026-03-22T10:34:04.999Z</time></trkpt><trkpt lat="43.37010069472864" lon="11.672618214624125"><ele>298.57142857142856</ele><time>2026-03-22T10:34:05.999Z</time></trkpt><trkpt lat="43.370086136678125" lon="11.6727081991034"><ele>297.42857142857144</ele><time>2026-03-22T10:34:06.999Z</time></trkpt><trkpt lat="43.3700678958935" lon="11.672794335126387"><ele>296.2857142857143</ele><time>2026-03-22T10:34:07.999Z</time></trkpt><trkpt lat="43.3700502607143" lon="11.67288124378182"><ele>295.14285714285717</ele><time>2026-03-22T10:34:08.999Z</time></trkpt><trkpt lat="43.370029466359334" lon="11.67296734371667"><ele>294.0</ele><time>2026-03-22T10:34:09.999Z</time></trkpt><trkpt lat="43.37000745876665" lon="11.673054410897848"><ele>294.0</ele><time>2026-03-22T10:34:10.999Z</time></trkpt><trkpt lat="43.36998152989499" lon="11.673138317943415"><ele>294.0</ele><time>2026-03-22T10:34:11.999Z</time></trkpt><trkpt lat="43.36995340239805" lon="11.67322040005514"><ele>294.0</ele><time>2026-03-22T10:34:12.999Z</time></trkpt><trkpt lat="43.36992079150956" lon="11.673297839218918"><ele>294.0</ele><time>2026-03-22T10:34:13.999Z</time></trkpt><trkpt lat="43.36988316526696" lon="11.673371222433527"><ele>294.0</ele><time>2026-03-22T10:34:14.998Z</time></trkpt><trkpt lat="43.369841516665744" lon="11.673440419017368"><ele>294.0</ele><time>2026-03-22T10:34:15.998Z</time></trkpt><trkpt lat="43.36979938013049" lon="11.673507898565466"><ele>294.0</ele><time>2026-03-22T10:34:16.998Z</time></trkpt><trkpt lat="43.36975858054164" lon="11.673580344416832"><ele>294.14285714285717</ele><time>2026-03-22T10:34:17.998Z</time></trkpt><trkpt lat="43.36971549846092" lon="11.673651822093015"><ele>294.2857142857143</ele><time>2026-03-22T10:34:18.998Z</time></trkpt><trkpt lat="43.36967242345617" lon="11.673723071360241"><ele>294.42857142857144</ele><time>2026-03-22T10:34:19.998Z</time></trkpt><trkpt lat="43.36963327378569" lon="11.67379278539118"><ele>294.57142857142856</ele><time>2026-03-22T10:34:20.998Z</time></trkpt><trkpt lat="43.369592995012795" lon="11.673861240271558"><ele>294.7142857142857</ele><time>2026-03-22T10:34:21.998Z</time></trkpt><trkpt lat="43.36955299871422" lon="11.673930195268849"><ele>294.8571428571429</ele><time>2026-03-22T10:34:22.998Z</time></trkpt><trkpt lat="43.36951387411701" lon="11.67399814805912"><ele>295.0</ele><time>2026-03-22T10:34:23.998Z</time></trkpt><trkpt lat="43.369474407795146" lon="11.674065814827108"><ele>295.25</ele><time>2026-03-22T10:34:24.998Z</time></trkpt><trkpt lat="43.369398880042326" lon="11.674196949918684"><ele>295.5</ele><time>2026-03-22T10:34:26.998Z</time></trkpt><trkpt lat="43.36932185955068" lon="11.67432831225309"><ele>295.75</ele><time>2026-03-22T10:34:28.998Z</time></trkpt><trkpt lat="43.36925469756128" lon="11.674462437885225"><ele>296.0</ele><time>2026-03-22T10:34:30.998Z</time></trkpt><trkpt lat="43.36918150104144" lon="11.674592530315469"><ele>296.0</ele><time>2026-03-22T10:34:32.998Z</time></trkpt><trkpt lat="43.369138646664894" lon="11.674656450829422"><ele>296.0</ele><time>2026-03-22T10:34:33.998Z</time></trkpt><trkpt lat="43.369062902312976" lon="11.674790193444725"><ele>296.0</ele><time>2026-03-22T10:34:35.998Z</time></trkpt><trkpt lat="43.36898170228389" lon="11.674923438254684"><ele>296.0</ele><time>2026-03-22T10:34:37.998Z</time></trkpt><trkpt lat="43.36890245494601" lon="11.675055715051714"><ele>296.0</ele><time>2026-03-22T10:34:39.998Z</time></trkpt><trkpt lat="43.36882985311631" lon="11.675197271117277"><ele>297.5</ele><time>2026-03-22T10:34:41.998Z</time></trkpt><trkpt lat="43.36874550637983" lon="11.675321134517548"><ele>299.0</ele><time>2026-03-22T10:34:43.998Z</time></trkpt><trkpt lat="43.36866693619853" lon="11.675447902430815"><ele>300.5</ele><time>2026-03-22T10:34:45.998Z</time></trkpt><trkpt lat="43.3685954513703" lon="11.675582690305879"><ele>302.0</ele><time>2026-03-22T10:34:47.998Z</time></trkpt><trkpt lat="43.36852605065678" lon="11.675715851663869"><ele>302.0</ele><time>2026-03-22T10:34:49.998Z</time></trkpt><trkpt lat="43.36847574492716" lon="11.67586202999899"><ele>302.0</ele><time>2026-03-22T10:34:51.998Z</time></trkpt><trkpt lat="43.36842723030111" lon="11.676012187983552"><ele>302.0</ele><time>2026-03-22T10:34:53.998Z</time></trkpt><trkpt lat="43.368399886843484" lon="11.676177451740907"><ele>302.0</ele><time>2026-03-22T10:34:56Z</time></trkpt><trkpt lat="43.368357127910244" lon="11.676337787511617"><ele>301.6666666666667</ele><time>2026-03-22T10:34:58Z</time></trkpt><trkpt lat="43.36834240686975" lon="11.676423014371444"><ele>301.33333333333337</ele><time>2026-03-22T10:34:59Z</time></trkpt><trkpt lat="43.36832313391854" lon="11.676507614073829"><ele>301.0</ele><time>2026-03-22T10:35:00Z</time></trkpt><trkpt lat="43.36829846723469" lon="11.67667904212471"><ele>300.6666666666667</ele><time>2026-03-22T10:35:02Z</time></trkpt><trkpt lat="43.36829097235599" lon="11.676767096276297"><ele>300.3333333333333</ele><time>2026-03-22T10:35:03Z</time></trkpt><trkpt lat="43.36828204461397" lon="11.676941044242204"><ele>300.0</ele><time>2026-03-22T10:35:05Z</time></trkpt><trkpt lat="43.368280675995784" lon="11.677028701656294"><ele>299.99999999999994</ele><time>2026-03-22T10:35:06Z</time></trkpt><trkpt lat="43.36828195578774" lon="11.677116246964758"><ele>300.0</ele><time>2026-03-22T10:35:07Z</time></trkpt><trkpt lat="43.368286540727176" lon="11.677206510608242"><ele>300.0</ele><time>2026-03-22T10:35:08Z</time></trkpt><trkpt lat="43.36830035628719" lon="11.677297345431398"><ele>300.0</ele><time>2026-03-22T10:35:09Z</time></trkpt><trkpt lat="43.36830794218476" lon="11.67738517898411"><ele>300.0</ele><time>2026-03-22T10:35:10Z</time></trkpt><trkpt lat="43.368325313326686" lon="11.677475248319276"><ele>299.99999999999994</ele><time>2026-03-22T10:35:11Z</time></trkpt><trkpt lat="43.368333661746256" lon="11.677563126064216"><ele>300.0</ele><time>2026-03-22T10:35:12Z</time></trkpt><trkpt lat="43.36834358270598" lon="11.67765194468236"><ele>300.4</ele><time>2026-03-22T10:35:13Z</time></trkpt><trkpt lat="43.368370525230205" lon="11.677826092577149"><ele>300.8</ele><time>2026-03-22T10:35:15Z</time></trkpt><trkpt lat="43.368384977966116" lon="11.67791542186104"><ele>301.2</ele><time>2026-03-22T10:35:16Z</time></trkpt><trkpt lat="43.368403223498376" lon="11.678006244885752"><ele>301.6</ele><time>2026-03-22T10:35:17Z</time></trkpt><trkpt lat="43.368427081046946" lon="11.678178910118673"><ele>302.0</ele><time>2026-03-22T10:35:19Z</time></trkpt><trkpt lat="43.368436864079605" lon="11.678268103297679"><ele>302.00000000000006</ele><time>2026-03-22T10:35:20Z</time></trkpt><trkpt lat="43.36844969867204" lon="11.678356887612578"><ele>302.0</ele><time>2026-03-22T10:35:21Z</time></trkpt><trkpt lat="43.36846139282245" lon="11.678446506380933"><ele>302.0</ele><time>2026-03-22T10:35:22Z</time></trkpt><trkpt lat="43.36847137160502" lon="11.67853827485316"><ele>302.0</ele><time>2026-03-22T10:35:23Z</time></trkpt><trkpt lat="43.368476882515075" lon="11.678630724777994"><ele>302.0</ele><time>2026-03-22T10:35:24Z</time></trkpt><trkpt lat="43.36847360418801" lon="11.678722679478177"><ele>302.00000000000006</ele><time>2026-03-22T10:35:25Z</time></trkpt><trkpt lat="43.36846989835916" lon="11.67881612409229"><ele>302.0</ele><time>2026-03-22T10:35:26Z</time></trkpt><trkpt lat="43.36846811214635" lon="11.678906465511059"><ele>301.5</ele><time>2026-03-22T10:35:27Z</time></trkpt><trkpt lat="43.36846306934805" lon="11.679000428648767"><ele>301.0</ele><time>2026-03-22T10:35:27.999Z</time></trkpt><trkpt lat="43.36846128487428" lon="11.679089269577437"><ele>300.5</ele><time>2026-03-22T10:35:28.999Z</time></trkpt><trkpt lat="43.36842887420432" lon="11.679261858062295"><ele>300.0</ele><time>2026-03-22T10:35:30.999Z</time></trkpt><trkpt lat="43.36840798519822" lon="11.679347063901332"><ele>299.5</ele><time>2026-03-22T10:35:31.999Z</time></trkpt><trkpt lat="43.368389348615494" lon="11.679430988967644"><ele>299.0</ele><time>2026-03-22T10:35:32.999Z</time></trkpt><trkpt lat="43.36834735635493" lon="11.679590988500033"><ele>297.5</ele><time>2026-03-22T10:35:34.999Z</time></trkpt><trkpt lat="43.368298465577205" lon="11.679744486163463"><ele>296.0</ele><time>2026-03-22T10:35:36.999Z</time></trkpt><trkpt lat="43.368255257946196" lon="11.679896857172185"><ele>294.5</ele><time>2026-03-22T10:35:38.999Z</time></trkpt><trkpt lat="43.368207824104566" lon="11.680047403206869"><ele>293.0</ele><time>2026-03-22T10:35:40.999Z</time></trkpt><trkpt lat="43.36816288901583" lon="11.680191709180168"><ele>292.0</ele><time>2026-03-22T10:35:42.999Z</time></trkpt><trkpt lat="43.368095934484074" lon="11.680332712948509"><ele>291.0</ele><time>2026-03-22T10:35:44.999Z</time></trkpt><trkpt lat="43.368036221357436" lon="11.68046810512757"><ele>290.0</ele><time>2026-03-22T10:35:46.999Z</time></trkpt><trkpt lat="43.367942718260686" lon="11.68047548055961"><ele>289.0</ele><time>2026-03-22T10:35:47.999Z</time></trkpt><trkpt lat="43.36787025570323" lon="11.680590787432566"><ele>288.0</ele><time>2026-03-22T10:35:49.999Z</time></trkpt><trkpt lat="43.36782515224269" lon="11.680654579428"><ele>288.0</ele><time>2026-03-22T10:35:50.999Z</time></trkpt><trkpt lat="43.36774444158967" lon="11.680756682620979"><ele>288.0</ele><time>2026-03-22T10:35:52.999Z</time></trkpt><trkpt lat="43.36769529522056" lon="11.680814855271995"><ele>288.0</ele><time>2026-03-22T10:35:53.999Z</time></trkpt><trkpt lat="43.367602269891556" lon="11.68092496574598"><ele>288.0</ele><time>2026-03-22T10:35:55.999Z</time></trkpt><trkpt lat="43.36750863751174" lon="11.681031766336956"><ele>288.0</ele><time>2026-03-22T10:35:57.999Z</time></trkpt><trkpt lat="43.36741302723744" lon="11.681137713304679"><ele>288.0</ele><time>2026-03-22T10:35:59.999Z</time></trkpt><trkpt lat="43.3673158271553" lon="11.681243567228048"><ele>288.0</ele><time>2026-03-22T10:36:01.999Z</time></trkpt><trkpt lat="43.36722004380308" lon="11.681347878301573"><ele>288.0</ele><time>2026-03-22T10:36:03.999Z</time></trkpt><trkpt lat="43.367122966416304" lon="11.681455187595544"><ele>288.0</ele><time>2026-03-22T10:36:05.999Z</time></trkpt><trkpt lat="43.367073091527" lon="11.68151081282924"><ele>288.0</ele><time>2026-03-22T10:36:06.999Z</time></trkpt><trkpt lat="43.366976324141945" lon="11.681618737050403"><ele>288.2</ele><time>2026-03-22T10:36:08.999Z</time></trkpt><trkpt lat="43.36688000876038" lon="11.681726157159794"><ele>288.4</ele><time>2026-03-22T10:36:10.999Z</time></trkpt><trkpt lat="43.36683012836246" lon="11.681781653652484"><ele>288.59999999999997</ele><time>2026-03-22T10:36:11.999Z</time></trkpt><trkpt lat="43.36673427391741" lon="11.681886965306134"><ele>288.8</ele><time>2026-03-22T10:36:13.999Z</time></trkpt><trkpt lat="43.366637229700565" lon="11.681996213404569"><ele>289.0</ele><time>2026-03-22T10:36:15.999Z</time></trkpt><trkpt lat="43.36659073509424" lon="11.682054660873726"><ele>289.0</ele><time>2026-03-22T10:36:16.999Z</time></trkpt><trkpt lat="43.36650613172018" lon="11.68217329907425"><ele>289.0</ele><time>2026-03-22T10:36:18.999Z</time></trkpt><trkpt lat="43.36643524467548" lon="11.682297529153509"><ele>289.0</ele><time>2026-03-22T10:36:20.998Z</time></trkpt><trkpt lat="43.36637743511788" lon="11.682449872179848"><ele>289.0</ele><time>2026-03-22T10:36:22.998Z</time></trkpt><trkpt lat="43.36634248376759" lon="11.682604374797698"><ele>289.2</ele><time>2026-03-22T10:36:24.998Z</time></trkpt><trkpt lat="43.36632479863303" lon="11.682773193322292"><ele>289.4</ele><time>2026-03-22T10:36:26.998Z</time></trkpt><trkpt lat="43.366324802442584" lon="11.682861644129577"><ele>289.6</ele><time>2026-03-22T10:36:27.998Z</time></trkpt><trkpt lat="43.36633445840305" lon="11.683031380815859"><ele>289.8</ele><time>2026-03-22T10:36:29.998Z</time></trkpt><trkpt lat="43.36634625266256" lon="11.683118979220424"><ele>290.0</ele><time>2026-03-22T10:36:30.998Z</time></trkpt><trkpt lat="43.36638021063783" lon="11.68328230705111"><ele>290.0</ele><time>2026-03-22T10:36:32.998Z</time></trkpt><trkpt lat="43.36642698073983" lon="11.683435364591672"><ele>290.0</ele><time>2026-03-22T10:36:34.998Z</time></trkpt><trkpt lat="43.36647889169669" lon="11.683579037070702"><ele>290.0</ele><time>2026-03-22T10:36:36.998Z</time></trkpt><trkpt lat="43.366528689684884" lon="11.683715220841647"><ele>290.0</ele><time>2026-03-22T10:36:38.998Z</time></trkpt><trkpt lat="43.36657971843522" lon="11.683856587571139"><ele>291.0</ele><time>2026-03-22T10:36:40.998Z</time></trkpt><trkpt lat="43.366630416430766" lon="11.68399610163738"><ele>292.0</ele><time>2026-03-22T10:36:42.998Z</time></trkpt><trkpt lat="43.366681387428116" lon="11.684131607779838"><ele>293.0</ele><time>2026-03-22T10:36:44.998Z</time></trkpt><trkpt lat="43.36673201296759" lon="11.684268882883163"><ele>294.0</ele><time>2026-03-22T10:36:46.998Z</time></trkpt><trkpt lat="43.36678079382732" lon="11.684404847258776"><ele>295.0</ele><time>2026-03-22T10:36:48.998Z</time></trkpt><trkpt lat="43.36682698181091" lon="11.684538430595591"><ele>295.0</ele><time>2026-03-22T10:36:50.998Z</time></trkpt><trkpt lat="43.366863587580646" lon="11.684671301574841"><ele>295.0</ele><time>2026-03-22T10:36:52.998Z</time></trkpt><trkpt lat="43.366890510237816" lon="11.68480857283255"><ele>295.0</ele><time>2026-03-22T10:36:54.998Z</time></trkpt><trkpt lat="43.36689539234459" lon="11.684939201425284"><ele>295.0</ele><time>2026-03-22T10:36:56.998Z</time></trkpt><trkpt lat="43.3668837187314" lon="11.685069245516017"><ele>295.0</ele><time>2026-03-22T10:36:58.998Z</time></trkpt><trkpt lat="43.36686331492799" lon="11.685210325727876"><ele>292.75</ele><time>2026-03-22T10:37:00.998Z</time></trkpt><trkpt lat="43.36682506164766" lon="11.685346399524146"><ele>290.5</ele><time>2026-03-22T10:37:03Z</time></trkpt><trkpt lat="43.36677468212154" lon="11.685498407861559"><ele>288.25</ele><time>2026-03-22T10:37:05Z</time></trkpt><trkpt lat="43.36671037882382" lon="11.685626772385731"><ele>286.0</ele><time>2026-03-22T10:37:07Z</time></trkpt><trkpt lat="43.366626158059596" lon="11.685755345950975"><ele>286.0</ele><time>2026-03-22T10:37:09Z</time></trkpt><trkpt lat="43.36653299852565" lon="11.685861784885514"><ele>286.0</ele><time>2026-03-22T10:37:11Z</time></trkpt><trkpt lat="43.36643544241063" lon="11.685947730645395"><ele>286.0</ele><time>2026-03-22T10:37:13Z</time></trkpt><trkpt lat="43.36633182814468" lon="11.68602363861409"><ele>286.0</ele><time>2026-03-22T10:37:15Z</time></trkpt><trkpt lat="43.36622896901748" lon="11.686093756965159"><ele>285.40000000000003</ele><time>2026-03-22T10:37:17Z</time></trkpt><trkpt lat="43.36612686502381" lon="11.686161792644501"><ele>284.8</ele><time>2026-03-22T10:37:19Z</time></trkpt><trkpt lat="43.366025774908394" lon="11.686229152738976"><ele>284.20000000000005</ele><time>2026-03-22T10:37:21Z</time></trkpt><trkpt lat="43.36592113332452" lon="11.686298879307833"><ele>283.6</ele><time>2026-03-22T10:37:23Z</time></trkpt><trkpt lat="43.365864078686144" lon="11.686337452298071"><ele>283.0</ele><time>2026-03-22T10:37:24Z</time></trkpt><trkpt lat="43.36575952780971" lon="11.686412023714713"><ele>283.0</ele><time>2026-03-22T10:37:26Z</time></trkpt><trkpt lat="43.36566094567974" lon="11.68648233789702"><ele>283.0</ele><time>2026-03-22T10:37:28Z</time></trkpt><trkpt lat="43.36556647068832" lon="11.686547311311637"><ele>283.0</ele><time>2026-03-22T10:37:30Z</time></trkpt><trkpt lat="43.365469607477856" lon="11.686611340344488"><ele>283.0</ele><time>2026-03-22T10:37:32Z</time></trkpt><trkpt lat="43.36536678084981" lon="11.686682793266273"><ele>283.0</ele><time>2026-03-22T10:37:34Z</time></trkpt><trkpt lat="43.365267835822436" lon="11.686759064303821"><ele>283.2</ele><time>2026-03-22T10:37:36Z</time></trkpt><trkpt lat="43.36517040791534" lon="11.686837160253598"><ele>283.4</ele><time>2026-03-22T10:37:37.999Z</time></trkpt><trkpt lat="43.365120429430206" lon="11.686889879538505"><ele>283.59999999999997</ele><time>2026-03-22T10:37:38.999Z</time></trkpt><trkpt lat="43.36502622725792" lon="11.686990287843544"><ele>283.8</ele><time>2026-03-22T10:37:40.999Z</time></trkpt><trkpt lat="43.364933066423106" lon="11.68709724698555"><ele>284.0</ele><time>2026-03-22T10:37:42.999Z</time></trkpt><trkpt lat="43.36484637823342" lon="11.687206193174998"><ele>284.0</ele><time>2026-03-22T10:37:44.999Z</time></trkpt><trkpt lat="43.36476056637493" lon="11.687315612832807"><ele>284.0</ele><time>2026-03-22T10:37:46.999Z</time></trkpt><trkpt lat="43.36467421269758" lon="11.687425723377462"><ele>284.0</ele><time>2026-03-22T10:37:48.999Z</time></trkpt><trkpt lat="43.364585761989375" lon="11.687538507868394"><ele>284.0</ele><time>2026-03-22T10:37:50.999Z</time></trkpt><trkpt lat="43.36449952702182" lon="11.687648467042278"><ele>284.0</ele><time>2026-03-22T10:37:52.999Z</time></trkpt><trkpt lat="43.36441313927806" lon="11.687762754135317"><ele>284.0</ele><time>2026-03-22T10:37:54.999Z</time></trkpt><trkpt lat="43.3643681439164" lon="11.687826349973518"><ele>284.0</ele><time>2026-03-22T10:37:55.999Z</time></trkpt><trkpt lat="43.36428546355447" lon="11.68795459140806"><ele>284.0</ele><time>2026-03-22T10:37:57.999Z</time></trkpt><trkpt lat="43.36420822730958" lon="11.688094198692047"><ele>284.0</ele><time>2026-03-22T10:37:59.999Z</time></trkpt><trkpt lat="43.364172716725506" lon="11.688167426751683"><ele>284.0</ele><time>2026-03-22T10:38:00.999Z</time></trkpt><trkpt lat="43.36411386404978" lon="11.688295292769855"><ele>284.0</ele><time>2026-03-22T10:38:02.999Z</time></trkpt><trkpt lat="43.3640563065142" lon="11.68842034491907"><ele>284.0</ele><time>2026-03-22T10:38:04.999Z</time></trkpt><trkpt lat="43.36399929169994" lon="11.688544405933047"><ele>284.0</ele><time>2026-03-22T10:38:06.999Z</time></trkpt><trkpt lat="43.363946118656784" lon="11.688660983690971"><ele>284.0</ele><time>2026-03-22T10:38:08.999Z</time></trkpt><trkpt lat="43.36389582981147" lon="11.688771238052976"><ele>285.0</ele><time>2026-03-22T10:38:10.999Z</time></trkpt><trkpt lat="43.36384006534252" lon="11.688894016180962"><ele>286.0</ele><time>2026-03-22T10:38:12.999Z</time></trkpt><trkpt lat="43.36378373191802" lon="11.689007743027036"><ele>287.0</ele><time>2026-03-22T10:38:14.999Z</time></trkpt><trkpt lat="43.363718985622626" lon="11.689120249305551"><ele>288.0</ele><time>2026-03-22T10:38:16.999Z</time></trkpt><trkpt lat="43.36364980420702" lon="11.689213113440806"><ele>289.0</ele><time>2026-03-22T10:38:18.999Z</time></trkpt><trkpt lat="43.36357109972852" lon="11.689293341316878"><ele>289.0</ele><time>2026-03-22T10:38:20.999Z</time></trkpt><trkpt lat="43.36348148285558" lon="11.689355398746857"><ele>289.0</ele><time>2026-03-22T10:38:22.999Z</time></trkpt><trkpt lat="43.3633839306588" lon="11.689400834024182"><ele>289.0</ele><time>2026-03-22T10:38:24.999Z</time></trkpt><trkpt lat="43.36328387818337" lon="11.68942779417747"><ele>289.0</ele><time>2026-03-22T10:38:26.999Z</time></trkpt><trkpt lat="43.36317343457445" lon="11.689443309369391"><ele>289.0</ele><time>2026-03-22T10:38:28.999Z</time></trkpt><trkpt lat="43.363064830291954" lon="11.689404887683393"><ele>288.8</ele><time>2026-03-22T10:38:30.999Z</time></trkpt><trkpt lat="43.3629540092281" lon="11.689360405345829"><ele>288.59999999999997</ele><time>2026-03-22T10:38:32.998Z</time></trkpt><trkpt lat="43.36284338387513" lon="11.68933639151695"><ele>288.4</ele><time>2026-03-22T10:38:34.998Z</time></trkpt><trkpt lat="43.36272441801122" lon="11.689306161472391"><ele>288.2</ele><time>2026-03-22T10:38:36.998Z</time></trkpt><trkpt lat="43.36266071210358" lon="11.68932066418879"><ele>288.0</ele><time>2026-03-22T10:38:37.998Z</time></trkpt><trkpt lat="43.362599180031225" lon="11.68934412151571"><ele>288.0</ele><time>2026-03-22T10:38:38.998Z</time></trkpt><trkpt lat="43.3624789461571" lon="11.68941518323468"><ele>288.0</ele><time>2026-03-22T10:38:40.998Z</time></trkpt><trkpt lat="43.36242189193004" lon="11.689464904608146"><ele>288.0</ele><time>2026-03-22T10:38:41.998Z</time></trkpt><trkpt lat="43.36236686243983" lon="11.68952914592601"><ele>288.0</ele><time>2026-03-22T10:38:42.998Z</time></trkpt><trkpt lat="43.36231790374346" lon="11.689600632695484"><ele>288.0</ele><time>2026-03-22T10:38:43.998Z</time></trkpt><trkpt lat="43.36227484640949" lon="11.689684754310154"><ele>288.0</ele><time>2026-03-22T10:38:44.998Z</time></trkpt><trkpt lat="43.36224116329737" lon="11.68977090754237"><ele>288.5714285714286</ele><time>2026-03-22T10:38:45.998Z</time></trkpt><trkpt lat="43.36221326419733" lon="11.689854763968658"><ele>289.14285714285717</ele><time>2026-03-22T10:38:46.998Z</time></trkpt><trkpt lat="43.36218866262203" lon="11.689946845196594"><ele>289.7142857142857</ele><time>2026-03-22T10:38:47.998Z</time></trkpt><trkpt lat="43.36216793741302" lon="11.69003434214591"><ele>290.28571428571433</ele><time>2026-03-22T10:38:48.998Z</time></trkpt><trkpt lat="43.36214843367133" lon="11.690120918033289"><ele>290.8571428571429</ele><time>2026-03-22T10:38:49.998Z</time></trkpt><trkpt lat="43.3621286663703" lon="11.69020866387367"><ele>291.42857142857144</ele><time>2026-03-22T10:38:50.998Z</time></trkpt><trkpt lat="43.362109522191446" lon="11.690296994375286"><ele>292.0</ele><time>2026-03-22T10:38:51.998Z</time></trkpt><trkpt lat="43.36209205232348" lon="11.690381339220131"><ele>292.2</ele><time>2026-03-22T10:38:52.998Z</time></trkpt><trkpt lat="43.362074524270675" lon="11.690465964970906"><ele>292.4</ele><time>2026-03-22T10:38:53.998Z</time></trkpt><trkpt lat="43.362056708068586" lon="11.69055198192647"><ele>292.6</ele><time>2026-03-22T10:38:54.998Z</time></trkpt><trkpt lat="43.362023295520686" lon="11.690711818450374"><ele>292.8</ele><time>2026-03-22T10:38:56.998Z</time></trkpt><trkpt lat="43.36198900073013" lon="11.690870158233512"><ele>293.0</ele><time>2026-03-22T10:38:58.998Z</time></trkpt><trkpt lat="43.3619548797895" lon="11.691027111876949"><ele>291.75</ele><time>2026-03-22T10:39:00.998Z</time></trkpt><trkpt lat="43.36192127286721" lon="11.691182593826559"><ele>290.5</ele><time>2026-03-22T10:39:02.998Z</time></trkpt><trkpt lat="43.361887951684906" lon="11.691336972787207"><ele>289.25</ele><time>2026-03-22T10:39:04.998Z</time></trkpt><trkpt lat="43.3618560229121" lon="11.691494564998395"><ele>288.0</ele><time>2026-03-22T10:39:06.998Z</time></trkpt><trkpt lat="43.361823909604" lon="11.691652789235205"><ele>288.0</ele><time>2026-03-22T10:39:09Z</time></trkpt><trkpt lat="43.36179243546177" lon="11.691807864263714"><ele>288.0</ele><time>2026-03-22T10:39:11Z</time></trkpt><trkpt lat="43.36176183164664" lon="11.691958651131381"><ele>288.0</ele><time>2026-03-22T10:39:13Z</time></trkpt><trkpt lat="43.36173078468813" lon="11.692111621397737"><ele>288.0</ele><time>2026-03-22T10:39:15Z</time></trkpt><trkpt lat="43.36170047621879" lon="11.6922610704726"><ele>287.0</ele><time>2026-03-22T10:39:17Z</time></trkpt><trkpt lat="43.36167078910311" lon="11.69240298661784"><ele>286.0</ele><time>2026-03-22T10:39:19Z</time></trkpt><trkpt lat="43.36163995936309" lon="11.692550364960002"><ele>285.0</ele><time>2026-03-22T10:39:21Z</time></trkpt><trkpt lat="43.361608993741854" lon="11.692698392860763"><ele>284.0</ele><time>2026-03-22T10:39:23Z</time></trkpt><trkpt lat="43.36157767169729" lon="11.692848124607913"><ele>283.0</ele><time>2026-03-22T10:39:25Z</time></trkpt><trkpt lat="43.361546016527235" lon="11.693002566873538"><ele>282.5</ele><time>2026-03-22T10:39:27Z</time></trkpt><trkpt lat="43.361514725729016" lon="11.693156572011958"><ele>282.0</ele><time>2026-03-22T10:39:29Z</time></trkpt><trkpt lat="43.36148201170817" lon="11.693305962789953"><ele>281.5</ele><time>2026-03-22T10:39:31Z</time></trkpt><trkpt lat="43.36144624705471" lon="11.6934567944194"><ele>281.0</ele><time>2026-03-22T10:39:33Z</time></trkpt><trkpt lat="43.36140219286515" lon="11.693608102378764"><ele>281.0</ele><time>2026-03-22T10:39:35Z</time></trkpt><trkpt lat="43.361350409968644" lon="11.693748614583306"><ele>281.0</ele><time>2026-03-22T10:39:37Z</time></trkpt><trkpt lat="43.361281164368464" lon="11.693878055958326"><ele>281.0</ele><time>2026-03-22T10:39:39Z</time></trkpt><trkpt lat="43.361236579678184" lon="11.693941318263311"><ele>281.0</ele><time>2026-03-22T10:39:40Z</time></trkpt><trkpt lat="43.36118846632009" lon="11.693997997946925"><ele>281.0</ele><time>2026-03-22T10:39:41Z</time></trkpt><trkpt lat="43.36113737376489" lon="11.694055411960598"><ele>281.0</ele><time>2026-03-22T10:39:42Z</time></trkpt><trkpt lat="43.36108532311775" lon="11.69411403790967"><ele>281.00000000000006</ele><time>2026-03-22T10:39:43Z</time></trkpt><trkpt lat="43.36103272944534" lon="11.694170559512312"><ele>281.0</ele><time>2026-03-22T10:39:44Z</time></trkpt><trkpt lat="43.36097920860508" lon="11.69422758021076"><ele>281.0</ele><time>2026-03-22T10:39:45Z</time></trkpt><trkpt lat="43.36092595945815" lon="11.69428330882537"><ele>281.0</ele><time>2026-03-22T10:39:46Z</time></trkpt><trkpt lat="43.36087341587874" lon="11.694338278735986"><ele>281.0</ele><time>2026-03-22T10:39:47Z</time></trkpt><trkpt lat="43.36082131742755" lon="11.694392782969329"><ele>281.00000000000006</ele><time>2026-03-22T10:39:48Z</time></trkpt><trkpt lat="43.36076911807974" lon="11.69444739276526"><ele>281.0</ele><time>2026-03-22T10:39:48.999Z</time></trkpt><trkpt lat="43.36071825538024" lon="11.694500604176772"><ele>281.40000000000003</ele><time>2026-03-22T10:39:49.999Z</time></trkpt><trkpt lat="43.360667016940745" lon="11.694554208677399"><ele>281.8</ele><time>2026-03-22T10:39:50.999Z</time></trkpt><trkpt lat="43.36061570352794" lon="11.694607891625939"><ele>282.20000000000005</ele><time>2026-03-22T10:39:51.999Z</time></trkpt><trkpt lat="43.360518108187875" lon="11.694709993680046"><ele>282.6</ele><time>2026-03-22T10:39:53.999Z</time></trkpt><trkpt lat="43.36042765000862" lon="11.694804629026134"><ele>283.0</ele><time>2026-03-22T10:39:55.999Z</time></trkpt><trkpt lat="43.36033639401182" lon="11.694900098990843"><ele>283.0</ele><time>2026-03-22T10:39:57.999Z</time></trkpt><trkpt lat="43.36024722237735" lon="11.694993926970193"><ele>283.0</ele><time>2026-03-22T10:39:59.999Z</time></trkpt><trkpt lat="43.36016166085499" lon="11.69508399174615"><ele>283.0</ele><time>2026-03-22T10:40:01.999Z</time></trkpt><trkpt lat="43.360076500536984" lon="11.695173634171205"><ele>283.0</ele><time>2026-03-22T10:40:03.999Z</time></trkpt><trkpt lat="43.35999335694411" lon="11.695261153782825"><ele>283.0</ele><time>2026-03-22T10:40:05.999Z</time></trkpt><trkpt lat="43.35991096429881" lon="11.695350328681188"><ele>283.4</ele><time>2026-03-22T10:40:07.999Z</time></trkpt><trkpt lat="43.35982954739122" lon="11.695438221052262"><ele>283.8</ele><time>2026-03-22T10:40:09.999Z</time></trkpt><trkpt lat="43.359746370486555" lon="11.695528013403909"><ele>284.2</ele><time>2026-03-22T10:40:11.999Z</time></trkpt><trkpt lat="43.35966631634737" lon="11.69561443462153"><ele>284.6</ele><time>2026-03-22T10:40:13.999Z</time></trkpt><trkpt lat="43.35958433386965" lon="11.695702937553424"><ele>285.0</ele><time>2026-03-22T10:40:15.999Z</time></trkpt><trkpt lat="43.35949976830757" lon="11.69579329249865"><ele>285.0</ele><time>2026-03-22T10:40:17.999Z</time></trkpt><trkpt lat="43.35941421754676" lon="11.69588465672056"><ele>285.0</ele><time>2026-03-22T10:40:19.999Z</time></trkpt><trkpt lat="43.35932572945729" lon="11.695979071976437"><ele>285.0</ele><time>2026-03-22T10:40:21.999Z</time></trkpt><trkpt lat="43.359236610077346" lon="11.696073027843717"><ele>285.0</ele><time>2026-03-22T10:40:23.999Z</time></trkpt><trkpt lat="43.359144955811374" lon="11.696169656166921"><ele>285.0</ele><time>2026-03-22T10:40:25.999Z</time></trkpt><trkpt lat="43.35905254637409" lon="11.696267798420829"><ele>283.5</ele><time>2026-03-22T10:40:27.999Z</time></trkpt><trkpt lat="43.35896278718785" lon="11.696364663784856"><ele>282.0</ele><time>2026-03-22T10:40:29.999Z</time></trkpt><trkpt lat="43.358871761470496" lon="11.69646456281568"><ele>280.5</ele><time>2026-03-22T10:40:31.999Z</time></trkpt><trkpt lat="43.35878237135086" lon="11.696563721873595"><ele>279.0</ele><time>2026-03-22T10:40:33.999Z</time></trkpt><trkpt lat="43.3586962878041" lon="11.696657641788434"><ele>278.5</ele><time>2026-03-22T10:40:35.999Z</time></trkpt><trkpt lat="43.35860523387204" lon="11.696752716814322"><ele>278.0</ele><time>2026-03-22T10:40:37.999Z</time></trkpt><trkpt lat="43.358511777182656" lon="11.696843484062432"><ele>277.5</ele><time>2026-03-22T10:40:39.999Z</time></trkpt><trkpt lat="43.35841217584308" lon="11.696929547841544"><ele>277.0</ele><time>2026-03-22T10:40:41.998Z</time></trkpt><trkpt lat="43.35830896302924" lon="11.69700404983661"><ele>277.0</ele><time>2026-03-22T10:40:43.998Z</time></trkpt><trkpt lat="43.3582007827247" lon="11.697065145885134"><ele>277.0</ele><time>2026-03-22T10:40:45.998Z</time></trkpt><trkpt lat="43.358084573831306" lon="11.69711218081493"><ele>277.0</ele><time>2026-03-22T10:40:47.998Z</time></trkpt><trkpt lat="43.3579641616897" lon="11.69714857406074"><ele>277.0</ele><time>2026-03-22T10:40:49.998Z</time></trkpt><trkpt lat="43.357842239355264" lon="11.697171053072841"><ele>277.4</ele><time>2026-03-22T10:40:51.998Z</time></trkpt><trkpt lat="43.357716687666134" lon="11.697186239712419"><ele>277.79999999999995</ele><time>2026-03-22T10:40:53.998Z</time></trkpt><trkpt lat="43.35759410618389" lon="11.697208345988836"><ele>278.2</ele><time>2026-03-22T10:40:55.998Z</time></trkpt><trkpt lat="43.35746880080078" lon="11.697233888087904"><ele>278.59999999999997</ele><time>2026-03-22T10:40:57.998Z</time></trkpt><trkpt lat="43.35740467353863" lon="11.69725244172185"><ele>279.0</ele><time>2026-03-22T10:40:58.998Z</time></trkpt><trkpt lat="43.357340505345746" lon="11.697274434411135"><ele>279.0</ele><time>2026-03-22T10:40:59.998Z</time></trkpt><trkpt lat="43.3572769677217" lon="11.697298616128622"><ele>279.0</ele><time>2026-03-22T10:41:00.998Z</time></trkpt><trkpt lat="43.35721435728259" lon="11.697323635429408"><ele>279.0</ele><time>2026-03-22T10:41:01.998Z</time></trkpt><trkpt lat="43.35715209238387" lon="11.697349179991473"><ele>279.0</ele><time>2026-03-22T10:41:02.998Z</time></trkpt><trkpt lat="43.357030626039275" lon="11.697397935682575"><ele>279.0</ele><time>2026-03-22T10:41:04.998Z</time></trkpt><trkpt lat="43.3569698084203" lon="11.697422249871906"><ele>279.0</ele><time>2026-03-22T10:41:05.998Z</time></trkpt><trkpt lat="43.356907767829526" lon="11.697447052990393"><ele>280.0</ele><time>2026-03-22T10:41:06.998Z</time></trkpt><trkpt lat="43.35684625208511" lon="11.697471646279942"><ele>281.0</ele><time>2026-03-22T10:41:07.998Z</time></trkpt><trkpt lat="43.356785132622804" lon="11.69749608114755"><ele>282.0</ele><time>2026-03-22T10:41:08.998Z</time></trkpt><trkpt lat="43.35672370776228" lon="11.697520638118085"><ele>283.0</ele><time>2026-03-22T10:41:09.998Z</time></trkpt><trkpt lat="43.356604621927616" lon="11.697568497564472"><ele>284.0</ele><time>2026-03-22T10:41:11.998Z</time></trkpt><trkpt lat="43.35648788093842" lon="11.697615692103913"><ele>285.0</ele><time>2026-03-22T10:41:14Z</time></trkpt><trkpt lat="43.35637628377709" lon="11.697660807152554"><ele>285.75</ele><time>2026-03-22T10:41:16Z</time></trkpt><trkpt lat="43.3562664421856" lon="11.697705212490316"><ele>286.5</ele><time>2026-03-22T10:41:18Z</time></trkpt><trkpt lat="43.3561572628099" lon="11.697749350113776"><ele>287.25</ele><time>2026-03-22T10:41:20Z</time></trkpt><trkpt lat="43.3560485116006" lon="11.697793314645725"><ele>288.0</ele><time>2026-03-22T10:41:22Z</time></trkpt><trkpt lat="43.355936944965684" lon="11.697838417357602"><ele>285.8</ele><time>2026-03-22T10:41:24Z</time></trkpt><trkpt lat="43.35581957726667" lon="11.69788443185057"><ele>283.6</ele><time>2026-03-22T10:41:26Z</time></trkpt><trkpt lat="43.355700047567375" lon="11.697931257139345"><ele>281.4</ele><time>2026-03-22T10:41:28Z</time></trkpt><trkpt lat="43.35563648911896" lon="11.697956155909354"><ele>279.2</ele><time>2026-03-22T10:41:29Z</time></trkpt><trkpt lat="43.355572720996385" lon="11.697981136816042"><ele>277.0</ele><time>2026-03-22T10:41:30Z</time></trkpt><trkpt lat="43.355452803245946" lon="11.698028114112484"><ele>277.0</ele><time>2026-03-22T10:41:32Z</time></trkpt><trkpt lat="43.35539618465003" lon="11.698072253143355"><ele>277.0</ele><time>2026-03-22T10:41:33Z</time></trkpt><trkpt lat="43.3553331444448" lon="11.698095200938436"><ele>277.0</ele><time>2026-03-22T10:41:34Z</time></trkpt><trkpt lat="43.35522184351453" lon="11.698133603029603"><ele>277.0</ele><time>2026-03-22T10:41:36Z</time></trkpt><trkpt lat="43.35511067036027" lon="11.698169443192915"><ele>277.0</ele><time>2026-03-22T10:41:38Z</time></trkpt><trkpt lat="43.35500460509524" lon="11.698206077680467"><ele>277.0</ele><time>2026-03-22T10:41:40Z</time></trkpt><trkpt lat="43.35490568984467" lon="11.69824737337757"><ele>277.0</ele><time>2026-03-22T10:41:42Z</time></trkpt><trkpt lat="43.354838719606846" lon="11.698273565023257"><ele>277.0</ele><time>2026-03-22T10:41:44Z</time></trkpt><trkpt lat="43.354765881572234" lon="11.69831246435206"><ele>277.0</ele><time>2026-03-22T10:43:34Z</time></trkpt><trkpt lat="43.35470182683594" lon="11.698343412003352"><ele>277.0</ele><time>2026-03-22T10:43:37Z</time></trkpt><trkpt lat="43.35464008973688" lon="11.698371179642674"><ele>277.0</ele><time>2026-03-22T10:43:39Z</time></trkpt><trkpt lat="43.354570454636615" lon="11.698416572301207"><ele>277.2</ele><time>2026-03-22T10:43:41Z</time></trkpt><trkpt lat="43.35449263077781" lon="11.698467693655289"><ele>277.4</ele><time>2026-03-22T10:43:43Z</time></trkpt><trkpt lat="43.35441463666268" lon="11.698537346953717"><ele>277.6</ele><time>2026-03-22T10:43:45Z</time></trkpt><trkpt lat="43.35433086536653" lon="11.69862731163174"><ele>277.8</ele><time>2026-03-22T10:43:47Z</time></trkpt><trkpt lat="43.354252350966235" lon="11.698735034983509"><ele>278.0</ele><time>2026-03-22T10:43:49Z</time></trkpt><trkpt lat="43.3541816119815" lon="11.698867051657318"><ele>278.0</ele><time>2026-03-22T10:43:51Z</time></trkpt><trkpt lat="43.354128830996935" lon="11.699011932360017"><ele>278.0</ele><time>2026-03-22T10:43:53Z</time></trkpt><trkpt lat="43.35406691246681" lon="11.699154762811121"><ele>278.0</ele><time>2026-03-22T10:43:55Z</time></trkpt><trkpt lat="43.35400885654223" lon="11.699294844846731"><ele>278.0</ele><time>2026-03-22T10:43:57Z</time></trkpt><trkpt lat="43.35394135416" lon="11.699429915457275"><ele>277.4</ele><time>2026-03-22T10:43:59Z</time></trkpt><trkpt lat="43.353883462876354" lon="11.699574631995073"><ele>276.8</ele><time>2026-03-22T10:44:00.999Z</time></trkpt><trkpt lat="43.35382334433149" lon="11.699721977112048"><ele>276.2</ele><time>2026-03-22T10:44:02.999Z</time></trkpt><trkpt lat="43.35376124664978" lon="11.699866610148469"><ele>275.6</ele><time>2026-03-22T10:44:04.999Z</time></trkpt><trkpt lat="43.35373045351734" lon="11.699943093489654"><ele>275.0</ele><time>2026-03-22T10:44:05.999Z</time></trkpt><trkpt lat="43.35367258024615" lon="11.700084051084291"><ele>275.5</ele><time>2026-03-22T10:44:07.999Z</time></trkpt><trkpt lat="43.353610825828326" lon="11.700227952466909"><ele>276.0</ele><time>2026-03-22T10:44:09.999Z</time></trkpt><trkpt lat="43.35355037404205" lon="11.700372970081641"><ele>276.5</ele><time>2026-03-22T10:44:11.999Z</time></trkpt><trkpt lat="43.35348940499898" lon="11.700521282467776"><ele>277.0</ele><time>2026-03-22T10:44:13.999Z</time></trkpt><trkpt lat="43.35342671734909" lon="11.700672809257169"><ele>277.0</ele><time>2026-03-22T10:44:15.999Z</time></trkpt><trkpt lat="43.35336447084052" lon="11.700821984649666"><ele>277.0</ele><time>2026-03-22T10:44:17.999Z</time></trkpt><trkpt lat="43.353305436427846" lon="11.700962134923929"><ele>277.0</ele><time>2026-03-22T10:44:19.999Z</time></trkpt><trkpt lat="43.35325419326788" lon="11.701100361757893"><ele>277.0</ele><time>2026-03-22T10:44:21.999Z</time></trkpt><trkpt lat="43.353198473437985" lon="11.701229136723832"><ele>276.6</ele><time>2026-03-22T10:44:23.999Z</time></trkpt><trkpt lat="43.353146683519405" lon="11.701351528747113"><ele>276.2</ele><time>2026-03-22T10:44:25.999Z</time></trkpt><trkpt lat="43.35309666421841" lon="11.701463570873106"><ele>275.8</ele><time>2026-03-22T10:44:27.999Z</time></trkpt><trkpt lat="43.35304213951407" lon="11.701575811053617"><ele>275.4</ele><time>2026-03-22T10:44:29.999Z</time></trkpt><trkpt lat="43.3529793796252" lon="11.701682406246844"><ele>275.0</ele><time>2026-03-22T10:44:31.999Z</time></trkpt><trkpt lat="43.35291465208965" lon="11.701792329436879"><ele>275.8</ele><time>2026-03-22T10:44:33.999Z</time></trkpt><trkpt lat="43.35284228061834" lon="11.701899484494884"><ele>276.6</ele><time>2026-03-22T10:44:35.999Z</time></trkpt><trkpt lat="43.35276736255857" lon="11.702000736430941"><ele>277.4</ele><time>2026-03-22T10:44:37.999Z</time></trkpt><trkpt lat="43.35268132995107" lon="11.70210817483385"><ele>278.2</ele><time>2026-03-22T10:44:39.999Z</time></trkpt><trkpt lat="43.35259484724607" lon="11.702217215100575"><ele>279.0</ele><time>2026-03-22T10:44:41.999Z</time></trkpt><trkpt lat="43.35250652704288" lon="11.702324360623116"><ele>279.0</ele><time>2026-03-22T10:44:43.999Z</time></trkpt><trkpt lat="43.352414134839215" lon="11.70243513904488"><ele>279.0</ele><time>2026-03-22T10:44:45.999Z</time></trkpt><trkpt lat="43.35236410391493" lon="11.7024928153822"><ele>279.0</ele><time>2026-03-22T10:44:46.999Z</time></trkpt><trkpt lat="43.35231677363476" lon="11.702556372633506"><ele>279.0</ele><time>2026-03-22T10:44:47.999Z</time></trkpt><trkpt lat="43.35226577501345" lon="11.702611484172847"><ele>279.0</ele><time>2026-03-22T10:44:48.999Z</time></trkpt><trkpt lat="43.35221512850865" lon="11.70266901029858"><ele>279.0</ele><time>2026-03-22T10:44:49.998Z</time></trkpt><trkpt lat="43.35216495044" lon="11.702730840886582"><ele>278.85714285714283</ele><time>2026-03-22T10:44:50.998Z</time></trkpt><trkpt lat="43.35211282311827" lon="11.702791865158359"><ele>278.7142857142857</ele><time>2026-03-22T10:44:51.998Z</time></trkpt><trkpt lat="43.352062614093924" lon="11.702853222317003"><ele>278.57142857142856</ele><time>2026-03-22T10:44:52.998Z</time></trkpt><trkpt lat="43.35201290474815" lon="11.702914851010883"><ele>278.42857142857144</ele><time>2026-03-22T10:44:53.998Z</time></trkpt><trkpt lat="43.351963999512314" lon="11.70297383117937"><ele>278.2857142857143</ele><time>2026-03-22T10:44:54.998Z</time></trkpt><trkpt lat="43.35191440642939" lon="11.703034380155348"><ele>278.1428571428571</ele><time>2026-03-22T10:44:55.998Z</time></trkpt><trkpt lat="43.3518666341443" lon="11.703096621227592"><ele>278.0</ele><time>2026-03-22T10:44:56.998Z</time></trkpt><trkpt lat="43.35182022292458" lon="11.703163716048808"><ele>278.0</ele><time>2026-03-22T10:44:57.998Z</time></trkpt><trkpt lat="43.35177574198145" lon="11.703232670494135"><ele>278.0</ele><time>2026-03-22T10:44:58.998Z</time></trkpt><trkpt lat="43.35173354760137" lon="11.703308776349248"><ele>278.0</ele><time>2026-03-22T10:44:59.998Z</time></trkpt><trkpt lat="43.351693976991655" lon="11.70339269993444"><ele>278.0</ele><time>2026-03-22T10:45:00.998Z</time></trkpt><trkpt lat="43.3516509223644" lon="11.703468286364446"><ele>278.0</ele><time>2026-03-22T10:45:01.998Z</time></trkpt><trkpt lat="43.351635661041364" lon="11.70356213625589"><ele>278.0</ele><time>2026-03-22T10:45:02.998Z</time></trkpt><trkpt lat="43.35161415178209" lon="11.703653035457316"><ele>278.0</ele><time>2026-03-22T10:45:03.998Z</time></trkpt><trkpt lat="43.35159503483807" lon="11.703746172836864"><ele>277.85714285714283</ele><time>2026-03-22T10:45:04.998Z</time></trkpt><trkpt lat="43.351582355525245" lon="11.703842704554761"><ele>277.7142857142857</ele><time>2026-03-22T10:45:05.998Z</time></trkpt><trkpt lat="43.35157431117273" lon="11.70393662678892"><ele>277.57142857142856</ele><time>2026-03-22T10:45:06.998Z</time></trkpt><trkpt lat="43.35156516771046" lon="11.70403080924998"><ele>277.42857142857144</ele><time>2026-03-22T10:45:07.998Z</time></trkpt><trkpt lat="43.351557032937905" lon="11.70412583462126"><ele>277.2857142857143</ele><time>2026-03-22T10:45:08.998Z</time></trkpt><trkpt lat="43.351548633594696" lon="11.70421924334484"><ele>277.1428571428571</ele><time>2026-03-22T10:45:09.998Z</time></trkpt><trkpt lat="43.35154335307755" lon="11.704309774488"><ele>277.0</ele><time>2026-03-22T10:45:10.998Z</time></trkpt><trkpt lat="43.35153715065195" lon="11.704399718023282"><ele>277.2</ele><time>2026-03-22T10:45:11.998Z</time></trkpt><trkpt lat="43.35153127547673" lon="11.704489023146575"><ele>277.4</ele><time>2026-03-22T10:45:12.998Z</time></trkpt><trkpt lat="43.35152572392589" lon="11.704577815174083"><ele>277.6</ele><time>2026-03-22T10:45:13.998Z</time></trkpt><trkpt lat="43.351512936744925" lon="11.704745730452268"><ele>277.8</ele><time>2026-03-22T10:45:15.998Z</time></trkpt><trkpt lat="43.3514978064966" lon="11.704914106538162"><ele>278.0</ele><time>2026-03-22T10:45:17.998Z</time></trkpt><trkpt lat="43.3514860017502" lon="11.705080385489381"><ele>278.0</ele><time>2026-03-22T10:45:19.998Z</time></trkpt><trkpt lat="43.35147965852776" lon="11.705169279271546"><ele>278.0</ele><time>2026-03-22T10:45:20.998Z</time></trkpt><trkpt lat="43.351472575445186" lon="11.70525563445651"><ele>278.0</ele><time>2026-03-22T10:45:21.998Z</time></trkpt><trkpt lat="43.35146581467628" lon="11.705344402564878"><ele>278.0</ele><time>2026-03-22T10:45:22.998Z</time></trkpt><trkpt lat="43.35145902489457" lon="11.705431865055475"><ele>278.0</ele><time>2026-03-22T10:45:23.998Z</time></trkpt><trkpt lat="43.35145140445" lon="11.70552132355046"><ele>278.0</ele><time>2026-03-22T10:45:24.998Z</time></trkpt><trkpt lat="43.351444470854204" lon="11.705612244031864"><ele>278.0</ele><time>2026-03-22T10:45:26Z</time></trkpt><trkpt lat="43.35144007078133" lon="11.705703526759178"><ele>277.85714285714283</ele><time>2026-03-22T10:45:27Z</time></trkpt><trkpt lat="43.35143376813471" lon="11.705792454551634"><ele>277.7142857142857</ele><time>2026-03-22T10:45:28Z</time></trkpt><trkpt lat="43.35142762912707" lon="11.705883682674006"><ele>277.57142857142856</ele><time>2026-03-22T10:45:29Z</time></trkpt><trkpt lat="43.35141976045245" lon="11.705974790929565"><ele>277.42857142857144</ele><time>2026-03-22T10:45:30Z</time></trkpt><trkpt lat="43.35141503363383" lon="11.706065002570561"><ele>277.2857142857143</ele><time>2026-03-22T10:45:31Z</time></trkpt><trkpt lat="43.35141037149405" lon="11.706157175718861"><ele>277.1428571428571</ele><time>2026-03-22T10:45:32Z</time></trkpt><trkpt lat="43.35140499163023" lon="11.706248933008894"><ele>277.0</ele><time>2026-03-22T10:45:33Z</time></trkpt><trkpt lat="43.3513999969055" lon="11.706339493136557"><ele>277.0</ele><time>2026-03-22T10:45:34Z</time></trkpt><trkpt lat="43.351398695056815" lon="11.706428973733173"><ele>277.0</ele><time>2026-03-22T10:45:35Z</time></trkpt><trkpt lat="43.35139757267039" lon="11.706519259470083"><ele>277.0</ele><time>2026-03-22T10:45:36Z</time></trkpt><trkpt lat="43.35139849356032" lon="11.706606545647608"><ele>277.0</ele><time>2026-03-22T10:45:37Z</time></trkpt><trkpt lat="43.35140168647772" lon="11.706694500676555"><ele>277.0</ele><time>2026-03-22T10:45:38Z</time></trkpt><trkpt lat="43.351419077378644" lon="11.706863686674135"><ele>277.0</ele><time>2026-03-22T10:45:40Z</time></trkpt><trkpt lat="43.35144544902261" lon="11.707023605470667"><ele>277.0</ele><time>2026-03-22T10:45:42Z</time></trkpt><trkpt lat="43.35147245174852" lon="11.707184317679781"><ele>277.0</ele><time>2026-03-22T10:45:44Z</time></trkpt><trkpt lat="43.35150260684788" lon="11.707341869893902"><ele>277.0</ele><time>2026-03-22T10:45:46Z</time></trkpt><trkpt lat="43.351528985940256" lon="11.707501577285077"><ele>277.0</ele><time>2026-03-22T10:45:48Z</time></trkpt><trkpt lat="43.35155423779609" lon="11.707659129865158"><ele>276.6</ele><time>2026-03-22T10:45:50Z</time></trkpt><trkpt lat="43.351574681571876" lon="11.707820397024324"><ele>276.2</ele><time>2026-03-22T10:45:52Z</time></trkpt><trkpt lat="43.35158949015735" lon="11.70799014762495"><ele>275.8</ele><time>2026-03-22T10:45:54Z</time></trkpt><trkpt lat="43.35158846284875" lon="11.70816497918333"><ele>275.4</ele><time>2026-03-22T10:45:56Z</time></trkpt><trkpt lat="43.351586168217565" lon="11.708254625970486"><ele>275.0</ele><time>2026-03-22T10:45:57Z</time></trkpt><trkpt lat="43.351583934408666" lon="11.708346905172945"><ele>275.0</ele><time>2026-03-22T10:45:58Z</time></trkpt><trkpt lat="43.35158341636953" lon="11.708442913980036"><ele>275.0</ele><time>2026-03-22T10:45:59Z</time></trkpt><trkpt lat="43.351581326772546" lon="11.708541759931538"><ele>275.0</ele><time>2026-03-22T10:46:00Z</time></trkpt><trkpt lat="43.351573073875045" lon="11.70863747830859"><ele>275.0</ele><time>2026-03-22T10:46:01Z</time></trkpt><trkpt lat="43.35156977807371" lon="11.708735447076966"><ele>275.0</ele><time>2026-03-22T10:46:02Z</time></trkpt><trkpt lat="43.35156485495172" lon="11.708834771610054"><ele>275.0</ele><time>2026-03-22T10:46:03Z</time></trkpt><trkpt lat="43.35155988179543" lon="11.708935673499564"><ele>275.0</ele><time>2026-03-22T10:46:04Z</time></trkpt><trkpt lat="43.3515558817259" lon="11.709036115726711"><ele>274.7142857142857</ele><time>2026-03-22T10:46:05Z</time></trkpt><trkpt lat="43.351551480378156" lon="11.709134416010876"><ele>274.42857142857144</ele><time>2026-03-22T10:46:05.999Z</time></trkpt><trkpt lat="43.35154648694665" lon="11.709234245082028"><ele>274.1428571428571</ele><time>2026-03-22T10:46:06.999Z</time></trkpt><trkpt lat="43.35154295931628" lon="11.709334396521873"><ele>273.8571428571429</ele><time>2026-03-22T10:46:07.999Z</time></trkpt><trkpt lat="43.35153729904389" lon="11.709431504771736"><ele>273.57142857142856</ele><time>2026-03-22T10:46:08.999Z</time></trkpt><trkpt lat="43.35153424784878" lon="11.709528603420933"><ele>273.2857142857143</ele><time>2026-03-22T10:46:09.999Z</time></trkpt><trkpt lat="43.35153209697342" lon="11.709626157838256"><ele>273.0</ele><time>2026-03-22T10:46:10.999Z</time></trkpt><trkpt lat="43.35152751400011" lon="11.709720241460067"><ele>273.0</ele><time>2026-03-22T10:46:11.999Z</time></trkpt><trkpt lat="43.35152269869527" lon="11.709815097267827"><ele>273.0</ele><time>2026-03-22T10:46:12.999Z</time></trkpt><trkpt lat="43.35151907361532" lon="11.709904784397901"><ele>273.0</ele><time>2026-03-22T10:46:13.999Z</time></trkpt><trkpt lat="43.35151774112001" lon="11.710001787263383"><ele>273.0</ele><time>2026-03-22T10:46:14.999Z</time></trkpt><trkpt lat="43.35151106925384" lon="11.71009831274911"><ele>273.0</ele><time>2026-03-22T10:46:15.999Z</time></trkpt><trkpt lat="43.35150694968123" lon="11.710191486859213"><ele>273.0</ele><time>2026-03-22T10:46:16.999Z</time></trkpt><trkpt lat="43.351502702444826" lon="11.710282539795932"><ele>273.0</ele><time>2026-03-22T10:46:17.999Z</time></trkpt><trkpt lat="43.3514977377645" lon="11.710373009725727"><ele>272.7142857142857</ele><time>2026-03-22T10:46:18.999Z</time></trkpt><trkpt lat="43.35149391404518" lon="11.710466379038499"><ele>272.42857142857144</ele><time>2026-03-22T10:46:19.999Z</time></trkpt><trkpt lat="43.35149194652797" lon="11.71055840407952"><ele>272.1428571428571</ele><time>2026-03-22T10:46:20.999Z</time></trkpt><trkpt lat="43.351487452342134" lon="11.710650171689869"><ele>271.8571428571429</ele><time>2026-03-22T10:46:21.999Z</time></trkpt><trkpt lat="43.351484841506974" lon="11.710743272024573"><ele>271.57142857142856</ele><time>2026-03-22T10:46:22.999Z</time></trkpt><trkpt lat="43.35148046050021" lon="11.710835559061538"><ele>271.2857142857143</ele><time>2026-03-22T10:46:23.999Z</time></trkpt><trkpt lat="43.351478453455925" lon="11.71092961288129"><ele>271.0</ele><time>2026-03-22T10:46:24.999Z</time></trkpt><trkpt lat="43.351473468789436" lon="11.711020836109467"><ele>270.85714285714283</ele><time>2026-03-22T10:46:25.999Z</time></trkpt><trkpt lat="43.35146976737551" lon="11.711113335585132"><ele>270.7142857142857</ele><time>2026-03-22T10:46:26.999Z</time></trkpt><trkpt lat="43.35146722082968" lon="11.71120378181527"><ele>270.57142857142856</ele><time>2026-03-22T10:46:27.999Z</time></trkpt><trkpt lat="43.35146361568111" lon="11.711293781097229"><ele>270.42857142857144</ele><time>2026-03-22T10:46:28.999Z</time></trkpt><trkpt lat="43.3514600059612" lon="11.711382611857509"><ele>270.2857142857143</ele><time>2026-03-22T10:46:29.999Z</time></trkpt><trkpt lat="43.35145727523289" lon="11.711470985230296"><ele>270.1428571428571</ele><time>2026-03-22T10:46:30.999Z</time></trkpt><trkpt lat="43.351453871067946" lon="11.711559776373688"><ele>270.0</ele><time>2026-03-22T10:46:31.999Z</time></trkpt><trkpt lat="43.35144888448397" lon="11.71173633839664"><ele>270.0</ele><time>2026-03-22T10:46:33.999Z</time></trkpt><trkpt lat="43.3514439451003" lon="11.711825583076228"><ele>270.0</ele><time>2026-03-22T10:46:34.999Z</time></trkpt><trkpt lat="43.351441619518646" lon="11.711915912819823"><ele>270.0</ele><time>2026-03-22T10:46:35.999Z</time></trkpt><trkpt lat="43.351438466914054" lon="11.712007260501458"><ele>270.0</ele><time>2026-03-22T10:46:36.999Z</time></trkpt><trkpt lat="43.35143613230109" lon="11.712098840027572"><ele>270.0</ele><time>2026-03-22T10:46:37.999Z</time></trkpt><trkpt lat="43.351432106060244" lon="11.712191052748427"><ele>270.0</ele><time>2026-03-22T10:46:38.999Z</time></trkpt><trkpt lat="43.35142910315298" lon="11.712281556749026"><ele>270.0</ele><time>2026-03-22T10:46:39.999Z</time></trkpt><trkpt lat="43.35142410824334" lon="11.712372551052223"><ele>270.0</ele><time>2026-03-22T10:46:40.999Z</time></trkpt><trkpt lat="43.35141899801854" lon="11.712463616567016"><ele>270.0</ele><time>2026-03-22T10:46:41.999Z</time></trkpt><trkpt lat="43.35141580094407" lon="11.71255380184281"><ele>270.0</ele><time>2026-03-22T10:46:42.999Z</time></trkpt><trkpt lat="43.35141188930162" lon="11.712643167253022"><ele>270.0</ele><time>2026-03-22T10:46:43.999Z</time></trkpt><trkpt lat="43.35140798037752" lon="11.712734826890978"><ele>270.0</ele><time>2026-03-22T10:46:44.999Z</time></trkpt><trkpt lat="43.351403886901444" lon="11.71282646541369"><ele>270.0</ele><time>2026-03-22T10:46:45.999Z</time></trkpt><trkpt lat="43.351401657342656" lon="11.71291718188014"><ele>270.0</ele><time>2026-03-22T10:46:46.999Z</time></trkpt><trkpt lat="43.351400486592304" lon="11.713010164415353"><ele>270.0</ele><time>2026-03-22T10:46:47.999Z</time></trkpt><trkpt lat="43.35139355698817" lon="11.713101633433958"><ele>270.0</ele><time>2026-03-22T10:46:48.999Z</time></trkpt><trkpt lat="43.3513907490239" lon="11.713188787534191"><ele>270.0</ele><time>2026-03-22T10:46:49.999Z</time></trkpt><trkpt lat="43.35138408643392" lon="11.713366445038949"><ele>270.0</ele><time>2026-03-22T10:46:51.999Z</time></trkpt><trkpt lat="43.35137713793568" lon="11.713455736306333"><ele>270.0</ele><time>2026-03-22T10:46:52.999Z</time></trkpt><trkpt lat="43.3513723865834" lon="11.713545745919514"><ele>270.0</ele><time>2026-03-22T10:46:53.998Z</time></trkpt><trkpt lat="43.351368466848825" lon="11.713634122370928"><ele>270.0</ele><time>2026-03-22T10:46:54.998Z</time></trkpt><trkpt lat="43.351361723900176" lon="11.713806689792344"><ele>270.0</ele><time>2026-03-22T10:46:56.998Z</time></trkpt><trkpt lat="43.35135355836734" lon="11.713976342150646"><ele>270.0</ele><time>2026-03-22T10:46:58.998Z</time></trkpt><trkpt lat="43.351345968012915" lon="11.714142443907843"><ele>270.0</ele><time>2026-03-22T10:47:00.998Z</time></trkpt><trkpt lat="43.35133904929154" lon="11.714310008147068"><ele>270.0</ele><time>2026-03-22T10:47:02.998Z</time></trkpt><trkpt lat="43.351329874251384" lon="11.714474954918979"><ele>270.0</ele><time>2026-03-22T10:47:04.998Z</time></trkpt><trkpt lat="43.35132411395135" lon="11.71463812400798"><ele>270.0</ele><time>2026-03-22T10:47:06.998Z</time></trkpt><trkpt lat="43.35131755096429" lon="11.714796830409211"><ele>270.0</ele><time>2026-03-22T10:47:08.998Z</time></trkpt><trkpt lat="43.351310293863165" lon="11.714954261539729"><ele>270.0</ele><time>2026-03-22T10:47:10.998Z</time></trkpt><trkpt lat="43.3513022841746" lon="11.715108421439146"><ele>270.0</ele><time>2026-03-22T10:47:12.998Z</time></trkpt><trkpt lat="43.3512891780848" lon="11.715263819834167"><ele>270.0</ele><time>2026-03-22T10:47:14.998Z</time></trkpt><trkpt lat="43.35126190768369" lon="11.715421761196342"><ele>270.0</ele><time>2026-03-22T10:47:16.998Z</time></trkpt><trkpt lat="43.351220233610405" lon="11.715575269302434"><ele>269.75</ele><time>2026-03-22T10:47:18.998Z</time></trkpt><trkpt lat="43.351162502065236" lon="11.715722324405508"><ele>269.5</ele><time>2026-03-22T10:47:20.998Z</time></trkpt><trkpt lat="43.35108686661483" lon="11.715851727053828"><ele>269.25</ele><time>2026-03-22T10:47:22.998Z</time></trkpt><trkpt lat="43.35100076498673" lon="11.715967635639274"><ele>269.0</ele><time>2026-03-22T10:47:24.998Z</time></trkpt><trkpt lat="43.35090562791441" lon="11.716068171048745"><ele>269.0</ele><time>2026-03-22T10:47:26.998Z</time></trkpt><trkpt lat="43.350798059926674" lon="11.716144582665924"><ele>269.0</ele><time>2026-03-22T10:47:28.998Z</time></trkpt><trkpt lat="43.35068539064777" lon="11.716206876129405"><ele>269.0</ele><time>2026-03-22T10:47:30.998Z</time></trkpt><trkpt lat="43.35056408808124" lon="11.71624819368252"><ele>269.0</ele><time>2026-03-22T10:47:33Z</time></trkpt><trkpt lat="43.35050091411982" lon="11.716267719520708"><ele>269.0</ele><time>2026-03-22T10:47:34Z</time></trkpt><trkpt lat="43.350378485223025" lon="11.716300114100328"><ele>269.0</ele><time>2026-03-22T10:47:36Z</time></trkpt><trkpt lat="43.35031511461669" lon="11.71632039288184"><ele>269.0</ele><time>2026-03-22T10:47:37Z</time></trkpt><trkpt lat="43.35019281846898" lon="11.716360161180289"><ele>269.0</ele><time>2026-03-22T10:47:39Z</time></trkpt><trkpt lat="43.35013121081343" lon="11.716380111809581"><ele>269.0</ele><time>2026-03-22T10:47:40Z</time></trkpt><trkpt lat="43.350068685157986" lon="11.716401950392754"><ele>269.0</ele><time>2026-03-22T10:47:41Z</time></trkpt><trkpt lat="43.34995114371661" lon="11.716464725795566"><ele>269.0</ele><time>2026-03-22T10:47:43Z</time></trkpt><trkpt lat="43.34989346452157" lon="11.716504696870013"><ele>269.0</ele><time>2026-03-22T10:47:44Z</time></trkpt><trkpt lat="43.34983739508111" lon="11.71654712094955"><ele>269.0</ele><time>2026-03-22T10:47:45Z</time></trkpt><trkpt lat="43.34978422374598" lon="11.716594570029535"><ele>269.0</ele><time>2026-03-22T10:47:46Z</time></trkpt><trkpt lat="43.34973153011189" lon="11.716646214145452"><ele>269.0</ele><time>2026-03-22T10:47:47Z</time></trkpt><trkpt lat="43.34968503606883" lon="11.716706065924363"><ele>269.0</ele><time>2026-03-22T10:47:48Z</time></trkpt><trkpt lat="43.349641650409815" lon="11.716770384715943"><ele>269.0</ele><time>2026-03-22T10:47:49Z</time></trkpt><trkpt lat="43.34956367337291" lon="11.716905752562296"><ele>269.0</ele><time>2026-03-22T10:47:51Z</time></trkpt><trkpt lat="43.349532369786964" lon="11.716982235562789"><ele>269.0</ele><time>2026-03-22T10:47:52Z</time></trkpt><trkpt lat="43.34950322032271" lon="11.71706003795559"><ele>269.0</ele><time>2026-03-22T10:47:53Z</time></trkpt><trkpt lat="43.34947724725025" lon="11.717139479221531"><ele>269.0</ele><time>2026-03-22T10:47:54Z</time></trkpt><trkpt lat="43.349450244807606" lon="11.717220074943787"><ele>269.0</ele><time>2026-03-22T10:47:55Z</time></trkpt><trkpt lat="43.34942336850364" lon="11.717302183608485"><ele>269.0</ele><time>2026-03-22T10:47:56Z</time></trkpt><trkpt lat="43.34939879523718" lon="11.717384420171783"><ele>269.0</ele><time>2026-03-22T10:47:57Z</time></trkpt><trkpt lat="43.349374802758625" lon="11.717468229855166"><ele>269.0</ele><time>2026-03-22T10:47:58Z</time></trkpt><trkpt lat="43.34934690934178" lon="11.71755021256657"><ele>269.0</ele><time>2026-03-22T10:47:59Z</time></trkpt><trkpt lat="43.349322716096204" lon="11.71763279475646"><ele>269.0</ele><time>2026-03-22T10:48:00Z</time></trkpt><trkpt lat="43.34929794859561" lon="11.717713885823636"><ele>269.0</ele><time>2026-03-22T10:48:01Z</time></trkpt><trkpt lat="43.34927345084477" lon="11.71779463097468"><ele>269.0</ele><time>2026-03-22T10:48:02Z</time></trkpt><trkpt lat="43.349249492250046" lon="11.717875821801838"><ele>269.0</ele><time>2026-03-22T10:48:03Z</time></trkpt><trkpt lat="43.34919853322689" lon="11.718034293667152"><ele>269.0</ele><time>2026-03-22T10:48:05Z</time></trkpt><trkpt lat="43.34914930696231" lon="11.718191786942933"><ele>268.5</ele><time>2026-03-22T10:48:06.999Z</time></trkpt><trkpt lat="43.34910443886753" lon="11.7183475994177"><ele>268.0</ele><time>2026-03-22T10:48:08.999Z</time></trkpt><trkpt lat="43.34906306694216" lon="11.718505130626113"><ele>267.5</ele><time>2026-03-22T10:48:10.999Z</time></trkpt><trkpt lat="43.34902956489356" lon="11.718665642774267"><ele>267.0</ele><time>2026-03-22T10:48:12.999Z</time></trkpt><trkpt lat="43.34899231789756" lon="11.718828578038782"><ele>267.0</ele><time>2026-03-22T10:48:14.999Z</time></trkpt><trkpt lat="43.34896243022998" lon="11.718994693759914"><ele>267.0</ele><time>2026-03-22T10:48:16.999Z</time></trkpt><trkpt lat="43.34892817813439" lon="11.719163247044616"><ele>267.0</ele><time>2026-03-22T10:48:18.999Z</time></trkpt><trkpt lat="43.34891228194631" lon="11.719248365702823"><ele>267.0</ele><time>2026-03-22T10:48:19.999Z</time></trkpt><trkpt lat="43.348882961057335" lon="11.719415881879991"><ele>267.0</ele><time>2026-03-22T10:48:21.999Z</time></trkpt><trkpt lat="43.34885035800327" lon="11.71958083621174"><ele>267.25</ele><time>2026-03-22T10:48:23.999Z</time></trkpt><trkpt lat="43.348821163256304" lon="11.719743709888375"><ele>267.5</ele><time>2026-03-22T10:48:25.999Z</time></trkpt><trkpt lat="43.348790362251556" lon="11.719902781020279"><ele>267.75</ele><time>2026-03-22T10:48:27.999Z</time></trkpt><trkpt lat="43.34875781822102" lon="11.720069380398975"><ele>268.0</ele><time>2026-03-22T10:48:29.999Z</time></trkpt><trkpt lat="43.34872643368013" lon="11.720229160389021"><ele>268.0</ele><time>2026-03-22T10:48:31.999Z</time></trkpt><trkpt lat="43.348687050605065" lon="11.720384381548465"><ele>268.0</ele><time>2026-03-22T10:48:33.999Z</time></trkpt><trkpt lat="43.348646922919215" lon="11.720531010129964"><ele>268.0</ele><time>2026-03-22T10:48:35.999Z</time></trkpt><trkpt lat="43.34859707897826" lon="11.72067191428165"><ele>268.0</ele><time>2026-03-22T10:48:37.999Z</time></trkpt><trkpt lat="43.34854365627523" lon="11.72080669584452"><ele>268.0</ele><time>2026-03-22T10:48:39.999Z</time></trkpt><trkpt lat="43.34848770349976" lon="11.72094504820011"><ele>268.0</ele><time>2026-03-22T10:48:41.999Z</time></trkpt><trkpt lat="43.34843088183938" lon="11.721083041945024"><ele>268.0</ele><time>2026-03-22T10:48:43.999Z</time></trkpt><trkpt lat="43.34837083660108" lon="11.721218320289513"><ele>268.0</ele><time>2026-03-22T10:48:45.999Z</time></trkpt><trkpt lat="43.34833403188825" lon="11.721288988176939"><ele>268.0</ele><time>2026-03-22T10:48:46.999Z</time></trkpt><trkpt lat="43.348269443686156" lon="11.721420397431737"><ele>268.0</ele><time>2026-03-22T10:48:48.999Z</time></trkpt><trkpt lat="43.34819727934396" lon="11.72154940114064"><ele>268.0</ele><time>2026-03-22T10:48:50.999Z</time></trkpt><trkpt lat="43.34811949777241" lon="11.721675263603593"><ele>268.0</ele><time>2026-03-22T10:48:52.999Z</time></trkpt><trkpt lat="43.34803978504121" lon="11.721794927050434"><ele>268.0</ele><time>2026-03-22T10:48:54.998Z</time></trkpt><trkpt lat="43.34796395367512" lon="11.721913454134727"><ele>268.25</ele><time>2026-03-22T10:48:56.998Z</time></trkpt><trkpt lat="43.34788518791439" lon="11.722032898610728"><ele>268.5</ele><time>2026-03-22T10:48:58.998Z</time></trkpt><trkpt lat="43.34780625785899" lon="11.722155868512598"><ele>268.75</ele><time>2026-03-22T10:49:00.998Z</time></trkpt><trkpt lat="43.34772836494326" lon="11.72227677904613"><ele>269.0</ele><time>2026-03-22T10:49:02.998Z</time></trkpt><trkpt lat="43.34764919382778" lon="11.722399628474111"><ele>269.0</ele><time>2026-03-22T10:49:04.998Z</time></trkpt><trkpt lat="43.34756713475552" lon="11.722525968736981"><ele>269.0</ele><time>2026-03-22T10:49:06.998Z</time></trkpt><trkpt lat="43.34748300903582" lon="11.722650394378"><ele>269.0</ele><time>2026-03-22T10:49:08.998Z</time></trkpt><trkpt lat="43.347396064238765" lon="11.722757037465586"><ele>269.0</ele><time>2026-03-22T10:49:10.998Z</time></trkpt><trkpt lat="43.347297718296076" lon="11.722853119274848"><ele>268.5</ele><time>2026-03-22T10:49:12.998Z</time></trkpt><trkpt lat="43.34719017863206" lon="11.722929573226667"><ele>268.0</ele><time>2026-03-22T10:49:14.998Z</time></trkpt><trkpt lat="43.34707114456034" lon="11.722983211517606"><ele>267.5</ele><time>2026-03-22T10:49:16.998Z</time></trkpt><trkpt lat="43.34695304940935" lon="11.723016917599216"><ele>267.0</ele><time>2026-03-22T10:49:18.998Z</time></trkpt><trkpt lat="43.346830183341766" lon="11.723018450766507"><ele>267.0</ele><time>2026-03-22T10:49:20.998Z</time></trkpt><trkpt lat="43.34670993697529" lon="11.723010857211637"><ele>267.0</ele><time>2026-03-22T10:49:22.998Z</time></trkpt><trkpt lat="43.34659443724066" lon="11.722992611538968"><ele>267.0</ele><time>2026-03-22T10:49:24.998Z</time></trkpt><trkpt lat="43.346478953681725" lon="11.72297697764265"><ele>267.0</ele><time>2026-03-22T10:49:26.998Z</time></trkpt><trkpt lat="43.34635829468256" lon="11.72295851570979"><ele>267.00000000000006</ele><time>2026-03-22T10:49:28.998Z</time></trkpt><trkpt lat="43.346236318562994" lon="11.722939839875217"><ele>267.0</ele><time>2026-03-22T10:49:30.998Z</time></trkpt><trkpt lat="43.346173274008684" lon="11.72293186102711"><ele>267.0</ele><time>2026-03-22T10:49:31.998Z</time></trkpt><trkpt lat="43.346107983805894" lon="11.722924842435306"><ele>267.0</ele><time>2026-03-22T10:49:32.998Z</time></trkpt><trkpt lat="43.34604392026611" lon="11.722913566024655"><ele>267.0</ele><time>2026-03-22T10:49:33.998Z</time></trkpt><trkpt lat="43.34597924339438" lon="11.722899767610727"><ele>267.00000000000006</ele><time>2026-03-22T10:49:34.998Z</time></trkpt><trkpt lat="43.34591535110744" lon="11.722886935728704"><ele>267.0</ele><time>2026-03-22T10:49:35.998Z</time></trkpt><trkpt lat="43.345849041924936" lon="11.722878141724046"><ele>267.00000000000006</ele><time>2026-03-22T10:49:36.998Z</time></trkpt><trkpt lat="43.34577976000362" lon="11.722867379103832"><ele>267.0</ele><time>2026-03-22T10:49:38Z</time></trkpt><trkpt lat="43.34571272909307" lon="11.722854587134192"><ele>267.0</ele><time>2026-03-22T10:49:39Z</time></trkpt><trkpt lat="43.34564585881169" lon="11.722845474024632"><ele>267.0</ele><time>2026-03-22T10:49:40Z</time></trkpt><trkpt lat="43.34557643261539" lon="11.722837789714559"><ele>267.0</ele><time>2026-03-22T10:49:41Z</time></trkpt><trkpt lat="43.345509060719245" lon="11.722826168144366"><ele>267.00000000000006</ele><time>2026-03-22T10:49:42Z</time></trkpt><trkpt lat="43.3454417006204" lon="11.722813327412121"><ele>267.0</ele><time>2026-03-22T10:49:43Z</time></trkpt><trkpt lat="43.34537283604099" lon="11.72280525843858"><ele>267.00000000000006</ele><time>2026-03-22T10:49:44Z</time></trkpt><trkpt lat="43.34530495683" lon="11.722788847882711"><ele>267.0</ele><time>2026-03-22T10:49:45Z</time></trkpt><trkpt lat="43.345238923850246" lon="11.72277441321262"><ele>267.0</ele><time>2026-03-22T10:49:46Z</time></trkpt><trkpt lat="43.345168552954945" lon="11.722765124566134"><ele>267.0</ele><time>2026-03-22T10:49:47Z</time></trkpt><trkpt lat="43.34510060683713" lon="11.722756577359196"><ele>267.0</ele><time>2026-03-22T10:49:48Z</time></trkpt><trkpt lat="43.345033096437" lon="11.722746982558771"><ele>267.00000000000006</ele><time>2026-03-22T10:49:49Z</time></trkpt><trkpt lat="43.34496640411837" lon="11.722735402024275"><ele>267.0</ele><time>2026-03-22T10:49:50Z</time></trkpt><trkpt lat="43.3449000703519" lon="11.722723764116402"><ele>267.14285714285717</ele><time>2026-03-22T10:49:51Z</time></trkpt><trkpt lat="43.344833711476646" lon="11.722713059819393"><ele>267.2857142857143</ele><time>2026-03-22T10:49:52Z</time></trkpt><trkpt lat="43.34476647019054" lon="11.722701117843851"><ele>267.42857142857144</ele><time>2026-03-22T10:49:53Z</time></trkpt><trkpt lat="43.34469970856643" lon="11.722689189544388"><ele>267.57142857142856</ele><time>2026-03-22T10:49:54Z</time></trkpt><trkpt lat="43.34463350218115" lon="11.722679522426564"><ele>267.7142857142857</ele><time>2026-03-22T10:49:55Z</time></trkpt><trkpt lat="43.34456390383971" lon="11.722668018548768"><ele>267.8571428571429</ele><time>2026-03-22T10:49:56Z</time></trkpt><trkpt lat="43.34449739311892" lon="11.722656988078223"><ele>268.0</ele><time>2026-03-22T10:49:57Z</time></trkpt><trkpt lat="43.344428526632946" lon="11.72264975088481"><ele>268.14285714285717</ele><time>2026-03-22T10:49:58Z</time></trkpt><trkpt lat="43.34436143337289" lon="11.72263454202293"><ele>268.2857142857143</ele><time>2026-03-22T10:49:59Z</time></trkpt><trkpt lat="43.344292995674024" lon="11.722620203115742"><ele>268.42857142857144</ele><time>2026-03-22T10:50:00Z</time></trkpt><trkpt lat="43.34422853680377" lon="11.722610647812331"><ele>268.57142857142856</ele><time>2026-03-22T10:50:01Z</time></trkpt><trkpt lat="43.34415988453716" lon="11.722598157170346"><ele>268.7142857142857</ele><time>2026-03-22T10:50:02Z</time></trkpt><trkpt lat="43.3440915220731" lon="11.722587906673578"><ele>268.8571428571429</ele><time>2026-03-22T10:50:03Z</time></trkpt><trkpt lat="43.344023932218164" lon="11.722576740735576"><ele>269.0</ele><time>2026-03-22T10:50:04Z</time></trkpt><trkpt lat="43.34395741221893" lon="11.722564433824552"><ele>269.0</ele><time>2026-03-22T10:50:05Z</time></trkpt><trkpt lat="43.34389049818928" lon="11.722553391190536"><ele>269.0</ele><time>2026-03-22T10:50:06Z</time></trkpt><trkpt lat="43.343821731930696" lon="11.722541339640904"><ele>269.0</ele><time>2026-03-22T10:50:07Z</time></trkpt><trkpt lat="43.343753081276816" lon="11.722529849207502"><ele>269.0</ele><time>2026-03-22T10:50:07.999Z</time></trkpt><trkpt lat="43.343682854279876" lon="11.722519939251763"><ele>269.0</ele><time>2026-03-22T10:50:08.999Z</time></trkpt><trkpt lat="43.343618238958214" lon="11.722508858777404"><ele>269.0</ele><time>2026-03-22T10:50:09.999Z</time></trkpt><trkpt lat="43.34355218378661" lon="11.722499560545497"><ele>269.0</ele><time>2026-03-22T10:50:10.999Z</time></trkpt><trkpt lat="43.34348657372043" lon="11.722493187269015"><ele>268.8571428571429</ele><time>2026-03-22T10:50:11.999Z</time></trkpt><trkpt lat="43.34342124263396" lon="11.722493472200016"><ele>268.7142857142857</ele><time>2026-03-22T10:50:12.999Z</time></trkpt><trkpt lat="43.34335625259719" lon="11.722498531760126"><ele>268.57142857142856</ele><time>2026-03-22T10:50:13.999Z</time></trkpt><trkpt lat="43.343292310578605" lon="11.722508616873506"><ele>268.42857142857144</ele><time>2026-03-22T10:50:14.999Z</time></trkpt><trkpt lat="43.34322731646732" lon="11.72252219708059"><ele>268.2857142857143</ele><time>2026-03-22T10:50:15.999Z</time></trkpt><trkpt lat="43.3431624997909" lon="11.722537539839498"><ele>268.14285714285717</ele><time>2026-03-22T10:50:16.999Z</time></trkpt><trkpt lat="43.343100173392166" lon="11.722558543451514"><ele>268.0</ele><time>2026-03-22T10:50:17.999Z</time></trkpt><trkpt lat="43.34303850675623" lon="11.722584052566626"><ele>268.0</ele><time>2026-03-22T10:50:18.999Z</time></trkpt><trkpt lat="43.34292344388097" lon="11.722660615724463"><ele>268.0</ele><time>2026-03-22T10:50:20.999Z</time></trkpt><trkpt lat="43.34281691430445" lon="11.722729709940088"><ele>268.0</ele><time>2026-03-22T10:50:22.999Z</time></trkpt><trkpt lat="43.3427196157335" lon="11.722811640343679"><ele>268.0</ele><time>2026-03-22T10:50:24.999Z</time></trkpt><trkpt lat="43.34261584356885" lon="11.722903415235947"><ele>268.0</ele><time>2026-03-22T10:50:26.999Z</time></trkpt><trkpt lat="43.34251194719761" lon="11.722995909956174"><ele>268.0</ele><time>2026-03-22T10:50:28.999Z</time></trkpt><trkpt lat="43.34240687550183" lon="11.723088507260151"><ele>268.0</ele><time>2026-03-22T10:50:30.999Z</time></trkpt><trkpt lat="43.34235346271102" lon="11.723138626396976"><ele>268.0</ele><time>2026-03-22T10:50:31.999Z</time></trkpt><trkpt lat="43.34224902414076" lon="11.723235529633596"><ele>268.0</ele><time>2026-03-22T10:50:33.999Z</time></trkpt><trkpt lat="43.34219487661701" lon="11.72328119687388"><ele>268.16666666666663</ele><time>2026-03-22T10:50:34.999Z</time></trkpt><trkpt lat="43.34213914385967" lon="11.72332613643206"><ele>268.3333333333333</ele><time>2026-03-22T10:50:35.999Z</time></trkpt><trkpt lat="43.34203124723693" lon="11.72342477311139"><ele>268.5</ele><time>2026-03-22T10:50:37.999Z</time></trkpt><trkpt lat="43.34197349427245" lon="11.723477492544928"><ele>268.6666666666667</ele><time>2026-03-22T10:50:38.999Z</time></trkpt><trkpt lat="43.341919317158435" lon="11.723526157508234"><ele>268.83333333333337</ele><time>2026-03-22T10:50:39.999Z</time></trkpt><trkpt lat="43.341822917600034" lon="11.723615924644884"><ele>269.0</ele><time>2026-03-22T10:50:41.999Z</time></trkpt><trkpt lat="43.34177356774531" lon="11.72366988790157"><ele>269.0</ele><time>2026-03-22T10:50:42.999Z</time></trkpt><trkpt lat="43.341668703369336" lon="11.723756992695561"><ele>269.0</ele><time>2026-03-22T10:50:44.999Z</time></trkpt><trkpt lat="43.34156225025678" lon="11.723833591098908"><ele>269.0</ele><time>2026-03-22T10:50:46.999Z</time></trkpt><trkpt lat="43.341461402089806" lon="11.723917871822572"><ele>269.0</ele><time>2026-03-22T10:50:48.999Z</time></trkpt><trkpt lat="43.341368100934424" lon="11.724008710315502"><ele>269.0</ele><time>2026-03-22T10:50:50.999Z</time></trkpt><trkpt lat="43.34127716138543" lon="11.724077007273701"><ele>269.0</ele><time>2026-03-22T10:50:52.999Z</time></trkpt><trkpt lat="43.34119106405161" lon="11.724152165509565"><ele>269.0</ele><time>2026-03-22T10:50:54.999Z</time></trkpt><trkpt lat="43.34111309235223" lon="11.72422080244853"><ele>269.0</ele><time>2026-03-22T10:50:56.999Z</time></trkpt><trkpt lat="43.34102374244694" lon="11.724301320711712"><ele>269.0</ele><time>2026-03-22T10:50:58.999Z</time></trkpt><trkpt lat="43.340927475309755" lon="11.724384994791507"><ele>269.0</ele><time>2026-03-22T10:51:00.998Z</time></trkpt><trkpt lat="43.34083816352715" lon="11.724465713045712"><ele>269.0</ele><time>2026-03-22T10:51:02.998Z</time></trkpt><trkpt lat="43.3407459554716" lon="11.724543796991574"><ele>269.0</ele><time>2026-03-22T10:51:04.998Z</time></trkpt><trkpt lat="43.340651375958544" lon="11.724631240328295"><ele>269.0</ele><time>2026-03-22T10:51:06.998Z</time></trkpt><trkpt lat="43.34055217767466" lon="11.724711942935498"><ele>269.0</ele><time>2026-03-22T10:51:08.998Z</time></trkpt><trkpt lat="43.34045426152579" lon="11.724802492439787"><ele>269.0</ele><time>2026-03-22T10:51:10.998Z</time></trkpt><trkpt lat="43.34035762118079" lon="11.724892734772597"><ele>269.0</ele><time>2026-03-22T10:51:12.998Z</time></trkpt><trkpt lat="43.340247896852055" lon="11.72497181012441"><ele>269.0</ele><time>2026-03-22T10:51:14.998Z</time></trkpt><trkpt lat="43.34015696722" lon="11.725056359594726"><ele>269.0</ele><time>2026-03-22T10:51:16.998Z</time></trkpt><trkpt lat="43.34010186262168" lon="11.725113253261137"><ele>269.0</ele><time>2026-03-22T10:51:17.998Z</time></trkpt><trkpt lat="43.34004739448257" lon="11.725165516388037"><ele>269.0</ele><time>2026-03-22T10:51:18.998Z</time></trkpt><trkpt lat="43.339991379992895" lon="11.725212700810166"><ele>269.0</ele><time>2026-03-22T10:51:19.998Z</time></trkpt><trkpt lat="43.3398834567985" lon="11.725305632177445"><ele>269.0</ele><time>2026-03-22T10:51:21.998Z</time></trkpt><trkpt lat="43.33978072734569" lon="11.725403511534033"><ele>269.0</ele><time>2026-03-22T10:51:23.998Z</time></trkpt><trkpt lat="43.339676102638954" lon="11.725497135591255"><ele>269.0</ele><time>2026-03-22T10:51:25.998Z</time></trkpt><trkpt lat="43.339574556332224" lon="11.725594275667264"><ele>269.2</ele><time>2026-03-22T10:51:27.998Z</time></trkpt><trkpt lat="43.339474571539654" lon="11.725685100946782"><ele>269.4</ele><time>2026-03-22T10:51:29.998Z</time></trkpt><trkpt lat="43.33938647069176" lon="11.725768250825013"><ele>269.6</ele><time>2026-03-22T10:51:31.998Z</time></trkpt><trkpt lat="43.33929995827116" lon="11.72583616720227"><ele>269.8</ele><time>2026-03-22T10:51:33.998Z</time></trkpt><trkpt lat="43.33921062021761" lon="11.725886196127432"><ele>270.0</ele><time>2026-03-22T10:51:35.998Z</time></trkpt><trkpt lat="43.3391080833098" lon="11.725920277793085"><ele>270.0</ele><time>2026-03-22T10:51:37.998Z</time></trkpt><trkpt lat="43.33899670318535" lon="11.725936303291403"><ele>270.0</ele><time>2026-03-22T10:51:39.998Z</time></trkpt><trkpt lat="43.33888240606303" lon="11.725936052020039"><ele>270.0</ele><time>2026-03-22T10:51:41.998Z</time></trkpt><trkpt lat="43.33876218593232" lon="11.725922908255397"><ele>270.0</ele><time>2026-03-22T10:51:44Z</time></trkpt><trkpt lat="43.33863978621254" lon="11.725896407029165"><ele>270.0</ele><time>2026-03-22T10:51:46Z</time></trkpt><trkpt lat="43.338515716353065" lon="11.725867690279886"><ele>270.0</ele><time>2026-03-22T10:51:48Z</time></trkpt><trkpt lat="43.33845164852188" lon="11.725852148528453"><ele>270.0</ele><time>2026-03-22T10:51:49Z</time></trkpt><trkpt lat="43.33838829092252" lon="11.725841142708155"><ele>270.0</ele><time>2026-03-22T10:51:50Z</time></trkpt><trkpt lat="43.33832552330561" lon="11.725829443269038"><ele>270.0</ele><time>2026-03-22T10:51:51Z</time></trkpt><trkpt lat="43.33820542712243" lon="11.72580260950137"><ele>270.0</ele><time>2026-03-22T10:51:53Z</time></trkpt><trkpt lat="43.33809302105389" lon="11.725782503896752"><ele>270.0</ele><time>2026-03-22T10:51:55Z</time></trkpt><trkpt lat="43.337983859596285" lon="11.725769408648105"><ele>270.0</ele><time>2026-03-22T10:51:57Z</time></trkpt><trkpt lat="43.33787875725745" lon="11.725760450757436"><ele>270.0</ele><time>2026-03-22T10:51:59Z</time></trkpt><trkpt lat="43.33777754959587" lon="11.725748828143272"><ele>270.0</ele><time>2026-03-22T10:52:01Z</time></trkpt><trkpt lat="43.33766707099558" lon="11.725741633083203"><ele>270.0</ele><time>2026-03-22T10:52:03Z</time></trkpt><trkpt lat="43.33755022580084" lon="11.725741966872748"><ele>270.0</ele><time>2026-03-22T10:52:05Z</time></trkpt><trkpt lat="43.3374314567536" lon="11.725731908418863"><ele>270.0</ele><time>2026-03-22T10:52:07Z</time></trkpt><trkpt lat="43.33731223476688" lon="11.725727053393722"><ele>270.0</ele><time>2026-03-22T10:52:09Z</time></trkpt><trkpt lat="43.33720126941912" lon="11.725718341075137"><ele>270.0</ele><time>2026-03-22T10:52:11Z</time></trkpt><trkpt lat="43.33709475752598" lon="11.725715334827402"><ele>270.2</ele><time>2026-03-22T10:52:12.999Z</time></trkpt><trkpt lat="43.33698845487008" lon="11.725724032027763"><ele>270.4</ele><time>2026-03-22T10:52:14.999Z</time></trkpt><trkpt lat="43.33688449402668" lon="11.725731606399052"><ele>270.6</ele><time>2026-03-22T10:52:16.999Z</time></trkpt><trkpt lat="43.336784427546384" lon="11.725742430748438"><ele>270.8</ele><time>2026-03-22T10:52:18.999Z</time></trkpt><trkpt lat="43.33668931701481" lon="11.725757554784431"><ele>271.0</ele><time>2026-03-22T10:52:20.999Z</time></trkpt><trkpt lat="43.33659298590487" lon="11.72577467458746"><ele>271.0</ele><time>2026-03-22T10:52:22.999Z</time></trkpt><trkpt lat="43.336498670568815" lon="11.725792426911369"><ele>271.0</ele><time>2026-03-22T10:52:24.999Z</time></trkpt><trkpt lat="43.336405244432044" lon="11.72580156736308"><ele>271.0</ele><time>2026-03-22T10:52:26.999Z</time></trkpt><trkpt lat="43.33632296829396" lon="11.725829958505495"><ele>271.0</ele><time>2026-03-22T10:52:28.999Z</time></trkpt><trkpt lat="43.33625151568904" lon="11.72589510638683"><ele>271.0</ele><time>2026-03-22T10:52:30.999Z</time></trkpt><trkpt lat="43.336178779096166" lon="11.725953892032138"><ele>271.0</ele><time>2026-03-22T10:52:32.999Z</time></trkpt><trkpt lat="43.336146044114244" lon="11.726029041720928"><ele>270.8333333333333</ele><time>2026-03-22T10:53:37.998Z</time></trkpt><trkpt lat="43.336178677844984" lon="11.726107498158733"><ele>270.66666666666663</ele><time>2026-03-22T10:53:48.998Z</time></trkpt><trkpt lat="43.33615714150403" lon="11.726018965753182"><ele>270.5</ele><time>2026-03-22T10:54:17Z</time></trkpt><trkpt lat="43.3362273338106" lon="11.726065803349625"><ele>270.3333333333333</ele><time>2026-03-22T10:54:23Z</time></trkpt><trkpt lat="43.33614917228678" lon="11.726173567228653"><ele>270.1666666666667</ele><time>2026-03-22T10:55:07.999Z</time></trkpt><trkpt lat="43.336133558981025" lon="11.72608187608164"><ele>270.0</ele><time>2026-03-22T11:03:37.999Z</time></trkpt><trkpt lat="43.33618367563954" lon="11.726025309788279"><ele>270.0</ele><time>2026-03-22T11:03:43.998Z</time></trkpt><trkpt lat="43.33618557543223" lon="11.725937551371434"><ele>270.0</ele><time>2026-03-22T11:05:29.999Z</time></trkpt><trkpt lat="43.33611341096819" lon="11.725955799629062"><ele>270.0</ele><time>2026-03-22T11:05:34.999Z</time></trkpt><trkpt lat="43.336047652263794" lon="11.725981137153928"><ele>270.0</ele><time>2026-03-22T11:05:37.999Z</time></trkpt><trkpt lat="43.335989009307774" lon="11.726094623268061"><ele>270.0</ele><time>2026-03-22T11:05:40.999Z</time></trkpt><trkpt lat="43.33600697570254" lon="11.726250532757874"><ele>270.0</ele><time>2026-03-22T11:05:42.998Z</time></trkpt><trkpt lat="43.3360444099167" lon="11.726394529200634"><ele>269.75</ele><time>2026-03-22T11:05:44.998Z</time></trkpt><trkpt lat="43.336082171953215" lon="11.726538087992251"><ele>269.5</ele><time>2026-03-22T11:05:46.998Z</time></trkpt><trkpt lat="43.33612506718378" lon="11.726679582762067"><ele>269.25</ele><time>2026-03-22T11:05:48.998Z</time></trkpt><trkpt lat="43.33616638804249" lon="11.726836902137737"><ele>269.0</ele><time>2026-03-22T11:05:50.998Z</time></trkpt><trkpt lat="43.33620959485133" lon="11.726986979547666"><ele>268.5</ele><time>2026-03-22T11:05:52.998Z</time></trkpt><trkpt lat="43.33625260570302" lon="11.727138401814573"><ele>268.0</ele><time>2026-03-22T11:05:54.998Z</time></trkpt><trkpt lat="43.33629328338661" lon="11.72729521599707"><ele>267.5</ele><time>2026-03-22T11:05:56.998Z</time></trkpt><trkpt lat="43.33633535430932" lon="11.727452973590017"><ele>267.0</ele><time>2026-03-22T11:05:58.998Z</time></trkpt><trkpt lat="43.336375888000404" lon="11.727608993029149"><ele>266.5</ele><time>2026-03-22T11:06:00.998Z</time></trkpt><trkpt lat="43.336415088610465" lon="11.727765033060335"><ele>266.0</ele><time>2026-03-22T11:06:02.998Z</time></trkpt><trkpt lat="43.33645569722127" lon="11.727919558934037"><ele>265.5</ele><time>2026-03-22T11:06:04.998Z</time></trkpt><trkpt lat="43.336492995931316" lon="11.728069182930996"><ele>265.0</ele><time>2026-03-22T11:06:06.998Z</time></trkpt><trkpt lat="43.336534620952655" lon="11.7282227510588"><ele>265.0</ele><time>2026-03-22T11:06:08.998Z</time></trkpt><trkpt lat="43.33657519031206" lon="11.72838269733694"><ele>265.0</ele><time>2026-03-22T11:06:10.998Z</time></trkpt><trkpt lat="43.33659898339104" lon="11.728462967675197"><ele>265.0</ele><time>2026-03-22T11:06:11.998Z</time></trkpt><trkpt lat="43.33663983517484" lon="11.728623484201744"><ele>265.0</ele><time>2026-03-22T11:06:13.998Z</time></trkpt><trkpt lat="43.33668274620037" lon="11.728785728343123"><ele>265.0</ele><time>2026-03-22T11:06:15.998Z</time></trkpt><trkpt lat="43.33672061583874" lon="11.728949546714786"><ele>265.0</ele><time>2026-03-22T11:06:17.998Z</time></trkpt><trkpt lat="43.33676374430049" lon="11.729111110774642"><ele>265.0</ele><time>2026-03-22T11:06:19.998Z</time></trkpt><trkpt lat="43.33680281732268" lon="11.72926740204866"><ele>265.0</ele><time>2026-03-22T11:06:21.998Z</time></trkpt><trkpt lat="43.3368439442201" lon="11.72942674158755"><ele>265.0</ele><time>2026-03-22T11:06:24Z</time></trkpt><trkpt lat="43.336887941221754" lon="11.729587411166522"><ele>265.0</ele><time>2026-03-22T11:06:26Z</time></trkpt><trkpt lat="43.33692735301379" lon="11.729750055718505"><ele>265.0</ele><time>2026-03-22T11:06:28Z</time></trkpt><trkpt lat="43.336968985950264" lon="11.729911108951729"><ele>265.0</ele><time>2026-03-22T11:06:30Z</time></trkpt><trkpt lat="43.33699198953166" lon="11.729993867487446"><ele>265.0</ele><time>2026-03-22T11:06:31Z</time></trkpt><trkpt lat="43.33703417808268" lon="11.730145520024037"><ele>265.0</ele><time>2026-03-22T11:06:33Z</time></trkpt><trkpt lat="43.33707601375661" lon="11.730304125569747"><ele>265.0</ele><time>2026-03-22T11:06:35Z</time></trkpt><trkpt lat="43.33711923654999" lon="11.73046221168338"><ele>265.0</ele><time>2026-03-22T11:06:37Z</time></trkpt><trkpt lat="43.337159244247914" lon="11.730618001108288"><ele>265.0</ele><time>2026-03-22T11:06:39Z</time></trkpt><trkpt lat="43.33720267515559" lon="11.730775478287613"><ele>265.0</ele><time>2026-03-22T11:06:41Z</time></trkpt><trkpt lat="43.3372439964596" lon="11.730931968316408"><ele>265.0</ele><time>2026-03-22T11:06:43Z</time></trkpt><trkpt lat="43.33728608284035" lon="11.73108827311094"><ele>265.0</ele><time>2026-03-22T11:06:45Z</time></trkpt><trkpt lat="43.33732260062039" lon="11.731239294972388"><ele>265.0</ele><time>2026-03-22T11:06:47Z</time></trkpt><trkpt lat="43.33736499442625" lon="11.73139768778488"><ele>265.0</ele><time>2026-03-22T11:06:49Z</time></trkpt><trkpt lat="43.33740638776487" lon="11.73155180762522"><ele>265.0</ele><time>2026-03-22T11:06:51Z</time></trkpt><trkpt lat="43.3374471396824" lon="11.731708038049018"><ele>265.0</ele><time>2026-03-22T11:06:53Z</time></trkpt><trkpt lat="43.33749009399961" lon="11.731861631570643"><ele>265.0</ele><time>2026-03-22T11:06:55Z</time></trkpt><trkpt lat="43.337531406924796" lon="11.732014271483331"><ele>265.0</ele><time>2026-03-22T11:06:57Z</time></trkpt><trkpt lat="43.33757061789974" lon="11.732164956768614"><ele>265.0</ele><time>2026-03-22T11:06:59Z</time></trkpt><trkpt lat="43.33760903693123" lon="11.73231194180794"><ele>265.0</ele><time>2026-03-22T11:07:01Z</time></trkpt><trkpt lat="43.3376449719727" lon="11.732447997330265"><ele>265.0</ele><time>2026-03-22T11:07:02.999Z</time></trkpt><trkpt lat="43.33768103393273" lon="11.732580899093115"><ele>265.0</ele><time>2026-03-22T11:07:04.999Z</time></trkpt><trkpt lat="43.337713875168646" lon="11.732705763189339"><ele>265.0</ele><time>2026-03-22T11:07:06.999Z</time></trkpt><trkpt lat="43.337746058045695" lon="11.732825378775914"><ele>264.8333333333333</ele><time>2026-03-22T11:07:08.999Z</time></trkpt><trkpt lat="43.337779602075486" lon="11.732945143571728"><ele>264.66666666666663</ele><time>2026-03-22T11:07:10.999Z</time></trkpt><trkpt lat="43.337813829319636" lon="11.733058055259598"><ele>264.5</ele><time>2026-03-22T11:07:12.999Z</time></trkpt><trkpt lat="43.33784538388718" lon="11.733166710213"><ele>264.3333333333333</ele><time>2026-03-22T11:07:14.999Z</time></trkpt><trkpt lat="43.33787578976562" lon="11.733271374816383"><ele>264.1666666666667</ele><time>2026-03-22T11:07:16.999Z</time></trkpt><trkpt lat="43.337902728531624" lon="11.733377346679045"><ele>264.0</ele><time>2026-03-22T11:07:18.999Z</time></trkpt><trkpt lat="43.33793555986571" lon="11.733494088850591"><ele>264.2</ele><time>2026-03-22T11:07:20.999Z</time></trkpt><trkpt lat="43.33796987949547" lon="11.733627075477337"><ele>264.4</ele><time>2026-03-22T11:07:22.999Z</time></trkpt><trkpt lat="43.338005891177794" lon="11.733777167193411"><ele>264.6</ele><time>2026-03-22T11:07:24.999Z</time></trkpt><trkpt lat="43.33805125477383" lon="11.733933765545812"><ele>264.8</ele><time>2026-03-22T11:07:26.999Z</time></trkpt><trkpt lat="43.33807362539963" lon="11.734015755874761"><ele>265.0</ele><time>2026-03-22T11:07:27.999Z</time></trkpt><trkpt lat="43.338115368929216" lon="11.734172244813816"><ele>265.0</ele><time>2026-03-22T11:07:29.999Z</time></trkpt><trkpt lat="43.33815425343101" lon="11.734318922561881"><ele>265.0</ele><time>2026-03-22T11:07:31.999Z</time></trkpt><trkpt lat="43.33819282765942" lon="11.734459173626858"><ele>265.0</ele><time>2026-03-22T11:07:33.999Z</time></trkpt><trkpt lat="43.33822924972999" lon="11.734589363495566"><ele>265.0</ele><time>2026-03-22T11:07:35.999Z</time></trkpt><trkpt lat="43.33826665242162" lon="11.734724144942266"><ele>265.0</ele><time>2026-03-22T11:07:37.999Z</time></trkpt><trkpt lat="43.338317244429184" lon="11.734851733797687"><ele>265.0</ele><time>2026-03-22T11:07:39.999Z</time></trkpt><trkpt lat="43.3383681058348" lon="11.734956651709034"><ele>265.0</ele><time>2026-03-22T11:07:41.999Z</time></trkpt><trkpt lat="43.338431783575885" lon="11.735075640579414"><ele>265.0</ele><time>2026-03-22T11:07:43.999Z</time></trkpt><trkpt lat="43.338500485513805" lon="11.735205023599423"><ele>265.0</ele><time>2026-03-22T11:07:45.999Z</time></trkpt><trkpt lat="43.338572135288324" lon="11.73533435196937"><ele>265.0</ele><time>2026-03-22T11:07:47.999Z</time></trkpt><trkpt lat="43.33864544440965" lon="11.735467775555241"><ele>265.0</ele><time>2026-03-22T11:07:49.999Z</time></trkpt><trkpt lat="43.338719435826334" lon="11.735596714272553"><ele>265.0</ele><time>2026-03-22T11:07:51.999Z</time></trkpt><trkpt lat="43.33877800823315" lon="11.735736971801016"><ele>265.0</ele><time>2026-03-22T11:07:53.998Z</time></trkpt><trkpt lat="43.338853473786585" lon="11.73587201716182"><ele>265.0</ele><time>2026-03-22T11:07:55.998Z</time></trkpt><trkpt lat="43.33892944705329" lon="11.736007971018706"><ele>264.5</ele><time>2026-03-22T11:07:57.998Z</time></trkpt><trkpt lat="43.33896897072089" lon="11.736078698488367"><ele>264.0</ele><time>2026-03-22T11:07:58.998Z</time></trkpt><trkpt lat="43.3390239855574" lon="11.736130221423295"><ele>263.5</ele><time>2026-03-22T11:07:59.998Z</time></trkpt><trkpt lat="43.33909953115957" lon="11.736269128202482"><ele>263.0</ele><time>2026-03-22T11:08:01.998Z</time></trkpt><trkpt lat="43.33913921046403" lon="11.736336436591253"><ele>262.5</ele><time>2026-03-22T11:08:02.998Z</time></trkpt><trkpt lat="43.33921559254852" lon="11.736470072078578"><ele>262.0</ele><time>2026-03-22T11:08:04.998Z</time></trkpt><trkpt lat="43.339291762459894" lon="11.736604700951846"><ele>262.0</ele><time>2026-03-22T11:08:06.998Z</time></trkpt><trkpt lat="43.33936524273165" lon="11.736741987872657"><ele>262.0</ele><time>2026-03-22T11:08:08.998Z</time></trkpt><trkpt lat="43.33942839215072" lon="11.736882171558998"><ele>262.0</ele><time>2026-03-22T11:08:10.998Z</time></trkpt><trkpt lat="43.33944630140697" lon="11.736969186469945"><ele>262.0</ele><time>2026-03-22T11:08:11.998Z</time></trkpt><trkpt lat="43.339461895331844" lon="11.73714009960458"><ele>262.0</ele><time>2026-03-22T11:08:13.998Z</time></trkpt><trkpt lat="43.33951095196945" lon="11.737291307109182"><ele>262.2</ele><time>2026-03-22T11:08:15.998Z</time></trkpt><trkpt lat="43.33961616597615" lon="11.737371905928109"><ele>262.4</ele><time>2026-03-22T11:08:17.998Z</time></trkpt><trkpt lat="43.339710695319184" lon="11.737455286280031"><ele>262.6</ele><time>2026-03-22T11:08:19.998Z</time></trkpt><trkpt lat="43.33979298728264" lon="11.737552271710936"><ele>262.8</ele><time>2026-03-22T11:08:21.998Z</time></trkpt><trkpt lat="43.339873153210945" lon="11.737644086422137"><ele>263.0</ele><time>2026-03-22T11:08:23.998Z</time></trkpt><trkpt lat="43.3399337475518" lon="11.737755144680145"><ele>263.0</ele><time>2026-03-22T11:08:25.998Z</time></trkpt><trkpt lat="43.33998865788183" lon="11.737864448118591"><ele>263.0</ele><time>2026-03-22T11:08:27.998Z</time></trkpt><trkpt lat="43.34004625251193" lon="11.737969383588617"><ele>263.0</ele><time>2026-03-22T11:08:30Z</time></trkpt><trkpt lat="43.3401009412223" lon="11.73807240062855"><ele>263.0</ele><time>2026-03-22T11:08:32Z</time></trkpt><trkpt lat="43.3401566352724" lon="11.738171822919433"><ele>263.0</ele><time>2026-03-22T11:08:34Z</time></trkpt><trkpt lat="43.34020896661405" lon="11.738270668933865"><ele>263.0</ele><time>2026-03-22T11:08:36Z</time></trkpt><trkpt lat="43.34026167508758" lon="11.738365697988275"><ele>263.0</ele><time>2026-03-22T11:08:38Z</time></trkpt><trkpt lat="43.340313514927004" lon="11.73846457254277"><ele>263.0</ele><time>2026-03-22T11:08:40Z</time></trkpt><trkpt lat="43.34037552095156" lon="11.73856892045344"><ele>263.0</ele><time>2026-03-22T11:08:42Z</time></trkpt><trkpt lat="43.34043534824093" lon="11.738680470798696"><ele>263.0</ele><time>2026-03-22T11:08:44Z</time></trkpt><trkpt lat="43.34049891865501" lon="11.738794811433992"><ele>262.8</ele><time>2026-03-22T11:08:46Z</time></trkpt><trkpt lat="43.34056062335077" lon="11.738909734563592"><ele>262.6</ele><time>2026-03-22T11:08:48Z</time></trkpt><trkpt lat="43.3406264502548" lon="11.739024816087499"><ele>262.4</ele><time>2026-03-22T11:08:50Z</time></trkpt><trkpt lat="43.34068994946013" lon="11.739150290134459"><ele>262.2</ele><time>2026-03-22T11:08:52Z</time></trkpt><trkpt lat="43.34075741396941" lon="11.739269787549821"><ele>262.0</ele><time>2026-03-22T11:08:54Z</time></trkpt><trkpt lat="43.34082587423618" lon="11.739385647710883"><ele>262.4</ele><time>2026-03-22T11:08:56Z</time></trkpt><trkpt lat="43.34089110349698" lon="11.73949862684596"><ele>262.79999999999995</ele><time>2026-03-22T11:08:58Z</time></trkpt><trkpt lat="43.340958790683686" lon="11.739603652174052"><ele>263.2</ele><time>2026-03-22T11:09:00Z</time></trkpt><trkpt lat="43.34103032545356" lon="11.739697317856239"><ele>263.59999999999997</ele><time>2026-03-22T11:09:02Z</time></trkpt><trkpt lat="43.34110811797302" lon="11.739786438474946"><ele>264.0</ele><time>2026-03-22T11:09:04Z</time></trkpt><trkpt lat="43.34119390106808" lon="11.739864515252854"><ele>264.0</ele><time>2026-03-22T11:09:06Z</time></trkpt><trkpt lat="43.34127922250181" lon="11.739945357702938"><ele>264.0</ele><time>2026-03-22T11:09:08Z</time></trkpt><trkpt lat="43.341367232319605" lon="11.740018506401546"><ele>264.0</ele><time>2026-03-22T11:09:10Z</time></trkpt><trkpt lat="43.341453911973844" lon="11.740094765251412"><ele>264.0</ele><time>2026-03-22T11:09:11.999Z</time></trkpt><trkpt lat="43.34153972382049" lon="11.740166313743602"><ele>264.0</ele><time>2026-03-22T11:09:13.999Z</time></trkpt><trkpt lat="43.34162357124128" lon="11.740237701072688"><ele>264.2</ele><time>2026-03-22T11:09:15.999Z</time></trkpt><trkpt lat="43.34170542870511" lon="11.740305025081835"><ele>264.4</ele><time>2026-03-22T11:09:17.999Z</time></trkpt><trkpt lat="43.34178589480644" lon="11.740370656443732"><ele>264.6</ele><time>2026-03-22T11:09:19.999Z</time></trkpt><trkpt lat="43.341866087038404" lon="11.740435634413148"><ele>264.8</ele><time>2026-03-22T11:09:21.999Z</time></trkpt><trkpt lat="43.34194693464727" lon="11.740496117991851"><ele>265.0</ele><time>2026-03-22T11:09:23.999Z</time></trkpt><trkpt lat="43.34202774386661" lon="11.740557994562076"><ele>265.0</ele><time>2026-03-22T11:09:25.999Z</time></trkpt><trkpt lat="43.342112211701455" lon="11.740621066346362"><ele>265.0</ele><time>2026-03-22T11:09:27.999Z</time></trkpt><trkpt lat="43.3421954206808" lon="11.740686702384446"><ele>265.0</ele><time>2026-03-22T11:09:29.999Z</time></trkpt><trkpt lat="43.3422852101577" lon="11.740744893146857"><ele>265.0</ele><time>2026-03-22T11:09:31.999Z</time></trkpt><trkpt lat="43.342373506599266" lon="11.740806078085578"><ele>265.0</ele><time>2026-03-22T11:09:33.999Z</time></trkpt><trkpt lat="43.34245727804717" lon="11.74086877580378"><ele>265.6</ele><time>2026-03-22T11:09:35.999Z</time></trkpt><trkpt lat="43.342544007777185" lon="11.740926278776115"><ele>266.2</ele><time>2026-03-22T11:09:37.999Z</time></trkpt><trkpt lat="43.342628438342444" lon="11.74098784801215"><ele>266.8</ele><time>2026-03-22T11:09:39.999Z</time></trkpt><trkpt lat="43.34271152121361" lon="11.74104423532832"><ele>267.4</ele><time>2026-03-22T11:09:41.999Z</time></trkpt><trkpt lat="43.34279127016462" lon="11.741098346744497"><ele>268.0</ele><time>2026-03-22T11:09:43.999Z</time></trkpt><trkpt lat="43.342869111226655" lon="11.741155371186043"><ele>268.3333333333333</ele><time>2026-03-22T11:09:45.999Z</time></trkpt><trkpt lat="43.34294651309261" lon="11.741206615210457"><ele>268.66666666666663</ele><time>2026-03-22T11:09:47.999Z</time></trkpt><trkpt lat="43.34302268997429" lon="11.74125761600796"><ele>269.0</ele><time>2026-03-22T11:09:49.999Z</time></trkpt><trkpt lat="43.34309256414485" lon="11.74130985975766"><ele>269.3333333333333</ele><time>2026-03-22T11:09:51.999Z</time></trkpt><trkpt lat="43.343160147466875" lon="11.741353959181316"><ele>269.6666666666667</ele><time>2026-03-22T11:09:53.999Z</time></trkpt><trkpt lat="43.34322313751114" lon="11.741399949104482"><ele>270.0</ele><time>2026-03-22T11:09:55.999Z</time></trkpt><trkpt lat="43.34328246995722" lon="11.741440129743191"><ele>270.3333333333333</ele><time>2026-03-22T11:09:57.999Z</time></trkpt><trkpt lat="43.34334219273463" lon="11.741474013146043"><ele>270.6666666666667</ele><time>2026-03-22T11:09:59.998Z</time></trkpt><trkpt lat="43.343398296984724" lon="11.741516283975702"><ele>271.0</ele><time>2026-03-22T11:10:01.998Z</time></trkpt><trkpt lat="43.34345649542518" lon="11.741550071175267"><ele>271.33333333333337</ele><time>2026-03-22T11:10:03.998Z</time></trkpt><trkpt lat="43.34353293832331" lon="11.741606466476734"><ele>271.6666666666667</ele><time>2026-03-22T11:10:06.998Z</time></trkpt><trkpt lat="43.343613149560305" lon="11.741647959053235"><ele>272.0</ele><time>2026-03-22T11:10:09.998Z</time></trkpt><trkpt lat="43.34369098308727" lon="11.741701679173016"><ele>272.0</ele><time>2026-03-22T11:10:12.998Z</time></trkpt><trkpt lat="43.343772317588915" lon="11.741744632783162"><ele>272.0</ele><time>2026-03-22T11:10:15.998Z</time></trkpt><trkpt lat="43.34385041432715" lon="11.74179035645236"><ele>272.0</ele><time>2026-03-22T11:10:18.998Z</time></trkpt><trkpt lat="43.34393397209416" lon="11.741828159195341"><ele>272.0</ele><time>2026-03-22T11:10:21.998Z</time></trkpt><trkpt lat="43.34401797382761" lon="11.741872878027573"><ele>272.0</ele><time>2026-03-22T11:10:24.998Z</time></trkpt><trkpt lat="43.344101993366664" lon="11.741908555015137"><ele>272.0</ele><time>2026-03-22T11:10:27.998Z</time></trkpt><trkpt lat="43.344188207445" lon="11.741951501552922"><ele>272.5</ele><time>2026-03-22T11:10:30.998Z</time></trkpt><trkpt lat="43.344271445952366" lon="11.741983385633624"><ele>273.0</ele><time>2026-03-22T11:10:33.998Z</time></trkpt><trkpt lat="43.34435157992532" lon="11.742023287140011"><ele>273.5</ele><time>2026-03-22T11:10:37Z</time></trkpt><trkpt lat="43.34443414826321" lon="11.742058920410836"><ele>274.0</ele><time>2026-03-22T11:10:40Z</time></trkpt><trkpt lat="43.3445110666993" lon="11.742095128131067"><ele>274.5</ele><time>2026-03-22T11:10:43Z</time></trkpt><trkpt lat="43.34459064261161" lon="11.742129355023165"><ele>275.0</ele><time>2026-03-22T11:10:46Z</time></trkpt><trkpt lat="43.34466988376014" lon="11.742162601645003"><ele>275.83333333333337</ele><time>2026-03-22T11:10:49Z</time></trkpt><trkpt lat="43.34474692290079" lon="11.74219980110373"><ele>276.6666666666667</ele><time>2026-03-22T11:10:52Z</time></trkpt><trkpt lat="43.34482653400186" lon="11.74223348534319"><ele>277.5</ele><time>2026-03-22T11:10:55Z</time></trkpt><trkpt lat="43.34490582069133" lon="11.742265994116424"><ele>278.3333333333333</ele><time>2026-03-22T11:10:58Z</time></trkpt><trkpt lat="43.344982439075494" lon="11.742306102110634"><ele>279.16666666666663</ele><time>2026-03-22T11:11:01Z</time></trkpt><trkpt lat="43.34506364797203" lon="11.742339228575126"><ele>280.0</ele><time>2026-03-22T11:11:04Z</time></trkpt><trkpt lat="43.34514371480254" lon="11.742374278707276"><ele>280.0</ele><time>2026-03-22T11:11:07Z</time></trkpt><trkpt lat="43.34522144266108" lon="11.742410810042527"><ele>280.0</ele><time>2026-03-22T11:11:10Z</time></trkpt><trkpt lat="43.34530078747188" lon="11.742445175825052"><ele>280.0</ele><time>2026-03-22T11:11:12.999Z</time></trkpt><trkpt lat="43.345379448472414" lon="11.742478826678356"><ele>280.0</ele><time>2026-03-22T11:11:15.999Z</time></trkpt><trkpt lat="43.34545655850031" lon="11.742516109421341"><ele>280.0</ele><time>2026-03-22T11:11:18.999Z</time></trkpt><trkpt lat="43.34553474055124" lon="11.742551619714986"><ele>280.0</ele><time>2026-03-22T11:11:21.999Z</time></trkpt><trkpt lat="43.34560896576776" lon="11.742583394549904"><ele>280.7142857142857</ele><time>2026-03-22T11:11:24.999Z</time></trkpt><trkpt lat="43.34568026802915" lon="11.742613447976016"><ele>281.42857142857144</ele><time>2026-03-22T11:11:27.999Z</time></trkpt><trkpt lat="43.34574967812829" lon="11.74264570428459"><ele>282.1428571428571</ele><time>2026-03-22T11:11:30.999Z</time></trkpt><trkpt lat="43.3458165902728" lon="11.742674955459918"><ele>282.8571428571429</ele><time>2026-03-22T11:11:33.999Z</time></trkpt><trkpt lat="43.34588513856164" lon="11.742705508395028"><ele>283.57142857142856</ele><time>2026-03-22T11:11:36.999Z</time></trkpt><trkpt lat="43.34595542801685" lon="11.742736293238655"><ele>284.2857142857143</ele><time>2026-03-22T11:11:39.999Z</time></trkpt><trkpt lat="43.34602081661784" lon="11.7427658445936"><ele>285.0</ele><time>2026-03-22T11:11:42.999Z</time></trkpt><trkpt lat="43.34608808714132" lon="11.742789529404991"><ele>285.7142857142857</ele><time>2026-03-22T11:11:45.999Z</time></trkpt><trkpt lat="43.34615610812021" lon="11.742806197095149"><ele>286.42857142857144</ele><time>2026-03-22T11:11:48.999Z</time></trkpt><trkpt lat="43.34622185027016" lon="11.74283011014055"><ele>287.14285714285717</ele><time>2026-03-22T11:11:51.999Z</time></trkpt><trkpt lat="43.346290557853614" lon="11.742842427118713"><ele>287.8571428571429</ele><time>2026-03-22T11:11:54.999Z</time></trkpt><trkpt lat="43.34635893056459" lon="11.742865228510714"><ele>288.5714285714286</ele><time>2026-03-22T11:11:57.999Z</time></trkpt><trkpt lat="43.34642943394047" lon="11.742885626320477"><ele>289.2857142857143</ele><time>2026-03-22T11:12:00.998Z</time></trkpt><trkpt lat="43.34649466513801" lon="11.742907200327215"><ele>290.0</ele><time>2026-03-22T11:12:03.998Z</time></trkpt><trkpt lat="43.346561953762674" lon="11.742924629735056"><ele>291.0</ele><time>2026-03-22T11:12:06.998Z</time></trkpt><trkpt lat="43.34663204271907" lon="11.742953378954843"><ele>292.0</ele><time>2026-03-22T11:12:09.998Z</time></trkpt><trkpt lat="43.34670604129032" lon="11.742972654554846"><ele>293.0</ele><time>2026-03-22T11:12:12.998Z</time></trkpt><trkpt lat="43.346777929008866" lon="11.742999457425086"><ele>294.0</ele><time>2026-03-22T11:12:15.998Z</time></trkpt><trkpt lat="43.34685289476195" lon="11.7430176962102"><ele>295.0</ele><time>2026-03-22T11:12:18.998Z</time></trkpt><trkpt lat="43.346929141768065" lon="11.743040704045796"><ele>296.0</ele><time>2026-03-22T11:12:21.998Z</time></trkpt><trkpt lat="43.34700307200546" lon="11.743066560530833"><ele>296.0</ele><time>2026-03-22T11:12:24.998Z</time></trkpt><trkpt lat="43.3470759970344" lon="11.743105273589217"><ele>296.0</ele><time>2026-03-22T11:12:27.998Z</time></trkpt><trkpt lat="43.347146340266924" lon="11.743143823010698"><ele>296.0</ele><time>2026-03-22T11:12:30.998Z</time></trkpt><trkpt lat="43.34721207496676" lon="11.743195110615819"><ele>296.0</ele><time>2026-03-22T11:12:33.998Z</time></trkpt><trkpt lat="43.34727495426718" lon="11.74325450364887"><ele>296.0</ele><time>2026-03-22T11:12:37.998Z</time></trkpt><trkpt lat="43.34733207467566" lon="11.743308301440702"><ele>296.0</ele><time>2026-03-22T11:12:41Z</time></trkpt><trkpt lat="43.34738827942087" lon="11.743369624920694"><ele>296.0</ele><time>2026-03-22T11:12:43Z</time></trkpt><trkpt lat="43.3474520271445" lon="11.743434165265057"><ele>296.33333333333337</ele><time>2026-03-22T11:12:46Z</time></trkpt><trkpt lat="43.34751527171373" lon="11.743509524760842"><ele>296.6666666666667</ele><time>2026-03-22T11:12:49Z</time></trkpt><trkpt lat="43.347567509895704" lon="11.743581574025434"><ele>297.0</ele><time>2026-03-22T11:12:52Z</time></trkpt><trkpt lat="43.34761874466194" lon="11.743662146862123"><ele>297.3333333333333</ele><time>2026-03-22T11:12:55Z</time></trkpt><trkpt lat="43.347663357188154" lon="11.743757275335106"><ele>297.66666666666663</ele><time>2026-03-22T11:12:58Z</time></trkpt><trkpt lat="43.34770084235012" lon="11.743860351196412"><ele>298.0</ele><time>2026-03-22T11:13:01Z</time></trkpt><trkpt lat="43.34773498700692" lon="11.743968304826577"><ele>298.66666666666663</ele><time>2026-03-22T11:13:04Z</time></trkpt><trkpt lat="43.34777121851581" lon="11.744077118073418"><ele>299.3333333333333</ele><time>2026-03-22T11:13:07Z</time></trkpt><trkpt lat="43.34781042824551" lon="11.744190819860409"><ele>300.0</ele><time>2026-03-22T11:13:10Z</time></trkpt><trkpt lat="43.3478513612565" lon="11.744308984511841"><ele>300.6666666666667</ele><time>2026-03-22T11:13:13Z</time></trkpt><trkpt lat="43.34788145305478" lon="11.744390099427898"><ele>301.33333333333337</ele><time>2026-03-22T11:13:15Z</time></trkpt><trkpt lat="43.34791265818117" lon="11.744468120916194"><ele>302.0</ele><time>2026-03-22T11:13:17Z</time></trkpt><trkpt lat="43.34794482944873" lon="11.744547794282433"><ele>302.14285714285717</ele><time>2026-03-22T11:13:19Z</time></trkpt><trkpt lat="43.34797470138215" lon="11.744625367993782"><ele>302.2857142857143</ele><time>2026-03-22T11:13:20.999Z</time></trkpt><trkpt lat="43.34801185387371" lon="11.744697402355284"><ele>302.42857142857144</ele><time>2026-03-22T11:13:22.999Z</time></trkpt><trkpt lat="43.34804887944886" lon="11.744771074879404"><ele>302.57142857142856</ele><time>2026-03-22T11:13:24.999Z</time></trkpt><trkpt lat="43.34808523082228" lon="11.744845137232158"><ele>302.7142857142857</ele><time>2026-03-22T11:13:26.999Z</time></trkpt><trkpt lat="43.34812551002623" lon="11.744918960688326"><ele>302.8571428571429</ele><time>2026-03-22T11:13:28.999Z</time></trkpt><trkpt lat="43.3481717646546" lon="11.744989937178753"><ele>303.0</ele><time>2026-03-22T11:13:30.999Z</time></trkpt><trkpt lat="43.34822180016933" lon="11.745059369250777"><ele>302.3333333333333</ele><time>2026-03-22T11:13:32.999Z</time></trkpt><trkpt lat="43.34827508027005" lon="11.745133249493527"><ele>301.6666666666667</ele><time>2026-03-22T11:13:34.999Z</time></trkpt><trkpt lat="43.34833320980717" lon="11.745205011115988"><ele>301.0</ele><time>2026-03-22T11:13:36.999Z</time></trkpt><trkpt lat="43.34839700515457" lon="11.745269588541579"><ele>300.33333333333337</ele><time>2026-03-22T11:13:38.999Z</time></trkpt><trkpt lat="43.348459200415846" lon="11.74533536600734"><ele>299.6666666666667</ele><time>2026-03-22T11:13:40.999Z</time></trkpt><trkpt lat="43.348521899718826" lon="11.74540381786785"><ele>299.0</ele><time>2026-03-22T11:13:42.999Z</time></trkpt><trkpt lat="43.34858412404551" lon="11.745469804885031"><ele>299.0</ele><time>2026-03-22T11:13:44.999Z</time></trkpt><trkpt lat="43.348650624706906" lon="11.745535544076752"><ele>299.0</ele><time>2026-03-22T11:13:46.999Z</time></trkpt><trkpt lat="43.34871397080052" lon="11.74560414532701"><ele>299.0</ele><time>2026-03-22T11:13:48.999Z</time></trkpt><trkpt lat="43.34877862946909" lon="11.745668790570758"><ele>299.0</ele><time>2026-03-22T11:13:50.999Z</time></trkpt><trkpt lat="43.34884057450951" lon="11.745742512869915"><ele>299.0</ele><time>2026-03-22T11:13:52.999Z</time></trkpt><trkpt lat="43.34890579405943" lon="11.74581125457517"><ele>299.0</ele><time>2026-03-22T11:13:54.999Z</time></trkpt><trkpt lat="43.348974779312" lon="11.745871998504803"><ele>299.0</ele><time>2026-03-22T11:13:56.999Z</time></trkpt><trkpt lat="43.349040095472944" lon="11.745939210273313"><ele>299.0</ele><time>2026-03-22T11:13:58.999Z</time></trkpt><trkpt lat="43.34910505467198" lon="11.746002856193865"><ele>299.0</ele><time>2026-03-22T11:14:00.999Z</time></trkpt><trkpt lat="43.34916923958816" lon="11.746067388645528"><ele>299.0</ele><time>2026-03-22T11:14:02.999Z</time></trkpt><trkpt lat="43.34923284651979" lon="11.746131395113043"><ele>299.0</ele><time>2026-03-22T11:14:04.999Z</time></trkpt><trkpt lat="43.349295080922374" lon="11.746194905613997"><ele>299.0</ele><time>2026-03-22T11:14:06.999Z</time></trkpt><trkpt lat="43.34935503010943" lon="11.746254635690054"><ele>299.42857142857144</ele><time>2026-03-22T11:14:08.998Z</time></trkpt><trkpt lat="43.3494133911489" lon="11.746315412185302"><ele>299.8571428571429</ele><time>2026-03-22T11:14:10.998Z</time></trkpt><trkpt lat="43.34946959260763" lon="11.746373375368398"><ele>300.28571428571433</ele><time>2026-03-22T11:14:12.998Z</time></trkpt><trkpt lat="43.34952862139849" lon="11.746430507708562"><ele>300.7142857142857</ele><time>2026-03-22T11:14:14.998Z</time></trkpt><trkpt lat="43.349586713945946" lon="11.746489724444332"><ele>301.14285714285717</ele><time>2026-03-22T11:14:16.998Z</time></trkpt><trkpt lat="43.3496433985193" lon="11.746543155532322"><ele>301.5714285714286</ele><time>2026-03-22T11:14:18.998Z</time></trkpt><trkpt lat="43.34970030637576" lon="11.74659918363272"><ele>302.0</ele><time>2026-03-22T11:14:20.998Z</time></trkpt><trkpt lat="43.349760729321886" lon="11.746653154509854"><ele>302.00000000000006</ele><time>2026-03-22T11:14:22.998Z</time></trkpt><trkpt lat="43.34981743395224" lon="11.74670825475395"><ele>302.0</ele><time>2026-03-22T11:14:24.998Z</time></trkpt><trkpt lat="43.34987991060637" lon="11.7467607536395"><ele>302.0</ele><time>2026-03-22T11:14:26.998Z</time></trkpt><trkpt lat="43.349947110955036" lon="11.746813167194228"><ele>302.0</ele><time>2026-03-22T11:14:28.998Z</time></trkpt><trkpt lat="43.35001593941607" lon="11.746876568991967"><ele>302.0</ele><time>2026-03-22T11:14:30.998Z</time></trkpt><trkpt lat="43.3500729201901" lon="11.74692637766898"><ele>302.00000000000006</ele><time>2026-03-22T11:14:32.998Z</time></trkpt><trkpt lat="43.35013443234661" lon="11.746972753917929"><ele>302.0</ele><time>2026-03-22T11:14:34.998Z</time></trkpt><trkpt lat="43.35020288626148" lon="11.747026505302918"><ele>302.0</ele><time>2026-03-22T11:14:36.998Z</time></trkpt><trkpt lat="43.35027603428035" lon="11.747084901013295"><ele>302.0</ele><time>2026-03-22T11:14:38.998Z</time></trkpt><trkpt lat="43.35035035648141" lon="11.747147462912583"><ele>302.0</ele><time>2026-03-22T11:14:40.998Z</time></trkpt><trkpt lat="43.35042940214042" lon="11.747216748557516"><ele>302.0</ele><time>2026-03-22T11:14:42.998Z</time></trkpt><trkpt lat="43.35051354007964" lon="11.74728729320716"><ele>302.0</ele><time>2026-03-22T11:14:44.998Z</time></trkpt><trkpt lat="43.35059909873007" lon="11.747358189166276"><ele>302.2</ele><time>2026-03-22T11:14:47Z</time></trkpt><trkpt lat="43.35068477163435" lon="11.747437884546779"><ele>302.4</ele><time>2026-03-22T11:14:49Z</time></trkpt><trkpt lat="43.3507739731062" lon="11.747518145325103"><ele>302.6</ele><time>2026-03-22T11:14:51Z</time></trkpt><trkpt lat="43.35086577241441" lon="11.747604120626235"><ele>302.8</ele><time>2026-03-22T11:14:53Z</time></trkpt><trkpt lat="43.35095756127881" lon="11.747694465699881"><ele>303.0</ele><time>2026-03-22T11:14:55Z</time></trkpt><trkpt lat="43.351048562877544" lon="11.747792888572238"><ele>303.0</ele><time>2026-03-22T11:14:57Z</time></trkpt><trkpt lat="43.35114257474946" lon="11.747903124646484"><ele>303.0</ele><time>2026-03-22T11:14:59Z</time></trkpt><trkpt lat="43.351230826376735" lon="11.748019400343482"><ele>303.0</ele><time>2026-03-22T11:15:01Z</time></trkpt><trkpt lat="43.3513152825792" lon="11.74814138840817"><ele>303.0</ele><time>2026-03-22T11:15:03Z</time></trkpt><trkpt lat="43.35140234332944" lon="11.74827053426799"><ele>302.42857142857144</ele><time>2026-03-22T11:15:05Z</time></trkpt><trkpt lat="43.35144636140993" lon="11.748336065732703"><ele>301.85714285714283</ele><time>2026-03-22T11:15:06Z</time></trkpt><trkpt lat="43.351489619798464" lon="11.748412501125312"><ele>301.2857142857143</ele><time>2026-03-22T11:15:07Z</time></trkpt><trkpt lat="43.35153496154152" lon="11.748477666618683"><ele>300.7142857142857</ele><time>2026-03-22T11:15:08Z</time></trkpt><trkpt lat="43.351577846838" lon="11.748549329860237"><ele>300.14285714285717</ele><time>2026-03-22T11:15:09Z</time></trkpt><trkpt lat="43.35162176298309" lon="11.748621734342725"><ele>299.57142857142856</ele><time>2026-03-22T11:15:10Z</time></trkpt><trkpt lat="43.35166828421737" lon="11.748692759306042"><ele>299.0</ele><time>2026-03-22T11:15:11Z</time></trkpt><trkpt lat="43.35171239860727" lon="11.748763772157726"><ele>299.0</ele><time>2026-03-22T11:15:12Z</time></trkpt><trkpt lat="43.351755742312825" lon="11.748836229639297"><ele>299.0</ele><time>2026-03-22T11:15:13Z</time></trkpt><trkpt lat="43.35180324882692" lon="11.748904553028769"><ele>299.0</ele><time>2026-03-22T11:15:14Z</time></trkpt><trkpt lat="43.351849989935985" lon="11.74897571041739"><ele>299.0</ele><time>2026-03-22T11:15:15Z</time></trkpt><trkpt lat="43.35189468559043" lon="11.749043398543936"><ele>299.0</ele><time>2026-03-22T11:15:16Z</time></trkpt><trkpt lat="43.351938921119306" lon="11.749106843359014"><ele>299.0</ele><time>2026-03-22T11:15:17Z</time></trkpt><trkpt lat="43.35198817188925" lon="11.749166393618351"><ele>299.0</ele><time>2026-03-22T11:15:18Z</time></trkpt><trkpt lat="43.35208291829329" lon="11.749280291445919"><ele>299.0</ele><time>2026-03-22T11:15:20Z</time></trkpt><trkpt lat="43.35218306944254" lon="11.749384022696407"><ele>299.0</ele><time>2026-03-22T11:15:22Z</time></trkpt><trkpt lat="43.35229547485005" lon="11.749465366801084"><ele>299.0</ele><time>2026-03-22T11:15:24Z</time></trkpt><trkpt lat="43.352354018539124" lon="11.74950347371372"><ele>299.0</ele><time>2026-03-22T11:15:25Z</time></trkpt><trkpt lat="43.35241312949527" lon="11.74953945851945"><ele>299.0</ele><time>2026-03-22T11:15:26Z</time></trkpt><trkpt lat="43.35253015010926" lon="11.749598298628095"><ele>299.0</ele><time>2026-03-22T11:15:27.999Z</time></trkpt><trkpt lat="43.35265034381611" lon="11.749642534836724"><ele>299.0</ele><time>2026-03-22T11:15:29.999Z</time></trkpt><trkpt lat="43.352771282521736" lon="11.74966715975845"><ele>299.0</ele><time>2026-03-22T11:15:31.999Z</time></trkpt><trkpt lat="43.35289727282846" lon="11.749683121531993"><ele>299.0</ele><time>2026-03-22T11:15:33.999Z</time></trkpt><trkpt lat="43.3530231512657" lon="11.749686992934382"><ele>298.85714285714283</ele><time>2026-03-22T11:15:35.999Z</time></trkpt><trkpt lat="43.35308700977779" lon="11.74968849991776"><ele>298.7142857142857</ele><time>2026-03-22T11:15:36.999Z</time></trkpt><trkpt lat="43.35315096376846" lon="11.749682368615609"><ele>298.57142857142856</ele><time>2026-03-22T11:15:37.999Z</time></trkpt><trkpt lat="43.353276979086715" lon="11.749676805626294"><ele>298.42857142857144</ele><time>2026-03-22T11:15:39.999Z</time></trkpt><trkpt lat="43.353339846443916" lon="11.749666051350898"><ele>298.2857142857143</ele><time>2026-03-22T11:15:40.999Z</time></trkpt><trkpt lat="43.35340329119018" lon="11.749656456246635"><ele>298.1428571428571</ele><time>2026-03-22T11:15:41.999Z</time></trkpt><trkpt lat="43.35346542851623" lon="11.749641600240855"><ele>298.0</ele><time>2026-03-22T11:15:42.999Z</time></trkpt><trkpt lat="43.35352870663357" lon="11.749625892116974"><ele>298.0</ele><time>2026-03-22T11:15:43.999Z</time></trkpt><trkpt lat="43.35358913272289" lon="11.749598784225343"><ele>298.0</ele><time>2026-03-22T11:15:44.999Z</time></trkpt><trkpt lat="43.3536501645769" lon="11.749572341939038"><ele>298.0</ele><time>2026-03-22T11:15:45.999Z</time></trkpt><trkpt lat="43.35371012830842" lon="11.749543952196735"><ele>298.0</ele><time>2026-03-22T11:15:46.999Z</time></trkpt><trkpt lat="43.353830669092446" lon="11.749498630167567"><ele>298.0</ele><time>2026-03-22T11:15:48.999Z</time></trkpt><trkpt lat="43.35394873404292" lon="11.749444182129487"><ele>298.0</ele><time>2026-03-22T11:15:50.999Z</time></trkpt><trkpt lat="43.35406207915422" lon="11.749390158924975"><ele>297.5</ele><time>2026-03-22T11:15:52.999Z</time></trkpt><trkpt lat="43.3541765887566" lon="11.749336670510948"><ele>297.0</ele><time>2026-03-22T11:15:54.999Z</time></trkpt><trkpt lat="43.35428853405477" lon="11.749282549624912"><ele>296.5</ele><time>2026-03-22T11:15:56.999Z</time></trkpt><trkpt lat="43.35439832252218" lon="11.749231663867366"><ele>296.0</ele><time>2026-03-22T11:15:58.999Z</time></trkpt><trkpt lat="43.35450650653769" lon="11.7491880720518"><ele>296.0</ele><time>2026-03-22T11:16:00.999Z</time></trkpt><trkpt lat="43.35460822920821" lon="11.749140889634067"><ele>296.0</ele><time>2026-03-22T11:16:02.999Z</time></trkpt><trkpt lat="43.354710396528844" lon="11.749095743171116"><ele>296.0</ele><time>2026-03-22T11:16:04.999Z</time></trkpt><trkpt lat="43.35480961437403" lon="11.749050432368747"><ele>296.0</ele><time>2026-03-22T11:16:06.999Z</time></trkpt><trkpt lat="43.35490698649282" lon="11.749003778723925"><ele>296.0</ele><time>2026-03-22T11:16:08.999Z</time></trkpt><trkpt lat="43.3550071098014" lon="11.748961507459445"><ele>297.25</ele><time>2026-03-22T11:16:10.999Z</time></trkpt><trkpt lat="43.35510740300919" lon="11.748911720897086"><ele>298.5</ele><time>2026-03-22T11:16:12.999Z</time></trkpt><trkpt lat="43.35521747304147" lon="11.748856237188749"><ele>299.75</ele><time>2026-03-22T11:16:14.998Z</time></trkpt><trkpt lat="43.35533156658305" lon="11.748803617240721"><ele>301.0</ele><time>2026-03-22T11:16:16.998Z</time></trkpt><trkpt lat="43.35544528594919" lon="11.748754710599272"><ele>299.8</ele><time>2026-03-22T11:16:18.998Z</time></trkpt><trkpt lat="43.35556170872552" lon="11.748700419629564"><ele>298.6</ele><time>2026-03-22T11:16:20.998Z</time></trkpt><trkpt lat="43.35568089664786" lon="11.748648369419897"><ele>297.4</ele><time>2026-03-22T11:16:22.998Z</time></trkpt><trkpt lat="43.35579922041453" lon="11.748595966308455"><ele>296.2</ele><time>2026-03-22T11:16:24.998Z</time></trkpt><trkpt lat="43.35585904237524" lon="11.748568394108046"><ele>295.0</ele><time>2026-03-22T11:16:25.998Z</time></trkpt><trkpt lat="43.35597622123566" lon="11.748526442030345"><ele>295.0</ele><time>2026-03-22T11:16:27.998Z</time></trkpt><trkpt lat="43.356097330086605" lon="11.748501410801177"><ele>295.0</ele><time>2026-03-22T11:16:29.998Z</time></trkpt><trkpt lat="43.356216154614145" lon="11.74848066481967"><ele>295.0</ele><time>2026-03-22T11:16:31.998Z</time></trkpt><trkpt lat="43.356330276949386" lon="11.74846964672983"><ele>295.0</ele><time>2026-03-22T11:16:33.998Z</time></trkpt><trkpt lat="43.35644535885575" lon="11.748468568464068"><ele>295.4</ele><time>2026-03-22T11:16:35.998Z</time></trkpt><trkpt lat="43.35655528037989" lon="11.748472840000831"><ele>295.8</ele><time>2026-03-22T11:16:37.998Z</time></trkpt><trkpt lat="43.356663983140265" lon="11.748485244386151"><ele>296.2</ele><time>2026-03-22T11:16:39.998Z</time></trkpt><trkpt lat="43.35677143453122" lon="11.748501621034107"><ele>296.6</ele><time>2026-03-22T11:16:41.998Z</time></trkpt><trkpt lat="43.35687457188596" lon="11.748525731403193"><ele>297.0</ele><time>2026-03-22T11:16:43.998Z</time></trkpt><trkpt lat="43.356975722460426" lon="11.74854392684742"><ele>296.2</ele><time>2026-03-22T11:16:45.998Z</time></trkpt><trkpt lat="43.35707338746683" lon="11.748567812310819"><ele>295.4</ele><time>2026-03-22T11:16:47.998Z</time></trkpt><trkpt lat="43.357168601323586" lon="11.748586999650277"><ele>294.6</ele><time>2026-03-22T11:16:49.998Z</time></trkpt><trkpt lat="43.35726492961718" lon="11.748609543825768"><ele>293.8</ele><time>2026-03-22T11:16:51.998Z</time></trkpt><trkpt lat="43.35736014271762" lon="11.7486331284684"><ele>293.0</ele><time>2026-03-22T11:16:54Z</time></trkpt><trkpt lat="43.35745518928714" lon="11.748658307075841"><ele>293.0</ele><time>2026-03-22T11:16:56Z</time></trkpt><trkpt lat="43.35754853359809" lon="11.748681448559926"><ele>293.0</ele><time>2026-03-22T11:16:58Z</time></trkpt><trkpt lat="43.357642809073404" lon="11.748702399500564"><ele>293.0</ele><time>2026-03-22T11:17:00Z</time></trkpt><trkpt lat="43.3577326982092" lon="11.748726153602792"><ele>293.0</ele><time>2026-03-22T11:17:02Z</time></trkpt><trkpt lat="43.35782126611779" lon="11.748753131235786"><ele>293.0</ele><time>2026-03-22T11:17:04Z</time></trkpt><trkpt lat="43.35790885237249" lon="11.74877779219824"><ele>293.0</ele><time>2026-03-22T11:17:06Z</time></trkpt><trkpt lat="43.35799529963783" lon="11.748804104447512"><ele>293.0</ele><time>2026-03-22T11:17:08Z</time></trkpt><trkpt lat="43.35807495863045" lon="11.748828437020071"><ele>293.0</ele><time>2026-03-22T11:17:10Z</time></trkpt><trkpt lat="43.35815703399932" lon="11.748855253413296"><ele>293.0</ele><time>2026-03-22T11:17:12Z</time></trkpt><trkpt lat="43.35823861156774" lon="11.748878069541224"><ele>293.0</ele><time>2026-03-22T11:17:14Z</time></trkpt><trkpt lat="43.35831837887029" lon="11.74890104007201"><ele>293.0</ele><time>2026-03-22T11:17:16Z</time></trkpt><trkpt lat="43.35839766661643" lon="11.748929136469147"><ele>293.83333333333337</ele><time>2026-03-22T11:17:18Z</time></trkpt><trkpt lat="43.35847948731617" lon="11.748957089246701"><ele>294.6666666666667</ele><time>2026-03-22T11:17:20Z</time></trkpt><trkpt lat="43.358562447770375" lon="11.748983752835155"><ele>295.5</ele><time>2026-03-22T11:17:22Z</time></trkpt><trkpt lat="43.35864866317214" lon="11.749011281267034"><ele>296.3333333333333</ele><time>2026-03-22T11:17:23.999Z</time></trkpt><trkpt lat="43.358739300855305" lon="11.749038646097988"><ele>297.16666666666663</ele><time>2026-03-22T11:17:25.999Z</time></trkpt><trkpt lat="43.35882953925006" lon="11.749072626699446"><ele>298.0</ele><time>2026-03-22T11:17:27.999Z</time></trkpt><trkpt lat="43.358920514241504" lon="11.749102872592381"><ele>298.0</ele><time>2026-03-22T11:17:29.999Z</time></trkpt><trkpt lat="43.35900752099684" lon="11.749134884032737"><ele>298.0</ele><time>2026-03-22T11:17:31.999Z</time></trkpt><trkpt lat="43.359094200164655" lon="11.749162483225467"><ele>298.0</ele><time>2026-03-22T11:17:33.999Z</time></trkpt><trkpt lat="43.35918169262202" lon="11.749192720227501"><ele>298.0</ele><time>2026-03-22T11:17:35.999Z</time></trkpt><trkpt lat="43.359261083130875" lon="11.749217957283904"><ele>298.0</ele><time>2026-03-22T11:17:37.999Z</time></trkpt><trkpt lat="43.35934032328832" lon="11.749244907719957"><ele>298.0</ele><time>2026-03-22T11:17:39.999Z</time></trkpt><trkpt lat="43.359411654657016" lon="11.749263834110772"><ele>298.0</ele><time>2026-03-22T11:17:41.999Z</time></trkpt><trkpt lat="43.359489461704825" lon="11.749294737951463"><ele>298.0</ele><time>2026-03-22T11:17:43.999Z</time></trkpt><trkpt lat="43.359579800313796" lon="11.74932125138029"><ele>298.0</ele><time>2026-03-22T11:17:45.999Z</time></trkpt><trkpt lat="43.35968052946795" lon="11.749357637681555"><ele>298.0</ele><time>2026-03-22T11:17:47.999Z</time></trkpt><trkpt lat="43.35979271496128" lon="11.749398870236542"><ele>298.0</ele><time>2026-03-22T11:17:49.999Z</time></trkpt><trkpt lat="43.35991043316491" lon="11.74944473748344"><ele>297.0</ele><time>2026-03-22T11:17:51.999Z</time></trkpt><trkpt lat="43.359973029567584" lon="11.749473448955339"><ele>296.0</ele><time>2026-03-22T11:17:52.999Z</time></trkpt><trkpt lat="43.36003588083006" lon="11.749504213550706"><ele>295.0</ele><time>2026-03-22T11:17:53.999Z</time></trkpt><trkpt lat="43.36009938435112" lon="11.749536489092531"><ele>294.0</ele><time>2026-03-22T11:17:54.999Z</time></trkpt><trkpt lat="43.360165000671685" lon="11.749572982949337"><ele>293.0</ele><time>2026-03-22T11:17:55.999Z</time></trkpt><trkpt lat="43.36023339397528" lon="11.74961488131066"><ele>292.0</ele><time>2026-03-22T11:17:56.999Z</time></trkpt><trkpt lat="43.36030200229039" lon="11.749660144765166"><ele>291.0</ele><time>2026-03-22T11:17:57.999Z</time></trkpt><trkpt lat="43.36037157862422" lon="11.749705367065012"><ele>291.0</ele><time>2026-03-22T11:17:58.999Z</time></trkpt><trkpt lat="43.36043857898541" lon="11.749758167000786"><ele>291.0</ele><time>2026-03-22T11:17:59.999Z</time></trkpt><trkpt lat="43.36050460691272" lon="11.749809299409467"><ele>291.0</ele><time>2026-03-22T11:18:00.999Z</time></trkpt><trkpt lat="43.36057190215758" lon="11.74986375457832"><ele>291.0</ele><time>2026-03-22T11:18:01.999Z</time></trkpt><trkpt lat="43.36063578793694" lon="11.749929505413766"><ele>291.0</ele><time>2026-03-22T11:18:02.999Z</time></trkpt><trkpt lat="43.36069616283695" lon="11.750001439512753"><ele>291.0</ele><time>2026-03-22T11:18:03.999Z</time></trkpt><trkpt lat="43.360754521274295" lon="11.750075055620496"><ele>290.8333333333333</ele><time>2026-03-22T11:18:04.998Z</time></trkpt><trkpt lat="43.36080601749381" lon="11.750164784897432"><ele>290.6666666666667</ele><time>2026-03-22T11:18:05.998Z</time></trkpt><trkpt lat="43.36082383831399" lon="11.750288146602733"><ele>290.5</ele><time>2026-03-22T11:18:06.998Z</time></trkpt><trkpt lat="43.360857551240855" lon="11.750390098911371"><ele>290.33333333333337</ele><time>2026-03-22T11:18:07.998Z</time></trkpt><trkpt lat="43.36088908026672" lon="11.750501687531068"><ele>290.1666666666667</ele><time>2026-03-22T11:18:08.998Z</time></trkpt><trkpt lat="43.360918458911854" lon="11.750616717754664"><ele>290.0</ele><time>2026-03-22T11:18:09.998Z</time></trkpt><trkpt lat="43.36094617609741" lon="11.75073704913913"><ele>289.0</ele><time>2026-03-22T11:18:10.998Z</time></trkpt><trkpt lat="43.36097522156634" lon="11.750863240144028"><ele>288.0</ele><time>2026-03-22T11:18:11.998Z</time></trkpt><trkpt lat="43.361004467127394" lon="11.75099030035347"><ele>287.0</ele><time>2026-03-22T11:18:12.998Z</time></trkpt><trkpt lat="43.361034054517134" lon="11.751114972968187"><ele>286.0</ele><time>2026-03-22T11:18:13.998Z</time></trkpt><trkpt lat="43.36106323145688" lon="11.751236947739367"><ele>285.0</ele><time>2026-03-22T11:18:14.998Z</time></trkpt><trkpt lat="43.36109352170622" lon="11.751363543369209"><ele>284.2</ele><time>2026-03-22T11:18:15.998Z</time></trkpt><trkpt lat="43.361123701974776" lon="11.751489546007054"><ele>283.4</ele><time>2026-03-22T11:18:16.998Z</time></trkpt><trkpt lat="43.36115469397927" lon="11.751618937636861"><ele>282.6</ele><time>2026-03-22T11:18:17.998Z</time></trkpt><trkpt lat="43.36118664702576" lon="11.751751376182197"><ele>281.8</ele><time>2026-03-22T11:18:18.998Z</time></trkpt><trkpt lat="43.361218610432964" lon="11.751883212610437"><ele>281.0</ele><time>2026-03-22T11:18:19.998Z</time></trkpt><trkpt lat="43.36125106350443" lon="11.752019555041052"><ele>280.40000000000003</ele><time>2026-03-22T11:18:20.998Z</time></trkpt><trkpt lat="43.36128371536663" lon="11.752158252486018"><ele>279.8</ele><time>2026-03-22T11:18:21.998Z</time></trkpt><trkpt lat="43.36131636641589" lon="11.752296946428533"><ele>279.20000000000005</ele><time>2026-03-22T11:18:22.998Z</time></trkpt><trkpt lat="43.36134917915263" lon="11.752436327238996"><ele>278.6</ele><time>2026-03-22T11:18:23.998Z</time></trkpt><trkpt lat="43.36138140088329" lon="11.752573197548779"><ele>278.0</ele><time>2026-03-22T11:18:24.998Z</time></trkpt><trkpt lat="43.36141364039109" lon="11.752710143386809"><ele>277.0</ele><time>2026-03-22T11:18:25.998Z</time></trkpt><trkpt lat="43.36144607528936" lon="11.752846973173185"><ele>276.0</ele><time>2026-03-22T11:18:26.998Z</time></trkpt><trkpt lat="43.3614784475598" lon="11.752983263563399"><ele>275.0</ele><time>2026-03-22T11:18:27.998Z</time></trkpt><trkpt lat="43.361510520790304" lon="11.753118295009624"><ele>274.0</ele><time>2026-03-22T11:18:28.998Z</time></trkpt><trkpt lat="43.36154164168187" lon="11.753249317010486"><ele>273.0</ele><time>2026-03-22T11:18:29.998Z</time></trkpt><trkpt lat="43.3615727944622" lon="11.75338047323712"><ele>273.0</ele><time>2026-03-22T11:18:30.998Z</time></trkpt><trkpt lat="43.36160312664554" lon="11.753508174668095"><ele>273.0</ele><time>2026-03-22T11:18:31.998Z</time></trkpt><trkpt lat="43.36163309370087" lon="11.753634338899252"><ele>273.0</ele><time>2026-03-22T11:18:32.998Z</time></trkpt><trkpt lat="43.3616626757946" lon="11.753758882413056"><ele>273.0</ele><time>2026-03-22T11:18:33.998Z</time></trkpt><trkpt lat="43.36169240275542" lon="11.753884035779448"><ele>273.0</ele><time>2026-03-22T11:18:34.998Z</time></trkpt><trkpt lat="43.361721193285526" lon="11.754005246712"><ele>272.6666666666667</ele><time>2026-03-22T11:18:35.998Z</time></trkpt><trkpt lat="43.36175088906248" lon="11.754124962381363"><ele>272.3333333333333</ele><time>2026-03-22T11:18:36.998Z</time></trkpt><trkpt lat="43.36178156893734" lon="11.754239225257498"><ele>272.0</ele><time>2026-03-22T11:18:37.998Z</time></trkpt><trkpt lat="43.361813470180714" lon="11.754354744260624"><ele>271.66666666666663</ele><time>2026-03-22T11:18:38.998Z</time></trkpt><trkpt lat="43.361846209535884" lon="11.754468821762593"><ele>271.3333333333333</ele><time>2026-03-22T11:18:39.998Z</time></trkpt><trkpt lat="43.36188002780653" lon="11.754578186427116"><ele>271.0</ele><time>2026-03-22T11:18:40.998Z</time></trkpt><trkpt lat="43.36191715932439" lon="11.754685307527089"><ele>271.0</ele><time>2026-03-22T11:18:41.998Z</time></trkpt><trkpt lat="43.36195306235849" lon="11.754786328728136"><ele>271.0</ele><time>2026-03-22T11:18:42.998Z</time></trkpt><trkpt lat="43.36199026770451" lon="11.754885220187306"><ele>271.0</ele><time>2026-03-22T11:18:43.998Z</time></trkpt><trkpt lat="43.362028124204116" lon="11.754980868148738"><ele>271.0</ele><time>2026-03-22T11:18:44.998Z</time></trkpt><trkpt lat="43.36206558393858" lon="11.75507013895369"><ele>271.0</ele><time>2026-03-22T11:18:45.998Z</time></trkpt><trkpt lat="43.362103607645" lon="11.755157544238049"><ele>271.0</ele><time>2026-03-22T11:18:46.998Z</time></trkpt><trkpt lat="43.36213799353145" lon="11.755236299013518"><ele>271.0</ele><time>2026-03-22T11:18:47.998Z</time></trkpt><trkpt lat="43.36217624773209" lon="11.755317065710571"><ele>271.0</ele><time>2026-03-22T11:18:48.998Z</time></trkpt><trkpt lat="43.362242966112696" lon="11.755454721329043"><ele>271.0</ele><time>2026-03-22T11:18:50.998Z</time></trkpt><trkpt lat="43.36230688955245" lon="11.755582759763323"><ele>271.0</ele><time>2026-03-22T11:18:52.997Z</time></trkpt><trkpt lat="43.36236898073553" lon="11.755704504516471"><ele>271.0</ele><time>2026-03-22T11:18:54.997Z</time></trkpt><trkpt lat="43.36242931494347" lon="11.755820450070479"><ele>271.66666666666663</ele><time>2026-03-22T11:18:56.997Z</time></trkpt><trkpt lat="43.36248547491593" lon="11.755928085202774"><ele>272.3333333333333</ele><time>2026-03-22T11:18:59Z</time></trkpt><trkpt lat="43.36254050328092" lon="11.75603355154243"><ele>273.0</ele><time>2026-03-22T11:19:01Z</time></trkpt><trkpt lat="43.362618117567564" lon="11.756103745938123"><ele>273.6666666666667</ele><time>2026-03-22T11:19:03Z</time></trkpt><trkpt lat="43.362660008084" lon="11.756190053863849"><ele>274.33333333333337</ele><time>2026-03-22T11:19:05Z</time></trkpt><trkpt lat="43.36270210485561" lon="11.756268656587633"><ele>275.0</ele><time>2026-03-22T11:19:07Z</time></trkpt><trkpt lat="43.36273887384361" lon="11.756345850436226"><ele>275.1666666666667</ele><time>2026-03-22T11:19:09Z</time></trkpt><trkpt lat="43.36278051716035" lon="11.756421139987054"><ele>275.33333333333337</ele><time>2026-03-22T11:19:11Z</time></trkpt><trkpt lat="43.36281549290057" lon="11.756496898715904"><ele>275.5</ele><time>2026-03-22T11:19:13Z</time></trkpt><trkpt lat="43.362856911973346" lon="11.756569212017228"><ele>275.6666666666667</ele><time>2026-03-22T11:19:15Z</time></trkpt><trkpt lat="43.36291098591139" lon="11.756673177504496"><ele>275.8333333333333</ele><time>2026-03-22T11:19:18Z</time></trkpt><trkpt lat="43.36296604783013" lon="11.75677531412668"><ele>276.0</ele><time>2026-03-22T11:19:21Z</time></trkpt><trkpt lat="43.36301371864987" lon="11.756874480326273"><ele>277.3333333333333</ele><time>2026-03-22T11:19:24Z</time></trkpt><trkpt lat="43.36306431275265" lon="11.75696884695954"><ele>278.6666666666667</ele><time>2026-03-22T11:19:27Z</time></trkpt><trkpt lat="43.36311713741" lon="11.757067599291066"><ele>280.0</ele><time>2026-03-22T11:19:30Z</time></trkpt><trkpt lat="43.36315244066817" lon="11.757140035207899"><ele>281.33333333333337</ele><time>2026-03-22T11:19:32Z</time></trkpt><trkpt lat="43.36319002759166" lon="11.75721302348726"><ele>282.6666666666667</ele><time>2026-03-22T11:19:34Z</time></trkpt><trkpt lat="43.36323973593298" lon="11.757312421304388"><ele>284.0</ele><time>2026-03-22T11:19:36.999Z</time></trkpt><trkpt lat="43.363292830786996" lon="11.757406671048646"><ele>284.0</ele><time>2026-03-22T11:19:39.999Z</time></trkpt><trkpt lat="43.36334712565194" lon="11.757506372391749"><ele>284.0</ele><time>2026-03-22T11:19:42.999Z</time></trkpt><trkpt lat="43.36339971810298" lon="11.75760500082395"><ele>284.0</ele><time>2026-03-22T11:19:45.999Z</time></trkpt><trkpt lat="43.363444257560104" lon="11.757707488903124"><ele>284.0</ele><time>2026-03-22T11:19:48.999Z</time></trkpt><trkpt lat="43.36349802960061" lon="11.757801988603783"><ele>284.0</ele><time>2026-03-22T11:19:51.999Z</time></trkpt><trkpt lat="43.363552762451256" lon="11.757897676371135"><ele>284.0</ele><time>2026-03-22T11:19:54.999Z</time></trkpt><trkpt lat="43.363612729498826" lon="11.75798357681784"><ele>284.0</ele><time>2026-03-22T11:19:57.999Z</time></trkpt><trkpt lat="43.36368017297177" lon="11.758065526309787"><ele>284.0</ele><time>2026-03-22T11:20:00.999Z</time></trkpt><trkpt lat="43.36376074660386" lon="11.758136240002978"><ele>284.0</ele><time>2026-03-22T11:20:03.999Z</time></trkpt><trkpt lat="43.36382614896965" lon="11.758164455338468"><ele>284.0</ele><time>2026-03-22T11:20:05.999Z</time></trkpt><trkpt lat="43.363901485097024" lon="11.758184331585971"><ele>284.0</ele><time>2026-03-22T11:20:07.999Z</time></trkpt><trkpt lat="43.36398110454203" lon="11.758187737347347"><ele>284.0</ele><time>2026-03-22T11:20:09.999Z</time></trkpt><trkpt lat="43.36406179539984" lon="11.758192772966137"><ele>284.0</ele><time>2026-03-22T11:20:11.999Z</time></trkpt><trkpt lat="43.364147588534586" lon="11.758189620963655"><ele>284.0</ele><time>2026-03-22T11:20:13.999Z</time></trkpt><trkpt lat="43.36423161889935" lon="11.75819283049734"><ele>284.0</ele><time>2026-03-22T11:20:15.999Z</time></trkpt><trkpt lat="43.36432386978061" lon="11.75819081709763"><ele>284.0</ele><time>2026-03-22T11:20:17.999Z</time></trkpt><trkpt lat="43.364420582981445" lon="11.758187498641313"><ele>284.0</ele><time>2026-03-22T11:20:19.999Z</time></trkpt><trkpt lat="43.36452487807986" lon="11.758193380484528"><ele>284.0</ele><time>2026-03-22T11:20:21.999Z</time></trkpt><trkpt lat="43.36463191878921" lon="11.758189335355413"><ele>284.0</ele><time>2026-03-22T11:20:23.999Z</time></trkpt><trkpt lat="43.364742231144966" lon="11.758191584120388"><ele>284.0</ele><time>2026-03-22T11:20:25.998Z</time></trkpt><trkpt lat="43.36485850715546" lon="11.758193064493126"><ele>284.0</ele><time>2026-03-22T11:20:27.998Z</time></trkpt><trkpt lat="43.36498239374423" lon="11.758188824994468"><ele>283.1666666666667</ele><time>2026-03-22T11:20:29.998Z</time></trkpt><trkpt lat="43.36511119073619" lon="11.758191526493562"><ele>282.33333333333337</ele><time>2026-03-22T11:20:31.998Z</time></trkpt><trkpt lat="43.36518010752982" lon="11.758193178586863"><ele>281.5</ele><time>2026-03-22T11:20:32.998Z</time></trkpt><trkpt lat="43.3652503128328" lon="11.758194287964793"><ele>280.6666666666667</ele><time>2026-03-22T11:20:33.998Z</time></trkpt><trkpt lat="43.36532437257352" lon="11.758194591460672"><ele>279.8333333333333</ele><time>2026-03-22T11:20:34.998Z</time></trkpt><trkpt lat="43.36539937051493" lon="11.758190396297326"><ele>279.0</ele><time>2026-03-22T11:20:35.998Z</time></trkpt><trkpt lat="43.36547776453993" lon="11.758193790146597"><ele>278.3333333333333</ele><time>2026-03-22T11:20:36.998Z</time></trkpt><trkpt lat="43.365557154304604" lon="11.758192245724164"><ele>277.6666666666667</ele><time>2026-03-22T11:20:37.998Z</time></trkpt><trkpt lat="43.36563557733123" lon="11.758190751002443"><ele>277.0</ele><time>2026-03-22T11:20:38.998Z</time></trkpt><trkpt lat="43.36571770487018" lon="11.758194606541847"><ele>276.33333333333337</ele><time>2026-03-22T11:20:39.998Z</time></trkpt><trkpt lat="43.365799896945504" lon="11.758195928862325"><ele>275.6666666666667</ele><time>2026-03-22T11:20:40.998Z</time></trkpt><trkpt lat="43.365883971714396" lon="11.758190809407271"><ele>275.0</ele><time>2026-03-22T11:20:41.998Z</time></trkpt><trkpt lat="43.36596860475966" lon="11.758190998689042"><ele>275.0</ele><time>2026-03-22T11:20:42.998Z</time></trkpt><trkpt lat="43.36605213695743" lon="11.758197544614777"><ele>275.0</ele><time>2026-03-22T11:20:43.998Z</time></trkpt><trkpt lat="43.36613633841662" lon="11.758193368532654"><ele>275.0</ele><time>2026-03-22T11:20:44.998Z</time></trkpt><trkpt lat="43.366220134362344" lon="11.758192228593149"><ele>275.0</ele><time>2026-03-22T11:20:45.998Z</time></trkpt><trkpt lat="43.36630059052808" lon="11.758193754302138"><ele>275.0</ele><time>2026-03-22T11:20:46.998Z</time></trkpt><trkpt lat="43.36638211417074" lon="11.758200728195261"><ele>275.0</ele><time>2026-03-22T11:20:47.998Z</time></trkpt><trkpt lat="43.36645718212813" lon="11.758199518969079"><ele>274.6666666666667</ele><time>2026-03-22T11:20:48.998Z</time></trkpt><trkpt lat="43.36653211536249" lon="11.75820442698999"><ele>274.33333333333337</ele><time>2026-03-22T11:20:49.998Z</time></trkpt><trkpt lat="43.366608091162355" lon="11.758202591485285"><ele>274.0</ele><time>2026-03-22T11:20:50.998Z</time></trkpt><trkpt lat="43.36668441383127" lon="11.758204126634583"><ele>273.6666666666667</ele><time>2026-03-22T11:20:51.998Z</time></trkpt><trkpt lat="43.36676131656153" lon="11.758210351953764"><ele>273.3333333333333</ele><time>2026-03-22T11:20:52.998Z</time></trkpt><trkpt lat="43.36683763509002" lon="11.758223203699487"><ele>273.0</ele><time>2026-03-22T11:20:53.998Z</time></trkpt><trkpt lat="43.36691278937946" lon="11.75824408143383"><ele>273.0</ele><time>2026-03-22T11:20:54.998Z</time></trkpt><trkpt lat="43.36698637124001" lon="11.758272081764352"><ele>273.0</ele><time>2026-03-22T11:20:55.998Z</time></trkpt><trkpt lat="43.36706088992644" lon="11.758304795624936"><ele>273.0</ele><time>2026-03-22T11:20:56.998Z</time></trkpt><trkpt lat="43.36713327718918" lon="11.758340908901376"><ele>273.0</ele><time>2026-03-22T11:20:57.998Z</time></trkpt><trkpt lat="43.36720328793497" lon="11.758390639860213"><ele>273.0</ele><time>2026-03-22T11:20:58.998Z</time></trkpt><trkpt lat="43.36726575899213" lon="11.758455929808136"><ele>273.0</ele><time>2026-03-22T11:20:59.998Z</time></trkpt><trkpt lat="43.367324897931354" lon="11.758524223778071"><ele>272.7142857142857</ele><time>2026-03-22T11:21:00.998Z</time></trkpt><trkpt lat="43.367367829300285" lon="11.758609578844402"><ele>272.42857142857144</ele><time>2026-03-22T11:21:01.998Z</time></trkpt><trkpt lat="43.367417439495085" lon="11.758685084293354"><ele>272.1428571428571</ele><time>2026-03-22T11:21:02.998Z</time></trkpt><trkpt lat="43.36745711978597" lon="11.758763567526522"><ele>271.8571428571429</ele><time>2026-03-22T11:21:03.998Z</time></trkpt><trkpt lat="43.36749790279379" lon="11.758842542397474"><ele>271.57142857142856</ele><time>2026-03-22T11:21:05Z</time></trkpt><trkpt lat="43.36753791189772" lon="11.758922314385112"><ele>271.2857142857143</ele><time>2026-03-22T11:21:06Z</time></trkpt><trkpt lat="43.36758021502555" lon="11.75900666030845"><ele>271.0</ele><time>2026-03-22T11:21:07Z</time></trkpt><trkpt lat="43.36762094875762" lon="11.759089759324075"><ele>271.0</ele><time>2026-03-22T11:21:08Z</time></trkpt><trkpt lat="43.367660635033396" lon="11.759171737316288"><ele>271.0</ele><time>2026-03-22T11:21:09Z</time></trkpt><trkpt lat="43.36769891820987" lon="11.759251703248957"><ele>271.0</ele><time>2026-03-22T11:21:10Z</time></trkpt><trkpt lat="43.367736521677436" lon="11.759330537395225"><ele>271.0</ele><time>2026-03-22T11:21:11Z</time></trkpt><trkpt lat="43.36777369750844" lon="11.759408474990531"><ele>271.0</ele><time>2026-03-22T11:21:12Z</time></trkpt><trkpt lat="43.36781224187436" lon="11.759489281666841"><ele>271.0</ele><time>2026-03-22T11:21:13Z</time></trkpt><trkpt lat="43.36785416344664" lon="11.759577168533344"><ele>271.0</ele><time>2026-03-22T11:21:14Z</time></trkpt><trkpt lat="43.36789353611463" lon="11.759659711370421"><ele>270.7142857142857</ele><time>2026-03-22T11:21:15Z</time></trkpt><trkpt lat="43.367931910194486" lon="11.759741269989199"><ele>270.42857142857144</ele><time>2026-03-22T11:21:16Z</time></trkpt><trkpt lat="43.36797170111415" lon="11.759825299604017"><ele>270.14285714285717</ele><time>2026-03-22T11:21:17Z</time></trkpt><trkpt lat="43.368011151075855" lon="11.759908609202334"><ele>269.8571428571429</ele><time>2026-03-22T11:21:18Z</time></trkpt><trkpt lat="43.36805073399397" lon="11.75999219956887"><ele>269.5714285714286</ele><time>2026-03-22T11:21:19Z</time></trkpt><trkpt lat="43.36809127022355" lon="11.760077803122519"><ele>269.2857142857143</ele><time>2026-03-22T11:21:20Z</time></trkpt><trkpt lat="43.36813107767738" lon="11.760161867438097"><ele>269.0</ele><time>2026-03-22T11:21:21Z</time></trkpt><trkpt lat="43.36817054481833" lon="11.760246720149624"><ele>268.57142857142856</ele><time>2026-03-22T11:21:22Z</time></trkpt><trkpt lat="43.36820960472294" lon="11.760329453929963"><ele>268.14285714285717</ele><time>2026-03-22T11:21:23Z</time></trkpt><trkpt lat="43.36824807803575" lon="11.760410852151944"><ele>267.7142857142857</ele><time>2026-03-22T11:21:24Z</time></trkpt><trkpt lat="43.36828575193395" lon="11.760491502965424"><ele>267.2857142857143</ele><time>2026-03-22T11:21:25Z</time></trkpt><trkpt lat="43.368324289422866" lon="11.76057350670122"><ele>266.8571428571429</ele><time>2026-03-22T11:21:26Z</time></trkpt><trkpt lat="43.36836325182062" lon="11.760656414604592"><ele>266.42857142857144</ele><time>2026-03-22T11:21:27Z</time></trkpt><trkpt lat="43.368401991226094" lon="11.760738848005756"><ele>266.0</ele><time>2026-03-22T11:21:28Z</time></trkpt><trkpt lat="43.368441674625245" lon="11.760823290122104"><ele>266.0</ele><time>2026-03-22T11:21:29Z</time></trkpt><trkpt lat="43.36848272459161" lon="11.760910640154588"><ele>266.0</ele><time>2026-03-22T11:21:30Z</time></trkpt><trkpt lat="43.36852443165293" lon="11.76099938840986"><ele>266.0</ele><time>2026-03-22T11:21:31Z</time></trkpt><trkpt lat="43.368564450816464" lon="11.761084545010085"><ele>266.0</ele><time>2026-03-22T11:21:32Z</time></trkpt><trkpt lat="43.36860605800929" lon="11.761173080753343"><ele>266.0</ele><time>2026-03-22T11:21:33Z</time></trkpt><trkpt lat="43.3686480031275" lon="11.761262335570855"><ele>266.0</ele><time>2026-03-22T11:21:34Z</time></trkpt><trkpt lat="43.36869012102615" lon="11.761351958049865"><ele>266.0</ele><time>2026-03-22T11:21:35Z</time></trkpt><trkpt lat="43.36873147654468" lon="11.76143995826763"><ele>266.0</ele><time>2026-03-22T11:21:36Z</time></trkpt><trkpt lat="43.368773117268006" lon="11.761528565364355"><ele>266.0</ele><time>2026-03-22T11:21:37Z</time></trkpt><trkpt lat="43.36881413400569" lon="11.761615844689283"><ele>266.0</ele><time>2026-03-22T11:21:38Z</time></trkpt><trkpt lat="43.368855428847304" lon="11.761703715784527"><ele>266.0</ele><time>2026-03-22T11:21:39Z</time></trkpt><trkpt lat="43.36889566006259" lon="11.761789323597387"><ele>266.0</ele><time>2026-03-22T11:21:40Z</time></trkpt><trkpt lat="43.36893537439893" lon="11.761873831549154"><ele>265.85714285714283</ele><time>2026-03-22T11:21:41Z</time></trkpt><trkpt lat="43.36897430194667" lon="11.761956665295601"><ele>265.7142857142857</ele><time>2026-03-22T11:21:42Z</time></trkpt><trkpt lat="43.36904452789038" lon="11.762010220838997"><ele>265.57142857142856</ele><time>2026-03-22T11:21:42.999Z</time></trkpt><trkpt lat="43.36908376850307" lon="11.76208923164593"><ele>265.42857142857144</ele><time>2026-03-22T11:21:43.999Z</time></trkpt><trkpt lat="43.36912164725858" lon="11.762166183549219"><ele>265.2857142857143</ele><time>2026-03-22T11:21:44.999Z</time></trkpt><trkpt lat="43.369159592019265" lon="11.762245537921466"><ele>265.1428571428571</ele><time>2026-03-22T11:21:45.999Z</time></trkpt><trkpt lat="43.36919322562922" lon="11.762327129680207"><ele>265.0</ele><time>2026-03-22T11:21:46.999Z</time></trkpt><trkpt lat="43.36922799423394" lon="11.762405960160775"><ele>264.99999999999994</ele><time>2026-03-22T11:21:47.999Z</time></trkpt><trkpt lat="43.36926654789028" lon="11.762483278285863"><ele>265.0</ele><time>2026-03-22T11:21:48.999Z</time></trkpt><trkpt lat="43.369303107380304" lon="11.762562599014052"><ele>265.0</ele><time>2026-03-22T11:21:49.999Z</time></trkpt><trkpt lat="43.36933963447644" lon="11.762642084779815"><ele>265.0</ele><time>2026-03-22T11:21:50.999Z</time></trkpt><trkpt lat="43.3693759954033" lon="11.762719521964422"><ele>265.0</ele><time>2026-03-22T11:21:51.999Z</time></trkpt><trkpt lat="43.36938298263991" lon="11.762826295001512"><ele>264.99999999999994</ele><time>2026-03-22T11:21:52.999Z</time></trkpt><trkpt lat="43.369420060672226" lon="11.76290519317407"><ele>265.0</ele><time>2026-03-22T11:21:53.999Z</time></trkpt><trkpt lat="43.36945793238954" lon="11.762985780227998"><ele>264.99999999999994</ele><time>2026-03-22T11:21:54.999Z</time></trkpt><trkpt lat="43.369495742584135" lon="11.763066236353048"><ele>265.0</ele><time>2026-03-22T11:21:55.999Z</time></trkpt><trkpt lat="43.36953352523132" lon="11.763146633848262"><ele>265.0</ele><time>2026-03-22T11:21:56.999Z</time></trkpt><trkpt lat="43.36957094987394" lon="11.763226269513046"><ele>265.0</ele><time>2026-03-22T11:21:57.999Z</time></trkpt><trkpt lat="43.36960793746113" lon="11.76330502805682"><ele>265.0</ele><time>2026-03-22T11:21:58.999Z</time></trkpt><trkpt lat="43.36964452609304" lon="11.763382928559135"><ele>264.99999999999994</ele><time>2026-03-22T11:21:59.999Z</time></trkpt><trkpt lat="43.36968138524885" lon="11.763461405042527"><ele>265.0</ele><time>2026-03-22T11:22:00.999Z</time></trkpt><trkpt lat="43.36971646434258" lon="11.763536091605292"><ele>264.8333333333333</ele><time>2026-03-22T11:22:01.999Z</time></trkpt><trkpt lat="43.36975134296072" lon="11.763610351334684"><ele>264.66666666666663</ele><time>2026-03-22T11:22:02.999Z</time></trkpt><trkpt lat="43.369786231464715" lon="11.763684632117979"><ele>264.5</ele><time>2026-03-22T11:22:03.999Z</time></trkpt><trkpt lat="43.369820949560754" lon="11.763758550083244"><ele>264.3333333333333</ele><time>2026-03-22T11:22:04.999Z</time></trkpt><trkpt lat="43.36988834675605" lon="11.763902044808276"><ele>264.1666666666667</ele><time>2026-03-22T11:22:06.999Z</time></trkpt><trkpt lat="43.36995576502406" lon="11.764045653066443"><ele>264.0</ele><time>2026-03-22T11:22:08.999Z</time></trkpt><trkpt lat="43.3700217600424" lon="11.764187329937027"><ele>264.0</ele><time>2026-03-22T11:22:10.999Z</time></trkpt><trkpt lat="43.37008654366375" lon="11.764326406195668"><ele>264.0</ele><time>2026-03-22T11:22:12.999Z</time></trkpt><trkpt lat="43.37014542113903" lon="11.764375447391728"><ele>264.0</ele><time>2026-03-22T11:22:13.999Z</time></trkpt><trkpt lat="43.37021426293455" lon="11.764513179402842"><ele>264.0</ele><time>2026-03-22T11:22:15.999Z</time></trkpt><trkpt lat="43.37027832375212" lon="11.764651741317751"><ele>264.0</ele><time>2026-03-22T11:22:17.999Z</time></trkpt><trkpt lat="43.37034592436716" lon="11.764787247384929"><ele>265.0</ele><time>2026-03-22T11:22:19.999Z</time></trkpt><trkpt lat="43.37040805711629" lon="11.764924845313734"><ele>266.0</ele><time>2026-03-22T11:22:21.999Z</time></trkpt><trkpt lat="43.370469676467536" lon="11.765058256093115"><ele>267.0</ele><time>2026-03-22T11:22:23.999Z</time></trkpt><trkpt lat="43.370533000104615" lon="11.765189405800227"><ele>268.0</ele><time>2026-03-22T11:22:25.999Z</time></trkpt><trkpt lat="43.370592673839525" lon="11.76531986937581"><ele>268.4</ele><time>2026-03-22T11:22:27.999Z</time></trkpt><trkpt lat="43.37065574678894" lon="11.765441577151282"><ele>268.8</ele><time>2026-03-22T11:22:29.999Z</time></trkpt><trkpt lat="43.3707076051862" lon="11.765567326334885"><ele>269.2</ele><time>2026-03-22T11:22:31.998Z</time></trkpt><trkpt lat="43.370763394013665" lon="11.765683385662932"><ele>269.6</ele><time>2026-03-22T11:22:33.998Z</time></trkpt><trkpt lat="43.370818253964366" lon="11.765799542279739"><ele>270.0</ele><time>2026-03-22T11:22:35.998Z</time></trkpt><trkpt lat="43.3708768731674" lon="11.765912557607438"><ele>270.0</ele><time>2026-03-22T11:22:37.998Z</time></trkpt><trkpt lat="43.370926723728935" lon="11.766021532913488"><ele>270.0</ele><time>2026-03-22T11:22:39.998Z</time></trkpt><trkpt lat="43.37097733610446" lon="11.766131009682796"><ele>270.0</ele><time>2026-03-22T11:22:41.998Z</time></trkpt><trkpt lat="43.371028324146984" lon="11.766234995827523"><ele>270.0</ele><time>2026-03-22T11:22:43.998Z</time></trkpt><trkpt lat="43.37107815550634" lon="11.766335143835025"><ele>270.0</ele><time>2026-03-22T11:22:45.998Z</time></trkpt><trkpt lat="43.371123378993474" lon="11.766435845100668"><ele>270.0</ele><time>2026-03-22T11:22:47.998Z</time></trkpt><trkpt lat="43.371168581407396" lon="11.766531400332546"><ele>270.0</ele><time>2026-03-22T11:22:49.998Z</time></trkpt><trkpt lat="43.37121555504536" lon="11.76662822326468"><ele>270.0</ele><time>2026-03-22T11:22:51.998Z</time></trkpt><trkpt lat="43.37125909142797" lon="11.766724840903715"><ele>270.0</ele><time>2026-03-22T11:22:53.998Z</time></trkpt><trkpt lat="43.37130345892384" lon="11.766816447741137"><ele>270.0</ele><time>2026-03-22T11:22:55.998Z</time></trkpt><trkpt lat="43.37134770562536" lon="11.766906438575212"><ele>270.0</ele><time>2026-03-22T11:22:57.998Z</time></trkpt><trkpt lat="43.3713932389382" lon="11.766993926736914"><ele>270.8333333333333</ele><time>2026-03-22T11:22:59.998Z</time></trkpt><trkpt lat="43.37143149242535" lon="11.767086894773277"><ele>271.6666666666667</ele><time>2026-03-22T11:23:01.998Z</time></trkpt><trkpt lat="43.371479020782715" lon="11.767176206893957"><ele>272.5</ele><time>2026-03-22T11:23:03.998Z</time></trkpt><trkpt lat="43.37152252279159" lon="11.76725728490239"><ele>273.33333333333337</ele><time>2026-03-22T11:23:05.998Z</time></trkpt><trkpt lat="43.37157374315002" lon="11.767333563999024"><ele>274.1666666666667</ele><time>2026-03-22T11:23:07.998Z</time></trkpt><trkpt lat="43.37163162945434" lon="11.767406239492844"><ele>275.0</ele><time>2026-03-22T11:23:09.998Z</time></trkpt><trkpt lat="43.37168978504866" lon="11.76747389622299"><ele>275.0</ele><time>2026-03-22T11:23:12Z</time></trkpt><trkpt lat="43.37175207146314" lon="11.767528786063455"><ele>275.0</ele><time>2026-03-22T11:23:14Z</time></trkpt><trkpt lat="43.371820574239536" lon="11.767579648374044"><ele>275.0</ele><time>2026-03-22T11:23:16Z</time></trkpt><trkpt lat="43.37188442261031" lon="11.767632484648669"><ele>275.0</ele><time>2026-03-22T11:23:18Z</time></trkpt><trkpt lat="43.37195138915348" lon="11.767676487594743"><ele>275.0</ele><time>2026-03-22T11:23:20Z</time></trkpt><trkpt lat="43.37202068698701" lon="11.767720970512677"><ele>275.0</ele><time>2026-03-22T11:23:22Z</time></trkpt><trkpt lat="43.37208830404833" lon="11.767763228676376"><ele>275.33333333333337</ele><time>2026-03-22T11:23:24Z</time></trkpt><trkpt lat="43.37215966181604" lon="11.767806702305197"><ele>275.6666666666667</ele><time>2026-03-22T11:23:26Z</time></trkpt><trkpt lat="43.372232024722905" lon="11.767852913073726"><ele>276.0</ele><time>2026-03-22T11:23:28Z</time></trkpt><trkpt lat="43.372300799452894" lon="11.767895370428331"><ele>276.3333333333333</ele><time>2026-03-22T11:23:30Z</time></trkpt><trkpt lat="43.372367446585606" lon="11.76794016772522"><ele>276.66666666666663</ele><time>2026-03-22T11:23:32Z</time></trkpt><trkpt lat="43.37243674994796" lon="11.76798194428285"><ele>277.0</ele><time>2026-03-22T11:23:34Z</time></trkpt><trkpt lat="43.37250242818395" lon="11.76802616451939"><ele>277.1428571428571</ele><time>2026-03-22T11:23:36Z</time></trkpt><trkpt lat="43.37257124881397" lon="11.768063863386269"><ele>277.2857142857143</ele><time>2026-03-22T11:23:38Z</time></trkpt><trkpt lat="43.372637715753896" lon="11.768105400629834"><ele>277.42857142857144</ele><time>2026-03-22T11:23:40Z</time></trkpt><trkpt lat="43.372699754958944" lon="11.768147018034275"><ele>277.57142857142856</ele><time>2026-03-22T11:23:42Z</time></trkpt><trkpt lat="43.37275877421251" lon="11.768182647790988"><ele>277.7142857142857</ele><time>2026-03-22T11:23:44Z</time></trkpt><trkpt lat="43.372817372787246" lon="11.768223798693096"><ele>277.85714285714283</ele><time>2026-03-22T11:23:46Z</time></trkpt><trkpt lat="43.37287747836224" lon="11.768267237714953"><ele>278.0</ele><time>2026-03-22T11:23:47.999Z</time></trkpt><trkpt lat="43.3729367006027" lon="11.768312928616488"><ele>278.0</ele><time>2026-03-22T11:23:49.999Z</time></trkpt><trkpt lat="43.372994804091725" lon="11.768356443394794"><ele>278.0</ele><time>2026-03-22T11:23:51.999Z</time></trkpt><trkpt lat="43.37305175523197" lon="11.768406410480205"><ele>278.0</ele><time>2026-03-22T11:23:53.999Z</time></trkpt><trkpt lat="43.373106259762906" lon="11.76845272366497"><ele>278.0</ele><time>2026-03-22T11:23:55.999Z</time></trkpt><trkpt lat="43.37318104531859" lon="11.768530511410791"><ele>278.0</ele><time>2026-03-22T11:23:58.999Z</time></trkpt><trkpt lat="43.37323380246042" lon="11.768587219574416"><ele>278.0</ele><time>2026-03-22T11:24:00.999Z</time></trkpt><trkpt lat="43.373284223305156" lon="11.768643645412501"><ele>278.0</ele><time>2026-03-22T11:24:02.999Z</time></trkpt><trkpt lat="43.37333256234531" lon="11.768700322674198"><ele>278.57142857142856</ele><time>2026-03-22T11:24:04.999Z</time></trkpt><trkpt lat="43.373380912300064" lon="11.768761301059847"><ele>279.14285714285717</ele><time>2026-03-22T11:24:06.999Z</time></trkpt><trkpt lat="43.373430863720756" lon="11.768822452541002"><ele>279.7142857142857</ele><time>2026-03-22T11:24:08.999Z</time></trkpt><trkpt lat="43.37348323952164" lon="11.76888277614242"><ele>280.2857142857143</ele><time>2026-03-22T11:24:10.999Z</time></trkpt><trkpt lat="43.37353549994412" lon="11.76894592804782"><ele>280.85714285714283</ele><time>2026-03-22T11:24:12.999Z</time></trkpt><trkpt lat="43.37359076791146" lon="11.769012690880167"><ele>281.42857142857144</ele><time>2026-03-22T11:24:14.999Z</time></trkpt><trkpt lat="43.37364634177396" lon="11.769077021129402"><ele>282.0</ele><time>2026-03-22T11:24:16.999Z</time></trkpt><trkpt lat="43.37370686242709" lon="11.769147569809954"><ele>282.0</ele><time>2026-03-22T11:24:18.999Z</time></trkpt><trkpt lat="43.3737655572787" lon="11.769221305810557"><ele>282.0</ele><time>2026-03-22T11:24:20.999Z</time></trkpt><trkpt lat="43.37382937426019" lon="11.76929728845238"><ele>282.0</ele><time>2026-03-22T11:24:22.999Z</time></trkpt><trkpt lat="43.373896604809076" lon="11.769370818537471"><ele>282.0</ele><time>2026-03-22T11:24:24.999Z</time></trkpt><trkpt lat="43.373959261936946" lon="11.76945337124086"><ele>282.0</ele><time>2026-03-22T11:24:26.999Z</time></trkpt><trkpt lat="43.37401979137444" lon="11.769534918915648"><ele>282.0</ele><time>2026-03-22T11:24:28.999Z</time></trkpt><trkpt lat="43.37408768182295" lon="11.769621301075675"><ele>282.1666666666667</ele><time>2026-03-22T11:24:30.999Z</time></trkpt><trkpt lat="43.37415641021371" lon="11.769711992628498"><ele>282.3333333333333</ele><time>2026-03-22T11:24:32.999Z</time></trkpt><trkpt lat="43.37421801092634" lon="11.769809703774955"><ele>282.5</ele><time>2026-03-22T11:24:34.999Z</time></trkpt><trkpt lat="43.37427596457146" lon="11.769894321697452"><ele>282.66666666666663</ele><time>2026-03-22T11:24:36.998Z</time></trkpt><trkpt lat="43.37433129893446" lon="11.769971225247948"><ele>282.8333333333333</ele><time>2026-03-22T11:24:38.998Z</time></trkpt><trkpt lat="43.37440159089921" lon="11.770033717706822"><ele>283.0</ele><time>2026-03-22T11:24:40.998Z</time></trkpt><trkpt lat="43.37448108974186" lon="11.770094479940205"><ele>283.0</ele><time>2026-03-22T11:24:42.998Z</time></trkpt><trkpt lat="43.37456953300894" lon="11.770138130037076"><ele>283.0</ele><time>2026-03-22T11:24:44.998Z</time></trkpt><trkpt lat="43.37467740878973" lon="11.770155212738455"><ele>283.0</ele><time>2026-03-22T11:24:46.998Z</time></trkpt><trkpt lat="43.374785905455965" lon="11.770138822204496"><ele>283.0</ele><time>2026-03-22T11:24:48.998Z</time></trkpt><trkpt lat="43.37489836288617" lon="11.770107627581188"><ele>283.0</ele><time>2026-03-22T11:24:50.998Z</time></trkpt><trkpt lat="43.375011816927135" lon="11.770061244175462"><ele>282.16666666666663</ele><time>2026-03-22T11:24:52.998Z</time></trkpt><trkpt lat="43.37512665956653" lon="11.770007553701614"><ele>281.3333333333333</ele><time>2026-03-22T11:24:54.998Z</time></trkpt><trkpt lat="43.375243381306795" lon="11.769940387191218"><ele>280.5</ele><time>2026-03-22T11:24:56.998Z</time></trkpt><trkpt lat="43.3753027362422" lon="11.769899909635646"><ele>279.6666666666667</ele><time>2026-03-22T11:24:57.998Z</time></trkpt><trkpt lat="43.37536281143127" lon="11.769861835089715"><ele>278.83333333333337</ele><time>2026-03-22T11:24:58.998Z</time></trkpt><trkpt lat="43.37542677099527" lon="11.769825906938424"><ele>278.0</ele><time>2026-03-22T11:24:59.998Z</time></trkpt><trkpt lat="43.375491014088475" lon="11.76978385967835"><ele>277.33333333333337</ele><time>2026-03-22T11:25:00.998Z</time></trkpt><trkpt lat="43.37555758547031" lon="11.76974115708713"><ele>276.6666666666667</ele><time>2026-03-22T11:25:01.998Z</time></trkpt><trkpt lat="43.37562471344128" lon="11.76970463705971"><ele>276.0</ele><time>2026-03-22T11:25:02.998Z</time></trkpt><trkpt lat="43.375695684138314" lon="11.769662024057252"><ele>275.3333333333333</ele><time>2026-03-22T11:25:03.998Z</time></trkpt><trkpt lat="43.375767174994564" lon="11.769634836697616"><ele>274.66666666666663</ele><time>2026-03-22T11:25:04.998Z</time></trkpt><trkpt lat="43.37584245393032" lon="11.76962465463632"><ele>274.0</ele><time>2026-03-22T11:25:05.998Z</time></trkpt><trkpt lat="43.37591907617219" lon="11.76963849633381"><ele>274.00000000000006</ele><time>2026-03-22T11:25:06.998Z</time></trkpt><trkpt lat="43.37599284040623" lon="11.769671643779864"><ele>274.0</ele><time>2026-03-22T11:25:07.998Z</time></trkpt><trkpt lat="43.376049780441" lon="11.769743371715132"><ele>274.0</ele><time>2026-03-22T11:25:08.998Z</time></trkpt><trkpt lat="43.37611160310462" lon="11.769799269107626"><ele>274.0</ele><time>2026-03-22T11:25:09.998Z</time></trkpt><trkpt lat="43.37617064659839" lon="11.769861473881663"><ele>274.0</ele><time>2026-03-22T11:25:10.998Z</time></trkpt><trkpt lat="43.37622648561914" lon="11.769927069285506"><ele>274.00000000000006</ele><time>2026-03-22T11:25:11.998Z</time></trkpt><trkpt lat="43.37628065997498" lon="11.76999393544355"><ele>274.0</ele><time>2026-03-22T11:25:12.998Z</time></trkpt><trkpt lat="43.37633266568374" lon="11.770058496116482"><ele>274.0</ele><time>2026-03-22T11:25:13.998Z</time></trkpt><trkpt lat="43.376381222389554" lon="11.770118775338142"><ele>274.0</ele><time>2026-03-22T11:25:14.998Z</time></trkpt><trkpt lat="43.37642956460533" lon="11.770178787971409"><ele>274.0</ele><time>2026-03-22T11:25:15.998Z</time></trkpt><trkpt lat="43.376521280883956" lon="11.770292646327999"><ele>274.0</ele><time>2026-03-22T11:25:18Z</time></trkpt><trkpt lat="43.37660562978877" lon="11.770397358110541"><ele>274.0</ele><time>2026-03-22T11:25:20Z</time></trkpt><trkpt lat="43.37668770639196" lon="11.770499249426475"><ele>274.0</ele><time>2026-03-22T11:25:22Z</time></trkpt><trkpt lat="43.37678004236463" lon="11.770579233513798"><ele>274.0</ele><time>2026-03-22T11:25:24Z</time></trkpt><trkpt lat="43.37685735626595" lon="11.770670579272018"><ele>274.0</ele><time>2026-03-22T11:25:26Z</time></trkpt><trkpt lat="43.37693248887114" lon="11.770765394770875"><ele>274.0</ele><time>2026-03-22T11:25:28Z</time></trkpt><trkpt lat="43.377014256423976" lon="11.770856053104922"><ele>274.0</ele><time>2026-03-22T11:25:30Z</time></trkpt><trkpt lat="43.37709608168538" lon="11.770945309677833"><ele>273.5</ele><time>2026-03-22T11:25:32Z</time></trkpt><trkpt lat="43.377186636650876" lon="11.771025918716772"><ele>273.0</ele><time>2026-03-22T11:25:34Z</time></trkpt><trkpt lat="43.37728499745021" lon="11.771106616480113"><ele>272.5</ele><time>2026-03-22T11:25:36Z</time></trkpt><trkpt lat="43.3773896446846" lon="11.771179785641223"><ele>272.0</ele><time>2026-03-22T11:25:38Z</time></trkpt><trkpt lat="43.37749666087825" lon="11.77124107823037"><ele>272.0</ele><time>2026-03-22T11:25:40Z</time></trkpt><trkpt lat="43.37760742909364" lon="11.771303760927681"><ele>272.0</ele><time>2026-03-22T11:25:42Z</time></trkpt><trkpt lat="43.37772247536695" lon="11.771356976400789"><ele>272.0</ele><time>2026-03-22T11:25:44Z</time></trkpt><trkpt lat="43.377783908596214" lon="11.771381846293238"><ele>272.0</ele><time>2026-03-22T11:25:45Z</time></trkpt><trkpt lat="43.3779058186986" lon="11.77144219739397"><ele>272.0</ele><time>2026-03-22T11:25:47Z</time></trkpt><trkpt lat="43.37797277277029" lon="11.771469921223558"><ele>271.99999999999994</ele><time>2026-03-22T11:25:48Z</time></trkpt><trkpt lat="43.37803992170197" lon="11.771494349228037"><ele>272.0</ele><time>2026-03-22T11:25:49Z</time></trkpt><trkpt lat="43.37810604459461" lon="11.771516939202854"><ele>272.0</ele><time>2026-03-22T11:25:50Z</time></trkpt><trkpt lat="43.37817229187619" lon="11.77153915929976"><ele>272.0</ele><time>2026-03-22T11:25:51Z</time></trkpt><trkpt lat="43.37823804564563" lon="11.771560640718784"><ele>272.0</ele><time>2026-03-22T11:25:51.999Z</time></trkpt><trkpt lat="43.378303057112646" lon="11.77158074992062"><ele>271.99999999999994</ele><time>2026-03-22T11:25:52.999Z</time></trkpt><trkpt lat="43.378366657516274" lon="11.771601151163607"><ele>272.0</ele><time>2026-03-22T11:25:53.999Z</time></trkpt><trkpt lat="43.37842843320373" lon="11.77162207881018"><ele>272.0</ele><time>2026-03-22T11:25:54.999Z</time></trkpt><trkpt lat="43.37849069235696" lon="11.771643938231403"><ele>272.0</ele><time>2026-03-22T11:25:55.999Z</time></trkpt><trkpt lat="43.37860922183462" lon="11.771685610613357"><ele>272.0</ele><time>2026-03-22T11:25:57.999Z</time></trkpt><trkpt lat="43.378722115055176" lon="11.771722427427514"><ele>272.0</ele><time>2026-03-22T11:25:59.999Z</time></trkpt><trkpt lat="43.37882658577371" lon="11.771754024183055"><ele>272.0</ele><time>2026-03-22T11:26:01.999Z</time></trkpt><trkpt lat="43.378923787487864" lon="11.771787876653633"><ele>272.5</ele><time>2026-03-22T11:26:03.999Z</time></trkpt><trkpt lat="43.37901853455638" lon="11.77181621813497"><ele>273.0</ele><time>2026-03-22T11:26:05.999Z</time></trkpt><trkpt lat="43.37910576489124" lon="11.771848506425846"><ele>273.5</ele><time>2026-03-22T11:26:07.999Z</time></trkpt><trkpt lat="43.37918656590045" lon="11.771875532655617"><ele>274.0</ele><time>2026-03-22T11:26:09.999Z</time></trkpt><trkpt lat="43.37926278970213" lon="11.771903780262372"><ele>274.5</ele><time>2026-03-22T11:26:11.999Z</time></trkpt><trkpt lat="43.379334209078095" lon="11.771922339938511"><ele>275.0</ele><time>2026-03-22T11:26:13.999Z</time></trkpt><trkpt lat="43.379400663899496" lon="11.771947811402818"><ele>275.2857142857143</ele><time>2026-03-22T11:26:15.999Z</time></trkpt><trkpt lat="43.37946639531809" lon="11.771973593873703"><ele>275.57142857142856</ele><time>2026-03-22T11:26:17.999Z</time></trkpt><trkpt lat="43.37953685255182" lon="11.772003111516446"><ele>275.85714285714283</ele><time>2026-03-22T11:26:19.999Z</time></trkpt><trkpt lat="43.37960736364073" lon="11.772037201351553"><ele>276.1428571428571</ele><time>2026-03-22T11:26:21.999Z</time></trkpt><trkpt lat="43.379672150498486" lon="11.772074881246649"><ele>276.4285714285714</ele><time>2026-03-22T11:26:23.999Z</time></trkpt><trkpt lat="43.37973843946289" lon="11.772115223901707"><ele>276.7142857142857</ele><time>2026-03-22T11:26:25.999Z</time></trkpt><trkpt lat="43.37980401961033" lon="11.772159230970928"><ele>277.0</ele><time>2026-03-22T11:26:27.999Z</time></trkpt><trkpt lat="43.379871952188076" lon="11.772209129889891"><ele>277.2857142857143</ele><time>2026-03-22T11:26:29.999Z</time></trkpt><trkpt lat="43.379933929710226" lon="11.772259444128391"><ele>277.57142857142856</ele><time>2026-03-22T11:26:31.999Z</time></trkpt><trkpt lat="43.379992880672425" lon="11.772312611614941"><ele>277.85714285714283</ele><time>2026-03-22T11:26:33.999Z</time></trkpt><trkpt lat="43.380053633218544" lon="11.772365832860682"><ele>278.1428571428571</ele><time>2026-03-22T11:26:35.999Z</time></trkpt><trkpt lat="43.38011309684889" lon="11.772426905457648"><ele>278.42857142857144</ele><time>2026-03-22T11:26:37.999Z</time></trkpt><trkpt lat="43.38017503540168" lon="11.772489519437082"><ele>278.71428571428567</ele><time>2026-03-22T11:26:39.998Z</time></trkpt><trkpt lat="43.3802363110194" lon="11.772556520123281"><ele>279.0</ele><time>2026-03-22T11:26:41.998Z</time></trkpt><trkpt lat="43.38030057845628" lon="11.772624221505758"><ele>279.1666666666667</ele><time>2026-03-22T11:26:43.998Z</time></trkpt><trkpt lat="43.380362285588596" lon="11.772693497415199"><ele>279.3333333333333</ele><time>2026-03-22T11:26:45.998Z</time></trkpt><trkpt lat="43.380420841579785" lon="11.77276541614272"><ele>279.5</ele><time>2026-03-22T11:26:47.998Z</time></trkpt><trkpt lat="43.38048622892342" lon="11.772830782954822"><ele>279.66666666666663</ele><time>2026-03-22T11:26:49.998Z</time></trkpt><trkpt lat="43.38054638962655" lon="11.77290622225846"><ele>279.8333333333333</ele><time>2026-03-22T11:26:51.998Z</time></trkpt><trkpt lat="43.38060748378826" lon="11.7729806228965"><ele>280.0</ele><time>2026-03-22T11:26:53.998Z</time></trkpt><trkpt lat="43.38066576392266" lon="11.773055259999953"><ele>280.0</ele><time>2026-03-22T11:26:55.998Z</time></trkpt><trkpt lat="43.380726628491" lon="11.773127978401517"><ele>280.0</ele><time>2026-03-22T11:26:57.998Z</time></trkpt><trkpt lat="43.38078102960669" lon="11.773204746444582"><ele>280.0</ele><time>2026-03-22T11:26:59.998Z</time></trkpt><trkpt lat="43.38083331935816" lon="11.773266469346446"><ele>280.0</ele><time>2026-03-22T11:27:01.998Z</time></trkpt><trkpt lat="43.38089317884297" lon="11.773333098984564"><ele>280.0</ele><time>2026-03-22T11:27:03.998Z</time></trkpt><trkpt lat="43.38095357647446" lon="11.773406432491132"><ele>280.0</ele><time>2026-03-22T11:27:05.998Z</time></trkpt><trkpt lat="43.38101320911281" lon="11.773486050091792"><ele>279.8333333333333</ele><time>2026-03-22T11:27:07.998Z</time></trkpt><trkpt lat="43.381076650166825" lon="11.7735696720267"><ele>279.66666666666663</ele><time>2026-03-22T11:27:09.998Z</time></trkpt><trkpt lat="43.38114332145867" lon="11.77365056545304"><ele>279.5</ele><time>2026-03-22T11:27:11.998Z</time></trkpt><trkpt lat="43.3812157008564" lon="11.773734288758089"><ele>279.3333333333333</ele><time>2026-03-22T11:27:13.998Z</time></trkpt><trkpt lat="43.38127597698855" lon="11.773810199536072"><ele>279.1666666666667</ele><time>2026-03-22T11:27:15.998Z</time></trkpt><trkpt lat="43.381333090471216" lon="11.773876425267678"><ele>279.0</ele><time>2026-03-22T11:27:17.998Z</time></trkpt><trkpt lat="43.38139696013929" lon="11.773962053424977"><ele>279.0</ele><time>2026-03-22T11:27:19.998Z</time></trkpt><trkpt lat="43.38147054325227" lon="11.774052705100443"><ele>279.0</ele><time>2026-03-22T11:27:21.998Z</time></trkpt><trkpt lat="43.38153634993793" lon="11.774136330742015"><ele>279.0</ele><time>2026-03-22T11:27:24Z</time></trkpt><trkpt lat="43.381602677058375" lon="11.77421597170327"><ele>279.0</ele><time>2026-03-22T11:27:26Z</time></trkpt><trkpt lat="43.3816688618023" lon="11.774298085422785"><ele>279.0</ele><time>2026-03-22T11:27:28Z</time></trkpt><trkpt lat="43.3817371201207" lon="11.774379322541517"><ele>278.59999999999997</ele><time>2026-03-22T11:27:30Z</time></trkpt><trkpt lat="43.38180832903945" lon="11.774462913381596"><ele>278.2</ele><time>2026-03-22T11:27:32Z</time></trkpt><trkpt lat="43.38187812897555" lon="11.77456293488823"><ele>277.79999999999995</ele><time>2026-03-22T11:27:34Z</time></trkpt><trkpt lat="43.38196092134475" lon="11.774658790160371"><ele>277.4</ele><time>2026-03-22T11:27:36Z</time></trkpt><trkpt lat="43.38203512799414" lon="11.774751392871737"><ele>277.0</ele><time>2026-03-22T11:27:38Z</time></trkpt><trkpt lat="43.382109787791826" lon="11.77484038518666"><ele>277.0</ele><time>2026-03-22T11:27:40Z</time></trkpt><trkpt lat="43.38218137618669" lon="11.774933763712653"><ele>277.0</ele><time>2026-03-22T11:27:42Z</time></trkpt><trkpt lat="43.38225333619026" lon="11.775018929750372"><ele>277.0</ele><time>2026-03-22T11:27:44Z</time></trkpt><trkpt lat="43.38232108614694" lon="11.775111417218703"><ele>277.0</ele><time>2026-03-22T11:27:46Z</time></trkpt><trkpt lat="43.38239998894815" lon="11.775202163786425"><ele>277.0</ele><time>2026-03-22T11:27:48Z</time></trkpt><trkpt lat="43.382466810799805" lon="11.775316656087108"><ele>277.0</ele><time>2026-03-22T11:27:50Z</time></trkpt><trkpt lat="43.38255046316788" lon="11.77540109383667"><ele>277.0</ele><time>2026-03-22T11:27:52Z</time></trkpt><trkpt lat="43.3826376482606" lon="11.775487420417164"><ele>277.0</ele><time>2026-03-22T11:27:54Z</time></trkpt><trkpt lat="43.382724670464455" lon="11.775570949369532"><ele>277.0</ele><time>2026-03-22T11:27:56Z</time></trkpt><trkpt lat="43.382820662779544" lon="11.77566262204443"><ele>277.0</ele><time>2026-03-22T11:27:58Z</time></trkpt><trkpt lat="43.38292072983437" lon="11.775758185982932"><ele>277.0</ele><time>2026-03-22T11:28:00Z</time></trkpt><trkpt lat="43.38298395117396" lon="11.775784381497225"><ele>277.0</ele><time>2026-03-22T11:28:01Z</time></trkpt><trkpt lat="43.383036887545224" lon="11.775834521834485"><ele>277.0</ele><time>2026-03-22T11:28:01.999Z</time></trkpt><trkpt lat="43.3830910264754" lon="11.775883286553357"><ele>277.0</ele><time>2026-03-22T11:28:02.999Z</time></trkpt><trkpt lat="43.38314715504904" lon="11.775933131142208"><ele>277.0</ele><time>2026-03-22T11:28:03.999Z</time></trkpt><trkpt lat="43.38320005009876" lon="11.775985008546014"><ele>277.0</ele><time>2026-03-22T11:28:04.999Z</time></trkpt><trkpt lat="43.383256157236794" lon="11.776042897525492"><ele>277.0</ele><time>2026-03-22T11:28:05.999Z</time></trkpt><trkpt lat="43.383313544092175" lon="11.776095390215358"><ele>276.57142857142856</ele><time>2026-03-22T11:28:06.999Z</time></trkpt><trkpt lat="43.38337022211437" lon="11.776148134572187"><ele>276.1428571428571</ele><time>2026-03-22T11:28:07.999Z</time></trkpt><trkpt lat="43.38342577933265" lon="11.776203692135715"><ele>275.7142857142857</ele><time>2026-03-22T11:28:08.999Z</time></trkpt><trkpt lat="43.383482866882744" lon="11.7762571064193"><ele>275.2857142857143</ele><time>2026-03-22T11:28:09.999Z</time></trkpt><trkpt lat="43.38354331771349" lon="11.776310098784263"><ele>274.8571428571429</ele><time>2026-03-22T11:28:10.999Z</time></trkpt><trkpt lat="43.38359784261091" lon="11.776364150156068"><ele>274.42857142857144</ele><time>2026-03-22T11:28:11.999Z</time></trkpt><trkpt lat="43.3836536582213" lon="11.776417459993098"><ele>274.0</ele><time>2026-03-22T11:28:12.999Z</time></trkpt><trkpt lat="43.383710970702474" lon="11.776467962129576"><ele>274.00000000000006</ele><time>2026-03-22T11:28:13.999Z</time></trkpt><trkpt lat="43.38376581110434" lon="11.776519969825504"><ele>274.0</ele><time>2026-03-22T11:28:14.999Z</time></trkpt><trkpt lat="43.383824248519105" lon="11.776570731915948"><ele>274.0</ele><time>2026-03-22T11:28:15.999Z</time></trkpt><trkpt lat="43.38387923906435" lon="11.776619596895447"><ele>274.0</ele><time>2026-03-22T11:28:16.999Z</time></trkpt><trkpt lat="43.383933742697415" lon="11.776676660697136"><ele>274.0</ele><time>2026-03-22T11:28:17.999Z</time></trkpt><trkpt lat="43.38398751609655" lon="11.776731968918448"><ele>274.00000000000006</ele><time>2026-03-22T11:28:18.999Z</time></trkpt><trkpt lat="43.38404627415592" lon="11.776780626770929"><ele>274.0</ele><time>2026-03-22T11:28:19.999Z</time></trkpt><trkpt lat="43.38415486479236" lon="11.776877666071355"><ele>273.14285714285717</ele><time>2026-03-22T11:28:21.999Z</time></trkpt><trkpt lat="43.38419741123307" lon="11.776962203403341"><ele>272.2857142857143</ele><time>2026-03-22T11:28:22.999Z</time></trkpt><trkpt lat="43.384256861174265" lon="11.777018617445531"><ele>271.42857142857144</ele><time>2026-03-22T11:28:23.999Z</time></trkpt><trkpt lat="43.384316097466034" lon="11.777074625984794"><ele>270.57142857142856</ele><time>2026-03-22T11:28:24.999Z</time></trkpt><trkpt lat="43.38437315051726" lon="11.777128236033242"><ele>269.7142857142857</ele><time>2026-03-22T11:28:25.999Z</time></trkpt><trkpt lat="43.38443201087143" lon="11.777183543938325"><ele>268.8571428571429</ele><time>2026-03-22T11:28:26.999Z</time></trkpt><trkpt lat="43.384490650299355" lon="11.777238807890425"><ele>268.0</ele><time>2026-03-22T11:28:27.999Z</time></trkpt><trkpt lat="43.3845458754499" lon="11.777290913726254"><ele>268.0</ele><time>2026-03-22T11:28:28.999Z</time></trkpt><trkpt lat="43.384600978955" lon="11.777342904777086"><ele>268.0</ele><time>2026-03-22T11:28:29.999Z</time></trkpt><trkpt lat="43.384654260689885" lon="11.77739315677255"><ele>268.0</ele><time>2026-03-22T11:28:30.999Z</time></trkpt><trkpt lat="43.384709309252344" lon="11.777445061825409"><ele>268.0</ele><time>2026-03-22T11:28:31.999Z</time></trkpt><trkpt lat="43.38476323650607" lon="11.777495909549064"><ele>268.0</ele><time>2026-03-22T11:28:32.999Z</time></trkpt><trkpt lat="43.384815745944515" lon="11.777545420440898"><ele>268.0</ele><time>2026-03-22T11:28:33.999Z</time></trkpt><trkpt lat="43.38491786822115" lon="11.777641710989277"><ele>268.2857142857143</ele><time>2026-03-22T11:28:35.999Z</time></trkpt><trkpt lat="43.38497081779959" lon="11.77769163682206"><ele>268.57142857142856</ele><time>2026-03-22T11:28:36.999Z</time></trkpt><trkpt lat="43.38502501226459" lon="11.777742736576684"><ele>268.85714285714283</ele><time>2026-03-22T11:28:37.999Z</time></trkpt><trkpt lat="43.38508588632583" lon="11.777773703205497"><ele>269.1428571428571</ele><time>2026-03-22T11:28:38.999Z</time></trkpt><trkpt lat="43.38513874745674" lon="11.777821536347318"><ele>269.4285714285714</ele><time>2026-03-22T11:28:39.999Z</time></trkpt><trkpt lat="43.385190565550346" lon="11.777871277512633"><ele>269.7142857142857</ele><time>2026-03-22T11:28:40.999Z</time></trkpt><trkpt lat="43.385291768834435" lon="11.777971516525174"><ele>270.0</ele><time>2026-03-22T11:28:42.999Z</time></trkpt><trkpt lat="43.385388230927326" lon="11.77806682281413"><ele>270.0</ele><time>2026-03-22T11:28:44.999Z</time></trkpt><trkpt lat="43.38547867724542" lon="11.778170494923403"><ele>270.0</ele><time>2026-03-22T11:28:46.999Z</time></trkpt><trkpt lat="43.38554167424909" lon="11.77820384917019"><ele>270.0</ele><time>2026-03-22T11:28:47.999Z</time></trkpt><trkpt lat="43.38563116538325" lon="11.778314275150942"><ele>270.0</ele><time>2026-03-22T11:28:49.999Z</time></trkpt><trkpt lat="43.38572619454292" lon="11.7784038776867"><ele>270.0</ele><time>2026-03-22T11:28:51.998Z</time></trkpt><trkpt lat="43.38582135137312" lon="11.778493554044866"><ele>270.4</ele><time>2026-03-22T11:28:53.998Z</time></trkpt><trkpt lat="43.38590947328021" lon="11.778576578573768"><ele>270.8</ele><time>2026-03-22T11:28:55.998Z</time></trkpt><trkpt lat="43.385991211058595" lon="11.778653588269796"><ele>271.2</ele><time>2026-03-22T11:28:57.998Z</time></trkpt><trkpt lat="43.38607291159569" lon="11.778730562864702"><ele>271.6</ele><time>2026-03-22T11:28:59.998Z</time></trkpt><trkpt lat="43.38615257987661" lon="11.778805622778039"><ele>272.0</ele><time>2026-03-22T11:29:01.998Z</time></trkpt><trkpt lat="43.3862338629816" lon="11.77888220414155"><ele>272.0</ele><time>2026-03-22T11:29:03.998Z</time></trkpt><trkpt lat="43.38631822179317" lon="11.77896168325776"><ele>272.0</ele><time>2026-03-22T11:29:05.998Z</time></trkpt><trkpt lat="43.386407608823276" lon="11.7790458997617"><ele>272.0</ele><time>2026-03-22T11:29:07.998Z</time></trkpt><trkpt lat="43.386498641572246" lon="11.779131666773582"><ele>272.0</ele><time>2026-03-22T11:29:09.998Z</time></trkpt><trkpt lat="43.38658626188125" lon="11.779214218720403"><ele>272.0</ele><time>2026-03-22T11:29:11.998Z</time></trkpt><trkpt lat="43.38668262590028" lon="11.779280754770781"><ele>271.5</ele><time>2026-03-22T11:29:13.998Z</time></trkpt><trkpt lat="43.38677163775172" lon="11.779372025070389"><ele>271.0</ele><time>2026-03-22T11:29:15.998Z</time></trkpt><trkpt lat="43.38686732640177" lon="11.779458585688689"><ele>270.5</ele><time>2026-03-22T11:29:17.998Z</time></trkpt><trkpt lat="43.38696433715546" lon="11.779545117161849"><ele>270.0</ele><time>2026-03-22T11:29:19.998Z</time></trkpt><trkpt lat="43.3870488317811" lon="11.779651308494929"><ele>270.0</ele><time>2026-03-22T11:29:21.998Z</time></trkpt><trkpt lat="43.38714842340702" lon="11.779719026465443"><ele>270.0</ele><time>2026-03-22T11:29:23.998Z</time></trkpt><trkpt lat="43.387241764640535" lon="11.779808198642728"><ele>270.0</ele><time>2026-03-22T11:29:25.998Z</time></trkpt><trkpt lat="43.387326745477715" lon="11.779913946788477"><ele>270.0</ele><time>2026-03-22T11:29:27.998Z</time></trkpt><trkpt lat="43.38742202710268" lon="11.780003991351416"><ele>270.25</ele><time>2026-03-22T11:29:30Z</time></trkpt><trkpt lat="43.38751785381002" lon="11.780094551068368"><ele>270.5</ele><time>2026-03-22T11:29:32Z</time></trkpt><trkpt lat="43.387615075073626" lon="11.780186259359148"><ele>270.75</ele><time>2026-03-22T11:29:34Z</time></trkpt><trkpt lat="43.38770838873009" lon="11.780252147069914"><ele>271.0</ele><time>2026-03-22T11:29:36Z</time></trkpt><trkpt lat="43.38780565601115" lon="11.780339485101749"><ele>271.2</ele><time>2026-03-22T11:29:38Z</time></trkpt><trkpt lat="43.38789564231959" lon="11.780426595058485"><ele>271.40000000000003</ele><time>2026-03-22T11:29:40Z</time></trkpt><trkpt lat="43.38800118142206" lon="11.780522077841722"><ele>271.6</ele><time>2026-03-22T11:29:42Z</time></trkpt><trkpt lat="43.38809009837051" lon="11.78061594580424"><ele>271.8</ele><time>2026-03-22T11:29:44Z</time></trkpt><trkpt lat="43.38814280961061" lon="11.780664545728474"><ele>272.0</ele><time>2026-03-22T11:29:45Z</time></trkpt><trkpt lat="43.38824322944677" lon="11.780763016890301"><ele>272.0</ele><time>2026-03-22T11:29:47Z</time></trkpt><trkpt lat="43.3882996426361" lon="11.7808080461051"><ele>272.0</ele><time>2026-03-22T11:29:48Z</time></trkpt><trkpt lat="43.38840159616304" lon="11.780908784081031"><ele>272.0</ele><time>2026-03-22T11:29:50Z</time></trkpt><trkpt lat="43.388453132817716" lon="11.780959216998147"><ele>272.0</ele><time>2026-03-22T11:29:51Z</time></trkpt><trkpt lat="43.38850719806079" lon="11.781007890742037"><ele>272.0</ele><time>2026-03-22T11:29:52Z</time></trkpt><trkpt lat="43.38855967641901" lon="11.781058532342236"><ele>272.0</ele><time>2026-03-22T11:29:53Z</time></trkpt><trkpt lat="43.38861525243675" lon="11.781109716316138"><ele>271.83333333333337</ele><time>2026-03-22T11:29:54Z</time></trkpt><trkpt lat="43.38867049154513" lon="11.781159700791433"><ele>271.6666666666667</ele><time>2026-03-22T11:29:55Z</time></trkpt><trkpt lat="43.38877613704286" lon="11.781262382337834"><ele>271.5</ele><time>2026-03-22T11:29:57Z</time></trkpt><trkpt lat="43.38883164577157" lon="11.781310618522365"><ele>271.3333333333333</ele><time>2026-03-22T11:29:58Z</time></trkpt><trkpt lat="43.38888823281269" lon="11.78136518483642"><ele>271.16666666666663</ele><time>2026-03-22T11:29:59Z</time></trkpt><trkpt lat="43.38894557671053" lon="11.781416519404791"><ele>271.0</ele><time>2026-03-22T11:30:00Z</time></trkpt><trkpt lat="43.389000119877295" lon="11.781467425492146"><ele>271.0</ele><time>2026-03-22T11:30:01Z</time></trkpt><trkpt lat="43.3890547578026" lon="11.781519827004841"><ele>271.0</ele><time>2026-03-22T11:30:02Z</time></trkpt><trkpt lat="43.38910865832374" lon="11.781566188871414"><ele>271.0</ele><time>2026-03-22T11:30:03Z</time></trkpt><trkpt lat="43.389152397390454" lon="11.781635697852757"><ele>271.0</ele><time>2026-03-22T11:30:04Z</time></trkpt><trkpt lat="43.389258400623966" lon="11.781715965151461"><ele>271.0</ele><time>2026-03-22T11:30:06Z</time></trkpt><trkpt lat="43.38931003124692" lon="11.781768331890301"><ele>271.0</ele><time>2026-03-22T11:30:07Z</time></trkpt><trkpt lat="43.389401869628294" lon="11.781874175722407"><ele>271.0</ele><time>2026-03-22T11:30:08.999Z</time></trkpt><trkpt lat="43.38947367822081" lon="11.781942939176066"><ele>271.0</ele><time>2026-03-22T11:30:09.999Z</time></trkpt><trkpt lat="43.389533618055076" lon="11.781979113461963"><ele>271.0</ele><time>2026-03-22T11:30:10.999Z</time></trkpt><trkpt lat="43.389638912843516" lon="11.782088766537782"><ele>271.0</ele><time>2026-03-22T11:30:12.999Z</time></trkpt><trkpt lat="43.38969346604412" lon="11.782143268079393"><ele>271.0</ele><time>2026-03-22T11:30:13.999Z</time></trkpt><trkpt lat="43.38975010960951" lon="11.782196049074937"><ele>271.0</ele><time>2026-03-22T11:30:14.999Z</time></trkpt><trkpt lat="43.38980628896713" lon="11.782247082733111"><ele>271.0</ele><time>2026-03-22T11:30:15.999Z</time></trkpt><trkpt lat="43.389857282293214" lon="11.78229864967239"><ele>271.0</ele><time>2026-03-22T11:30:16.999Z</time></trkpt><trkpt lat="43.389910213567624" lon="11.782346574799904"><ele>271.0</ele><time>2026-03-22T11:30:17.999Z</time></trkpt><trkpt lat="43.39000897317018" lon="11.782442655593213"><ele>271.0</ele><time>2026-03-22T11:30:19.999Z</time></trkpt><trkpt lat="43.390098586245934" lon="11.782534435918517"><ele>271.0</ele><time>2026-03-22T11:30:21.999Z</time></trkpt><trkpt lat="43.390202847812745" lon="11.782630925162529"><ele>270.8</ele><time>2026-03-22T11:30:23.999Z</time></trkpt><trkpt lat="43.39030465907962" lon="11.782723381924663"><ele>270.6</ele><time>2026-03-22T11:30:25.999Z</time></trkpt><trkpt lat="43.39040473433091" lon="11.78281826006156"><ele>270.4</ele><time>2026-03-22T11:30:27.999Z</time></trkpt><trkpt lat="43.39050392017773" lon="11.78291843240692"><ele>270.2</ele><time>2026-03-22T11:30:29.999Z</time></trkpt><trkpt lat="43.39054648791542" lon="11.782984846846604"><ele>270.0</ele><time>2026-03-22T11:30:30.999Z</time></trkpt><trkpt lat="43.3905973788755" lon="11.78303664697706"><ele>269.8333333333333</ele><time>2026-03-22T11:30:31.999Z</time></trkpt><trkpt lat="43.39064927936575" lon="11.78309040549346"><ele>269.6666666666667</ele><time>2026-03-22T11:30:32.999Z</time></trkpt><trkpt lat="43.39074933304785" lon="11.783199149976975"><ele>269.5</ele><time>2026-03-22T11:30:34.999Z</time></trkpt><trkpt lat="43.390799283607535" lon="11.783257162215223"><ele>269.33333333333337</ele><time>2026-03-22T11:30:35.999Z</time></trkpt><trkpt lat="43.39084827418789" lon="11.783315187493132"><ele>269.1666666666667</ele><time>2026-03-22T11:30:36.999Z</time></trkpt><trkpt lat="43.390896125145325" lon="11.783373759485668"><ele>269.0</ele><time>2026-03-22T11:30:37.999Z</time></trkpt><trkpt lat="43.39094667897229" lon="11.78343558069567"><ele>269.0</ele><time>2026-03-22T11:30:38.999Z</time></trkpt><trkpt lat="43.391006690238434" lon="11.783480076986415"><ele>269.0</ele><time>2026-03-22T11:30:39.999Z</time></trkpt><trkpt lat="43.391057883093666" lon="11.783550772070523"><ele>269.0</ele><time>2026-03-22T11:30:40.999Z</time></trkpt><trkpt lat="43.39111687403739" lon="11.783616466856786"><ele>269.0</ele><time>2026-03-22T11:30:41.999Z</time></trkpt><trkpt lat="43.39116156847968" lon="11.783686499563581"><ele>269.0</ele><time>2026-03-22T11:30:42.999Z</time></trkpt><trkpt lat="43.39122002538422" lon="11.783752901300275"><ele>269.0</ele><time>2026-03-22T11:30:43.999Z</time></trkpt><trkpt lat="43.39127633482883" lon="11.783818272829347"><ele>269.0</ele><time>2026-03-22T11:30:44.999Z</time></trkpt><trkpt lat="43.39132277097625" lon="11.783887290062527"><ele>268.42857142857144</ele><time>2026-03-22T11:30:45.999Z</time></trkpt><trkpt lat="43.39137932122384" lon="11.783954666144531"><ele>267.8571428571429</ele><time>2026-03-22T11:30:46.999Z</time></trkpt><trkpt lat="43.39142794712973" lon="11.784023324262328"><ele>267.2857142857143</ele><time>2026-03-22T11:30:47.999Z</time></trkpt><trkpt lat="43.39148210274653" lon="11.78408567300024"><ele>266.7142857142857</ele><time>2026-03-22T11:30:48.999Z</time></trkpt><trkpt lat="43.39153804614149" lon="11.784147616460787"><ele>266.1428571428571</ele><time>2026-03-22T11:30:49.999Z</time></trkpt><trkpt lat="43.391586103614905" lon="11.784211618701734"><ele>265.57142857142856</ele><time>2026-03-22T11:30:50.999Z</time></trkpt><trkpt lat="43.3916344002479" lon="11.784273049112793"><ele>265.0</ele><time>2026-03-22T11:30:51.999Z</time></trkpt><trkpt lat="43.39168518767165" lon="11.784336789838024"><ele>265.2857142857143</ele><time>2026-03-22T11:30:52.999Z</time></trkpt><trkpt lat="43.39173618098417" lon="11.784400232787345"><ele>265.57142857142856</ele><time>2026-03-22T11:30:53.999Z</time></trkpt><trkpt lat="43.39178283642977" lon="11.784467629592104"><ele>265.8571428571429</ele><time>2026-03-22T11:30:54.999Z</time></trkpt><trkpt lat="43.391835240916535" lon="11.784527860334382"><ele>266.1428571428571</ele><time>2026-03-22T11:30:55.999Z</time></trkpt><trkpt lat="43.39188273626044" lon="11.784591160128867"><ele>266.42857142857144</ele><time>2026-03-22T11:30:56.998Z</time></trkpt><trkpt lat="43.39192999025917" lon="11.784656675671659"><ele>266.7142857142857</ele><time>2026-03-22T11:30:57.998Z</time></trkpt><trkpt lat="43.39197472673696" lon="11.784722207661687"><ele>267.0</ele><time>2026-03-22T11:30:58.998Z</time></trkpt><trkpt lat="43.3920176241579" lon="11.784788111263481"><ele>267.0</ele><time>2026-03-22T11:30:59.998Z</time></trkpt><trkpt lat="43.39205890203849" lon="11.784855599794733"><ele>267.0</ele><time>2026-03-22T11:31:00.998Z</time></trkpt><trkpt lat="43.3921003154102" lon="11.784921248382053"><ele>267.0</ele><time>2026-03-22T11:31:01.998Z</time></trkpt><trkpt lat="43.39217329389588" lon="11.785052299864745"><ele>267.0</ele><time>2026-03-22T11:31:03.998Z</time></trkpt><trkpt lat="43.39218900134471" lon="11.785137138283034"><ele>267.0</ele><time>2026-03-22T11:31:04.998Z</time></trkpt><trkpt lat="43.39224206577007" lon="11.785282068318786"><ele>267.0</ele><time>2026-03-22T11:31:06.998Z</time></trkpt><trkpt lat="43.39229073633657" lon="11.785426049060632"><ele>267.0</ele><time>2026-03-22T11:31:08.998Z</time></trkpt><trkpt lat="43.39232872739704" lon="11.78556619163828"><ele>267.0</ele><time>2026-03-22T11:31:10.998Z</time></trkpt><trkpt lat="43.392366370148984" lon="11.785712903056899"><ele>267.0</ele><time>2026-03-22T11:31:12.998Z</time></trkpt><trkpt lat="43.39242184126444" lon="11.785862216978598"><ele>267.0</ele><time>2026-03-22T11:31:14.998Z</time></trkpt><trkpt lat="43.39246821052589" lon="11.785937476750515"><ele>267.0</ele><time>2026-03-22T11:31:15.998Z</time></trkpt><trkpt lat="43.392525775508126" lon="11.785992207375287"><ele>266.6666666666667</ele><time>2026-03-22T11:31:16.998Z</time></trkpt><trkpt lat="43.392580306553775" lon="11.786051504274754"><ele>266.3333333333333</ele><time>2026-03-22T11:31:17.998Z</time></trkpt><trkpt lat="43.39263589112275" lon="11.786109377703431"><ele>266.0</ele><time>2026-03-22T11:31:18.998Z</time></trkpt><trkpt lat="43.39268862599104" lon="11.786190767525932"><ele>265.66666666666663</ele><time>2026-03-22T11:31:19.998Z</time></trkpt><trkpt lat="43.39275022516362" lon="11.786256473759654"><ele>265.3333333333333</ele><time>2026-03-22T11:31:20.998Z</time></trkpt><trkpt lat="43.39281043215384" lon="11.786332196136822"><ele>265.0</ele><time>2026-03-22T11:31:21.998Z</time></trkpt><trkpt lat="43.39286553683015" lon="11.786423285409294"><ele>265.0</ele><time>2026-03-22T11:31:22.998Z</time></trkpt><trkpt lat="43.39287729369205" lon="11.786535411920731"><ele>265.0</ele><time>2026-03-22T11:31:23.998Z</time></trkpt><trkpt lat="43.39291287472269" lon="11.786652280200553"><ele>265.0</ele><time>2026-03-22T11:31:24.998Z</time></trkpt><trkpt lat="43.39294893243498" lon="11.786761681496937"><ele>265.0</ele><time>2026-03-22T11:31:25.998Z</time></trkpt><trkpt lat="43.39301554215547" lon="11.786861776328482"><ele>265.0</ele><time>2026-03-22T11:31:26.998Z</time></trkpt><trkpt lat="43.393082284191266" lon="11.786941175902767"><ele>265.0</ele><time>2026-03-22T11:31:27.998Z</time></trkpt><trkpt lat="43.39316484352657" lon="11.786990747797807"><ele>263.66666666666663</ele><time>2026-03-22T11:31:28.998Z</time></trkpt><trkpt lat="43.39324053061508" lon="11.78704310620114"><ele>262.3333333333333</ele><time>2026-03-22T11:31:29.998Z</time></trkpt><trkpt lat="43.393315034114124" lon="11.787098761194704"><ele>261.0</ele><time>2026-03-22T11:31:30.998Z</time></trkpt><trkpt lat="43.39339279009033" lon="11.787144201653232"><ele>259.6666666666667</ele><time>2026-03-22T11:31:31.998Z</time></trkpt><trkpt lat="43.393471479055975" lon="11.787188334053214"><ele>258.33333333333337</ele><time>2026-03-22T11:31:32.998Z</time></trkpt><trkpt lat="43.39355019108758" lon="11.78723316356951"><ele>257.0</ele><time>2026-03-22T11:31:33.998Z</time></trkpt><trkpt lat="43.39362819116679" lon="11.787276564727602"><ele>257.0</ele><time>2026-03-22T11:31:35Z</time></trkpt><trkpt lat="43.39370220521279" lon="11.787322916757319"><ele>257.0</ele><time>2026-03-22T11:31:36Z</time></trkpt><trkpt lat="43.39377692087321" lon="11.787359556840892"><ele>257.0</ele><time>2026-03-22T11:31:37Z</time></trkpt><trkpt lat="43.393849881338895" lon="11.787398448004735"><ele>257.0</ele><time>2026-03-22T11:31:38Z</time></trkpt><trkpt lat="43.39392033356866" lon="11.787436928904972"><ele>257.0</ele><time>2026-03-22T11:31:39Z</time></trkpt><trkpt lat="43.39399029794217" lon="11.787473166503311"><ele>257.0</ele><time>2026-03-22T11:31:40Z</time></trkpt><trkpt lat="43.39406000958516" lon="11.787508665547323"><ele>257.0</ele><time>2026-03-22T11:31:41Z</time></trkpt><trkpt lat="43.39412898222502" lon="11.787543478409104"><ele>257.0</ele><time>2026-03-22T11:31:42Z</time></trkpt><trkpt lat="43.39419703453785" lon="11.787579703198254"><ele>257.0</ele><time>2026-03-22T11:31:43Z</time></trkpt><trkpt lat="43.394263993715946" lon="11.787610858866369"><ele>257.0</ele><time>2026-03-22T11:31:44Z</time></trkpt><trkpt lat="43.39432957795711" lon="11.787644384294653"><ele>257.0</ele><time>2026-03-22T11:31:45Z</time></trkpt><trkpt lat="43.39439147355646" lon="11.787679446168141"><ele>257.0</ele><time>2026-03-22T11:31:46Z</time></trkpt><trkpt lat="43.39445342240633" lon="11.7877103898487"><ele>257.0</ele><time>2026-03-22T11:31:47Z</time></trkpt><trkpt lat="43.39451356621522" lon="11.787742216806183"><ele>256.8</ele><time>2026-03-22T11:31:48Z</time></trkpt><trkpt lat="43.39457338361461" lon="11.78777266533603"><ele>256.6</ele><time>2026-03-22T11:31:49Z</time></trkpt><trkpt lat="43.39463409455863" lon="11.787804352532023"><ele>256.40000000000003</ele><time>2026-03-22T11:31:50Z</time></trkpt><trkpt lat="43.39474896627078" lon="11.787865386352708"><ele>256.2</ele><time>2026-03-22T11:31:52Z</time></trkpt><trkpt lat="43.3948591556617" lon="11.78792578273933"><ele>256.0</ele><time>2026-03-22T11:31:54Z</time></trkpt><trkpt lat="43.394967653348594" lon="11.787982720163438"><ele>256.5</ele><time>2026-03-22T11:31:56Z</time></trkpt><trkpt lat="43.39507788603822" lon="11.788038438559852"><ele>257.0</ele><time>2026-03-22T11:31:58Z</time></trkpt><trkpt lat="43.395185221988754" lon="11.788091905243078"><ele>257.5</ele><time>2026-03-22T11:32:00Z</time></trkpt><trkpt lat="43.39529148606627" lon="11.788145136485307"><ele>258.0</ele><time>2026-03-22T11:32:02Z</time></trkpt><trkpt lat="43.3953903990275" lon="11.788197843882452"><ele>258.0</ele><time>2026-03-22T11:32:04Z</time></trkpt><trkpt lat="43.39548338980682" lon="11.788249877174467"><ele>258.0</ele><time>2026-03-22T11:32:06Z</time></trkpt><trkpt lat="43.39557297444131" lon="11.788299521275826"><ele>258.0</ele><time>2026-03-22T11:32:08Z</time></trkpt><trkpt lat="43.395663026494205" lon="11.788344761123767"><ele>258.0</ele><time>2026-03-22T11:32:10Z</time></trkpt><trkpt lat="43.39574932260796" lon="11.788391239339164"><ele>258.0</ele><time>2026-03-22T11:32:11.999Z</time></trkpt><trkpt lat="43.39583489336966" lon="11.788431433988059"><ele>258.5</ele><time>2026-03-22T11:32:13.999Z</time></trkpt><trkpt lat="43.39591878995012" lon="11.788478897109764"><ele>259.0</ele><time>2026-03-22T11:32:15.999Z</time></trkpt><trkpt lat="43.3959999659933" lon="11.788522012704655"><ele>259.5</ele><time>2026-03-22T11:32:17.999Z</time></trkpt><trkpt lat="43.39608727977909" lon="11.788571036922857"><ele>260.0</ele><time>2026-03-22T11:32:19.999Z</time></trkpt><trkpt lat="43.39617351513757" lon="11.788619013526828"><ele>260.5</ele><time>2026-03-22T11:32:21.999Z</time></trkpt><trkpt lat="43.39625372592332" lon="11.788652692625565"><ele>261.0</ele><time>2026-03-22T11:32:24.999Z</time></trkpt><trkpt lat="43.396344146661605" lon="11.788704971943595"><ele>261.1666666666667</ele><time>2026-03-22T11:32:25.999Z</time></trkpt><trkpt lat="43.396413240149286" lon="11.788741375228273"><ele>261.3333333333333</ele><time>2026-03-22T11:32:27.999Z</time></trkpt><trkpt lat="43.39647536938174" lon="11.788778407466037"><ele>261.5</ele><time>2026-03-22T11:32:29.999Z</time></trkpt><trkpt lat="43.396545690478945" lon="11.788821168747614"><ele>261.66666666666663</ele><time>2026-03-22T11:32:31.999Z</time></trkpt><trkpt lat="43.39661775279644" lon="11.788878794973817"><ele>261.8333333333333</ele><time>2026-03-22T11:32:33.999Z</time></trkpt><trkpt lat="43.39669218978549" lon="11.788951247593722"><ele>262.0</ele><time>2026-03-22T11:32:35.999Z</time></trkpt><trkpt lat="43.396763988356106" lon="11.789030924239894"><ele>262.0</ele><time>2026-03-22T11:32:37.999Z</time></trkpt><trkpt lat="43.39682998243545" lon="11.789111721552644"><ele>262.0</ele><time>2026-03-22T11:32:39.999Z</time></trkpt><trkpt lat="43.396913265417524" lon="11.789183104764676"><ele>262.0</ele><time>2026-03-22T11:32:41.999Z</time></trkpt><trkpt lat="43.396999881433274" lon="11.78929686895053"><ele>262.0</ele><time>2026-03-22T11:32:43.999Z</time></trkpt><trkpt lat="43.397089836244035" lon="11.789360125779568"><ele>262.0</ele><time>2026-03-22T11:32:45.999Z</time></trkpt><trkpt lat="43.39715592760358" lon="11.789464904232203"><ele>261.0</ele><time>2026-03-22T11:32:47.999Z</time></trkpt><trkpt lat="43.397237489567644" lon="11.789553311728358"><ele>260.0</ele><time>2026-03-22T11:32:49.999Z</time></trkpt><trkpt lat="43.397329257681974" lon="11.78963802558503"><ele>259.0</ele><time>2026-03-22T11:32:51.999Z</time></trkpt><trkpt lat="43.397426851984314" lon="11.789740240937267"><ele>258.0</ele><time>2026-03-22T11:32:53.999Z</time></trkpt><trkpt lat="43.3974765640546" lon="11.789794939451447"><ele>257.0</ele><time>2026-03-22T11:32:54.999Z</time></trkpt><trkpt lat="43.39753140829974" lon="11.789848842648626"><ele>257.0</ele><time>2026-03-22T11:32:55.999Z</time></trkpt><trkpt lat="43.39758396847425" lon="11.789903199039967"><ele>257.0</ele><time>2026-03-22T11:32:56.999Z</time></trkpt><trkpt lat="43.397632186829185" lon="11.789962263965268"><ele>257.0</ele><time>2026-03-22T11:32:57.999Z</time></trkpt><trkpt lat="43.39768281842559" lon="11.790022835834268"><ele>257.0</ele><time>2026-03-22T11:32:58.999Z</time></trkpt><trkpt lat="43.39774216508172" lon="11.790085013547786"><ele>257.0</ele><time>2026-03-22T11:32:59.999Z</time></trkpt><trkpt lat="43.39779674478962" lon="11.790144968490948"><ele>257.0</ele><time>2026-03-22T11:33:00.999Z</time></trkpt><trkpt lat="43.39786166822356" lon="11.790203986471647"><ele>257.0</ele><time>2026-03-22T11:33:01.998Z</time></trkpt><trkpt lat="43.39791581483676" lon="11.790265628006352"><ele>256.85714285714283</ele><time>2026-03-22T11:33:02.998Z</time></trkpt><trkpt lat="43.39797661889555" lon="11.790328959603515"><ele>256.7142857142857</ele><time>2026-03-22T11:33:03.998Z</time></trkpt><trkpt lat="43.39803347578432" lon="11.7903904926549"><ele>256.57142857142856</ele><time>2026-03-22T11:33:04.998Z</time></trkpt><trkpt lat="43.398085246537846" lon="11.790466429081237"><ele>256.42857142857144</ele><time>2026-03-22T11:33:05.998Z</time></trkpt><trkpt lat="43.398141390473675" lon="11.790527146504223"><ele>256.2857142857143</ele><time>2026-03-22T11:33:06.998Z</time></trkpt><trkpt lat="43.39819530801934" lon="11.790585459339916"><ele>256.1428571428571</ele><time>2026-03-22T11:33:07.998Z</time></trkpt><trkpt lat="43.39824530478226" lon="11.79063953179864"><ele>256.0</ele><time>2026-03-22T11:33:08.998Z</time></trkpt><trkpt lat="43.398342037199505" lon="11.79074414961174"><ele>256.0</ele><time>2026-03-22T11:33:10.998Z</time></trkpt><trkpt lat="43.39843455379901" lon="11.790844207998978"><ele>256.0</ele><time>2026-03-22T11:33:12.998Z</time></trkpt><trkpt lat="43.39852306363343" lon="11.790939932897206"><ele>256.0</ele><time>2026-03-22T11:33:14.998Z</time></trkpt><trkpt lat="43.39860618562553" lon="11.791029830863653"><ele>256.0</ele><time>2026-03-22T11:33:16.998Z</time></trkpt><trkpt lat="43.398698975184345" lon="11.791097026840745"><ele>256.0</ele><time>2026-03-22T11:33:18.998Z</time></trkpt><trkpt lat="43.39877505033621" lon="11.791183498268888"><ele>256.6</ele><time>2026-03-22T11:33:20.998Z</time></trkpt><trkpt lat="43.39884437105822" lon="11.791287623054977"><ele>257.20000000000005</ele><time>2026-03-22T11:33:22.998Z</time></trkpt><trkpt lat="43.39891760110828" lon="11.791366895809624"><ele>257.79999999999995</ele><time>2026-03-22T11:33:24.998Z</time></trkpt><trkpt lat="43.39900004708097" lon="11.791428122573038"><ele>258.4</ele><time>2026-03-22T11:33:26.998Z</time></trkpt><trkpt lat="43.39906428228236" lon="11.791525608238613"><ele>259.0</ele><time>2026-03-22T11:33:28.998Z</time></trkpt><trkpt lat="43.39913907970824" lon="11.7916063232477"><ele>259.0</ele><time>2026-03-22T11:33:30.998Z</time></trkpt><trkpt lat="43.39921452924118" lon="11.791687741966914"><ele>259.0</ele><time>2026-03-22T11:33:32.998Z</time></trkpt><trkpt lat="43.39929838442931" lon="11.79175124145955"><ele>259.0</ele><time>2026-03-22T11:33:34.998Z</time></trkpt><trkpt lat="43.39936375049967" lon="11.791848998118537"><ele>259.0</ele><time>2026-03-22T11:33:36.998Z</time></trkpt><trkpt lat="43.399442200259806" lon="11.791934454599275"><ele>259.0</ele><time>2026-03-22T11:33:38.998Z</time></trkpt><trkpt lat="43.399513443716494" lon="11.792012061141184"><ele>259.0</ele><time>2026-03-22T11:33:41Z</time></trkpt><trkpt lat="43.399582546638904" lon="11.792087335972157"><ele>259.0</ele><time>2026-03-22T11:33:43Z</time></trkpt><trkpt lat="43.399662205981436" lon="11.792158842610947"><ele>259.0</ele><time>2026-03-22T11:33:46Z</time></trkpt><trkpt lat="43.39978553673592" lon="11.792281197470992"><ele>259.0</ele><time>2026-03-22T11:33:49Z</time></trkpt><trkpt lat="43.39985149391756" lon="11.792355134549831"><ele>259.0</ele><time>2026-03-22T11:33:51Z</time></trkpt><trkpt lat="43.399921639036634" lon="11.792423780398186"><ele>259.16666666666663</ele><time>2026-03-22T11:33:53Z</time></trkpt><trkpt lat="43.39998850130273" lon="11.792495289021245"><ele>259.3333333333333</ele><time>2026-03-22T11:33:55Z</time></trkpt><trkpt lat="43.40005573058339" lon="11.792567539502835"><ele>259.5</ele><time>2026-03-22T11:33:57Z</time></trkpt><trkpt lat="43.40012713478232" lon="11.79264061208672"><ele>259.6666666666667</ele><time>2026-03-22T11:33:59Z</time></trkpt><trkpt lat="43.40020373597684" lon="11.792714327531922"><ele>259.83333333333337</ele><time>2026-03-22T11:34:01Z</time></trkpt><trkpt lat="43.40026993841364" lon="11.792786063579983"><ele>260.0</ele><time>2026-03-22T11:34:03Z</time></trkpt><trkpt lat="43.40035158019809" lon="11.792849138690034"><ele>260.0</ele><time>2026-03-22T11:34:05Z</time></trkpt><trkpt lat="43.400424705339596" lon="11.792928288791368"><ele>260.0</ele><time>2026-03-22T11:34:07Z</time></trkpt><trkpt lat="43.40048681105897" lon="11.792977653476708"><ele>260.0</ele><time>2026-03-22T11:34:08Z</time></trkpt><trkpt lat="43.400565972112354" lon="11.793059025597975"><ele>260.0</ele><time>2026-03-22T11:34:09.999Z</time></trkpt><trkpt lat="43.40065052643579" lon="11.793128903012196"><ele>260.0</ele><time>2026-03-22T11:34:11.999Z</time></trkpt><trkpt lat="43.40073132774108" lon="11.79320686101498"><ele>260.2</ele><time>2026-03-22T11:34:13.999Z</time></trkpt><trkpt lat="43.40081244928332" lon="11.79328790417221"><ele>260.4</ele><time>2026-03-22T11:34:15.999Z</time></trkpt><trkpt lat="43.40089538522362" lon="11.793361176837454"><ele>260.6</ele><time>2026-03-22T11:34:17.999Z</time></trkpt><trkpt lat="43.40097467227489" lon="11.793445775750532"><ele>260.8</ele><time>2026-03-22T11:34:19.999Z</time></trkpt><trkpt lat="43.401055965759774" lon="11.793517037985664"><ele>261.0</ele><time>2026-03-22T11:34:21.999Z</time></trkpt><trkpt lat="43.401134702054435" lon="11.793600752271667"><ele>261.0</ele><time>2026-03-22T11:34:23.999Z</time></trkpt><trkpt lat="43.40121486849443" lon="11.793683067865489"><ele>261.0</ele><time>2026-03-22T11:34:25.999Z</time></trkpt><trkpt lat="43.401291191611556" lon="11.79376124165358"><ele>261.0</ele><time>2026-03-22T11:34:27.999Z</time></trkpt><trkpt lat="43.40137799106211" lon="11.793841141848777"><ele>261.0</ele><time>2026-03-22T11:34:29.999Z</time></trkpt><trkpt lat="43.40145770170491" lon="11.793924757704541"><ele>261.0</ele><time>2026-03-22T11:34:31.999Z</time></trkpt><trkpt lat="43.40154655931462" lon="11.794006879374699"><ele>261.0</ele><time>2026-03-22T11:34:33.999Z</time></trkpt><trkpt lat="43.40162944232919" lon="11.794082963496022"><ele>261.0</ele><time>2026-03-22T11:34:35.999Z</time></trkpt><trkpt lat="43.401717700513494" lon="11.794152841276324"><ele>261.0</ele><time>2026-03-22T11:34:37.999Z</time></trkpt><trkpt lat="43.40181241711559" lon="11.794222165760203"><ele>261.0</ele><time>2026-03-22T11:34:39.999Z</time></trkpt><trkpt lat="43.40190685815656" lon="11.794293239271513"><ele>261.0</ele><time>2026-03-22T11:34:41.999Z</time></trkpt><trkpt lat="43.40200688474214" lon="11.794365261756502"><ele>261.0</ele><time>2026-03-22T11:34:43.999Z</time></trkpt><trkpt lat="43.40211159267699" lon="11.794442768239263"><ele>261.0</ele><time>2026-03-22T11:34:45.999Z</time></trkpt><trkpt lat="43.40222097541343" lon="11.794513786703515"><ele>261.0</ele><time>2026-03-22T11:34:47.999Z</time></trkpt><trkpt lat="43.40228620229636" lon="11.794550572886186"><ele>261.0</ele><time>2026-03-22T11:34:48.999Z</time></trkpt><trkpt lat="43.402339337631616" lon="11.794598554771701"><ele>261.0</ele><time>2026-03-22T11:34:49.999Z</time></trkpt><trkpt lat="43.40244985756531" lon="11.79467862375192"><ele>260.75</ele><time>2026-03-22T11:34:51.999Z</time></trkpt><trkpt lat="43.402556101659655" lon="11.794760276743794"><ele>260.5</ele><time>2026-03-22T11:34:53.999Z</time></trkpt><trkpt lat="43.402662555722756" lon="11.794836435243731"><ele>260.25</ele><time>2026-03-22T11:34:55.998Z</time></trkpt><trkpt lat="43.402768773910076" lon="11.794907476964957"><ele>260.0</ele><time>2026-03-22T11:34:57.998Z</time></trkpt><trkpt lat="43.40287523420245" lon="11.794983132117657"><ele>260.0</ele><time>2026-03-22T11:34:59.998Z</time></trkpt><trkpt lat="43.40297939835142" lon="11.795056776926758"><ele>260.0</ele><time>2026-03-22T11:35:01.998Z</time></trkpt><trkpt lat="43.40308485933031" lon="11.79513164330978"><ele>260.0</ele><time>2026-03-22T11:35:03.998Z</time></trkpt><trkpt lat="43.40318917091764" lon="11.79520440922332"><ele>260.0</ele><time>2026-03-22T11:35:05.998Z</time></trkpt><trkpt lat="43.40329422437606" lon="11.795278026606377"><ele>260.0</ele><time>2026-03-22T11:35:07.998Z</time></trkpt><trkpt lat="43.40340156071481" lon="11.795354572633617"><ele>260.0</ele><time>2026-03-22T11:35:09.998Z</time></trkpt><trkpt lat="43.40350760342065" lon="11.795429486659039"><ele>260.0</ele><time>2026-03-22T11:35:11.998Z</time></trkpt><trkpt lat="43.40361306764958" lon="11.795506523067923"><ele>260.0</ele><time>2026-03-22T11:35:13.998Z</time></trkpt><trkpt lat="43.40371859443551" lon="11.7955828345764"><ele>260.0</ele><time>2026-03-22T11:35:15.998Z</time></trkpt><trkpt lat="43.40382495399973" lon="11.795657259100585"><ele>260.0</ele><time>2026-03-22T11:35:17.998Z</time></trkpt><trkpt lat="43.40393145331686" lon="11.79573292193231"><ele>260.0</ele><time>2026-03-22T11:35:19.998Z</time></trkpt><trkpt lat="43.40403883849941" lon="11.795805600869162"><ele>260.0</ele><time>2026-03-22T11:35:21.998Z</time></trkpt><trkpt lat="43.40414497056995" lon="11.795881713583077"><ele>260.0</ele><time>2026-03-22T11:35:23.998Z</time></trkpt><trkpt lat="43.404249569782955" lon="11.795958666229705"><ele>260.0</ele><time>2026-03-22T11:35:25.998Z</time></trkpt><trkpt lat="43.404355498276324" lon="11.796028951110605"><ele>260.0</ele><time>2026-03-22T11:35:27.998Z</time></trkpt><trkpt lat="43.4044542739645" lon="11.796100233461608"><ele>260.0</ele><time>2026-03-22T11:35:29.998Z</time></trkpt><trkpt lat="43.40454656551559" lon="11.79616638747283"><ele>260.0</ele><time>2026-03-22T11:35:31.998Z</time></trkpt><trkpt lat="43.404631868113555" lon="11.796226526288308"><ele>260.0</ele><time>2026-03-22T11:35:33.998Z</time></trkpt><trkpt lat="43.40471358683672" lon="11.79628234612847"><ele>260.0</ele><time>2026-03-22T11:35:35.998Z</time></trkpt><trkpt lat="43.40480078170443" lon="11.796345308385826"><ele>260.0</ele><time>2026-03-22T11:35:37.998Z</time></trkpt><trkpt lat="43.40488155060586" lon="11.796407607162093"><ele>260.0</ele><time>2026-03-22T11:35:39.998Z</time></trkpt><trkpt lat="43.404960852934295" lon="11.796483938776095"><ele>259.8</ele><time>2026-03-22T11:35:41.998Z</time></trkpt><trkpt lat="43.405026666996285" lon="11.796589499273729"><ele>259.6</ele><time>2026-03-22T11:35:43.998Z</time></trkpt><trkpt lat="43.40506967981284" lon="11.796725112539358"><ele>259.4</ele><time>2026-03-22T11:35:45.997Z</time></trkpt><trkpt lat="43.40512086954284" lon="11.796856504731842"><ele>259.2</ele><time>2026-03-22T11:35:48Z</time></trkpt><trkpt lat="43.405206254734004" lon="11.796948870602355"><ele>259.0</ele><time>2026-03-22T11:35:50Z</time></trkpt><trkpt lat="43.40531144864372" lon="11.796934949185482"><ele>259.0</ele><time>2026-03-22T11:35:52Z</time></trkpt><trkpt lat="43.40539813469076" lon="11.796884140670068"><ele>259.0</ele><time>2026-03-22T11:35:54Z</time></trkpt><trkpt lat="43.405393336685286" lon="11.796759525152122"><ele>259.0</ele><time>2026-03-22T11:35:55Z</time></trkpt><trkpt lat="43.4055356239789" lon="11.796808185098028"><ele>259.0</ele><time>2026-03-22T11:35:57Z</time></trkpt><trkpt lat="43.405640969665654" lon="11.796827469632797"><ele>259.0</ele><time>2026-03-22T11:35:59Z</time></trkpt><trkpt lat="43.4057433173165" lon="11.796870076619305"><ele>258.59999999999997</ele><time>2026-03-22T11:36:01Z</time></trkpt><trkpt lat="43.40585527478703" lon="11.796902686465184"><ele>258.2</ele><time>2026-03-22T11:36:03Z</time></trkpt><trkpt lat="43.4059757703893" lon="11.796953416814333"><ele>257.79999999999995</ele><time>2026-03-22T11:36:05Z</time></trkpt><trkpt lat="43.40604283617786" lon="11.796979379640817"><ele>257.4</ele><time>2026-03-22T11:36:06Z</time></trkpt><trkpt lat="43.40616704296167" lon="11.797033185481899"><ele>257.0</ele><time>2026-03-22T11:36:08Z</time></trkpt><trkpt lat="43.40623341933716" lon="11.797060872453184"><ele>257.0</ele><time>2026-03-22T11:36:09Z</time></trkpt><trkpt lat="43.406300764024806" lon="11.797086750809557"><ele>257.0</ele><time>2026-03-22T11:36:10Z</time></trkpt><trkpt lat="43.40636698608824" lon="11.797110283977108"><ele>257.0</ele><time>2026-03-22T11:36:11Z</time></trkpt><trkpt lat="43.40643241872211" lon="11.79713869013937"><ele>257.0</ele><time>2026-03-22T11:36:12Z</time></trkpt><trkpt lat="43.406499280966536" lon="11.797166180658495"><ele>257.0</ele><time>2026-03-22T11:36:13Z</time></trkpt><trkpt lat="43.406567610903785" lon="11.79719539195781"><ele>257.0</ele><time>2026-03-22T11:36:14Z</time></trkpt><trkpt lat="43.4066350803393" lon="11.797225592468775"><ele>257.0</ele><time>2026-03-22T11:36:15Z</time></trkpt><trkpt lat="43.406703174487376" lon="11.797255831574718"><ele>256.42857142857144</ele><time>2026-03-22T11:36:16Z</time></trkpt><trkpt lat="43.40677308948135" lon="11.79728366973724"><ele>255.8571428571429</ele><time>2026-03-22T11:36:17Z</time></trkpt><trkpt lat="43.40684338829825" lon="11.797313142829479"><ele>255.2857142857143</ele><time>2026-03-22T11:36:18Z</time></trkpt><trkpt lat="43.40691329955961" lon="11.797344043959413"><ele>254.71428571428572</ele><time>2026-03-22T11:36:19Z</time></trkpt><trkpt lat="43.406987148718024" lon="11.797372261494353"><ele>254.14285714285717</ele><time>2026-03-22T11:36:20Z</time></trkpt><trkpt lat="43.407058507368745" lon="11.797399625047216"><ele>253.5714285714286</ele><time>2026-03-22T11:36:21Z</time></trkpt><trkpt lat="43.40712951969862" lon="11.797425642985987"><ele>253.00000000000003</ele><time>2026-03-22T11:36:22Z</time></trkpt><trkpt lat="43.40719881943277" lon="11.797452821280032"><ele>252.42857142857144</ele><time>2026-03-22T11:36:22.999Z</time></trkpt><trkpt lat="43.407269821598284" lon="11.797477923480667"><ele>251.85714285714286</ele><time>2026-03-22T11:36:23.999Z</time></trkpt><trkpt lat="43.40734024179587" lon="11.797502909893122"><ele>251.28571428571428</ele><time>2026-03-22T11:36:24.999Z</time></trkpt><trkpt lat="43.40741044538477" lon="11.79752641535836"><ele>250.71428571428572</ele><time>2026-03-22T11:36:25.999Z</time></trkpt><trkpt lat="43.40748107447466" lon="11.797547049506894"><ele>250.1428571428571</ele><time>2026-03-22T11:36:26.999Z</time></trkpt><trkpt lat="43.40754946584227" lon="11.79756816474548"><ele>249.57142857142856</ele><time>2026-03-22T11:36:27.999Z</time></trkpt><trkpt lat="43.407616272000865" lon="11.797592096407692"><ele>249.0</ele><time>2026-03-22T11:36:28.999Z</time></trkpt><trkpt lat="43.40768122018111" lon="11.797619847993484"><ele>249.0</ele><time>2026-03-22T11:36:29.999Z</time></trkpt><trkpt lat="43.40774779155646" lon="11.797642614263726"><ele>248.99999999999997</ele><time>2026-03-22T11:36:30.999Z</time></trkpt><trkpt lat="43.40781566263504" lon="11.797663020358481"><ele>249.0</ele><time>2026-03-22T11:36:31.999Z</time></trkpt><trkpt lat="43.40788547760342" lon="11.797688209715748"><ele>249.0</ele><time>2026-03-22T11:36:32.999Z</time></trkpt><trkpt lat="43.407953381145745" lon="11.797710107188893"><ele>248.99999999999997</ele><time>2026-03-22T11:36:33.999Z</time></trkpt><trkpt lat="43.40802125528139" lon="11.797732460102315"><ele>249.0</ele><time>2026-03-22T11:36:34.999Z</time></trkpt><trkpt lat="43.40808913693233" lon="11.797758139388938"><ele>249.0</ele><time>2026-03-22T11:36:35.999Z</time></trkpt><trkpt lat="43.40815814016436" lon="11.797782625141199"><ele>249.0</ele><time>2026-03-22T11:36:36.999Z</time></trkpt><trkpt lat="43.40822600727567" lon="11.797806041039175"><ele>248.99999999999997</ele><time>2026-03-22T11:36:37.999Z</time></trkpt><trkpt lat="43.40829408406125" lon="11.797829083131482"><ele>249.0</ele><time>2026-03-22T11:36:38.999Z</time></trkpt><trkpt lat="43.408362622557455" lon="11.797851535943888"><ele>249.0</ele><time>2026-03-22T11:36:39.999Z</time></trkpt><trkpt lat="43.408428743606876" lon="11.797875034821004"><ele>248.99999999999997</ele><time>2026-03-22T11:36:40.999Z</time></trkpt><trkpt lat="43.40849431017326" lon="11.797897435344412"><ele>249.0</ele><time>2026-03-22T11:36:41.999Z</time></trkpt><trkpt lat="43.40855738778767" lon="11.797919719949356"><ele>249.0</ele><time>2026-03-22T11:36:42.999Z</time></trkpt><trkpt lat="43.40862357644337" lon="11.797945572416738"><ele>249.0</ele><time>2026-03-22T11:36:43.999Z</time></trkpt><trkpt lat="43.40868854269818" lon="11.797970886417195"><ele>248.99999999999997</ele><time>2026-03-22T11:36:44.999Z</time></trkpt><trkpt lat="43.40875383843828" lon="11.797994094353086"><ele>249.0</ele><time>2026-03-22T11:36:45.999Z</time></trkpt><trkpt lat="43.40881636843022" lon="11.798018844310235"><ele>249.0</ele><time>2026-03-22T11:36:46.999Z</time></trkpt><trkpt lat="43.408882551146434" lon="11.798036773841135"><ele>248.99999999999997</ele><time>2026-03-22T11:36:47.999Z</time></trkpt><trkpt lat="43.40894592689237" lon="11.798059487781918"><ele>249.0</ele><time>2026-03-22T11:36:48.999Z</time></trkpt><trkpt lat="43.40900986296759" lon="11.798083659787078"><ele>249.0</ele><time>2026-03-22T11:36:49.999Z</time></trkpt><trkpt lat="43.40913635031079" lon="11.798125527537962"><ele>249.0</ele><time>2026-03-22T11:36:51.999Z</time></trkpt><trkpt lat="43.40925432662892" lon="11.798161842852991"><ele>248.99999999999997</ele><time>2026-03-22T11:36:53.999Z</time></trkpt><trkpt lat="43.40931863238191" lon="11.79818415513344"><ele>248.99999999999997</ele><time>2026-03-22T11:36:54.999Z</time></trkpt><trkpt lat="43.40938011693432" lon="11.798203631883354"><ele>249.0</ele><time>2026-03-22T11:36:55.999Z</time></trkpt><trkpt lat="43.40949786989472" lon="11.798244521839482"><ele>249.0</ele><time>2026-03-22T11:36:57.999Z</time></trkpt><trkpt lat="43.40961206034851" lon="11.798284200784325"><ele>248.75</ele><time>2026-03-22T11:36:59.999Z</time></trkpt><trkpt lat="43.40972637883816" lon="11.798327912668576"><ele>248.5</ele><time>2026-03-22T11:37:01.999Z</time></trkpt><trkpt lat="43.40983914477689" lon="11.798373560924864"><ele>248.25</ele><time>2026-03-22T11:37:03.999Z</time></trkpt><trkpt lat="43.40994640070439" lon="11.79844378594633"><ele>248.0</ele><time>2026-03-22T11:37:05.999Z</time></trkpt><trkpt lat="43.41004886621011" lon="11.798528478549544"><ele>248.0</ele><time>2026-03-22T11:37:07.999Z</time></trkpt><trkpt lat="43.41014646287562" lon="11.798630274321786"><ele>248.0</ele><time>2026-03-22T11:37:09.999Z</time></trkpt><trkpt lat="43.41023723548641" lon="11.798741342869366"><ele>248.0</ele><time>2026-03-22T11:37:11.999Z</time></trkpt><trkpt lat="43.41029931419785" lon="11.798884783458334"><ele>248.0</ele><time>2026-03-22T11:37:13.998Z</time></trkpt><trkpt lat="43.41036873272229" lon="11.799026934673396"><ele>248.00000000000003</ele><time>2026-03-22T11:37:15.998Z</time></trkpt><trkpt lat="43.41040616900831" lon="11.799101380415555"><ele>248.0</ele><time>2026-03-22T11:37:16.998Z</time></trkpt><trkpt lat="43.4104420995321" lon="11.799174959402473"><ele>248.0</ele><time>2026-03-22T11:37:17.998Z</time></trkpt><trkpt lat="43.410515181450215" lon="11.799324239872044"><ele>248.0</ele><time>2026-03-22T11:37:19.998Z</time></trkpt><trkpt lat="43.41055153387374" lon="11.799397545170413"><ele>248.00000000000003</ele><time>2026-03-22T11:37:20.998Z</time></trkpt><trkpt lat="43.410620790616" lon="11.799444153292765"><ele>248.0</ele><time>2026-03-22T11:37:21.998Z</time></trkpt><trkpt lat="43.41065562847224" lon="11.799519973172522"><ele>248.50000000000003</ele><time>2026-03-22T11:37:22.998Z</time></trkpt><trkpt lat="43.41072437634115" lon="11.79966777389728"><ele>249.0</ele><time>2026-03-22T11:37:24.998Z</time></trkpt><trkpt lat="43.41076142080234" lon="11.79974138707408"><ele>249.5</ele><time>2026-03-22T11:37:25.998Z</time></trkpt><trkpt lat="43.41079731205587" lon="11.79981498106973"><ele>250.0</ele><time>2026-03-22T11:37:26.998Z</time></trkpt><trkpt lat="43.41080538828619" lon="11.799917018535686"><ele>250.50000000000003</ele><time>2026-03-22T11:37:27.998Z</time></trkpt><trkpt lat="43.410841872986936" lon="11.799991649153538"><ele>251.0</ele><time>2026-03-22T11:37:28.998Z</time></trkpt><trkpt lat="43.41087728346658" lon="11.800064842432146"><ele>251.00000000000003</ele><time>2026-03-22T11:37:29.998Z</time></trkpt><trkpt lat="43.41091250061052" lon="11.800137360457178"><ele>251.0</ele><time>2026-03-22T11:37:30.998Z</time></trkpt><trkpt lat="43.41094781028445" lon="11.800210069031623"><ele>251.0</ele><time>2026-03-22T11:37:31.998Z</time></trkpt><trkpt lat="43.411017744098395" lon="11.800354074529915"><ele>251.0</ele><time>2026-03-22T11:37:33.998Z</time></trkpt><trkpt lat="43.41108688418613" lon="11.800496445616762"><ele>251.00000000000003</ele><time>2026-03-22T11:37:35.998Z</time></trkpt><trkpt lat="43.41112209384705" lon="11.800568948238496"><ele>251.0</ele><time>2026-03-22T11:37:36.998Z</time></trkpt><trkpt lat="43.4111910025807" lon="11.800710842928753"><ele>250.60000000000002</ele><time>2026-03-22T11:37:38.998Z</time></trkpt><trkpt lat="43.411226031563736" lon="11.800783146347696"><ele>250.20000000000002</ele><time>2026-03-22T11:37:39.998Z</time></trkpt><trkpt lat="43.411262218680825" lon="11.800857028269785"><ele>249.79999999999998</ele><time>2026-03-22T11:37:40.998Z</time></trkpt><trkpt lat="43.411331625994876" lon="11.80099853241162"><ele>249.39999999999998</ele><time>2026-03-22T11:37:42.998Z</time></trkpt><trkpt lat="43.41140054215775" lon="11.801138402006956"><ele>249.0</ele><time>2026-03-22T11:37:44.998Z</time></trkpt><trkpt lat="43.41146985102546" lon="11.801280920785713"><ele>248.39999999999998</ele><time>2026-03-22T11:37:46.998Z</time></trkpt><trkpt lat="43.411542034206825" lon="11.801428789770037"><ele>247.79999999999998</ele><time>2026-03-22T11:37:48.998Z</time></trkpt><trkpt lat="43.411609776073256" lon="11.801567560622425"><ele>247.20000000000002</ele><time>2026-03-22T11:37:50.998Z</time></trkpt><trkpt lat="43.41164539187109" lon="11.801640520439786"><ele>246.60000000000002</ele><time>2026-03-22T11:37:51.998Z</time></trkpt><trkpt lat="43.41168083447306" lon="11.801713125466451"><ele>246.0</ele><time>2026-03-22T11:37:53Z</time></trkpt><trkpt lat="43.411748393572154" lon="11.801851521909901"><ele>246.0</ele><time>2026-03-22T11:37:55Z</time></trkpt><trkpt lat="43.41181863620537" lon="11.801995415644445"><ele>246.0</ele><time>2026-03-22T11:37:57Z</time></trkpt><trkpt lat="43.41188783072979" lon="11.802138457251944"><ele>246.0</ele><time>2026-03-22T11:37:59Z</time></trkpt><trkpt lat="43.41192358937037" lon="11.80221238582001"><ele>246.0</ele><time>2026-03-22T11:38:00Z</time></trkpt><trkpt lat="43.411958820070424" lon="11.802285222914243"><ele>246.0</ele><time>2026-03-22T11:38:01Z</time></trkpt><trkpt lat="43.411994769084735" lon="11.802359545068414"><ele>246.0</ele><time>2026-03-22T11:38:02Z</time></trkpt><trkpt lat="43.41203050341604" lon="11.802433423384194"><ele>246.00000000000003</ele><time>2026-03-22T11:38:03Z</time></trkpt><trkpt lat="43.41206654920131" lon="11.802507945608928"><ele>246.0</ele><time>2026-03-22T11:38:04Z</time></trkpt><trkpt lat="43.412103311851524" lon="11.802584045596186"><ele>246.00000000000003</ele><time>2026-03-22T11:38:05Z</time></trkpt><trkpt lat="43.41213991735769" lon="11.802659973549776"><ele>246.00000000000003</ele><time>2026-03-22T11:38:06Z</time></trkpt><trkpt lat="43.41217653045851" lon="11.802735917259431"><ele>246.0</ele><time>2026-03-22T11:38:07Z</time></trkpt><trkpt lat="43.4122121129207" lon="11.802809723195159"><ele>246.00000000000003</ele><time>2026-03-22T11:38:08Z</time></trkpt><trkpt lat="43.41224877222833" lon="11.80288576274124"><ele>246.00000000000003</ele><time>2026-03-22T11:38:09Z</time></trkpt><trkpt lat="43.4123201183065" lon="11.803033750305731"><ele>246.14285714285717</ele><time>2026-03-22T11:38:11Z</time></trkpt><trkpt lat="43.412355999288394" lon="11.803109311213499"><ele>246.28571428571428</ele><time>2026-03-22T11:38:12Z</time></trkpt><trkpt lat="43.41239109927546" lon="11.803183069709865"><ele>246.42857142857144</ele><time>2026-03-22T11:38:13Z</time></trkpt><trkpt lat="43.412427739633266" lon="11.80326006487992"><ele>246.57142857142858</ele><time>2026-03-22T11:38:14Z</time></trkpt><trkpt lat="43.41249225118119" lon="11.803307445909564"><ele>246.71428571428572</ele><time>2026-03-22T11:38:15Z</time></trkpt><trkpt lat="43.41252606952942" lon="11.803381838790292"><ele>246.85714285714286</ele><time>2026-03-22T11:38:16Z</time></trkpt><trkpt lat="43.412561343034454" lon="11.803453924464721"><ele>247.0</ele><time>2026-03-22T11:38:17Z</time></trkpt><trkpt lat="43.41259758448419" lon="11.803527385818988"><ele>247.0</ele><time>2026-03-22T11:38:18Z</time></trkpt><trkpt lat="43.41263384421403" lon="11.803599833090164"><ele>247.0</ele><time>2026-03-22T11:38:19Z</time></trkpt><trkpt lat="43.41267013812479" lon="11.803673245269682"><ele>247.0</ele><time>2026-03-22T11:38:20Z</time></trkpt><trkpt lat="43.412706794070566" lon="11.803747046182144"><ele>247.0</ele><time>2026-03-22T11:38:21Z</time></trkpt><trkpt lat="43.41274216955322" lon="11.803821148160221"><ele>247.0</ele><time>2026-03-22T11:38:22Z</time></trkpt><trkpt lat="43.412746180360045" lon="11.803924239805212"><ele>247.0</ele><time>2026-03-22T11:38:23Z</time></trkpt><trkpt lat="43.41278269986179" lon="11.804000483187815"><ele>247.0</ele><time>2026-03-22T11:38:24Z</time></trkpt><trkpt lat="43.412819459225105" lon="11.804077626861117"><ele>247.0</ele><time>2026-03-22T11:38:25Z</time></trkpt><trkpt lat="43.41285559223266" lon="11.804153362227597"><ele>247.0</ele><time>2026-03-22T11:38:26Z</time></trkpt><trkpt lat="43.412891649550346" lon="11.804228938951406"><ele>247.0</ele><time>2026-03-22T11:38:27Z</time></trkpt><trkpt lat="43.41292719953957" lon="11.804303452305657"><ele>247.0</ele><time>2026-03-22T11:38:28Z</time></trkpt><trkpt lat="43.412963106371" lon="11.804378713613435"><ele>247.0</ele><time>2026-03-22T11:38:29Z</time></trkpt><trkpt lat="43.41299889417864" lon="11.804453725159338"><ele>247.0</ele><time>2026-03-22T11:38:30Z</time></trkpt><trkpt lat="43.41303490587751" lon="11.804529936695927"><ele>247.0</ele><time>2026-03-22T11:38:31Z</time></trkpt><trkpt lat="43.41307014233764" lon="11.804604351871088"><ele>246.85714285714286</ele><time>2026-03-22T11:38:32Z</time></trkpt><trkpt lat="43.413105561091086" lon="11.80467915203079"><ele>246.71428571428572</ele><time>2026-03-22T11:38:32.999Z</time></trkpt><trkpt lat="43.41314015487377" lon="11.804752209955407"><ele>246.57142857142858</ele><time>2026-03-22T11:38:33.999Z</time></trkpt><trkpt lat="43.413175196293274" lon="11.804826213225763"><ele>246.42857142857144</ele><time>2026-03-22T11:38:34.999Z</time></trkpt><trkpt lat="43.413209732721675" lon="11.804899149820127"><ele>246.28571428571428</ele><time>2026-03-22T11:38:35.999Z</time></trkpt><trkpt lat="43.41324491976694" lon="11.80497364287618"><ele>246.14285714285717</ele><time>2026-03-22T11:38:36.999Z</time></trkpt><trkpt lat="43.41328096201812" lon="11.805049876278623"><ele>246.00000000000003</ele><time>2026-03-22T11:38:37.999Z</time></trkpt><trkpt lat="43.41331613896809" lon="11.805124278543438"><ele>245.66666666666666</ele><time>2026-03-22T11:38:38.999Z</time></trkpt><trkpt lat="43.4133508228327" lon="11.805197637827472"><ele>245.33333333333331</ele><time>2026-03-22T11:38:39.999Z</time></trkpt><trkpt lat="43.41338561353456" lon="11.805271223169173"><ele>245.0</ele><time>2026-03-22T11:38:40.999Z</time></trkpt><trkpt lat="43.41342077878674" lon="11.80534560072601"><ele>244.66666666666666</ele><time>2026-03-22T11:38:41.999Z</time></trkpt><trkpt lat="43.413488678233485" lon="11.805489213845936"><ele>244.33333333333331</ele><time>2026-03-22T11:38:43.999Z</time></trkpt><trkpt lat="43.41355589276315" lon="11.805631147445366"><ele>244.0</ele><time>2026-03-22T11:38:45.999Z</time></trkpt><trkpt lat="43.41362451331681" lon="11.805775943256783"><ele>244.0</ele><time>2026-03-22T11:38:47.999Z</time></trkpt><trkpt lat="43.41369401286378" lon="11.805922593828308"><ele>243.99999999999997</ele><time>2026-03-22T11:38:49.999Z</time></trkpt><trkpt lat="43.41372907404927" lon="11.805996576224699"><ele>243.99999999999997</ele><time>2026-03-22T11:38:50.999Z</time></trkpt><trkpt lat="43.41376352871239" lon="11.806069278806133"><ele>244.0</ele><time>2026-03-22T11:38:51.999Z</time></trkpt><trkpt lat="43.41383038358731" lon="11.80621034887385"><ele>244.0</ele><time>2026-03-22T11:38:53.999Z</time></trkpt><trkpt lat="43.41389709121453" lon="11.806351108229958"><ele>244.0</ele><time>2026-03-22T11:38:55.999Z</time></trkpt><trkpt lat="43.41396225376232" lon="11.80648992576542"><ele>244.0</ele><time>2026-03-22T11:38:57.999Z</time></trkpt><trkpt lat="43.41402701293903" lon="11.80662884760563"><ele>244.0</ele><time>2026-03-22T11:38:59.999Z</time></trkpt><trkpt lat="43.414089786789404" lon="11.806763510509809"><ele>244.0</ele><time>2026-03-22T11:39:01.999Z</time></trkpt><trkpt lat="43.41415133220967" lon="11.806894147289201"><ele>244.0</ele><time>2026-03-22T11:39:03.999Z</time></trkpt><trkpt lat="43.4142137454344" lon="11.807026311895536"><ele>244.0</ele><time>2026-03-22T11:39:05.999Z</time></trkpt><trkpt lat="43.41427512081012" lon="11.807156278781443"><ele>244.0</ele><time>2026-03-22T11:39:07.999Z</time></trkpt><trkpt lat="43.41433573311089" lon="11.807284629796406"><ele>244.0</ele><time>2026-03-22T11:39:09.999Z</time></trkpt><trkpt lat="43.41439742051816" lon="11.807415111633386"><ele>244.0</ele><time>2026-03-22T11:39:11.999Z</time></trkpt><trkpt lat="43.41445990631939" lon="11.807547266337677"><ele>244.0</ele><time>2026-03-22T11:39:13.999Z</time></trkpt><trkpt lat="43.41452379758346" lon="11.807682393548042"><ele>244.0</ele><time>2026-03-22T11:39:15.999Z</time></trkpt><trkpt lat="43.414586374197064" lon="11.80781474032341"><ele>244.0</ele><time>2026-03-22T11:39:17.999Z</time></trkpt><trkpt lat="43.4146486796865" lon="11.807946513683367"><ele>243.75</ele><time>2026-03-22T11:39:19.999Z</time></trkpt><trkpt lat="43.41471226710473" lon="11.808080998269986"><ele>243.5</ele><time>2026-03-22T11:39:21.999Z</time></trkpt><trkpt lat="43.4147762536918" lon="11.808216294770439"><ele>243.25</ele><time>2026-03-22T11:39:23.998Z</time></trkpt><trkpt lat="43.414839822423225" lon="11.808350215296597"><ele>243.0</ele><time>2026-03-22T11:39:25.998Z</time></trkpt><trkpt lat="43.41490274723575" lon="11.808482779280247"><ele>243.4</ele><time>2026-03-22T11:39:27.998Z</time></trkpt><trkpt lat="43.41496452318683" lon="11.808612922951522"><ele>243.8</ele><time>2026-03-22T11:39:29.998Z</time></trkpt><trkpt lat="43.41502534338847" lon="11.808741053143544"><ele>244.2</ele><time>2026-03-22T11:39:31.998Z</time></trkpt><trkpt lat="43.415084794026804" lon="11.808866298062052"><ele>244.6</ele><time>2026-03-22T11:39:33.998Z</time></trkpt><trkpt lat="43.4151469026562" lon="11.808996720778927"><ele>245.0</ele><time>2026-03-22T11:39:35.998Z</time></trkpt><trkpt lat="43.41520894987863" lon="11.809126975556033"><ele>245.0</ele><time>2026-03-22T11:39:37.998Z</time></trkpt><trkpt lat="43.4152723641277" lon="11.809260100109883"><ele>245.0</ele><time>2026-03-22T11:39:39.998Z</time></trkpt><trkpt lat="43.415337630768896" lon="11.809397113358873"><ele>245.0</ele><time>2026-03-22T11:39:41.998Z</time></trkpt><trkpt lat="43.41540188081457" lon="11.809531992492525"><ele>245.0</ele><time>2026-03-22T11:39:43.998Z</time></trkpt><trkpt lat="43.415466149820766" lon="11.809666911419365"><ele>244.75</ele><time>2026-03-22T11:39:45.998Z</time></trkpt><trkpt lat="43.415530710084504" lon="11.809802441755135"><ele>244.5</ele><time>2026-03-22T11:39:47.998Z</time></trkpt><trkpt lat="43.415592679124906" lon="11.80993253245426"><ele>244.25</ele><time>2026-03-22T11:39:49.998Z</time></trkpt><trkpt lat="43.415656968670795" lon="11.810067494486391"><ele>244.0</ele><time>2026-03-22T11:39:51.998Z</time></trkpt><trkpt lat="43.41571851013554" lon="11.810196687532146"><ele>244.0</ele><time>2026-03-22T11:39:53.998Z</time></trkpt><trkpt lat="43.41577828144397" lon="11.810322192068549"><ele>243.99999999999997</ele><time>2026-03-22T11:39:55.998Z</time></trkpt><trkpt lat="43.415837269559226" lon="11.810446512575137"><ele>243.99999999999997</ele><time>2026-03-22T11:39:57.998Z</time></trkpt><trkpt lat="43.4158931966817" lon="11.810564381883015"><ele>244.0</ele><time>2026-03-22T11:40:00Z</time></trkpt><trkpt lat="43.41594735439073" lon="11.81067852206846"><ele>244.0</ele><time>2026-03-22T11:40:02Z</time></trkpt><trkpt lat="43.41600251154593" lon="11.810794768642866"><ele>244.0</ele><time>2026-03-22T11:40:04Z</time></trkpt><trkpt lat="43.41605873767377" lon="11.810913268123173"><ele>243.99999999999997</ele><time>2026-03-22T11:40:06Z</time></trkpt><trkpt lat="43.41611716363687" lon="11.811036403887588"><ele>243.99999999999997</ele><time>2026-03-22T11:40:08Z</time></trkpt><trkpt lat="43.416175812163736" lon="11.811160008711688"><ele>244.0</ele><time>2026-03-22T11:40:10Z</time></trkpt><trkpt lat="43.416237018692314" lon="11.811287086096687"><ele>244.0</ele><time>2026-03-22T11:40:12Z</time></trkpt><trkpt lat="43.41629756320573" lon="11.811411301982247"><ele>243.75</ele><time>2026-03-22T11:40:14Z</time></trkpt><trkpt lat="43.41636162878344" lon="11.81154295666115"><ele>243.5</ele><time>2026-03-22T11:40:16Z</time></trkpt><trkpt lat="43.41642614758843" lon="11.811678768127083"><ele>243.25</ele><time>2026-03-22T11:40:18Z</time></trkpt><trkpt lat="43.416524371683344" lon="11.811790318545318"><ele>243.0</ele><time>2026-03-22T11:40:20Z</time></trkpt><trkpt lat="43.41655585587272" lon="11.811951802830553"><ele>243.4</ele><time>2026-03-22T11:40:22Z</time></trkpt><trkpt lat="43.416623439792374" lon="11.812094066348717"><ele>243.8</ele><time>2026-03-22T11:40:24Z</time></trkpt><trkpt lat="43.416698491250955" lon="11.812252048963998"><ele>244.2</ele><time>2026-03-22T11:40:26Z</time></trkpt><trkpt lat="43.4167409695861" lon="11.812341465461104"><ele>244.6</ele><time>2026-03-22T11:40:27Z</time></trkpt><trkpt lat="43.416785154004764" lon="11.812434473245393"><ele>245.0</ele><time>2026-03-22T11:40:28Z</time></trkpt><trkpt lat="43.41682766321097" lon="11.812523954722653"><ele>245.00000000000003</ele><time>2026-03-22T11:40:29Z</time></trkpt><trkpt lat="43.41686927684243" lon="11.812611551029207"><ele>245.0</ele><time>2026-03-22T11:40:30Z</time></trkpt><trkpt lat="43.416910449910944" lon="11.812698219941955"><ele>245.0</ele><time>2026-03-22T11:40:31Z</time></trkpt><trkpt lat="43.416953024909105" lon="11.81278783992854"><ele>245.0</ele><time>2026-03-22T11:40:32Z</time></trkpt><trkpt lat="43.416995641706045" lon="11.812877547863366"><ele>245.00000000000003</ele><time>2026-03-22T11:40:32.999Z</time></trkpt><trkpt lat="43.41703764596311" lon="11.812965659062888"><ele>245.0</ele><time>2026-03-22T11:40:33.999Z</time></trkpt><trkpt lat="43.41707975033275" lon="11.81305398663167"><ele>245.16666666666669</ele><time>2026-03-22T11:40:34.999Z</time></trkpt><trkpt lat="43.41712162373703" lon="11.813141829665398"><ele>245.33333333333334</ele><time>2026-03-22T11:40:35.999Z</time></trkpt><trkpt lat="43.417163613323844" lon="11.813229916419706"><ele>245.5</ele><time>2026-03-22T11:40:36.999Z</time></trkpt><trkpt lat="43.41720700790588" lon="11.813320950626247"><ele>245.66666666666669</ele><time>2026-03-22T11:40:37.999Z</time></trkpt><trkpt lat="43.4172503238255" lon="11.813411819808694"><ele>245.83333333333334</ele><time>2026-03-22T11:40:38.999Z</time></trkpt><trkpt lat="43.41729158408344" lon="11.813498376569344"><ele>246.0</ele><time>2026-03-22T11:40:39.999Z</time></trkpt><trkpt lat="43.417333361208364" lon="11.8135860176215"><ele>245.71428571428575</ele><time>2026-03-22T11:40:40.999Z</time></trkpt><trkpt lat="43.417375285538355" lon="11.813673967501021"><ele>245.42857142857144</ele><time>2026-03-22T11:40:41.999Z</time></trkpt><trkpt lat="43.41741661466115" lon="11.813760668728955"><ele>245.14285714285714</ele><time>2026-03-22T11:40:42.999Z</time></trkpt><trkpt lat="43.417457866655646" lon="11.813847208167937"><ele>244.85714285714286</ele><time>2026-03-22T11:40:43.999Z</time></trkpt><trkpt lat="43.41749828660548" lon="11.81393200209581"><ele>244.57142857142856</ele><time>2026-03-22T11:40:44.999Z</time></trkpt><trkpt lat="43.41753862123416" lon="11.814016365519501"><ele>244.28571428571425</ele><time>2026-03-22T11:40:45.999Z</time></trkpt><trkpt lat="43.41757786570035" lon="11.814097079437053"><ele>243.99999999999997</ele><time>2026-03-22T11:40:46.999Z</time></trkpt><trkpt lat="43.41761831956058" lon="11.814180280695195"><ele>243.99999999999997</ele><time>2026-03-22T11:40:47.999Z</time></trkpt><trkpt lat="43.4176596939933" lon="11.814265375307684"><ele>244.0</ele><time>2026-03-22T11:40:48.999Z</time></trkpt><trkpt lat="43.41769974115748" lon="11.814347740156846"><ele>243.99999999999997</ele><time>2026-03-22T11:40:49.999Z</time></trkpt><trkpt lat="43.41773897740385" lon="11.814428088988395"><ele>243.99999999999997</ele><time>2026-03-22T11:40:50.999Z</time></trkpt><trkpt lat="43.41777900816054" lon="11.814509762990676"><ele>244.0</ele><time>2026-03-22T11:40:51.999Z</time></trkpt><trkpt lat="43.41781828991142" lon="11.81458985380464"><ele>243.99999999999997</ele><time>2026-03-22T11:40:52.999Z</time></trkpt><trkpt lat="43.417858051134885" lon="11.814669086020004"><ele>243.99999999999997</ele><time>2026-03-22T11:40:53.999Z</time></trkpt><trkpt lat="43.4178965813031" lon="11.81474586509246"><ele>243.71428571428567</ele><time>2026-03-22T11:40:54.999Z</time></trkpt><trkpt lat="43.41793508557456" lon="11.814822592584514"><ele>243.42857142857142</ele><time>2026-03-22T11:40:55.999Z</time></trkpt><trkpt lat="43.41797547134086" lon="11.814903069352996"><ele>243.1428571428571</ele><time>2026-03-22T11:40:56.999Z</time></trkpt><trkpt lat="43.41801429227688" lon="11.814980428838929"><ele>242.85714285714283</ele><time>2026-03-22T11:40:57.999Z</time></trkpt><trkpt lat="43.4180520504758" lon="11.815055670206606"><ele>242.57142857142856</ele><time>2026-03-22T11:40:58.999Z</time></trkpt><trkpt lat="43.41809096502969" lon="11.815133220906702"><ele>242.28571428571428</ele><time>2026-03-22T11:40:59.999Z</time></trkpt><trkpt lat="43.41812958793628" lon="11.815211976865758"><ele>242.0</ele><time>2026-03-22T11:41:00.999Z</time></trkpt><trkpt lat="43.418168774410866" lon="11.815289294156667"><ele>242.0</ele><time>2026-03-22T11:41:01.999Z</time></trkpt><trkpt lat="43.41820587498629" lon="11.81536731693278"><ele>241.99999999999997</ele><time>2026-03-22T11:41:02.999Z</time></trkpt><trkpt lat="43.41824281874312" lon="11.81544599780994"><ele>242.0</ele><time>2026-03-22T11:41:03.999Z</time></trkpt><trkpt lat="43.41827959863483" lon="11.815524994898464"><ele>242.0</ele><time>2026-03-22T11:41:04.999Z</time></trkpt><trkpt lat="43.418316774742216" lon="11.81560484301097"><ele>241.99999999999997</ele><time>2026-03-22T11:41:05.999Z</time></trkpt><trkpt lat="43.418354258393634" lon="11.815685167779401"><ele>242.0</ele><time>2026-03-22T11:41:06.999Z</time></trkpt><trkpt lat="43.41839043780319" lon="11.815762157567294"><ele>242.0</ele><time>2026-03-22T11:41:07.999Z</time></trkpt><trkpt lat="43.418428219447875" lon="11.815842483835683"><ele>242.0</ele><time>2026-03-22T11:41:08.999Z</time></trkpt><trkpt lat="43.41846396670495" lon="11.8159182357351"><ele>241.99999999999997</ele><time>2026-03-22T11:41:09.999Z</time></trkpt><trkpt lat="43.41850013859532" lon="11.815995076761448"><ele>242.0</ele><time>2026-03-22T11:41:10.999Z</time></trkpt><trkpt lat="43.41853591654669" lon="11.816071109239195"><ele>242.0</ele><time>2026-03-22T11:41:11.999Z</time></trkpt><trkpt lat="43.41857154304435" lon="11.816146819861554"><ele>241.99999999999997</ele><time>2026-03-22T11:41:12.999Z</time></trkpt><trkpt lat="43.41860768912405" lon="11.816223634650521"><ele>242.0</ele><time>2026-03-22T11:41:13.999Z</time></trkpt><trkpt lat="43.4186431332987" lon="11.816298957813638"><ele>242.0</ele><time>2026-03-22T11:41:14.999Z</time></trkpt><trkpt lat="43.41867949472849" lon="11.816376230250231"><ele>242.28571428571428</ele><time>2026-03-22T11:41:15.999Z</time></trkpt><trkpt lat="43.41871569870777" lon="11.81645316809293"><ele>242.57142857142856</ele><time>2026-03-22T11:41:16.999Z</time></trkpt><trkpt lat="43.4187504978388" lon="11.816527120452177"><ele>242.85714285714283</ele><time>2026-03-22T11:41:17.999Z</time></trkpt><trkpt lat="43.41878569316216" lon="11.816601914787292"><ele>243.1428571428571</ele><time>2026-03-22T11:41:18.999Z</time></trkpt><trkpt lat="43.41882132555039" lon="11.816677637921186"><ele>243.42857142857142</ele><time>2026-03-22T11:41:19.999Z</time></trkpt><trkpt lat="43.41885702877922" lon="11.816753511603274"><ele>243.71428571428567</ele><time>2026-03-22T11:41:20.999Z</time></trkpt><trkpt lat="43.418894257331495" lon="11.816832626783711"><ele>243.99999999999997</ele><time>2026-03-22T11:41:21.999Z</time></trkpt><trkpt lat="43.41893196611639" lon="11.816912762508238"><ele>243.99999999999997</ele><time>2026-03-22T11:41:22.999Z</time></trkpt><trkpt lat="43.418967628197" lon="11.816988548762154"><ele>244.0</ele><time>2026-03-22T11:41:23.998Z</time></trkpt><trkpt lat="43.41900375501006" lon="11.817065380867184"><ele>243.99999999999997</ele><time>2026-03-22T11:41:24.998Z</time></trkpt><trkpt lat="43.41904003238561" lon="11.81714258742166"><ele>243.99999999999997</ele><time>2026-03-22T11:41:25.998Z</time></trkpt><trkpt lat="43.419074745121314" lon="11.81721646405843"><ele>244.0</ele><time>2026-03-22T11:41:26.998Z</time></trkpt><trkpt lat="43.41911212424339" lon="11.817296015391284"><ele>243.99999999999997</ele><time>2026-03-22T11:41:27.998Z</time></trkpt><trkpt lat="43.419147935794264" lon="11.817372230563794"><ele>243.99999999999997</ele><time>2026-03-22T11:41:28.998Z</time></trkpt><trkpt lat="43.419182915143864" lon="11.81744667462146"><ele>243.99999999999997</ele><time>2026-03-22T11:41:29.998Z</time></trkpt><trkpt lat="43.41921730281576" lon="11.817519859449272"><ele>244.0</ele><time>2026-03-22T11:41:30.998Z</time></trkpt><trkpt lat="43.41925229782304" lon="11.817594336838031"><ele>244.0</ele><time>2026-03-22T11:41:31.998Z</time></trkpt><trkpt lat="43.41928670335111" lon="11.817667559677396"><ele>244.0</ele><time>2026-03-22T11:41:32.998Z</time></trkpt><trkpt lat="43.4193553665936" lon="11.8178136907572"><ele>243.99999999999997</ele><time>2026-03-22T11:41:34.998Z</time></trkpt><trkpt lat="43.41942290549317" lon="11.817957448877069"><ele>244.0</ele><time>2026-03-22T11:41:36.998Z</time></trkpt><trkpt lat="43.419492177034144" lon="11.818105194345538"><ele>243.99999999999997</ele><time>2026-03-22T11:41:38.998Z</time></trkpt><trkpt lat="43.4195274151509" lon="11.818180351808214"><ele>244.0</ele><time>2026-03-22T11:41:39.998Z</time></trkpt><trkpt lat="43.419562846001064" lon="11.818255920335735"><ele>243.99999999999997</ele><time>2026-03-22T11:41:40.998Z</time></trkpt><trkpt lat="43.41959832230517" lon="11.818331585808359"><ele>243.99999999999997</ele><time>2026-03-22T11:41:41.998Z</time></trkpt><trkpt lat="43.41963329264009" lon="11.818406172127897"><ele>244.0</ele><time>2026-03-22T11:41:42.998Z</time></trkpt><trkpt lat="43.419668896144266" lon="11.81848210889165"><ele>243.99999999999997</ele><time>2026-03-22T11:41:43.998Z</time></trkpt><trkpt lat="43.41970437462461" lon="11.818557779005022"><ele>243.99999999999997</ele><time>2026-03-22T11:41:44.998Z</time></trkpt><trkpt lat="43.41973997203343" lon="11.818633702774331"><ele>244.1428571428571</ele><time>2026-03-22T11:41:45.998Z</time></trkpt><trkpt lat="43.41977509788995" lon="11.818708620784335"><ele>244.28571428571428</ele><time>2026-03-22T11:41:46.998Z</time></trkpt><trkpt lat="43.41981127917053" lon="11.818785789876014"><ele>244.42857142857142</ele><time>2026-03-22T11:41:47.998Z</time></trkpt><trkpt lat="43.41984605115936" lon="11.818859953156657"><ele>244.57142857142856</ele><time>2026-03-22T11:41:48.998Z</time></trkpt><trkpt lat="43.419880614155986" lon="11.81893367068289"><ele>244.71428571428572</ele><time>2026-03-22T11:41:49.998Z</time></trkpt><trkpt lat="43.419915686791725" lon="11.819008475185464"><ele>244.85714285714286</ele><time>2026-03-22T11:41:50.998Z</time></trkpt><trkpt lat="43.419949963117986" lon="11.819081581295064"><ele>245.0</ele><time>2026-03-22T11:41:51.998Z</time></trkpt><trkpt lat="43.4199846687848" lon="11.819155518599052"><ele>245.00000000000003</ele><time>2026-03-22T11:41:52.998Z</time></trkpt><trkpt lat="43.42001976127106" lon="11.81923021388875"><ele>245.0</ele><time>2026-03-22T11:41:53.998Z</time></trkpt><trkpt lat="43.42005453807053" lon="11.81930423723686"><ele>245.0</ele><time>2026-03-22T11:41:54.998Z</time></trkpt><trkpt lat="43.42008903514346" lon="11.819377665178287"><ele>245.0</ele><time>2026-03-22T11:41:55.998Z</time></trkpt><trkpt lat="43.420123806055" lon="11.81945167598607"><ele>245.00000000000003</ele><time>2026-03-22T11:41:56.998Z</time></trkpt><trkpt lat="43.420191911089105" lon="11.81959663935393"><ele>245.0</ele><time>2026-03-22T11:41:58.998Z</time></trkpt><trkpt lat="43.42025749811367" lon="11.819736242464074"><ele>245.0</ele><time>2026-03-22T11:42:00.998Z</time></trkpt><trkpt lat="43.420324545502766" lon="11.819878916545171"><ele>245.0</ele><time>2026-03-22T11:42:02.998Z</time></trkpt><trkpt lat="43.42039143309516" lon="11.820021263732691"><ele>245.0</ele><time>2026-03-22T11:42:05Z</time></trkpt><trkpt lat="43.420426231289625" lon="11.820095319696982"><ele>245.0</ele><time>2026-03-22T11:42:06Z</time></trkpt><trkpt lat="43.420493596741686" lon="11.82023868383881"><ele>245.0</ele><time>2026-03-22T11:42:08Z</time></trkpt><trkpt lat="43.420528012262466" lon="11.820311925413025"><ele>245.0</ele><time>2026-03-22T11:42:09Z</time></trkpt><trkpt lat="43.4205625563308" lon="11.82038544055578"><ele>245.0</ele><time>2026-03-22T11:42:10Z</time></trkpt><trkpt lat="43.42062747343181" lon="11.820523329077925"><ele>245.0</ele><time>2026-03-22T11:42:12Z</time></trkpt><trkpt lat="43.42069316561876" lon="11.820662758936935"><ele>245.0</ele><time>2026-03-22T11:42:14Z</time></trkpt><trkpt lat="43.42075894469831" lon="11.820802373262367"><ele>245.0</ele><time>2026-03-22T11:42:16Z</time></trkpt><trkpt lat="43.420825039065974" lon="11.820942656753175"><ele>244.8</ele><time>2026-03-22T11:42:18Z</time></trkpt><trkpt lat="43.420890875045124" lon="11.821082390959544"><ele>244.6</ele><time>2026-03-22T11:42:20Z</time></trkpt><trkpt lat="43.42092534179796" lon="11.821155774264785"><ele>244.39999999999998</ele><time>2026-03-22T11:42:21Z</time></trkpt><trkpt lat="43.4209900262607" lon="11.8212932339407"><ele>244.2</ele><time>2026-03-22T11:42:23Z</time></trkpt><trkpt lat="43.4210580280073" lon="11.821438329261193"><ele>244.0</ele><time>2026-03-22T11:42:25Z</time></trkpt><trkpt lat="43.42112652424975" lon="11.821583094376086"><ele>243.99999999999997</ele><time>2026-03-22T11:42:27Z</time></trkpt><trkpt lat="43.42119644046611" lon="11.821728686288353"><ele>244.0</ele><time>2026-03-22T11:42:29Z</time></trkpt><trkpt lat="43.42123168810008" lon="11.821802085147212"><ele>244.0</ele><time>2026-03-22T11:42:30Z</time></trkpt><trkpt lat="43.42130009643228" lon="11.821946313045274"><ele>244.0</ele><time>2026-03-22T11:42:32Z</time></trkpt><trkpt lat="43.42133450042955" lon="11.822019404978086"><ele>243.99999999999997</ele><time>2026-03-22T11:42:33Z</time></trkpt><trkpt lat="43.42136903902168" lon="11.822092782853138"><ele>244.0</ele><time>2026-03-22T11:42:34Z</time></trkpt><trkpt lat="43.42143583942045" lon="11.82223470153558"><ele>244.25</ele><time>2026-03-22T11:42:35.999Z</time></trkpt><trkpt lat="43.42150187940767" lon="11.822375004709295"><ele>244.5</ele><time>2026-03-22T11:42:37.999Z</time></trkpt><trkpt lat="43.421568475498994" lon="11.82251648933604"><ele>244.75</ele><time>2026-03-22T11:42:39.999Z</time></trkpt><trkpt lat="43.42163435623608" lon="11.822656454194489"><ele>245.0</ele><time>2026-03-22T11:42:41.999Z</time></trkpt><trkpt lat="43.421701096641584" lon="11.82279824538854"><ele>244.25</ele><time>2026-03-22T11:42:43.999Z</time></trkpt><trkpt lat="43.4217670407234" lon="11.822938344818061"><ele>243.5</ele><time>2026-03-22T11:42:45.999Z</time></trkpt><trkpt lat="43.421833875425236" lon="11.823080336371257"><ele>242.75</ele><time>2026-03-22T11:42:47.999Z</time></trkpt><trkpt lat="43.42189901430778" lon="11.82321872514626"><ele>242.0</ele><time>2026-03-22T11:42:49.999Z</time></trkpt><trkpt lat="43.421963692515156" lon="11.823356135188703"><ele>242.25</ele><time>2026-03-22T11:42:51.999Z</time></trkpt><trkpt lat="43.42202798848537" lon="11.823492733150328"><ele>242.5</ele><time>2026-03-22T11:42:53.999Z</time></trkpt><trkpt lat="43.422091782728614" lon="11.823628265198098"><ele>242.75</ele><time>2026-03-22T11:42:55.999Z</time></trkpt><trkpt lat="43.422154879166364" lon="11.823762282329703"><ele>243.0</ele><time>2026-03-22T11:42:57.999Z</time></trkpt><trkpt lat="43.422216427478205" lon="11.823892904007131"><ele>243.25</ele><time>2026-03-22T11:42:59.999Z</time></trkpt><trkpt lat="43.42228138754269" lon="11.824030766279671"><ele>243.5</ele><time>2026-03-22T11:43:01.999Z</time></trkpt><trkpt lat="43.422346329955275" lon="11.824168591101719"><ele>243.75</ele><time>2026-03-22T11:43:03.999Z</time></trkpt><trkpt lat="43.422410637740576" lon="11.824305069091725"><ele>244.0</ele><time>2026-03-22T11:43:05.999Z</time></trkpt><trkpt lat="43.42247477450541" lon="11.824441183631828"><ele>244.0</ele><time>2026-03-22T11:43:07.999Z</time></trkpt><trkpt lat="43.42253786014358" lon="11.824574140939985"><ele>244.0</ele><time>2026-03-22T11:43:09.999Z</time></trkpt><trkpt lat="43.42260012352546" lon="11.824705648594394"><ele>244.0</ele><time>2026-03-22T11:43:11.999Z</time></trkpt><trkpt lat="43.42266177025475" lon="11.824835853802936"><ele>244.0</ele><time>2026-03-22T11:43:13.999Z</time></trkpt><trkpt lat="43.42272422062723" lon="11.824967756420357"><ele>244.0</ele><time>2026-03-22T11:43:15.999Z</time></trkpt><trkpt lat="43.422786599210575" lon="11.825099508350004"><ele>244.0</ele><time>2026-03-22T11:43:17.999Z</time></trkpt><trkpt lat="43.42284948839144" lon="11.825232337793217"><ele>244.0</ele><time>2026-03-22T11:43:19.999Z</time></trkpt><trkpt lat="43.42291195226152" lon="11.82536426882357"><ele>244.0</ele><time>2026-03-22T11:43:21.999Z</time></trkpt><trkpt lat="43.42297607868945" lon="11.825499711519651"><ele>244.75</ele><time>2026-03-22T11:43:23.999Z</time></trkpt><trkpt lat="43.42303793370145" lon="11.825630356659474"><ele>245.5</ele><time>2026-03-22T11:43:25.999Z</time></trkpt><trkpt lat="43.423104273697014" lon="11.82577047465573"><ele>246.25</ele><time>2026-03-22T11:43:27.999Z</time></trkpt><trkpt lat="43.423169556614965" lon="11.82590835989266"><ele>247.0</ele><time>2026-03-22T11:43:29.998Z</time></trkpt><trkpt lat="43.42323544875154" lon="11.826045958219774"><ele>247.39999999999998</ele><time>2026-03-22T11:43:31.998Z</time></trkpt><trkpt lat="43.423302367767484" lon="11.82618730239358"><ele>247.79999999999998</ele><time>2026-03-22T11:43:33.998Z</time></trkpt><trkpt lat="43.42333882800323" lon="11.826264312625314"><ele>248.2</ele><time>2026-03-22T11:43:34.998Z</time></trkpt><trkpt lat="43.423402199986036" lon="11.826398164750612"><ele>248.6</ele><time>2026-03-22T11:43:36.998Z</time></trkpt><trkpt lat="43.42346352271658" lon="11.826527688591014"><ele>249.0</ele><time>2026-03-22T11:43:38.998Z</time></trkpt><trkpt lat="43.423526083388275" lon="11.826659827138537"><ele>249.0</ele><time>2026-03-22T11:43:40.998Z</time></trkpt><trkpt lat="43.42358904278898" lon="11.826791856798646"><ele>249.0</ele><time>2026-03-22T11:43:42.998Z</time></trkpt><trkpt lat="43.423652950315066" lon="11.82692556547881"><ele>249.0</ele><time>2026-03-22T11:43:44.998Z</time></trkpt><trkpt lat="43.42371691935466" lon="11.827059402869052"><ele>249.0</ele><time>2026-03-22T11:43:46.998Z</time></trkpt><trkpt lat="43.42378239729202" lon="11.827196397203409"><ele>248.5</ele><time>2026-03-22T11:43:48.998Z</time></trkpt><trkpt lat="43.423848055518384" lon="11.827333447236475"><ele>248.0</ele><time>2026-03-22T11:43:50.998Z</time></trkpt><trkpt lat="43.42391473054399" lon="11.827472571872356"><ele>247.5</ele><time>2026-03-22T11:43:52.998Z</time></trkpt><trkpt lat="43.42397905340875" lon="11.827606788469396"><ele>247.0</ele><time>2026-03-22T11:43:54.998Z</time></trkpt><trkpt lat="43.42404510369286" lon="11.827744760813028"><ele>247.0</ele><time>2026-03-22T11:43:56.998Z</time></trkpt><trkpt lat="43.42410977144395" lon="11.827881674908705"><ele>247.0</ele><time>2026-03-22T11:43:58.998Z</time></trkpt><trkpt lat="43.424175677073535" lon="11.828021209832928"><ele>247.0</ele><time>2026-03-22T11:44:00.998Z</time></trkpt><trkpt lat="43.424240543625" lon="11.828158544831222"><ele>247.0</ele><time>2026-03-22T11:44:02.998Z</time></trkpt><trkpt lat="43.4243048241944" lon="11.828294639197953"><ele>247.0</ele><time>2026-03-22T11:44:04.998Z</time></trkpt><trkpt lat="43.42436926289295" lon="11.82843106834428"><ele>247.0</ele><time>2026-03-22T11:44:06.998Z</time></trkpt><trkpt lat="43.424433645840885" lon="11.82856737945508"><ele>247.0</ele><time>2026-03-22T11:44:08.998Z</time></trkpt><trkpt lat="43.424499902191016" lon="11.828706426070019"><ele>247.0</ele><time>2026-03-22T11:44:11Z</time></trkpt><trkpt lat="43.42456396873218" lon="11.828838005102025"><ele>247.0</ele><time>2026-03-22T11:44:13Z</time></trkpt><trkpt lat="43.42462763860693" lon="11.828968769479925"><ele>247.0</ele><time>2026-03-22T11:44:15Z</time></trkpt><trkpt lat="43.424692285633455" lon="11.829101789497946"><ele>247.0</ele><time>2026-03-22T11:44:17Z</time></trkpt><trkpt lat="43.42475912127947" lon="11.829241225323509"><ele>247.0</ele><time>2026-03-22T11:44:19Z</time></trkpt><trkpt lat="43.424824788810525" lon="11.829376338007853"><ele>247.0</ele><time>2026-03-22T11:44:21Z</time></trkpt><trkpt lat="43.4248915786594" lon="11.829513758738212"><ele>247.0</ele><time>2026-03-22T11:44:23Z</time></trkpt><trkpt lat="43.424954886787035" lon="11.829644922432589"><ele>247.0</ele><time>2026-03-22T11:44:25Z</time></trkpt><trkpt lat="43.425019749029566" lon="11.829778883932395"><ele>247.0</ele><time>2026-03-22T11:44:27Z</time></trkpt><trkpt lat="43.425084772076076" lon="11.829911273745864"><ele>247.0</ele><time>2026-03-22T11:44:29Z</time></trkpt><trkpt lat="43.42515048969699" lon="11.83004569458031"><ele>247.0</ele><time>2026-03-22T11:44:31Z</time></trkpt><trkpt lat="43.42521601895572" lon="11.830179730124438"><ele>247.0</ele><time>2026-03-22T11:44:33Z</time></trkpt><trkpt lat="43.425282346060655" lon="11.830315397609406"><ele>247.0</ele><time>2026-03-22T11:44:35Z</time></trkpt><trkpt lat="43.425346427461164" lon="11.830446471668768"><ele>247.0</ele><time>2026-03-22T11:44:37Z</time></trkpt><trkpt lat="43.42541218812159" lon="11.830580980524845"><ele>247.0</ele><time>2026-03-22T11:44:39Z</time></trkpt><trkpt lat="43.42547600662766" lon="11.830711516845598"><ele>247.0</ele><time>2026-03-22T11:44:41Z</time></trkpt><trkpt lat="43.42553797761809" lon="11.830838274201502"><ele>247.0</ele><time>2026-03-22T11:44:42.999Z</time></trkpt><trkpt lat="43.42559976943944" lon="11.830962364674054"><ele>247.0</ele><time>2026-03-22T11:44:44.999Z</time></trkpt><trkpt lat="43.425657885267235" lon="11.831078108594532"><ele>247.0</ele><time>2026-03-22T11:44:46.999Z</time></trkpt><trkpt lat="43.425717083307845" lon="11.831196007849433"><ele>247.0</ele><time>2026-03-22T11:44:48.999Z</time></trkpt><trkpt lat="43.42577469281113" lon="11.831310743374805"><ele>247.0</ele><time>2026-03-22T11:44:50.999Z</time></trkpt><trkpt lat="43.425833669900136" lon="11.831428202578602"><ele>247.0</ele><time>2026-03-22T11:44:52.999Z</time></trkpt><trkpt lat="43.42589208523738" lon="11.83154454299824"><ele>247.0</ele><time>2026-03-22T11:44:54.999Z</time></trkpt><trkpt lat="43.425950803397086" lon="11.831661486515793"><ele>247.0</ele><time>2026-03-22T11:44:56.999Z</time></trkpt><trkpt lat="43.426008791211956" lon="11.831776975486294"><ele>247.0</ele><time>2026-03-22T11:44:58.999Z</time></trkpt><trkpt lat="43.426068293544866" lon="11.831894643513076"><ele>247.0</ele><time>2026-03-22T11:45:00.999Z</time></trkpt><trkpt lat="43.42612391199141" lon="11.832003954252857"><ele>247.0</ele><time>2026-03-22T11:45:02.999Z</time></trkpt><trkpt lat="43.42617679369543" lon="11.832107886250188"><ele>247.0</ele><time>2026-03-22T11:45:04.999Z</time></trkpt><trkpt lat="43.42622682114099" lon="11.832206230766737"><ele>247.0</ele><time>2026-03-22T11:45:06.999Z</time></trkpt><trkpt lat="43.426272930084494" lon="11.83229773662269"><ele>247.0</ele><time>2026-03-22T11:45:08.999Z</time></trkpt><trkpt lat="43.426315102195915" lon="11.832383182655914"><ele>247.0</ele><time>2026-03-22T11:45:10.999Z</time></trkpt><trkpt lat="43.42635587403298" lon="11.832466002051694"><ele>247.0</ele><time>2026-03-22T11:45:12.999Z</time></trkpt><trkpt lat="43.42639203617483" lon="11.832539457074136"><ele>247.0</ele><time>2026-03-22T11:45:14.999Z</time></trkpt><trkpt lat="43.42642949467331" lon="11.832614039241875"><ele>247.0</ele><time>2026-03-22T11:45:16.999Z</time></trkpt><trkpt lat="43.42647375496734" lon="11.832704167515365"><ele>247.33333333333331</ele><time>2026-03-22T11:45:19.999Z</time></trkpt><trkpt lat="43.426544547769126" lon="11.832765311620776"><ele>247.66666666666666</ele><time>2026-03-22T11:45:43.998Z</time></trkpt><trkpt lat="43.42658143339907" lon="11.8328478665115"><ele>248.0</ele><time>2026-03-22T11:45:45.998Z</time></trkpt><trkpt lat="43.426636061494285" lon="11.832956514795107"><ele>248.33333333333331</ele><time>2026-03-22T11:45:47.998Z</time></trkpt><trkpt lat="43.42668526011178" lon="11.83306654643145"><ele>248.66666666666666</ele><time>2026-03-22T11:45:49.998Z</time></trkpt><trkpt lat="43.4267447804026" lon="11.833179912067983"><ele>249.0</ele><time>2026-03-22T11:45:51.998Z</time></trkpt><trkpt lat="43.42680413943661" lon="11.833292366774712"><ele>249.0</ele><time>2026-03-22T11:45:53.998Z</time></trkpt><trkpt lat="43.42686120349026" lon="11.833409662213292"><ele>248.99999999999997</ele><time>2026-03-22T11:45:55.998Z</time></trkpt><trkpt lat="43.4269206779121" lon="11.833521750022392"><ele>248.99999999999997</ele><time>2026-03-22T11:45:57.998Z</time></trkpt><trkpt lat="43.42697942463453" lon="11.833635436148727"><ele>249.0</ele><time>2026-03-22T11:45:59.998Z</time></trkpt><trkpt lat="43.42697480396719" lon="11.833724926247577"><ele>249.0</ele><time>2026-03-22T11:46:00.998Z</time></trkpt><trkpt lat="43.4270316212893" lon="11.833841233555049"><ele>248.6</ele><time>2026-03-22T11:46:02.998Z</time></trkpt><trkpt lat="43.427089541060596" lon="11.83395979761189"><ele>248.2</ele><time>2026-03-22T11:46:04.998Z</time></trkpt><trkpt lat="43.427146029890295" lon="11.834075432474629"><ele>247.79999999999998</ele><time>2026-03-22T11:46:06.998Z</time></trkpt><trkpt lat="43.42720492667962" lon="11.834196067744479"><ele>247.39999999999998</ele><time>2026-03-22T11:46:08.998Z</time></trkpt><trkpt lat="43.42726303521703" lon="11.834315760999198"><ele>247.0</ele><time>2026-03-22T11:46:10.998Z</time></trkpt><trkpt lat="43.42731880776393" lon="11.83443064227517"><ele>247.8</ele><time>2026-03-22T11:46:12.998Z</time></trkpt><trkpt lat="43.42737759788098" lon="11.834551738068928"><ele>248.6</ele><time>2026-03-22T11:46:14.998Z</time></trkpt><trkpt lat="43.42743355615707" lon="11.834667818797659"><ele>249.40000000000003</ele><time>2026-03-22T11:46:17Z</time></trkpt><trkpt lat="43.427490578515254" lon="11.834784451561275"><ele>250.20000000000002</ele><time>2026-03-22T11:46:19Z</time></trkpt><trkpt lat="43.42754750577672" lon="11.834899582194858"><ele>251.0</ele><time>2026-03-22T11:46:21Z</time></trkpt><trkpt lat="43.42760468668008" lon="11.835015225772247"><ele>251.0</ele><time>2026-03-22T11:46:23Z</time></trkpt><trkpt lat="43.427662348536415" lon="11.835131842049847"><ele>251.00000000000003</ele><time>2026-03-22T11:46:25Z</time></trkpt><trkpt lat="43.42771916770939" lon="11.83524675405963"><ele>251.00000000000003</ele><time>2026-03-22T11:46:27Z</time></trkpt><trkpt lat="43.42777708576411" lon="11.83536388946015"><ele>251.0</ele><time>2026-03-22T11:46:29Z</time></trkpt><trkpt lat="43.42783386809051" lon="11.835478726930713"><ele>251.0</ele><time>2026-03-22T11:46:31Z</time></trkpt><trkpt lat="43.42789207467426" lon="11.835596488485615"><ele>251.0</ele><time>2026-03-22T11:46:33Z</time></trkpt><trkpt lat="43.42795132586627" lon="11.835716839382751"><ele>251.00000000000003</ele><time>2026-03-22T11:46:35Z</time></trkpt><trkpt lat="43.42801023196033" lon="11.835836489189333"><ele>251.00000000000003</ele><time>2026-03-22T11:46:37Z</time></trkpt><trkpt lat="43.42806704053184" lon="11.83595187858526"><ele>251.0</ele><time>2026-03-22T11:46:39Z</time></trkpt><trkpt lat="43.4281250340216" lon="11.836069674767"><ele>251.0</ele><time>2026-03-22T11:46:41Z</time></trkpt><trkpt lat="43.428182831347165" lon="11.836187072514349"><ele>252.0</ele><time>2026-03-22T11:46:43Z</time></trkpt><trkpt lat="43.428239315469604" lon="11.83630180287901"><ele>253.00000000000003</ele><time>2026-03-22T11:46:45Z</time></trkpt><trkpt lat="43.428294873308076" lon="11.83641465063643"><ele>254.00000000000003</ele><time>2026-03-22T11:46:47Z</time></trkpt><trkpt lat="43.42835169529363" lon="11.836529489941634"><ele>255.0</ele><time>2026-03-22T11:46:48.999Z</time></trkpt><trkpt lat="43.42840832814591" lon="11.836644229850679"><ele>256.0</ele><time>2026-03-22T11:46:50.999Z</time></trkpt><trkpt lat="43.42846370693005" lon="11.836756428992949"><ele>256.2</ele><time>2026-03-22T11:46:52.999Z</time></trkpt><trkpt lat="43.428517823409834" lon="11.836866070675852"><ele>256.40000000000003</ele><time>2026-03-22T11:46:54.999Z</time></trkpt><trkpt lat="43.42857521490934" lon="11.836982347635498"><ele>256.6</ele><time>2026-03-22T11:46:56.999Z</time></trkpt><trkpt lat="43.42863303398071" lon="11.83709949087102"><ele>256.8</ele><time>2026-03-22T11:46:58.999Z</time></trkpt><trkpt lat="43.428687371322425" lon="11.837209580022414"><ele>257.0</ele><time>2026-03-22T11:47:00.999Z</time></trkpt><trkpt lat="43.428740865871866" lon="11.837317961662913"><ele>257.0</ele><time>2026-03-22T11:47:02.999Z</time></trkpt><trkpt lat="43.428791274156005" lon="11.837419755935365"><ele>257.0</ele><time>2026-03-22T11:47:04.999Z</time></trkpt><trkpt lat="43.42884071151022" lon="11.83751716178515"><ele>257.0</ele><time>2026-03-22T11:47:06.999Z</time></trkpt><trkpt lat="43.428888864096855" lon="11.837612036281824"><ele>257.0</ele><time>2026-03-22T11:47:08.999Z</time></trkpt><trkpt lat="43.42893481411603" lon="11.837702570432217"><ele>257.0</ele><time>2026-03-22T11:47:10.999Z</time></trkpt><trkpt lat="43.428980662800704" lon="11.83779222227408"><ele>257.0</ele><time>2026-03-22T11:47:12.999Z</time></trkpt><trkpt lat="43.42902611857772" lon="11.837881808582145"><ele>257.83333333333337</ele><time>2026-03-22T11:47:14.999Z</time></trkpt><trkpt lat="43.429070097086424" lon="11.837968483417226"><ele>258.6666666666667</ele><time>2026-03-22T11:47:16.999Z</time></trkpt><trkpt lat="43.42911250825521" lon="11.83805206927975"><ele>259.5</ele><time>2026-03-22T11:47:18.999Z</time></trkpt><trkpt lat="43.429155260179414" lon="11.83813577676683"><ele>260.3333333333333</ele><time>2026-03-22T11:47:20.999Z</time></trkpt><trkpt lat="43.42920261601448" lon="11.838226354250578"><ele>261.16666666666663</ele><time>2026-03-22T11:47:23.999Z</time></trkpt><trkpt lat="43.42924009593076" lon="11.838298042094305"><ele>262.0</ele><time>2026-03-22T11:47:25.999Z</time></trkpt><trkpt lat="43.42928854682682" lon="11.838385674833477"><ele>261.7142857142857</ele><time>2026-03-22T11:47:27.999Z</time></trkpt><trkpt lat="43.429330604989865" lon="11.838470237620983"><ele>261.42857142857144</ele><time>2026-03-22T11:47:29.999Z</time></trkpt><trkpt lat="43.42937407741584" lon="11.838552639569233"><ele>261.14285714285717</ele><time>2026-03-22T11:47:31.999Z</time></trkpt><trkpt lat="43.42941941192997" lon="11.838633364763753"><ele>260.8571428571429</ele><time>2026-03-22T11:47:33.999Z</time></trkpt><trkpt lat="43.4294617308619" lon="11.83871715057761"><ele>260.57142857142856</ele><time>2026-03-22T11:47:35.999Z</time></trkpt><trkpt lat="43.429505205706285" lon="11.838795108621877"><ele>260.28571428571433</ele><time>2026-03-22T11:47:37.999Z</time></trkpt><trkpt lat="43.42954465458018" lon="11.83888128046703"><ele>260.0</ele><time>2026-03-22T11:47:39.999Z</time></trkpt><trkpt lat="43.429587958515235" lon="11.838968327182789"><ele>260.00000000000006</ele><time>2026-03-22T11:47:41.999Z</time></trkpt><trkpt lat="43.42962034640616" lon="11.839051346296703"><ele>260.0</ele><time>2026-03-22T11:47:43.999Z</time></trkpt><trkpt lat="43.42968946984078" lon="11.839091820454016"><ele>260.0</ele><time>2026-03-22T11:47:44.999Z</time></trkpt><trkpt lat="43.42974025314508" lon="11.8391671174931"><ele>260.0</ele><time>2026-03-22T11:47:46.998Z</time></trkpt><trkpt lat="43.42978072191033" lon="11.839233995281635"><ele>260.0</ele><time>2026-03-22T11:47:48.998Z</time></trkpt><trkpt lat="43.4298269562951" lon="11.839312329973637"><ele>260.00000000000006</ele><time>2026-03-22T11:47:50.998Z</time></trkpt><trkpt lat="43.42987855203549" lon="11.839393219339115"><ele>260.0</ele><time>2026-03-22T11:47:52.998Z</time></trkpt><trkpt lat="43.42987644842862" lon="11.83949324444362"><ele>260.83333333333337</ele><time>2026-03-22T11:47:53.998Z</time></trkpt><trkpt lat="43.42993205940641" lon="11.839593537282582"><ele>261.6666666666667</ele><time>2026-03-22T11:47:55.998Z</time></trkpt><trkpt lat="43.429982540104284" lon="11.839689281565045"><ele>262.5</ele><time>2026-03-22T11:47:57.998Z</time></trkpt><trkpt lat="43.43003559305184" lon="11.839785810686386"><ele>263.3333333333333</ele><time>2026-03-22T11:47:59.998Z</time></trkpt><trkpt lat="43.43008639452702" lon="11.83987735018146"><ele>264.16666666666663</ele><time>2026-03-22T11:48:01.998Z</time></trkpt><trkpt lat="43.43013675896632" lon="11.839974546639276"><ele>265.0</ele><time>2026-03-22T11:48:03.998Z</time></trkpt><trkpt lat="43.4301922312511" lon="11.840070898464162"><ele>265.0</ele><time>2026-03-22T11:48:05.998Z</time></trkpt><trkpt lat="43.43024601602876" lon="11.840169602207474"><ele>265.0</ele><time>2026-03-22T11:48:07.998Z</time></trkpt><trkpt lat="43.430303711110206" lon="11.8402660926322"><ele>265.0</ele><time>2026-03-22T11:48:09.998Z</time></trkpt><trkpt lat="43.43035117184544" lon="11.840365915603487"><ele>265.0</ele><time>2026-03-22T11:48:11.998Z</time></trkpt><trkpt lat="43.4304658668129" lon="11.84049200887682"><ele>265.0</ele><time>2026-03-22T11:48:13.998Z</time></trkpt><trkpt lat="43.43051329574672" lon="11.840589558060728"><ele>265.0</ele><time>2026-03-22T11:48:15.998Z</time></trkpt><trkpt lat="43.430559746109985" lon="11.84067698481773"><ele>265.0</ele><time>2026-03-22T11:48:17.998Z</time></trkpt><trkpt lat="43.430608970739435" lon="11.84077705511515"><ele>265.0</ele><time>2026-03-22T11:48:19.998Z</time></trkpt><trkpt lat="43.430664493414845" lon="11.840880707281807"><ele>265.0</ele><time>2026-03-22T11:48:21.998Z</time></trkpt><trkpt lat="43.43072116533288" lon="11.84098758180905"><ele>265.0</ele><time>2026-03-22T11:48:24Z</time></trkpt><trkpt lat="43.4307711901478" lon="11.841085558352846"><ele>265.0</ele><time>2026-03-22T11:48:26Z</time></trkpt><trkpt lat="43.430824133482055" lon="11.841185300572912"><ele>264.66666666666663</ele><time>2026-03-22T11:48:28Z</time></trkpt><trkpt lat="43.43088010717196" lon="11.841290363795915"><ele>264.3333333333333</ele><time>2026-03-22T11:48:30Z</time></trkpt><trkpt lat="43.43093672067609" lon="11.841382763452499"><ele>264.0</ele><time>2026-03-22T11:48:32Z</time></trkpt><trkpt lat="43.43099807690225" lon="11.841478946416233"><ele>263.6666666666667</ele><time>2026-03-22T11:48:34Z</time></trkpt><trkpt lat="43.431061542659315" lon="11.841560347028615"><ele>263.33333333333337</ele><time>2026-03-22T11:48:36Z</time></trkpt><trkpt lat="43.4311269070813" lon="11.841630927707326"><ele>263.0</ele><time>2026-03-22T11:48:38Z</time></trkpt><trkpt lat="43.43119424798009" lon="11.841701539111982"><ele>263.0</ele><time>2026-03-22T11:48:40Z</time></trkpt><trkpt lat="43.431266126035815" lon="11.841759309211781"><ele>263.0</ele><time>2026-03-22T11:48:42Z</time></trkpt><trkpt lat="43.431328447651104" lon="11.84182798788798"><ele>263.0</ele><time>2026-03-22T11:48:44Z</time></trkpt><trkpt lat="43.43139409859311" lon="11.84189820884591"><ele>263.0</ele><time>2026-03-22T11:48:46Z</time></trkpt><trkpt lat="43.43145642931323" lon="11.84196218634424"><ele>263.0</ele><time>2026-03-22T11:48:48Z</time></trkpt><trkpt lat="43.431516367282434" lon="11.84202571096805"><ele>263.0</ele><time>2026-03-22T11:48:50Z</time></trkpt><trkpt lat="43.43158254615584" lon="11.842091538445779"><ele>263.33333333333337</ele><time>2026-03-22T11:48:52Z</time></trkpt><trkpt lat="43.43163850695836" lon="11.842153739580228"><ele>263.6666666666667</ele><time>2026-03-22T11:48:54Z</time></trkpt><trkpt lat="43.43170249888819" lon="11.842214021882855"><ele>264.0</ele><time>2026-03-22T11:48:56Z</time></trkpt><trkpt lat="43.431766189173395" lon="11.842276136947794"><ele>264.3333333333333</ele><time>2026-03-22T11:48:58Z</time></trkpt><trkpt lat="43.43183038986237" lon="11.842340393745296"><ele>264.66666666666663</ele><time>2026-03-22T11:49:00Z</time></trkpt><trkpt lat="43.43189428545088" lon="11.84240692791794"><ele>265.0</ele><time>2026-03-22T11:49:02Z</time></trkpt><trkpt lat="43.431958678732876" lon="11.842471544649792"><ele>265.0</ele><time>2026-03-22T11:49:03.999Z</time></trkpt><trkpt lat="43.43202191264624" lon="11.842539168672905"><ele>265.0</ele><time>2026-03-22T11:49:05.999Z</time></trkpt><trkpt lat="43.43208777430989" lon="11.842602675693058"><ele>265.0</ele><time>2026-03-22T11:49:07.999Z</time></trkpt><trkpt lat="43.43215000994351" lon="11.842666269106317"><ele>265.0</ele><time>2026-03-22T11:49:09.999Z</time></trkpt><trkpt lat="43.432212318507105" lon="11.842731505017221"><ele>265.0</ele><time>2026-03-22T11:49:11.999Z</time></trkpt><trkpt lat="43.43227512523044" lon="11.8427947587605"><ele>265.0</ele><time>2026-03-22T11:49:13.999Z</time></trkpt><trkpt lat="43.43233593194518" lon="11.842858962164684"><ele>265.5</ele><time>2026-03-22T11:49:15.999Z</time></trkpt><trkpt lat="43.43239780032821" lon="11.84291937252758"><ele>266.0</ele><time>2026-03-22T11:49:17.999Z</time></trkpt><trkpt lat="43.43246257525681" lon="11.842982413501977"><ele>266.5</ele><time>2026-03-22T11:49:19.999Z</time></trkpt><trkpt lat="43.43252432861145" lon="11.843047835021308"><ele>267.0</ele><time>2026-03-22T11:49:21.999Z</time></trkpt><trkpt lat="43.43258828077744" lon="11.843116390067927"><ele>267.5</ele><time>2026-03-22T11:49:23.999Z</time></trkpt><trkpt lat="43.43265202844095" lon="11.843182851107903"><ele>268.0</ele><time>2026-03-22T11:49:25.999Z</time></trkpt><trkpt lat="43.43271672246807" lon="11.843250791860534"><ele>268.0</ele><time>2026-03-22T11:49:27.999Z</time></trkpt><trkpt lat="43.4327855653068" lon="11.843315760570048"><ele>268.0</ele><time>2026-03-22T11:49:29.999Z</time></trkpt><trkpt lat="43.43285130999826" lon="11.843388053276588"><ele>268.0</ele><time>2026-03-22T11:49:31.999Z</time></trkpt><trkpt lat="43.43291531462572" lon="11.843455428201045"><ele>268.0</ele><time>2026-03-22T11:49:33.999Z</time></trkpt><trkpt lat="43.43297533523331" lon="11.843525395736062"><ele>268.0</ele><time>2026-03-22T11:49:35.999Z</time></trkpt><trkpt lat="43.43303413821226" lon="11.843594995966313"><ele>268.0</ele><time>2026-03-22T11:49:37.999Z</time></trkpt><trkpt lat="43.433092671008524" lon="11.843669286171947"><ele>268.3333333333333</ele><time>2026-03-22T11:49:39.999Z</time></trkpt><trkpt lat="43.433147806872604" lon="11.843746723404628"><ele>268.66666666666663</ele><time>2026-03-22T11:49:41.999Z</time></trkpt><trkpt lat="43.43320377812859" lon="11.843824963057337"><ele>269.0</ele><time>2026-03-22T11:49:43.999Z</time></trkpt><trkpt lat="43.433254619262506" lon="11.843907559459797"><ele>269.3333333333333</ele><time>2026-03-22T11:49:45.999Z</time></trkpt><trkpt lat="43.433305644805245" lon="11.843988592932602"><ele>269.6666666666667</ele><time>2026-03-22T11:49:47.999Z</time></trkpt><trkpt lat="43.433353458349295" lon="11.844074361151888"><ele>270.0</ele><time>2026-03-22T11:49:49.999Z</time></trkpt><trkpt lat="43.43340327414682" lon="11.844160925157668"><ele>270.0</ele><time>2026-03-22T11:49:51.999Z</time></trkpt><trkpt lat="43.433445993740435" lon="11.844248768226388"><ele>270.0</ele><time>2026-03-22T11:49:53.999Z</time></trkpt><trkpt lat="43.433490728639924" lon="11.844335656535101"><ele>270.0</ele><time>2026-03-22T11:49:55.999Z</time></trkpt><trkpt lat="43.43353245131669" lon="11.844423816518848"><ele>270.0</ele><time>2026-03-22T11:49:57.999Z</time></trkpt><trkpt lat="43.43357507148884" lon="11.844512184036079"><ele>270.0</ele><time>2026-03-22T11:49:59.999Z</time></trkpt><trkpt lat="43.43362222269858" lon="11.844602013622385"><ele>270.0</ele><time>2026-03-22T11:50:01.999Z</time></trkpt><trkpt lat="43.43366476985385" lon="11.84469359022534"><ele>270.0</ele><time>2026-03-22T11:50:03.998Z</time></trkpt><trkpt lat="43.433709843167556" lon="11.844786213330645"><ele>270.0</ele><time>2026-03-22T11:50:05.998Z</time></trkpt><trkpt lat="43.43375441378871" lon="11.844879207963809"><ele>270.0</ele><time>2026-03-22T11:50:07.998Z</time></trkpt><trkpt lat="43.43379878872706" lon="11.84497137853931"><ele>270.0</ele><time>2026-03-22T11:50:09.998Z</time></trkpt><trkpt lat="43.43384236929783" lon="11.845063059789949"><ele>270.0</ele><time>2026-03-22T11:50:11.998Z</time></trkpt><trkpt lat="43.43388828554596" lon="11.845156249123528"><ele>270.0</ele><time>2026-03-22T11:50:13.998Z</time></trkpt><trkpt lat="43.433934723901736" lon="11.845249555029664"><ele>270.5</ele><time>2026-03-22T11:50:15.998Z</time></trkpt><trkpt lat="43.43397792601214" lon="11.845343045103315"><ele>271.0</ele><time>2026-03-22T11:50:17.998Z</time></trkpt><trkpt lat="43.43402497881407" lon="11.845435210889688"><ele>271.5</ele><time>2026-03-22T11:50:19.998Z</time></trkpt><trkpt lat="43.434071597904016" lon="11.845529572522793"><ele>272.0</ele><time>2026-03-22T11:50:21.998Z</time></trkpt><trkpt lat="43.434116063684" lon="11.845621266237908"><ele>272.5</ele><time>2026-03-22T11:50:23.998Z</time></trkpt><trkpt lat="43.43416292493327" lon="11.845717902571781"><ele>273.0</ele><time>2026-03-22T11:50:25.998Z</time></trkpt><trkpt lat="43.43420491875558" lon="11.845811775859925"><ele>273.0</ele><time>2026-03-22T11:50:27.998Z</time></trkpt><trkpt lat="43.43425366403208" lon="11.845905033346224"><ele>273.0</ele><time>2026-03-22T11:50:30Z</time></trkpt><trkpt lat="43.43429879153631" lon="11.846000773519673"><ele>273.0</ele><time>2026-03-22T11:50:32Z</time></trkpt><trkpt lat="43.434344430939845" lon="11.846093454472756"><ele>273.0</ele><time>2026-03-22T11:50:34Z</time></trkpt><trkpt lat="43.434389222125006" lon="11.846188090605295"><ele>273.0</ele><time>2026-03-22T11:50:36Z</time></trkpt><trkpt lat="43.43443588057738" lon="11.846283168648677"><ele>273.0</ele><time>2026-03-22T11:50:38Z</time></trkpt><trkpt lat="43.43448316296508" lon="11.846379261516015"><ele>273.0</ele><time>2026-03-22T11:50:40Z</time></trkpt><trkpt lat="43.43452688533769" lon="11.846474545431876"><ele>273.0</ele><time>2026-03-22T11:50:42Z</time></trkpt><trkpt lat="43.43457347116375" lon="11.846571432906737"><ele>273.0</ele><time>2026-03-22T11:50:44Z</time></trkpt><trkpt lat="43.4346186105555" lon="11.84666824893984"><ele>273.0</ele><time>2026-03-22T11:50:46Z</time></trkpt><trkpt lat="43.43466517370509" lon="11.846765264195124"><ele>273.0</ele><time>2026-03-22T11:50:48Z</time></trkpt><trkpt lat="43.434711352005046" lon="11.846861310454639"><ele>273.0</ele><time>2026-03-22T11:50:50Z</time></trkpt><trkpt lat="43.43475652522032" lon="11.846958179912814"><ele>273.6666666666667</ele><time>2026-03-22T11:50:52Z</time></trkpt><trkpt lat="43.434802266911774" lon="11.847055310651506"><ele>274.3333333333333</ele><time>2026-03-22T11:50:54Z</time></trkpt><trkpt lat="43.43484844068369" lon="11.847153033217998"><ele>275.0</ele><time>2026-03-22T11:50:56Z</time></trkpt><trkpt lat="43.4348946591117" lon="11.84724942093351"><ele>275.66666666666663</ele><time>2026-03-22T11:50:58Z</time></trkpt><trkpt lat="43.43494025216981" lon="11.847345063579409"><ele>276.3333333333333</ele><time>2026-03-22T11:51:00Z</time></trkpt><trkpt lat="43.434986099272884" lon="11.847441195713117"><ele>277.0</ele><time>2026-03-22T11:51:02Z</time></trkpt><trkpt lat="43.43502853249895" lon="11.84753733440875"><ele>276.85714285714283</ele><time>2026-03-22T11:51:04Z</time></trkpt><trkpt lat="43.435073179076994" lon="11.847632691181284"><ele>276.71428571428567</ele><time>2026-03-22T11:51:06Z</time></trkpt><trkpt lat="43.43511553741454" lon="11.847717157689706"><ele>276.57142857142856</ele><time>2026-03-22T11:51:08Z</time></trkpt><trkpt lat="43.43515153044567" lon="11.847798624699251"><ele>276.42857142857144</ele><time>2026-03-22T11:51:09.999Z</time></trkpt><trkpt lat="43.43518817797211" lon="11.847876726626838"><ele>276.28571428571433</ele><time>2026-03-22T11:51:11.999Z</time></trkpt><trkpt lat="43.43522796205895" lon="11.847965364220068"><ele>276.14285714285717</ele><time>2026-03-22T11:51:13.999Z</time></trkpt><trkpt lat="43.43527193470684" lon="11.848051577690944"><ele>276.0</ele><time>2026-03-22T11:51:15.999Z</time></trkpt><trkpt lat="43.43531403481541" lon="11.848142887461803"><ele>276.0</ele><time>2026-03-22T11:51:17.999Z</time></trkpt><trkpt lat="43.43535891674399" lon="11.848241481900343"><ele>276.0</ele><time>2026-03-22T11:51:19.999Z</time></trkpt><trkpt lat="43.435405045439595" lon="11.848344807763183"><ele>276.0</ele><time>2026-03-22T11:51:21.999Z</time></trkpt><trkpt lat="43.43545616642741" lon="11.848449449765573"><ele>276.0</ele><time>2026-03-22T11:51:23.999Z</time></trkpt><trkpt lat="43.435501204292606" lon="11.848559930221322"><ele>276.0</ele><time>2026-03-22T11:51:25.999Z</time></trkpt><trkpt lat="43.435551268045664" lon="11.848666785206744"><ele>276.0</ele><time>2026-03-22T11:51:27.999Z</time></trkpt><trkpt lat="43.435596932054665" lon="11.848777086176474"><ele>276.8</ele><time>2026-03-22T11:51:29.999Z</time></trkpt><trkpt lat="43.43565235746861" lon="11.848889667013893"><ele>277.6</ele><time>2026-03-22T11:51:31.999Z</time></trkpt><trkpt lat="43.43570647427465" lon="11.84900883477692"><ele>278.4</ele><time>2026-03-22T11:51:33.999Z</time></trkpt><trkpt lat="43.43576280875241" lon="11.849135981807926"><ele>279.2</ele><time>2026-03-22T11:51:35.999Z</time></trkpt><trkpt lat="43.4358183896896" lon="11.849275915594722"><ele>280.0</ele><time>2026-03-22T11:51:37.999Z</time></trkpt><trkpt lat="43.435864795716725" lon="11.849418785641936"><ele>280.16666666666663</ele><time>2026-03-22T11:51:39.999Z</time></trkpt><trkpt lat="43.43585517459719" lon="11.849580239211335"><ele>280.3333333333333</ele><time>2026-03-22T11:51:41.999Z</time></trkpt><trkpt lat="43.435815454671015" lon="11.849745350008618"><ele>280.5</ele><time>2026-03-22T11:51:43.999Z</time></trkpt><trkpt lat="43.43580167723974" lon="11.849835607192718"><ele>280.6666666666667</ele><time>2026-03-22T11:51:44.999Z</time></trkpt><trkpt lat="43.43580036085265" lon="11.84992571314079"><ele>280.83333333333337</ele><time>2026-03-22T11:51:45.999Z</time></trkpt><trkpt lat="43.43581841883835" lon="11.850017186291375"><ele>281.0</ele><time>2026-03-22T11:51:46.999Z</time></trkpt><trkpt lat="43.435854341965474" lon="11.850095199361085"><ele>281.42857142857144</ele><time>2026-03-22T11:51:47.999Z</time></trkpt><trkpt lat="43.43590384168971" lon="11.85016006102989"><ele>281.8571428571429</ele><time>2026-03-22T11:51:48.999Z</time></trkpt><trkpt lat="43.43596812248771" lon="11.850198876118023"><ele>282.2857142857143</ele><time>2026-03-22T11:51:49.999Z</time></trkpt><trkpt lat="43.43603175357792" lon="11.850222914165071"><ele>282.7142857142857</ele><time>2026-03-22T11:51:50.999Z</time></trkpt><trkpt lat="43.436095674425644" lon="11.850230025356648"><ele>283.1428571428571</ele><time>2026-03-22T11:51:51.999Z</time></trkpt><trkpt lat="43.43616156880478" lon="11.850216297208915"><ele>283.57142857142856</ele><time>2026-03-22T11:51:52.999Z</time></trkpt><trkpt lat="43.436230963979234" lon="11.850217931801113"><ele>284.0</ele><time>2026-03-22T11:51:53.999Z</time></trkpt><trkpt lat="43.43629059359537" lon="11.850249911270392"><ele>283.8</ele><time>2026-03-22T11:51:54.999Z</time></trkpt><trkpt lat="43.43636070936277" lon="11.850382879800188"><ele>283.59999999999997</ele><time>2026-03-22T11:51:56.999Z</time></trkpt><trkpt lat="43.43639888041493" lon="11.85052284767195"><ele>283.4</ele><time>2026-03-22T11:51:58.999Z</time></trkpt><trkpt lat="43.436435000218275" lon="11.850664512195824"><ele>283.2</ele><time>2026-03-22T11:52:00.999Z</time></trkpt><trkpt lat="43.436480297384286" lon="11.850803713326703"><ele>283.0</ele><time>2026-03-22T11:52:02.999Z</time></trkpt><trkpt lat="43.436538495928275" lon="11.850941517971835"><ele>283.4</ele><time>2026-03-22T11:52:04.998Z</time></trkpt><trkpt lat="43.43661105449021" lon="11.851058825147245"><ele>283.8</ele><time>2026-03-22T11:52:06.998Z</time></trkpt><trkpt lat="43.436699657007836" lon="11.851157708151197"><ele>284.2</ele><time>2026-03-22T11:52:08.998Z</time></trkpt><trkpt lat="43.43680599497247" lon="11.8512334780446"><ele>284.6</ele><time>2026-03-22T11:52:10.998Z</time></trkpt><trkpt lat="43.43686613540637" lon="11.851268523510965"><ele>285.0</ele><time>2026-03-22T11:52:11.998Z</time></trkpt><trkpt lat="43.43692611624984" lon="11.851305818236753"><ele>285.0</ele><time>2026-03-22T11:52:12.998Z</time></trkpt><trkpt lat="43.43698530442878" lon="11.851339986997854"><ele>285.0</ele><time>2026-03-22T11:52:13.998Z</time></trkpt><trkpt lat="43.43704557686028" lon="11.851371443462146"><ele>285.0</ele><time>2026-03-22T11:52:14.998Z</time></trkpt><trkpt lat="43.43710800633643" lon="11.851395710383736"><ele>285.0</ele><time>2026-03-22T11:52:15.998Z</time></trkpt><trkpt lat="43.43717194272129" lon="11.851427820421913"><ele>285.0</ele><time>2026-03-22T11:52:16.998Z</time></trkpt><trkpt lat="43.43723196847664" lon="11.851461948577045"><ele>285.0</ele><time>2026-03-22T11:52:17.998Z</time></trkpt><trkpt lat="43.43730410976526" lon="11.85147696662493"><ele>285.0</ele><time>2026-03-22T11:52:19.998Z</time></trkpt><trkpt lat="43.437408758583686" lon="11.85140185170241"><ele>284.4</ele><time>2026-03-22T11:52:35Z</time></trkpt><trkpt lat="43.43756194282795" lon="11.851399540307993"><ele>283.8</ele><time>2026-03-22T11:52:42Z</time></trkpt><trkpt lat="43.43761041657799" lon="11.851338447555388"><ele>283.2</ele><time>2026-03-22T11:52:45Z</time></trkpt><trkpt lat="43.43769317203936" lon="11.851294817460722"><ele>282.6</ele><time>2026-03-22T11:52:49Z</time></trkpt><trkpt lat="43.43775591167281" lon="11.851225632052346"><ele>282.0</ele><time>2026-03-22T11:52:53Z</time></trkpt><trkpt lat="43.43781030999387" lon="11.85116715524771"><ele>282.0</ele><time>2026-03-22T11:52:57Z</time></trkpt><trkpt lat="43.43786874158205" lon="11.851116868093413"><ele>282.0</ele><time>2026-03-22T11:53:02Z</time></trkpt><trkpt lat="43.438022272558705" lon="11.851115356902113"><ele>282.0</ele><time>2026-03-22T11:53:13Z</time></trkpt><trkpt lat="43.43812667754616" lon="11.851100229319936"><ele>282.0</ele><time>2026-03-22T11:53:20.999Z</time></trkpt><trkpt lat="43.43820459499863" lon="11.851110269456052"><ele>282.0</ele><time>2026-03-22T11:53:32.999Z</time></trkpt><trkpt lat="43.438264593060765" lon="11.851152043371608"><ele>283.0</ele><time>2026-03-22T11:54:02.999Z</time></trkpt><trkpt lat="43.43832617485098" lon="11.851187980624843"><ele>284.0</ele><time>2026-03-22T11:54:06.999Z</time></trkpt><trkpt lat="43.43838607622992" lon="11.85132929950079"><ele>285.0</ele><time>2026-03-22T11:54:14.998Z</time></trkpt><trkpt lat="43.438454582742125" lon="11.851407740233956"><ele>286.0</ele><time>2026-03-22T11:54:18.998Z</time></trkpt><trkpt lat="43.43851468694817" lon="11.851462530992839"><ele>287.0</ele><time>2026-03-22T11:54:21.998Z</time></trkpt><trkpt lat="43.43857059539059" lon="11.851392625106937"><ele>288.0</ele><time>2026-03-22T11:54:25.998Z</time></trkpt><trkpt lat="43.43863713086903" lon="11.851421289890405"><ele>288.00000000000006</ele><time>2026-03-22T11:56:18.999Z</time></trkpt><trkpt lat="43.43858706981446" lon="11.851354046271336"><ele>288.0</ele><time>2026-03-22T11:58:33.998Z</time></trkpt><trkpt lat="43.43852630088873" lon="11.851327514844995"><ele>288.0</ele><time>2026-03-22T11:58:43.998Z</time></trkpt><trkpt lat="43.43848144552466" lon="11.851393985113656"><ele>288.0</ele><time>2026-03-22T11:58:49.998Z</time></trkpt><trkpt lat="43.438429828921684" lon="11.85133434704604"><ele>288.0</ele><time>2026-03-22T11:58:57Z</time></trkpt><trkpt lat="43.43837550811182" lon="11.851290119246952"><ele>288.00000000000006</ele><time>2026-03-22T11:59:01Z</time></trkpt><trkpt lat="43.43839057257837" lon="11.851197129225458"><ele>288.0</ele><time>2026-03-22T11:59:04Z</time></trkpt><trkpt lat="43.438491448173735" lon="11.851179495783942"><ele>288.0</ele><time>2026-03-22T11:59:15Z</time></trkpt><trkpt lat="43.43842059611297" lon="11.851139802217572"><ele>288.0</ele><time>2026-03-22T11:59:27Z</time></trkpt><trkpt lat="43.43852071462163" lon="11.851214370971492"><ele>288.0</ele><time>2026-03-22T11:59:28Z</time></trkpt><trkpt lat="43.43859158418729" lon="11.851361485186803"><ele>288.0</ele><time>2026-03-22T11:59:30Z</time></trkpt><trkpt lat="43.43874841191832" lon="11.851412674343882"><ele>288.0</ele><time>2026-03-22T11:59:32Z</time></trkpt><trkpt lat="43.43842118051247" lon="11.851201225083184"><ele>288.0</ele><time>2026-03-22T11:59:33.999Z</time></trkpt><trkpt lat="43.43850879405634" lon="11.851222679280607"><ele>288.0</ele><time>2026-03-22T11:59:37.999Z</time></trkpt><trkpt lat="43.43873033913321" lon="11.851254317512169"><ele>288.0</ele><time>2026-03-22T11:59:38.999Z</time></trkpt><trkpt lat="43.438667658836664" lon="11.851276528287922"><ele>288.0</ele><time>2026-03-22T12:00:03.999Z</time></trkpt></trkseg></trk></gpx>